<?xml version="1.0" encoding="UTF-8" standalone="no" ?>
<gpx xmlns="http://www.topografix.com/GPX/1/1" xmlns:xsi="http://www.w3.org/2001/XMLSchema-instance" xsi:schemaLocation="http://www.topografix.com/GPX/1/1 http://www.topografix.com/GPX/1/1/gpx.xsd" version="1.1" creator="VisuGPX - https://www.visugpx.com">
  <metadata>
    <name>E-NE-Malakoff Carquefou St Mars Désert Le Cellier Mauves Loroux Bottereau Haute Goulaine Vertou Rezé</name>
    <desc><![CDATA[E-NE-Malakoff Carquefou St Mars Désert Le Cellier Mauves Loroux Bottereau Haute Goulaine Vertou Rezé]]></desc>
  </metadata>
  <trk>
    <name><![CDATA[2021-01-02 12:22 +01:00]]></name>
    <trkseg>
      <trkpt lat="47.16788" lon="-1.62659">
        <ele>72</ele>
        <time>2021-01-02T11:22:54.000Z</time>
      </trkpt>
      <trkpt lat="47.1678" lon="-1.62653">
        <ele>73</ele>
        <time>2021-01-02T11:24:26.000Z</time>
      </trkpt>
      <trkpt lat="47.16792" lon="-1.62648">
        <ele>71</ele>
        <time>2021-01-02T11:25:58.000Z</time>
      </trkpt>
      <trkpt lat="47.168" lon="-1.62634">
        <ele>71</ele>
        <time>2021-01-02T11:26:00.000Z</time>
      </trkpt>
      <trkpt lat="47.16807" lon="-1.62621">
        <ele>71</ele>
        <time>2021-01-02T11:26:02.000Z</time>
      </trkpt>
      <trkpt lat="47.16815" lon="-1.62608">
        <ele>72</ele>
        <time>2021-01-02T11:26:04.000Z</time>
      </trkpt>
      <trkpt lat="47.16823" lon="-1.62596">
        <ele>72</ele>
        <time>2021-01-02T11:26:06.000Z</time>
      </trkpt>
      <trkpt lat="47.16828" lon="-1.62584">
        <ele>72</ele>
        <time>2021-01-02T11:26:08.000Z</time>
      </trkpt>
      <trkpt lat="47.16827" lon="-1.62569">
        <ele>72</ele>
        <time>2021-01-02T11:26:10.000Z</time>
      </trkpt>
      <trkpt lat="47.16818" lon="-1.62557">
        <ele>71</ele>
        <time>2021-01-02T11:26:12.000Z</time>
      </trkpt>
      <trkpt lat="47.16808" lon="-1.62548">
        <ele>70</ele>
        <time>2021-01-02T11:26:14.000Z</time>
      </trkpt>
      <trkpt lat="47.16797" lon="-1.62541">
        <ele>70</ele>
        <time>2021-01-02T11:26:16.000Z</time>
      </trkpt>
      <trkpt lat="47.16787" lon="-1.62533">
        <ele>69</ele>
        <time>2021-01-02T11:26:18.000Z</time>
      </trkpt>
      <trkpt lat="47.16775" lon="-1.62526">
        <ele>68</ele>
        <time>2021-01-02T11:26:20.000Z</time>
      </trkpt>
      <trkpt lat="47.16764" lon="-1.62519">
        <ele>67</ele>
        <time>2021-01-02T11:26:22.000Z</time>
      </trkpt>
      <trkpt lat="47.16753" lon="-1.62514">
        <ele>67</ele>
        <time>2021-01-02T11:26:24.000Z</time>
      </trkpt>
      <trkpt lat="47.16741" lon="-1.62507">
        <ele>67</ele>
        <time>2021-01-02T11:26:26.000Z</time>
      </trkpt>
      <trkpt lat="47.16729" lon="-1.62503">
        <ele>67</ele>
        <time>2021-01-02T11:26:28.000Z</time>
      </trkpt>
      <trkpt lat="47.16718" lon="-1.62497">
        <ele>66</ele>
        <time>2021-01-02T11:26:30.000Z</time>
      </trkpt>
      <trkpt lat="47.16712" lon="-1.62485">
        <ele>67</ele>
        <time>2021-01-02T11:26:32.000Z</time>
      </trkpt>
      <trkpt lat="47.16712" lon="-1.62469">
        <ele>67</ele>
        <time>2021-01-02T11:26:34.000Z</time>
      </trkpt>
      <trkpt lat="47.16715" lon="-1.6245">
        <ele>68</ele>
        <time>2021-01-02T11:26:36.000Z</time>
      </trkpt>
      <trkpt lat="47.16717" lon="-1.62432">
        <ele>69</ele>
        <time>2021-01-02T11:26:38.000Z</time>
      </trkpt>
      <trkpt lat="47.16721" lon="-1.62415">
        <ele>70</ele>
        <time>2021-01-02T11:26:40.000Z</time>
      </trkpt>
      <trkpt lat="47.16726" lon="-1.62398">
        <ele>69</ele>
        <time>2021-01-02T11:26:42.000Z</time>
      </trkpt>
      <trkpt lat="47.16731" lon="-1.6238">
        <ele>69</ele>
        <time>2021-01-02T11:26:44.000Z</time>
      </trkpt>
      <trkpt lat="47.16739" lon="-1.62365">
        <ele>70</ele>
        <time>2021-01-02T11:26:46.000Z</time>
      </trkpt>
      <trkpt lat="47.16749" lon="-1.62353">
        <ele>71</ele>
        <time>2021-01-02T11:26:48.000Z</time>
      </trkpt>
      <trkpt lat="47.16761" lon="-1.62344">
        <ele>72</ele>
        <time>2021-01-02T11:26:50.000Z</time>
      </trkpt>
      <trkpt lat="47.16773" lon="-1.62337">
        <ele>73</ele>
        <time>2021-01-02T11:26:52.000Z</time>
      </trkpt>
      <trkpt lat="47.16786" lon="-1.62331">
        <ele>73</ele>
        <time>2021-01-02T11:26:54.000Z</time>
      </trkpt>
      <trkpt lat="47.16798" lon="-1.62325">
        <ele>73</ele>
        <time>2021-01-02T11:26:56.000Z</time>
      </trkpt>
      <trkpt lat="47.1681" lon="-1.62318">
        <ele>74</ele>
        <time>2021-01-02T11:26:58.000Z</time>
      </trkpt>
      <trkpt lat="47.16821" lon="-1.6231">
        <ele>75</ele>
        <time>2021-01-02T11:27:00.000Z</time>
      </trkpt>
      <trkpt lat="47.16832" lon="-1.62299">
        <ele>74</ele>
        <time>2021-01-02T11:27:02.000Z</time>
      </trkpt>
      <trkpt lat="47.16843" lon="-1.62287">
        <ele>74</ele>
        <time>2021-01-02T11:27:04.000Z</time>
      </trkpt>
      <trkpt lat="47.16853" lon="-1.62274">
        <ele>73</ele>
        <time>2021-01-02T11:27:06.000Z</time>
      </trkpt>
      <trkpt lat="47.16863" lon="-1.6226">
        <ele>73</ele>
        <time>2021-01-02T11:27:08.000Z</time>
      </trkpt>
      <trkpt lat="47.16873" lon="-1.62247">
        <ele>73</ele>
        <time>2021-01-02T11:27:10.000Z</time>
      </trkpt>
      <trkpt lat="47.16884" lon="-1.62235">
        <ele>72</ele>
        <time>2021-01-02T11:27:12.000Z</time>
      </trkpt>
      <trkpt lat="47.16894" lon="-1.62221">
        <ele>71</ele>
        <time>2021-01-02T11:27:14.000Z</time>
      </trkpt>
      <trkpt lat="47.16904" lon="-1.62207">
        <ele>70</ele>
        <time>2021-01-02T11:27:16.000Z</time>
      </trkpt>
      <trkpt lat="47.16913" lon="-1.62193">
        <ele>70</ele>
        <time>2021-01-02T11:27:18.000Z</time>
      </trkpt>
      <trkpt lat="47.16922" lon="-1.62177">
        <ele>70</ele>
        <time>2021-01-02T11:27:20.000Z</time>
      </trkpt>
      <trkpt lat="47.16931" lon="-1.62161">
        <ele>70</ele>
        <time>2021-01-02T11:27:22.000Z</time>
      </trkpt>
      <trkpt lat="47.16939" lon="-1.62144">
        <ele>70</ele>
        <time>2021-01-02T11:27:24.000Z</time>
      </trkpt>
      <trkpt lat="47.16947" lon="-1.62128">
        <ele>70</ele>
        <time>2021-01-02T11:27:26.000Z</time>
      </trkpt>
      <trkpt lat="47.16956" lon="-1.62111">
        <ele>70</ele>
        <time>2021-01-02T11:27:28.000Z</time>
      </trkpt>
      <trkpt lat="47.16964" lon="-1.62095">
        <ele>70</ele>
        <time>2021-01-02T11:27:30.000Z</time>
      </trkpt>
      <trkpt lat="47.16972" lon="-1.62078">
        <ele>70</ele>
        <time>2021-01-02T11:27:32.000Z</time>
      </trkpt>
      <trkpt lat="47.16981" lon="-1.62062">
        <ele>70</ele>
        <time>2021-01-02T11:27:34.000Z</time>
      </trkpt>
      <trkpt lat="47.16991" lon="-1.62045">
        <ele>71</ele>
        <time>2021-01-02T11:27:36.000Z</time>
      </trkpt>
      <trkpt lat="47.17001" lon="-1.6203">
        <ele>71</ele>
        <time>2021-01-02T11:27:38.000Z</time>
      </trkpt>
      <trkpt lat="47.17011" lon="-1.62014">
        <ele>72</ele>
        <time>2021-01-02T11:27:40.000Z</time>
      </trkpt>
      <trkpt lat="47.17021" lon="-1.61999">
        <ele>71</ele>
        <time>2021-01-02T11:27:42.000Z</time>
      </trkpt>
      <trkpt lat="47.17031" lon="-1.61984">
        <ele>71</ele>
        <time>2021-01-02T11:27:44.000Z</time>
      </trkpt>
      <trkpt lat="47.17041" lon="-1.6197">
        <ele>71</ele>
        <time>2021-01-02T11:27:46.000Z</time>
      </trkpt>
      <trkpt lat="47.17051" lon="-1.61955">
        <ele>71</ele>
        <time>2021-01-02T11:27:48.000Z</time>
      </trkpt>
      <trkpt lat="47.17062" lon="-1.61942">
        <ele>71</ele>
        <time>2021-01-02T11:27:50.000Z</time>
      </trkpt>
      <trkpt lat="47.17073" lon="-1.61929">
        <ele>71</ele>
        <time>2021-01-02T11:27:52.000Z</time>
      </trkpt>
      <trkpt lat="47.17084" lon="-1.61918">
        <ele>71</ele>
        <time>2021-01-02T11:27:54.000Z</time>
      </trkpt>
      <trkpt lat="47.17095" lon="-1.61906">
        <ele>71</ele>
        <time>2021-01-02T11:27:56.000Z</time>
      </trkpt>
      <trkpt lat="47.17107" lon="-1.61895">
        <ele>71</ele>
        <time>2021-01-02T11:27:58.000Z</time>
      </trkpt>
      <trkpt lat="47.17119" lon="-1.61884">
        <ele>71</ele>
        <time>2021-01-02T11:28:00.000Z</time>
      </trkpt>
      <trkpt lat="47.1713" lon="-1.61873">
        <ele>71</ele>
        <time>2021-01-02T11:28:02.000Z</time>
      </trkpt>
      <trkpt lat="47.17142" lon="-1.61862">
        <ele>71</ele>
        <time>2021-01-02T11:28:04.000Z</time>
      </trkpt>
      <trkpt lat="47.17153" lon="-1.61852">
        <ele>71</ele>
        <time>2021-01-02T11:28:06.000Z</time>
      </trkpt>
      <trkpt lat="47.17164" lon="-1.61841">
        <ele>71</ele>
        <time>2021-01-02T11:28:08.000Z</time>
      </trkpt>
      <trkpt lat="47.17175" lon="-1.6183">
        <ele>71</ele>
        <time>2021-01-02T11:28:10.000Z</time>
      </trkpt>
      <trkpt lat="47.17186" lon="-1.61819">
        <ele>71</ele>
        <time>2021-01-02T11:28:12.000Z</time>
      </trkpt>
      <trkpt lat="47.17197" lon="-1.61808">
        <ele>71</ele>
        <time>2021-01-02T11:28:14.000Z</time>
      </trkpt>
      <trkpt lat="47.17208" lon="-1.61798">
        <ele>71</ele>
        <time>2021-01-02T11:28:16.000Z</time>
      </trkpt>
      <trkpt lat="47.17218" lon="-1.61785">
        <ele>70</ele>
        <time>2021-01-02T11:28:18.000Z</time>
      </trkpt>
      <trkpt lat="47.17225" lon="-1.61768">
        <ele>70</ele>
        <time>2021-01-02T11:28:20.000Z</time>
      </trkpt>
      <trkpt lat="47.17231" lon="-1.6175">
        <ele>71</ele>
        <time>2021-01-02T11:28:22.000Z</time>
      </trkpt>
      <trkpt lat="47.17241" lon="-1.61736">
        <ele>71</ele>
        <time>2021-01-02T11:28:24.000Z</time>
      </trkpt>
      <trkpt lat="47.17251" lon="-1.61722">
        <ele>70</ele>
        <time>2021-01-02T11:28:26.000Z</time>
      </trkpt>
      <trkpt lat="47.17259" lon="-1.61705">
        <ele>70</ele>
        <time>2021-01-02T11:28:28.000Z</time>
      </trkpt>
      <trkpt lat="47.17267" lon="-1.61688">
        <ele>70</ele>
        <time>2021-01-02T11:28:30.000Z</time>
      </trkpt>
      <trkpt lat="47.17274" lon="-1.61671">
        <ele>71</ele>
        <time>2021-01-02T11:28:32.000Z</time>
      </trkpt>
      <trkpt lat="47.17282" lon="-1.61655">
        <ele>72</ele>
        <time>2021-01-02T11:28:34.000Z</time>
      </trkpt>
      <trkpt lat="47.17291" lon="-1.6164">
        <ele>73</ele>
        <time>2021-01-02T11:28:36.000Z</time>
      </trkpt>
      <trkpt lat="47.173" lon="-1.61626">
        <ele>72</ele>
        <time>2021-01-02T11:28:38.000Z</time>
      </trkpt>
      <trkpt lat="47.17309" lon="-1.61612">
        <ele>72</ele>
        <time>2021-01-02T11:28:40.000Z</time>
      </trkpt>
      <trkpt lat="47.17319" lon="-1.61598">
        <ele>72</ele>
        <time>2021-01-02T11:28:42.000Z</time>
      </trkpt>
      <trkpt lat="47.17329" lon="-1.61583">
        <ele>72</ele>
        <time>2021-01-02T11:28:44.000Z</time>
      </trkpt>
      <trkpt lat="47.17338" lon="-1.6157">
        <ele>72</ele>
        <time>2021-01-02T11:28:46.000Z</time>
      </trkpt>
      <trkpt lat="47.17349" lon="-1.61559">
        <ele>72</ele>
        <time>2021-01-02T11:28:48.000Z</time>
      </trkpt>
      <trkpt lat="47.1736" lon="-1.61548">
        <ele>72</ele>
        <time>2021-01-02T11:28:50.000Z</time>
      </trkpt>
      <trkpt lat="47.17371" lon="-1.61536">
        <ele>72</ele>
        <time>2021-01-02T11:28:52.000Z</time>
      </trkpt>
      <trkpt lat="47.17383" lon="-1.61525">
        <ele>71</ele>
        <time>2021-01-02T11:28:54.000Z</time>
      </trkpt>
      <trkpt lat="47.17395" lon="-1.61515">
        <ele>70</ele>
        <time>2021-01-02T11:28:56.000Z</time>
      </trkpt>
      <trkpt lat="47.17407" lon="-1.61506">
        <ele>69</ele>
        <time>2021-01-02T11:28:58.000Z</time>
      </trkpt>
      <trkpt lat="47.1742" lon="-1.61497">
        <ele>69</ele>
        <time>2021-01-02T11:29:00.000Z</time>
      </trkpt>
      <trkpt lat="47.17433" lon="-1.61489">
        <ele>68</ele>
        <time>2021-01-02T11:29:02.000Z</time>
      </trkpt>
      <trkpt lat="47.17447" lon="-1.61483">
        <ele>67</ele>
        <time>2021-01-02T11:29:04.000Z</time>
      </trkpt>
      <trkpt lat="47.17461" lon="-1.61476">
        <ele>67</ele>
        <time>2021-01-02T11:29:06.000Z</time>
      </trkpt>
      <trkpt lat="47.17475" lon="-1.6147">
        <ele>66</ele>
        <time>2021-01-02T11:29:08.000Z</time>
      </trkpt>
      <trkpt lat="47.17488" lon="-1.61465">
        <ele>66</ele>
        <time>2021-01-02T11:29:10.000Z</time>
      </trkpt>
      <trkpt lat="47.175" lon="-1.61459">
        <ele>65</ele>
        <time>2021-01-02T11:29:12.000Z</time>
      </trkpt>
      <trkpt lat="47.17508" lon="-1.61452">
        <ele>65</ele>
        <time>2021-01-02T11:29:14.000Z</time>
      </trkpt>
      <trkpt lat="47.17513" lon="-1.61437">
        <ele>65</ele>
        <time>2021-01-02T11:29:16.000Z</time>
      </trkpt>
      <trkpt lat="47.17516" lon="-1.61418">
        <ele>64</ele>
        <time>2021-01-02T11:29:18.000Z</time>
      </trkpt>
      <trkpt lat="47.17521" lon="-1.61396">
        <ele>63</ele>
        <time>2021-01-02T11:29:20.000Z</time>
      </trkpt>
      <trkpt lat="47.17526" lon="-1.61377">
        <ele>63</ele>
        <time>2021-01-02T11:29:22.000Z</time>
      </trkpt>
      <trkpt lat="47.17528" lon="-1.61362">
        <ele>64</ele>
        <time>2021-01-02T11:29:24.000Z</time>
      </trkpt>
      <trkpt lat="47.17523" lon="-1.61344">
        <ele>65</ele>
        <time>2021-01-02T11:29:27.000Z</time>
      </trkpt>
      <trkpt lat="47.1752" lon="-1.61328">
        <ele>65</ele>
        <time>2021-01-02T11:29:29.000Z</time>
      </trkpt>
      <trkpt lat="47.1752" lon="-1.6131">
        <ele>65</ele>
        <time>2021-01-02T11:29:31.000Z</time>
      </trkpt>
      <trkpt lat="47.17518" lon="-1.61293">
        <ele>65</ele>
        <time>2021-01-02T11:29:33.000Z</time>
      </trkpt>
      <trkpt lat="47.17509" lon="-1.6128">
        <ele>65</ele>
        <time>2021-01-02T11:29:35.000Z</time>
      </trkpt>
      <trkpt lat="47.17502" lon="-1.61264">
        <ele>65</ele>
        <time>2021-01-02T11:29:37.000Z</time>
      </trkpt>
      <trkpt lat="47.17494" lon="-1.61247">
        <ele>65</ele>
        <time>2021-01-02T11:29:39.000Z</time>
      </trkpt>
      <trkpt lat="47.17487" lon="-1.61229">
        <ele>66</ele>
        <time>2021-01-02T11:29:41.000Z</time>
      </trkpt>
      <trkpt lat="47.1748" lon="-1.61211">
        <ele>65</ele>
        <time>2021-01-02T11:29:43.000Z</time>
      </trkpt>
      <trkpt lat="47.17472" lon="-1.61192">
        <ele>64</ele>
        <time>2021-01-02T11:29:45.000Z</time>
      </trkpt>
      <trkpt lat="47.17465" lon="-1.61174">
        <ele>64</ele>
        <time>2021-01-02T11:29:47.000Z</time>
      </trkpt>
      <trkpt lat="47.17458" lon="-1.61155">
        <ele>63</ele>
        <time>2021-01-02T11:29:49.000Z</time>
      </trkpt>
      <trkpt lat="47.17451" lon="-1.61137">
        <ele>63</ele>
        <time>2021-01-02T11:29:51.000Z</time>
      </trkpt>
      <trkpt lat="47.17443" lon="-1.61119">
        <ele>63</ele>
        <time>2021-01-02T11:29:53.000Z</time>
      </trkpt>
      <trkpt lat="47.17437" lon="-1.611">
        <ele>62</ele>
        <time>2021-01-02T11:29:55.000Z</time>
      </trkpt>
      <trkpt lat="47.17433" lon="-1.61083">
        <ele>62</ele>
        <time>2021-01-02T11:29:57.000Z</time>
      </trkpt>
      <trkpt lat="47.1743" lon="-1.61066">
        <ele>61</ele>
        <time>2021-01-02T11:29:59.000Z</time>
      </trkpt>
      <trkpt lat="47.17425" lon="-1.61051">
        <ele>61</ele>
        <time>2021-01-02T11:30:01.000Z</time>
      </trkpt>
      <trkpt lat="47.17421" lon="-1.61036">
        <ele>61</ele>
        <time>2021-01-02T11:30:03.000Z</time>
      </trkpt>
      <trkpt lat="47.17423" lon="-1.6102">
        <ele>60</ele>
        <time>2021-01-02T11:30:06.000Z</time>
      </trkpt>
      <trkpt lat="47.17433" lon="-1.61027">
        <ele>60</ele>
        <time>2021-01-02T11:30:09.000Z</time>
      </trkpt>
      <trkpt lat="47.17438" lon="-1.61045">
        <ele>58</ele>
        <time>2021-01-02T11:30:12.000Z</time>
      </trkpt>
      <trkpt lat="47.17443" lon="-1.61058">
        <ele>58</ele>
        <time>2021-01-02T11:30:14.000Z</time>
      </trkpt>
      <trkpt lat="47.17449" lon="-1.61071">
        <ele>58</ele>
        <time>2021-01-02T11:30:16.000Z</time>
      </trkpt>
      <trkpt lat="47.17457" lon="-1.61083">
        <ele>57</ele>
        <time>2021-01-02T11:30:18.000Z</time>
      </trkpt>
      <trkpt lat="47.17468" lon="-1.61094">
        <ele>56</ele>
        <time>2021-01-02T11:30:20.000Z</time>
      </trkpt>
      <trkpt lat="47.1748" lon="-1.61103">
        <ele>55</ele>
        <time>2021-01-02T11:30:22.000Z</time>
      </trkpt>
      <trkpt lat="47.17494" lon="-1.61107">
        <ele>54</ele>
        <time>2021-01-02T11:30:24.000Z</time>
      </trkpt>
      <trkpt lat="47.17508" lon="-1.61105">
        <ele>53</ele>
        <time>2021-01-02T11:30:26.000Z</time>
      </trkpt>
      <trkpt lat="47.17521" lon="-1.61098">
        <ele>53</ele>
        <time>2021-01-02T11:30:28.000Z</time>
      </trkpt>
      <trkpt lat="47.17533" lon="-1.61086">
        <ele>53</ele>
        <time>2021-01-02T11:30:30.000Z</time>
      </trkpt>
      <trkpt lat="47.17544" lon="-1.61075">
        <ele>53</ele>
        <time>2021-01-02T11:30:32.000Z</time>
      </trkpt>
      <trkpt lat="47.17556" lon="-1.61066">
        <ele>53</ele>
        <time>2021-01-02T11:30:34.000Z</time>
      </trkpt>
      <trkpt lat="47.17567" lon="-1.61056">
        <ele>53</ele>
        <time>2021-01-02T11:30:36.000Z</time>
      </trkpt>
      <trkpt lat="47.17578" lon="-1.61046">
        <ele>53</ele>
        <time>2021-01-02T11:30:38.000Z</time>
      </trkpt>
      <trkpt lat="47.17588" lon="-1.61037">
        <ele>53</ele>
        <time>2021-01-02T11:30:40.000Z</time>
      </trkpt>
      <trkpt lat="47.17599" lon="-1.61027">
        <ele>53</ele>
        <time>2021-01-02T11:30:42.000Z</time>
      </trkpt>
      <trkpt lat="47.17609" lon="-1.61017">
        <ele>52</ele>
        <time>2021-01-02T11:30:44.000Z</time>
      </trkpt>
      <trkpt lat="47.17621" lon="-1.61008">
        <ele>52</ele>
        <time>2021-01-02T11:30:46.000Z</time>
      </trkpt>
      <trkpt lat="47.17631" lon="-1.60999">
        <ele>52</ele>
        <time>2021-01-02T11:30:48.000Z</time>
      </trkpt>
      <trkpt lat="47.17642" lon="-1.6099">
        <ele>52</ele>
        <time>2021-01-02T11:30:50.000Z</time>
      </trkpt>
      <trkpt lat="47.17653" lon="-1.60981">
        <ele>52</ele>
        <time>2021-01-02T11:30:52.000Z</time>
      </trkpt>
      <trkpt lat="47.17664" lon="-1.60975">
        <ele>52</ele>
        <time>2021-01-02T11:30:54.000Z</time>
      </trkpt>
      <trkpt lat="47.17677" lon="-1.60974">
        <ele>52</ele>
        <time>2021-01-02T11:30:56.000Z</time>
      </trkpt>
      <trkpt lat="47.17689" lon="-1.60976">
        <ele>52</ele>
        <time>2021-01-02T11:30:58.000Z</time>
      </trkpt>
      <trkpt lat="47.177" lon="-1.60975">
        <ele>52</ele>
        <time>2021-01-02T11:31:00.000Z</time>
      </trkpt>
      <trkpt lat="47.17711" lon="-1.6097">
        <ele>52</ele>
        <time>2021-01-02T11:31:02.000Z</time>
      </trkpt>
      <trkpt lat="47.17721" lon="-1.60963">
        <ele>52</ele>
        <time>2021-01-02T11:31:04.000Z</time>
      </trkpt>
      <trkpt lat="47.1773" lon="-1.60956">
        <ele>51</ele>
        <time>2021-01-02T11:31:06.000Z</time>
      </trkpt>
      <trkpt lat="47.1774" lon="-1.60949">
        <ele>51</ele>
        <time>2021-01-02T11:31:08.000Z</time>
      </trkpt>
      <trkpt lat="47.1775" lon="-1.60941">
        <ele>52</ele>
        <time>2021-01-02T11:31:10.000Z</time>
      </trkpt>
      <trkpt lat="47.17759" lon="-1.60934">
        <ele>52</ele>
        <time>2021-01-02T11:31:12.000Z</time>
      </trkpt>
      <trkpt lat="47.17769" lon="-1.60926">
        <ele>52</ele>
        <time>2021-01-02T11:31:14.000Z</time>
      </trkpt>
      <trkpt lat="47.17779" lon="-1.60917">
        <ele>52</ele>
        <time>2021-01-02T11:31:16.000Z</time>
      </trkpt>
      <trkpt lat="47.17789" lon="-1.60909">
        <ele>52</ele>
        <time>2021-01-02T11:31:18.000Z</time>
      </trkpt>
      <trkpt lat="47.178" lon="-1.60901">
        <ele>52</ele>
        <time>2021-01-02T11:31:20.000Z</time>
      </trkpt>
      <trkpt lat="47.1781" lon="-1.60892">
        <ele>52</ele>
        <time>2021-01-02T11:31:22.000Z</time>
      </trkpt>
      <trkpt lat="47.17819" lon="-1.60881">
        <ele>52</ele>
        <time>2021-01-02T11:31:24.000Z</time>
      </trkpt>
      <trkpt lat="47.17827" lon="-1.60869">
        <ele>52</ele>
        <time>2021-01-02T11:31:26.000Z</time>
      </trkpt>
      <trkpt lat="47.17834" lon="-1.60854">
        <ele>52</ele>
        <time>2021-01-02T11:31:28.000Z</time>
      </trkpt>
      <trkpt lat="47.17841" lon="-1.60839">
        <ele>53</ele>
        <time>2021-01-02T11:31:30.000Z</time>
      </trkpt>
      <trkpt lat="47.17846" lon="-1.60823">
        <ele>53</ele>
        <time>2021-01-02T11:31:32.000Z</time>
      </trkpt>
      <trkpt lat="47.17849" lon="-1.60806">
        <ele>53</ele>
        <time>2021-01-02T11:31:34.000Z</time>
      </trkpt>
      <trkpt lat="47.17853" lon="-1.60789">
        <ele>53</ele>
        <time>2021-01-02T11:31:36.000Z</time>
      </trkpt>
      <trkpt lat="47.17857" lon="-1.60772">
        <ele>54</ele>
        <time>2021-01-02T11:31:38.000Z</time>
      </trkpt>
      <trkpt lat="47.17861" lon="-1.60754">
        <ele>54</ele>
        <time>2021-01-02T11:31:40.000Z</time>
      </trkpt>
      <trkpt lat="47.17865" lon="-1.60735">
        <ele>54</ele>
        <time>2021-01-02T11:31:42.000Z</time>
      </trkpt>
      <trkpt lat="47.17868" lon="-1.60717">
        <ele>55</ele>
        <time>2021-01-02T11:31:44.000Z</time>
      </trkpt>
      <trkpt lat="47.17872" lon="-1.60699">
        <ele>54</ele>
        <time>2021-01-02T11:31:46.000Z</time>
      </trkpt>
      <trkpt lat="47.17877" lon="-1.6068">
        <ele>54</ele>
        <time>2021-01-02T11:31:48.000Z</time>
      </trkpt>
      <trkpt lat="47.17883" lon="-1.60663">
        <ele>55</ele>
        <time>2021-01-02T11:31:50.000Z</time>
      </trkpt>
      <trkpt lat="47.17889" lon="-1.60646">
        <ele>55</ele>
        <time>2021-01-02T11:31:52.000Z</time>
      </trkpt>
      <trkpt lat="47.17895" lon="-1.60631">
        <ele>54</ele>
        <time>2021-01-02T11:31:54.000Z</time>
      </trkpt>
      <trkpt lat="47.17899" lon="-1.60616">
        <ele>55</ele>
        <time>2021-01-02T11:31:56.000Z</time>
      </trkpt>
      <trkpt lat="47.17901" lon="-1.60603">
        <ele>56</ele>
        <time>2021-01-02T11:31:58.000Z</time>
      </trkpt>
      <trkpt lat="47.17907" lon="-1.60588">
        <ele>56</ele>
        <time>2021-01-02T11:32:01.000Z</time>
      </trkpt>
      <trkpt lat="47.1792" lon="-1.60585">
        <ele>56</ele>
        <time>2021-01-02T11:32:05.000Z</time>
      </trkpt>
      <trkpt lat="47.17931" lon="-1.60584">
        <ele>56</ele>
        <time>2021-01-02T11:32:07.000Z</time>
      </trkpt>
      <trkpt lat="47.17943" lon="-1.60582">
        <ele>55</ele>
        <time>2021-01-02T11:32:09.000Z</time>
      </trkpt>
      <trkpt lat="47.17955" lon="-1.60575">
        <ele>55</ele>
        <time>2021-01-02T11:32:11.000Z</time>
      </trkpt>
      <trkpt lat="47.17966" lon="-1.60568">
        <ele>54</ele>
        <time>2021-01-02T11:32:13.000Z</time>
      </trkpt>
      <trkpt lat="47.1798" lon="-1.60562">
        <ele>54</ele>
        <time>2021-01-02T11:32:15.000Z</time>
      </trkpt>
      <trkpt lat="47.17994" lon="-1.60559">
        <ele>53</ele>
        <time>2021-01-02T11:32:17.000Z</time>
      </trkpt>
      <trkpt lat="47.18009" lon="-1.60556">
        <ele>53</ele>
        <time>2021-01-02T11:32:19.000Z</time>
      </trkpt>
      <trkpt lat="47.18024" lon="-1.60555">
        <ele>53</ele>
        <time>2021-01-02T11:32:21.000Z</time>
      </trkpt>
      <trkpt lat="47.18039" lon="-1.60559">
        <ele>53</ele>
        <time>2021-01-02T11:32:23.000Z</time>
      </trkpt>
      <trkpt lat="47.18053" lon="-1.60567">
        <ele>53</ele>
        <time>2021-01-02T11:32:25.000Z</time>
      </trkpt>
      <trkpt lat="47.18067" lon="-1.60574">
        <ele>52</ele>
        <time>2021-01-02T11:32:27.000Z</time>
      </trkpt>
      <trkpt lat="47.1808" lon="-1.60581">
        <ele>52</ele>
        <time>2021-01-02T11:32:29.000Z</time>
      </trkpt>
      <trkpt lat="47.18093" lon="-1.60589">
        <ele>51</ele>
        <time>2021-01-02T11:32:31.000Z</time>
      </trkpt>
      <trkpt lat="47.18107" lon="-1.60595">
        <ele>51</ele>
        <time>2021-01-02T11:32:33.000Z</time>
      </trkpt>
      <trkpt lat="47.1812" lon="-1.606">
        <ele>51</ele>
        <time>2021-01-02T11:32:35.000Z</time>
      </trkpt>
      <trkpt lat="47.18133" lon="-1.60603">
        <ele>51</ele>
        <time>2021-01-02T11:32:37.000Z</time>
      </trkpt>
      <trkpt lat="47.18145" lon="-1.60605">
        <ele>52</ele>
        <time>2021-01-02T11:32:39.000Z</time>
      </trkpt>
      <trkpt lat="47.18158" lon="-1.60607">
        <ele>52</ele>
        <time>2021-01-02T11:32:41.000Z</time>
      </trkpt>
      <trkpt lat="47.1817" lon="-1.60605">
        <ele>52</ele>
        <time>2021-01-02T11:32:43.000Z</time>
      </trkpt>
      <trkpt lat="47.18183" lon="-1.60604">
        <ele>53</ele>
        <time>2021-01-02T11:32:45.000Z</time>
      </trkpt>
      <trkpt lat="47.18191" lon="-1.60593">
        <ele>53</ele>
        <time>2021-01-02T11:32:47.000Z</time>
      </trkpt>
      <trkpt lat="47.18192" lon="-1.60579">
        <ele>54</ele>
        <time>2021-01-02T11:32:49.000Z</time>
      </trkpt>
      <trkpt lat="47.18204" lon="-1.60571">
        <ele>54</ele>
        <time>2021-01-02T11:32:52.000Z</time>
      </trkpt>
      <trkpt lat="47.18214" lon="-1.60567">
        <ele>54</ele>
        <time>2021-01-02T11:32:54.000Z</time>
      </trkpt>
      <trkpt lat="47.18226" lon="-1.60562">
        <ele>54</ele>
        <time>2021-01-02T11:32:56.000Z</time>
      </trkpt>
      <trkpt lat="47.18238" lon="-1.60553">
        <ele>54</ele>
        <time>2021-01-02T11:32:58.000Z</time>
      </trkpt>
      <trkpt lat="47.18252" lon="-1.60544">
        <ele>55</ele>
        <time>2021-01-02T11:33:00.000Z</time>
      </trkpt>
      <trkpt lat="47.18264" lon="-1.60534">
        <ele>55</ele>
        <time>2021-01-02T11:33:02.000Z</time>
      </trkpt>
      <trkpt lat="47.18276" lon="-1.60522">
        <ele>54</ele>
        <time>2021-01-02T11:33:04.000Z</time>
      </trkpt>
      <trkpt lat="47.18288" lon="-1.6051">
        <ele>54</ele>
        <time>2021-01-02T11:33:06.000Z</time>
      </trkpt>
      <trkpt lat="47.18299" lon="-1.60497">
        <ele>54</ele>
        <time>2021-01-02T11:33:08.000Z</time>
      </trkpt>
      <trkpt lat="47.1831" lon="-1.60484">
        <ele>55</ele>
        <time>2021-01-02T11:33:10.000Z</time>
      </trkpt>
      <trkpt lat="47.18321" lon="-1.60471">
        <ele>55</ele>
        <time>2021-01-02T11:33:12.000Z</time>
      </trkpt>
      <trkpt lat="47.18332" lon="-1.60459">
        <ele>55</ele>
        <time>2021-01-02T11:33:14.000Z</time>
      </trkpt>
      <trkpt lat="47.18343" lon="-1.60446">
        <ele>55</ele>
        <time>2021-01-02T11:33:16.000Z</time>
      </trkpt>
      <trkpt lat="47.18354" lon="-1.60432">
        <ele>55</ele>
        <time>2021-01-02T11:33:18.000Z</time>
      </trkpt>
      <trkpt lat="47.18365" lon="-1.60418">
        <ele>55</ele>
        <time>2021-01-02T11:33:20.000Z</time>
      </trkpt>
      <trkpt lat="47.18376" lon="-1.60404">
        <ele>55</ele>
        <time>2021-01-02T11:33:22.000Z</time>
      </trkpt>
      <trkpt lat="47.18386" lon="-1.60391">
        <ele>55</ele>
        <time>2021-01-02T11:33:24.000Z</time>
      </trkpt>
      <trkpt lat="47.18396" lon="-1.60376">
        <ele>55</ele>
        <time>2021-01-02T11:33:26.000Z</time>
      </trkpt>
      <trkpt lat="47.18406" lon="-1.60363">
        <ele>55</ele>
        <time>2021-01-02T11:33:28.000Z</time>
      </trkpt>
      <trkpt lat="47.18417" lon="-1.60349">
        <ele>55</ele>
        <time>2021-01-02T11:33:30.000Z</time>
      </trkpt>
      <trkpt lat="47.18427" lon="-1.60335">
        <ele>55</ele>
        <time>2021-01-02T11:33:32.000Z</time>
      </trkpt>
      <trkpt lat="47.18437" lon="-1.6032">
        <ele>55</ele>
        <time>2021-01-02T11:33:34.000Z</time>
      </trkpt>
      <trkpt lat="47.18446" lon="-1.60304">
        <ele>55</ele>
        <time>2021-01-02T11:33:36.000Z</time>
      </trkpt>
      <trkpt lat="47.18455" lon="-1.60288">
        <ele>55</ele>
        <time>2021-01-02T11:33:38.000Z</time>
      </trkpt>
      <trkpt lat="47.18464" lon="-1.60272">
        <ele>55</ele>
        <time>2021-01-02T11:33:40.000Z</time>
      </trkpt>
      <trkpt lat="47.18473" lon="-1.60256">
        <ele>55</ele>
        <time>2021-01-02T11:33:42.000Z</time>
      </trkpt>
      <trkpt lat="47.18482" lon="-1.60239">
        <ele>55</ele>
        <time>2021-01-02T11:33:44.000Z</time>
      </trkpt>
      <trkpt lat="47.18491" lon="-1.60223">
        <ele>55</ele>
        <time>2021-01-02T11:33:46.000Z</time>
      </trkpt>
      <trkpt lat="47.185" lon="-1.60206">
        <ele>55</ele>
        <time>2021-01-02T11:33:48.000Z</time>
      </trkpt>
      <trkpt lat="47.18508" lon="-1.6019">
        <ele>55</ele>
        <time>2021-01-02T11:33:50.000Z</time>
      </trkpt>
      <trkpt lat="47.18516" lon="-1.60174">
        <ele>55</ele>
        <time>2021-01-02T11:33:52.000Z</time>
      </trkpt>
      <trkpt lat="47.18524" lon="-1.60157">
        <ele>56</ele>
        <time>2021-01-02T11:33:54.000Z</time>
      </trkpt>
      <trkpt lat="47.18532" lon="-1.6014">
        <ele>56</ele>
        <time>2021-01-02T11:33:56.000Z</time>
      </trkpt>
      <trkpt lat="47.1854" lon="-1.60123">
        <ele>56</ele>
        <time>2021-01-02T11:33:58.000Z</time>
      </trkpt>
      <trkpt lat="47.18547" lon="-1.60105">
        <ele>56</ele>
        <time>2021-01-02T11:34:00.000Z</time>
      </trkpt>
      <trkpt lat="47.18555" lon="-1.60088">
        <ele>55</ele>
        <time>2021-01-02T11:34:02.000Z</time>
      </trkpt>
      <trkpt lat="47.18561" lon="-1.6007">
        <ele>56</ele>
        <time>2021-01-02T11:34:04.000Z</time>
      </trkpt>
      <trkpt lat="47.18568" lon="-1.60052">
        <ele>56</ele>
        <time>2021-01-02T11:34:06.000Z</time>
      </trkpt>
      <trkpt lat="47.18574" lon="-1.60034">
        <ele>56</ele>
        <time>2021-01-02T11:34:08.000Z</time>
      </trkpt>
      <trkpt lat="47.18581" lon="-1.60016">
        <ele>56</ele>
        <time>2021-01-02T11:34:10.000Z</time>
      </trkpt>
      <trkpt lat="47.18587" lon="-1.59998">
        <ele>56</ele>
        <time>2021-01-02T11:34:12.000Z</time>
      </trkpt>
      <trkpt lat="47.18593" lon="-1.5998">
        <ele>56</ele>
        <time>2021-01-02T11:34:14.000Z</time>
      </trkpt>
      <trkpt lat="47.18598" lon="-1.59962">
        <ele>56</ele>
        <time>2021-01-02T11:34:16.000Z</time>
      </trkpt>
      <trkpt lat="47.18604" lon="-1.59943">
        <ele>56</ele>
        <time>2021-01-02T11:34:18.000Z</time>
      </trkpt>
      <trkpt lat="47.18609" lon="-1.59925">
        <ele>57</ele>
        <time>2021-01-02T11:34:20.000Z</time>
      </trkpt>
      <trkpt lat="47.18614" lon="-1.59906">
        <ele>57</ele>
        <time>2021-01-02T11:34:22.000Z</time>
      </trkpt>
      <trkpt lat="47.18619" lon="-1.59888">
        <ele>57</ele>
        <time>2021-01-02T11:34:24.000Z</time>
      </trkpt>
      <trkpt lat="47.18622" lon="-1.5987">
        <ele>56</ele>
        <time>2021-01-02T11:34:26.000Z</time>
      </trkpt>
      <trkpt lat="47.1862" lon="-1.59853">
        <ele>56</ele>
        <time>2021-01-02T11:34:28.000Z</time>
      </trkpt>
      <trkpt lat="47.18616" lon="-1.59836">
        <ele>56</ele>
        <time>2021-01-02T11:34:30.000Z</time>
      </trkpt>
      <trkpt lat="47.18623" lon="-1.59821">
        <ele>56</ele>
        <time>2021-01-02T11:34:32.000Z</time>
      </trkpt>
      <trkpt lat="47.1863" lon="-1.59806">
        <ele>56</ele>
        <time>2021-01-02T11:34:34.000Z</time>
      </trkpt>
      <trkpt lat="47.18634" lon="-1.59787">
        <ele>57</ele>
        <time>2021-01-02T11:34:36.000Z</time>
      </trkpt>
      <trkpt lat="47.18642" lon="-1.59769">
        <ele>57</ele>
        <time>2021-01-02T11:34:38.000Z</time>
      </trkpt>
      <trkpt lat="47.18652" lon="-1.59753">
        <ele>57</ele>
        <time>2021-01-02T11:34:40.000Z</time>
      </trkpt>
      <trkpt lat="47.18656" lon="-1.59731">
        <ele>58</ele>
        <time>2021-01-02T11:34:42.000Z</time>
      </trkpt>
      <trkpt lat="47.18659" lon="-1.5971">
        <ele>58</ele>
        <time>2021-01-02T11:34:44.000Z</time>
      </trkpt>
      <trkpt lat="47.18663" lon="-1.59689">
        <ele>58</ele>
        <time>2021-01-02T11:34:46.000Z</time>
      </trkpt>
      <trkpt lat="47.18668" lon="-1.59668">
        <ele>58</ele>
        <time>2021-01-02T11:34:48.000Z</time>
      </trkpt>
      <trkpt lat="47.18673" lon="-1.59648">
        <ele>57</ele>
        <time>2021-01-02T11:34:50.000Z</time>
      </trkpt>
      <trkpt lat="47.18676" lon="-1.59627">
        <ele>57</ele>
        <time>2021-01-02T11:34:52.000Z</time>
      </trkpt>
      <trkpt lat="47.18679" lon="-1.59606">
        <ele>57</ele>
        <time>2021-01-02T11:34:54.000Z</time>
      </trkpt>
      <trkpt lat="47.18681" lon="-1.59585">
        <ele>57</ele>
        <time>2021-01-02T11:34:56.000Z</time>
      </trkpt>
      <trkpt lat="47.18684" lon="-1.59564">
        <ele>58</ele>
        <time>2021-01-02T11:34:58.000Z</time>
      </trkpt>
      <trkpt lat="47.18686" lon="-1.59543">
        <ele>58</ele>
        <time>2021-01-02T11:35:00.000Z</time>
      </trkpt>
      <trkpt lat="47.18689" lon="-1.59523">
        <ele>58</ele>
        <time>2021-01-02T11:35:02.000Z</time>
      </trkpt>
      <trkpt lat="47.18691" lon="-1.59503">
        <ele>58</ele>
        <time>2021-01-02T11:35:04.000Z</time>
      </trkpt>
      <trkpt lat="47.18693" lon="-1.59481">
        <ele>58</ele>
        <time>2021-01-02T11:35:06.000Z</time>
      </trkpt>
      <trkpt lat="47.18695" lon="-1.5946">
        <ele>58</ele>
        <time>2021-01-02T11:35:08.000Z</time>
      </trkpt>
      <trkpt lat="47.18698" lon="-1.59439">
        <ele>57</ele>
        <time>2021-01-02T11:35:10.000Z</time>
      </trkpt>
      <trkpt lat="47.187" lon="-1.59418">
        <ele>57</ele>
        <time>2021-01-02T11:35:12.000Z</time>
      </trkpt>
      <trkpt lat="47.18702" lon="-1.59398">
        <ele>57</ele>
        <time>2021-01-02T11:35:14.000Z</time>
      </trkpt>
      <trkpt lat="47.18705" lon="-1.59377">
        <ele>57</ele>
        <time>2021-01-02T11:35:16.000Z</time>
      </trkpt>
      <trkpt lat="47.18707" lon="-1.59356">
        <ele>57</ele>
        <time>2021-01-02T11:35:18.000Z</time>
      </trkpt>
      <trkpt lat="47.1871" lon="-1.59335">
        <ele>57</ele>
        <time>2021-01-02T11:35:20.000Z</time>
      </trkpt>
      <trkpt lat="47.18712" lon="-1.59314">
        <ele>57</ele>
        <time>2021-01-02T11:35:22.000Z</time>
      </trkpt>
      <trkpt lat="47.18715" lon="-1.59293">
        <ele>57</ele>
        <time>2021-01-02T11:35:24.000Z</time>
      </trkpt>
      <trkpt lat="47.18717" lon="-1.59273">
        <ele>57</ele>
        <time>2021-01-02T11:35:26.000Z</time>
      </trkpt>
      <trkpt lat="47.18718" lon="-1.59253">
        <ele>57</ele>
        <time>2021-01-02T11:35:28.000Z</time>
      </trkpt>
      <trkpt lat="47.18721" lon="-1.59233">
        <ele>57</ele>
        <time>2021-01-02T11:35:30.000Z</time>
      </trkpt>
      <trkpt lat="47.18723" lon="-1.59212">
        <ele>57</ele>
        <time>2021-01-02T11:35:32.000Z</time>
      </trkpt>
      <trkpt lat="47.18726" lon="-1.59191">
        <ele>57</ele>
        <time>2021-01-02T11:35:34.000Z</time>
      </trkpt>
      <trkpt lat="47.18728" lon="-1.5917">
        <ele>57</ele>
        <time>2021-01-02T11:35:36.000Z</time>
      </trkpt>
      <trkpt lat="47.1873" lon="-1.59149">
        <ele>57</ele>
        <time>2021-01-02T11:35:38.000Z</time>
      </trkpt>
      <trkpt lat="47.18732" lon="-1.5913">
        <ele>57</ele>
        <time>2021-01-02T11:35:40.000Z</time>
      </trkpt>
      <trkpt lat="47.18734" lon="-1.59109">
        <ele>57</ele>
        <time>2021-01-02T11:35:42.000Z</time>
      </trkpt>
      <trkpt lat="47.18736" lon="-1.59089">
        <ele>57</ele>
        <time>2021-01-02T11:35:44.000Z</time>
      </trkpt>
      <trkpt lat="47.18739" lon="-1.59069">
        <ele>58</ele>
        <time>2021-01-02T11:35:46.000Z</time>
      </trkpt>
      <trkpt lat="47.18741" lon="-1.59049">
        <ele>58</ele>
        <time>2021-01-02T11:35:48.000Z</time>
      </trkpt>
      <trkpt lat="47.18743" lon="-1.59028">
        <ele>58</ele>
        <time>2021-01-02T11:35:50.000Z</time>
      </trkpt>
      <trkpt lat="47.18745" lon="-1.59008">
        <ele>57</ele>
        <time>2021-01-02T11:35:52.000Z</time>
      </trkpt>
      <trkpt lat="47.18747" lon="-1.58988">
        <ele>57</ele>
        <time>2021-01-02T11:35:54.000Z</time>
      </trkpt>
      <trkpt lat="47.18749" lon="-1.58968">
        <ele>57</ele>
        <time>2021-01-02T11:35:56.000Z</time>
      </trkpt>
      <trkpt lat="47.18751" lon="-1.58948">
        <ele>57</ele>
        <time>2021-01-02T11:35:58.000Z</time>
      </trkpt>
      <trkpt lat="47.18753" lon="-1.58929">
        <ele>57</ele>
        <time>2021-01-02T11:36:00.000Z</time>
      </trkpt>
      <trkpt lat="47.18756" lon="-1.58909">
        <ele>57</ele>
        <time>2021-01-02T11:36:02.000Z</time>
      </trkpt>
      <trkpt lat="47.18758" lon="-1.58889">
        <ele>57</ele>
        <time>2021-01-02T11:36:04.000Z</time>
      </trkpt>
      <trkpt lat="47.1876" lon="-1.58869">
        <ele>58</ele>
        <time>2021-01-02T11:36:06.000Z</time>
      </trkpt>
      <trkpt lat="47.18763" lon="-1.5885">
        <ele>58</ele>
        <time>2021-01-02T11:36:08.000Z</time>
      </trkpt>
      <trkpt lat="47.18765" lon="-1.58831">
        <ele>58</ele>
        <time>2021-01-02T11:36:10.000Z</time>
      </trkpt>
      <trkpt lat="47.18766" lon="-1.58813">
        <ele>58</ele>
        <time>2021-01-02T11:36:12.000Z</time>
      </trkpt>
      <trkpt lat="47.18765" lon="-1.58794">
        <ele>58</ele>
        <time>2021-01-02T11:36:14.000Z</time>
      </trkpt>
      <trkpt lat="47.18761" lon="-1.58775">
        <ele>59</ele>
        <time>2021-01-02T11:36:16.000Z</time>
      </trkpt>
      <trkpt lat="47.18757" lon="-1.58756">
        <ele>59</ele>
        <time>2021-01-02T11:36:18.000Z</time>
      </trkpt>
      <trkpt lat="47.18761" lon="-1.58736">
        <ele>58</ele>
        <time>2021-01-02T11:36:20.000Z</time>
      </trkpt>
      <trkpt lat="47.18768" lon="-1.58717">
        <ele>58</ele>
        <time>2021-01-02T11:36:22.000Z</time>
      </trkpt>
      <trkpt lat="47.18779" lon="-1.58702">
        <ele>58</ele>
        <time>2021-01-02T11:36:24.000Z</time>
      </trkpt>
      <trkpt lat="47.18787" lon="-1.58684">
        <ele>58</ele>
        <time>2021-01-02T11:36:26.000Z</time>
      </trkpt>
      <trkpt lat="47.18791" lon="-1.58663">
        <ele>58</ele>
        <time>2021-01-02T11:36:28.000Z</time>
      </trkpt>
      <trkpt lat="47.18796" lon="-1.58643">
        <ele>57</ele>
        <time>2021-01-02T11:36:30.000Z</time>
      </trkpt>
      <trkpt lat="47.18801" lon="-1.58624">
        <ele>56</ele>
        <time>2021-01-02T11:36:32.000Z</time>
      </trkpt>
      <trkpt lat="47.18807" lon="-1.58603">
        <ele>57</ele>
        <time>2021-01-02T11:36:34.000Z</time>
      </trkpt>
      <trkpt lat="47.18812" lon="-1.58583">
        <ele>57</ele>
        <time>2021-01-02T11:36:36.000Z</time>
      </trkpt>
      <trkpt lat="47.18818" lon="-1.58563">
        <ele>57</ele>
        <time>2021-01-02T11:36:38.000Z</time>
      </trkpt>
      <trkpt lat="47.18824" lon="-1.58543">
        <ele>56</ele>
        <time>2021-01-02T11:36:40.000Z</time>
      </trkpt>
      <trkpt lat="47.18829" lon="-1.58523">
        <ele>57</ele>
        <time>2021-01-02T11:36:42.000Z</time>
      </trkpt>
      <trkpt lat="47.18834" lon="-1.58504">
        <ele>57</ele>
        <time>2021-01-02T11:36:44.000Z</time>
      </trkpt>
      <trkpt lat="47.1884" lon="-1.58484">
        <ele>57</ele>
        <time>2021-01-02T11:36:46.000Z</time>
      </trkpt>
      <trkpt lat="47.18846" lon="-1.58464">
        <ele>57</ele>
        <time>2021-01-02T11:36:48.000Z</time>
      </trkpt>
      <trkpt lat="47.18851" lon="-1.58445">
        <ele>57</ele>
        <time>2021-01-02T11:36:50.000Z</time>
      </trkpt>
      <trkpt lat="47.18857" lon="-1.58426">
        <ele>57</ele>
        <time>2021-01-02T11:36:52.000Z</time>
      </trkpt>
      <trkpt lat="47.18862" lon="-1.58407">
        <ele>56</ele>
        <time>2021-01-02T11:36:54.000Z</time>
      </trkpt>
      <trkpt lat="47.18869" lon="-1.58388">
        <ele>56</ele>
        <time>2021-01-02T11:36:56.000Z</time>
      </trkpt>
      <trkpt lat="47.18875" lon="-1.5837">
        <ele>56</ele>
        <time>2021-01-02T11:36:58.000Z</time>
      </trkpt>
      <trkpt lat="47.18881" lon="-1.58351">
        <ele>56</ele>
        <time>2021-01-02T11:37:00.000Z</time>
      </trkpt>
      <trkpt lat="47.18888" lon="-1.58333">
        <ele>55</ele>
        <time>2021-01-02T11:37:02.000Z</time>
      </trkpt>
      <trkpt lat="47.18895" lon="-1.58314">
        <ele>56</ele>
        <time>2021-01-02T11:37:04.000Z</time>
      </trkpt>
      <trkpt lat="47.18901" lon="-1.58296">
        <ele>56</ele>
        <time>2021-01-02T11:37:06.000Z</time>
      </trkpt>
      <trkpt lat="47.18907" lon="-1.58277">
        <ele>56</ele>
        <time>2021-01-02T11:37:08.000Z</time>
      </trkpt>
      <trkpt lat="47.18914" lon="-1.58258">
        <ele>56</ele>
        <time>2021-01-02T11:37:10.000Z</time>
      </trkpt>
      <trkpt lat="47.1892" lon="-1.58239">
        <ele>56</ele>
        <time>2021-01-02T11:37:12.000Z</time>
      </trkpt>
      <trkpt lat="47.18927" lon="-1.5822">
        <ele>56</ele>
        <time>2021-01-02T11:37:14.000Z</time>
      </trkpt>
      <trkpt lat="47.18934" lon="-1.58201">
        <ele>55</ele>
        <time>2021-01-02T11:37:16.000Z</time>
      </trkpt>
      <trkpt lat="47.18941" lon="-1.58182">
        <ele>55</ele>
        <time>2021-01-02T11:37:18.000Z</time>
      </trkpt>
      <trkpt lat="47.18947" lon="-1.58163">
        <ele>55</ele>
        <time>2021-01-02T11:37:20.000Z</time>
      </trkpt>
      <trkpt lat="47.18954" lon="-1.58144">
        <ele>55</ele>
        <time>2021-01-02T11:37:22.000Z</time>
      </trkpt>
      <trkpt lat="47.18961" lon="-1.58126">
        <ele>55</ele>
        <time>2021-01-02T11:37:24.000Z</time>
      </trkpt>
      <trkpt lat="47.18967" lon="-1.58108">
        <ele>54</ele>
        <time>2021-01-02T11:37:26.000Z</time>
      </trkpt>
      <trkpt lat="47.18974" lon="-1.58089">
        <ele>54</ele>
        <time>2021-01-02T11:37:28.000Z</time>
      </trkpt>
      <trkpt lat="47.1898" lon="-1.58071">
        <ele>54</ele>
        <time>2021-01-02T11:37:30.000Z</time>
      </trkpt>
      <trkpt lat="47.18987" lon="-1.58052">
        <ele>55</ele>
        <time>2021-01-02T11:37:32.000Z</time>
      </trkpt>
      <trkpt lat="47.18994" lon="-1.58034">
        <ele>55</ele>
        <time>2021-01-02T11:37:34.000Z</time>
      </trkpt>
      <trkpt lat="47.19001" lon="-1.58015">
        <ele>55</ele>
        <time>2021-01-02T11:37:36.000Z</time>
      </trkpt>
      <trkpt lat="47.19007" lon="-1.57996">
        <ele>55</ele>
        <time>2021-01-02T11:37:38.000Z</time>
      </trkpt>
      <trkpt lat="47.19014" lon="-1.57978">
        <ele>55</ele>
        <time>2021-01-02T11:37:40.000Z</time>
      </trkpt>
      <trkpt lat="47.1902" lon="-1.57959">
        <ele>55</ele>
        <time>2021-01-02T11:37:42.000Z</time>
      </trkpt>
      <trkpt lat="47.19027" lon="-1.5794">
        <ele>55</ele>
        <time>2021-01-02T11:37:44.000Z</time>
      </trkpt>
      <trkpt lat="47.19034" lon="-1.5792">
        <ele>55</ele>
        <time>2021-01-02T11:37:46.000Z</time>
      </trkpt>
      <trkpt lat="47.1904" lon="-1.57902">
        <ele>55</ele>
        <time>2021-01-02T11:37:48.000Z</time>
      </trkpt>
      <trkpt lat="47.19047" lon="-1.57883">
        <ele>55</ele>
        <time>2021-01-02T11:37:50.000Z</time>
      </trkpt>
      <trkpt lat="47.19053" lon="-1.57864">
        <ele>55</ele>
        <time>2021-01-02T11:37:52.000Z</time>
      </trkpt>
      <trkpt lat="47.1906" lon="-1.57844">
        <ele>55</ele>
        <time>2021-01-02T11:37:54.000Z</time>
      </trkpt>
      <trkpt lat="47.19067" lon="-1.57826">
        <ele>55</ele>
        <time>2021-01-02T11:37:56.000Z</time>
      </trkpt>
      <trkpt lat="47.19074" lon="-1.57808">
        <ele>56</ele>
        <time>2021-01-02T11:37:58.000Z</time>
      </trkpt>
      <trkpt lat="47.1908" lon="-1.5779">
        <ele>56</ele>
        <time>2021-01-02T11:38:00.000Z</time>
      </trkpt>
      <trkpt lat="47.19087" lon="-1.57771">
        <ele>57</ele>
        <time>2021-01-02T11:38:02.000Z</time>
      </trkpt>
      <trkpt lat="47.19093" lon="-1.57754">
        <ele>57</ele>
        <time>2021-01-02T11:38:04.000Z</time>
      </trkpt>
      <trkpt lat="47.191" lon="-1.57735">
        <ele>57</ele>
        <time>2021-01-02T11:38:06.000Z</time>
      </trkpt>
      <trkpt lat="47.19106" lon="-1.57717">
        <ele>57</ele>
        <time>2021-01-02T11:38:08.000Z</time>
      </trkpt>
      <trkpt lat="47.19113" lon="-1.57698">
        <ele>57</ele>
        <time>2021-01-02T11:38:10.000Z</time>
      </trkpt>
      <trkpt lat="47.1912" lon="-1.57681">
        <ele>57</ele>
        <time>2021-01-02T11:38:12.000Z</time>
      </trkpt>
      <trkpt lat="47.19127" lon="-1.57662">
        <ele>57</ele>
        <time>2021-01-02T11:38:14.000Z</time>
      </trkpt>
      <trkpt lat="47.19133" lon="-1.57644">
        <ele>57</ele>
        <time>2021-01-02T11:38:16.000Z</time>
      </trkpt>
      <trkpt lat="47.19139" lon="-1.57626">
        <ele>57</ele>
        <time>2021-01-02T11:38:18.000Z</time>
      </trkpt>
      <trkpt lat="47.19146" lon="-1.57608">
        <ele>57</ele>
        <time>2021-01-02T11:38:20.000Z</time>
      </trkpt>
      <trkpt lat="47.19152" lon="-1.5759">
        <ele>57</ele>
        <time>2021-01-02T11:38:22.000Z</time>
      </trkpt>
      <trkpt lat="47.19159" lon="-1.57571">
        <ele>56</ele>
        <time>2021-01-02T11:38:24.000Z</time>
      </trkpt>
      <trkpt lat="47.19165" lon="-1.57554">
        <ele>56</ele>
        <time>2021-01-02T11:38:26.000Z</time>
      </trkpt>
      <trkpt lat="47.19171" lon="-1.57535">
        <ele>56</ele>
        <time>2021-01-02T11:38:28.000Z</time>
      </trkpt>
      <trkpt lat="47.19177" lon="-1.57518">
        <ele>57</ele>
        <time>2021-01-02T11:38:30.000Z</time>
      </trkpt>
      <trkpt lat="47.19182" lon="-1.57499">
        <ele>57</ele>
        <time>2021-01-02T11:38:32.000Z</time>
      </trkpt>
      <trkpt lat="47.19188" lon="-1.57481">
        <ele>56</ele>
        <time>2021-01-02T11:38:34.000Z</time>
      </trkpt>
      <trkpt lat="47.19193" lon="-1.57462">
        <ele>56</ele>
        <time>2021-01-02T11:38:36.000Z</time>
      </trkpt>
      <trkpt lat="47.19199" lon="-1.57443">
        <ele>56</ele>
        <time>2021-01-02T11:38:38.000Z</time>
      </trkpt>
      <trkpt lat="47.19204" lon="-1.57423">
        <ele>56</ele>
        <time>2021-01-02T11:38:40.000Z</time>
      </trkpt>
      <trkpt lat="47.19213" lon="-1.57396">
        <ele>56</ele>
        <time>2021-01-02T11:38:43.000Z</time>
      </trkpt>
      <trkpt lat="47.19218" lon="-1.57377">
        <ele>56</ele>
        <time>2021-01-02T11:38:45.000Z</time>
      </trkpt>
      <trkpt lat="47.19222" lon="-1.57358">
        <ele>56</ele>
        <time>2021-01-02T11:38:47.000Z</time>
      </trkpt>
      <trkpt lat="47.19227" lon="-1.57339">
        <ele>56</ele>
        <time>2021-01-02T11:38:49.000Z</time>
      </trkpt>
      <trkpt lat="47.19231" lon="-1.5732">
        <ele>57</ele>
        <time>2021-01-02T11:38:51.000Z</time>
      </trkpt>
      <trkpt lat="47.19234" lon="-1.573">
        <ele>56</ele>
        <time>2021-01-02T11:38:53.000Z</time>
      </trkpt>
      <trkpt lat="47.19237" lon="-1.5728">
        <ele>57</ele>
        <time>2021-01-02T11:38:55.000Z</time>
      </trkpt>
      <trkpt lat="47.19239" lon="-1.5726">
        <ele>57</ele>
        <time>2021-01-02T11:38:57.000Z</time>
      </trkpt>
      <trkpt lat="47.19241" lon="-1.5724">
        <ele>56</ele>
        <time>2021-01-02T11:38:59.000Z</time>
      </trkpt>
      <trkpt lat="47.19244" lon="-1.5722">
        <ele>57</ele>
        <time>2021-01-02T11:39:01.000Z</time>
      </trkpt>
      <trkpt lat="47.19247" lon="-1.57201">
        <ele>56</ele>
        <time>2021-01-02T11:39:03.000Z</time>
      </trkpt>
      <trkpt lat="47.19249" lon="-1.57182">
        <ele>57</ele>
        <time>2021-01-02T11:39:05.000Z</time>
      </trkpt>
      <trkpt lat="47.19252" lon="-1.57162">
        <ele>57</ele>
        <time>2021-01-02T11:39:07.000Z</time>
      </trkpt>
      <trkpt lat="47.19256" lon="-1.57142">
        <ele>57</ele>
        <time>2021-01-02T11:39:09.000Z</time>
      </trkpt>
      <trkpt lat="47.19258" lon="-1.57123">
        <ele>57</ele>
        <time>2021-01-02T11:39:11.000Z</time>
      </trkpt>
      <trkpt lat="47.19261" lon="-1.57105">
        <ele>57</ele>
        <time>2021-01-02T11:39:13.000Z</time>
      </trkpt>
      <trkpt lat="47.19263" lon="-1.5709">
        <ele>58</ele>
        <time>2021-01-02T11:39:15.000Z</time>
      </trkpt>
      <trkpt lat="47.19262" lon="-1.57076">
        <ele>58</ele>
        <time>2021-01-02T11:39:17.000Z</time>
      </trkpt>
      <trkpt lat="47.19256" lon="-1.57064">
        <ele>58</ele>
        <time>2021-01-02T11:39:19.000Z</time>
      </trkpt>
      <trkpt lat="47.19253" lon="-1.5705">
        <ele>58</ele>
        <time>2021-01-02T11:39:21.000Z</time>
      </trkpt>
      <trkpt lat="47.19263" lon="-1.57027">
        <ele>58</ele>
        <time>2021-01-02T11:39:24.000Z</time>
      </trkpt>
      <trkpt lat="47.1927" lon="-1.57012">
        <ele>57</ele>
        <time>2021-01-02T11:39:26.000Z</time>
      </trkpt>
      <trkpt lat="47.19273" lon="-1.56992">
        <ele>58</ele>
        <time>2021-01-02T11:39:28.000Z</time>
      </trkpt>
      <trkpt lat="47.19275" lon="-1.56972">
        <ele>58</ele>
        <time>2021-01-02T11:39:30.000Z</time>
      </trkpt>
      <trkpt lat="47.19277" lon="-1.56953">
        <ele>58</ele>
        <time>2021-01-02T11:39:32.000Z</time>
      </trkpt>
      <trkpt lat="47.19279" lon="-1.56922">
        <ele>58</ele>
        <time>2021-01-02T11:39:35.000Z</time>
      </trkpt>
      <trkpt lat="47.19281" lon="-1.56902">
        <ele>57</ele>
        <time>2021-01-02T11:39:37.000Z</time>
      </trkpt>
      <trkpt lat="47.19283" lon="-1.56882">
        <ele>57</ele>
        <time>2021-01-02T11:39:39.000Z</time>
      </trkpt>
      <trkpt lat="47.19285" lon="-1.56863">
        <ele>57</ele>
        <time>2021-01-02T11:39:41.000Z</time>
      </trkpt>
      <trkpt lat="47.19286" lon="-1.56843">
        <ele>57</ele>
        <time>2021-01-02T11:39:43.000Z</time>
      </trkpt>
      <trkpt lat="47.19287" lon="-1.56822">
        <ele>57</ele>
        <time>2021-01-02T11:39:45.000Z</time>
      </trkpt>
      <trkpt lat="47.19288" lon="-1.56801">
        <ele>57</ele>
        <time>2021-01-02T11:39:47.000Z</time>
      </trkpt>
      <trkpt lat="47.19289" lon="-1.5678">
        <ele>56</ele>
        <time>2021-01-02T11:39:49.000Z</time>
      </trkpt>
      <trkpt lat="47.1929" lon="-1.5676">
        <ele>56</ele>
        <time>2021-01-02T11:39:51.000Z</time>
      </trkpt>
      <trkpt lat="47.1929" lon="-1.5674">
        <ele>56</ele>
        <time>2021-01-02T11:39:53.000Z</time>
      </trkpt>
      <trkpt lat="47.1929" lon="-1.5672">
        <ele>56</ele>
        <time>2021-01-02T11:39:55.000Z</time>
      </trkpt>
      <trkpt lat="47.1929" lon="-1.56699">
        <ele>56</ele>
        <time>2021-01-02T11:39:57.000Z</time>
      </trkpt>
      <trkpt lat="47.19289" lon="-1.5668">
        <ele>56</ele>
        <time>2021-01-02T11:39:59.000Z</time>
      </trkpt>
      <trkpt lat="47.19287" lon="-1.56661">
        <ele>56</ele>
        <time>2021-01-02T11:40:01.000Z</time>
      </trkpt>
      <trkpt lat="47.19286" lon="-1.56641">
        <ele>56</ele>
        <time>2021-01-02T11:40:03.000Z</time>
      </trkpt>
      <trkpt lat="47.19284" lon="-1.56622">
        <ele>56</ele>
        <time>2021-01-02T11:40:05.000Z</time>
      </trkpt>
      <trkpt lat="47.19282" lon="-1.56601">
        <ele>57</ele>
        <time>2021-01-02T11:40:07.000Z</time>
      </trkpt>
      <trkpt lat="47.1928" lon="-1.56572">
        <ele>57</ele>
        <time>2021-01-02T11:40:10.000Z</time>
      </trkpt>
      <trkpt lat="47.19278" lon="-1.56552">
        <ele>56</ele>
        <time>2021-01-02T11:40:12.000Z</time>
      </trkpt>
      <trkpt lat="47.19275" lon="-1.56523">
        <ele>56</ele>
        <time>2021-01-02T11:40:15.000Z</time>
      </trkpt>
      <trkpt lat="47.19274" lon="-1.56504">
        <ele>56</ele>
        <time>2021-01-02T11:40:17.000Z</time>
      </trkpt>
      <trkpt lat="47.19271" lon="-1.56484">
        <ele>57</ele>
        <time>2021-01-02T11:40:19.000Z</time>
      </trkpt>
      <trkpt lat="47.19269" lon="-1.56464">
        <ele>57</ele>
        <time>2021-01-02T11:40:21.000Z</time>
      </trkpt>
      <trkpt lat="47.19267" lon="-1.56443">
        <ele>57</ele>
        <time>2021-01-02T11:40:23.000Z</time>
      </trkpt>
      <trkpt lat="47.19267" lon="-1.56422">
        <ele>57</ele>
        <time>2021-01-02T11:40:25.000Z</time>
      </trkpt>
      <trkpt lat="47.19265" lon="-1.564">
        <ele>57</ele>
        <time>2021-01-02T11:40:27.000Z</time>
      </trkpt>
      <trkpt lat="47.19262" lon="-1.56378">
        <ele>58</ele>
        <time>2021-01-02T11:40:29.000Z</time>
      </trkpt>
      <trkpt lat="47.19259" lon="-1.56358">
        <ele>58</ele>
        <time>2021-01-02T11:40:31.000Z</time>
      </trkpt>
      <trkpt lat="47.19254" lon="-1.56341">
        <ele>58</ele>
        <time>2021-01-02T11:40:33.000Z</time>
      </trkpt>
      <trkpt lat="47.19247" lon="-1.56327">
        <ele>58</ele>
        <time>2021-01-02T11:40:35.000Z</time>
      </trkpt>
      <trkpt lat="47.19238" lon="-1.56313">
        <ele>58</ele>
        <time>2021-01-02T11:40:37.000Z</time>
      </trkpt>
      <trkpt lat="47.19234" lon="-1.56294">
        <ele>58</ele>
        <time>2021-01-02T11:40:39.000Z</time>
      </trkpt>
      <trkpt lat="47.19237" lon="-1.56273">
        <ele>58</ele>
        <time>2021-01-02T11:40:41.000Z</time>
      </trkpt>
      <trkpt lat="47.19243" lon="-1.56255">
        <ele>57</ele>
        <time>2021-01-02T11:40:43.000Z</time>
      </trkpt>
      <trkpt lat="47.19245" lon="-1.56234">
        <ele>58</ele>
        <time>2021-01-02T11:40:45.000Z</time>
      </trkpt>
      <trkpt lat="47.19244" lon="-1.56212">
        <ele>58</ele>
        <time>2021-01-02T11:40:47.000Z</time>
      </trkpt>
      <trkpt lat="47.19244" lon="-1.56191">
        <ele>58</ele>
        <time>2021-01-02T11:40:49.000Z</time>
      </trkpt>
      <trkpt lat="47.19244" lon="-1.56169">
        <ele>58</ele>
        <time>2021-01-02T11:40:51.000Z</time>
      </trkpt>
      <trkpt lat="47.19243" lon="-1.56147">
        <ele>58</ele>
        <time>2021-01-02T11:40:53.000Z</time>
      </trkpt>
      <trkpt lat="47.19243" lon="-1.56115">
        <ele>58</ele>
        <time>2021-01-02T11:40:56.000Z</time>
      </trkpt>
      <trkpt lat="47.19243" lon="-1.56094">
        <ele>58</ele>
        <time>2021-01-02T11:40:58.000Z</time>
      </trkpt>
      <trkpt lat="47.19241" lon="-1.56074">
        <ele>58</ele>
        <time>2021-01-02T11:41:00.000Z</time>
      </trkpt>
      <trkpt lat="47.1924" lon="-1.56053">
        <ele>58</ele>
        <time>2021-01-02T11:41:02.000Z</time>
      </trkpt>
      <trkpt lat="47.19238" lon="-1.56033">
        <ele>58</ele>
        <time>2021-01-02T11:41:04.000Z</time>
      </trkpt>
      <trkpt lat="47.19237" lon="-1.56012">
        <ele>58</ele>
        <time>2021-01-02T11:41:06.000Z</time>
      </trkpt>
      <trkpt lat="47.19235" lon="-1.55991">
        <ele>58</ele>
        <time>2021-01-02T11:41:08.000Z</time>
      </trkpt>
      <trkpt lat="47.19232" lon="-1.55971">
        <ele>58</ele>
        <time>2021-01-02T11:41:10.000Z</time>
      </trkpt>
      <trkpt lat="47.19229" lon="-1.55951">
        <ele>58</ele>
        <time>2021-01-02T11:41:12.000Z</time>
      </trkpt>
      <trkpt lat="47.19227" lon="-1.5593">
        <ele>58</ele>
        <time>2021-01-02T11:41:14.000Z</time>
      </trkpt>
      <trkpt lat="47.19225" lon="-1.55909">
        <ele>58</ele>
        <time>2021-01-02T11:41:16.000Z</time>
      </trkpt>
      <trkpt lat="47.19224" lon="-1.55888">
        <ele>58</ele>
        <time>2021-01-02T11:41:18.000Z</time>
      </trkpt>
      <trkpt lat="47.19222" lon="-1.55867">
        <ele>58</ele>
        <time>2021-01-02T11:41:20.000Z</time>
      </trkpt>
      <trkpt lat="47.19221" lon="-1.55845">
        <ele>58</ele>
        <time>2021-01-02T11:41:22.000Z</time>
      </trkpt>
      <trkpt lat="47.1922" lon="-1.55824">
        <ele>57</ele>
        <time>2021-01-02T11:41:24.000Z</time>
      </trkpt>
      <trkpt lat="47.19219" lon="-1.55803">
        <ele>57</ele>
        <time>2021-01-02T11:41:26.000Z</time>
      </trkpt>
      <trkpt lat="47.19218" lon="-1.55781">
        <ele>57</ele>
        <time>2021-01-02T11:41:28.000Z</time>
      </trkpt>
      <trkpt lat="47.19218" lon="-1.5576">
        <ele>57</ele>
        <time>2021-01-02T11:41:30.000Z</time>
      </trkpt>
      <trkpt lat="47.19219" lon="-1.55739">
        <ele>57</ele>
        <time>2021-01-02T11:41:32.000Z</time>
      </trkpt>
      <trkpt lat="47.19219" lon="-1.55718">
        <ele>57</ele>
        <time>2021-01-02T11:41:34.000Z</time>
      </trkpt>
      <trkpt lat="47.19219" lon="-1.55697">
        <ele>57</ele>
        <time>2021-01-02T11:41:36.000Z</time>
      </trkpt>
      <trkpt lat="47.1922" lon="-1.55675">
        <ele>57</ele>
        <time>2021-01-02T11:41:38.000Z</time>
      </trkpt>
      <trkpt lat="47.19221" lon="-1.55654">
        <ele>56</ele>
        <time>2021-01-02T11:41:40.000Z</time>
      </trkpt>
      <trkpt lat="47.19221" lon="-1.55634">
        <ele>56</ele>
        <time>2021-01-02T11:41:42.000Z</time>
      </trkpt>
      <trkpt lat="47.19222" lon="-1.55614">
        <ele>56</ele>
        <time>2021-01-02T11:41:44.000Z</time>
      </trkpt>
      <trkpt lat="47.19223" lon="-1.55594">
        <ele>57</ele>
        <time>2021-01-02T11:41:46.000Z</time>
      </trkpt>
      <trkpt lat="47.19226" lon="-1.55574">
        <ele>57</ele>
        <time>2021-01-02T11:41:48.000Z</time>
      </trkpt>
      <trkpt lat="47.19228" lon="-1.55554">
        <ele>58</ele>
        <time>2021-01-02T11:41:50.000Z</time>
      </trkpt>
      <trkpt lat="47.1923" lon="-1.55534">
        <ele>58</ele>
        <time>2021-01-02T11:41:52.000Z</time>
      </trkpt>
      <trkpt lat="47.19231" lon="-1.55514">
        <ele>58</ele>
        <time>2021-01-02T11:41:54.000Z</time>
      </trkpt>
      <trkpt lat="47.19231" lon="-1.55494">
        <ele>58</ele>
        <time>2021-01-02T11:41:56.000Z</time>
      </trkpt>
      <trkpt lat="47.1923" lon="-1.55477">
        <ele>58</ele>
        <time>2021-01-02T11:41:58.000Z</time>
      </trkpt>
      <trkpt lat="47.19224" lon="-1.55463">
        <ele>57</ele>
        <time>2021-01-02T11:42:00.000Z</time>
      </trkpt>
      <trkpt lat="47.19217" lon="-1.55448">
        <ele>57</ele>
        <time>2021-01-02T11:42:02.000Z</time>
      </trkpt>
      <trkpt lat="47.19215" lon="-1.55428">
        <ele>57</ele>
        <time>2021-01-02T11:42:04.000Z</time>
      </trkpt>
      <trkpt lat="47.19222" lon="-1.55411">
        <ele>57</ele>
        <time>2021-01-02T11:42:06.000Z</time>
      </trkpt>
      <trkpt lat="47.19234" lon="-1.55397">
        <ele>57</ele>
        <time>2021-01-02T11:42:08.000Z</time>
      </trkpt>
      <trkpt lat="47.19241" lon="-1.5538">
        <ele>57</ele>
        <time>2021-01-02T11:42:10.000Z</time>
      </trkpt>
      <trkpt lat="47.19248" lon="-1.55361">
        <ele>57</ele>
        <time>2021-01-02T11:42:12.000Z</time>
      </trkpt>
      <trkpt lat="47.19254" lon="-1.55342">
        <ele>57</ele>
        <time>2021-01-02T11:42:14.000Z</time>
      </trkpt>
      <trkpt lat="47.19259" lon="-1.55322">
        <ele>57</ele>
        <time>2021-01-02T11:42:16.000Z</time>
      </trkpt>
      <trkpt lat="47.19263" lon="-1.55302">
        <ele>57</ele>
        <time>2021-01-02T11:42:18.000Z</time>
      </trkpt>
      <trkpt lat="47.19267" lon="-1.55283">
        <ele>57</ele>
        <time>2021-01-02T11:42:20.000Z</time>
      </trkpt>
      <trkpt lat="47.19271" lon="-1.55263">
        <ele>58</ele>
        <time>2021-01-02T11:42:22.000Z</time>
      </trkpt>
      <trkpt lat="47.19275" lon="-1.55244">
        <ele>60</ele>
        <time>2021-01-02T11:42:24.000Z</time>
      </trkpt>
      <trkpt lat="47.19279" lon="-1.55225">
        <ele>61</ele>
        <time>2021-01-02T11:42:26.000Z</time>
      </trkpt>
      <trkpt lat="47.19287" lon="-1.55198">
        <ele>61</ele>
        <time>2021-01-02T11:42:29.000Z</time>
      </trkpt>
      <trkpt lat="47.19292" lon="-1.5518">
        <ele>61</ele>
        <time>2021-01-02T11:42:31.000Z</time>
      </trkpt>
      <trkpt lat="47.19297" lon="-1.55162">
        <ele>60</ele>
        <time>2021-01-02T11:42:33.000Z</time>
      </trkpt>
      <trkpt lat="47.19302" lon="-1.55144">
        <ele>61</ele>
        <time>2021-01-02T11:42:35.000Z</time>
      </trkpt>
      <trkpt lat="47.19306" lon="-1.55126">
        <ele>61</ele>
        <time>2021-01-02T11:42:37.000Z</time>
      </trkpt>
      <trkpt lat="47.19311" lon="-1.55108">
        <ele>61</ele>
        <time>2021-01-02T11:42:39.000Z</time>
      </trkpt>
      <trkpt lat="47.19316" lon="-1.5509">
        <ele>62</ele>
        <time>2021-01-02T11:42:41.000Z</time>
      </trkpt>
      <trkpt lat="47.1932" lon="-1.55072">
        <ele>62</ele>
        <time>2021-01-02T11:42:43.000Z</time>
      </trkpt>
      <trkpt lat="47.19325" lon="-1.55054">
        <ele>63</ele>
        <time>2021-01-02T11:42:45.000Z</time>
      </trkpt>
      <trkpt lat="47.19329" lon="-1.55037">
        <ele>63</ele>
        <time>2021-01-02T11:42:47.000Z</time>
      </trkpt>
      <trkpt lat="47.19334" lon="-1.55018">
        <ele>64</ele>
        <time>2021-01-02T11:42:49.000Z</time>
      </trkpt>
      <trkpt lat="47.19338" lon="-1.55">
        <ele>64</ele>
        <time>2021-01-02T11:42:51.000Z</time>
      </trkpt>
      <trkpt lat="47.19343" lon="-1.54982">
        <ele>65</ele>
        <time>2021-01-02T11:42:53.000Z</time>
      </trkpt>
      <trkpt lat="47.19348" lon="-1.54965">
        <ele>65</ele>
        <time>2021-01-02T11:42:55.000Z</time>
      </trkpt>
      <trkpt lat="47.19352" lon="-1.54948">
        <ele>65</ele>
        <time>2021-01-02T11:42:57.000Z</time>
      </trkpt>
      <trkpt lat="47.19356" lon="-1.5493">
        <ele>65</ele>
        <time>2021-01-02T11:42:59.000Z</time>
      </trkpt>
      <trkpt lat="47.1936" lon="-1.54913">
        <ele>66</ele>
        <time>2021-01-02T11:43:01.000Z</time>
      </trkpt>
      <trkpt lat="47.19365" lon="-1.54895">
        <ele>66</ele>
        <time>2021-01-02T11:43:03.000Z</time>
      </trkpt>
      <trkpt lat="47.1937" lon="-1.54876">
        <ele>66</ele>
        <time>2021-01-02T11:43:05.000Z</time>
      </trkpt>
      <trkpt lat="47.19375" lon="-1.54858">
        <ele>67</ele>
        <time>2021-01-02T11:43:07.000Z</time>
      </trkpt>
      <trkpt lat="47.19379" lon="-1.54839">
        <ele>66</ele>
        <time>2021-01-02T11:43:09.000Z</time>
      </trkpt>
      <trkpt lat="47.19384" lon="-1.54817">
        <ele>66</ele>
        <time>2021-01-02T11:43:11.000Z</time>
      </trkpt>
      <trkpt lat="47.1939" lon="-1.54795">
        <ele>65</ele>
        <time>2021-01-02T11:43:13.000Z</time>
      </trkpt>
      <trkpt lat="47.19395" lon="-1.54773">
        <ele>65</ele>
        <time>2021-01-02T11:43:15.000Z</time>
      </trkpt>
      <trkpt lat="47.194" lon="-1.54751">
        <ele>64</ele>
        <time>2021-01-02T11:43:17.000Z</time>
      </trkpt>
      <trkpt lat="47.19406" lon="-1.5473">
        <ele>62</ele>
        <time>2021-01-02T11:43:19.000Z</time>
      </trkpt>
      <trkpt lat="47.19411" lon="-1.54707">
        <ele>61</ele>
        <time>2021-01-02T11:43:21.000Z</time>
      </trkpt>
      <trkpt lat="47.19416" lon="-1.54684">
        <ele>62</ele>
        <time>2021-01-02T11:43:23.000Z</time>
      </trkpt>
      <trkpt lat="47.19422" lon="-1.54663">
        <ele>62</ele>
        <time>2021-01-02T11:43:25.000Z</time>
      </trkpt>
      <trkpt lat="47.19427" lon="-1.54646">
        <ele>61</ele>
        <time>2021-01-02T11:43:27.000Z</time>
      </trkpt>
      <trkpt lat="47.1943" lon="-1.54631">
        <ele>62</ele>
        <time>2021-01-02T11:43:30.000Z</time>
      </trkpt>
      <trkpt lat="47.19428" lon="-1.54616">
        <ele>61</ele>
        <time>2021-01-02T11:43:34.000Z</time>
      </trkpt>
      <trkpt lat="47.1942" lon="-1.546">
        <ele>60</ele>
        <time>2021-01-02T11:43:37.000Z</time>
      </trkpt>
      <trkpt lat="47.19421" lon="-1.54585">
        <ele>60</ele>
        <time>2021-01-02T11:43:39.000Z</time>
      </trkpt>
      <trkpt lat="47.19427" lon="-1.5457">
        <ele>60</ele>
        <time>2021-01-02T11:43:41.000Z</time>
      </trkpt>
      <trkpt lat="47.19436" lon="-1.54557">
        <ele>59</ele>
        <time>2021-01-02T11:43:43.000Z</time>
      </trkpt>
      <trkpt lat="47.19447" lon="-1.54549">
        <ele>59</ele>
        <time>2021-01-02T11:43:45.000Z</time>
      </trkpt>
      <trkpt lat="47.19454" lon="-1.54535">
        <ele>59</ele>
        <time>2021-01-02T11:43:47.000Z</time>
      </trkpt>
      <trkpt lat="47.19459" lon="-1.5452">
        <ele>59</ele>
        <time>2021-01-02T11:43:49.000Z</time>
      </trkpt>
      <trkpt lat="47.19464" lon="-1.54504">
        <ele>59</ele>
        <time>2021-01-02T11:43:51.000Z</time>
      </trkpt>
      <trkpt lat="47.19469" lon="-1.5449">
        <ele>58</ele>
        <time>2021-01-02T11:43:53.000Z</time>
      </trkpt>
      <trkpt lat="47.19473" lon="-1.54476">
        <ele>59</ele>
        <time>2021-01-02T11:43:55.000Z</time>
      </trkpt>
      <trkpt lat="47.19478" lon="-1.54464">
        <ele>59</ele>
        <time>2021-01-02T11:43:57.000Z</time>
      </trkpt>
      <trkpt lat="47.19489" lon="-1.54457">
        <ele>59</ele>
        <time>2021-01-02T11:43:59.000Z</time>
      </trkpt>
      <trkpt lat="47.195" lon="-1.54449">
        <ele>59</ele>
        <time>2021-01-02T11:44:01.000Z</time>
      </trkpt>
      <trkpt lat="47.19511" lon="-1.5444">
        <ele>59</ele>
        <time>2021-01-02T11:44:03.000Z</time>
      </trkpt>
      <trkpt lat="47.19521" lon="-1.54431">
        <ele>59</ele>
        <time>2021-01-02T11:44:05.000Z</time>
      </trkpt>
      <trkpt lat="47.19531" lon="-1.54423">
        <ele>59</ele>
        <time>2021-01-02T11:44:07.000Z</time>
      </trkpt>
      <trkpt lat="47.19542" lon="-1.54415">
        <ele>58</ele>
        <time>2021-01-02T11:44:09.000Z</time>
      </trkpt>
      <trkpt lat="47.19553" lon="-1.54406">
        <ele>58</ele>
        <time>2021-01-02T11:44:11.000Z</time>
      </trkpt>
      <trkpt lat="47.19564" lon="-1.54398">
        <ele>58</ele>
        <time>2021-01-02T11:44:13.000Z</time>
      </trkpt>
      <trkpt lat="47.19575" lon="-1.54389">
        <ele>58</ele>
        <time>2021-01-02T11:44:15.000Z</time>
      </trkpt>
      <trkpt lat="47.19587" lon="-1.5438">
        <ele>58</ele>
        <time>2021-01-02T11:44:17.000Z</time>
      </trkpt>
      <trkpt lat="47.19598" lon="-1.54371">
        <ele>58</ele>
        <time>2021-01-02T11:44:19.000Z</time>
      </trkpt>
      <trkpt lat="47.19609" lon="-1.54359">
        <ele>58</ele>
        <time>2021-01-02T11:44:21.000Z</time>
      </trkpt>
      <trkpt lat="47.19619" lon="-1.54347">
        <ele>57</ele>
        <time>2021-01-02T11:44:23.000Z</time>
      </trkpt>
      <trkpt lat="47.19629" lon="-1.54333">
        <ele>57</ele>
        <time>2021-01-02T11:44:25.000Z</time>
      </trkpt>
      <trkpt lat="47.19638" lon="-1.5432">
        <ele>57</ele>
        <time>2021-01-02T11:44:27.000Z</time>
      </trkpt>
      <trkpt lat="47.19648" lon="-1.54308">
        <ele>57</ele>
        <time>2021-01-02T11:44:29.000Z</time>
      </trkpt>
      <trkpt lat="47.19657" lon="-1.54299">
        <ele>58</ele>
        <time>2021-01-02T11:44:31.000Z</time>
      </trkpt>
      <trkpt lat="47.19665" lon="-1.54293">
        <ele>58</ele>
        <time>2021-01-02T11:44:33.000Z</time>
      </trkpt>
      <trkpt lat="47.19672" lon="-1.54285">
        <ele>57</ele>
        <time>2021-01-02T11:44:36.000Z</time>
      </trkpt>
      <trkpt lat="47.19681" lon="-1.54278">
        <ele>57</ele>
        <time>2021-01-02T11:44:38.000Z</time>
      </trkpt>
      <trkpt lat="47.19692" lon="-1.5427">
        <ele>57</ele>
        <time>2021-01-02T11:44:40.000Z</time>
      </trkpt>
      <trkpt lat="47.19704" lon="-1.54263">
        <ele>57</ele>
        <time>2021-01-02T11:44:42.000Z</time>
      </trkpt>
      <trkpt lat="47.19717" lon="-1.54255">
        <ele>57</ele>
        <time>2021-01-02T11:44:44.000Z</time>
      </trkpt>
      <trkpt lat="47.19728" lon="-1.54247">
        <ele>57</ele>
        <time>2021-01-02T11:44:46.000Z</time>
      </trkpt>
      <trkpt lat="47.19738" lon="-1.54239">
        <ele>56</ele>
        <time>2021-01-02T11:44:48.000Z</time>
      </trkpt>
      <trkpt lat="47.19747" lon="-1.54232">
        <ele>56</ele>
        <time>2021-01-02T11:44:50.000Z</time>
      </trkpt>
      <trkpt lat="47.19754" lon="-1.54224">
        <ele>55</ele>
        <time>2021-01-02T11:44:52.000Z</time>
      </trkpt>
      <trkpt lat="47.19767" lon="-1.54218">
        <ele>55</ele>
        <time>2021-01-02T11:44:55.000Z</time>
      </trkpt>
      <trkpt lat="47.19779" lon="-1.54222">
        <ele>54</ele>
        <time>2021-01-02T11:44:57.000Z</time>
      </trkpt>
      <trkpt lat="47.19792" lon="-1.5423">
        <ele>55</ele>
        <time>2021-01-02T11:44:59.000Z</time>
      </trkpt>
      <trkpt lat="47.19802" lon="-1.5424">
        <ele>55</ele>
        <time>2021-01-02T11:45:01.000Z</time>
      </trkpt>
      <trkpt lat="47.19812" lon="-1.54251">
        <ele>55</ele>
        <time>2021-01-02T11:45:03.000Z</time>
      </trkpt>
      <trkpt lat="47.19824" lon="-1.54261">
        <ele>56</ele>
        <time>2021-01-02T11:45:05.000Z</time>
      </trkpt>
      <trkpt lat="47.19836" lon="-1.54269">
        <ele>56</ele>
        <time>2021-01-02T11:45:07.000Z</time>
      </trkpt>
      <trkpt lat="47.19848" lon="-1.54276">
        <ele>56</ele>
        <time>2021-01-02T11:45:09.000Z</time>
      </trkpt>
      <trkpt lat="47.19859" lon="-1.54284">
        <ele>56</ele>
        <time>2021-01-02T11:45:11.000Z</time>
      </trkpt>
      <trkpt lat="47.19871" lon="-1.54292">
        <ele>57</ele>
        <time>2021-01-02T11:45:13.000Z</time>
      </trkpt>
      <trkpt lat="47.19882" lon="-1.543">
        <ele>57</ele>
        <time>2021-01-02T11:45:15.000Z</time>
      </trkpt>
      <trkpt lat="47.19894" lon="-1.54308">
        <ele>58</ele>
        <time>2021-01-02T11:45:17.000Z</time>
      </trkpt>
      <trkpt lat="47.19906" lon="-1.54316">
        <ele>58</ele>
        <time>2021-01-02T11:45:19.000Z</time>
      </trkpt>
      <trkpt lat="47.19917" lon="-1.54324">
        <ele>58</ele>
        <time>2021-01-02T11:45:21.000Z</time>
      </trkpt>
      <trkpt lat="47.19928" lon="-1.54331">
        <ele>58</ele>
        <time>2021-01-02T11:45:23.000Z</time>
      </trkpt>
      <trkpt lat="47.19939" lon="-1.54339">
        <ele>58</ele>
        <time>2021-01-02T11:45:25.000Z</time>
      </trkpt>
      <trkpt lat="47.1995" lon="-1.54347">
        <ele>58</ele>
        <time>2021-01-02T11:45:27.000Z</time>
      </trkpt>
      <trkpt lat="47.19961" lon="-1.54355">
        <ele>58</ele>
        <time>2021-01-02T11:45:29.000Z</time>
      </trkpt>
      <trkpt lat="47.19973" lon="-1.54364">
        <ele>57</ele>
        <time>2021-01-02T11:45:31.000Z</time>
      </trkpt>
      <trkpt lat="47.19985" lon="-1.54372">
        <ele>56</ele>
        <time>2021-01-02T11:45:33.000Z</time>
      </trkpt>
      <trkpt lat="47.19997" lon="-1.54379">
        <ele>56</ele>
        <time>2021-01-02T11:45:35.000Z</time>
      </trkpt>
      <trkpt lat="47.20008" lon="-1.54387">
        <ele>56</ele>
        <time>2021-01-02T11:45:37.000Z</time>
      </trkpt>
      <trkpt lat="47.20017" lon="-1.54392">
        <ele>56</ele>
        <time>2021-01-02T11:45:39.000Z</time>
      </trkpt>
      <trkpt lat="47.20023" lon="-1.54381">
        <ele>56</ele>
        <time>2021-01-02T11:45:42.000Z</time>
      </trkpt>
      <trkpt lat="47.20029" lon="-1.54372">
        <ele>56</ele>
        <time>2021-01-02T11:45:45.000Z</time>
      </trkpt>
      <trkpt lat="47.20041" lon="-1.54375">
        <ele>56</ele>
        <time>2021-01-02T11:45:49.000Z</time>
      </trkpt>
      <trkpt lat="47.20049" lon="-1.54365">
        <ele>55</ele>
        <time>2021-01-02T11:45:52.000Z</time>
      </trkpt>
      <trkpt lat="47.20058" lon="-1.5436">
        <ele>55</ele>
        <time>2021-01-02T11:45:54.000Z</time>
      </trkpt>
      <trkpt lat="47.20062" lon="-1.54347">
        <ele>55</ele>
        <time>2021-01-02T11:45:58.000Z</time>
      </trkpt>
      <trkpt lat="47.20051" lon="-1.54334">
        <ele>55</ele>
        <time>2021-01-02T11:46:01.000Z</time>
      </trkpt>
      <trkpt lat="47.20046" lon="-1.54319">
        <ele>56</ele>
        <time>2021-01-02T11:46:03.000Z</time>
      </trkpt>
      <trkpt lat="47.20048" lon="-1.543">
        <ele>57</ele>
        <time>2021-01-02T11:46:05.000Z</time>
      </trkpt>
      <trkpt lat="47.20052" lon="-1.5428">
        <ele>59</ele>
        <time>2021-01-02T11:46:07.000Z</time>
      </trkpt>
      <trkpt lat="47.20058" lon="-1.54263">
        <ele>59</ele>
        <time>2021-01-02T11:46:09.000Z</time>
      </trkpt>
      <trkpt lat="47.20064" lon="-1.54245">
        <ele>59</ele>
        <time>2021-01-02T11:46:11.000Z</time>
      </trkpt>
      <trkpt lat="47.2007" lon="-1.54227">
        <ele>59</ele>
        <time>2021-01-02T11:46:13.000Z</time>
      </trkpt>
      <trkpt lat="47.20077" lon="-1.54209">
        <ele>60</ele>
        <time>2021-01-02T11:46:15.000Z</time>
      </trkpt>
      <trkpt lat="47.20083" lon="-1.54191">
        <ele>60</ele>
        <time>2021-01-02T11:46:17.000Z</time>
      </trkpt>
      <trkpt lat="47.20089" lon="-1.54174">
        <ele>60</ele>
        <time>2021-01-02T11:46:19.000Z</time>
      </trkpt>
      <trkpt lat="47.20095" lon="-1.54155">
        <ele>61</ele>
        <time>2021-01-02T11:46:21.000Z</time>
      </trkpt>
      <trkpt lat="47.20101" lon="-1.54137">
        <ele>60</ele>
        <time>2021-01-02T11:46:23.000Z</time>
      </trkpt>
      <trkpt lat="47.20107" lon="-1.54117">
        <ele>60</ele>
        <time>2021-01-02T11:46:25.000Z</time>
      </trkpt>
      <trkpt lat="47.20113" lon="-1.54098">
        <ele>60</ele>
        <time>2021-01-02T11:46:27.000Z</time>
      </trkpt>
      <trkpt lat="47.20119" lon="-1.54078">
        <ele>60</ele>
        <time>2021-01-02T11:46:29.000Z</time>
      </trkpt>
      <trkpt lat="47.20125" lon="-1.54058">
        <ele>60</ele>
        <time>2021-01-02T11:46:31.000Z</time>
      </trkpt>
      <trkpt lat="47.20132" lon="-1.54039">
        <ele>60</ele>
        <time>2021-01-02T11:46:33.000Z</time>
      </trkpt>
      <trkpt lat="47.20138" lon="-1.5402">
        <ele>60</ele>
        <time>2021-01-02T11:46:35.000Z</time>
      </trkpt>
      <trkpt lat="47.20144" lon="-1.54002">
        <ele>60</ele>
        <time>2021-01-02T11:46:37.000Z</time>
      </trkpt>
      <trkpt lat="47.20151" lon="-1.53982">
        <ele>59</ele>
        <time>2021-01-02T11:46:39.000Z</time>
      </trkpt>
      <trkpt lat="47.20157" lon="-1.53964">
        <ele>59</ele>
        <time>2021-01-02T11:46:41.000Z</time>
      </trkpt>
      <trkpt lat="47.20164" lon="-1.53946">
        <ele>59</ele>
        <time>2021-01-02T11:46:43.000Z</time>
      </trkpt>
      <trkpt lat="47.20171" lon="-1.53927">
        <ele>59</ele>
        <time>2021-01-02T11:46:45.000Z</time>
      </trkpt>
      <trkpt lat="47.20178" lon="-1.5391">
        <ele>59</ele>
        <time>2021-01-02T11:46:47.000Z</time>
      </trkpt>
      <trkpt lat="47.20185" lon="-1.53891">
        <ele>59</ele>
        <time>2021-01-02T11:46:49.000Z</time>
      </trkpt>
      <trkpt lat="47.20191" lon="-1.53872">
        <ele>59</ele>
        <time>2021-01-02T11:46:51.000Z</time>
      </trkpt>
      <trkpt lat="47.20197" lon="-1.53853">
        <ele>59</ele>
        <time>2021-01-02T11:46:53.000Z</time>
      </trkpt>
      <trkpt lat="47.20204" lon="-1.53835">
        <ele>59</ele>
        <time>2021-01-02T11:46:55.000Z</time>
      </trkpt>
      <trkpt lat="47.20211" lon="-1.53817">
        <ele>59</ele>
        <time>2021-01-02T11:46:57.000Z</time>
      </trkpt>
      <trkpt lat="47.20217" lon="-1.538">
        <ele>59</ele>
        <time>2021-01-02T11:46:59.000Z</time>
      </trkpt>
      <trkpt lat="47.20223" lon="-1.53781">
        <ele>60</ele>
        <time>2021-01-02T11:47:01.000Z</time>
      </trkpt>
      <trkpt lat="47.2023" lon="-1.53763">
        <ele>60</ele>
        <time>2021-01-02T11:47:03.000Z</time>
      </trkpt>
      <trkpt lat="47.20237" lon="-1.53745">
        <ele>59</ele>
        <time>2021-01-02T11:47:05.000Z</time>
      </trkpt>
      <trkpt lat="47.20244" lon="-1.53728">
        <ele>58</ele>
        <time>2021-01-02T11:47:07.000Z</time>
      </trkpt>
      <trkpt lat="47.20251" lon="-1.53709">
        <ele>58</ele>
        <time>2021-01-02T11:47:09.000Z</time>
      </trkpt>
      <trkpt lat="47.20258" lon="-1.5369">
        <ele>58</ele>
        <time>2021-01-02T11:47:11.000Z</time>
      </trkpt>
      <trkpt lat="47.20264" lon="-1.53672">
        <ele>57</ele>
        <time>2021-01-02T11:47:13.000Z</time>
      </trkpt>
      <trkpt lat="47.20271" lon="-1.53653">
        <ele>57</ele>
        <time>2021-01-02T11:47:15.000Z</time>
      </trkpt>
      <trkpt lat="47.20278" lon="-1.53636">
        <ele>57</ele>
        <time>2021-01-02T11:47:17.000Z</time>
      </trkpt>
      <trkpt lat="47.20284" lon="-1.53619">
        <ele>57</ele>
        <time>2021-01-02T11:47:19.000Z</time>
      </trkpt>
      <trkpt lat="47.2029" lon="-1.53602">
        <ele>57</ele>
        <time>2021-01-02T11:47:21.000Z</time>
      </trkpt>
      <trkpt lat="47.20297" lon="-1.53585">
        <ele>58</ele>
        <time>2021-01-02T11:47:23.000Z</time>
      </trkpt>
      <trkpt lat="47.20304" lon="-1.53565">
        <ele>59</ele>
        <time>2021-01-02T11:47:25.000Z</time>
      </trkpt>
      <trkpt lat="47.20311" lon="-1.53548">
        <ele>59</ele>
        <time>2021-01-02T11:47:27.000Z</time>
      </trkpt>
      <trkpt lat="47.20318" lon="-1.5353">
        <ele>59</ele>
        <time>2021-01-02T11:47:29.000Z</time>
      </trkpt>
      <trkpt lat="47.20324" lon="-1.53511">
        <ele>60</ele>
        <time>2021-01-02T11:47:31.000Z</time>
      </trkpt>
      <trkpt lat="47.20332" lon="-1.53493">
        <ele>60</ele>
        <time>2021-01-02T11:47:33.000Z</time>
      </trkpt>
      <trkpt lat="47.20339" lon="-1.53476">
        <ele>60</ele>
        <time>2021-01-02T11:47:35.000Z</time>
      </trkpt>
      <trkpt lat="47.20346" lon="-1.53459">
        <ele>60</ele>
        <time>2021-01-02T11:47:37.000Z</time>
      </trkpt>
      <trkpt lat="47.20353" lon="-1.53441">
        <ele>60</ele>
        <time>2021-01-02T11:47:39.000Z</time>
      </trkpt>
      <trkpt lat="47.20359" lon="-1.53423">
        <ele>60</ele>
        <time>2021-01-02T11:47:41.000Z</time>
      </trkpt>
      <trkpt lat="47.20366" lon="-1.53404">
        <ele>60</ele>
        <time>2021-01-02T11:47:43.000Z</time>
      </trkpt>
      <trkpt lat="47.20373" lon="-1.53387">
        <ele>60</ele>
        <time>2021-01-02T11:47:45.000Z</time>
      </trkpt>
      <trkpt lat="47.2038" lon="-1.5337">
        <ele>60</ele>
        <time>2021-01-02T11:47:47.000Z</time>
      </trkpt>
      <trkpt lat="47.20386" lon="-1.53352">
        <ele>60</ele>
        <time>2021-01-02T11:47:49.000Z</time>
      </trkpt>
      <trkpt lat="47.20393" lon="-1.53335">
        <ele>59</ele>
        <time>2021-01-02T11:47:51.000Z</time>
      </trkpt>
      <trkpt lat="47.204" lon="-1.53318">
        <ele>60</ele>
        <time>2021-01-02T11:47:53.000Z</time>
      </trkpt>
      <trkpt lat="47.20406" lon="-1.53301">
        <ele>60</ele>
        <time>2021-01-02T11:47:55.000Z</time>
      </trkpt>
      <trkpt lat="47.20413" lon="-1.53283">
        <ele>60</ele>
        <time>2021-01-02T11:47:57.000Z</time>
      </trkpt>
      <trkpt lat="47.2042" lon="-1.53265">
        <ele>60</ele>
        <time>2021-01-02T11:47:59.000Z</time>
      </trkpt>
      <trkpt lat="47.20427" lon="-1.53246">
        <ele>60</ele>
        <time>2021-01-02T11:48:01.000Z</time>
      </trkpt>
      <trkpt lat="47.20434" lon="-1.53226">
        <ele>60</ele>
        <time>2021-01-02T11:48:03.000Z</time>
      </trkpt>
      <trkpt lat="47.20441" lon="-1.53209">
        <ele>60</ele>
        <time>2021-01-02T11:48:05.000Z</time>
      </trkpt>
      <trkpt lat="47.20448" lon="-1.5319">
        <ele>61</ele>
        <time>2021-01-02T11:48:07.000Z</time>
      </trkpt>
      <trkpt lat="47.20454" lon="-1.53175">
        <ele>60</ele>
        <time>2021-01-02T11:48:09.000Z</time>
      </trkpt>
      <trkpt lat="47.20462" lon="-1.53159">
        <ele>60</ele>
        <time>2021-01-02T11:48:11.000Z</time>
      </trkpt>
      <trkpt lat="47.2047" lon="-1.53143">
        <ele>60</ele>
        <time>2021-01-02T11:48:13.000Z</time>
      </trkpt>
      <trkpt lat="47.20475" lon="-1.53124">
        <ele>60</ele>
        <time>2021-01-02T11:48:15.000Z</time>
      </trkpt>
      <trkpt lat="47.20482" lon="-1.53106">
        <ele>60</ele>
        <time>2021-01-02T11:48:17.000Z</time>
      </trkpt>
      <trkpt lat="47.2049" lon="-1.53088">
        <ele>59</ele>
        <time>2021-01-02T11:48:19.000Z</time>
      </trkpt>
      <trkpt lat="47.20497" lon="-1.53069">
        <ele>59</ele>
        <time>2021-01-02T11:48:21.000Z</time>
      </trkpt>
      <trkpt lat="47.20504" lon="-1.53051">
        <ele>59</ele>
        <time>2021-01-02T11:48:23.000Z</time>
      </trkpt>
      <trkpt lat="47.20511" lon="-1.53033">
        <ele>59</ele>
        <time>2021-01-02T11:48:25.000Z</time>
      </trkpt>
      <trkpt lat="47.20519" lon="-1.53016">
        <ele>60</ele>
        <time>2021-01-02T11:48:27.000Z</time>
      </trkpt>
      <trkpt lat="47.20526" lon="-1.52999">
        <ele>60</ele>
        <time>2021-01-02T11:48:29.000Z</time>
      </trkpt>
      <trkpt lat="47.20534" lon="-1.52981">
        <ele>59</ele>
        <time>2021-01-02T11:48:31.000Z</time>
      </trkpt>
      <trkpt lat="47.20542" lon="-1.52964">
        <ele>59</ele>
        <time>2021-01-02T11:48:33.000Z</time>
      </trkpt>
      <trkpt lat="47.2055" lon="-1.52947">
        <ele>59</ele>
        <time>2021-01-02T11:48:35.000Z</time>
      </trkpt>
      <trkpt lat="47.20558" lon="-1.5293">
        <ele>59</ele>
        <time>2021-01-02T11:48:37.000Z</time>
      </trkpt>
      <trkpt lat="47.20567" lon="-1.52913">
        <ele>59</ele>
        <time>2021-01-02T11:48:39.000Z</time>
      </trkpt>
      <trkpt lat="47.20574" lon="-1.52897">
        <ele>59</ele>
        <time>2021-01-02T11:48:41.000Z</time>
      </trkpt>
      <trkpt lat="47.20581" lon="-1.5288">
        <ele>59</ele>
        <time>2021-01-02T11:48:43.000Z</time>
      </trkpt>
      <trkpt lat="47.20588" lon="-1.52863">
        <ele>60</ele>
        <time>2021-01-02T11:48:45.000Z</time>
      </trkpt>
      <trkpt lat="47.20596" lon="-1.52847">
        <ele>60</ele>
        <time>2021-01-02T11:48:47.000Z</time>
      </trkpt>
      <trkpt lat="47.20603" lon="-1.52831">
        <ele>60</ele>
        <time>2021-01-02T11:48:49.000Z</time>
      </trkpt>
      <trkpt lat="47.20612" lon="-1.52816">
        <ele>60</ele>
        <time>2021-01-02T11:48:51.000Z</time>
      </trkpt>
      <trkpt lat="47.20621" lon="-1.52801">
        <ele>60</ele>
        <time>2021-01-02T11:48:53.000Z</time>
      </trkpt>
      <trkpt lat="47.20629" lon="-1.52784">
        <ele>59</ele>
        <time>2021-01-02T11:48:55.000Z</time>
      </trkpt>
      <trkpt lat="47.20638" lon="-1.52767">
        <ele>59</ele>
        <time>2021-01-02T11:48:57.000Z</time>
      </trkpt>
      <trkpt lat="47.20646" lon="-1.52751">
        <ele>59</ele>
        <time>2021-01-02T11:48:59.000Z</time>
      </trkpt>
      <trkpt lat="47.20654" lon="-1.52736">
        <ele>59</ele>
        <time>2021-01-02T11:49:01.000Z</time>
      </trkpt>
      <trkpt lat="47.20662" lon="-1.52721">
        <ele>59</ele>
        <time>2021-01-02T11:49:03.000Z</time>
      </trkpt>
      <trkpt lat="47.20669" lon="-1.52706">
        <ele>59</ele>
        <time>2021-01-02T11:49:05.000Z</time>
      </trkpt>
      <trkpt lat="47.20676" lon="-1.52691">
        <ele>58</ele>
        <time>2021-01-02T11:49:07.000Z</time>
      </trkpt>
      <trkpt lat="47.2068" lon="-1.52676">
        <ele>58</ele>
        <time>2021-01-02T11:49:09.000Z</time>
      </trkpt>
      <trkpt lat="47.20689" lon="-1.52666">
        <ele>59</ele>
        <time>2021-01-02T11:49:11.000Z</time>
      </trkpt>
      <trkpt lat="47.20696" lon="-1.52654">
        <ele>59</ele>
        <time>2021-01-02T11:49:13.000Z</time>
      </trkpt>
      <trkpt lat="47.20706" lon="-1.52651">
        <ele>59</ele>
        <time>2021-01-02T11:49:15.000Z</time>
      </trkpt>
      <trkpt lat="47.20718" lon="-1.52658">
        <ele>59</ele>
        <time>2021-01-02T11:49:17.000Z</time>
      </trkpt>
      <trkpt lat="47.20732" lon="-1.52666">
        <ele>59</ele>
        <time>2021-01-02T11:49:19.000Z</time>
      </trkpt>
      <trkpt lat="47.20744" lon="-1.52674">
        <ele>60</ele>
        <time>2021-01-02T11:49:21.000Z</time>
      </trkpt>
      <trkpt lat="47.20758" lon="-1.5268">
        <ele>60</ele>
        <time>2021-01-02T11:49:23.000Z</time>
      </trkpt>
      <trkpt lat="47.20771" lon="-1.52687">
        <ele>61</ele>
        <time>2021-01-02T11:49:25.000Z</time>
      </trkpt>
      <trkpt lat="47.20784" lon="-1.52693">
        <ele>62</ele>
        <time>2021-01-02T11:49:27.000Z</time>
      </trkpt>
      <trkpt lat="47.20796" lon="-1.52699">
        <ele>62</ele>
        <time>2021-01-02T11:49:29.000Z</time>
      </trkpt>
      <trkpt lat="47.2081" lon="-1.52702">
        <ele>61</ele>
        <time>2021-01-02T11:49:31.000Z</time>
      </trkpt>
      <trkpt lat="47.20823" lon="-1.52708">
        <ele>60</ele>
        <time>2021-01-02T11:49:33.000Z</time>
      </trkpt>
      <trkpt lat="47.20835" lon="-1.52713">
        <ele>59</ele>
        <time>2021-01-02T11:49:35.000Z</time>
      </trkpt>
      <trkpt lat="47.20847" lon="-1.52721">
        <ele>58</ele>
        <time>2021-01-02T11:49:37.000Z</time>
      </trkpt>
      <trkpt lat="47.20856" lon="-1.5273">
        <ele>58</ele>
        <time>2021-01-02T11:49:39.000Z</time>
      </trkpt>
      <trkpt lat="47.20868" lon="-1.52742">
        <ele>57</ele>
        <time>2021-01-02T11:49:41.000Z</time>
      </trkpt>
      <trkpt lat="47.2088" lon="-1.52753">
        <ele>57</ele>
        <time>2021-01-02T11:49:43.000Z</time>
      </trkpt>
      <trkpt lat="47.20894" lon="-1.52761">
        <ele>57</ele>
        <time>2021-01-02T11:49:45.000Z</time>
      </trkpt>
      <trkpt lat="47.20906" lon="-1.52767">
        <ele>57</ele>
        <time>2021-01-02T11:49:47.000Z</time>
      </trkpt>
      <trkpt lat="47.20918" lon="-1.52772">
        <ele>56</ele>
        <time>2021-01-02T11:49:49.000Z</time>
      </trkpt>
      <trkpt lat="47.20928" lon="-1.52776">
        <ele>56</ele>
        <time>2021-01-02T11:49:51.000Z</time>
      </trkpt>
      <trkpt lat="47.20935" lon="-1.52767">
        <ele>55</ele>
        <time>2021-01-02T11:49:53.000Z</time>
      </trkpt>
      <trkpt lat="47.20942" lon="-1.52752">
        <ele>55</ele>
        <time>2021-01-02T11:49:55.000Z</time>
      </trkpt>
      <trkpt lat="47.2095" lon="-1.52737">
        <ele>55</ele>
        <time>2021-01-02T11:49:57.000Z</time>
      </trkpt>
      <trkpt lat="47.20958" lon="-1.52723">
        <ele>56</ele>
        <time>2021-01-02T11:49:59.000Z</time>
      </trkpt>
      <trkpt lat="47.20966" lon="-1.5271">
        <ele>55</ele>
        <time>2021-01-02T11:50:01.000Z</time>
      </trkpt>
      <trkpt lat="47.20976" lon="-1.52703">
        <ele>56</ele>
        <time>2021-01-02T11:50:03.000Z</time>
      </trkpt>
      <trkpt lat="47.20987" lon="-1.52706">
        <ele>55</ele>
        <time>2021-01-02T11:50:05.000Z</time>
      </trkpt>
      <trkpt lat="47.21" lon="-1.52711">
        <ele>55</ele>
        <time>2021-01-02T11:50:07.000Z</time>
      </trkpt>
      <trkpt lat="47.21011" lon="-1.52725">
        <ele>55</ele>
        <time>2021-01-02T11:50:09.000Z</time>
      </trkpt>
      <trkpt lat="47.21021" lon="-1.52739">
        <ele>54</ele>
        <time>2021-01-02T11:50:11.000Z</time>
      </trkpt>
      <trkpt lat="47.21032" lon="-1.52752">
        <ele>55</ele>
        <time>2021-01-02T11:50:13.000Z</time>
      </trkpt>
      <trkpt lat="47.21042" lon="-1.52765">
        <ele>55</ele>
        <time>2021-01-02T11:50:15.000Z</time>
      </trkpt>
      <trkpt lat="47.21052" lon="-1.52778">
        <ele>56</ele>
        <time>2021-01-02T11:50:17.000Z</time>
      </trkpt>
      <trkpt lat="47.21062" lon="-1.52792">
        <ele>57</ele>
        <time>2021-01-02T11:50:19.000Z</time>
      </trkpt>
      <trkpt lat="47.21071" lon="-1.52802">
        <ele>58</ele>
        <time>2021-01-02T11:50:21.000Z</time>
      </trkpt>
      <trkpt lat="47.21081" lon="-1.52813">
        <ele>59</ele>
        <time>2021-01-02T11:50:23.000Z</time>
      </trkpt>
      <trkpt lat="47.21093" lon="-1.52825">
        <ele>58</ele>
        <time>2021-01-02T11:50:25.000Z</time>
      </trkpt>
      <trkpt lat="47.21105" lon="-1.52835">
        <ele>59</ele>
        <time>2021-01-02T11:50:27.000Z</time>
      </trkpt>
      <trkpt lat="47.21115" lon="-1.52848">
        <ele>59</ele>
        <time>2021-01-02T11:50:29.000Z</time>
      </trkpt>
      <trkpt lat="47.21125" lon="-1.52861">
        <ele>58</ele>
        <time>2021-01-02T11:50:31.000Z</time>
      </trkpt>
      <trkpt lat="47.21136" lon="-1.52873">
        <ele>57</ele>
        <time>2021-01-02T11:50:33.000Z</time>
      </trkpt>
      <trkpt lat="47.21148" lon="-1.5288">
        <ele>58</ele>
        <time>2021-01-02T11:50:35.000Z</time>
      </trkpt>
      <trkpt lat="47.21161" lon="-1.52883">
        <ele>57</ele>
        <time>2021-01-02T11:50:37.000Z</time>
      </trkpt>
      <trkpt lat="47.21174" lon="-1.52886">
        <ele>57</ele>
        <time>2021-01-02T11:50:39.000Z</time>
      </trkpt>
      <trkpt lat="47.21186" lon="-1.52889">
        <ele>57</ele>
        <time>2021-01-02T11:50:41.000Z</time>
      </trkpt>
      <trkpt lat="47.21199" lon="-1.52892">
        <ele>57</ele>
        <time>2021-01-02T11:50:43.000Z</time>
      </trkpt>
      <trkpt lat="47.21211" lon="-1.52896">
        <ele>57</ele>
        <time>2021-01-02T11:50:45.000Z</time>
      </trkpt>
      <trkpt lat="47.21223" lon="-1.52899">
        <ele>57</ele>
        <time>2021-01-02T11:50:47.000Z</time>
      </trkpt>
      <trkpt lat="47.21235" lon="-1.52902">
        <ele>57</ele>
        <time>2021-01-02T11:50:49.000Z</time>
      </trkpt>
      <trkpt lat="47.21247" lon="-1.52905">
        <ele>57</ele>
        <time>2021-01-02T11:50:51.000Z</time>
      </trkpt>
      <trkpt lat="47.21259" lon="-1.52909">
        <ele>57</ele>
        <time>2021-01-02T11:50:53.000Z</time>
      </trkpt>
      <trkpt lat="47.21271" lon="-1.52912">
        <ele>57</ele>
        <time>2021-01-02T11:50:55.000Z</time>
      </trkpt>
      <trkpt lat="47.21283" lon="-1.52916">
        <ele>58</ele>
        <time>2021-01-02T11:50:57.000Z</time>
      </trkpt>
      <trkpt lat="47.21295" lon="-1.5292">
        <ele>57</ele>
        <time>2021-01-02T11:50:59.000Z</time>
      </trkpt>
      <trkpt lat="47.21307" lon="-1.52923">
        <ele>57</ele>
        <time>2021-01-02T11:51:01.000Z</time>
      </trkpt>
      <trkpt lat="47.21318" lon="-1.52926">
        <ele>57</ele>
        <time>2021-01-02T11:51:03.000Z</time>
      </trkpt>
      <trkpt lat="47.21329" lon="-1.52929">
        <ele>57</ele>
        <time>2021-01-02T11:51:05.000Z</time>
      </trkpt>
      <trkpt lat="47.2134" lon="-1.52933">
        <ele>56</ele>
        <time>2021-01-02T11:51:07.000Z</time>
      </trkpt>
      <trkpt lat="47.21352" lon="-1.52934">
        <ele>57</ele>
        <time>2021-01-02T11:51:09.000Z</time>
      </trkpt>
      <trkpt lat="47.21362" lon="-1.52926">
        <ele>57</ele>
        <time>2021-01-02T11:51:11.000Z</time>
      </trkpt>
      <trkpt lat="47.21364" lon="-1.52908">
        <ele>57</ele>
        <time>2021-01-02T11:51:13.000Z</time>
      </trkpt>
      <trkpt lat="47.21364" lon="-1.52889">
        <ele>57</ele>
        <time>2021-01-02T11:51:15.000Z</time>
      </trkpt>
      <trkpt lat="47.21364" lon="-1.52869">
        <ele>58</ele>
        <time>2021-01-02T11:51:17.000Z</time>
      </trkpt>
      <trkpt lat="47.21364" lon="-1.52849">
        <ele>58</ele>
        <time>2021-01-02T11:51:19.000Z</time>
      </trkpt>
      <trkpt lat="47.21365" lon="-1.52828">
        <ele>58</ele>
        <time>2021-01-02T11:51:21.000Z</time>
      </trkpt>
      <trkpt lat="47.21367" lon="-1.52807">
        <ele>58</ele>
        <time>2021-01-02T11:51:23.000Z</time>
      </trkpt>
      <trkpt lat="47.21371" lon="-1.52786">
        <ele>58</ele>
        <time>2021-01-02T11:51:25.000Z</time>
      </trkpt>
      <trkpt lat="47.21376" lon="-1.52766">
        <ele>58</ele>
        <time>2021-01-02T11:51:27.000Z</time>
      </trkpt>
      <trkpt lat="47.21381" lon="-1.52746">
        <ele>58</ele>
        <time>2021-01-02T11:51:29.000Z</time>
      </trkpt>
      <trkpt lat="47.21385" lon="-1.52727">
        <ele>59</ele>
        <time>2021-01-02T11:51:31.000Z</time>
      </trkpt>
      <trkpt lat="47.2139" lon="-1.52708">
        <ele>59</ele>
        <time>2021-01-02T11:51:33.000Z</time>
      </trkpt>
      <trkpt lat="47.21395" lon="-1.52689">
        <ele>59</ele>
        <time>2021-01-02T11:51:35.000Z</time>
      </trkpt>
      <trkpt lat="47.214" lon="-1.5267">
        <ele>60</ele>
        <time>2021-01-02T11:51:37.000Z</time>
      </trkpt>
      <trkpt lat="47.21405" lon="-1.52651">
        <ele>60</ele>
        <time>2021-01-02T11:51:39.000Z</time>
      </trkpt>
      <trkpt lat="47.21409" lon="-1.52634">
        <ele>60</ele>
        <time>2021-01-02T11:51:41.000Z</time>
      </trkpt>
      <trkpt lat="47.21414" lon="-1.52617">
        <ele>60</ele>
        <time>2021-01-02T11:51:43.000Z</time>
      </trkpt>
      <trkpt lat="47.2142" lon="-1.52598">
        <ele>60</ele>
        <time>2021-01-02T11:51:45.000Z</time>
      </trkpt>
      <trkpt lat="47.21426" lon="-1.52578">
        <ele>59</ele>
        <time>2021-01-02T11:51:47.000Z</time>
      </trkpt>
      <trkpt lat="47.21431" lon="-1.52557">
        <ele>59</ele>
        <time>2021-01-02T11:51:49.000Z</time>
      </trkpt>
      <trkpt lat="47.21437" lon="-1.52537">
        <ele>59</ele>
        <time>2021-01-02T11:51:51.000Z</time>
      </trkpt>
      <trkpt lat="47.21443" lon="-1.52517">
        <ele>59</ele>
        <time>2021-01-02T11:51:53.000Z</time>
      </trkpt>
      <trkpt lat="47.2145" lon="-1.52499">
        <ele>59</ele>
        <time>2021-01-02T11:51:55.000Z</time>
      </trkpt>
      <trkpt lat="47.21456" lon="-1.52482">
        <ele>59</ele>
        <time>2021-01-02T11:51:57.000Z</time>
      </trkpt>
      <trkpt lat="47.21464" lon="-1.52464">
        <ele>59</ele>
        <time>2021-01-02T11:51:59.000Z</time>
      </trkpt>
      <trkpt lat="47.2147" lon="-1.52445">
        <ele>58</ele>
        <time>2021-01-02T11:52:01.000Z</time>
      </trkpt>
      <trkpt lat="47.21476" lon="-1.52426">
        <ele>59</ele>
        <time>2021-01-02T11:52:03.000Z</time>
      </trkpt>
      <trkpt lat="47.21481" lon="-1.52407">
        <ele>59</ele>
        <time>2021-01-02T11:52:05.000Z</time>
      </trkpt>
      <trkpt lat="47.21487" lon="-1.52388">
        <ele>59</ele>
        <time>2021-01-02T11:52:07.000Z</time>
      </trkpt>
      <trkpt lat="47.21493" lon="-1.52369">
        <ele>59</ele>
        <time>2021-01-02T11:52:09.000Z</time>
      </trkpt>
      <trkpt lat="47.21499" lon="-1.52351">
        <ele>59</ele>
        <time>2021-01-02T11:52:11.000Z</time>
      </trkpt>
      <trkpt lat="47.21506" lon="-1.52332">
        <ele>59</ele>
        <time>2021-01-02T11:52:13.000Z</time>
      </trkpt>
      <trkpt lat="47.21512" lon="-1.52314">
        <ele>59</ele>
        <time>2021-01-02T11:52:15.000Z</time>
      </trkpt>
      <trkpt lat="47.21518" lon="-1.52295">
        <ele>59</ele>
        <time>2021-01-02T11:52:17.000Z</time>
      </trkpt>
      <trkpt lat="47.21523" lon="-1.52277">
        <ele>60</ele>
        <time>2021-01-02T11:52:19.000Z</time>
      </trkpt>
      <trkpt lat="47.21529" lon="-1.52259">
        <ele>60</ele>
        <time>2021-01-02T11:52:21.000Z</time>
      </trkpt>
      <trkpt lat="47.21535" lon="-1.52241">
        <ele>60</ele>
        <time>2021-01-02T11:52:23.000Z</time>
      </trkpt>
      <trkpt lat="47.21541" lon="-1.52223">
        <ele>60</ele>
        <time>2021-01-02T11:52:25.000Z</time>
      </trkpt>
      <trkpt lat="47.21547" lon="-1.52205">
        <ele>60</ele>
        <time>2021-01-02T11:52:27.000Z</time>
      </trkpt>
      <trkpt lat="47.21552" lon="-1.52186">
        <ele>59</ele>
        <time>2021-01-02T11:52:29.000Z</time>
      </trkpt>
      <trkpt lat="47.21558" lon="-1.52168">
        <ele>59</ele>
        <time>2021-01-02T11:52:31.000Z</time>
      </trkpt>
      <trkpt lat="47.21563" lon="-1.52149">
        <ele>59</ele>
        <time>2021-01-02T11:52:33.000Z</time>
      </trkpt>
      <trkpt lat="47.21569" lon="-1.52132">
        <ele>59</ele>
        <time>2021-01-02T11:52:35.000Z</time>
      </trkpt>
      <trkpt lat="47.21574" lon="-1.52114">
        <ele>59</ele>
        <time>2021-01-02T11:52:37.000Z</time>
      </trkpt>
      <trkpt lat="47.2158" lon="-1.52095">
        <ele>59</ele>
        <time>2021-01-02T11:52:39.000Z</time>
      </trkpt>
      <trkpt lat="47.21586" lon="-1.52078">
        <ele>59</ele>
        <time>2021-01-02T11:52:41.000Z</time>
      </trkpt>
      <trkpt lat="47.21592" lon="-1.5206">
        <ele>58</ele>
        <time>2021-01-02T11:52:43.000Z</time>
      </trkpt>
      <trkpt lat="47.21597" lon="-1.52041">
        <ele>58</ele>
        <time>2021-01-02T11:52:45.000Z</time>
      </trkpt>
      <trkpt lat="47.21603" lon="-1.52023">
        <ele>58</ele>
        <time>2021-01-02T11:52:47.000Z</time>
      </trkpt>
      <trkpt lat="47.21609" lon="-1.52005">
        <ele>58</ele>
        <time>2021-01-02T11:52:49.000Z</time>
      </trkpt>
      <trkpt lat="47.21615" lon="-1.51985">
        <ele>58</ele>
        <time>2021-01-02T11:52:51.000Z</time>
      </trkpt>
      <trkpt lat="47.21622" lon="-1.51966">
        <ele>58</ele>
        <time>2021-01-02T11:52:53.000Z</time>
      </trkpt>
      <trkpt lat="47.21629" lon="-1.51947">
        <ele>57</ele>
        <time>2021-01-02T11:52:55.000Z</time>
      </trkpt>
      <trkpt lat="47.21636" lon="-1.5193">
        <ele>57</ele>
        <time>2021-01-02T11:52:57.000Z</time>
      </trkpt>
      <trkpt lat="47.21643" lon="-1.51912">
        <ele>57</ele>
        <time>2021-01-02T11:52:59.000Z</time>
      </trkpt>
      <trkpt lat="47.21648" lon="-1.51894">
        <ele>58</ele>
        <time>2021-01-02T11:53:01.000Z</time>
      </trkpt>
      <trkpt lat="47.21654" lon="-1.51876">
        <ele>58</ele>
        <time>2021-01-02T11:53:03.000Z</time>
      </trkpt>
      <trkpt lat="47.2166" lon="-1.51859">
        <ele>59</ele>
        <time>2021-01-02T11:53:05.000Z</time>
      </trkpt>
      <trkpt lat="47.21668" lon="-1.51841">
        <ele>59</ele>
        <time>2021-01-02T11:53:07.000Z</time>
      </trkpt>
      <trkpt lat="47.21677" lon="-1.51824">
        <ele>58</ele>
        <time>2021-01-02T11:53:09.000Z</time>
      </trkpt>
      <trkpt lat="47.21685" lon="-1.51806">
        <ele>58</ele>
        <time>2021-01-02T11:53:11.000Z</time>
      </trkpt>
      <trkpt lat="47.21692" lon="-1.51788">
        <ele>57</ele>
        <time>2021-01-02T11:53:13.000Z</time>
      </trkpt>
      <trkpt lat="47.21699" lon="-1.5177">
        <ele>57</ele>
        <time>2021-01-02T11:53:15.000Z</time>
      </trkpt>
      <trkpt lat="47.21707" lon="-1.51753">
        <ele>57</ele>
        <time>2021-01-02T11:53:17.000Z</time>
      </trkpt>
      <trkpt lat="47.21714" lon="-1.51736">
        <ele>57</ele>
        <time>2021-01-02T11:53:19.000Z</time>
      </trkpt>
      <trkpt lat="47.21722" lon="-1.51718">
        <ele>57</ele>
        <time>2021-01-02T11:53:21.000Z</time>
      </trkpt>
      <trkpt lat="47.21729" lon="-1.51701">
        <ele>56</ele>
        <time>2021-01-02T11:53:23.000Z</time>
      </trkpt>
      <trkpt lat="47.21736" lon="-1.51683">
        <ele>55</ele>
        <time>2021-01-02T11:53:25.000Z</time>
      </trkpt>
      <trkpt lat="47.21743" lon="-1.51666">
        <ele>55</ele>
        <time>2021-01-02T11:53:27.000Z</time>
      </trkpt>
      <trkpt lat="47.2175" lon="-1.51648">
        <ele>55</ele>
        <time>2021-01-02T11:53:29.000Z</time>
      </trkpt>
      <trkpt lat="47.21756" lon="-1.51632">
        <ele>56</ele>
        <time>2021-01-02T11:53:31.000Z</time>
      </trkpt>
      <trkpt lat="47.21764" lon="-1.51616">
        <ele>56</ele>
        <time>2021-01-02T11:53:33.000Z</time>
      </trkpt>
      <trkpt lat="47.21773" lon="-1.51602">
        <ele>57</ele>
        <time>2021-01-02T11:53:35.000Z</time>
      </trkpt>
      <trkpt lat="47.21783" lon="-1.5159">
        <ele>57</ele>
        <time>2021-01-02T11:53:37.000Z</time>
      </trkpt>
      <trkpt lat="47.21794" lon="-1.51579">
        <ele>57</ele>
        <time>2021-01-02T11:53:39.000Z</time>
      </trkpt>
      <trkpt lat="47.21805" lon="-1.51568">
        <ele>57</ele>
        <time>2021-01-02T11:53:41.000Z</time>
      </trkpt>
      <trkpt lat="47.21813" lon="-1.51554">
        <ele>57</ele>
        <time>2021-01-02T11:53:43.000Z</time>
      </trkpt>
      <trkpt lat="47.21817" lon="-1.51537">
        <ele>57</ele>
        <time>2021-01-02T11:53:45.000Z</time>
      </trkpt>
      <trkpt lat="47.21817" lon="-1.51516">
        <ele>57</ele>
        <time>2021-01-02T11:53:47.000Z</time>
      </trkpt>
      <trkpt lat="47.21818" lon="-1.51494">
        <ele>57</ele>
        <time>2021-01-02T11:53:49.000Z</time>
      </trkpt>
      <trkpt lat="47.21822" lon="-1.51472">
        <ele>57</ele>
        <time>2021-01-02T11:53:51.000Z</time>
      </trkpt>
      <trkpt lat="47.21826" lon="-1.5145">
        <ele>57</ele>
        <time>2021-01-02T11:53:53.000Z</time>
      </trkpt>
      <trkpt lat="47.2183" lon="-1.51429">
        <ele>57</ele>
        <time>2021-01-02T11:53:55.000Z</time>
      </trkpt>
      <trkpt lat="47.21834" lon="-1.51406">
        <ele>58</ele>
        <time>2021-01-02T11:53:57.000Z</time>
      </trkpt>
      <trkpt lat="47.21839" lon="-1.51384">
        <ele>57</ele>
        <time>2021-01-02T11:53:59.000Z</time>
      </trkpt>
      <trkpt lat="47.21845" lon="-1.51362">
        <ele>57</ele>
        <time>2021-01-02T11:54:01.000Z</time>
      </trkpt>
      <trkpt lat="47.2185" lon="-1.51341">
        <ele>57</ele>
        <time>2021-01-02T11:54:03.000Z</time>
      </trkpt>
      <trkpt lat="47.21856" lon="-1.5132">
        <ele>57</ele>
        <time>2021-01-02T11:54:05.000Z</time>
      </trkpt>
      <trkpt lat="47.21863" lon="-1.513">
        <ele>56</ele>
        <time>2021-01-02T11:54:07.000Z</time>
      </trkpt>
      <trkpt lat="47.2187" lon="-1.5128">
        <ele>55</ele>
        <time>2021-01-02T11:54:09.000Z</time>
      </trkpt>
      <trkpt lat="47.21877" lon="-1.5126">
        <ele>56</ele>
        <time>2021-01-02T11:54:11.000Z</time>
      </trkpt>
      <trkpt lat="47.21883" lon="-1.5124">
        <ele>56</ele>
        <time>2021-01-02T11:54:13.000Z</time>
      </trkpt>
      <trkpt lat="47.2189" lon="-1.5122">
        <ele>56</ele>
        <time>2021-01-02T11:54:15.000Z</time>
      </trkpt>
      <trkpt lat="47.21896" lon="-1.51201">
        <ele>57</ele>
        <time>2021-01-02T11:54:17.000Z</time>
      </trkpt>
      <trkpt lat="47.21902" lon="-1.51182">
        <ele>57</ele>
        <time>2021-01-02T11:54:19.000Z</time>
      </trkpt>
      <trkpt lat="47.21909" lon="-1.51163">
        <ele>56</ele>
        <time>2021-01-02T11:54:21.000Z</time>
      </trkpt>
      <trkpt lat="47.21915" lon="-1.51144">
        <ele>56</ele>
        <time>2021-01-02T11:54:23.000Z</time>
      </trkpt>
      <trkpt lat="47.21921" lon="-1.51126">
        <ele>56</ele>
        <time>2021-01-02T11:54:25.000Z</time>
      </trkpt>
      <trkpt lat="47.21927" lon="-1.51107">
        <ele>56</ele>
        <time>2021-01-02T11:54:27.000Z</time>
      </trkpt>
      <trkpt lat="47.21933" lon="-1.5109">
        <ele>57</ele>
        <time>2021-01-02T11:54:29.000Z</time>
      </trkpt>
      <trkpt lat="47.21939" lon="-1.51074">
        <ele>57</ele>
        <time>2021-01-02T11:54:31.000Z</time>
      </trkpt>
      <trkpt lat="47.21948" lon="-1.51062">
        <ele>57</ele>
        <time>2021-01-02T11:54:33.000Z</time>
      </trkpt>
      <trkpt lat="47.21953" lon="-1.5105">
        <ele>57</ele>
        <time>2021-01-02T11:54:35.000Z</time>
      </trkpt>
      <trkpt lat="47.21956" lon="-1.51032">
        <ele>56</ele>
        <time>2021-01-02T11:54:37.000Z</time>
      </trkpt>
      <trkpt lat="47.21961" lon="-1.51013">
        <ele>56</ele>
        <time>2021-01-02T11:54:39.000Z</time>
      </trkpt>
      <trkpt lat="47.21967" lon="-1.50994">
        <ele>56</ele>
        <time>2021-01-02T11:54:41.000Z</time>
      </trkpt>
      <trkpt lat="47.21972" lon="-1.50976">
        <ele>56</ele>
        <time>2021-01-02T11:54:43.000Z</time>
      </trkpt>
      <trkpt lat="47.21977" lon="-1.50957">
        <ele>56</ele>
        <time>2021-01-02T11:54:45.000Z</time>
      </trkpt>
      <trkpt lat="47.21982" lon="-1.50939">
        <ele>55</ele>
        <time>2021-01-02T11:54:47.000Z</time>
      </trkpt>
      <trkpt lat="47.21986" lon="-1.5092">
        <ele>56</ele>
        <time>2021-01-02T11:54:49.000Z</time>
      </trkpt>
      <trkpt lat="47.2199" lon="-1.50901">
        <ele>56</ele>
        <time>2021-01-02T11:54:51.000Z</time>
      </trkpt>
      <trkpt lat="47.21996" lon="-1.50883">
        <ele>56</ele>
        <time>2021-01-02T11:54:53.000Z</time>
      </trkpt>
      <trkpt lat="47.22003" lon="-1.50864">
        <ele>56</ele>
        <time>2021-01-02T11:54:55.000Z</time>
      </trkpt>
      <trkpt lat="47.22009" lon="-1.50846">
        <ele>56</ele>
        <time>2021-01-02T11:54:57.000Z</time>
      </trkpt>
      <trkpt lat="47.22015" lon="-1.50831">
        <ele>56</ele>
        <time>2021-01-02T11:54:59.000Z</time>
      </trkpt>
      <trkpt lat="47.22021" lon="-1.50814">
        <ele>56</ele>
        <time>2021-01-02T11:55:01.000Z</time>
      </trkpt>
      <trkpt lat="47.22027" lon="-1.50797">
        <ele>56</ele>
        <time>2021-01-02T11:55:03.000Z</time>
      </trkpt>
      <trkpt lat="47.22033" lon="-1.50779">
        <ele>56</ele>
        <time>2021-01-02T11:55:05.000Z</time>
      </trkpt>
      <trkpt lat="47.22038" lon="-1.5076">
        <ele>56</ele>
        <time>2021-01-02T11:55:07.000Z</time>
      </trkpt>
      <trkpt lat="47.22042" lon="-1.50741">
        <ele>56</ele>
        <time>2021-01-02T11:55:09.000Z</time>
      </trkpt>
      <trkpt lat="47.22046" lon="-1.50723">
        <ele>55</ele>
        <time>2021-01-02T11:55:11.000Z</time>
      </trkpt>
      <trkpt lat="47.22047" lon="-1.50705">
        <ele>55</ele>
        <time>2021-01-02T11:55:13.000Z</time>
      </trkpt>
      <trkpt lat="47.22048" lon="-1.50684">
        <ele>55</ele>
        <time>2021-01-02T11:55:15.000Z</time>
      </trkpt>
      <trkpt lat="47.22051" lon="-1.50665">
        <ele>56</ele>
        <time>2021-01-02T11:55:17.000Z</time>
      </trkpt>
      <trkpt lat="47.22054" lon="-1.50646">
        <ele>56</ele>
        <time>2021-01-02T11:55:19.000Z</time>
      </trkpt>
      <trkpt lat="47.22054" lon="-1.50626">
        <ele>56</ele>
        <time>2021-01-02T11:55:21.000Z</time>
      </trkpt>
      <trkpt lat="47.22053" lon="-1.50603">
        <ele>56</ele>
        <time>2021-01-02T11:55:23.000Z</time>
      </trkpt>
      <trkpt lat="47.22054" lon="-1.50582">
        <ele>55</ele>
        <time>2021-01-02T11:55:25.000Z</time>
      </trkpt>
      <trkpt lat="47.22055" lon="-1.50562">
        <ele>56</ele>
        <time>2021-01-02T11:55:27.000Z</time>
      </trkpt>
      <trkpt lat="47.22057" lon="-1.50543">
        <ele>56</ele>
        <time>2021-01-02T11:55:29.000Z</time>
      </trkpt>
      <trkpt lat="47.22059" lon="-1.50522">
        <ele>56</ele>
        <time>2021-01-02T11:55:31.000Z</time>
      </trkpt>
      <trkpt lat="47.2206" lon="-1.50502">
        <ele>56</ele>
        <time>2021-01-02T11:55:33.000Z</time>
      </trkpt>
      <trkpt lat="47.22062" lon="-1.50481">
        <ele>57</ele>
        <time>2021-01-02T11:55:35.000Z</time>
      </trkpt>
      <trkpt lat="47.22064" lon="-1.50462">
        <ele>56</ele>
        <time>2021-01-02T11:55:37.000Z</time>
      </trkpt>
      <trkpt lat="47.22068" lon="-1.50442">
        <ele>57</ele>
        <time>2021-01-02T11:55:39.000Z</time>
      </trkpt>
      <trkpt lat="47.22071" lon="-1.50423">
        <ele>57</ele>
        <time>2021-01-02T11:55:41.000Z</time>
      </trkpt>
      <trkpt lat="47.22075" lon="-1.50404">
        <ele>57</ele>
        <time>2021-01-02T11:55:43.000Z</time>
      </trkpt>
      <trkpt lat="47.2208" lon="-1.50387">
        <ele>57</ele>
        <time>2021-01-02T11:55:45.000Z</time>
      </trkpt>
      <trkpt lat="47.22085" lon="-1.50368">
        <ele>57</ele>
        <time>2021-01-02T11:55:47.000Z</time>
      </trkpt>
      <trkpt lat="47.2209" lon="-1.50349">
        <ele>57</ele>
        <time>2021-01-02T11:55:49.000Z</time>
      </trkpt>
      <trkpt lat="47.22096" lon="-1.50331">
        <ele>57</ele>
        <time>2021-01-02T11:55:51.000Z</time>
      </trkpt>
      <trkpt lat="47.22104" lon="-1.50314">
        <ele>57</ele>
        <time>2021-01-02T11:55:53.000Z</time>
      </trkpt>
      <trkpt lat="47.22112" lon="-1.50297">
        <ele>57</ele>
        <time>2021-01-02T11:55:55.000Z</time>
      </trkpt>
      <trkpt lat="47.2212" lon="-1.5028">
        <ele>57</ele>
        <time>2021-01-02T11:55:57.000Z</time>
      </trkpt>
      <trkpt lat="47.22128" lon="-1.50265">
        <ele>56</ele>
        <time>2021-01-02T11:55:59.000Z</time>
      </trkpt>
      <trkpt lat="47.22135" lon="-1.50247">
        <ele>56</ele>
        <time>2021-01-02T11:56:01.000Z</time>
      </trkpt>
      <trkpt lat="47.22139" lon="-1.5023">
        <ele>56</ele>
        <time>2021-01-02T11:56:03.000Z</time>
      </trkpt>
      <trkpt lat="47.22143" lon="-1.50213">
        <ele>56</ele>
        <time>2021-01-02T11:56:05.000Z</time>
      </trkpt>
      <trkpt lat="47.22147" lon="-1.50197">
        <ele>56</ele>
        <time>2021-01-02T11:56:07.000Z</time>
      </trkpt>
      <trkpt lat="47.22151" lon="-1.5018">
        <ele>56</ele>
        <time>2021-01-02T11:56:09.000Z</time>
      </trkpt>
      <trkpt lat="47.22156" lon="-1.50162">
        <ele>55</ele>
        <time>2021-01-02T11:56:11.000Z</time>
      </trkpt>
      <trkpt lat="47.22162" lon="-1.50143">
        <ele>55</ele>
        <time>2021-01-02T11:56:13.000Z</time>
      </trkpt>
      <trkpt lat="47.22168" lon="-1.50123">
        <ele>55</ele>
        <time>2021-01-02T11:56:15.000Z</time>
      </trkpt>
      <trkpt lat="47.22174" lon="-1.50105">
        <ele>56</ele>
        <time>2021-01-02T11:56:17.000Z</time>
      </trkpt>
      <trkpt lat="47.2218" lon="-1.50086">
        <ele>55</ele>
        <time>2021-01-02T11:56:19.000Z</time>
      </trkpt>
      <trkpt lat="47.22184" lon="-1.50068">
        <ele>54</ele>
        <time>2021-01-02T11:56:21.000Z</time>
      </trkpt>
      <trkpt lat="47.22188" lon="-1.50048">
        <ele>54</ele>
        <time>2021-01-02T11:56:23.000Z</time>
      </trkpt>
      <trkpt lat="47.22191" lon="-1.50029">
        <ele>54</ele>
        <time>2021-01-02T11:56:25.000Z</time>
      </trkpt>
      <trkpt lat="47.22195" lon="-1.50009">
        <ele>53</ele>
        <time>2021-01-02T11:56:27.000Z</time>
      </trkpt>
      <trkpt lat="47.222" lon="-1.49991">
        <ele>53</ele>
        <time>2021-01-02T11:56:29.000Z</time>
      </trkpt>
      <trkpt lat="47.22205" lon="-1.49973">
        <ele>53</ele>
        <time>2021-01-02T11:56:31.000Z</time>
      </trkpt>
      <trkpt lat="47.22211" lon="-1.49954">
        <ele>53</ele>
        <time>2021-01-02T11:56:33.000Z</time>
      </trkpt>
      <trkpt lat="47.22215" lon="-1.49935">
        <ele>54</ele>
        <time>2021-01-02T11:56:35.000Z</time>
      </trkpt>
      <trkpt lat="47.22219" lon="-1.49915">
        <ele>55</ele>
        <time>2021-01-02T11:56:37.000Z</time>
      </trkpt>
      <trkpt lat="47.22224" lon="-1.49895">
        <ele>54</ele>
        <time>2021-01-02T11:56:39.000Z</time>
      </trkpt>
      <trkpt lat="47.22229" lon="-1.49877">
        <ele>54</ele>
        <time>2021-01-02T11:56:41.000Z</time>
      </trkpt>
      <trkpt lat="47.22233" lon="-1.49858">
        <ele>55</ele>
        <time>2021-01-02T11:56:43.000Z</time>
      </trkpt>
      <trkpt lat="47.22238" lon="-1.49839">
        <ele>55</ele>
        <time>2021-01-02T11:56:45.000Z</time>
      </trkpt>
      <trkpt lat="47.22242" lon="-1.4982">
        <ele>55</ele>
        <time>2021-01-02T11:56:47.000Z</time>
      </trkpt>
      <trkpt lat="47.22245" lon="-1.49801">
        <ele>55</ele>
        <time>2021-01-02T11:56:49.000Z</time>
      </trkpt>
      <trkpt lat="47.22249" lon="-1.49781">
        <ele>54</ele>
        <time>2021-01-02T11:56:51.000Z</time>
      </trkpt>
      <trkpt lat="47.22252" lon="-1.49762">
        <ele>54</ele>
        <time>2021-01-02T11:56:53.000Z</time>
      </trkpt>
      <trkpt lat="47.22255" lon="-1.49741">
        <ele>55</ele>
        <time>2021-01-02T11:56:55.000Z</time>
      </trkpt>
      <trkpt lat="47.2226" lon="-1.49722">
        <ele>55</ele>
        <time>2021-01-02T11:56:57.000Z</time>
      </trkpt>
      <trkpt lat="47.22266" lon="-1.49704">
        <ele>55</ele>
        <time>2021-01-02T11:56:59.000Z</time>
      </trkpt>
      <trkpt lat="47.22272" lon="-1.49686">
        <ele>54</ele>
        <time>2021-01-02T11:57:01.000Z</time>
      </trkpt>
      <trkpt lat="47.22278" lon="-1.49669">
        <ele>53</ele>
        <time>2021-01-02T11:57:03.000Z</time>
      </trkpt>
      <trkpt lat="47.22284" lon="-1.49651">
        <ele>53</ele>
        <time>2021-01-02T11:57:05.000Z</time>
      </trkpt>
      <trkpt lat="47.22289" lon="-1.49633">
        <ele>52</ele>
        <time>2021-01-02T11:57:07.000Z</time>
      </trkpt>
      <trkpt lat="47.22293" lon="-1.49613">
        <ele>53</ele>
        <time>2021-01-02T11:57:09.000Z</time>
      </trkpt>
      <trkpt lat="47.22299" lon="-1.49595">
        <ele>52</ele>
        <time>2021-01-02T11:57:11.000Z</time>
      </trkpt>
      <trkpt lat="47.22305" lon="-1.49578">
        <ele>52</ele>
        <time>2021-01-02T11:57:13.000Z</time>
      </trkpt>
      <trkpt lat="47.2231" lon="-1.49561">
        <ele>52</ele>
        <time>2021-01-02T11:57:15.000Z</time>
      </trkpt>
      <trkpt lat="47.22316" lon="-1.49544">
        <ele>52</ele>
        <time>2021-01-02T11:57:17.000Z</time>
      </trkpt>
      <trkpt lat="47.22322" lon="-1.49526">
        <ele>53</ele>
        <time>2021-01-02T11:57:19.000Z</time>
      </trkpt>
      <trkpt lat="47.22329" lon="-1.49509">
        <ele>52</ele>
        <time>2021-01-02T11:57:21.000Z</time>
      </trkpt>
      <trkpt lat="47.22335" lon="-1.4949">
        <ele>53</ele>
        <time>2021-01-02T11:57:23.000Z</time>
      </trkpt>
      <trkpt lat="47.2234" lon="-1.49471">
        <ele>53</ele>
        <time>2021-01-02T11:57:25.000Z</time>
      </trkpt>
      <trkpt lat="47.22346" lon="-1.49453">
        <ele>53</ele>
        <time>2021-01-02T11:57:27.000Z</time>
      </trkpt>
      <trkpt lat="47.22352" lon="-1.49435">
        <ele>53</ele>
        <time>2021-01-02T11:57:29.000Z</time>
      </trkpt>
      <trkpt lat="47.22358" lon="-1.49418">
        <ele>53</ele>
        <time>2021-01-02T11:57:31.000Z</time>
      </trkpt>
      <trkpt lat="47.22366" lon="-1.49401">
        <ele>54</ele>
        <time>2021-01-02T11:57:33.000Z</time>
      </trkpt>
      <trkpt lat="47.22374" lon="-1.49384">
        <ele>54</ele>
        <time>2021-01-02T11:57:35.000Z</time>
      </trkpt>
      <trkpt lat="47.22382" lon="-1.49368">
        <ele>53</ele>
        <time>2021-01-02T11:57:37.000Z</time>
      </trkpt>
      <trkpt lat="47.2239" lon="-1.4935">
        <ele>53</ele>
        <time>2021-01-02T11:57:39.000Z</time>
      </trkpt>
      <trkpt lat="47.22398" lon="-1.49331">
        <ele>52</ele>
        <time>2021-01-02T11:57:41.000Z</time>
      </trkpt>
      <trkpt lat="47.22404" lon="-1.49312">
        <ele>53</ele>
        <time>2021-01-02T11:57:43.000Z</time>
      </trkpt>
      <trkpt lat="47.22411" lon="-1.49293">
        <ele>53</ele>
        <time>2021-01-02T11:57:45.000Z</time>
      </trkpt>
      <trkpt lat="47.22418" lon="-1.49276">
        <ele>53</ele>
        <time>2021-01-02T11:57:47.000Z</time>
      </trkpt>
      <trkpt lat="47.22425" lon="-1.49259">
        <ele>52</ele>
        <time>2021-01-02T11:57:49.000Z</time>
      </trkpt>
      <trkpt lat="47.22433" lon="-1.49243">
        <ele>52</ele>
        <time>2021-01-02T11:57:51.000Z</time>
      </trkpt>
      <trkpt lat="47.22438" lon="-1.49223">
        <ele>52</ele>
        <time>2021-01-02T11:57:53.000Z</time>
      </trkpt>
      <trkpt lat="47.22445" lon="-1.49204">
        <ele>53</ele>
        <time>2021-01-02T11:57:55.000Z</time>
      </trkpt>
      <trkpt lat="47.22451" lon="-1.49186">
        <ele>53</ele>
        <time>2021-01-02T11:57:57.000Z</time>
      </trkpt>
      <trkpt lat="47.22458" lon="-1.49169">
        <ele>53</ele>
        <time>2021-01-02T11:57:59.000Z</time>
      </trkpt>
      <trkpt lat="47.22465" lon="-1.49151">
        <ele>53</ele>
        <time>2021-01-02T11:58:01.000Z</time>
      </trkpt>
      <trkpt lat="47.22472" lon="-1.49133">
        <ele>53</ele>
        <time>2021-01-02T11:58:03.000Z</time>
      </trkpt>
      <trkpt lat="47.22477" lon="-1.49115">
        <ele>53</ele>
        <time>2021-01-02T11:58:05.000Z</time>
      </trkpt>
      <trkpt lat="47.22482" lon="-1.49097">
        <ele>53</ele>
        <time>2021-01-02T11:58:07.000Z</time>
      </trkpt>
      <trkpt lat="47.22489" lon="-1.49078">
        <ele>53</ele>
        <time>2021-01-02T11:58:09.000Z</time>
      </trkpt>
      <trkpt lat="47.22496" lon="-1.4906">
        <ele>54</ele>
        <time>2021-01-02T11:58:11.000Z</time>
      </trkpt>
      <trkpt lat="47.22502" lon="-1.49043">
        <ele>54</ele>
        <time>2021-01-02T11:58:13.000Z</time>
      </trkpt>
      <trkpt lat="47.22507" lon="-1.49025">
        <ele>53</ele>
        <time>2021-01-02T11:58:15.000Z</time>
      </trkpt>
      <trkpt lat="47.22512" lon="-1.49006">
        <ele>53</ele>
        <time>2021-01-02T11:58:17.000Z</time>
      </trkpt>
      <trkpt lat="47.22517" lon="-1.48988">
        <ele>53</ele>
        <time>2021-01-02T11:58:19.000Z</time>
      </trkpt>
      <trkpt lat="47.22523" lon="-1.4897">
        <ele>54</ele>
        <time>2021-01-02T11:58:21.000Z</time>
      </trkpt>
      <trkpt lat="47.22529" lon="-1.48953">
        <ele>54</ele>
        <time>2021-01-02T11:58:23.000Z</time>
      </trkpt>
      <trkpt lat="47.22535" lon="-1.48937">
        <ele>54</ele>
        <time>2021-01-02T11:58:25.000Z</time>
      </trkpt>
      <trkpt lat="47.2254" lon="-1.4892">
        <ele>54</ele>
        <time>2021-01-02T11:58:27.000Z</time>
      </trkpt>
      <trkpt lat="47.22545" lon="-1.48902">
        <ele>54</ele>
        <time>2021-01-02T11:58:29.000Z</time>
      </trkpt>
      <trkpt lat="47.22551" lon="-1.48883">
        <ele>54</ele>
        <time>2021-01-02T11:58:31.000Z</time>
      </trkpt>
      <trkpt lat="47.22556" lon="-1.48866">
        <ele>54</ele>
        <time>2021-01-02T11:58:33.000Z</time>
      </trkpt>
      <trkpt lat="47.22561" lon="-1.48848">
        <ele>54</ele>
        <time>2021-01-02T11:58:35.000Z</time>
      </trkpt>
      <trkpt lat="47.22567" lon="-1.48829">
        <ele>53</ele>
        <time>2021-01-02T11:58:37.000Z</time>
      </trkpt>
      <trkpt lat="47.22574" lon="-1.48812">
        <ele>53</ele>
        <time>2021-01-02T11:58:39.000Z</time>
      </trkpt>
      <trkpt lat="47.22581" lon="-1.48796">
        <ele>53</ele>
        <time>2021-01-02T11:58:41.000Z</time>
      </trkpt>
      <trkpt lat="47.22587" lon="-1.48777">
        <ele>53</ele>
        <time>2021-01-02T11:58:43.000Z</time>
      </trkpt>
      <trkpt lat="47.22592" lon="-1.48759">
        <ele>53</ele>
        <time>2021-01-02T11:58:45.000Z</time>
      </trkpt>
      <trkpt lat="47.22597" lon="-1.48741">
        <ele>54</ele>
        <time>2021-01-02T11:58:47.000Z</time>
      </trkpt>
      <trkpt lat="47.22602" lon="-1.48722">
        <ele>54</ele>
        <time>2021-01-02T11:58:49.000Z</time>
      </trkpt>
      <trkpt lat="47.22607" lon="-1.48704">
        <ele>54</ele>
        <time>2021-01-02T11:58:51.000Z</time>
      </trkpt>
      <trkpt lat="47.22612" lon="-1.48686">
        <ele>55</ele>
        <time>2021-01-02T11:58:53.000Z</time>
      </trkpt>
      <trkpt lat="47.22618" lon="-1.48668">
        <ele>55</ele>
        <time>2021-01-02T11:58:55.000Z</time>
      </trkpt>
      <trkpt lat="47.22623" lon="-1.4865">
        <ele>55</ele>
        <time>2021-01-02T11:58:57.000Z</time>
      </trkpt>
      <trkpt lat="47.22629" lon="-1.48633">
        <ele>56</ele>
        <time>2021-01-02T11:58:59.000Z</time>
      </trkpt>
      <trkpt lat="47.22635" lon="-1.48616">
        <ele>56</ele>
        <time>2021-01-02T11:59:01.000Z</time>
      </trkpt>
      <trkpt lat="47.22641" lon="-1.48597">
        <ele>56</ele>
        <time>2021-01-02T11:59:03.000Z</time>
      </trkpt>
      <trkpt lat="47.22648" lon="-1.48582">
        <ele>56</ele>
        <time>2021-01-02T11:59:05.000Z</time>
      </trkpt>
      <trkpt lat="47.22655" lon="-1.48564">
        <ele>56</ele>
        <time>2021-01-02T11:59:07.000Z</time>
      </trkpt>
      <trkpt lat="47.2266" lon="-1.48545">
        <ele>56</ele>
        <time>2021-01-02T11:59:09.000Z</time>
      </trkpt>
      <trkpt lat="47.22665" lon="-1.48527">
        <ele>56</ele>
        <time>2021-01-02T11:59:11.000Z</time>
      </trkpt>
      <trkpt lat="47.22671" lon="-1.48509">
        <ele>57</ele>
        <time>2021-01-02T11:59:13.000Z</time>
      </trkpt>
      <trkpt lat="47.22677" lon="-1.48492">
        <ele>57</ele>
        <time>2021-01-02T11:59:15.000Z</time>
      </trkpt>
      <trkpt lat="47.22684" lon="-1.48476">
        <ele>57</ele>
        <time>2021-01-02T11:59:17.000Z</time>
      </trkpt>
      <trkpt lat="47.22691" lon="-1.4846">
        <ele>56</ele>
        <time>2021-01-02T11:59:19.000Z</time>
      </trkpt>
      <trkpt lat="47.22698" lon="-1.48443">
        <ele>56</ele>
        <time>2021-01-02T11:59:21.000Z</time>
      </trkpt>
      <trkpt lat="47.22703" lon="-1.48426">
        <ele>56</ele>
        <time>2021-01-02T11:59:23.000Z</time>
      </trkpt>
      <trkpt lat="47.2271" lon="-1.48409">
        <ele>56</ele>
        <time>2021-01-02T11:59:25.000Z</time>
      </trkpt>
      <trkpt lat="47.22719" lon="-1.48395">
        <ele>56</ele>
        <time>2021-01-02T11:59:27.000Z</time>
      </trkpt>
      <trkpt lat="47.2273" lon="-1.48384">
        <ele>56</ele>
        <time>2021-01-02T11:59:29.000Z</time>
      </trkpt>
      <trkpt lat="47.22739" lon="-1.48371">
        <ele>56</ele>
        <time>2021-01-02T11:59:31.000Z</time>
      </trkpt>
      <trkpt lat="47.22749" lon="-1.48358">
        <ele>56</ele>
        <time>2021-01-02T11:59:33.000Z</time>
      </trkpt>
      <trkpt lat="47.22759" lon="-1.48343">
        <ele>56</ele>
        <time>2021-01-02T11:59:35.000Z</time>
      </trkpt>
      <trkpt lat="47.22768" lon="-1.4833">
        <ele>55</ele>
        <time>2021-01-02T11:59:37.000Z</time>
      </trkpt>
      <trkpt lat="47.22778" lon="-1.48315">
        <ele>55</ele>
        <time>2021-01-02T11:59:39.000Z</time>
      </trkpt>
      <trkpt lat="47.22787" lon="-1.48301">
        <ele>55</ele>
        <time>2021-01-02T11:59:41.000Z</time>
      </trkpt>
      <trkpt lat="47.22796" lon="-1.48286">
        <ele>56</ele>
        <time>2021-01-02T11:59:43.000Z</time>
      </trkpt>
      <trkpt lat="47.22805" lon="-1.48272">
        <ele>56</ele>
        <time>2021-01-02T11:59:45.000Z</time>
      </trkpt>
      <trkpt lat="47.22814" lon="-1.48257">
        <ele>56</ele>
        <time>2021-01-02T11:59:47.000Z</time>
      </trkpt>
      <trkpt lat="47.22824" lon="-1.48244">
        <ele>57</ele>
        <time>2021-01-02T11:59:49.000Z</time>
      </trkpt>
      <trkpt lat="47.22833" lon="-1.4823">
        <ele>57</ele>
        <time>2021-01-02T11:59:51.000Z</time>
      </trkpt>
      <trkpt lat="47.22842" lon="-1.48215">
        <ele>57</ele>
        <time>2021-01-02T11:59:53.000Z</time>
      </trkpt>
      <trkpt lat="47.22851" lon="-1.48201">
        <ele>57</ele>
        <time>2021-01-02T11:59:55.000Z</time>
      </trkpt>
      <trkpt lat="47.2286" lon="-1.48187">
        <ele>57</ele>
        <time>2021-01-02T11:59:57.000Z</time>
      </trkpt>
      <trkpt lat="47.22869" lon="-1.48172">
        <ele>57</ele>
        <time>2021-01-02T11:59:59.000Z</time>
      </trkpt>
      <trkpt lat="47.22878" lon="-1.48157">
        <ele>57</ele>
        <time>2021-01-02T12:00:01.000Z</time>
      </trkpt>
      <trkpt lat="47.22888" lon="-1.48143">
        <ele>56</ele>
        <time>2021-01-02T12:00:03.000Z</time>
      </trkpt>
      <trkpt lat="47.22898" lon="-1.4813">
        <ele>56</ele>
        <time>2021-01-02T12:00:05.000Z</time>
      </trkpt>
      <trkpt lat="47.22908" lon="-1.48119">
        <ele>56</ele>
        <time>2021-01-02T12:00:07.000Z</time>
      </trkpt>
      <trkpt lat="47.22919" lon="-1.48111">
        <ele>56</ele>
        <time>2021-01-02T12:00:09.000Z</time>
      </trkpt>
      <trkpt lat="47.22931" lon="-1.48107">
        <ele>56</ele>
        <time>2021-01-02T12:00:11.000Z</time>
      </trkpt>
      <trkpt lat="47.22943" lon="-1.48105">
        <ele>55</ele>
        <time>2021-01-02T12:00:13.000Z</time>
      </trkpt>
      <trkpt lat="47.22953" lon="-1.48099">
        <ele>55</ele>
        <time>2021-01-02T12:00:15.000Z</time>
      </trkpt>
      <trkpt lat="47.2296" lon="-1.48086">
        <ele>55</ele>
        <time>2021-01-02T12:00:17.000Z</time>
      </trkpt>
      <trkpt lat="47.22968" lon="-1.48074">
        <ele>55</ele>
        <time>2021-01-02T12:00:19.000Z</time>
      </trkpt>
      <trkpt lat="47.22978" lon="-1.48062">
        <ele>54</ele>
        <time>2021-01-02T12:00:21.000Z</time>
      </trkpt>
      <trkpt lat="47.22987" lon="-1.48046">
        <ele>54</ele>
        <time>2021-01-02T12:00:23.000Z</time>
      </trkpt>
      <trkpt lat="47.22995" lon="-1.48029">
        <ele>54</ele>
        <time>2021-01-02T12:00:25.000Z</time>
      </trkpt>
      <trkpt lat="47.23005" lon="-1.48013">
        <ele>54</ele>
        <time>2021-01-02T12:00:27.000Z</time>
      </trkpt>
      <trkpt lat="47.23014" lon="-1.47997">
        <ele>53</ele>
        <time>2021-01-02T12:00:29.000Z</time>
      </trkpt>
      <trkpt lat="47.23023" lon="-1.47982">
        <ele>53</ele>
        <time>2021-01-02T12:00:31.000Z</time>
      </trkpt>
      <trkpt lat="47.23033" lon="-1.47969">
        <ele>53</ele>
        <time>2021-01-02T12:00:33.000Z</time>
      </trkpt>
      <trkpt lat="47.23043" lon="-1.47955">
        <ele>54</ele>
        <time>2021-01-02T12:00:35.000Z</time>
      </trkpt>
      <trkpt lat="47.23053" lon="-1.47942">
        <ele>54</ele>
        <time>2021-01-02T12:00:37.000Z</time>
      </trkpt>
      <trkpt lat="47.23063" lon="-1.47928">
        <ele>53</ele>
        <time>2021-01-02T12:00:39.000Z</time>
      </trkpt>
      <trkpt lat="47.23073" lon="-1.47915">
        <ele>53</ele>
        <time>2021-01-02T12:00:41.000Z</time>
      </trkpt>
      <trkpt lat="47.23084" lon="-1.47901">
        <ele>54</ele>
        <time>2021-01-02T12:00:43.000Z</time>
      </trkpt>
      <trkpt lat="47.23095" lon="-1.47888">
        <ele>54</ele>
        <time>2021-01-02T12:00:45.000Z</time>
      </trkpt>
      <trkpt lat="47.23106" lon="-1.47875">
        <ele>55</ele>
        <time>2021-01-02T12:00:47.000Z</time>
      </trkpt>
      <trkpt lat="47.23114" lon="-1.4786">
        <ele>55</ele>
        <time>2021-01-02T12:00:49.000Z</time>
      </trkpt>
      <trkpt lat="47.23122" lon="-1.47845">
        <ele>55</ele>
        <time>2021-01-02T12:00:51.000Z</time>
      </trkpt>
      <trkpt lat="47.2313" lon="-1.47829">
        <ele>55</ele>
        <time>2021-01-02T12:00:53.000Z</time>
      </trkpt>
      <trkpt lat="47.23138" lon="-1.47811">
        <ele>55</ele>
        <time>2021-01-02T12:00:55.000Z</time>
      </trkpt>
      <trkpt lat="47.23144" lon="-1.47794">
        <ele>55</ele>
        <time>2021-01-02T12:00:57.000Z</time>
      </trkpt>
      <trkpt lat="47.2315" lon="-1.47776">
        <ele>55</ele>
        <time>2021-01-02T12:00:59.000Z</time>
      </trkpt>
      <trkpt lat="47.23156" lon="-1.47759">
        <ele>54</ele>
        <time>2021-01-02T12:01:01.000Z</time>
      </trkpt>
      <trkpt lat="47.23163" lon="-1.47743">
        <ele>55</ele>
        <time>2021-01-02T12:01:03.000Z</time>
      </trkpt>
      <trkpt lat="47.23171" lon="-1.47726">
        <ele>55</ele>
        <time>2021-01-02T12:01:05.000Z</time>
      </trkpt>
      <trkpt lat="47.23177" lon="-1.4771">
        <ele>55</ele>
        <time>2021-01-02T12:01:07.000Z</time>
      </trkpt>
      <trkpt lat="47.23184" lon="-1.47694">
        <ele>55</ele>
        <time>2021-01-02T12:01:09.000Z</time>
      </trkpt>
      <trkpt lat="47.23191" lon="-1.47679">
        <ele>55</ele>
        <time>2021-01-02T12:01:11.000Z</time>
      </trkpt>
      <trkpt lat="47.23199" lon="-1.47662">
        <ele>55</ele>
        <time>2021-01-02T12:01:13.000Z</time>
      </trkpt>
      <trkpt lat="47.23205" lon="-1.47646">
        <ele>56</ele>
        <time>2021-01-02T12:01:15.000Z</time>
      </trkpt>
      <trkpt lat="47.23212" lon="-1.47629">
        <ele>56</ele>
        <time>2021-01-02T12:01:17.000Z</time>
      </trkpt>
      <trkpt lat="47.23219" lon="-1.47613">
        <ele>56</ele>
        <time>2021-01-02T12:01:19.000Z</time>
      </trkpt>
      <trkpt lat="47.23226" lon="-1.47598">
        <ele>56</ele>
        <time>2021-01-02T12:01:21.000Z</time>
      </trkpt>
      <trkpt lat="47.23234" lon="-1.47583">
        <ele>56</ele>
        <time>2021-01-02T12:01:23.000Z</time>
      </trkpt>
      <trkpt lat="47.23242" lon="-1.47567">
        <ele>56</ele>
        <time>2021-01-02T12:01:25.000Z</time>
      </trkpt>
      <trkpt lat="47.2325" lon="-1.47552">
        <ele>56</ele>
        <time>2021-01-02T12:01:27.000Z</time>
      </trkpt>
      <trkpt lat="47.23259" lon="-1.47537">
        <ele>56</ele>
        <time>2021-01-02T12:01:29.000Z</time>
      </trkpt>
      <trkpt lat="47.23268" lon="-1.47524">
        <ele>57</ele>
        <time>2021-01-02T12:01:31.000Z</time>
      </trkpt>
      <trkpt lat="47.23279" lon="-1.47515">
        <ele>58</ele>
        <time>2021-01-02T12:01:33.000Z</time>
      </trkpt>
      <trkpt lat="47.2329" lon="-1.47507">
        <ele>58</ele>
        <time>2021-01-02T12:01:35.000Z</time>
      </trkpt>
      <trkpt lat="47.23302" lon="-1.47501">
        <ele>58</ele>
        <time>2021-01-02T12:01:37.000Z</time>
      </trkpt>
      <trkpt lat="47.23314" lon="-1.47494">
        <ele>57</ele>
        <time>2021-01-02T12:01:39.000Z</time>
      </trkpt>
      <trkpt lat="47.23324" lon="-1.47485">
        <ele>57</ele>
        <time>2021-01-02T12:01:41.000Z</time>
      </trkpt>
      <trkpt lat="47.23336" lon="-1.47476">
        <ele>57</ele>
        <time>2021-01-02T12:01:43.000Z</time>
      </trkpt>
      <trkpt lat="47.23348" lon="-1.47467">
        <ele>56</ele>
        <time>2021-01-02T12:01:45.000Z</time>
      </trkpt>
      <trkpt lat="47.23362" lon="-1.47464">
        <ele>55</ele>
        <time>2021-01-02T12:01:47.000Z</time>
      </trkpt>
      <trkpt lat="47.23374" lon="-1.4746">
        <ele>55</ele>
        <time>2021-01-02T12:01:49.000Z</time>
      </trkpt>
      <trkpt lat="47.23387" lon="-1.47453">
        <ele>55</ele>
        <time>2021-01-02T12:01:51.000Z</time>
      </trkpt>
      <trkpt lat="47.23398" lon="-1.47446">
        <ele>55</ele>
        <time>2021-01-02T12:01:53.000Z</time>
      </trkpt>
      <trkpt lat="47.23408" lon="-1.47441">
        <ele>55</ele>
        <time>2021-01-02T12:01:55.000Z</time>
      </trkpt>
      <trkpt lat="47.23421" lon="-1.47444">
        <ele>55</ele>
        <time>2021-01-02T12:01:58.000Z</time>
      </trkpt>
      <trkpt lat="47.23429" lon="-1.47457">
        <ele>55</ele>
        <time>2021-01-02T12:02:00.000Z</time>
      </trkpt>
      <trkpt lat="47.23438" lon="-1.4747">
        <ele>55</ele>
        <time>2021-01-02T12:02:02.000Z</time>
      </trkpt>
      <trkpt lat="47.23447" lon="-1.47483">
        <ele>54</ele>
        <time>2021-01-02T12:02:04.000Z</time>
      </trkpt>
      <trkpt lat="47.23457" lon="-1.47497">
        <ele>54</ele>
        <time>2021-01-02T12:02:06.000Z</time>
      </trkpt>
      <trkpt lat="47.23466" lon="-1.47512">
        <ele>54</ele>
        <time>2021-01-02T12:02:08.000Z</time>
      </trkpt>
      <trkpt lat="47.23476" lon="-1.47526">
        <ele>54</ele>
        <time>2021-01-02T12:02:10.000Z</time>
      </trkpt>
      <trkpt lat="47.23485" lon="-1.4754">
        <ele>53</ele>
        <time>2021-01-02T12:02:12.000Z</time>
      </trkpt>
      <trkpt lat="47.23495" lon="-1.47554">
        <ele>53</ele>
        <time>2021-01-02T12:02:14.000Z</time>
      </trkpt>
      <trkpt lat="47.23503" lon="-1.47569">
        <ele>53</ele>
        <time>2021-01-02T12:02:16.000Z</time>
      </trkpt>
      <trkpt lat="47.23512" lon="-1.47585">
        <ele>53</ele>
        <time>2021-01-02T12:02:18.000Z</time>
      </trkpt>
      <trkpt lat="47.23521" lon="-1.476">
        <ele>53</ele>
        <time>2021-01-02T12:02:20.000Z</time>
      </trkpt>
      <trkpt lat="47.2353" lon="-1.47615">
        <ele>53</ele>
        <time>2021-01-02T12:02:22.000Z</time>
      </trkpt>
      <trkpt lat="47.23539" lon="-1.47629">
        <ele>54</ele>
        <time>2021-01-02T12:02:24.000Z</time>
      </trkpt>
      <trkpt lat="47.23548" lon="-1.47643">
        <ele>54</ele>
        <time>2021-01-02T12:02:26.000Z</time>
      </trkpt>
      <trkpt lat="47.23558" lon="-1.47657">
        <ele>54</ele>
        <time>2021-01-02T12:02:28.000Z</time>
      </trkpt>
      <trkpt lat="47.23567" lon="-1.47671">
        <ele>55</ele>
        <time>2021-01-02T12:02:30.000Z</time>
      </trkpt>
      <trkpt lat="47.23576" lon="-1.47684">
        <ele>55</ele>
        <time>2021-01-02T12:02:32.000Z</time>
      </trkpt>
      <trkpt lat="47.23587" lon="-1.47695">
        <ele>55</ele>
        <time>2021-01-02T12:02:34.000Z</time>
      </trkpt>
      <trkpt lat="47.23599" lon="-1.47702">
        <ele>54</ele>
        <time>2021-01-02T12:02:36.000Z</time>
      </trkpt>
      <trkpt lat="47.23612" lon="-1.4771">
        <ele>54</ele>
        <time>2021-01-02T12:02:38.000Z</time>
      </trkpt>
      <trkpt lat="47.23624" lon="-1.47717">
        <ele>53</ele>
        <time>2021-01-02T12:02:40.000Z</time>
      </trkpt>
      <trkpt lat="47.23637" lon="-1.47724">
        <ele>52</ele>
        <time>2021-01-02T12:02:42.000Z</time>
      </trkpt>
      <trkpt lat="47.23649" lon="-1.47731">
        <ele>52</ele>
        <time>2021-01-02T12:02:44.000Z</time>
      </trkpt>
      <trkpt lat="47.23662" lon="-1.47739">
        <ele>52</ele>
        <time>2021-01-02T12:02:46.000Z</time>
      </trkpt>
      <trkpt lat="47.23674" lon="-1.47746">
        <ele>52</ele>
        <time>2021-01-02T12:02:48.000Z</time>
      </trkpt>
      <trkpt lat="47.23686" lon="-1.4775">
        <ele>52</ele>
        <time>2021-01-02T12:02:50.000Z</time>
      </trkpt>
      <trkpt lat="47.23699" lon="-1.4775">
        <ele>53</ele>
        <time>2021-01-02T12:02:52.000Z</time>
      </trkpt>
      <trkpt lat="47.23711" lon="-1.47744">
        <ele>53</ele>
        <time>2021-01-02T12:02:54.000Z</time>
      </trkpt>
      <trkpt lat="47.23722" lon="-1.47735">
        <ele>53</ele>
        <time>2021-01-02T12:02:56.000Z</time>
      </trkpt>
      <trkpt lat="47.23733" lon="-1.47722">
        <ele>53</ele>
        <time>2021-01-02T12:02:58.000Z</time>
      </trkpt>
      <trkpt lat="47.23742" lon="-1.4771">
        <ele>53</ele>
        <time>2021-01-02T12:03:00.000Z</time>
      </trkpt>
      <trkpt lat="47.23752" lon="-1.47699">
        <ele>53</ele>
        <time>2021-01-02T12:03:02.000Z</time>
      </trkpt>
      <trkpt lat="47.23762" lon="-1.47688">
        <ele>53</ele>
        <time>2021-01-02T12:03:04.000Z</time>
      </trkpt>
      <trkpt lat="47.23773" lon="-1.47679">
        <ele>53</ele>
        <time>2021-01-02T12:03:06.000Z</time>
      </trkpt>
      <trkpt lat="47.23784" lon="-1.47673">
        <ele>53</ele>
        <time>2021-01-02T12:03:08.000Z</time>
      </trkpt>
      <trkpt lat="47.23795" lon="-1.47664">
        <ele>53</ele>
        <time>2021-01-02T12:03:10.000Z</time>
      </trkpt>
      <trkpt lat="47.23804" lon="-1.47653">
        <ele>53</ele>
        <time>2021-01-02T12:03:12.000Z</time>
      </trkpt>
      <trkpt lat="47.23816" lon="-1.47648">
        <ele>52</ele>
        <time>2021-01-02T12:03:14.000Z</time>
      </trkpt>
      <trkpt lat="47.23829" lon="-1.47645">
        <ele>53</ele>
        <time>2021-01-02T12:03:16.000Z</time>
      </trkpt>
      <trkpt lat="47.23842" lon="-1.47641">
        <ele>53</ele>
        <time>2021-01-02T12:03:18.000Z</time>
      </trkpt>
      <trkpt lat="47.23855" lon="-1.47635">
        <ele>53</ele>
        <time>2021-01-02T12:03:20.000Z</time>
      </trkpt>
      <trkpt lat="47.23867" lon="-1.47629">
        <ele>53</ele>
        <time>2021-01-02T12:03:22.000Z</time>
      </trkpt>
      <trkpt lat="47.23879" lon="-1.47625">
        <ele>54</ele>
        <time>2021-01-02T12:03:24.000Z</time>
      </trkpt>
      <trkpt lat="47.23892" lon="-1.47624">
        <ele>54</ele>
        <time>2021-01-02T12:03:26.000Z</time>
      </trkpt>
      <trkpt lat="47.23905" lon="-1.47625">
        <ele>55</ele>
        <time>2021-01-02T12:03:28.000Z</time>
      </trkpt>
      <trkpt lat="47.23918" lon="-1.47629">
        <ele>55</ele>
        <time>2021-01-02T12:03:30.000Z</time>
      </trkpt>
      <trkpt lat="47.23931" lon="-1.47635">
        <ele>56</ele>
        <time>2021-01-02T12:03:32.000Z</time>
      </trkpt>
      <trkpt lat="47.23944" lon="-1.47645">
        <ele>56</ele>
        <time>2021-01-02T12:03:34.000Z</time>
      </trkpt>
      <trkpt lat="47.23955" lon="-1.47657">
        <ele>55</ele>
        <time>2021-01-02T12:03:36.000Z</time>
      </trkpt>
      <trkpt lat="47.23964" lon="-1.47672">
        <ele>55</ele>
        <time>2021-01-02T12:03:38.000Z</time>
      </trkpt>
      <trkpt lat="47.23973" lon="-1.47689">
        <ele>56</ele>
        <time>2021-01-02T12:03:40.000Z</time>
      </trkpt>
      <trkpt lat="47.23981" lon="-1.47705">
        <ele>55</ele>
        <time>2021-01-02T12:03:42.000Z</time>
      </trkpt>
      <trkpt lat="47.23988" lon="-1.47722">
        <ele>56</ele>
        <time>2021-01-02T12:03:44.000Z</time>
      </trkpt>
      <trkpt lat="47.23995" lon="-1.47739">
        <ele>56</ele>
        <time>2021-01-02T12:03:46.000Z</time>
      </trkpt>
      <trkpt lat="47.24001" lon="-1.47756">
        <ele>56</ele>
        <time>2021-01-02T12:03:48.000Z</time>
      </trkpt>
      <trkpt lat="47.24009" lon="-1.47772">
        <ele>56</ele>
        <time>2021-01-02T12:03:50.000Z</time>
      </trkpt>
      <trkpt lat="47.24018" lon="-1.47789">
        <ele>56</ele>
        <time>2021-01-02T12:03:52.000Z</time>
      </trkpt>
      <trkpt lat="47.24024" lon="-1.47804">
        <ele>58</ele>
        <time>2021-01-02T12:03:54.000Z</time>
      </trkpt>
      <trkpt lat="47.24032" lon="-1.47818">
        <ele>57</ele>
        <time>2021-01-02T12:03:56.000Z</time>
      </trkpt>
      <trkpt lat="47.24038" lon="-1.47834">
        <ele>57</ele>
        <time>2021-01-02T12:03:58.000Z</time>
      </trkpt>
      <trkpt lat="47.24045" lon="-1.47851">
        <ele>57</ele>
        <time>2021-01-02T12:04:00.000Z</time>
      </trkpt>
      <trkpt lat="47.24051" lon="-1.47868">
        <ele>58</ele>
        <time>2021-01-02T12:04:02.000Z</time>
      </trkpt>
      <trkpt lat="47.24056" lon="-1.47885">
        <ele>58</ele>
        <time>2021-01-02T12:04:04.000Z</time>
      </trkpt>
      <trkpt lat="47.24062" lon="-1.47903">
        <ele>58</ele>
        <time>2021-01-02T12:04:06.000Z</time>
      </trkpt>
      <trkpt lat="47.24068" lon="-1.4792">
        <ele>57</ele>
        <time>2021-01-02T12:04:08.000Z</time>
      </trkpt>
      <trkpt lat="47.24073" lon="-1.47938">
        <ele>56</ele>
        <time>2021-01-02T12:04:10.000Z</time>
      </trkpt>
      <trkpt lat="47.24078" lon="-1.47956">
        <ele>56</ele>
        <time>2021-01-02T12:04:12.000Z</time>
      </trkpt>
      <trkpt lat="47.24083" lon="-1.47974">
        <ele>56</ele>
        <time>2021-01-02T12:04:14.000Z</time>
      </trkpt>
      <trkpt lat="47.2409" lon="-1.47992">
        <ele>55</ele>
        <time>2021-01-02T12:04:16.000Z</time>
      </trkpt>
      <trkpt lat="47.24097" lon="-1.48011">
        <ele>54</ele>
        <time>2021-01-02T12:04:18.000Z</time>
      </trkpt>
      <trkpt lat="47.24105" lon="-1.4803">
        <ele>53</ele>
        <time>2021-01-02T12:04:20.000Z</time>
      </trkpt>
      <trkpt lat="47.24114" lon="-1.48046">
        <ele>53</ele>
        <time>2021-01-02T12:04:22.000Z</time>
      </trkpt>
      <trkpt lat="47.24124" lon="-1.48061">
        <ele>54</ele>
        <time>2021-01-02T12:04:24.000Z</time>
      </trkpt>
      <trkpt lat="47.24134" lon="-1.48073">
        <ele>54</ele>
        <time>2021-01-02T12:04:26.000Z</time>
      </trkpt>
      <trkpt lat="47.24143" lon="-1.48086">
        <ele>54</ele>
        <time>2021-01-02T12:04:28.000Z</time>
      </trkpt>
      <trkpt lat="47.24152" lon="-1.48098">
        <ele>54</ele>
        <time>2021-01-02T12:04:30.000Z</time>
      </trkpt>
      <trkpt lat="47.2416" lon="-1.48109">
        <ele>54</ele>
        <time>2021-01-02T12:04:32.000Z</time>
      </trkpt>
      <trkpt lat="47.24169" lon="-1.48119">
        <ele>54</ele>
        <time>2021-01-02T12:04:34.000Z</time>
      </trkpt>
      <trkpt lat="47.24179" lon="-1.48128">
        <ele>54</ele>
        <time>2021-01-02T12:04:36.000Z</time>
      </trkpt>
      <trkpt lat="47.24189" lon="-1.48136">
        <ele>54</ele>
        <time>2021-01-02T12:04:38.000Z</time>
      </trkpt>
      <trkpt lat="47.24199" lon="-1.48145">
        <ele>54</ele>
        <time>2021-01-02T12:04:40.000Z</time>
      </trkpt>
      <trkpt lat="47.2421" lon="-1.48153">
        <ele>54</ele>
        <time>2021-01-02T12:04:42.000Z</time>
      </trkpt>
      <trkpt lat="47.2422" lon="-1.48159">
        <ele>54</ele>
        <time>2021-01-02T12:04:44.000Z</time>
      </trkpt>
      <trkpt lat="47.24232" lon="-1.48167">
        <ele>54</ele>
        <time>2021-01-02T12:04:46.000Z</time>
      </trkpt>
      <trkpt lat="47.24243" lon="-1.48174">
        <ele>53</ele>
        <time>2021-01-02T12:04:48.000Z</time>
      </trkpt>
      <trkpt lat="47.24255" lon="-1.4818">
        <ele>54</ele>
        <time>2021-01-02T12:04:50.000Z</time>
      </trkpt>
      <trkpt lat="47.24266" lon="-1.48188">
        <ele>54</ele>
        <time>2021-01-02T12:04:52.000Z</time>
      </trkpt>
      <trkpt lat="47.24278" lon="-1.48196">
        <ele>54</ele>
        <time>2021-01-02T12:04:54.000Z</time>
      </trkpt>
      <trkpt lat="47.24289" lon="-1.48204">
        <ele>54</ele>
        <time>2021-01-02T12:04:56.000Z</time>
      </trkpt>
      <trkpt lat="47.243" lon="-1.48213">
        <ele>54</ele>
        <time>2021-01-02T12:04:58.000Z</time>
      </trkpt>
      <trkpt lat="47.2431" lon="-1.48222">
        <ele>54</ele>
        <time>2021-01-02T12:05:00.000Z</time>
      </trkpt>
      <trkpt lat="47.24321" lon="-1.48232">
        <ele>54</ele>
        <time>2021-01-02T12:05:02.000Z</time>
      </trkpt>
      <trkpt lat="47.2433" lon="-1.48241">
        <ele>55</ele>
        <time>2021-01-02T12:05:04.000Z</time>
      </trkpt>
      <trkpt lat="47.24341" lon="-1.48246">
        <ele>55</ele>
        <time>2021-01-02T12:05:06.000Z</time>
      </trkpt>
      <trkpt lat="47.24352" lon="-1.48252">
        <ele>55</ele>
        <time>2021-01-02T12:05:08.000Z</time>
      </trkpt>
      <trkpt lat="47.24361" lon="-1.48267">
        <ele>54</ele>
        <time>2021-01-02T12:05:10.000Z</time>
      </trkpt>
      <trkpt lat="47.24368" lon="-1.48281">
        <ele>54</ele>
        <time>2021-01-02T12:05:12.000Z</time>
      </trkpt>
      <trkpt lat="47.24376" lon="-1.48295">
        <ele>55</ele>
        <time>2021-01-02T12:05:14.000Z</time>
      </trkpt>
      <trkpt lat="47.24386" lon="-1.48308">
        <ele>55</ele>
        <time>2021-01-02T12:05:16.000Z</time>
      </trkpt>
      <trkpt lat="47.24396" lon="-1.4832">
        <ele>56</ele>
        <time>2021-01-02T12:05:18.000Z</time>
      </trkpt>
      <trkpt lat="47.24405" lon="-1.48332">
        <ele>56</ele>
        <time>2021-01-02T12:05:20.000Z</time>
      </trkpt>
      <trkpt lat="47.24415" lon="-1.48344">
        <ele>56</ele>
        <time>2021-01-02T12:05:22.000Z</time>
      </trkpt>
      <trkpt lat="47.24424" lon="-1.48353">
        <ele>57</ele>
        <time>2021-01-02T12:05:24.000Z</time>
      </trkpt>
      <trkpt lat="47.24435" lon="-1.4836">
        <ele>56</ele>
        <time>2021-01-02T12:05:26.000Z</time>
      </trkpt>
      <trkpt lat="47.24446" lon="-1.48366">
        <ele>56</ele>
        <time>2021-01-02T12:05:28.000Z</time>
      </trkpt>
      <trkpt lat="47.24458" lon="-1.48371">
        <ele>56</ele>
        <time>2021-01-02T12:05:30.000Z</time>
      </trkpt>
      <trkpt lat="47.24469" lon="-1.48378">
        <ele>56</ele>
        <time>2021-01-02T12:05:32.000Z</time>
      </trkpt>
      <trkpt lat="47.2448" lon="-1.48386">
        <ele>56</ele>
        <time>2021-01-02T12:05:34.000Z</time>
      </trkpt>
      <trkpt lat="47.24492" lon="-1.48393">
        <ele>55</ele>
        <time>2021-01-02T12:05:36.000Z</time>
      </trkpt>
      <trkpt lat="47.24503" lon="-1.48399">
        <ele>55</ele>
        <time>2021-01-02T12:05:38.000Z</time>
      </trkpt>
      <trkpt lat="47.24514" lon="-1.48408">
        <ele>54</ele>
        <time>2021-01-02T12:05:40.000Z</time>
      </trkpt>
      <trkpt lat="47.24525" lon="-1.48417">
        <ele>54</ele>
        <time>2021-01-02T12:05:42.000Z</time>
      </trkpt>
      <trkpt lat="47.24536" lon="-1.48427">
        <ele>54</ele>
        <time>2021-01-02T12:05:44.000Z</time>
      </trkpt>
      <trkpt lat="47.24546" lon="-1.48439">
        <ele>54</ele>
        <time>2021-01-02T12:05:46.000Z</time>
      </trkpt>
      <trkpt lat="47.24556" lon="-1.4845">
        <ele>54</ele>
        <time>2021-01-02T12:05:48.000Z</time>
      </trkpt>
      <trkpt lat="47.24565" lon="-1.4846">
        <ele>54</ele>
        <time>2021-01-02T12:05:50.000Z</time>
      </trkpt>
      <trkpt lat="47.24575" lon="-1.48471">
        <ele>53</ele>
        <time>2021-01-02T12:05:52.000Z</time>
      </trkpt>
      <trkpt lat="47.24584" lon="-1.48482">
        <ele>54</ele>
        <time>2021-01-02T12:05:54.000Z</time>
      </trkpt>
      <trkpt lat="47.24593" lon="-1.48493">
        <ele>54</ele>
        <time>2021-01-02T12:05:56.000Z</time>
      </trkpt>
      <trkpt lat="47.24603" lon="-1.48504">
        <ele>54</ele>
        <time>2021-01-02T12:05:58.000Z</time>
      </trkpt>
      <trkpt lat="47.24612" lon="-1.48515">
        <ele>54</ele>
        <time>2021-01-02T12:06:00.000Z</time>
      </trkpt>
      <trkpt lat="47.24622" lon="-1.48526">
        <ele>55</ele>
        <time>2021-01-02T12:06:02.000Z</time>
      </trkpt>
      <trkpt lat="47.24631" lon="-1.48538">
        <ele>55</ele>
        <time>2021-01-02T12:06:04.000Z</time>
      </trkpt>
      <trkpt lat="47.2464" lon="-1.4855">
        <ele>56</ele>
        <time>2021-01-02T12:06:06.000Z</time>
      </trkpt>
      <trkpt lat="47.24651" lon="-1.4856">
        <ele>55</ele>
        <time>2021-01-02T12:06:08.000Z</time>
      </trkpt>
      <trkpt lat="47.24661" lon="-1.48569">
        <ele>56</ele>
        <time>2021-01-02T12:06:10.000Z</time>
      </trkpt>
      <trkpt lat="47.24671" lon="-1.48579">
        <ele>56</ele>
        <time>2021-01-02T12:06:12.000Z</time>
      </trkpt>
      <trkpt lat="47.24681" lon="-1.48589">
        <ele>56</ele>
        <time>2021-01-02T12:06:14.000Z</time>
      </trkpt>
      <trkpt lat="47.2469" lon="-1.48598">
        <ele>57</ele>
        <time>2021-01-02T12:06:16.000Z</time>
      </trkpt>
      <trkpt lat="47.247" lon="-1.48607">
        <ele>57</ele>
        <time>2021-01-02T12:06:18.000Z</time>
      </trkpt>
      <trkpt lat="47.24709" lon="-1.48616">
        <ele>57</ele>
        <time>2021-01-02T12:06:20.000Z</time>
      </trkpt>
      <trkpt lat="47.24719" lon="-1.48624">
        <ele>57</ele>
        <time>2021-01-02T12:06:22.000Z</time>
      </trkpt>
      <trkpt lat="47.24729" lon="-1.4863">
        <ele>58</ele>
        <time>2021-01-02T12:06:24.000Z</time>
      </trkpt>
      <trkpt lat="47.24739" lon="-1.48632">
        <ele>58</ele>
        <time>2021-01-02T12:06:26.000Z</time>
      </trkpt>
      <trkpt lat="47.24749" lon="-1.48629">
        <ele>59</ele>
        <time>2021-01-02T12:06:28.000Z</time>
      </trkpt>
      <trkpt lat="47.24759" lon="-1.48631">
        <ele>59</ele>
        <time>2021-01-02T12:06:30.000Z</time>
      </trkpt>
      <trkpt lat="47.24767" lon="-1.48641">
        <ele>59</ele>
        <time>2021-01-02T12:06:32.000Z</time>
      </trkpt>
      <trkpt lat="47.24776" lon="-1.48651">
        <ele>59</ele>
        <time>2021-01-02T12:06:35.000Z</time>
      </trkpt>
      <trkpt lat="47.24785" lon="-1.4865">
        <ele>60</ele>
        <time>2021-01-02T12:06:37.000Z</time>
      </trkpt>
      <trkpt lat="47.24796" lon="-1.48649">
        <ele>60</ele>
        <time>2021-01-02T12:06:39.000Z</time>
      </trkpt>
      <trkpt lat="47.24808" lon="-1.48648">
        <ele>61</ele>
        <time>2021-01-02T12:06:41.000Z</time>
      </trkpt>
      <trkpt lat="47.2482" lon="-1.48649">
        <ele>61</ele>
        <time>2021-01-02T12:06:43.000Z</time>
      </trkpt>
      <trkpt lat="47.24832" lon="-1.4865">
        <ele>61</ele>
        <time>2021-01-02T12:06:45.000Z</time>
      </trkpt>
      <trkpt lat="47.24844" lon="-1.48652">
        <ele>61</ele>
        <time>2021-01-02T12:06:47.000Z</time>
      </trkpt>
      <trkpt lat="47.24856" lon="-1.48655">
        <ele>61</ele>
        <time>2021-01-02T12:06:49.000Z</time>
      </trkpt>
      <trkpt lat="47.24867" lon="-1.48658">
        <ele>62</ele>
        <time>2021-01-02T12:06:51.000Z</time>
      </trkpt>
      <trkpt lat="47.24878" lon="-1.48661">
        <ele>63</ele>
        <time>2021-01-02T12:06:53.000Z</time>
      </trkpt>
      <trkpt lat="47.2489" lon="-1.48664">
        <ele>62</ele>
        <time>2021-01-02T12:06:55.000Z</time>
      </trkpt>
      <trkpt lat="47.24902" lon="-1.48667">
        <ele>62</ele>
        <time>2021-01-02T12:06:57.000Z</time>
      </trkpt>
      <trkpt lat="47.24913" lon="-1.48673">
        <ele>63</ele>
        <time>2021-01-02T12:06:59.000Z</time>
      </trkpt>
      <trkpt lat="47.24923" lon="-1.48678">
        <ele>63</ele>
        <time>2021-01-02T12:07:01.000Z</time>
      </trkpt>
      <trkpt lat="47.24933" lon="-1.48682">
        <ele>64</ele>
        <time>2021-01-02T12:07:03.000Z</time>
      </trkpt>
      <trkpt lat="47.24945" lon="-1.48685">
        <ele>63</ele>
        <time>2021-01-02T12:07:06.000Z</time>
      </trkpt>
      <trkpt lat="47.24957" lon="-1.48687">
        <ele>63</ele>
        <time>2021-01-02T12:07:09.000Z</time>
      </trkpt>
      <trkpt lat="47.24965" lon="-1.48696">
        <ele>63</ele>
        <time>2021-01-02T12:07:11.000Z</time>
      </trkpt>
      <trkpt lat="47.24972" lon="-1.48705">
        <ele>64</ele>
        <time>2021-01-02T12:07:13.000Z</time>
      </trkpt>
      <trkpt lat="47.24983" lon="-1.48709">
        <ele>65</ele>
        <time>2021-01-02T12:07:15.000Z</time>
      </trkpt>
      <trkpt lat="47.24995" lon="-1.48714">
        <ele>66</ele>
        <time>2021-01-02T12:07:17.000Z</time>
      </trkpt>
      <trkpt lat="47.25006" lon="-1.4872">
        <ele>66</ele>
        <time>2021-01-02T12:07:19.000Z</time>
      </trkpt>
      <trkpt lat="47.25017" lon="-1.48725">
        <ele>67</ele>
        <time>2021-01-02T12:07:21.000Z</time>
      </trkpt>
      <trkpt lat="47.25027" lon="-1.48732">
        <ele>68</ele>
        <time>2021-01-02T12:07:23.000Z</time>
      </trkpt>
      <trkpt lat="47.25039" lon="-1.48734">
        <ele>69</ele>
        <time>2021-01-02T12:07:25.000Z</time>
      </trkpt>
      <trkpt lat="47.25051" lon="-1.48738">
        <ele>69</ele>
        <time>2021-01-02T12:07:27.000Z</time>
      </trkpt>
      <trkpt lat="47.25062" lon="-1.4874">
        <ele>69</ele>
        <time>2021-01-02T12:07:29.000Z</time>
      </trkpt>
      <trkpt lat="47.25075" lon="-1.48742">
        <ele>68</ele>
        <time>2021-01-02T12:07:31.000Z</time>
      </trkpt>
      <trkpt lat="47.25087" lon="-1.48745">
        <ele>67</ele>
        <time>2021-01-02T12:07:33.000Z</time>
      </trkpt>
      <trkpt lat="47.25098" lon="-1.48747">
        <ele>66</ele>
        <time>2021-01-02T12:07:35.000Z</time>
      </trkpt>
      <trkpt lat="47.25109" lon="-1.48749">
        <ele>66</ele>
        <time>2021-01-02T12:07:37.000Z</time>
      </trkpt>
      <trkpt lat="47.25121" lon="-1.4875">
        <ele>66</ele>
        <time>2021-01-02T12:07:39.000Z</time>
      </trkpt>
      <trkpt lat="47.25133" lon="-1.48749">
        <ele>66</ele>
        <time>2021-01-02T12:07:41.000Z</time>
      </trkpt>
      <trkpt lat="47.25144" lon="-1.48747">
        <ele>66</ele>
        <time>2021-01-02T12:07:43.000Z</time>
      </trkpt>
      <trkpt lat="47.25155" lon="-1.48745">
        <ele>66</ele>
        <time>2021-01-02T12:07:45.000Z</time>
      </trkpt>
      <trkpt lat="47.25167" lon="-1.48742">
        <ele>66</ele>
        <time>2021-01-02T12:07:47.000Z</time>
      </trkpt>
      <trkpt lat="47.25179" lon="-1.48741">
        <ele>66</ele>
        <time>2021-01-02T12:07:49.000Z</time>
      </trkpt>
      <trkpt lat="47.2519" lon="-1.48738">
        <ele>67</ele>
        <time>2021-01-02T12:07:51.000Z</time>
      </trkpt>
      <trkpt lat="47.25202" lon="-1.48737">
        <ele>67</ele>
        <time>2021-01-02T12:07:53.000Z</time>
      </trkpt>
      <trkpt lat="47.25214" lon="-1.48735">
        <ele>67</ele>
        <time>2021-01-02T12:07:55.000Z</time>
      </trkpt>
      <trkpt lat="47.25225" lon="-1.48734">
        <ele>68</ele>
        <time>2021-01-02T12:07:57.000Z</time>
      </trkpt>
      <trkpt lat="47.25237" lon="-1.48733">
        <ele>68</ele>
        <time>2021-01-02T12:07:59.000Z</time>
      </trkpt>
      <trkpt lat="47.25248" lon="-1.48733">
        <ele>68</ele>
        <time>2021-01-02T12:08:01.000Z</time>
      </trkpt>
      <trkpt lat="47.2526" lon="-1.48734">
        <ele>68</ele>
        <time>2021-01-02T12:08:03.000Z</time>
      </trkpt>
      <trkpt lat="47.25272" lon="-1.48733">
        <ele>68</ele>
        <time>2021-01-02T12:08:05.000Z</time>
      </trkpt>
      <trkpt lat="47.25283" lon="-1.48731">
        <ele>68</ele>
        <time>2021-01-02T12:08:07.000Z</time>
      </trkpt>
      <trkpt lat="47.25294" lon="-1.48739">
        <ele>68</ele>
        <time>2021-01-02T12:08:09.000Z</time>
      </trkpt>
      <trkpt lat="47.25305" lon="-1.48749">
        <ele>69</ele>
        <time>2021-01-02T12:08:11.000Z</time>
      </trkpt>
      <trkpt lat="47.25317" lon="-1.48754">
        <ele>70</ele>
        <time>2021-01-02T12:08:13.000Z</time>
      </trkpt>
      <trkpt lat="47.2533" lon="-1.48758">
        <ele>69</ele>
        <time>2021-01-02T12:08:15.000Z</time>
      </trkpt>
      <trkpt lat="47.25342" lon="-1.48761">
        <ele>69</ele>
        <time>2021-01-02T12:08:17.000Z</time>
      </trkpt>
      <trkpt lat="47.25353" lon="-1.48764">
        <ele>70</ele>
        <time>2021-01-02T12:08:19.000Z</time>
      </trkpt>
      <trkpt lat="47.25365" lon="-1.48767">
        <ele>69</ele>
        <time>2021-01-02T12:08:21.000Z</time>
      </trkpt>
      <trkpt lat="47.25377" lon="-1.4877">
        <ele>69</ele>
        <time>2021-01-02T12:08:23.000Z</time>
      </trkpt>
      <trkpt lat="47.2539" lon="-1.48772">
        <ele>69</ele>
        <time>2021-01-02T12:08:25.000Z</time>
      </trkpt>
      <trkpt lat="47.25401" lon="-1.48774">
        <ele>69</ele>
        <time>2021-01-02T12:08:27.000Z</time>
      </trkpt>
      <trkpt lat="47.25412" lon="-1.48775">
        <ele>69</ele>
        <time>2021-01-02T12:08:29.000Z</time>
      </trkpt>
      <trkpt lat="47.25423" lon="-1.48776">
        <ele>69</ele>
        <time>2021-01-02T12:08:31.000Z</time>
      </trkpt>
      <trkpt lat="47.25435" lon="-1.48776">
        <ele>69</ele>
        <time>2021-01-02T12:08:33.000Z</time>
      </trkpt>
      <trkpt lat="47.25447" lon="-1.48776">
        <ele>69</ele>
        <time>2021-01-02T12:08:35.000Z</time>
      </trkpt>
      <trkpt lat="47.25459" lon="-1.48775">
        <ele>70</ele>
        <time>2021-01-02T12:08:37.000Z</time>
      </trkpt>
      <trkpt lat="47.2547" lon="-1.48774">
        <ele>70</ele>
        <time>2021-01-02T12:08:39.000Z</time>
      </trkpt>
      <trkpt lat="47.25482" lon="-1.48772">
        <ele>70</ele>
        <time>2021-01-02T12:08:41.000Z</time>
      </trkpt>
      <trkpt lat="47.25494" lon="-1.4877">
        <ele>71</ele>
        <time>2021-01-02T12:08:43.000Z</time>
      </trkpt>
      <trkpt lat="47.25505" lon="-1.48767">
        <ele>71</ele>
        <time>2021-01-02T12:08:45.000Z</time>
      </trkpt>
      <trkpt lat="47.25516" lon="-1.48764">
        <ele>72</ele>
        <time>2021-01-02T12:08:47.000Z</time>
      </trkpt>
      <trkpt lat="47.25528" lon="-1.48761">
        <ele>73</ele>
        <time>2021-01-02T12:08:49.000Z</time>
      </trkpt>
      <trkpt lat="47.25539" lon="-1.48758">
        <ele>73</ele>
        <time>2021-01-02T12:08:51.000Z</time>
      </trkpt>
      <trkpt lat="47.2555" lon="-1.48755">
        <ele>73</ele>
        <time>2021-01-02T12:08:53.000Z</time>
      </trkpt>
      <trkpt lat="47.25561" lon="-1.48751">
        <ele>74</ele>
        <time>2021-01-02T12:08:55.000Z</time>
      </trkpt>
      <trkpt lat="47.25571" lon="-1.48747">
        <ele>74</ele>
        <time>2021-01-02T12:08:57.000Z</time>
      </trkpt>
      <trkpt lat="47.25582" lon="-1.48745">
        <ele>74</ele>
        <time>2021-01-02T12:08:59.000Z</time>
      </trkpt>
      <trkpt lat="47.25594" lon="-1.48744">
        <ele>75</ele>
        <time>2021-01-02T12:09:01.000Z</time>
      </trkpt>
      <trkpt lat="47.25606" lon="-1.48744">
        <ele>75</ele>
        <time>2021-01-02T12:09:03.000Z</time>
      </trkpt>
      <trkpt lat="47.25618" lon="-1.48745">
        <ele>75</ele>
        <time>2021-01-02T12:09:05.000Z</time>
      </trkpt>
      <trkpt lat="47.2563" lon="-1.48747">
        <ele>75</ele>
        <time>2021-01-02T12:09:07.000Z</time>
      </trkpt>
      <trkpt lat="47.25641" lon="-1.48748">
        <ele>75</ele>
        <time>2021-01-02T12:09:09.000Z</time>
      </trkpt>
      <trkpt lat="47.25652" lon="-1.48751">
        <ele>76</ele>
        <time>2021-01-02T12:09:11.000Z</time>
      </trkpt>
      <trkpt lat="47.25663" lon="-1.48753">
        <ele>76</ele>
        <time>2021-01-02T12:09:13.000Z</time>
      </trkpt>
      <trkpt lat="47.25675" lon="-1.48751">
        <ele>76</ele>
        <time>2021-01-02T12:09:15.000Z</time>
      </trkpt>
      <trkpt lat="47.25686" lon="-1.48756">
        <ele>77</ele>
        <time>2021-01-02T12:09:17.000Z</time>
      </trkpt>
      <trkpt lat="47.25699" lon="-1.48758">
        <ele>77</ele>
        <time>2021-01-02T12:09:19.000Z</time>
      </trkpt>
      <trkpt lat="47.25711" lon="-1.48758">
        <ele>77</ele>
        <time>2021-01-02T12:09:21.000Z</time>
      </trkpt>
      <trkpt lat="47.25722" lon="-1.48758">
        <ele>76</ele>
        <time>2021-01-02T12:09:23.000Z</time>
      </trkpt>
      <trkpt lat="47.25733" lon="-1.48757">
        <ele>76</ele>
        <time>2021-01-02T12:09:25.000Z</time>
      </trkpt>
      <trkpt lat="47.25745" lon="-1.48755">
        <ele>76</ele>
        <time>2021-01-02T12:09:27.000Z</time>
      </trkpt>
      <trkpt lat="47.25756" lon="-1.48751">
        <ele>76</ele>
        <time>2021-01-02T12:09:29.000Z</time>
      </trkpt>
      <trkpt lat="47.25766" lon="-1.48747">
        <ele>75</ele>
        <time>2021-01-02T12:09:31.000Z</time>
      </trkpt>
      <trkpt lat="47.25777" lon="-1.48744">
        <ele>76</ele>
        <time>2021-01-02T12:09:33.000Z</time>
      </trkpt>
      <trkpt lat="47.25788" lon="-1.48743">
        <ele>76</ele>
        <time>2021-01-02T12:09:35.000Z</time>
      </trkpt>
      <trkpt lat="47.25799" lon="-1.48742">
        <ele>76</ele>
        <time>2021-01-02T12:09:37.000Z</time>
      </trkpt>
      <trkpt lat="47.25811" lon="-1.48742">
        <ele>76</ele>
        <time>2021-01-02T12:09:39.000Z</time>
      </trkpt>
      <trkpt lat="47.25823" lon="-1.48744">
        <ele>76</ele>
        <time>2021-01-02T12:09:41.000Z</time>
      </trkpt>
      <trkpt lat="47.25835" lon="-1.48744">
        <ele>76</ele>
        <time>2021-01-02T12:09:43.000Z</time>
      </trkpt>
      <trkpt lat="47.25848" lon="-1.48745">
        <ele>76</ele>
        <time>2021-01-02T12:09:45.000Z</time>
      </trkpt>
      <trkpt lat="47.2586" lon="-1.48745">
        <ele>76</ele>
        <time>2021-01-02T12:09:47.000Z</time>
      </trkpt>
      <trkpt lat="47.25872" lon="-1.48746">
        <ele>75</ele>
        <time>2021-01-02T12:09:49.000Z</time>
      </trkpt>
      <trkpt lat="47.25884" lon="-1.48747">
        <ele>75</ele>
        <time>2021-01-02T12:09:51.000Z</time>
      </trkpt>
      <trkpt lat="47.25897" lon="-1.48748">
        <ele>75</ele>
        <time>2021-01-02T12:09:53.000Z</time>
      </trkpt>
      <trkpt lat="47.25909" lon="-1.48748">
        <ele>74</ele>
        <time>2021-01-02T12:09:55.000Z</time>
      </trkpt>
      <trkpt lat="47.25922" lon="-1.48749">
        <ele>74</ele>
        <time>2021-01-02T12:09:57.000Z</time>
      </trkpt>
      <trkpt lat="47.25934" lon="-1.4875">
        <ele>75</ele>
        <time>2021-01-02T12:09:59.000Z</time>
      </trkpt>
      <trkpt lat="47.25947" lon="-1.48751">
        <ele>75</ele>
        <time>2021-01-02T12:10:01.000Z</time>
      </trkpt>
      <trkpt lat="47.2596" lon="-1.48751">
        <ele>75</ele>
        <time>2021-01-02T12:10:03.000Z</time>
      </trkpt>
      <trkpt lat="47.25972" lon="-1.48751">
        <ele>76</ele>
        <time>2021-01-02T12:10:05.000Z</time>
      </trkpt>
      <trkpt lat="47.25984" lon="-1.48751">
        <ele>76</ele>
        <time>2021-01-02T12:10:07.000Z</time>
      </trkpt>
      <trkpt lat="47.25997" lon="-1.48751">
        <ele>75</ele>
        <time>2021-01-02T12:10:09.000Z</time>
      </trkpt>
      <trkpt lat="47.26009" lon="-1.4875">
        <ele>75</ele>
        <time>2021-01-02T12:10:11.000Z</time>
      </trkpt>
      <trkpt lat="47.26021" lon="-1.48748">
        <ele>75</ele>
        <time>2021-01-02T12:10:13.000Z</time>
      </trkpt>
      <trkpt lat="47.26034" lon="-1.48748">
        <ele>74</ele>
        <time>2021-01-02T12:10:15.000Z</time>
      </trkpt>
      <trkpt lat="47.26047" lon="-1.48746">
        <ele>75</ele>
        <time>2021-01-02T12:10:17.000Z</time>
      </trkpt>
      <trkpt lat="47.2606" lon="-1.48743">
        <ele>75</ele>
        <time>2021-01-02T12:10:19.000Z</time>
      </trkpt>
      <trkpt lat="47.26073" lon="-1.4874">
        <ele>75</ele>
        <time>2021-01-02T12:10:21.000Z</time>
      </trkpt>
      <trkpt lat="47.26085" lon="-1.48738">
        <ele>75</ele>
        <time>2021-01-02T12:10:23.000Z</time>
      </trkpt>
      <trkpt lat="47.26097" lon="-1.48735">
        <ele>75</ele>
        <time>2021-01-02T12:10:25.000Z</time>
      </trkpt>
      <trkpt lat="47.26109" lon="-1.48732">
        <ele>74</ele>
        <time>2021-01-02T12:10:27.000Z</time>
      </trkpt>
      <trkpt lat="47.26121" lon="-1.48729">
        <ele>74</ele>
        <time>2021-01-02T12:10:29.000Z</time>
      </trkpt>
      <trkpt lat="47.26133" lon="-1.48725">
        <ele>74</ele>
        <time>2021-01-02T12:10:31.000Z</time>
      </trkpt>
      <trkpt lat="47.26144" lon="-1.48718">
        <ele>74</ele>
        <time>2021-01-02T12:10:33.000Z</time>
      </trkpt>
      <trkpt lat="47.26155" lon="-1.48713">
        <ele>75</ele>
        <time>2021-01-02T12:10:35.000Z</time>
      </trkpt>
      <trkpt lat="47.26167" lon="-1.48708">
        <ele>75</ele>
        <time>2021-01-02T12:10:37.000Z</time>
      </trkpt>
      <trkpt lat="47.26178" lon="-1.48703">
        <ele>75</ele>
        <time>2021-01-02T12:10:39.000Z</time>
      </trkpt>
      <trkpt lat="47.26189" lon="-1.48697">
        <ele>75</ele>
        <time>2021-01-02T12:10:41.000Z</time>
      </trkpt>
      <trkpt lat="47.262" lon="-1.48693">
        <ele>75</ele>
        <time>2021-01-02T12:10:43.000Z</time>
      </trkpt>
      <trkpt lat="47.26211" lon="-1.48688">
        <ele>75</ele>
        <time>2021-01-02T12:10:45.000Z</time>
      </trkpt>
      <trkpt lat="47.26221" lon="-1.48683">
        <ele>76</ele>
        <time>2021-01-02T12:10:47.000Z</time>
      </trkpt>
      <trkpt lat="47.26232" lon="-1.48677">
        <ele>76</ele>
        <time>2021-01-02T12:10:49.000Z</time>
      </trkpt>
      <trkpt lat="47.26243" lon="-1.48672">
        <ele>77</ele>
        <time>2021-01-02T12:10:51.000Z</time>
      </trkpt>
      <trkpt lat="47.26254" lon="-1.4867">
        <ele>77</ele>
        <time>2021-01-02T12:10:53.000Z</time>
      </trkpt>
      <trkpt lat="47.26265" lon="-1.48667">
        <ele>77</ele>
        <time>2021-01-02T12:10:55.000Z</time>
      </trkpt>
      <trkpt lat="47.26276" lon="-1.48664">
        <ele>78</ele>
        <time>2021-01-02T12:10:57.000Z</time>
      </trkpt>
      <trkpt lat="47.26288" lon="-1.48663">
        <ele>78</ele>
        <time>2021-01-02T12:10:59.000Z</time>
      </trkpt>
      <trkpt lat="47.26299" lon="-1.48663">
        <ele>78</ele>
        <time>2021-01-02T12:11:01.000Z</time>
      </trkpt>
      <trkpt lat="47.2631" lon="-1.48662">
        <ele>78</ele>
        <time>2021-01-02T12:11:03.000Z</time>
      </trkpt>
      <trkpt lat="47.26322" lon="-1.48662">
        <ele>78</ele>
        <time>2021-01-02T12:11:05.000Z</time>
      </trkpt>
      <trkpt lat="47.26333" lon="-1.48662">
        <ele>78</ele>
        <time>2021-01-02T12:11:07.000Z</time>
      </trkpt>
      <trkpt lat="47.26344" lon="-1.48662">
        <ele>78</ele>
        <time>2021-01-02T12:11:09.000Z</time>
      </trkpt>
      <trkpt lat="47.26354" lon="-1.48663">
        <ele>78</ele>
        <time>2021-01-02T12:11:11.000Z</time>
      </trkpt>
      <trkpt lat="47.26366" lon="-1.48665">
        <ele>78</ele>
        <time>2021-01-02T12:11:13.000Z</time>
      </trkpt>
      <trkpt lat="47.26377" lon="-1.48668">
        <ele>78</ele>
        <time>2021-01-02T12:11:15.000Z</time>
      </trkpt>
      <trkpt lat="47.26388" lon="-1.48669">
        <ele>78</ele>
        <time>2021-01-02T12:11:17.000Z</time>
      </trkpt>
      <trkpt lat="47.264" lon="-1.48669">
        <ele>78</ele>
        <time>2021-01-02T12:11:19.000Z</time>
      </trkpt>
      <trkpt lat="47.2641" lon="-1.4867">
        <ele>78</ele>
        <time>2021-01-02T12:11:21.000Z</time>
      </trkpt>
      <trkpt lat="47.26421" lon="-1.48672">
        <ele>79</ele>
        <time>2021-01-02T12:11:23.000Z</time>
      </trkpt>
      <trkpt lat="47.26432" lon="-1.48673">
        <ele>79</ele>
        <time>2021-01-02T12:11:25.000Z</time>
      </trkpt>
      <trkpt lat="47.26443" lon="-1.48675">
        <ele>79</ele>
        <time>2021-01-02T12:11:27.000Z</time>
      </trkpt>
      <trkpt lat="47.26455" lon="-1.48678">
        <ele>80</ele>
        <time>2021-01-02T12:11:29.000Z</time>
      </trkpt>
      <trkpt lat="47.26466" lon="-1.48681">
        <ele>80</ele>
        <time>2021-01-02T12:11:31.000Z</time>
      </trkpt>
      <trkpt lat="47.26476" lon="-1.48684">
        <ele>80</ele>
        <time>2021-01-02T12:11:33.000Z</time>
      </trkpt>
      <trkpt lat="47.26487" lon="-1.48687">
        <ele>80</ele>
        <time>2021-01-02T12:11:35.000Z</time>
      </trkpt>
      <trkpt lat="47.26498" lon="-1.4869">
        <ele>81</ele>
        <time>2021-01-02T12:11:37.000Z</time>
      </trkpt>
      <trkpt lat="47.26508" lon="-1.48693">
        <ele>81</ele>
        <time>2021-01-02T12:11:39.000Z</time>
      </trkpt>
      <trkpt lat="47.26519" lon="-1.48695">
        <ele>81</ele>
        <time>2021-01-02T12:11:41.000Z</time>
      </trkpt>
      <trkpt lat="47.2653" lon="-1.48699">
        <ele>81</ele>
        <time>2021-01-02T12:11:43.000Z</time>
      </trkpt>
      <trkpt lat="47.2654" lon="-1.48704">
        <ele>81</ele>
        <time>2021-01-02T12:11:45.000Z</time>
      </trkpt>
      <trkpt lat="47.26551" lon="-1.48708">
        <ele>82</ele>
        <time>2021-01-02T12:11:47.000Z</time>
      </trkpt>
      <trkpt lat="47.26561" lon="-1.48711">
        <ele>82</ele>
        <time>2021-01-02T12:11:49.000Z</time>
      </trkpt>
      <trkpt lat="47.2657" lon="-1.48715">
        <ele>81</ele>
        <time>2021-01-02T12:11:51.000Z</time>
      </trkpt>
      <trkpt lat="47.26581" lon="-1.48714">
        <ele>83</ele>
        <time>2021-01-02T12:11:54.000Z</time>
      </trkpt>
      <trkpt lat="47.26591" lon="-1.48712">
        <ele>83</ele>
        <time>2021-01-02T12:11:57.000Z</time>
      </trkpt>
      <trkpt lat="47.26601" lon="-1.48711">
        <ele>84</ele>
        <time>2021-01-02T12:12:02.000Z</time>
      </trkpt>
      <trkpt lat="47.26612" lon="-1.48719">
        <ele>85</ele>
        <time>2021-01-02T12:12:07.000Z</time>
      </trkpt>
      <trkpt lat="47.2662" lon="-1.48728">
        <ele>85</ele>
        <time>2021-01-02T12:12:09.000Z</time>
      </trkpt>
      <trkpt lat="47.26629" lon="-1.48738">
        <ele>84</ele>
        <time>2021-01-02T12:12:11.000Z</time>
      </trkpt>
      <trkpt lat="47.26636" lon="-1.48754">
        <ele>84</ele>
        <time>2021-01-02T12:12:13.000Z</time>
      </trkpt>
      <trkpt lat="47.2664" lon="-1.48769">
        <ele>84</ele>
        <time>2021-01-02T12:12:15.000Z</time>
      </trkpt>
      <trkpt lat="47.26647" lon="-1.48782">
        <ele>85</ele>
        <time>2021-01-02T12:12:17.000Z</time>
      </trkpt>
      <trkpt lat="47.26656" lon="-1.48792">
        <ele>85</ele>
        <time>2021-01-02T12:12:19.000Z</time>
      </trkpt>
      <trkpt lat="47.26667" lon="-1.48801">
        <ele>85</ele>
        <time>2021-01-02T12:12:21.000Z</time>
      </trkpt>
      <trkpt lat="47.26677" lon="-1.48808">
        <ele>87</ele>
        <time>2021-01-02T12:12:23.000Z</time>
      </trkpt>
      <trkpt lat="47.26689" lon="-1.48815">
        <ele>88</ele>
        <time>2021-01-02T12:12:25.000Z</time>
      </trkpt>
      <trkpt lat="47.26699" lon="-1.48825">
        <ele>88</ele>
        <time>2021-01-02T12:12:27.000Z</time>
      </trkpt>
      <trkpt lat="47.26706" lon="-1.48837">
        <ele>89</ele>
        <time>2021-01-02T12:12:29.000Z</time>
      </trkpt>
      <trkpt lat="47.26714" lon="-1.48849">
        <ele>90</ele>
        <time>2021-01-02T12:12:31.000Z</time>
      </trkpt>
      <trkpt lat="47.26722" lon="-1.4886">
        <ele>90</ele>
        <time>2021-01-02T12:12:33.000Z</time>
      </trkpt>
      <trkpt lat="47.26731" lon="-1.48867">
        <ele>90</ele>
        <time>2021-01-02T12:12:35.000Z</time>
      </trkpt>
      <trkpt lat="47.26743" lon="-1.48864">
        <ele>89</ele>
        <time>2021-01-02T12:12:37.000Z</time>
      </trkpt>
      <trkpt lat="47.26753" lon="-1.48854">
        <ele>87</ele>
        <time>2021-01-02T12:12:39.000Z</time>
      </trkpt>
      <trkpt lat="47.26761" lon="-1.48842">
        <ele>86</ele>
        <time>2021-01-02T12:12:41.000Z</time>
      </trkpt>
      <trkpt lat="47.26769" lon="-1.4883">
        <ele>85</ele>
        <time>2021-01-02T12:12:43.000Z</time>
      </trkpt>
      <trkpt lat="47.26777" lon="-1.48819">
        <ele>85</ele>
        <time>2021-01-02T12:12:45.000Z</time>
      </trkpt>
      <trkpt lat="47.26785" lon="-1.48808">
        <ele>84</ele>
        <time>2021-01-02T12:12:47.000Z</time>
      </trkpt>
      <trkpt lat="47.26794" lon="-1.48796">
        <ele>84</ele>
        <time>2021-01-02T12:12:49.000Z</time>
      </trkpt>
      <trkpt lat="47.26802" lon="-1.48785">
        <ele>85</ele>
        <time>2021-01-02T12:12:51.000Z</time>
      </trkpt>
      <trkpt lat="47.26811" lon="-1.48774">
        <ele>84</ele>
        <time>2021-01-02T12:12:53.000Z</time>
      </trkpt>
      <trkpt lat="47.26819" lon="-1.48761">
        <ele>84</ele>
        <time>2021-01-02T12:12:55.000Z</time>
      </trkpt>
      <trkpt lat="47.26828" lon="-1.4875">
        <ele>85</ele>
        <time>2021-01-02T12:12:57.000Z</time>
      </trkpt>
      <trkpt lat="47.26837" lon="-1.48739">
        <ele>85</ele>
        <time>2021-01-02T12:12:59.000Z</time>
      </trkpt>
      <trkpt lat="47.26845" lon="-1.48727">
        <ele>85</ele>
        <time>2021-01-02T12:13:01.000Z</time>
      </trkpt>
      <trkpt lat="47.26853" lon="-1.48716">
        <ele>85</ele>
        <time>2021-01-02T12:13:03.000Z</time>
      </trkpt>
      <trkpt lat="47.26862" lon="-1.48704">
        <ele>85</ele>
        <time>2021-01-02T12:13:05.000Z</time>
      </trkpt>
      <trkpt lat="47.26871" lon="-1.48694">
        <ele>85</ele>
        <time>2021-01-02T12:13:07.000Z</time>
      </trkpt>
      <trkpt lat="47.2688" lon="-1.48682">
        <ele>85</ele>
        <time>2021-01-02T12:13:09.000Z</time>
      </trkpt>
      <trkpt lat="47.26888" lon="-1.48672">
        <ele>85</ele>
        <time>2021-01-02T12:13:11.000Z</time>
      </trkpt>
      <trkpt lat="47.26898" lon="-1.48663">
        <ele>85</ele>
        <time>2021-01-02T12:13:13.000Z</time>
      </trkpt>
      <trkpt lat="47.26909" lon="-1.48656">
        <ele>85</ele>
        <time>2021-01-02T12:13:15.000Z</time>
      </trkpt>
      <trkpt lat="47.26919" lon="-1.48647">
        <ele>85</ele>
        <time>2021-01-02T12:13:17.000Z</time>
      </trkpt>
      <trkpt lat="47.2693" lon="-1.48637">
        <ele>85</ele>
        <time>2021-01-02T12:13:19.000Z</time>
      </trkpt>
      <trkpt lat="47.26941" lon="-1.48628">
        <ele>85</ele>
        <time>2021-01-02T12:13:21.000Z</time>
      </trkpt>
      <trkpt lat="47.26952" lon="-1.4862">
        <ele>86</ele>
        <time>2021-01-02T12:13:23.000Z</time>
      </trkpt>
      <trkpt lat="47.26964" lon="-1.48611">
        <ele>86</ele>
        <time>2021-01-02T12:13:25.000Z</time>
      </trkpt>
      <trkpt lat="47.26975" lon="-1.48602">
        <ele>87</ele>
        <time>2021-01-02T12:13:27.000Z</time>
      </trkpt>
      <trkpt lat="47.26986" lon="-1.48593">
        <ele>86</ele>
        <time>2021-01-02T12:13:29.000Z</time>
      </trkpt>
      <trkpt lat="47.26998" lon="-1.48585">
        <ele>86</ele>
        <time>2021-01-02T12:13:31.000Z</time>
      </trkpt>
      <trkpt lat="47.2701" lon="-1.48577">
        <ele>86</ele>
        <time>2021-01-02T12:13:33.000Z</time>
      </trkpt>
      <trkpt lat="47.27022" lon="-1.48569">
        <ele>85</ele>
        <time>2021-01-02T12:13:35.000Z</time>
      </trkpt>
      <trkpt lat="47.27033" lon="-1.48561">
        <ele>85</ele>
        <time>2021-01-02T12:13:37.000Z</time>
      </trkpt>
      <trkpt lat="47.27044" lon="-1.48554">
        <ele>84</ele>
        <time>2021-01-02T12:13:39.000Z</time>
      </trkpt>
      <trkpt lat="47.27055" lon="-1.48546">
        <ele>85</ele>
        <time>2021-01-02T12:13:41.000Z</time>
      </trkpt>
      <trkpt lat="47.27065" lon="-1.48536">
        <ele>85</ele>
        <time>2021-01-02T12:13:43.000Z</time>
      </trkpt>
      <trkpt lat="47.27075" lon="-1.48531">
        <ele>85</ele>
        <time>2021-01-02T12:13:45.000Z</time>
      </trkpt>
      <trkpt lat="47.27086" lon="-1.48524">
        <ele>85</ele>
        <time>2021-01-02T12:13:47.000Z</time>
      </trkpt>
      <trkpt lat="47.27096" lon="-1.48514">
        <ele>85</ele>
        <time>2021-01-02T12:13:49.000Z</time>
      </trkpt>
      <trkpt lat="47.27107" lon="-1.48505">
        <ele>85</ele>
        <time>2021-01-02T12:13:51.000Z</time>
      </trkpt>
      <trkpt lat="47.27117" lon="-1.48495">
        <ele>85</ele>
        <time>2021-01-02T12:13:53.000Z</time>
      </trkpt>
      <trkpt lat="47.27128" lon="-1.48486">
        <ele>85</ele>
        <time>2021-01-02T12:13:55.000Z</time>
      </trkpt>
      <trkpt lat="47.27139" lon="-1.48478">
        <ele>85</ele>
        <time>2021-01-02T12:13:57.000Z</time>
      </trkpt>
      <trkpt lat="47.27149" lon="-1.4847">
        <ele>84</ele>
        <time>2021-01-02T12:13:59.000Z</time>
      </trkpt>
      <trkpt lat="47.2716" lon="-1.48462">
        <ele>84</ele>
        <time>2021-01-02T12:14:01.000Z</time>
      </trkpt>
      <trkpt lat="47.27172" lon="-1.48453">
        <ele>84</ele>
        <time>2021-01-02T12:14:03.000Z</time>
      </trkpt>
      <trkpt lat="47.27182" lon="-1.48444">
        <ele>84</ele>
        <time>2021-01-02T12:14:05.000Z</time>
      </trkpt>
      <trkpt lat="47.27193" lon="-1.48437">
        <ele>84</ele>
        <time>2021-01-02T12:14:07.000Z</time>
      </trkpt>
      <trkpt lat="47.27203" lon="-1.48428">
        <ele>85</ele>
        <time>2021-01-02T12:14:09.000Z</time>
      </trkpt>
      <trkpt lat="47.27213" lon="-1.48419">
        <ele>85</ele>
        <time>2021-01-02T12:14:11.000Z</time>
      </trkpt>
      <trkpt lat="47.27221" lon="-1.4841">
        <ele>84</ele>
        <time>2021-01-02T12:14:13.000Z</time>
      </trkpt>
      <trkpt lat="47.27231" lon="-1.48402">
        <ele>84</ele>
        <time>2021-01-02T12:14:15.000Z</time>
      </trkpt>
      <trkpt lat="47.27242" lon="-1.48396">
        <ele>84</ele>
        <time>2021-01-02T12:14:17.000Z</time>
      </trkpt>
      <trkpt lat="47.27252" lon="-1.48388">
        <ele>84</ele>
        <time>2021-01-02T12:14:19.000Z</time>
      </trkpt>
      <trkpt lat="47.27263" lon="-1.48379">
        <ele>85</ele>
        <time>2021-01-02T12:14:21.000Z</time>
      </trkpt>
      <trkpt lat="47.27271" lon="-1.48372">
        <ele>85</ele>
        <time>2021-01-02T12:14:23.000Z</time>
      </trkpt>
      <trkpt lat="47.27278" lon="-1.48359">
        <ele>84</ele>
        <time>2021-01-02T12:14:26.000Z</time>
      </trkpt>
      <trkpt lat="47.27289" lon="-1.48353">
        <ele>84</ele>
        <time>2021-01-02T12:14:29.000Z</time>
      </trkpt>
      <trkpt lat="47.27299" lon="-1.48352">
        <ele>84</ele>
        <time>2021-01-02T12:14:31.000Z</time>
      </trkpt>
      <trkpt lat="47.27308" lon="-1.48345">
        <ele>84</ele>
        <time>2021-01-02T12:14:33.000Z</time>
      </trkpt>
      <trkpt lat="47.27319" lon="-1.48339">
        <ele>83</ele>
        <time>2021-01-02T12:14:35.000Z</time>
      </trkpt>
      <trkpt lat="47.2733" lon="-1.48333">
        <ele>83</ele>
        <time>2021-01-02T12:14:37.000Z</time>
      </trkpt>
      <trkpt lat="47.2734" lon="-1.48327">
        <ele>83</ele>
        <time>2021-01-02T12:14:39.000Z</time>
      </trkpt>
      <trkpt lat="47.27352" lon="-1.48325">
        <ele>84</ele>
        <time>2021-01-02T12:14:41.000Z</time>
      </trkpt>
      <trkpt lat="47.27364" lon="-1.48323">
        <ele>84</ele>
        <time>2021-01-02T12:14:43.000Z</time>
      </trkpt>
      <trkpt lat="47.27376" lon="-1.48322">
        <ele>85</ele>
        <time>2021-01-02T12:14:45.000Z</time>
      </trkpt>
      <trkpt lat="47.27388" lon="-1.48323">
        <ele>85</ele>
        <time>2021-01-02T12:14:47.000Z</time>
      </trkpt>
      <trkpt lat="47.274" lon="-1.48324">
        <ele>85</ele>
        <time>2021-01-02T12:14:49.000Z</time>
      </trkpt>
      <trkpt lat="47.27411" lon="-1.48325">
        <ele>86</ele>
        <time>2021-01-02T12:14:51.000Z</time>
      </trkpt>
      <trkpt lat="47.27423" lon="-1.48328">
        <ele>87</ele>
        <time>2021-01-02T12:14:53.000Z</time>
      </trkpt>
      <trkpt lat="47.27434" lon="-1.4833">
        <ele>87</ele>
        <time>2021-01-02T12:14:55.000Z</time>
      </trkpt>
      <trkpt lat="47.27446" lon="-1.48331">
        <ele>87</ele>
        <time>2021-01-02T12:14:57.000Z</time>
      </trkpt>
      <trkpt lat="47.27457" lon="-1.48332">
        <ele>87</ele>
        <time>2021-01-02T12:14:59.000Z</time>
      </trkpt>
      <trkpt lat="47.27469" lon="-1.48334">
        <ele>88</ele>
        <time>2021-01-02T12:15:01.000Z</time>
      </trkpt>
      <trkpt lat="47.2748" lon="-1.48335">
        <ele>88</ele>
        <time>2021-01-02T12:15:03.000Z</time>
      </trkpt>
      <trkpt lat="47.27491" lon="-1.48336">
        <ele>88</ele>
        <time>2021-01-02T12:15:05.000Z</time>
      </trkpt>
      <trkpt lat="47.27502" lon="-1.48337">
        <ele>89</ele>
        <time>2021-01-02T12:15:07.000Z</time>
      </trkpt>
      <trkpt lat="47.27514" lon="-1.48339">
        <ele>89</ele>
        <time>2021-01-02T12:15:09.000Z</time>
      </trkpt>
      <trkpt lat="47.27526" lon="-1.48341">
        <ele>89</ele>
        <time>2021-01-02T12:15:11.000Z</time>
      </trkpt>
      <trkpt lat="47.27537" lon="-1.48344">
        <ele>89</ele>
        <time>2021-01-02T12:15:13.000Z</time>
      </trkpt>
      <trkpt lat="47.27549" lon="-1.48346">
        <ele>89</ele>
        <time>2021-01-02T12:15:15.000Z</time>
      </trkpt>
      <trkpt lat="47.27559" lon="-1.48346">
        <ele>88</ele>
        <time>2021-01-02T12:15:17.000Z</time>
      </trkpt>
      <trkpt lat="47.2757" lon="-1.48347">
        <ele>88</ele>
        <time>2021-01-02T12:15:19.000Z</time>
      </trkpt>
      <trkpt lat="47.27582" lon="-1.48347">
        <ele>88</ele>
        <time>2021-01-02T12:15:21.000Z</time>
      </trkpt>
      <trkpt lat="47.27594" lon="-1.48345">
        <ele>88</ele>
        <time>2021-01-02T12:15:23.000Z</time>
      </trkpt>
      <trkpt lat="47.27604" lon="-1.48343">
        <ele>88</ele>
        <time>2021-01-02T12:15:25.000Z</time>
      </trkpt>
      <trkpt lat="47.27616" lon="-1.48341">
        <ele>88</ele>
        <time>2021-01-02T12:15:27.000Z</time>
      </trkpt>
      <trkpt lat="47.27626" lon="-1.48338">
        <ele>88</ele>
        <time>2021-01-02T12:15:29.000Z</time>
      </trkpt>
      <trkpt lat="47.27636" lon="-1.48333">
        <ele>87</ele>
        <time>2021-01-02T12:15:31.000Z</time>
      </trkpt>
      <trkpt lat="47.27648" lon="-1.48326">
        <ele>87</ele>
        <time>2021-01-02T12:15:34.000Z</time>
      </trkpt>
      <trkpt lat="47.27659" lon="-1.48331">
        <ele>88</ele>
        <time>2021-01-02T12:15:36.000Z</time>
      </trkpt>
      <trkpt lat="47.2767" lon="-1.48333">
        <ele>87</ele>
        <time>2021-01-02T12:15:38.000Z</time>
      </trkpt>
      <trkpt lat="47.27682" lon="-1.48336">
        <ele>87</ele>
        <time>2021-01-02T12:15:40.000Z</time>
      </trkpt>
      <trkpt lat="47.27695" lon="-1.48341">
        <ele>86</ele>
        <time>2021-01-02T12:15:42.000Z</time>
      </trkpt>
      <trkpt lat="47.27708" lon="-1.48347">
        <ele>86</ele>
        <time>2021-01-02T12:15:44.000Z</time>
      </trkpt>
      <trkpt lat="47.27721" lon="-1.48356">
        <ele>85</ele>
        <time>2021-01-02T12:15:46.000Z</time>
      </trkpt>
      <trkpt lat="47.27733" lon="-1.48366">
        <ele>84</ele>
        <time>2021-01-02T12:15:48.000Z</time>
      </trkpt>
      <trkpt lat="47.27745" lon="-1.48378">
        <ele>84</ele>
        <time>2021-01-02T12:15:50.000Z</time>
      </trkpt>
      <trkpt lat="47.27757" lon="-1.4839">
        <ele>84</ele>
        <time>2021-01-02T12:15:52.000Z</time>
      </trkpt>
      <trkpt lat="47.27769" lon="-1.48402">
        <ele>83</ele>
        <time>2021-01-02T12:15:54.000Z</time>
      </trkpt>
      <trkpt lat="47.27782" lon="-1.48414">
        <ele>83</ele>
        <time>2021-01-02T12:15:56.000Z</time>
      </trkpt>
      <trkpt lat="47.27795" lon="-1.48426">
        <ele>82</ele>
        <time>2021-01-02T12:15:58.000Z</time>
      </trkpt>
      <trkpt lat="47.27809" lon="-1.48435">
        <ele>82</ele>
        <time>2021-01-02T12:16:00.000Z</time>
      </trkpt>
      <trkpt lat="47.27823" lon="-1.48445">
        <ele>82</ele>
        <time>2021-01-02T12:16:02.000Z</time>
      </trkpt>
      <trkpt lat="47.27836" lon="-1.48453">
        <ele>82</ele>
        <time>2021-01-02T12:16:04.000Z</time>
      </trkpt>
      <trkpt lat="47.2785" lon="-1.4846">
        <ele>82</ele>
        <time>2021-01-02T12:16:06.000Z</time>
      </trkpt>
      <trkpt lat="47.27865" lon="-1.48466">
        <ele>81</ele>
        <time>2021-01-02T12:16:08.000Z</time>
      </trkpt>
      <trkpt lat="47.27879" lon="-1.48471">
        <ele>81</ele>
        <time>2021-01-02T12:16:10.000Z</time>
      </trkpt>
      <trkpt lat="47.27893" lon="-1.48478">
        <ele>80</ele>
        <time>2021-01-02T12:16:12.000Z</time>
      </trkpt>
      <trkpt lat="47.27907" lon="-1.48484">
        <ele>80</ele>
        <time>2021-01-02T12:16:14.000Z</time>
      </trkpt>
      <trkpt lat="47.27921" lon="-1.4849">
        <ele>80</ele>
        <time>2021-01-02T12:16:16.000Z</time>
      </trkpt>
      <trkpt lat="47.27934" lon="-1.48495">
        <ele>79</ele>
        <time>2021-01-02T12:16:18.000Z</time>
      </trkpt>
      <trkpt lat="47.27948" lon="-1.48501">
        <ele>79</ele>
        <time>2021-01-02T12:16:20.000Z</time>
      </trkpt>
      <trkpt lat="47.27961" lon="-1.48507">
        <ele>79</ele>
        <time>2021-01-02T12:16:22.000Z</time>
      </trkpt>
      <trkpt lat="47.27974" lon="-1.48514">
        <ele>78</ele>
        <time>2021-01-02T12:16:24.000Z</time>
      </trkpt>
      <trkpt lat="47.27987" lon="-1.48521">
        <ele>78</ele>
        <time>2021-01-02T12:16:26.000Z</time>
      </trkpt>
      <trkpt lat="47.28" lon="-1.48527">
        <ele>78</ele>
        <time>2021-01-02T12:16:28.000Z</time>
      </trkpt>
      <trkpt lat="47.28014" lon="-1.48531">
        <ele>78</ele>
        <time>2021-01-02T12:16:30.000Z</time>
      </trkpt>
      <trkpt lat="47.28029" lon="-1.48534">
        <ele>77</ele>
        <time>2021-01-02T12:16:32.000Z</time>
      </trkpt>
      <trkpt lat="47.28043" lon="-1.48537">
        <ele>76</ele>
        <time>2021-01-02T12:16:34.000Z</time>
      </trkpt>
      <trkpt lat="47.28057" lon="-1.48538">
        <ele>75</ele>
        <time>2021-01-02T12:16:36.000Z</time>
      </trkpt>
      <trkpt lat="47.28072" lon="-1.48538">
        <ele>75</ele>
        <time>2021-01-02T12:16:38.000Z</time>
      </trkpt>
      <trkpt lat="47.28086" lon="-1.48537">
        <ele>75</ele>
        <time>2021-01-02T12:16:40.000Z</time>
      </trkpt>
      <trkpt lat="47.281" lon="-1.48535">
        <ele>74</ele>
        <time>2021-01-02T12:16:42.000Z</time>
      </trkpt>
      <trkpt lat="47.28114" lon="-1.48534">
        <ele>74</ele>
        <time>2021-01-02T12:16:44.000Z</time>
      </trkpt>
      <trkpt lat="47.28128" lon="-1.48533">
        <ele>74</ele>
        <time>2021-01-02T12:16:46.000Z</time>
      </trkpt>
      <trkpt lat="47.28141" lon="-1.48533">
        <ele>73</ele>
        <time>2021-01-02T12:16:48.000Z</time>
      </trkpt>
      <trkpt lat="47.28155" lon="-1.48532">
        <ele>73</ele>
        <time>2021-01-02T12:16:50.000Z</time>
      </trkpt>
      <trkpt lat="47.28169" lon="-1.48532">
        <ele>74</ele>
        <time>2021-01-02T12:16:52.000Z</time>
      </trkpt>
      <trkpt lat="47.28182" lon="-1.48532">
        <ele>73</ele>
        <time>2021-01-02T12:16:54.000Z</time>
      </trkpt>
      <trkpt lat="47.28194" lon="-1.48531">
        <ele>73</ele>
        <time>2021-01-02T12:16:56.000Z</time>
      </trkpt>
      <trkpt lat="47.28206" lon="-1.4853">
        <ele>73</ele>
        <time>2021-01-02T12:16:58.000Z</time>
      </trkpt>
      <trkpt lat="47.28217" lon="-1.48525">
        <ele>74</ele>
        <time>2021-01-02T12:17:00.000Z</time>
      </trkpt>
      <trkpt lat="47.28229" lon="-1.48524">
        <ele>73</ele>
        <time>2021-01-02T12:17:02.000Z</time>
      </trkpt>
      <trkpt lat="47.28241" lon="-1.48532">
        <ele>73</ele>
        <time>2021-01-02T12:17:04.000Z</time>
      </trkpt>
      <trkpt lat="47.28253" lon="-1.48536">
        <ele>73</ele>
        <time>2021-01-02T12:17:06.000Z</time>
      </trkpt>
      <trkpt lat="47.28266" lon="-1.48536">
        <ele>73</ele>
        <time>2021-01-02T12:17:08.000Z</time>
      </trkpt>
      <trkpt lat="47.28277" lon="-1.48544">
        <ele>74</ele>
        <time>2021-01-02T12:17:10.000Z</time>
      </trkpt>
      <trkpt lat="47.28288" lon="-1.48555">
        <ele>74</ele>
        <time>2021-01-02T12:17:12.000Z</time>
      </trkpt>
      <trkpt lat="47.28298" lon="-1.48568">
        <ele>74</ele>
        <time>2021-01-02T12:17:14.000Z</time>
      </trkpt>
      <trkpt lat="47.2831" lon="-1.4859">
        <ele>74</ele>
        <time>2021-01-02T12:17:17.000Z</time>
      </trkpt>
      <trkpt lat="47.28321" lon="-1.48604">
        <ele>73</ele>
        <time>2021-01-02T12:17:19.000Z</time>
      </trkpt>
      <trkpt lat="47.28333" lon="-1.48609">
        <ele>74</ele>
        <time>2021-01-02T12:17:21.000Z</time>
      </trkpt>
      <trkpt lat="47.28343" lon="-1.48612">
        <ele>74</ele>
        <time>2021-01-02T12:17:23.000Z</time>
      </trkpt>
      <trkpt lat="47.28354" lon="-1.48618">
        <ele>74</ele>
        <time>2021-01-02T12:17:25.000Z</time>
      </trkpt>
      <trkpt lat="47.28364" lon="-1.48628">
        <ele>75</ele>
        <time>2021-01-02T12:17:27.000Z</time>
      </trkpt>
      <trkpt lat="47.28374" lon="-1.48638">
        <ele>75</ele>
        <time>2021-01-02T12:17:29.000Z</time>
      </trkpt>
      <trkpt lat="47.28384" lon="-1.48646">
        <ele>75</ele>
        <time>2021-01-02T12:17:31.000Z</time>
      </trkpt>
      <trkpt lat="47.28396" lon="-1.48645">
        <ele>75</ele>
        <time>2021-01-02T12:17:33.000Z</time>
      </trkpt>
      <trkpt lat="47.28413" lon="-1.48637">
        <ele>75</ele>
        <time>2021-01-02T12:17:36.000Z</time>
      </trkpt>
      <trkpt lat="47.28423" lon="-1.4863">
        <ele>76</ele>
        <time>2021-01-02T12:17:38.000Z</time>
      </trkpt>
      <trkpt lat="47.28433" lon="-1.48622">
        <ele>77</ele>
        <time>2021-01-02T12:17:40.000Z</time>
      </trkpt>
      <trkpt lat="47.28441" lon="-1.48612">
        <ele>77</ele>
        <time>2021-01-02T12:17:42.000Z</time>
      </trkpt>
      <trkpt lat="47.2845" lon="-1.48603">
        <ele>78</ele>
        <time>2021-01-02T12:17:44.000Z</time>
      </trkpt>
      <trkpt lat="47.2846" lon="-1.48595">
        <ele>77</ele>
        <time>2021-01-02T12:17:46.000Z</time>
      </trkpt>
      <trkpt lat="47.28469" lon="-1.48587">
        <ele>78</ele>
        <time>2021-01-02T12:17:48.000Z</time>
      </trkpt>
      <trkpt lat="47.28479" lon="-1.48579">
        <ele>78</ele>
        <time>2021-01-02T12:17:50.000Z</time>
      </trkpt>
      <trkpt lat="47.28488" lon="-1.48572">
        <ele>79</ele>
        <time>2021-01-02T12:17:52.000Z</time>
      </trkpt>
      <trkpt lat="47.28498" lon="-1.48563">
        <ele>79</ele>
        <time>2021-01-02T12:17:54.000Z</time>
      </trkpt>
      <trkpt lat="47.28507" lon="-1.48555">
        <ele>80</ele>
        <time>2021-01-02T12:17:56.000Z</time>
      </trkpt>
      <trkpt lat="47.28516" lon="-1.48547">
        <ele>80</ele>
        <time>2021-01-02T12:17:58.000Z</time>
      </trkpt>
      <trkpt lat="47.28526" lon="-1.48539">
        <ele>80</ele>
        <time>2021-01-02T12:18:00.000Z</time>
      </trkpt>
      <trkpt lat="47.28536" lon="-1.48532">
        <ele>80</ele>
        <time>2021-01-02T12:18:02.000Z</time>
      </trkpt>
      <trkpt lat="47.28546" lon="-1.48523">
        <ele>81</ele>
        <time>2021-01-02T12:18:04.000Z</time>
      </trkpt>
      <trkpt lat="47.28556" lon="-1.48515">
        <ele>80</ele>
        <time>2021-01-02T12:18:06.000Z</time>
      </trkpt>
      <trkpt lat="47.28566" lon="-1.48507">
        <ele>80</ele>
        <time>2021-01-02T12:18:08.000Z</time>
      </trkpt>
      <trkpt lat="47.28575" lon="-1.485">
        <ele>80</ele>
        <time>2021-01-02T12:18:10.000Z</time>
      </trkpt>
      <trkpt lat="47.28589" lon="-1.48489">
        <ele>80</ele>
        <time>2021-01-02T12:18:13.000Z</time>
      </trkpt>
      <trkpt lat="47.28604" lon="-1.48477">
        <ele>81</ele>
        <time>2021-01-02T12:18:16.000Z</time>
      </trkpt>
      <trkpt lat="47.28619" lon="-1.48466">
        <ele>81</ele>
        <time>2021-01-02T12:18:19.000Z</time>
      </trkpt>
      <trkpt lat="47.28634" lon="-1.48456">
        <ele>81</ele>
        <time>2021-01-02T12:18:22.000Z</time>
      </trkpt>
      <trkpt lat="47.28644" lon="-1.48449">
        <ele>81</ele>
        <time>2021-01-02T12:18:24.000Z</time>
      </trkpt>
      <trkpt lat="47.28654" lon="-1.48444">
        <ele>81</ele>
        <time>2021-01-02T12:18:26.000Z</time>
      </trkpt>
      <trkpt lat="47.2867" lon="-1.48435">
        <ele>81</ele>
        <time>2021-01-02T12:18:29.000Z</time>
      </trkpt>
      <trkpt lat="47.28685" lon="-1.48427">
        <ele>82</ele>
        <time>2021-01-02T12:18:32.000Z</time>
      </trkpt>
      <trkpt lat="47.28695" lon="-1.48423">
        <ele>82</ele>
        <time>2021-01-02T12:18:34.000Z</time>
      </trkpt>
      <trkpt lat="47.28706" lon="-1.48418">
        <ele>83</ele>
        <time>2021-01-02T12:18:36.000Z</time>
      </trkpt>
      <trkpt lat="47.28716" lon="-1.48415">
        <ele>83</ele>
        <time>2021-01-02T12:18:38.000Z</time>
      </trkpt>
      <trkpt lat="47.28727" lon="-1.48411">
        <ele>84</ele>
        <time>2021-01-02T12:18:40.000Z</time>
      </trkpt>
      <trkpt lat="47.28743" lon="-1.48405">
        <ele>84</ele>
        <time>2021-01-02T12:18:43.000Z</time>
      </trkpt>
      <trkpt lat="47.28754" lon="-1.48402">
        <ele>83</ele>
        <time>2021-01-02T12:18:45.000Z</time>
      </trkpt>
      <trkpt lat="47.28762" lon="-1.48396">
        <ele>84</ele>
        <time>2021-01-02T12:18:47.000Z</time>
      </trkpt>
      <trkpt lat="47.28768" lon="-1.48384">
        <ele>83</ele>
        <time>2021-01-02T12:18:49.000Z</time>
      </trkpt>
      <trkpt lat="47.2878" lon="-1.48375">
        <ele>81</ele>
        <time>2021-01-02T12:18:52.000Z</time>
      </trkpt>
      <trkpt lat="47.28797" lon="-1.48379">
        <ele>81</ele>
        <time>2021-01-02T12:18:55.000Z</time>
      </trkpt>
      <trkpt lat="47.28812" lon="-1.48393">
        <ele>81</ele>
        <time>2021-01-02T12:18:58.000Z</time>
      </trkpt>
      <trkpt lat="47.28823" lon="-1.48403">
        <ele>81</ele>
        <time>2021-01-02T12:19:00.000Z</time>
      </trkpt>
      <trkpt lat="47.28842" lon="-1.48409">
        <ele>81</ele>
        <time>2021-01-02T12:19:03.000Z</time>
      </trkpt>
      <trkpt lat="47.28854" lon="-1.48414">
        <ele>83</ele>
        <time>2021-01-02T12:19:05.000Z</time>
      </trkpt>
      <trkpt lat="47.28867" lon="-1.4842">
        <ele>82</ele>
        <time>2021-01-02T12:19:07.000Z</time>
      </trkpt>
      <trkpt lat="47.28879" lon="-1.48425">
        <ele>82</ele>
        <time>2021-01-02T12:19:09.000Z</time>
      </trkpt>
      <trkpt lat="47.28891" lon="-1.48433">
        <ele>82</ele>
        <time>2021-01-02T12:19:11.000Z</time>
      </trkpt>
      <trkpt lat="47.28904" lon="-1.4844">
        <ele>82</ele>
        <time>2021-01-02T12:19:13.000Z</time>
      </trkpt>
      <trkpt lat="47.28917" lon="-1.48447">
        <ele>83</ele>
        <time>2021-01-02T12:19:15.000Z</time>
      </trkpt>
      <trkpt lat="47.28929" lon="-1.48455">
        <ele>83</ele>
        <time>2021-01-02T12:19:17.000Z</time>
      </trkpt>
      <trkpt lat="47.28942" lon="-1.48461">
        <ele>84</ele>
        <time>2021-01-02T12:19:19.000Z</time>
      </trkpt>
      <trkpt lat="47.28954" lon="-1.48469">
        <ele>85</ele>
        <time>2021-01-02T12:19:21.000Z</time>
      </trkpt>
      <trkpt lat="47.28965" lon="-1.48481">
        <ele>86</ele>
        <time>2021-01-02T12:19:23.000Z</time>
      </trkpt>
      <trkpt lat="47.28977" lon="-1.48491">
        <ele>86</ele>
        <time>2021-01-02T12:19:25.000Z</time>
      </trkpt>
      <trkpt lat="47.28991" lon="-1.48499">
        <ele>86</ele>
        <time>2021-01-02T12:19:27.000Z</time>
      </trkpt>
      <trkpt lat="47.29004" lon="-1.48509">
        <ele>85</ele>
        <time>2021-01-02T12:19:29.000Z</time>
      </trkpt>
      <trkpt lat="47.29017" lon="-1.48518">
        <ele>85</ele>
        <time>2021-01-02T12:19:31.000Z</time>
      </trkpt>
      <trkpt lat="47.29029" lon="-1.48527">
        <ele>85</ele>
        <time>2021-01-02T12:19:33.000Z</time>
      </trkpt>
      <trkpt lat="47.29042" lon="-1.48536">
        <ele>85</ele>
        <time>2021-01-02T12:19:35.000Z</time>
      </trkpt>
      <trkpt lat="47.29061" lon="-1.48548">
        <ele>85</ele>
        <time>2021-01-02T12:19:38.000Z</time>
      </trkpt>
      <trkpt lat="47.29074" lon="-1.48557">
        <ele>83</ele>
        <time>2021-01-02T12:19:40.000Z</time>
      </trkpt>
      <trkpt lat="47.29086" lon="-1.4857">
        <ele>82</ele>
        <time>2021-01-02T12:19:42.000Z</time>
      </trkpt>
      <trkpt lat="47.29098" lon="-1.4858">
        <ele>81</ele>
        <time>2021-01-02T12:19:44.000Z</time>
      </trkpt>
      <trkpt lat="47.29111" lon="-1.48589">
        <ele>81</ele>
        <time>2021-01-02T12:19:46.000Z</time>
      </trkpt>
      <trkpt lat="47.29123" lon="-1.48597">
        <ele>81</ele>
        <time>2021-01-02T12:19:48.000Z</time>
      </trkpt>
      <trkpt lat="47.29134" lon="-1.48605">
        <ele>81</ele>
        <time>2021-01-02T12:19:50.000Z</time>
      </trkpt>
      <trkpt lat="47.29146" lon="-1.48614">
        <ele>80</ele>
        <time>2021-01-02T12:19:52.000Z</time>
      </trkpt>
      <trkpt lat="47.29158" lon="-1.48624">
        <ele>80</ele>
        <time>2021-01-02T12:19:54.000Z</time>
      </trkpt>
      <trkpt lat="47.2917" lon="-1.48633">
        <ele>80</ele>
        <time>2021-01-02T12:19:56.000Z</time>
      </trkpt>
      <trkpt lat="47.29183" lon="-1.48642">
        <ele>79</ele>
        <time>2021-01-02T12:19:58.000Z</time>
      </trkpt>
      <trkpt lat="47.29195" lon="-1.48652">
        <ele>79</ele>
        <time>2021-01-02T12:20:00.000Z</time>
      </trkpt>
      <trkpt lat="47.29206" lon="-1.48661">
        <ele>78</ele>
        <time>2021-01-02T12:20:02.000Z</time>
      </trkpt>
      <trkpt lat="47.29217" lon="-1.4867">
        <ele>79</ele>
        <time>2021-01-02T12:20:04.000Z</time>
      </trkpt>
      <trkpt lat="47.29228" lon="-1.48679">
        <ele>79</ele>
        <time>2021-01-02T12:20:06.000Z</time>
      </trkpt>
      <trkpt lat="47.29239" lon="-1.48686">
        <ele>79</ele>
        <time>2021-01-02T12:20:08.000Z</time>
      </trkpt>
      <trkpt lat="47.29249" lon="-1.48684">
        <ele>79</ele>
        <time>2021-01-02T12:20:10.000Z</time>
      </trkpt>
      <trkpt lat="47.29268" lon="-1.48684">
        <ele>78</ele>
        <time>2021-01-02T12:20:14.000Z</time>
      </trkpt>
      <trkpt lat="47.29278" lon="-1.48697">
        <ele>78</ele>
        <time>2021-01-02T12:20:17.000Z</time>
      </trkpt>
      <trkpt lat="47.2928" lon="-1.48712">
        <ele>78</ele>
        <time>2021-01-02T12:20:19.000Z</time>
      </trkpt>
      <trkpt lat="47.29289" lon="-1.48728">
        <ele>78</ele>
        <time>2021-01-02T12:20:22.000Z</time>
      </trkpt>
      <trkpt lat="47.293" lon="-1.48736">
        <ele>78</ele>
        <time>2021-01-02T12:20:24.000Z</time>
      </trkpt>
      <trkpt lat="47.29309" lon="-1.48744">
        <ele>78</ele>
        <time>2021-01-02T12:20:26.000Z</time>
      </trkpt>
      <trkpt lat="47.29318" lon="-1.48753">
        <ele>78</ele>
        <time>2021-01-02T12:20:28.000Z</time>
      </trkpt>
      <trkpt lat="47.29328" lon="-1.48761">
        <ele>79</ele>
        <time>2021-01-02T12:20:30.000Z</time>
      </trkpt>
      <trkpt lat="47.29338" lon="-1.48768">
        <ele>80</ele>
        <time>2021-01-02T12:20:32.000Z</time>
      </trkpt>
      <trkpt lat="47.29348" lon="-1.48775">
        <ele>80</ele>
        <time>2021-01-02T12:20:34.000Z</time>
      </trkpt>
      <trkpt lat="47.2936" lon="-1.48781">
        <ele>79</ele>
        <time>2021-01-02T12:20:36.000Z</time>
      </trkpt>
      <trkpt lat="47.2937" lon="-1.48785">
        <ele>79</ele>
        <time>2021-01-02T12:20:38.000Z</time>
      </trkpt>
      <trkpt lat="47.2938" lon="-1.48789">
        <ele>79</ele>
        <time>2021-01-02T12:20:40.000Z</time>
      </trkpt>
      <trkpt lat="47.29395" lon="-1.48789">
        <ele>80</ele>
        <time>2021-01-02T12:20:43.000Z</time>
      </trkpt>
      <trkpt lat="47.29406" lon="-1.48787">
        <ele>80</ele>
        <time>2021-01-02T12:20:45.000Z</time>
      </trkpt>
      <trkpt lat="47.29416" lon="-1.48779">
        <ele>80</ele>
        <time>2021-01-02T12:20:47.000Z</time>
      </trkpt>
      <trkpt lat="47.29424" lon="-1.4877">
        <ele>80</ele>
        <time>2021-01-02T12:20:49.000Z</time>
      </trkpt>
      <trkpt lat="47.29433" lon="-1.48762">
        <ele>80</ele>
        <time>2021-01-02T12:20:51.000Z</time>
      </trkpt>
      <trkpt lat="47.29443" lon="-1.48754">
        <ele>80</ele>
        <time>2021-01-02T12:20:53.000Z</time>
      </trkpt>
      <trkpt lat="47.29452" lon="-1.48746">
        <ele>80</ele>
        <time>2021-01-02T12:20:55.000Z</time>
      </trkpt>
      <trkpt lat="47.29462" lon="-1.48739">
        <ele>81</ele>
        <time>2021-01-02T12:20:57.000Z</time>
      </trkpt>
      <trkpt lat="47.2947" lon="-1.48731">
        <ele>81</ele>
        <time>2021-01-02T12:20:59.000Z</time>
      </trkpt>
      <trkpt lat="47.2948" lon="-1.48721">
        <ele>81</ele>
        <time>2021-01-02T12:21:01.000Z</time>
      </trkpt>
      <trkpt lat="47.29489" lon="-1.48712">
        <ele>82</ele>
        <time>2021-01-02T12:21:03.000Z</time>
      </trkpt>
      <trkpt lat="47.29499" lon="-1.48705">
        <ele>82</ele>
        <time>2021-01-02T12:21:05.000Z</time>
      </trkpt>
      <trkpt lat="47.29508" lon="-1.48697">
        <ele>83</ele>
        <time>2021-01-02T12:21:07.000Z</time>
      </trkpt>
      <trkpt lat="47.29518" lon="-1.4869">
        <ele>83</ele>
        <time>2021-01-02T12:21:09.000Z</time>
      </trkpt>
      <trkpt lat="47.29527" lon="-1.48683">
        <ele>83</ele>
        <time>2021-01-02T12:21:11.000Z</time>
      </trkpt>
      <trkpt lat="47.29538" lon="-1.48679">
        <ele>83</ele>
        <time>2021-01-02T12:21:13.000Z</time>
      </trkpt>
      <trkpt lat="47.2955" lon="-1.48675">
        <ele>83</ele>
        <time>2021-01-02T12:21:15.000Z</time>
      </trkpt>
      <trkpt lat="47.29562" lon="-1.48669">
        <ele>83</ele>
        <time>2021-01-02T12:21:17.000Z</time>
      </trkpt>
      <trkpt lat="47.29574" lon="-1.48665">
        <ele>82</ele>
        <time>2021-01-02T12:21:19.000Z</time>
      </trkpt>
      <trkpt lat="47.29585" lon="-1.4866">
        <ele>82</ele>
        <time>2021-01-02T12:21:21.000Z</time>
      </trkpt>
      <trkpt lat="47.29597" lon="-1.48655">
        <ele>82</ele>
        <time>2021-01-02T12:21:23.000Z</time>
      </trkpt>
      <trkpt lat="47.29609" lon="-1.4865">
        <ele>81</ele>
        <time>2021-01-02T12:21:25.000Z</time>
      </trkpt>
      <trkpt lat="47.2962" lon="-1.48646">
        <ele>80</ele>
        <time>2021-01-02T12:21:27.000Z</time>
      </trkpt>
      <trkpt lat="47.29631" lon="-1.48638">
        <ele>80</ele>
        <time>2021-01-02T12:21:29.000Z</time>
      </trkpt>
      <trkpt lat="47.29638" lon="-1.48625">
        <ele>80</ele>
        <time>2021-01-02T12:21:31.000Z</time>
      </trkpt>
      <trkpt lat="47.29648" lon="-1.48621">
        <ele>81</ele>
        <time>2021-01-02T12:21:33.000Z</time>
      </trkpt>
      <trkpt lat="47.29661" lon="-1.48628">
        <ele>80</ele>
        <time>2021-01-02T12:21:35.000Z</time>
      </trkpt>
      <trkpt lat="47.29673" lon="-1.48637">
        <ele>79</ele>
        <time>2021-01-02T12:21:37.000Z</time>
      </trkpt>
      <trkpt lat="47.29683" lon="-1.48646">
        <ele>80</ele>
        <time>2021-01-02T12:21:39.000Z</time>
      </trkpt>
      <trkpt lat="47.29693" lon="-1.48657">
        <ele>80</ele>
        <time>2021-01-02T12:21:41.000Z</time>
      </trkpt>
      <trkpt lat="47.29701" lon="-1.48673">
        <ele>79</ele>
        <time>2021-01-02T12:21:43.000Z</time>
      </trkpt>
      <trkpt lat="47.29708" lon="-1.48688">
        <ele>79</ele>
        <time>2021-01-02T12:21:45.000Z</time>
      </trkpt>
      <trkpt lat="47.29717" lon="-1.48701">
        <ele>80</ele>
        <time>2021-01-02T12:21:47.000Z</time>
      </trkpt>
      <trkpt lat="47.29727" lon="-1.48713">
        <ele>80</ele>
        <time>2021-01-02T12:21:49.000Z</time>
      </trkpt>
      <trkpt lat="47.29739" lon="-1.48721">
        <ele>80</ele>
        <time>2021-01-02T12:21:51.000Z</time>
      </trkpt>
      <trkpt lat="47.29751" lon="-1.48729">
        <ele>80</ele>
        <time>2021-01-02T12:21:53.000Z</time>
      </trkpt>
      <trkpt lat="47.29761" lon="-1.48737">
        <ele>80</ele>
        <time>2021-01-02T12:21:55.000Z</time>
      </trkpt>
      <trkpt lat="47.29773" lon="-1.48746">
        <ele>80</ele>
        <time>2021-01-02T12:21:57.000Z</time>
      </trkpt>
      <trkpt lat="47.29784" lon="-1.48754">
        <ele>80</ele>
        <time>2021-01-02T12:21:59.000Z</time>
      </trkpt>
      <trkpt lat="47.29794" lon="-1.48761">
        <ele>81</ele>
        <time>2021-01-02T12:22:01.000Z</time>
      </trkpt>
      <trkpt lat="47.29804" lon="-1.4877">
        <ele>81</ele>
        <time>2021-01-02T12:22:03.000Z</time>
      </trkpt>
      <trkpt lat="47.29815" lon="-1.4878">
        <ele>80</ele>
        <time>2021-01-02T12:22:05.000Z</time>
      </trkpt>
      <trkpt lat="47.29825" lon="-1.48789">
        <ele>81</ele>
        <time>2021-01-02T12:22:07.000Z</time>
      </trkpt>
      <trkpt lat="47.29836" lon="-1.48797">
        <ele>80</ele>
        <time>2021-01-02T12:22:09.000Z</time>
      </trkpt>
      <trkpt lat="47.29847" lon="-1.48804">
        <ele>80</ele>
        <time>2021-01-02T12:22:11.000Z</time>
      </trkpt>
      <trkpt lat="47.29857" lon="-1.48812">
        <ele>80</ele>
        <time>2021-01-02T12:22:13.000Z</time>
      </trkpt>
      <trkpt lat="47.29868" lon="-1.48819">
        <ele>80</ele>
        <time>2021-01-02T12:22:15.000Z</time>
      </trkpt>
      <trkpt lat="47.29878" lon="-1.48827">
        <ele>81</ele>
        <time>2021-01-02T12:22:17.000Z</time>
      </trkpt>
      <trkpt lat="47.29888" lon="-1.48838">
        <ele>80</ele>
        <time>2021-01-02T12:22:19.000Z</time>
      </trkpt>
      <trkpt lat="47.29899" lon="-1.48847">
        <ele>81</ele>
        <time>2021-01-02T12:22:21.000Z</time>
      </trkpt>
      <trkpt lat="47.29909" lon="-1.48855">
        <ele>80</ele>
        <time>2021-01-02T12:22:23.000Z</time>
      </trkpt>
      <trkpt lat="47.29919" lon="-1.48862">
        <ele>80</ele>
        <time>2021-01-02T12:22:25.000Z</time>
      </trkpt>
      <trkpt lat="47.29929" lon="-1.48869">
        <ele>79</ele>
        <time>2021-01-02T12:22:27.000Z</time>
      </trkpt>
      <trkpt lat="47.2994" lon="-1.48876">
        <ele>79</ele>
        <time>2021-01-02T12:22:29.000Z</time>
      </trkpt>
      <trkpt lat="47.29951" lon="-1.48884">
        <ele>79</ele>
        <time>2021-01-02T12:22:31.000Z</time>
      </trkpt>
      <trkpt lat="47.29962" lon="-1.48892">
        <ele>79</ele>
        <time>2021-01-02T12:22:33.000Z</time>
      </trkpt>
      <trkpt lat="47.29973" lon="-1.48902">
        <ele>78</ele>
        <time>2021-01-02T12:22:35.000Z</time>
      </trkpt>
      <trkpt lat="47.29984" lon="-1.48913">
        <ele>77</ele>
        <time>2021-01-02T12:22:37.000Z</time>
      </trkpt>
      <trkpt lat="47.29997" lon="-1.48915">
        <ele>76</ele>
        <time>2021-01-02T12:22:39.000Z</time>
      </trkpt>
      <trkpt lat="47.30012" lon="-1.48909">
        <ele>77</ele>
        <time>2021-01-02T12:22:41.000Z</time>
      </trkpt>
      <trkpt lat="47.30023" lon="-1.48895">
        <ele>76</ele>
        <time>2021-01-02T12:22:43.000Z</time>
      </trkpt>
      <trkpt lat="47.30035" lon="-1.48882">
        <ele>76</ele>
        <time>2021-01-02T12:22:45.000Z</time>
      </trkpt>
      <trkpt lat="47.30048" lon="-1.48867">
        <ele>74</ele>
        <time>2021-01-02T12:22:47.000Z</time>
      </trkpt>
      <trkpt lat="47.3006" lon="-1.48854">
        <ele>73</ele>
        <time>2021-01-02T12:22:49.000Z</time>
      </trkpt>
      <trkpt lat="47.30072" lon="-1.4884">
        <ele>73</ele>
        <time>2021-01-02T12:22:51.000Z</time>
      </trkpt>
      <trkpt lat="47.30084" lon="-1.48826">
        <ele>72</ele>
        <time>2021-01-02T12:22:53.000Z</time>
      </trkpt>
      <trkpt lat="47.30094" lon="-1.48812">
        <ele>71</ele>
        <time>2021-01-02T12:22:55.000Z</time>
      </trkpt>
      <trkpt lat="47.30106" lon="-1.48799">
        <ele>71</ele>
        <time>2021-01-02T12:22:57.000Z</time>
      </trkpt>
      <trkpt lat="47.30118" lon="-1.48786">
        <ele>70</ele>
        <time>2021-01-02T12:22:59.000Z</time>
      </trkpt>
      <trkpt lat="47.3013" lon="-1.48773">
        <ele>69</ele>
        <time>2021-01-02T12:23:01.000Z</time>
      </trkpt>
      <trkpt lat="47.30142" lon="-1.48761">
        <ele>69</ele>
        <time>2021-01-02T12:23:03.000Z</time>
      </trkpt>
      <trkpt lat="47.30154" lon="-1.4875">
        <ele>69</ele>
        <time>2021-01-02T12:23:05.000Z</time>
      </trkpt>
      <trkpt lat="47.30166" lon="-1.48738">
        <ele>68</ele>
        <time>2021-01-02T12:23:07.000Z</time>
      </trkpt>
      <trkpt lat="47.30178" lon="-1.48726">
        <ele>68</ele>
        <time>2021-01-02T12:23:09.000Z</time>
      </trkpt>
      <trkpt lat="47.3019" lon="-1.48714">
        <ele>68</ele>
        <time>2021-01-02T12:23:11.000Z</time>
      </trkpt>
      <trkpt lat="47.30201" lon="-1.48701">
        <ele>68</ele>
        <time>2021-01-02T12:23:13.000Z</time>
      </trkpt>
      <trkpt lat="47.30213" lon="-1.4869">
        <ele>68</ele>
        <time>2021-01-02T12:23:15.000Z</time>
      </trkpt>
      <trkpt lat="47.30224" lon="-1.48678">
        <ele>69</ele>
        <time>2021-01-02T12:23:17.000Z</time>
      </trkpt>
      <trkpt lat="47.30234" lon="-1.48666">
        <ele>68</ele>
        <time>2021-01-02T12:23:19.000Z</time>
      </trkpt>
      <trkpt lat="47.30245" lon="-1.48655">
        <ele>68</ele>
        <time>2021-01-02T12:23:21.000Z</time>
      </trkpt>
      <trkpt lat="47.30256" lon="-1.48643">
        <ele>68</ele>
        <time>2021-01-02T12:23:23.000Z</time>
      </trkpt>
      <trkpt lat="47.30267" lon="-1.48632">
        <ele>69</ele>
        <time>2021-01-02T12:23:25.000Z</time>
      </trkpt>
      <trkpt lat="47.30279" lon="-1.48621">
        <ele>69</ele>
        <time>2021-01-02T12:23:27.000Z</time>
      </trkpt>
      <trkpt lat="47.30291" lon="-1.48613">
        <ele>69</ele>
        <time>2021-01-02T12:23:29.000Z</time>
      </trkpt>
      <trkpt lat="47.30302" lon="-1.48604">
        <ele>69</ele>
        <time>2021-01-02T12:23:31.000Z</time>
      </trkpt>
      <trkpt lat="47.30312" lon="-1.48593">
        <ele>68</ele>
        <time>2021-01-02T12:23:33.000Z</time>
      </trkpt>
      <trkpt lat="47.30323" lon="-1.48582">
        <ele>67</ele>
        <time>2021-01-02T12:23:35.000Z</time>
      </trkpt>
      <trkpt lat="47.30334" lon="-1.48572">
        <ele>68</ele>
        <time>2021-01-02T12:23:37.000Z</time>
      </trkpt>
      <trkpt lat="47.30345" lon="-1.48562">
        <ele>67</ele>
        <time>2021-01-02T12:23:39.000Z</time>
      </trkpt>
      <trkpt lat="47.30356" lon="-1.48552">
        <ele>67</ele>
        <time>2021-01-02T12:23:41.000Z</time>
      </trkpt>
      <trkpt lat="47.30366" lon="-1.4854">
        <ele>67</ele>
        <time>2021-01-02T12:23:43.000Z</time>
      </trkpt>
      <trkpt lat="47.30375" lon="-1.48527">
        <ele>67</ele>
        <time>2021-01-02T12:23:45.000Z</time>
      </trkpt>
      <trkpt lat="47.30384" lon="-1.48513">
        <ele>67</ele>
        <time>2021-01-02T12:23:47.000Z</time>
      </trkpt>
      <trkpt lat="47.30394" lon="-1.48503">
        <ele>67</ele>
        <time>2021-01-02T12:23:49.000Z</time>
      </trkpt>
      <trkpt lat="47.30407" lon="-1.48499">
        <ele>67</ele>
        <time>2021-01-02T12:23:51.000Z</time>
      </trkpt>
      <trkpt lat="47.3042" lon="-1.48491">
        <ele>66</ele>
        <time>2021-01-02T12:23:53.000Z</time>
      </trkpt>
      <trkpt lat="47.30432" lon="-1.48482">
        <ele>65</ele>
        <time>2021-01-02T12:23:55.000Z</time>
      </trkpt>
      <trkpt lat="47.30443" lon="-1.48471">
        <ele>65</ele>
        <time>2021-01-02T12:23:57.000Z</time>
      </trkpt>
      <trkpt lat="47.30455" lon="-1.4846">
        <ele>64</ele>
        <time>2021-01-02T12:23:59.000Z</time>
      </trkpt>
      <trkpt lat="47.30467" lon="-1.48448">
        <ele>64</ele>
        <time>2021-01-02T12:24:01.000Z</time>
      </trkpt>
      <trkpt lat="47.30479" lon="-1.48437">
        <ele>63</ele>
        <time>2021-01-02T12:24:03.000Z</time>
      </trkpt>
      <trkpt lat="47.30491" lon="-1.48427">
        <ele>63</ele>
        <time>2021-01-02T12:24:05.000Z</time>
      </trkpt>
      <trkpt lat="47.30503" lon="-1.48416">
        <ele>62</ele>
        <time>2021-01-02T12:24:07.000Z</time>
      </trkpt>
      <trkpt lat="47.30515" lon="-1.48405">
        <ele>61</ele>
        <time>2021-01-02T12:24:09.000Z</time>
      </trkpt>
      <trkpt lat="47.30527" lon="-1.48395">
        <ele>61</ele>
        <time>2021-01-02T12:24:11.000Z</time>
      </trkpt>
      <trkpt lat="47.30539" lon="-1.48384">
        <ele>61</ele>
        <time>2021-01-02T12:24:13.000Z</time>
      </trkpt>
      <trkpt lat="47.3055" lon="-1.48374">
        <ele>61</ele>
        <time>2021-01-02T12:24:15.000Z</time>
      </trkpt>
      <trkpt lat="47.30561" lon="-1.48363">
        <ele>61</ele>
        <time>2021-01-02T12:24:17.000Z</time>
      </trkpt>
      <trkpt lat="47.3057" lon="-1.48353">
        <ele>61</ele>
        <time>2021-01-02T12:24:19.000Z</time>
      </trkpt>
      <trkpt lat="47.3058" lon="-1.48343">
        <ele>62</ele>
        <time>2021-01-02T12:24:21.000Z</time>
      </trkpt>
      <trkpt lat="47.30588" lon="-1.48335">
        <ele>62</ele>
        <time>2021-01-02T12:24:23.000Z</time>
      </trkpt>
      <trkpt lat="47.30597" lon="-1.48327">
        <ele>63</ele>
        <time>2021-01-02T12:24:25.000Z</time>
      </trkpt>
      <trkpt lat="47.30604" lon="-1.48318">
        <ele>64</ele>
        <time>2021-01-02T12:24:27.000Z</time>
      </trkpt>
      <trkpt lat="47.30612" lon="-1.48309">
        <ele>64</ele>
        <time>2021-01-02T12:24:29.000Z</time>
      </trkpt>
      <trkpt lat="47.30619" lon="-1.48299">
        <ele>65</ele>
        <time>2021-01-02T12:24:31.000Z</time>
      </trkpt>
      <trkpt lat="47.30625" lon="-1.48289">
        <ele>66</ele>
        <time>2021-01-02T12:24:33.000Z</time>
      </trkpt>
      <trkpt lat="47.3063" lon="-1.48277">
        <ele>66</ele>
        <time>2021-01-02T12:24:35.000Z</time>
      </trkpt>
      <trkpt lat="47.30638" lon="-1.48267">
        <ele>66</ele>
        <time>2021-01-02T12:24:37.000Z</time>
      </trkpt>
      <trkpt lat="47.30648" lon="-1.48263">
        <ele>67</ele>
        <time>2021-01-02T12:24:39.000Z</time>
      </trkpt>
      <trkpt lat="47.30658" lon="-1.48259">
        <ele>67</ele>
        <time>2021-01-02T12:24:41.000Z</time>
      </trkpt>
      <trkpt lat="47.30668" lon="-1.48254">
        <ele>68</ele>
        <time>2021-01-02T12:24:43.000Z</time>
      </trkpt>
      <trkpt lat="47.30678" lon="-1.48249">
        <ele>69</ele>
        <time>2021-01-02T12:24:45.000Z</time>
      </trkpt>
      <trkpt lat="47.30688" lon="-1.48246">
        <ele>70</ele>
        <time>2021-01-02T12:24:47.000Z</time>
      </trkpt>
      <trkpt lat="47.30698" lon="-1.48245">
        <ele>70</ele>
        <time>2021-01-02T12:24:49.000Z</time>
      </trkpt>
      <trkpt lat="47.30709" lon="-1.48247">
        <ele>70</ele>
        <time>2021-01-02T12:24:51.000Z</time>
      </trkpt>
      <trkpt lat="47.30719" lon="-1.48249">
        <ele>70</ele>
        <time>2021-01-02T12:24:53.000Z</time>
      </trkpt>
      <trkpt lat="47.30729" lon="-1.48251">
        <ele>71</ele>
        <time>2021-01-02T12:24:55.000Z</time>
      </trkpt>
      <trkpt lat="47.3074" lon="-1.48251">
        <ele>71</ele>
        <time>2021-01-02T12:24:57.000Z</time>
      </trkpt>
      <trkpt lat="47.3075" lon="-1.48244">
        <ele>71</ele>
        <time>2021-01-02T12:24:59.000Z</time>
      </trkpt>
      <trkpt lat="47.30759" lon="-1.48235">
        <ele>71</ele>
        <time>2021-01-02T12:25:01.000Z</time>
      </trkpt>
      <trkpt lat="47.30764" lon="-1.48221">
        <ele>71</ele>
        <time>2021-01-02T12:25:03.000Z</time>
      </trkpt>
      <trkpt lat="47.30768" lon="-1.48205">
        <ele>71</ele>
        <time>2021-01-02T12:25:05.000Z</time>
      </trkpt>
      <trkpt lat="47.30772" lon="-1.4819">
        <ele>70</ele>
        <time>2021-01-02T12:25:07.000Z</time>
      </trkpt>
      <trkpt lat="47.30776" lon="-1.48174">
        <ele>69</ele>
        <time>2021-01-02T12:25:09.000Z</time>
      </trkpt>
      <trkpt lat="47.3078" lon="-1.48157">
        <ele>69</ele>
        <time>2021-01-02T12:25:11.000Z</time>
      </trkpt>
      <trkpt lat="47.30784" lon="-1.4814">
        <ele>68</ele>
        <time>2021-01-02T12:25:13.000Z</time>
      </trkpt>
      <trkpt lat="47.30789" lon="-1.48122">
        <ele>68</ele>
        <time>2021-01-02T12:25:15.000Z</time>
      </trkpt>
      <trkpt lat="47.30793" lon="-1.48104">
        <ele>67</ele>
        <time>2021-01-02T12:25:17.000Z</time>
      </trkpt>
      <trkpt lat="47.30797" lon="-1.48086">
        <ele>67</ele>
        <time>2021-01-02T12:25:19.000Z</time>
      </trkpt>
      <trkpt lat="47.308" lon="-1.48068">
        <ele>66</ele>
        <time>2021-01-02T12:25:21.000Z</time>
      </trkpt>
      <trkpt lat="47.30802" lon="-1.48048">
        <ele>66</ele>
        <time>2021-01-02T12:25:23.000Z</time>
      </trkpt>
      <trkpt lat="47.30802" lon="-1.4803">
        <ele>66</ele>
        <time>2021-01-02T12:25:25.000Z</time>
      </trkpt>
      <trkpt lat="47.30807" lon="-1.48013">
        <ele>65</ele>
        <time>2021-01-02T12:25:27.000Z</time>
      </trkpt>
      <trkpt lat="47.30818" lon="-1.48005">
        <ele>65</ele>
        <time>2021-01-02T12:25:29.000Z</time>
      </trkpt>
      <trkpt lat="47.30829" lon="-1.48011">
        <ele>65</ele>
        <time>2021-01-02T12:25:31.000Z</time>
      </trkpt>
      <trkpt lat="47.30837" lon="-1.48025">
        <ele>65</ele>
        <time>2021-01-02T12:25:33.000Z</time>
      </trkpt>
      <trkpt lat="47.30842" lon="-1.48044">
        <ele>65</ele>
        <time>2021-01-02T12:25:35.000Z</time>
      </trkpt>
      <trkpt lat="47.3085" lon="-1.48059">
        <ele>66</ele>
        <time>2021-01-02T12:25:37.000Z</time>
      </trkpt>
      <trkpt lat="47.3086" lon="-1.48071">
        <ele>65</ele>
        <time>2021-01-02T12:25:39.000Z</time>
      </trkpt>
      <trkpt lat="47.30871" lon="-1.48081">
        <ele>65</ele>
        <time>2021-01-02T12:25:41.000Z</time>
      </trkpt>
      <trkpt lat="47.30882" lon="-1.48091">
        <ele>65</ele>
        <time>2021-01-02T12:25:43.000Z</time>
      </trkpt>
      <trkpt lat="47.30895" lon="-1.481">
        <ele>64</ele>
        <time>2021-01-02T12:25:45.000Z</time>
      </trkpt>
      <trkpt lat="47.30908" lon="-1.48108">
        <ele>64</ele>
        <time>2021-01-02T12:25:47.000Z</time>
      </trkpt>
      <trkpt lat="47.30921" lon="-1.48114">
        <ele>64</ele>
        <time>2021-01-02T12:25:49.000Z</time>
      </trkpt>
      <trkpt lat="47.30934" lon="-1.48118">
        <ele>63</ele>
        <time>2021-01-02T12:25:51.000Z</time>
      </trkpt>
      <trkpt lat="47.30948" lon="-1.4812">
        <ele>63</ele>
        <time>2021-01-02T12:25:53.000Z</time>
      </trkpt>
      <trkpt lat="47.30961" lon="-1.48123">
        <ele>63</ele>
        <time>2021-01-02T12:25:55.000Z</time>
      </trkpt>
      <trkpt lat="47.30974" lon="-1.48129">
        <ele>63</ele>
        <time>2021-01-02T12:25:57.000Z</time>
      </trkpt>
      <trkpt lat="47.30989" lon="-1.48132">
        <ele>63</ele>
        <time>2021-01-02T12:25:59.000Z</time>
      </trkpt>
      <trkpt lat="47.31003" lon="-1.48132">
        <ele>63</ele>
        <time>2021-01-02T12:26:01.000Z</time>
      </trkpt>
      <trkpt lat="47.31017" lon="-1.48128">
        <ele>63</ele>
        <time>2021-01-02T12:26:03.000Z</time>
      </trkpt>
      <trkpt lat="47.31031" lon="-1.48123">
        <ele>62</ele>
        <time>2021-01-02T12:26:05.000Z</time>
      </trkpt>
      <trkpt lat="47.31044" lon="-1.48116">
        <ele>62</ele>
        <time>2021-01-02T12:26:07.000Z</time>
      </trkpt>
      <trkpt lat="47.31058" lon="-1.48109">
        <ele>62</ele>
        <time>2021-01-02T12:26:09.000Z</time>
      </trkpt>
      <trkpt lat="47.3107" lon="-1.48102">
        <ele>62</ele>
        <time>2021-01-02T12:26:11.000Z</time>
      </trkpt>
      <trkpt lat="47.31084" lon="-1.48095">
        <ele>62</ele>
        <time>2021-01-02T12:26:13.000Z</time>
      </trkpt>
      <trkpt lat="47.31096" lon="-1.48087">
        <ele>61</ele>
        <time>2021-01-02T12:26:15.000Z</time>
      </trkpt>
      <trkpt lat="47.31109" lon="-1.4808">
        <ele>62</ele>
        <time>2021-01-02T12:26:17.000Z</time>
      </trkpt>
      <trkpt lat="47.31122" lon="-1.48074">
        <ele>62</ele>
        <time>2021-01-02T12:26:19.000Z</time>
      </trkpt>
      <trkpt lat="47.31134" lon="-1.48067">
        <ele>62</ele>
        <time>2021-01-02T12:26:21.000Z</time>
      </trkpt>
      <trkpt lat="47.31147" lon="-1.48061">
        <ele>62</ele>
        <time>2021-01-02T12:26:23.000Z</time>
      </trkpt>
      <trkpt lat="47.31159" lon="-1.48054">
        <ele>62</ele>
        <time>2021-01-02T12:26:25.000Z</time>
      </trkpt>
      <trkpt lat="47.3117" lon="-1.48047">
        <ele>63</ele>
        <time>2021-01-02T12:26:27.000Z</time>
      </trkpt>
      <trkpt lat="47.31182" lon="-1.4804">
        <ele>63</ele>
        <time>2021-01-02T12:26:29.000Z</time>
      </trkpt>
      <trkpt lat="47.31193" lon="-1.48034">
        <ele>64</ele>
        <time>2021-01-02T12:26:31.000Z</time>
      </trkpt>
      <trkpt lat="47.31205" lon="-1.48028">
        <ele>64</ele>
        <time>2021-01-02T12:26:33.000Z</time>
      </trkpt>
      <trkpt lat="47.31217" lon="-1.48021">
        <ele>65</ele>
        <time>2021-01-02T12:26:35.000Z</time>
      </trkpt>
      <trkpt lat="47.31228" lon="-1.48014">
        <ele>65</ele>
        <time>2021-01-02T12:26:37.000Z</time>
      </trkpt>
      <trkpt lat="47.3124" lon="-1.48008">
        <ele>65</ele>
        <time>2021-01-02T12:26:39.000Z</time>
      </trkpt>
      <trkpt lat="47.31251" lon="-1.48001">
        <ele>65</ele>
        <time>2021-01-02T12:26:41.000Z</time>
      </trkpt>
      <trkpt lat="47.31263" lon="-1.47994">
        <ele>65</ele>
        <time>2021-01-02T12:26:43.000Z</time>
      </trkpt>
      <trkpt lat="47.31275" lon="-1.47987">
        <ele>65</ele>
        <time>2021-01-02T12:26:45.000Z</time>
      </trkpt>
      <trkpt lat="47.31287" lon="-1.47981">
        <ele>64</ele>
        <time>2021-01-02T12:26:47.000Z</time>
      </trkpt>
      <trkpt lat="47.31299" lon="-1.47974">
        <ele>64</ele>
        <time>2021-01-02T12:26:49.000Z</time>
      </trkpt>
      <trkpt lat="47.31312" lon="-1.47967">
        <ele>63</ele>
        <time>2021-01-02T12:26:51.000Z</time>
      </trkpt>
      <trkpt lat="47.31324" lon="-1.47959">
        <ele>63</ele>
        <time>2021-01-02T12:26:53.000Z</time>
      </trkpt>
      <trkpt lat="47.31337" lon="-1.47951">
        <ele>63</ele>
        <time>2021-01-02T12:26:55.000Z</time>
      </trkpt>
      <trkpt lat="47.3135" lon="-1.47945">
        <ele>62</ele>
        <time>2021-01-02T12:26:57.000Z</time>
      </trkpt>
      <trkpt lat="47.31363" lon="-1.47938">
        <ele>62</ele>
        <time>2021-01-02T12:26:59.000Z</time>
      </trkpt>
      <trkpt lat="47.31375" lon="-1.4793">
        <ele>62</ele>
        <time>2021-01-02T12:27:01.000Z</time>
      </trkpt>
      <trkpt lat="47.31387" lon="-1.47923">
        <ele>61</ele>
        <time>2021-01-02T12:27:03.000Z</time>
      </trkpt>
      <trkpt lat="47.314" lon="-1.47916">
        <ele>62</ele>
        <time>2021-01-02T12:27:05.000Z</time>
      </trkpt>
      <trkpt lat="47.31411" lon="-1.47908">
        <ele>62</ele>
        <time>2021-01-02T12:27:07.000Z</time>
      </trkpt>
      <trkpt lat="47.31423" lon="-1.47901">
        <ele>62</ele>
        <time>2021-01-02T12:27:09.000Z</time>
      </trkpt>
      <trkpt lat="47.31434" lon="-1.47894">
        <ele>63</ele>
        <time>2021-01-02T12:27:11.000Z</time>
      </trkpt>
      <trkpt lat="47.31444" lon="-1.47887">
        <ele>63</ele>
        <time>2021-01-02T12:27:13.000Z</time>
      </trkpt>
      <trkpt lat="47.31454" lon="-1.47881">
        <ele>63</ele>
        <time>2021-01-02T12:27:15.000Z</time>
      </trkpt>
      <trkpt lat="47.31464" lon="-1.47875">
        <ele>63</ele>
        <time>2021-01-02T12:27:17.000Z</time>
      </trkpt>
      <trkpt lat="47.31476" lon="-1.47869">
        <ele>64</ele>
        <time>2021-01-02T12:27:19.000Z</time>
      </trkpt>
      <trkpt lat="47.31486" lon="-1.47864">
        <ele>64</ele>
        <time>2021-01-02T12:27:21.000Z</time>
      </trkpt>
      <trkpt lat="47.31497" lon="-1.47858">
        <ele>64</ele>
        <time>2021-01-02T12:27:23.000Z</time>
      </trkpt>
      <trkpt lat="47.31508" lon="-1.47854">
        <ele>64</ele>
        <time>2021-01-02T12:27:25.000Z</time>
      </trkpt>
      <trkpt lat="47.3152" lon="-1.47848">
        <ele>63</ele>
        <time>2021-01-02T12:27:27.000Z</time>
      </trkpt>
      <trkpt lat="47.31531" lon="-1.47844">
        <ele>63</ele>
        <time>2021-01-02T12:27:29.000Z</time>
      </trkpt>
      <trkpt lat="47.31544" lon="-1.47841">
        <ele>63</ele>
        <time>2021-01-02T12:27:31.000Z</time>
      </trkpt>
      <trkpt lat="47.31557" lon="-1.47838">
        <ele>63</ele>
        <time>2021-01-02T12:27:33.000Z</time>
      </trkpt>
      <trkpt lat="47.31571" lon="-1.47837">
        <ele>62</ele>
        <time>2021-01-02T12:27:35.000Z</time>
      </trkpt>
      <trkpt lat="47.31585" lon="-1.47836">
        <ele>61</ele>
        <time>2021-01-02T12:27:37.000Z</time>
      </trkpt>
      <trkpt lat="47.316" lon="-1.47835">
        <ele>61</ele>
        <time>2021-01-02T12:27:39.000Z</time>
      </trkpt>
      <trkpt lat="47.31614" lon="-1.47834">
        <ele>61</ele>
        <time>2021-01-02T12:27:41.000Z</time>
      </trkpt>
      <trkpt lat="47.31628" lon="-1.47832">
        <ele>60</ele>
        <time>2021-01-02T12:27:43.000Z</time>
      </trkpt>
      <trkpt lat="47.31642" lon="-1.4783">
        <ele>60</ele>
        <time>2021-01-02T12:27:45.000Z</time>
      </trkpt>
      <trkpt lat="47.31654" lon="-1.47822">
        <ele>59</ele>
        <time>2021-01-02T12:27:47.000Z</time>
      </trkpt>
      <trkpt lat="47.31661" lon="-1.47803">
        <ele>59</ele>
        <time>2021-01-02T12:27:49.000Z</time>
      </trkpt>
      <trkpt lat="47.31662" lon="-1.47782">
        <ele>59</ele>
        <time>2021-01-02T12:27:51.000Z</time>
      </trkpt>
      <trkpt lat="47.31663" lon="-1.47762">
        <ele>58</ele>
        <time>2021-01-02T12:27:53.000Z</time>
      </trkpt>
      <trkpt lat="47.31663" lon="-1.47741">
        <ele>58</ele>
        <time>2021-01-02T12:27:55.000Z</time>
      </trkpt>
      <trkpt lat="47.31663" lon="-1.47721">
        <ele>58</ele>
        <time>2021-01-02T12:27:57.000Z</time>
      </trkpt>
      <trkpt lat="47.31664" lon="-1.47701">
        <ele>57</ele>
        <time>2021-01-02T12:27:59.000Z</time>
      </trkpt>
      <trkpt lat="47.31667" lon="-1.47683">
        <ele>57</ele>
        <time>2021-01-02T12:28:01.000Z</time>
      </trkpt>
      <trkpt lat="47.3167" lon="-1.47666">
        <ele>58</ele>
        <time>2021-01-02T12:28:03.000Z</time>
      </trkpt>
      <trkpt lat="47.31676" lon="-1.47648">
        <ele>58</ele>
        <time>2021-01-02T12:28:05.000Z</time>
      </trkpt>
      <trkpt lat="47.31684" lon="-1.47632">
        <ele>58</ele>
        <time>2021-01-02T12:28:07.000Z</time>
      </trkpt>
      <trkpt lat="47.31694" lon="-1.47618">
        <ele>58</ele>
        <time>2021-01-02T12:28:09.000Z</time>
      </trkpt>
      <trkpt lat="47.31703" lon="-1.47603">
        <ele>58</ele>
        <time>2021-01-02T12:28:11.000Z</time>
      </trkpt>
      <trkpt lat="47.31713" lon="-1.4759">
        <ele>59</ele>
        <time>2021-01-02T12:28:13.000Z</time>
      </trkpt>
      <trkpt lat="47.31723" lon="-1.47577">
        <ele>60</ele>
        <time>2021-01-02T12:28:15.000Z</time>
      </trkpt>
      <trkpt lat="47.31733" lon="-1.47562">
        <ele>60</ele>
        <time>2021-01-02T12:28:17.000Z</time>
      </trkpt>
      <trkpt lat="47.31744" lon="-1.47549">
        <ele>59</ele>
        <time>2021-01-02T12:28:19.000Z</time>
      </trkpt>
      <trkpt lat="47.31754" lon="-1.47536">
        <ele>59</ele>
        <time>2021-01-02T12:28:21.000Z</time>
      </trkpt>
      <trkpt lat="47.31764" lon="-1.47523">
        <ele>59</ele>
        <time>2021-01-02T12:28:23.000Z</time>
      </trkpt>
      <trkpt lat="47.31774" lon="-1.47509">
        <ele>60</ele>
        <time>2021-01-02T12:28:25.000Z</time>
      </trkpt>
      <trkpt lat="47.31784" lon="-1.47496">
        <ele>60</ele>
        <time>2021-01-02T12:28:27.000Z</time>
      </trkpt>
      <trkpt lat="47.31794" lon="-1.47482">
        <ele>60</ele>
        <time>2021-01-02T12:28:29.000Z</time>
      </trkpt>
      <trkpt lat="47.31804" lon="-1.47469">
        <ele>60</ele>
        <time>2021-01-02T12:28:31.000Z</time>
      </trkpt>
      <trkpt lat="47.31814" lon="-1.47456">
        <ele>60</ele>
        <time>2021-01-02T12:28:33.000Z</time>
      </trkpt>
      <trkpt lat="47.31823" lon="-1.47444">
        <ele>60</ele>
        <time>2021-01-02T12:28:35.000Z</time>
      </trkpt>
      <trkpt lat="47.31832" lon="-1.47431">
        <ele>60</ele>
        <time>2021-01-02T12:28:37.000Z</time>
      </trkpt>
      <trkpt lat="47.31842" lon="-1.47418">
        <ele>60</ele>
        <time>2021-01-02T12:28:39.000Z</time>
      </trkpt>
      <trkpt lat="47.31851" lon="-1.47406">
        <ele>60</ele>
        <time>2021-01-02T12:28:41.000Z</time>
      </trkpt>
      <trkpt lat="47.31861" lon="-1.47393">
        <ele>60</ele>
        <time>2021-01-02T12:28:43.000Z</time>
      </trkpt>
      <trkpt lat="47.3187" lon="-1.47381">
        <ele>60</ele>
        <time>2021-01-02T12:28:45.000Z</time>
      </trkpt>
      <trkpt lat="47.31879" lon="-1.47367">
        <ele>60</ele>
        <time>2021-01-02T12:28:47.000Z</time>
      </trkpt>
      <trkpt lat="47.31889" lon="-1.47354">
        <ele>60</ele>
        <time>2021-01-02T12:28:49.000Z</time>
      </trkpt>
      <trkpt lat="47.31899" lon="-1.4734">
        <ele>60</ele>
        <time>2021-01-02T12:28:51.000Z</time>
      </trkpt>
      <trkpt lat="47.31908" lon="-1.47326">
        <ele>61</ele>
        <time>2021-01-02T12:28:53.000Z</time>
      </trkpt>
      <trkpt lat="47.31917" lon="-1.47311">
        <ele>61</ele>
        <time>2021-01-02T12:28:55.000Z</time>
      </trkpt>
      <trkpt lat="47.31925" lon="-1.47296">
        <ele>61</ele>
        <time>2021-01-02T12:28:57.000Z</time>
      </trkpt>
      <trkpt lat="47.31932" lon="-1.4728">
        <ele>61</ele>
        <time>2021-01-02T12:28:59.000Z</time>
      </trkpt>
      <trkpt lat="47.31939" lon="-1.47264">
        <ele>61</ele>
        <time>2021-01-02T12:29:01.000Z</time>
      </trkpt>
      <trkpt lat="47.31946" lon="-1.47248">
        <ele>61</ele>
        <time>2021-01-02T12:29:03.000Z</time>
      </trkpt>
      <trkpt lat="47.31953" lon="-1.47233">
        <ele>61</ele>
        <time>2021-01-02T12:29:05.000Z</time>
      </trkpt>
      <trkpt lat="47.3196" lon="-1.47217">
        <ele>61</ele>
        <time>2021-01-02T12:29:07.000Z</time>
      </trkpt>
      <trkpt lat="47.31967" lon="-1.47202">
        <ele>61</ele>
        <time>2021-01-02T12:29:09.000Z</time>
      </trkpt>
      <trkpt lat="47.31973" lon="-1.47188">
        <ele>61</ele>
        <time>2021-01-02T12:29:11.000Z</time>
      </trkpt>
      <trkpt lat="47.3198" lon="-1.47173">
        <ele>61</ele>
        <time>2021-01-02T12:29:13.000Z</time>
      </trkpt>
      <trkpt lat="47.31986" lon="-1.47159">
        <ele>61</ele>
        <time>2021-01-02T12:29:15.000Z</time>
      </trkpt>
      <trkpt lat="47.31993" lon="-1.47145">
        <ele>62</ele>
        <time>2021-01-02T12:29:17.000Z</time>
      </trkpt>
      <trkpt lat="47.31999" lon="-1.47131">
        <ele>62</ele>
        <time>2021-01-02T12:29:19.000Z</time>
      </trkpt>
      <trkpt lat="47.32005" lon="-1.47116">
        <ele>63</ele>
        <time>2021-01-02T12:29:21.000Z</time>
      </trkpt>
      <trkpt lat="47.32011" lon="-1.47102">
        <ele>63</ele>
        <time>2021-01-02T12:29:23.000Z</time>
      </trkpt>
      <trkpt lat="47.32018" lon="-1.47088">
        <ele>63</ele>
        <time>2021-01-02T12:29:25.000Z</time>
      </trkpt>
      <trkpt lat="47.32025" lon="-1.47074">
        <ele>63</ele>
        <time>2021-01-02T12:29:27.000Z</time>
      </trkpt>
      <trkpt lat="47.32033" lon="-1.47061">
        <ele>64</ele>
        <time>2021-01-02T12:29:29.000Z</time>
      </trkpt>
      <trkpt lat="47.3204" lon="-1.4705">
        <ele>64</ele>
        <time>2021-01-02T12:29:31.000Z</time>
      </trkpt>
      <trkpt lat="47.32049" lon="-1.4704">
        <ele>64</ele>
        <time>2021-01-02T12:29:33.000Z</time>
      </trkpt>
      <trkpt lat="47.32059" lon="-1.47031">
        <ele>64</ele>
        <time>2021-01-02T12:29:35.000Z</time>
      </trkpt>
      <trkpt lat="47.32069" lon="-1.47022">
        <ele>65</ele>
        <time>2021-01-02T12:29:37.000Z</time>
      </trkpt>
      <trkpt lat="47.32079" lon="-1.47015">
        <ele>65</ele>
        <time>2021-01-02T12:29:39.000Z</time>
      </trkpt>
      <trkpt lat="47.32089" lon="-1.47008">
        <ele>65</ele>
        <time>2021-01-02T12:29:41.000Z</time>
      </trkpt>
      <trkpt lat="47.321" lon="-1.47001">
        <ele>66</ele>
        <time>2021-01-02T12:29:43.000Z</time>
      </trkpt>
      <trkpt lat="47.3211" lon="-1.46994">
        <ele>66</ele>
        <time>2021-01-02T12:29:45.000Z</time>
      </trkpt>
      <trkpt lat="47.3212" lon="-1.46987">
        <ele>66</ele>
        <time>2021-01-02T12:29:47.000Z</time>
      </trkpt>
      <trkpt lat="47.3213" lon="-1.4698">
        <ele>66</ele>
        <time>2021-01-02T12:29:49.000Z</time>
      </trkpt>
      <trkpt lat="47.32141" lon="-1.46973">
        <ele>66</ele>
        <time>2021-01-02T12:29:51.000Z</time>
      </trkpt>
      <trkpt lat="47.32151" lon="-1.46967">
        <ele>66</ele>
        <time>2021-01-02T12:29:53.000Z</time>
      </trkpt>
      <trkpt lat="47.32161" lon="-1.46959">
        <ele>67</ele>
        <time>2021-01-02T12:29:55.000Z</time>
      </trkpt>
      <trkpt lat="47.32171" lon="-1.46952">
        <ele>67</ele>
        <time>2021-01-02T12:29:57.000Z</time>
      </trkpt>
      <trkpt lat="47.32181" lon="-1.46943">
        <ele>67</ele>
        <time>2021-01-02T12:29:59.000Z</time>
      </trkpt>
      <trkpt lat="47.32191" lon="-1.46935">
        <ele>67</ele>
        <time>2021-01-02T12:30:01.000Z</time>
      </trkpt>
      <trkpt lat="47.32201" lon="-1.46926">
        <ele>66</ele>
        <time>2021-01-02T12:30:03.000Z</time>
      </trkpt>
      <trkpt lat="47.32211" lon="-1.46918">
        <ele>66</ele>
        <time>2021-01-02T12:30:05.000Z</time>
      </trkpt>
      <trkpt lat="47.32221" lon="-1.46909">
        <ele>66</ele>
        <time>2021-01-02T12:30:07.000Z</time>
      </trkpt>
      <trkpt lat="47.3223" lon="-1.469">
        <ele>66</ele>
        <time>2021-01-02T12:30:09.000Z</time>
      </trkpt>
      <trkpt lat="47.32239" lon="-1.46891">
        <ele>65</ele>
        <time>2021-01-02T12:30:11.000Z</time>
      </trkpt>
      <trkpt lat="47.32248" lon="-1.46881">
        <ele>65</ele>
        <time>2021-01-02T12:30:13.000Z</time>
      </trkpt>
      <trkpt lat="47.32258" lon="-1.46872">
        <ele>66</ele>
        <time>2021-01-02T12:30:15.000Z</time>
      </trkpt>
      <trkpt lat="47.32267" lon="-1.46863">
        <ele>66</ele>
        <time>2021-01-02T12:30:17.000Z</time>
      </trkpt>
      <trkpt lat="47.32277" lon="-1.46854">
        <ele>66</ele>
        <time>2021-01-02T12:30:19.000Z</time>
      </trkpt>
      <trkpt lat="47.32286" lon="-1.46844">
        <ele>66</ele>
        <time>2021-01-02T12:30:21.000Z</time>
      </trkpt>
      <trkpt lat="47.32295" lon="-1.46835">
        <ele>67</ele>
        <time>2021-01-02T12:30:23.000Z</time>
      </trkpt>
      <trkpt lat="47.32305" lon="-1.46826">
        <ele>67</ele>
        <time>2021-01-02T12:30:25.000Z</time>
      </trkpt>
      <trkpt lat="47.32314" lon="-1.46816">
        <ele>67</ele>
        <time>2021-01-02T12:30:27.000Z</time>
      </trkpt>
      <trkpt lat="47.32323" lon="-1.46806">
        <ele>66</ele>
        <time>2021-01-02T12:30:29.000Z</time>
      </trkpt>
      <trkpt lat="47.32332" lon="-1.46797">
        <ele>66</ele>
        <time>2021-01-02T12:30:31.000Z</time>
      </trkpt>
      <trkpt lat="47.32341" lon="-1.46788">
        <ele>67</ele>
        <time>2021-01-02T12:30:33.000Z</time>
      </trkpt>
      <trkpt lat="47.3235" lon="-1.46779">
        <ele>67</ele>
        <time>2021-01-02T12:30:35.000Z</time>
      </trkpt>
      <trkpt lat="47.32359" lon="-1.4677">
        <ele>67</ele>
        <time>2021-01-02T12:30:37.000Z</time>
      </trkpt>
      <trkpt lat="47.32368" lon="-1.4676">
        <ele>67</ele>
        <time>2021-01-02T12:30:39.000Z</time>
      </trkpt>
      <trkpt lat="47.32377" lon="-1.4675">
        <ele>67</ele>
        <time>2021-01-02T12:30:41.000Z</time>
      </trkpt>
      <trkpt lat="47.32387" lon="-1.46741">
        <ele>68</ele>
        <time>2021-01-02T12:30:43.000Z</time>
      </trkpt>
      <trkpt lat="47.32397" lon="-1.46731">
        <ele>68</ele>
        <time>2021-01-02T12:30:45.000Z</time>
      </trkpt>
      <trkpt lat="47.32406" lon="-1.46722">
        <ele>68</ele>
        <time>2021-01-02T12:30:47.000Z</time>
      </trkpt>
      <trkpt lat="47.32414" lon="-1.46712">
        <ele>68</ele>
        <time>2021-01-02T12:30:49.000Z</time>
      </trkpt>
      <trkpt lat="47.32423" lon="-1.46702">
        <ele>68</ele>
        <time>2021-01-02T12:30:51.000Z</time>
      </trkpt>
      <trkpt lat="47.32433" lon="-1.46693">
        <ele>68</ele>
        <time>2021-01-02T12:30:53.000Z</time>
      </trkpt>
      <trkpt lat="47.32443" lon="-1.46684">
        <ele>68</ele>
        <time>2021-01-02T12:30:55.000Z</time>
      </trkpt>
      <trkpt lat="47.32453" lon="-1.46675">
        <ele>68</ele>
        <time>2021-01-02T12:30:57.000Z</time>
      </trkpt>
      <trkpt lat="47.32462" lon="-1.46666">
        <ele>69</ele>
        <time>2021-01-02T12:30:59.000Z</time>
      </trkpt>
      <trkpt lat="47.32471" lon="-1.46657">
        <ele>69</ele>
        <time>2021-01-02T12:31:01.000Z</time>
      </trkpt>
      <trkpt lat="47.3248" lon="-1.46648">
        <ele>70</ele>
        <time>2021-01-02T12:31:03.000Z</time>
      </trkpt>
      <trkpt lat="47.32488" lon="-1.4664">
        <ele>69</ele>
        <time>2021-01-02T12:31:05.000Z</time>
      </trkpt>
      <trkpt lat="47.32496" lon="-1.46631">
        <ele>70</ele>
        <time>2021-01-02T12:31:07.000Z</time>
      </trkpt>
      <trkpt lat="47.32506" lon="-1.46622">
        <ele>70</ele>
        <time>2021-01-02T12:31:09.000Z</time>
      </trkpt>
      <trkpt lat="47.32515" lon="-1.46614">
        <ele>71</ele>
        <time>2021-01-02T12:31:11.000Z</time>
      </trkpt>
      <trkpt lat="47.32524" lon="-1.46605">
        <ele>71</ele>
        <time>2021-01-02T12:31:13.000Z</time>
      </trkpt>
      <trkpt lat="47.32532" lon="-1.46596">
        <ele>71</ele>
        <time>2021-01-02T12:31:15.000Z</time>
      </trkpt>
      <trkpt lat="47.3254" lon="-1.46587">
        <ele>71</ele>
        <time>2021-01-02T12:31:17.000Z</time>
      </trkpt>
      <trkpt lat="47.32549" lon="-1.46578">
        <ele>71</ele>
        <time>2021-01-02T12:31:19.000Z</time>
      </trkpt>
      <trkpt lat="47.32558" lon="-1.46569">
        <ele>72</ele>
        <time>2021-01-02T12:31:21.000Z</time>
      </trkpt>
      <trkpt lat="47.32567" lon="-1.4656">
        <ele>72</ele>
        <time>2021-01-02T12:31:23.000Z</time>
      </trkpt>
      <trkpt lat="47.32576" lon="-1.46551">
        <ele>72</ele>
        <time>2021-01-02T12:31:25.000Z</time>
      </trkpt>
      <trkpt lat="47.32585" lon="-1.46542">
        <ele>73</ele>
        <time>2021-01-02T12:31:27.000Z</time>
      </trkpt>
      <trkpt lat="47.32593" lon="-1.46531">
        <ele>73</ele>
        <time>2021-01-02T12:31:29.000Z</time>
      </trkpt>
      <trkpt lat="47.32601" lon="-1.4652">
        <ele>73</ele>
        <time>2021-01-02T12:31:31.000Z</time>
      </trkpt>
      <trkpt lat="47.32608" lon="-1.46508">
        <ele>73</ele>
        <time>2021-01-02T12:31:33.000Z</time>
      </trkpt>
      <trkpt lat="47.32614" lon="-1.46496">
        <ele>74</ele>
        <time>2021-01-02T12:31:35.000Z</time>
      </trkpt>
      <trkpt lat="47.3262" lon="-1.46484">
        <ele>74</ele>
        <time>2021-01-02T12:31:37.000Z</time>
      </trkpt>
      <trkpt lat="47.32625" lon="-1.4647">
        <ele>74</ele>
        <time>2021-01-02T12:31:39.000Z</time>
      </trkpt>
      <trkpt lat="47.3263" lon="-1.46455">
        <ele>74</ele>
        <time>2021-01-02T12:31:41.000Z</time>
      </trkpt>
      <trkpt lat="47.32634" lon="-1.46441">
        <ele>74</ele>
        <time>2021-01-02T12:31:43.000Z</time>
      </trkpt>
      <trkpt lat="47.32637" lon="-1.46426">
        <ele>75</ele>
        <time>2021-01-02T12:31:45.000Z</time>
      </trkpt>
      <trkpt lat="47.32639" lon="-1.46412">
        <ele>76</ele>
        <time>2021-01-02T12:31:47.000Z</time>
      </trkpt>
      <trkpt lat="47.32641" lon="-1.46398">
        <ele>76</ele>
        <time>2021-01-02T12:31:49.000Z</time>
      </trkpt>
      <trkpt lat="47.32642" lon="-1.46384">
        <ele>77</ele>
        <time>2021-01-02T12:31:51.000Z</time>
      </trkpt>
      <trkpt lat="47.32642" lon="-1.46371">
        <ele>77</ele>
        <time>2021-01-02T12:31:53.000Z</time>
      </trkpt>
      <trkpt lat="47.32643" lon="-1.46352">
        <ele>77</ele>
        <time>2021-01-02T12:31:56.000Z</time>
      </trkpt>
      <trkpt lat="47.32644" lon="-1.46338">
        <ele>77</ele>
        <time>2021-01-02T12:31:58.000Z</time>
      </trkpt>
      <trkpt lat="47.32647" lon="-1.46319">
        <ele>78</ele>
        <time>2021-01-02T12:32:01.000Z</time>
      </trkpt>
      <trkpt lat="47.3265" lon="-1.46301">
        <ele>79</ele>
        <time>2021-01-02T12:32:04.000Z</time>
      </trkpt>
      <trkpt lat="47.32656" lon="-1.46284">
        <ele>80</ele>
        <time>2021-01-02T12:32:07.000Z</time>
      </trkpt>
      <trkpt lat="47.32664" lon="-1.46269">
        <ele>81</ele>
        <time>2021-01-02T12:32:10.000Z</time>
      </trkpt>
      <trkpt lat="47.32673" lon="-1.46257">
        <ele>81</ele>
        <time>2021-01-02T12:32:13.000Z</time>
      </trkpt>
      <trkpt lat="47.32682" lon="-1.46245">
        <ele>82</ele>
        <time>2021-01-02T12:32:16.000Z</time>
      </trkpt>
      <trkpt lat="47.32692" lon="-1.46234">
        <ele>83</ele>
        <time>2021-01-02T12:32:19.000Z</time>
      </trkpt>
      <trkpt lat="47.32703" lon="-1.46225">
        <ele>84</ele>
        <time>2021-01-02T12:32:22.000Z</time>
      </trkpt>
      <trkpt lat="47.32713" lon="-1.46215">
        <ele>85</ele>
        <time>2021-01-02T12:32:25.000Z</time>
      </trkpt>
      <trkpt lat="47.32723" lon="-1.46207">
        <ele>86</ele>
        <time>2021-01-02T12:32:28.000Z</time>
      </trkpt>
      <trkpt lat="47.32734" lon="-1.46197">
        <ele>86</ele>
        <time>2021-01-02T12:32:31.000Z</time>
      </trkpt>
      <trkpt lat="47.32743" lon="-1.46185">
        <ele>86</ele>
        <time>2021-01-02T12:32:34.000Z</time>
      </trkpt>
      <trkpt lat="47.32752" lon="-1.46173">
        <ele>87</ele>
        <time>2021-01-02T12:32:37.000Z</time>
      </trkpt>
      <trkpt lat="47.32758" lon="-1.46157">
        <ele>88</ele>
        <time>2021-01-02T12:32:40.000Z</time>
      </trkpt>
      <trkpt lat="47.32761" lon="-1.4614">
        <ele>88</ele>
        <time>2021-01-02T12:32:43.000Z</time>
      </trkpt>
      <trkpt lat="47.32763" lon="-1.46122">
        <ele>89</ele>
        <time>2021-01-02T12:32:46.000Z</time>
      </trkpt>
      <trkpt lat="47.32762" lon="-1.46103">
        <ele>89</ele>
        <time>2021-01-02T12:32:49.000Z</time>
      </trkpt>
      <trkpt lat="47.3276" lon="-1.46083">
        <ele>90</ele>
        <time>2021-01-02T12:32:52.000Z</time>
      </trkpt>
      <trkpt lat="47.32758" lon="-1.46064">
        <ele>90</ele>
        <time>2021-01-02T12:32:55.000Z</time>
      </trkpt>
      <trkpt lat="47.32758" lon="-1.46046">
        <ele>90</ele>
        <time>2021-01-02T12:32:58.000Z</time>
      </trkpt>
      <trkpt lat="47.32759" lon="-1.46028">
        <ele>91</ele>
        <time>2021-01-02T12:33:01.000Z</time>
      </trkpt>
      <trkpt lat="47.32763" lon="-1.4601">
        <ele>92</ele>
        <time>2021-01-02T12:33:04.000Z</time>
      </trkpt>
      <trkpt lat="47.32769" lon="-1.45995">
        <ele>93</ele>
        <time>2021-01-02T12:33:07.000Z</time>
      </trkpt>
      <trkpt lat="47.32776" lon="-1.45981">
        <ele>94</ele>
        <time>2021-01-02T12:33:10.000Z</time>
      </trkpt>
      <trkpt lat="47.32784" lon="-1.45967">
        <ele>94</ele>
        <time>2021-01-02T12:33:13.000Z</time>
      </trkpt>
      <trkpt lat="47.32794" lon="-1.45953">
        <ele>95</ele>
        <time>2021-01-02T12:33:16.000Z</time>
      </trkpt>
      <trkpt lat="47.32803" lon="-1.45941">
        <ele>95</ele>
        <time>2021-01-02T12:33:19.000Z</time>
      </trkpt>
      <trkpt lat="47.32812" lon="-1.45929">
        <ele>97</ele>
        <time>2021-01-02T12:33:22.000Z</time>
      </trkpt>
      <trkpt lat="47.32822" lon="-1.45916">
        <ele>98</ele>
        <time>2021-01-02T12:33:25.000Z</time>
      </trkpt>
      <trkpt lat="47.32831" lon="-1.45904">
        <ele>98</ele>
        <time>2021-01-02T12:33:28.000Z</time>
      </trkpt>
      <trkpt lat="47.32841" lon="-1.45891">
        <ele>98</ele>
        <time>2021-01-02T12:33:31.000Z</time>
      </trkpt>
      <trkpt lat="47.3285" lon="-1.45878">
        <ele>98</ele>
        <time>2021-01-02T12:33:34.000Z</time>
      </trkpt>
      <trkpt lat="47.3286" lon="-1.45866">
        <ele>99</ele>
        <time>2021-01-02T12:33:37.000Z</time>
      </trkpt>
      <trkpt lat="47.3287" lon="-1.45853">
        <ele>99</ele>
        <time>2021-01-02T12:33:40.000Z</time>
      </trkpt>
      <trkpt lat="47.32877" lon="-1.45844">
        <ele>99</ele>
        <time>2021-01-02T12:33:42.000Z</time>
      </trkpt>
      <trkpt lat="47.32884" lon="-1.45835">
        <ele>99</ele>
        <time>2021-01-02T12:33:44.000Z</time>
      </trkpt>
      <trkpt lat="47.32893" lon="-1.45821">
        <ele>99</ele>
        <time>2021-01-02T12:33:47.000Z</time>
      </trkpt>
      <trkpt lat="47.329" lon="-1.45811">
        <ele>100</ele>
        <time>2021-01-02T12:33:49.000Z</time>
      </trkpt>
      <trkpt lat="47.32907" lon="-1.45801">
        <ele>100</ele>
        <time>2021-01-02T12:33:51.000Z</time>
      </trkpt>
      <trkpt lat="47.32914" lon="-1.45792">
        <ele>100</ele>
        <time>2021-01-02T12:33:53.000Z</time>
      </trkpt>
      <trkpt lat="47.32921" lon="-1.45782">
        <ele>101</ele>
        <time>2021-01-02T12:33:55.000Z</time>
      </trkpt>
      <trkpt lat="47.32928" lon="-1.45774">
        <ele>101</ele>
        <time>2021-01-02T12:33:57.000Z</time>
      </trkpt>
      <trkpt lat="47.32935" lon="-1.45765">
        <ele>101</ele>
        <time>2021-01-02T12:33:59.000Z</time>
      </trkpt>
      <trkpt lat="47.32942" lon="-1.45756">
        <ele>102</ele>
        <time>2021-01-02T12:34:01.000Z</time>
      </trkpt>
      <trkpt lat="47.32949" lon="-1.45747">
        <ele>103</ele>
        <time>2021-01-02T12:34:03.000Z</time>
      </trkpt>
      <trkpt lat="47.32956" lon="-1.45738">
        <ele>103</ele>
        <time>2021-01-02T12:34:05.000Z</time>
      </trkpt>
      <trkpt lat="47.32966" lon="-1.45724">
        <ele>103</ele>
        <time>2021-01-02T12:34:08.000Z</time>
      </trkpt>
      <trkpt lat="47.32973" lon="-1.45715">
        <ele>103</ele>
        <time>2021-01-02T12:34:10.000Z</time>
      </trkpt>
      <trkpt lat="47.3298" lon="-1.45706">
        <ele>103</ele>
        <time>2021-01-02T12:34:12.000Z</time>
      </trkpt>
      <trkpt lat="47.32987" lon="-1.45695">
        <ele>103</ele>
        <time>2021-01-02T12:34:14.000Z</time>
      </trkpt>
      <trkpt lat="47.32994" lon="-1.45686">
        <ele>103</ele>
        <time>2021-01-02T12:34:16.000Z</time>
      </trkpt>
      <trkpt lat="47.33001" lon="-1.45676">
        <ele>104</ele>
        <time>2021-01-02T12:34:18.000Z</time>
      </trkpt>
      <trkpt lat="47.33008" lon="-1.45667">
        <ele>104</ele>
        <time>2021-01-02T12:34:20.000Z</time>
      </trkpt>
      <trkpt lat="47.33015" lon="-1.45658">
        <ele>104</ele>
        <time>2021-01-02T12:34:22.000Z</time>
      </trkpt>
      <trkpt lat="47.33022" lon="-1.45649">
        <ele>104</ele>
        <time>2021-01-02T12:34:24.000Z</time>
      </trkpt>
      <trkpt lat="47.33029" lon="-1.45639">
        <ele>105</ele>
        <time>2021-01-02T12:34:26.000Z</time>
      </trkpt>
      <trkpt lat="47.33036" lon="-1.4563">
        <ele>105</ele>
        <time>2021-01-02T12:34:28.000Z</time>
      </trkpt>
      <trkpt lat="47.33043" lon="-1.4562">
        <ele>105</ele>
        <time>2021-01-02T12:34:30.000Z</time>
      </trkpt>
      <trkpt lat="47.3305" lon="-1.45611">
        <ele>106</ele>
        <time>2021-01-02T12:34:32.000Z</time>
      </trkpt>
      <trkpt lat="47.33057" lon="-1.45601">
        <ele>106</ele>
        <time>2021-01-02T12:34:34.000Z</time>
      </trkpt>
      <trkpt lat="47.33064" lon="-1.45592">
        <ele>106</ele>
        <time>2021-01-02T12:34:36.000Z</time>
      </trkpt>
      <trkpt lat="47.33071" lon="-1.45583">
        <ele>107</ele>
        <time>2021-01-02T12:34:38.000Z</time>
      </trkpt>
      <trkpt lat="47.33081" lon="-1.45569">
        <ele>107</ele>
        <time>2021-01-02T12:34:41.000Z</time>
      </trkpt>
      <trkpt lat="47.33088" lon="-1.4556">
        <ele>107</ele>
        <time>2021-01-02T12:34:43.000Z</time>
      </trkpt>
      <trkpt lat="47.33095" lon="-1.4555">
        <ele>107</ele>
        <time>2021-01-02T12:34:45.000Z</time>
      </trkpt>
      <trkpt lat="47.33102" lon="-1.4554">
        <ele>108</ele>
        <time>2021-01-02T12:34:47.000Z</time>
      </trkpt>
      <trkpt lat="47.33109" lon="-1.4553">
        <ele>107</ele>
        <time>2021-01-02T12:34:49.000Z</time>
      </trkpt>
      <trkpt lat="47.33117" lon="-1.45521">
        <ele>107</ele>
        <time>2021-01-02T12:34:51.000Z</time>
      </trkpt>
      <trkpt lat="47.33124" lon="-1.45511">
        <ele>107</ele>
        <time>2021-01-02T12:34:53.000Z</time>
      </trkpt>
      <trkpt lat="47.33131" lon="-1.45502">
        <ele>107</ele>
        <time>2021-01-02T12:34:55.000Z</time>
      </trkpt>
      <trkpt lat="47.33139" lon="-1.45494">
        <ele>108</ele>
        <time>2021-01-02T12:34:57.000Z</time>
      </trkpt>
      <trkpt lat="47.33147" lon="-1.45485">
        <ele>108</ele>
        <time>2021-01-02T12:34:59.000Z</time>
      </trkpt>
      <trkpt lat="47.33156" lon="-1.45477">
        <ele>108</ele>
        <time>2021-01-02T12:35:01.000Z</time>
      </trkpt>
      <trkpt lat="47.33164" lon="-1.45469">
        <ele>108</ele>
        <time>2021-01-02T12:35:03.000Z</time>
      </trkpt>
      <trkpt lat="47.33174" lon="-1.45463">
        <ele>108</ele>
        <time>2021-01-02T12:35:05.000Z</time>
      </trkpt>
      <trkpt lat="47.33183" lon="-1.45456">
        <ele>109</ele>
        <time>2021-01-02T12:35:07.000Z</time>
      </trkpt>
      <trkpt lat="47.33193" lon="-1.4545">
        <ele>109</ele>
        <time>2021-01-02T12:35:09.000Z</time>
      </trkpt>
      <trkpt lat="47.33203" lon="-1.45445">
        <ele>109</ele>
        <time>2021-01-02T12:35:11.000Z</time>
      </trkpt>
      <trkpt lat="47.33214" lon="-1.45441">
        <ele>109</ele>
        <time>2021-01-02T12:35:13.000Z</time>
      </trkpt>
      <trkpt lat="47.33224" lon="-1.45436">
        <ele>109</ele>
        <time>2021-01-02T12:35:15.000Z</time>
      </trkpt>
      <trkpt lat="47.33234" lon="-1.45431">
        <ele>110</ele>
        <time>2021-01-02T12:35:17.000Z</time>
      </trkpt>
      <trkpt lat="47.33245" lon="-1.45427">
        <ele>110</ele>
        <time>2021-01-02T12:35:19.000Z</time>
      </trkpt>
      <trkpt lat="47.33255" lon="-1.45422">
        <ele>110</ele>
        <time>2021-01-02T12:35:21.000Z</time>
      </trkpt>
      <trkpt lat="47.33266" lon="-1.45418">
        <ele>110</ele>
        <time>2021-01-02T12:35:23.000Z</time>
      </trkpt>
      <trkpt lat="47.33276" lon="-1.45413">
        <ele>110</ele>
        <time>2021-01-02T12:35:25.000Z</time>
      </trkpt>
      <trkpt lat="47.33286" lon="-1.45409">
        <ele>111</ele>
        <time>2021-01-02T12:35:27.000Z</time>
      </trkpt>
      <trkpt lat="47.33297" lon="-1.45404">
        <ele>110</ele>
        <time>2021-01-02T12:35:29.000Z</time>
      </trkpt>
      <trkpt lat="47.33307" lon="-1.454">
        <ele>110</ele>
        <time>2021-01-02T12:35:31.000Z</time>
      </trkpt>
      <trkpt lat="47.33318" lon="-1.45395">
        <ele>110</ele>
        <time>2021-01-02T12:35:33.000Z</time>
      </trkpt>
      <trkpt lat="47.33328" lon="-1.45391">
        <ele>110</ele>
        <time>2021-01-02T12:35:35.000Z</time>
      </trkpt>
      <trkpt lat="47.33339" lon="-1.45386">
        <ele>111</ele>
        <time>2021-01-02T12:35:37.000Z</time>
      </trkpt>
      <trkpt lat="47.3335" lon="-1.45382">
        <ele>111</ele>
        <time>2021-01-02T12:35:39.000Z</time>
      </trkpt>
      <trkpt lat="47.3336" lon="-1.45378">
        <ele>111</ele>
        <time>2021-01-02T12:35:41.000Z</time>
      </trkpt>
      <trkpt lat="47.33371" lon="-1.45374">
        <ele>111</ele>
        <time>2021-01-02T12:35:43.000Z</time>
      </trkpt>
      <trkpt lat="47.33382" lon="-1.4537">
        <ele>110</ele>
        <time>2021-01-02T12:35:45.000Z</time>
      </trkpt>
      <trkpt lat="47.33393" lon="-1.45366">
        <ele>111</ele>
        <time>2021-01-02T12:35:47.000Z</time>
      </trkpt>
      <trkpt lat="47.33404" lon="-1.45361">
        <ele>111</ele>
        <time>2021-01-02T12:35:49.000Z</time>
      </trkpt>
      <trkpt lat="47.33415" lon="-1.45357">
        <ele>111</ele>
        <time>2021-01-02T12:35:51.000Z</time>
      </trkpt>
      <trkpt lat="47.33425" lon="-1.45352">
        <ele>111</ele>
        <time>2021-01-02T12:35:53.000Z</time>
      </trkpt>
      <trkpt lat="47.33436" lon="-1.45347">
        <ele>111</ele>
        <time>2021-01-02T12:35:55.000Z</time>
      </trkpt>
      <trkpt lat="47.33447" lon="-1.45342">
        <ele>111</ele>
        <time>2021-01-02T12:35:57.000Z</time>
      </trkpt>
      <trkpt lat="47.33458" lon="-1.45338">
        <ele>110</ele>
        <time>2021-01-02T12:35:59.000Z</time>
      </trkpt>
      <trkpt lat="47.3347" lon="-1.45333">
        <ele>110</ele>
        <time>2021-01-02T12:36:01.000Z</time>
      </trkpt>
      <trkpt lat="47.33481" lon="-1.45328">
        <ele>110</ele>
        <time>2021-01-02T12:36:03.000Z</time>
      </trkpt>
      <trkpt lat="47.33493" lon="-1.45325">
        <ele>110</ele>
        <time>2021-01-02T12:36:05.000Z</time>
      </trkpt>
      <trkpt lat="47.33504" lon="-1.45319">
        <ele>110</ele>
        <time>2021-01-02T12:36:07.000Z</time>
      </trkpt>
      <trkpt lat="47.33516" lon="-1.45315">
        <ele>110</ele>
        <time>2021-01-02T12:36:09.000Z</time>
      </trkpt>
      <trkpt lat="47.33528" lon="-1.4531">
        <ele>110</ele>
        <time>2021-01-02T12:36:11.000Z</time>
      </trkpt>
      <trkpt lat="47.3354" lon="-1.45304">
        <ele>110</ele>
        <time>2021-01-02T12:36:13.000Z</time>
      </trkpt>
      <trkpt lat="47.33552" lon="-1.45299">
        <ele>109</ele>
        <time>2021-01-02T12:36:15.000Z</time>
      </trkpt>
      <trkpt lat="47.33564" lon="-1.45294">
        <ele>109</ele>
        <time>2021-01-02T12:36:17.000Z</time>
      </trkpt>
      <trkpt lat="47.33577" lon="-1.45288">
        <ele>109</ele>
        <time>2021-01-02T12:36:19.000Z</time>
      </trkpt>
      <trkpt lat="47.33591" lon="-1.45283">
        <ele>108</ele>
        <time>2021-01-02T12:36:21.000Z</time>
      </trkpt>
      <trkpt lat="47.33604" lon="-1.45277">
        <ele>108</ele>
        <time>2021-01-02T12:36:23.000Z</time>
      </trkpt>
      <trkpt lat="47.33618" lon="-1.45271">
        <ele>108</ele>
        <time>2021-01-02T12:36:25.000Z</time>
      </trkpt>
      <trkpt lat="47.33632" lon="-1.45264">
        <ele>108</ele>
        <time>2021-01-02T12:36:27.000Z</time>
      </trkpt>
      <trkpt lat="47.33645" lon="-1.45259">
        <ele>108</ele>
        <time>2021-01-02T12:36:29.000Z</time>
      </trkpt>
      <trkpt lat="47.3366" lon="-1.45253">
        <ele>107</ele>
        <time>2021-01-02T12:36:31.000Z</time>
      </trkpt>
      <trkpt lat="47.33674" lon="-1.45246">
        <ele>107</ele>
        <time>2021-01-02T12:36:33.000Z</time>
      </trkpt>
      <trkpt lat="47.33688" lon="-1.45241">
        <ele>107</ele>
        <time>2021-01-02T12:36:35.000Z</time>
      </trkpt>
      <trkpt lat="47.33702" lon="-1.45235">
        <ele>106</ele>
        <time>2021-01-02T12:36:37.000Z</time>
      </trkpt>
      <trkpt lat="47.33715" lon="-1.45229">
        <ele>106</ele>
        <time>2021-01-02T12:36:39.000Z</time>
      </trkpt>
      <trkpt lat="47.33729" lon="-1.45223">
        <ele>106</ele>
        <time>2021-01-02T12:36:41.000Z</time>
      </trkpt>
      <trkpt lat="47.33743" lon="-1.45217">
        <ele>106</ele>
        <time>2021-01-02T12:36:43.000Z</time>
      </trkpt>
      <trkpt lat="47.33757" lon="-1.4521">
        <ele>106</ele>
        <time>2021-01-02T12:36:45.000Z</time>
      </trkpt>
      <trkpt lat="47.3377" lon="-1.45203">
        <ele>105</ele>
        <time>2021-01-02T12:36:47.000Z</time>
      </trkpt>
      <trkpt lat="47.33783" lon="-1.45193">
        <ele>105</ele>
        <time>2021-01-02T12:36:49.000Z</time>
      </trkpt>
      <trkpt lat="47.33795" lon="-1.4518">
        <ele>105</ele>
        <time>2021-01-02T12:36:51.000Z</time>
      </trkpt>
      <trkpt lat="47.33806" lon="-1.45165">
        <ele>105</ele>
        <time>2021-01-02T12:36:53.000Z</time>
      </trkpt>
      <trkpt lat="47.33815" lon="-1.45148">
        <ele>104</ele>
        <time>2021-01-02T12:36:55.000Z</time>
      </trkpt>
      <trkpt lat="47.33823" lon="-1.4513">
        <ele>103</ele>
        <time>2021-01-02T12:36:57.000Z</time>
      </trkpt>
      <trkpt lat="47.3383" lon="-1.4511">
        <ele>103</ele>
        <time>2021-01-02T12:36:59.000Z</time>
      </trkpt>
      <trkpt lat="47.33836" lon="-1.45089">
        <ele>103</ele>
        <time>2021-01-02T12:37:01.000Z</time>
      </trkpt>
      <trkpt lat="47.33842" lon="-1.4507">
        <ele>103</ele>
        <time>2021-01-02T12:37:03.000Z</time>
      </trkpt>
      <trkpt lat="47.33848" lon="-1.4505">
        <ele>102</ele>
        <time>2021-01-02T12:37:05.000Z</time>
      </trkpt>
      <trkpt lat="47.33854" lon="-1.4503">
        <ele>102</ele>
        <time>2021-01-02T12:37:07.000Z</time>
      </trkpt>
      <trkpt lat="47.33861" lon="-1.45012">
        <ele>102</ele>
        <time>2021-01-02T12:37:09.000Z</time>
      </trkpt>
      <trkpt lat="47.33867" lon="-1.44993">
        <ele>101</ele>
        <time>2021-01-02T12:37:11.000Z</time>
      </trkpt>
      <trkpt lat="47.33873" lon="-1.44974">
        <ele>101</ele>
        <time>2021-01-02T12:37:13.000Z</time>
      </trkpt>
      <trkpt lat="47.33879" lon="-1.44955">
        <ele>101</ele>
        <time>2021-01-02T12:37:15.000Z</time>
      </trkpt>
      <trkpt lat="47.33885" lon="-1.44935">
        <ele>100</ele>
        <time>2021-01-02T12:37:17.000Z</time>
      </trkpt>
      <trkpt lat="47.33891" lon="-1.44915">
        <ele>100</ele>
        <time>2021-01-02T12:37:19.000Z</time>
      </trkpt>
      <trkpt lat="47.33897" lon="-1.44896">
        <ele>100</ele>
        <time>2021-01-02T12:37:21.000Z</time>
      </trkpt>
      <trkpt lat="47.33904" lon="-1.44876">
        <ele>99</ele>
        <time>2021-01-02T12:37:23.000Z</time>
      </trkpt>
      <trkpt lat="47.3391" lon="-1.44855">
        <ele>99</ele>
        <time>2021-01-02T12:37:25.000Z</time>
      </trkpt>
      <trkpt lat="47.33916" lon="-1.44834">
        <ele>98</ele>
        <time>2021-01-02T12:37:27.000Z</time>
      </trkpt>
      <trkpt lat="47.33923" lon="-1.44814">
        <ele>98</ele>
        <time>2021-01-02T12:37:29.000Z</time>
      </trkpt>
      <trkpt lat="47.3393" lon="-1.44792">
        <ele>97</ele>
        <time>2021-01-02T12:37:31.000Z</time>
      </trkpt>
      <trkpt lat="47.33936" lon="-1.44771">
        <ele>96</ele>
        <time>2021-01-02T12:37:33.000Z</time>
      </trkpt>
      <trkpt lat="47.33943" lon="-1.44749">
        <ele>95</ele>
        <time>2021-01-02T12:37:35.000Z</time>
      </trkpt>
      <trkpt lat="47.3395" lon="-1.44727">
        <ele>95</ele>
        <time>2021-01-02T12:37:37.000Z</time>
      </trkpt>
      <trkpt lat="47.33957" lon="-1.44705">
        <ele>94</ele>
        <time>2021-01-02T12:37:39.000Z</time>
      </trkpt>
      <trkpt lat="47.33964" lon="-1.44683">
        <ele>93</ele>
        <time>2021-01-02T12:37:41.000Z</time>
      </trkpt>
      <trkpt lat="47.33971" lon="-1.44661">
        <ele>92</ele>
        <time>2021-01-02T12:37:43.000Z</time>
      </trkpt>
      <trkpt lat="47.33978" lon="-1.44637">
        <ele>92</ele>
        <time>2021-01-02T12:37:45.000Z</time>
      </trkpt>
      <trkpt lat="47.33986" lon="-1.44614">
        <ele>92</ele>
        <time>2021-01-02T12:37:47.000Z</time>
      </trkpt>
      <trkpt lat="47.33993" lon="-1.44592">
        <ele>92</ele>
        <time>2021-01-02T12:37:49.000Z</time>
      </trkpt>
      <trkpt lat="47.34" lon="-1.44572">
        <ele>92</ele>
        <time>2021-01-02T12:37:51.000Z</time>
      </trkpt>
      <trkpt lat="47.34006" lon="-1.44552">
        <ele>93</ele>
        <time>2021-01-02T12:37:53.000Z</time>
      </trkpt>
      <trkpt lat="47.34012" lon="-1.44534">
        <ele>93</ele>
        <time>2021-01-02T12:37:55.000Z</time>
      </trkpt>
      <trkpt lat="47.34018" lon="-1.44518">
        <ele>93</ele>
        <time>2021-01-02T12:37:57.000Z</time>
      </trkpt>
      <trkpt lat="47.34023" lon="-1.445">
        <ele>92</ele>
        <time>2021-01-02T12:37:59.000Z</time>
      </trkpt>
      <trkpt lat="47.34028" lon="-1.44484">
        <ele>92</ele>
        <time>2021-01-02T12:38:01.000Z</time>
      </trkpt>
      <trkpt lat="47.34033" lon="-1.44467">
        <ele>93</ele>
        <time>2021-01-02T12:38:03.000Z</time>
      </trkpt>
      <trkpt lat="47.34039" lon="-1.44451">
        <ele>93</ele>
        <time>2021-01-02T12:38:05.000Z</time>
      </trkpt>
      <trkpt lat="47.34044" lon="-1.44436">
        <ele>93</ele>
        <time>2021-01-02T12:38:07.000Z</time>
      </trkpt>
      <trkpt lat="47.34048" lon="-1.4442">
        <ele>94</ele>
        <time>2021-01-02T12:38:09.000Z</time>
      </trkpt>
      <trkpt lat="47.34053" lon="-1.44406">
        <ele>94</ele>
        <time>2021-01-02T12:38:11.000Z</time>
      </trkpt>
      <trkpt lat="47.34058" lon="-1.44392">
        <ele>94</ele>
        <time>2021-01-02T12:38:13.000Z</time>
      </trkpt>
      <trkpt lat="47.34062" lon="-1.44377">
        <ele>94</ele>
        <time>2021-01-02T12:38:15.000Z</time>
      </trkpt>
      <trkpt lat="47.34067" lon="-1.44361">
        <ele>94</ele>
        <time>2021-01-02T12:38:17.000Z</time>
      </trkpt>
      <trkpt lat="47.34071" lon="-1.44346">
        <ele>95</ele>
        <time>2021-01-02T12:38:19.000Z</time>
      </trkpt>
      <trkpt lat="47.34076" lon="-1.44332">
        <ele>95</ele>
        <time>2021-01-02T12:38:21.000Z</time>
      </trkpt>
      <trkpt lat="47.3408" lon="-1.44317">
        <ele>95</ele>
        <time>2021-01-02T12:38:23.000Z</time>
      </trkpt>
      <trkpt lat="47.34084" lon="-1.44304">
        <ele>95</ele>
        <time>2021-01-02T12:38:25.000Z</time>
      </trkpt>
      <trkpt lat="47.34089" lon="-1.4429">
        <ele>96</ele>
        <time>2021-01-02T12:38:27.000Z</time>
      </trkpt>
      <trkpt lat="47.34093" lon="-1.44276">
        <ele>96</ele>
        <time>2021-01-02T12:38:29.000Z</time>
      </trkpt>
      <trkpt lat="47.34098" lon="-1.44261">
        <ele>97</ele>
        <time>2021-01-02T12:38:31.000Z</time>
      </trkpt>
      <trkpt lat="47.34102" lon="-1.44246">
        <ele>97</ele>
        <time>2021-01-02T12:38:33.000Z</time>
      </trkpt>
      <trkpt lat="47.34107" lon="-1.44233">
        <ele>98</ele>
        <time>2021-01-02T12:38:35.000Z</time>
      </trkpt>
      <trkpt lat="47.34111" lon="-1.4422">
        <ele>98</ele>
        <time>2021-01-02T12:38:37.000Z</time>
      </trkpt>
      <trkpt lat="47.34116" lon="-1.44205">
        <ele>98</ele>
        <time>2021-01-02T12:38:39.000Z</time>
      </trkpt>
      <trkpt lat="47.3412" lon="-1.44191">
        <ele>98</ele>
        <time>2021-01-02T12:38:41.000Z</time>
      </trkpt>
      <trkpt lat="47.34125" lon="-1.44177">
        <ele>98</ele>
        <time>2021-01-02T12:38:43.000Z</time>
      </trkpt>
      <trkpt lat="47.34129" lon="-1.44163">
        <ele>99</ele>
        <time>2021-01-02T12:38:45.000Z</time>
      </trkpt>
      <trkpt lat="47.34134" lon="-1.44149">
        <ele>99</ele>
        <time>2021-01-02T12:38:47.000Z</time>
      </trkpt>
      <trkpt lat="47.34139" lon="-1.44134">
        <ele>99</ele>
        <time>2021-01-02T12:38:49.000Z</time>
      </trkpt>
      <trkpt lat="47.34143" lon="-1.4412">
        <ele>100</ele>
        <time>2021-01-02T12:38:51.000Z</time>
      </trkpt>
      <trkpt lat="47.34148" lon="-1.44106">
        <ele>100</ele>
        <time>2021-01-02T12:38:53.000Z</time>
      </trkpt>
      <trkpt lat="47.34152" lon="-1.44092">
        <ele>101</ele>
        <time>2021-01-02T12:38:55.000Z</time>
      </trkpt>
      <trkpt lat="47.34157" lon="-1.44078">
        <ele>102</ele>
        <time>2021-01-02T12:38:57.000Z</time>
      </trkpt>
      <trkpt lat="47.34161" lon="-1.44064">
        <ele>103</ele>
        <time>2021-01-02T12:38:59.000Z</time>
      </trkpt>
      <trkpt lat="47.34165" lon="-1.44049">
        <ele>103</ele>
        <time>2021-01-02T12:39:01.000Z</time>
      </trkpt>
      <trkpt lat="47.3417" lon="-1.44035">
        <ele>103</ele>
        <time>2021-01-02T12:39:03.000Z</time>
      </trkpt>
      <trkpt lat="47.34174" lon="-1.4402">
        <ele>103</ele>
        <time>2021-01-02T12:39:05.000Z</time>
      </trkpt>
      <trkpt lat="47.34178" lon="-1.44007">
        <ele>104</ele>
        <time>2021-01-02T12:39:07.000Z</time>
      </trkpt>
      <trkpt lat="47.34182" lon="-1.43993">
        <ele>103</ele>
        <time>2021-01-02T12:39:09.000Z</time>
      </trkpt>
      <trkpt lat="47.34186" lon="-1.43979">
        <ele>104</ele>
        <time>2021-01-02T12:39:11.000Z</time>
      </trkpt>
      <trkpt lat="47.34191" lon="-1.43964">
        <ele>104</ele>
        <time>2021-01-02T12:39:13.000Z</time>
      </trkpt>
      <trkpt lat="47.34195" lon="-1.4395">
        <ele>105</ele>
        <time>2021-01-02T12:39:15.000Z</time>
      </trkpt>
      <trkpt lat="47.342" lon="-1.43935">
        <ele>105</ele>
        <time>2021-01-02T12:39:17.000Z</time>
      </trkpt>
      <trkpt lat="47.34205" lon="-1.43921">
        <ele>105</ele>
        <time>2021-01-02T12:39:19.000Z</time>
      </trkpt>
      <trkpt lat="47.34209" lon="-1.43906">
        <ele>106</ele>
        <time>2021-01-02T12:39:21.000Z</time>
      </trkpt>
      <trkpt lat="47.34214" lon="-1.43892">
        <ele>106</ele>
        <time>2021-01-02T12:39:23.000Z</time>
      </trkpt>
      <trkpt lat="47.34219" lon="-1.43877">
        <ele>106</ele>
        <time>2021-01-02T12:39:25.000Z</time>
      </trkpt>
      <trkpt lat="47.34223" lon="-1.43862">
        <ele>107</ele>
        <time>2021-01-02T12:39:27.000Z</time>
      </trkpt>
      <trkpt lat="47.34228" lon="-1.43847">
        <ele>107</ele>
        <time>2021-01-02T12:39:29.000Z</time>
      </trkpt>
      <trkpt lat="47.34233" lon="-1.43832">
        <ele>107</ele>
        <time>2021-01-02T12:39:31.000Z</time>
      </trkpt>
      <trkpt lat="47.34238" lon="-1.43817">
        <ele>107</ele>
        <time>2021-01-02T12:39:33.000Z</time>
      </trkpt>
      <trkpt lat="47.34243" lon="-1.43802">
        <ele>107</ele>
        <time>2021-01-02T12:39:35.000Z</time>
      </trkpt>
      <trkpt lat="47.34247" lon="-1.43787">
        <ele>107</ele>
        <time>2021-01-02T12:39:37.000Z</time>
      </trkpt>
      <trkpt lat="47.34252" lon="-1.43771">
        <ele>107</ele>
        <time>2021-01-02T12:39:39.000Z</time>
      </trkpt>
      <trkpt lat="47.34257" lon="-1.43757">
        <ele>107</ele>
        <time>2021-01-02T12:39:41.000Z</time>
      </trkpt>
      <trkpt lat="47.34262" lon="-1.43742">
        <ele>108</ele>
        <time>2021-01-02T12:39:43.000Z</time>
      </trkpt>
      <trkpt lat="47.34266" lon="-1.43727">
        <ele>108</ele>
        <time>2021-01-02T12:39:45.000Z</time>
      </trkpt>
      <trkpt lat="47.34271" lon="-1.43712">
        <ele>109</ele>
        <time>2021-01-02T12:39:47.000Z</time>
      </trkpt>
      <trkpt lat="47.34276" lon="-1.43697">
        <ele>109</ele>
        <time>2021-01-02T12:39:49.000Z</time>
      </trkpt>
      <trkpt lat="47.3428" lon="-1.43683">
        <ele>110</ele>
        <time>2021-01-02T12:39:51.000Z</time>
      </trkpt>
      <trkpt lat="47.34285" lon="-1.43669">
        <ele>110</ele>
        <time>2021-01-02T12:39:53.000Z</time>
      </trkpt>
      <trkpt lat="47.34289" lon="-1.43655">
        <ele>111</ele>
        <time>2021-01-02T12:39:55.000Z</time>
      </trkpt>
      <trkpt lat="47.34293" lon="-1.4364">
        <ele>111</ele>
        <time>2021-01-02T12:39:57.000Z</time>
      </trkpt>
      <trkpt lat="47.34298" lon="-1.43625">
        <ele>111</ele>
        <time>2021-01-02T12:39:59.000Z</time>
      </trkpt>
      <trkpt lat="47.34303" lon="-1.4361">
        <ele>111</ele>
        <time>2021-01-02T12:40:01.000Z</time>
      </trkpt>
      <trkpt lat="47.34307" lon="-1.43595">
        <ele>111</ele>
        <time>2021-01-02T12:40:03.000Z</time>
      </trkpt>
      <trkpt lat="47.34312" lon="-1.43581">
        <ele>111</ele>
        <time>2021-01-02T12:40:05.000Z</time>
      </trkpt>
      <trkpt lat="47.34317" lon="-1.43566">
        <ele>111</ele>
        <time>2021-01-02T12:40:07.000Z</time>
      </trkpt>
      <trkpt lat="47.34322" lon="-1.43551">
        <ele>112</ele>
        <time>2021-01-02T12:40:09.000Z</time>
      </trkpt>
      <trkpt lat="47.34326" lon="-1.43536">
        <ele>112</ele>
        <time>2021-01-02T12:40:11.000Z</time>
      </trkpt>
      <trkpt lat="47.34331" lon="-1.43521">
        <ele>111</ele>
        <time>2021-01-02T12:40:13.000Z</time>
      </trkpt>
      <trkpt lat="47.34336" lon="-1.43505">
        <ele>112</ele>
        <time>2021-01-02T12:40:15.000Z</time>
      </trkpt>
      <trkpt lat="47.34341" lon="-1.43491">
        <ele>112</ele>
        <time>2021-01-02T12:40:17.000Z</time>
      </trkpt>
      <trkpt lat="47.34345" lon="-1.43476">
        <ele>112</ele>
        <time>2021-01-02T12:40:19.000Z</time>
      </trkpt>
      <trkpt lat="47.34351" lon="-1.43461">
        <ele>112</ele>
        <time>2021-01-02T12:40:21.000Z</time>
      </trkpt>
      <trkpt lat="47.34356" lon="-1.43446">
        <ele>112</ele>
        <time>2021-01-02T12:40:23.000Z</time>
      </trkpt>
      <trkpt lat="47.3436" lon="-1.43431">
        <ele>112</ele>
        <time>2021-01-02T12:40:25.000Z</time>
      </trkpt>
      <trkpt lat="47.34364" lon="-1.43415">
        <ele>112</ele>
        <time>2021-01-02T12:40:27.000Z</time>
      </trkpt>
      <trkpt lat="47.34369" lon="-1.43401">
        <ele>112</ele>
        <time>2021-01-02T12:40:29.000Z</time>
      </trkpt>
      <trkpt lat="47.34374" lon="-1.43385">
        <ele>112</ele>
        <time>2021-01-02T12:40:31.000Z</time>
      </trkpt>
      <trkpt lat="47.34379" lon="-1.4337">
        <ele>113</ele>
        <time>2021-01-02T12:40:33.000Z</time>
      </trkpt>
      <trkpt lat="47.34384" lon="-1.43354">
        <ele>113</ele>
        <time>2021-01-02T12:40:35.000Z</time>
      </trkpt>
      <trkpt lat="47.34388" lon="-1.43339">
        <ele>113</ele>
        <time>2021-01-02T12:40:37.000Z</time>
      </trkpt>
      <trkpt lat="47.34393" lon="-1.43322">
        <ele>113</ele>
        <time>2021-01-02T12:40:39.000Z</time>
      </trkpt>
      <trkpt lat="47.34399" lon="-1.43306">
        <ele>114</ele>
        <time>2021-01-02T12:40:41.000Z</time>
      </trkpt>
      <trkpt lat="47.34404" lon="-1.43289">
        <ele>113</ele>
        <time>2021-01-02T12:40:43.000Z</time>
      </trkpt>
      <trkpt lat="47.34409" lon="-1.43273">
        <ele>114</ele>
        <time>2021-01-02T12:40:45.000Z</time>
      </trkpt>
      <trkpt lat="47.34414" lon="-1.43257">
        <ele>114</ele>
        <time>2021-01-02T12:40:47.000Z</time>
      </trkpt>
      <trkpt lat="47.34419" lon="-1.43241">
        <ele>114</ele>
        <time>2021-01-02T12:40:49.000Z</time>
      </trkpt>
      <trkpt lat="47.34424" lon="-1.43224">
        <ele>114</ele>
        <time>2021-01-02T12:40:51.000Z</time>
      </trkpt>
      <trkpt lat="47.3443" lon="-1.43208">
        <ele>114</ele>
        <time>2021-01-02T12:40:53.000Z</time>
      </trkpt>
      <trkpt lat="47.34435" lon="-1.43191">
        <ele>114</ele>
        <time>2021-01-02T12:40:55.000Z</time>
      </trkpt>
      <trkpt lat="47.3444" lon="-1.43175">
        <ele>114</ele>
        <time>2021-01-02T12:40:57.000Z</time>
      </trkpt>
      <trkpt lat="47.34446" lon="-1.43158">
        <ele>114</ele>
        <time>2021-01-02T12:40:59.000Z</time>
      </trkpt>
      <trkpt lat="47.34451" lon="-1.43141">
        <ele>113</ele>
        <time>2021-01-02T12:41:01.000Z</time>
      </trkpt>
      <trkpt lat="47.34456" lon="-1.43125">
        <ele>113</ele>
        <time>2021-01-02T12:41:03.000Z</time>
      </trkpt>
      <trkpt lat="47.34462" lon="-1.43108">
        <ele>113</ele>
        <time>2021-01-02T12:41:05.000Z</time>
      </trkpt>
      <trkpt lat="47.34467" lon="-1.43091">
        <ele>114</ele>
        <time>2021-01-02T12:41:07.000Z</time>
      </trkpt>
      <trkpt lat="47.34473" lon="-1.43074">
        <ele>114</ele>
        <time>2021-01-02T12:41:09.000Z</time>
      </trkpt>
      <trkpt lat="47.34478" lon="-1.43057">
        <ele>115</ele>
        <time>2021-01-02T12:41:11.000Z</time>
      </trkpt>
      <trkpt lat="47.34483" lon="-1.4304">
        <ele>114</ele>
        <time>2021-01-02T12:41:13.000Z</time>
      </trkpt>
      <trkpt lat="47.34489" lon="-1.43023">
        <ele>114</ele>
        <time>2021-01-02T12:41:15.000Z</time>
      </trkpt>
      <trkpt lat="47.34494" lon="-1.43005">
        <ele>114</ele>
        <time>2021-01-02T12:41:17.000Z</time>
      </trkpt>
      <trkpt lat="47.345" lon="-1.42988">
        <ele>114</ele>
        <time>2021-01-02T12:41:19.000Z</time>
      </trkpt>
      <trkpt lat="47.34505" lon="-1.4297">
        <ele>114</ele>
        <time>2021-01-02T12:41:21.000Z</time>
      </trkpt>
      <trkpt lat="47.3451" lon="-1.42952">
        <ele>113</ele>
        <time>2021-01-02T12:41:23.000Z</time>
      </trkpt>
      <trkpt lat="47.34516" lon="-1.42935">
        <ele>113</ele>
        <time>2021-01-02T12:41:25.000Z</time>
      </trkpt>
      <trkpt lat="47.34522" lon="-1.42917">
        <ele>113</ele>
        <time>2021-01-02T12:41:27.000Z</time>
      </trkpt>
      <trkpt lat="47.34527" lon="-1.429">
        <ele>113</ele>
        <time>2021-01-02T12:41:29.000Z</time>
      </trkpt>
      <trkpt lat="47.34533" lon="-1.42882">
        <ele>113</ele>
        <time>2021-01-02T12:41:31.000Z</time>
      </trkpt>
      <trkpt lat="47.34538" lon="-1.42864">
        <ele>113</ele>
        <time>2021-01-02T12:41:33.000Z</time>
      </trkpt>
      <trkpt lat="47.34544" lon="-1.42846">
        <ele>113</ele>
        <time>2021-01-02T12:41:35.000Z</time>
      </trkpt>
      <trkpt lat="47.3455" lon="-1.42828">
        <ele>113</ele>
        <time>2021-01-02T12:41:37.000Z</time>
      </trkpt>
      <trkpt lat="47.34555" lon="-1.42809">
        <ele>113</ele>
        <time>2021-01-02T12:41:39.000Z</time>
      </trkpt>
      <trkpt lat="47.34561" lon="-1.42791">
        <ele>112</ele>
        <time>2021-01-02T12:41:41.000Z</time>
      </trkpt>
      <trkpt lat="47.34566" lon="-1.42772">
        <ele>112</ele>
        <time>2021-01-02T12:41:43.000Z</time>
      </trkpt>
      <trkpt lat="47.34572" lon="-1.42753">
        <ele>112</ele>
        <time>2021-01-02T12:41:45.000Z</time>
      </trkpt>
      <trkpt lat="47.34578" lon="-1.42734">
        <ele>112</ele>
        <time>2021-01-02T12:41:47.000Z</time>
      </trkpt>
      <trkpt lat="47.34584" lon="-1.42717">
        <ele>112</ele>
        <time>2021-01-02T12:41:49.000Z</time>
      </trkpt>
      <trkpt lat="47.3459" lon="-1.42699">
        <ele>112</ele>
        <time>2021-01-02T12:41:51.000Z</time>
      </trkpt>
      <trkpt lat="47.34596" lon="-1.42679">
        <ele>112</ele>
        <time>2021-01-02T12:41:53.000Z</time>
      </trkpt>
      <trkpt lat="47.34603" lon="-1.4266">
        <ele>111</ele>
        <time>2021-01-02T12:41:55.000Z</time>
      </trkpt>
      <trkpt lat="47.34608" lon="-1.42639">
        <ele>111</ele>
        <time>2021-01-02T12:41:57.000Z</time>
      </trkpt>
      <trkpt lat="47.34615" lon="-1.42619">
        <ele>110</ele>
        <time>2021-01-02T12:41:59.000Z</time>
      </trkpt>
      <trkpt lat="47.34622" lon="-1.42598">
        <ele>109</ele>
        <time>2021-01-02T12:42:01.000Z</time>
      </trkpt>
      <trkpt lat="47.3463" lon="-1.42577">
        <ele>109</ele>
        <time>2021-01-02T12:42:03.000Z</time>
      </trkpt>
      <trkpt lat="47.34639" lon="-1.42557">
        <ele>108</ele>
        <time>2021-01-02T12:42:05.000Z</time>
      </trkpt>
      <trkpt lat="47.3465" lon="-1.42539">
        <ele>107</ele>
        <time>2021-01-02T12:42:07.000Z</time>
      </trkpt>
      <trkpt lat="47.34661" lon="-1.4252">
        <ele>107</ele>
        <time>2021-01-02T12:42:09.000Z</time>
      </trkpt>
      <trkpt lat="47.34673" lon="-1.42503">
        <ele>106</ele>
        <time>2021-01-02T12:42:11.000Z</time>
      </trkpt>
      <trkpt lat="47.34685" lon="-1.42487">
        <ele>105</ele>
        <time>2021-01-02T12:42:13.000Z</time>
      </trkpt>
      <trkpt lat="47.34698" lon="-1.42472">
        <ele>105</ele>
        <time>2021-01-02T12:42:15.000Z</time>
      </trkpt>
      <trkpt lat="47.34711" lon="-1.42458">
        <ele>104</ele>
        <time>2021-01-02T12:42:17.000Z</time>
      </trkpt>
      <trkpt lat="47.34725" lon="-1.42445">
        <ele>104</ele>
        <time>2021-01-02T12:42:19.000Z</time>
      </trkpt>
      <trkpt lat="47.34739" lon="-1.42433">
        <ele>104</ele>
        <time>2021-01-02T12:42:21.000Z</time>
      </trkpt>
      <trkpt lat="47.34753" lon="-1.42423">
        <ele>104</ele>
        <time>2021-01-02T12:42:23.000Z</time>
      </trkpt>
      <trkpt lat="47.34767" lon="-1.42412">
        <ele>104</ele>
        <time>2021-01-02T12:42:25.000Z</time>
      </trkpt>
      <trkpt lat="47.34781" lon="-1.42402">
        <ele>103</ele>
        <time>2021-01-02T12:42:27.000Z</time>
      </trkpt>
      <trkpt lat="47.34796" lon="-1.42393">
        <ele>103</ele>
        <time>2021-01-02T12:42:29.000Z</time>
      </trkpt>
      <trkpt lat="47.34811" lon="-1.42383">
        <ele>103</ele>
        <time>2021-01-02T12:42:31.000Z</time>
      </trkpt>
      <trkpt lat="47.34825" lon="-1.42371">
        <ele>103</ele>
        <time>2021-01-02T12:42:33.000Z</time>
      </trkpt>
      <trkpt lat="47.34839" lon="-1.42361">
        <ele>102</ele>
        <time>2021-01-02T12:42:35.000Z</time>
      </trkpt>
      <trkpt lat="47.34854" lon="-1.42351">
        <ele>102</ele>
        <time>2021-01-02T12:42:37.000Z</time>
      </trkpt>
      <trkpt lat="47.3487" lon="-1.42342">
        <ele>101</ele>
        <time>2021-01-02T12:42:39.000Z</time>
      </trkpt>
      <trkpt lat="47.34884" lon="-1.42331">
        <ele>100</ele>
        <time>2021-01-02T12:42:41.000Z</time>
      </trkpt>
      <trkpt lat="47.34899" lon="-1.4232">
        <ele>99</ele>
        <time>2021-01-02T12:42:43.000Z</time>
      </trkpt>
      <trkpt lat="47.34911" lon="-1.42305">
        <ele>99</ele>
        <time>2021-01-02T12:42:45.000Z</time>
      </trkpt>
      <trkpt lat="47.34919" lon="-1.42287">
        <ele>98</ele>
        <time>2021-01-02T12:42:47.000Z</time>
      </trkpt>
      <trkpt lat="47.34924" lon="-1.4227">
        <ele>98</ele>
        <time>2021-01-02T12:42:49.000Z</time>
      </trkpt>
      <trkpt lat="47.34929" lon="-1.42253">
        <ele>99</ele>
        <time>2021-01-02T12:42:51.000Z</time>
      </trkpt>
      <trkpt lat="47.34933" lon="-1.42237">
        <ele>99</ele>
        <time>2021-01-02T12:42:53.000Z</time>
      </trkpt>
      <trkpt lat="47.34937" lon="-1.42221">
        <ele>99</ele>
        <time>2021-01-02T12:42:55.000Z</time>
      </trkpt>
      <trkpt lat="47.34941" lon="-1.42206">
        <ele>99</ele>
        <time>2021-01-02T12:42:57.000Z</time>
      </trkpt>
      <trkpt lat="47.34944" lon="-1.42192">
        <ele>99</ele>
        <time>2021-01-02T12:42:59.000Z</time>
      </trkpt>
      <trkpt lat="47.34947" lon="-1.42177">
        <ele>100</ele>
        <time>2021-01-02T12:43:01.000Z</time>
      </trkpt>
      <trkpt lat="47.34951" lon="-1.42162">
        <ele>100</ele>
        <time>2021-01-02T12:43:03.000Z</time>
      </trkpt>
      <trkpt lat="47.34954" lon="-1.42147">
        <ele>101</ele>
        <time>2021-01-02T12:43:05.000Z</time>
      </trkpt>
      <trkpt lat="47.34958" lon="-1.42133">
        <ele>101</ele>
        <time>2021-01-02T12:43:07.000Z</time>
      </trkpt>
      <trkpt lat="47.34961" lon="-1.42118">
        <ele>102</ele>
        <time>2021-01-02T12:43:09.000Z</time>
      </trkpt>
      <trkpt lat="47.34964" lon="-1.42103">
        <ele>102</ele>
        <time>2021-01-02T12:43:11.000Z</time>
      </trkpt>
      <trkpt lat="47.34967" lon="-1.42089">
        <ele>103</ele>
        <time>2021-01-02T12:43:13.000Z</time>
      </trkpt>
      <trkpt lat="47.34972" lon="-1.42075">
        <ele>104</ele>
        <time>2021-01-02T12:43:15.000Z</time>
      </trkpt>
      <trkpt lat="47.34976" lon="-1.42062">
        <ele>104</ele>
        <time>2021-01-02T12:43:17.000Z</time>
      </trkpt>
      <trkpt lat="47.34981" lon="-1.42048">
        <ele>105</ele>
        <time>2021-01-02T12:43:19.000Z</time>
      </trkpt>
      <trkpt lat="47.34987" lon="-1.42035">
        <ele>106</ele>
        <time>2021-01-02T12:43:21.000Z</time>
      </trkpt>
      <trkpt lat="47.34993" lon="-1.42023">
        <ele>107</ele>
        <time>2021-01-02T12:43:23.000Z</time>
      </trkpt>
      <trkpt lat="47.35" lon="-1.42011">
        <ele>108</ele>
        <time>2021-01-02T12:43:25.000Z</time>
      </trkpt>
      <trkpt lat="47.35006" lon="-1.42">
        <ele>108</ele>
        <time>2021-01-02T12:43:27.000Z</time>
      </trkpt>
      <trkpt lat="47.35013" lon="-1.41989">
        <ele>108</ele>
        <time>2021-01-02T12:43:29.000Z</time>
      </trkpt>
      <trkpt lat="47.35022" lon="-1.41979">
        <ele>108</ele>
        <time>2021-01-02T12:43:31.000Z</time>
      </trkpt>
      <trkpt lat="47.35031" lon="-1.41972">
        <ele>109</ele>
        <time>2021-01-02T12:43:33.000Z</time>
      </trkpt>
      <trkpt lat="47.35039" lon="-1.41964">
        <ele>110</ele>
        <time>2021-01-02T12:43:35.000Z</time>
      </trkpt>
      <trkpt lat="47.35048" lon="-1.41956">
        <ele>111</ele>
        <time>2021-01-02T12:43:37.000Z</time>
      </trkpt>
      <trkpt lat="47.35057" lon="-1.41947">
        <ele>111</ele>
        <time>2021-01-02T12:43:39.000Z</time>
      </trkpt>
      <trkpt lat="47.35065" lon="-1.41939">
        <ele>112</ele>
        <time>2021-01-02T12:43:41.000Z</time>
      </trkpt>
      <trkpt lat="47.35074" lon="-1.4193">
        <ele>112</ele>
        <time>2021-01-02T12:43:43.000Z</time>
      </trkpt>
      <trkpt lat="47.35082" lon="-1.41921">
        <ele>112</ele>
        <time>2021-01-02T12:43:45.000Z</time>
      </trkpt>
      <trkpt lat="47.3509" lon="-1.41913">
        <ele>113</ele>
        <time>2021-01-02T12:43:47.000Z</time>
      </trkpt>
      <trkpt lat="47.35099" lon="-1.41904">
        <ele>113</ele>
        <time>2021-01-02T12:43:49.000Z</time>
      </trkpt>
      <trkpt lat="47.35108" lon="-1.41895">
        <ele>113</ele>
        <time>2021-01-02T12:43:51.000Z</time>
      </trkpt>
      <trkpt lat="47.35116" lon="-1.41886">
        <ele>114</ele>
        <time>2021-01-02T12:43:53.000Z</time>
      </trkpt>
      <trkpt lat="47.35125" lon="-1.41875">
        <ele>114</ele>
        <time>2021-01-02T12:43:55.000Z</time>
      </trkpt>
      <trkpt lat="47.35134" lon="-1.41866">
        <ele>114</ele>
        <time>2021-01-02T12:43:57.000Z</time>
      </trkpt>
      <trkpt lat="47.35143" lon="-1.41856">
        <ele>115</ele>
        <time>2021-01-02T12:43:59.000Z</time>
      </trkpt>
      <trkpt lat="47.35151" lon="-1.41846">
        <ele>115</ele>
        <time>2021-01-02T12:44:01.000Z</time>
      </trkpt>
      <trkpt lat="47.3516" lon="-1.41837">
        <ele>115</ele>
        <time>2021-01-02T12:44:03.000Z</time>
      </trkpt>
      <trkpt lat="47.35169" lon="-1.41828">
        <ele>115</ele>
        <time>2021-01-02T12:44:05.000Z</time>
      </trkpt>
      <trkpt lat="47.35178" lon="-1.41818">
        <ele>116</ele>
        <time>2021-01-02T12:44:07.000Z</time>
      </trkpt>
      <trkpt lat="47.35186" lon="-1.41808">
        <ele>116</ele>
        <time>2021-01-02T12:44:09.000Z</time>
      </trkpt>
      <trkpt lat="47.35196" lon="-1.41799">
        <ele>116</ele>
        <time>2021-01-02T12:44:11.000Z</time>
      </trkpt>
      <trkpt lat="47.35205" lon="-1.41789">
        <ele>116</ele>
        <time>2021-01-02T12:44:13.000Z</time>
      </trkpt>
      <trkpt lat="47.35214" lon="-1.41779">
        <ele>116</ele>
        <time>2021-01-02T12:44:15.000Z</time>
      </trkpt>
      <trkpt lat="47.35224" lon="-1.41769">
        <ele>116</ele>
        <time>2021-01-02T12:44:17.000Z</time>
      </trkpt>
      <trkpt lat="47.35233" lon="-1.41759">
        <ele>116</ele>
        <time>2021-01-02T12:44:19.000Z</time>
      </trkpt>
      <trkpt lat="47.35242" lon="-1.4175">
        <ele>116</ele>
        <time>2021-01-02T12:44:21.000Z</time>
      </trkpt>
      <trkpt lat="47.35251" lon="-1.4174">
        <ele>116</ele>
        <time>2021-01-02T12:44:23.000Z</time>
      </trkpt>
      <trkpt lat="47.35262" lon="-1.41729">
        <ele>117</ele>
        <time>2021-01-02T12:44:25.000Z</time>
      </trkpt>
      <trkpt lat="47.35272" lon="-1.41719">
        <ele>116</ele>
        <time>2021-01-02T12:44:27.000Z</time>
      </trkpt>
      <trkpt lat="47.35281" lon="-1.41709">
        <ele>117</ele>
        <time>2021-01-02T12:44:29.000Z</time>
      </trkpt>
      <trkpt lat="47.3529" lon="-1.41699">
        <ele>116</ele>
        <time>2021-01-02T12:44:31.000Z</time>
      </trkpt>
      <trkpt lat="47.35299" lon="-1.41689">
        <ele>116</ele>
        <time>2021-01-02T12:44:33.000Z</time>
      </trkpt>
      <trkpt lat="47.35309" lon="-1.41679">
        <ele>116</ele>
        <time>2021-01-02T12:44:35.000Z</time>
      </trkpt>
      <trkpt lat="47.35319" lon="-1.41668">
        <ele>116</ele>
        <time>2021-01-02T12:44:37.000Z</time>
      </trkpt>
      <trkpt lat="47.35328" lon="-1.41658">
        <ele>116</ele>
        <time>2021-01-02T12:44:39.000Z</time>
      </trkpt>
      <trkpt lat="47.35338" lon="-1.41646">
        <ele>115</ele>
        <time>2021-01-02T12:44:41.000Z</time>
      </trkpt>
      <trkpt lat="47.35349" lon="-1.41635">
        <ele>115</ele>
        <time>2021-01-02T12:44:43.000Z</time>
      </trkpt>
      <trkpt lat="47.3536" lon="-1.41625">
        <ele>114</ele>
        <time>2021-01-02T12:44:45.000Z</time>
      </trkpt>
      <trkpt lat="47.35372" lon="-1.41614">
        <ele>114</ele>
        <time>2021-01-02T12:44:47.000Z</time>
      </trkpt>
      <trkpt lat="47.35383" lon="-1.41603">
        <ele>114</ele>
        <time>2021-01-02T12:44:49.000Z</time>
      </trkpt>
      <trkpt lat="47.35394" lon="-1.41591">
        <ele>114</ele>
        <time>2021-01-02T12:44:51.000Z</time>
      </trkpt>
      <trkpt lat="47.35404" lon="-1.4158">
        <ele>114</ele>
        <time>2021-01-02T12:44:53.000Z</time>
      </trkpt>
      <trkpt lat="47.35415" lon="-1.41569">
        <ele>114</ele>
        <time>2021-01-02T12:44:55.000Z</time>
      </trkpt>
      <trkpt lat="47.35425" lon="-1.41557">
        <ele>114</ele>
        <time>2021-01-02T12:44:57.000Z</time>
      </trkpt>
      <trkpt lat="47.35436" lon="-1.41545">
        <ele>114</ele>
        <time>2021-01-02T12:44:59.000Z</time>
      </trkpt>
      <trkpt lat="47.35447" lon="-1.41534">
        <ele>113</ele>
        <time>2021-01-02T12:45:01.000Z</time>
      </trkpt>
      <trkpt lat="47.35458" lon="-1.41522">
        <ele>113</ele>
        <time>2021-01-02T12:45:03.000Z</time>
      </trkpt>
      <trkpt lat="47.35469" lon="-1.41511">
        <ele>113</ele>
        <time>2021-01-02T12:45:05.000Z</time>
      </trkpt>
      <trkpt lat="47.3548" lon="-1.415">
        <ele>113</ele>
        <time>2021-01-02T12:45:07.000Z</time>
      </trkpt>
      <trkpt lat="47.35491" lon="-1.41488">
        <ele>113</ele>
        <time>2021-01-02T12:45:09.000Z</time>
      </trkpt>
      <trkpt lat="47.35502" lon="-1.41476">
        <ele>113</ele>
        <time>2021-01-02T12:45:11.000Z</time>
      </trkpt>
      <trkpt lat="47.35513" lon="-1.41464">
        <ele>114</ele>
        <time>2021-01-02T12:45:13.000Z</time>
      </trkpt>
      <trkpt lat="47.35524" lon="-1.41452">
        <ele>114</ele>
        <time>2021-01-02T12:45:15.000Z</time>
      </trkpt>
      <trkpt lat="47.35535" lon="-1.4144">
        <ele>114</ele>
        <time>2021-01-02T12:45:17.000Z</time>
      </trkpt>
      <trkpt lat="47.35546" lon="-1.41428">
        <ele>114</ele>
        <time>2021-01-02T12:45:19.000Z</time>
      </trkpt>
      <trkpt lat="47.35557" lon="-1.41417">
        <ele>114</ele>
        <time>2021-01-02T12:45:21.000Z</time>
      </trkpt>
      <trkpt lat="47.35568" lon="-1.41405">
        <ele>114</ele>
        <time>2021-01-02T12:45:23.000Z</time>
      </trkpt>
      <trkpt lat="47.35578" lon="-1.41394">
        <ele>114</ele>
        <time>2021-01-02T12:45:25.000Z</time>
      </trkpt>
      <trkpt lat="47.3559" lon="-1.41383">
        <ele>113</ele>
        <time>2021-01-02T12:45:27.000Z</time>
      </trkpt>
      <trkpt lat="47.35602" lon="-1.41371">
        <ele>113</ele>
        <time>2021-01-02T12:45:29.000Z</time>
      </trkpt>
      <trkpt lat="47.35613" lon="-1.41359">
        <ele>112</ele>
        <time>2021-01-02T12:45:31.000Z</time>
      </trkpt>
      <trkpt lat="47.35624" lon="-1.41347">
        <ele>112</ele>
        <time>2021-01-02T12:45:33.000Z</time>
      </trkpt>
      <trkpt lat="47.35635" lon="-1.41336">
        <ele>113</ele>
        <time>2021-01-02T12:45:35.000Z</time>
      </trkpt>
      <trkpt lat="47.35647" lon="-1.41323">
        <ele>112</ele>
        <time>2021-01-02T12:45:37.000Z</time>
      </trkpt>
      <trkpt lat="47.35658" lon="-1.4131">
        <ele>112</ele>
        <time>2021-01-02T12:45:39.000Z</time>
      </trkpt>
      <trkpt lat="47.35669" lon="-1.41298">
        <ele>112</ele>
        <time>2021-01-02T12:45:41.000Z</time>
      </trkpt>
      <trkpt lat="47.35678" lon="-1.41285">
        <ele>112</ele>
        <time>2021-01-02T12:45:43.000Z</time>
      </trkpt>
      <trkpt lat="47.35689" lon="-1.41273">
        <ele>112</ele>
        <time>2021-01-02T12:45:45.000Z</time>
      </trkpt>
      <trkpt lat="47.357" lon="-1.41263">
        <ele>112</ele>
        <time>2021-01-02T12:45:47.000Z</time>
      </trkpt>
      <trkpt lat="47.3571" lon="-1.41253">
        <ele>112</ele>
        <time>2021-01-02T12:45:49.000Z</time>
      </trkpt>
      <trkpt lat="47.35721" lon="-1.41242">
        <ele>112</ele>
        <time>2021-01-02T12:45:51.000Z</time>
      </trkpt>
      <trkpt lat="47.35731" lon="-1.4123">
        <ele>111</ele>
        <time>2021-01-02T12:45:53.000Z</time>
      </trkpt>
      <trkpt lat="47.35742" lon="-1.41218">
        <ele>111</ele>
        <time>2021-01-02T12:45:55.000Z</time>
      </trkpt>
      <trkpt lat="47.35752" lon="-1.41206">
        <ele>111</ele>
        <time>2021-01-02T12:45:57.000Z</time>
      </trkpt>
      <trkpt lat="47.35763" lon="-1.41196">
        <ele>112</ele>
        <time>2021-01-02T12:45:59.000Z</time>
      </trkpt>
      <trkpt lat="47.35772" lon="-1.41185">
        <ele>112</ele>
        <time>2021-01-02T12:46:01.000Z</time>
      </trkpt>
      <trkpt lat="47.35782" lon="-1.41175">
        <ele>113</ele>
        <time>2021-01-02T12:46:03.000Z</time>
      </trkpt>
      <trkpt lat="47.35792" lon="-1.41165">
        <ele>113</ele>
        <time>2021-01-02T12:46:05.000Z</time>
      </trkpt>
      <trkpt lat="47.35801" lon="-1.41154">
        <ele>113</ele>
        <time>2021-01-02T12:46:07.000Z</time>
      </trkpt>
      <trkpt lat="47.35811" lon="-1.41145">
        <ele>114</ele>
        <time>2021-01-02T12:46:09.000Z</time>
      </trkpt>
      <trkpt lat="47.35821" lon="-1.41135">
        <ele>114</ele>
        <time>2021-01-02T12:46:11.000Z</time>
      </trkpt>
      <trkpt lat="47.35831" lon="-1.41125">
        <ele>115</ele>
        <time>2021-01-02T12:46:13.000Z</time>
      </trkpt>
      <trkpt lat="47.3584" lon="-1.41115">
        <ele>116</ele>
        <time>2021-01-02T12:46:15.000Z</time>
      </trkpt>
      <trkpt lat="47.35849" lon="-1.41105">
        <ele>116</ele>
        <time>2021-01-02T12:46:17.000Z</time>
      </trkpt>
      <trkpt lat="47.35859" lon="-1.41096">
        <ele>116</ele>
        <time>2021-01-02T12:46:19.000Z</time>
      </trkpt>
      <trkpt lat="47.35868" lon="-1.41085">
        <ele>116</ele>
        <time>2021-01-02T12:46:21.000Z</time>
      </trkpt>
      <trkpt lat="47.35877" lon="-1.41075">
        <ele>117</ele>
        <time>2021-01-02T12:46:23.000Z</time>
      </trkpt>
      <trkpt lat="47.35886" lon="-1.41066">
        <ele>117</ele>
        <time>2021-01-02T12:46:25.000Z</time>
      </trkpt>
      <trkpt lat="47.35895" lon="-1.41056">
        <ele>117</ele>
        <time>2021-01-02T12:46:27.000Z</time>
      </trkpt>
      <trkpt lat="47.35904" lon="-1.41047">
        <ele>118</ele>
        <time>2021-01-02T12:46:29.000Z</time>
      </trkpt>
      <trkpt lat="47.35913" lon="-1.41037">
        <ele>118</ele>
        <time>2021-01-02T12:46:31.000Z</time>
      </trkpt>
      <trkpt lat="47.35922" lon="-1.41027">
        <ele>118</ele>
        <time>2021-01-02T12:46:33.000Z</time>
      </trkpt>
      <trkpt lat="47.35931" lon="-1.41018">
        <ele>118</ele>
        <time>2021-01-02T12:46:35.000Z</time>
      </trkpt>
      <trkpt lat="47.3594" lon="-1.41008">
        <ele>118</ele>
        <time>2021-01-02T12:46:37.000Z</time>
      </trkpt>
      <trkpt lat="47.35949" lon="-1.40999">
        <ele>118</ele>
        <time>2021-01-02T12:46:39.000Z</time>
      </trkpt>
      <trkpt lat="47.35959" lon="-1.40988">
        <ele>118</ele>
        <time>2021-01-02T12:46:41.000Z</time>
      </trkpt>
      <trkpt lat="47.35968" lon="-1.40978">
        <ele>118</ele>
        <time>2021-01-02T12:46:43.000Z</time>
      </trkpt>
      <trkpt lat="47.35977" lon="-1.40964">
        <ele>119</ele>
        <time>2021-01-02T12:46:45.000Z</time>
      </trkpt>
      <trkpt lat="47.35986" lon="-1.40954">
        <ele>119</ele>
        <time>2021-01-02T12:46:47.000Z</time>
      </trkpt>
      <trkpt lat="47.35996" lon="-1.40945">
        <ele>119</ele>
        <time>2021-01-02T12:46:49.000Z</time>
      </trkpt>
      <trkpt lat="47.36007" lon="-1.40935">
        <ele>119</ele>
        <time>2021-01-02T12:46:51.000Z</time>
      </trkpt>
      <trkpt lat="47.36017" lon="-1.40925">
        <ele>120</ele>
        <time>2021-01-02T12:46:53.000Z</time>
      </trkpt>
      <trkpt lat="47.36027" lon="-1.40915">
        <ele>119</ele>
        <time>2021-01-02T12:46:55.000Z</time>
      </trkpt>
      <trkpt lat="47.36037" lon="-1.40906">
        <ele>119</ele>
        <time>2021-01-02T12:46:57.000Z</time>
      </trkpt>
      <trkpt lat="47.36046" lon="-1.40895">
        <ele>119</ele>
        <time>2021-01-02T12:46:59.000Z</time>
      </trkpt>
      <trkpt lat="47.36055" lon="-1.40885">
        <ele>119</ele>
        <time>2021-01-02T12:47:01.000Z</time>
      </trkpt>
      <trkpt lat="47.36065" lon="-1.40875">
        <ele>119</ele>
        <time>2021-01-02T12:47:03.000Z</time>
      </trkpt>
      <trkpt lat="47.36072" lon="-1.40863">
        <ele>119</ele>
        <time>2021-01-02T12:47:05.000Z</time>
      </trkpt>
      <trkpt lat="47.36081" lon="-1.40852">
        <ele>119</ele>
        <time>2021-01-02T12:47:07.000Z</time>
      </trkpt>
      <trkpt lat="47.3609" lon="-1.40843">
        <ele>119</ele>
        <time>2021-01-02T12:47:09.000Z</time>
      </trkpt>
      <trkpt lat="47.36101" lon="-1.40836">
        <ele>119</ele>
        <time>2021-01-02T12:47:11.000Z</time>
      </trkpt>
      <trkpt lat="47.36112" lon="-1.40825">
        <ele>119</ele>
        <time>2021-01-02T12:47:13.000Z</time>
      </trkpt>
      <trkpt lat="47.36122" lon="-1.40815">
        <ele>119</ele>
        <time>2021-01-02T12:47:15.000Z</time>
      </trkpt>
      <trkpt lat="47.36132" lon="-1.40805">
        <ele>118</ele>
        <time>2021-01-02T12:47:17.000Z</time>
      </trkpt>
      <trkpt lat="47.36142" lon="-1.40794">
        <ele>119</ele>
        <time>2021-01-02T12:47:19.000Z</time>
      </trkpt>
      <trkpt lat="47.36153" lon="-1.40784">
        <ele>119</ele>
        <time>2021-01-02T12:47:21.000Z</time>
      </trkpt>
      <trkpt lat="47.36162" lon="-1.40773">
        <ele>119</ele>
        <time>2021-01-02T12:47:23.000Z</time>
      </trkpt>
      <trkpt lat="47.36172" lon="-1.40763">
        <ele>119</ele>
        <time>2021-01-02T12:47:25.000Z</time>
      </trkpt>
      <trkpt lat="47.36181" lon="-1.40751">
        <ele>119</ele>
        <time>2021-01-02T12:47:27.000Z</time>
      </trkpt>
      <trkpt lat="47.36192" lon="-1.40741">
        <ele>118</ele>
        <time>2021-01-02T12:47:29.000Z</time>
      </trkpt>
      <trkpt lat="47.36202" lon="-1.40731">
        <ele>118</ele>
        <time>2021-01-02T12:47:31.000Z</time>
      </trkpt>
      <trkpt lat="47.36212" lon="-1.4072">
        <ele>118</ele>
        <time>2021-01-02T12:47:33.000Z</time>
      </trkpt>
      <trkpt lat="47.36223" lon="-1.40709">
        <ele>118</ele>
        <time>2021-01-02T12:47:35.000Z</time>
      </trkpt>
      <trkpt lat="47.36233" lon="-1.40698">
        <ele>118</ele>
        <time>2021-01-02T12:47:37.000Z</time>
      </trkpt>
      <trkpt lat="47.36244" lon="-1.40686">
        <ele>118</ele>
        <time>2021-01-02T12:47:39.000Z</time>
      </trkpt>
      <trkpt lat="47.36255" lon="-1.40676">
        <ele>118</ele>
        <time>2021-01-02T12:47:41.000Z</time>
      </trkpt>
      <trkpt lat="47.36265" lon="-1.40665">
        <ele>118</ele>
        <time>2021-01-02T12:47:43.000Z</time>
      </trkpt>
      <trkpt lat="47.36275" lon="-1.40654">
        <ele>118</ele>
        <time>2021-01-02T12:47:45.000Z</time>
      </trkpt>
      <trkpt lat="47.36286" lon="-1.40643">
        <ele>118</ele>
        <time>2021-01-02T12:47:47.000Z</time>
      </trkpt>
      <trkpt lat="47.36296" lon="-1.40631">
        <ele>119</ele>
        <time>2021-01-02T12:47:49.000Z</time>
      </trkpt>
      <trkpt lat="47.36305" lon="-1.40619">
        <ele>119</ele>
        <time>2021-01-02T12:47:51.000Z</time>
      </trkpt>
      <trkpt lat="47.36315" lon="-1.40608">
        <ele>119</ele>
        <time>2021-01-02T12:47:53.000Z</time>
      </trkpt>
      <trkpt lat="47.36325" lon="-1.40598">
        <ele>118</ele>
        <time>2021-01-02T12:47:55.000Z</time>
      </trkpt>
      <trkpt lat="47.36335" lon="-1.40589">
        <ele>118</ele>
        <time>2021-01-02T12:47:57.000Z</time>
      </trkpt>
      <trkpt lat="47.36344" lon="-1.40578">
        <ele>118</ele>
        <time>2021-01-02T12:47:59.000Z</time>
      </trkpt>
      <trkpt lat="47.36355" lon="-1.40569">
        <ele>118</ele>
        <time>2021-01-02T12:48:01.000Z</time>
      </trkpt>
      <trkpt lat="47.36367" lon="-1.40561">
        <ele>118</ele>
        <time>2021-01-02T12:48:03.000Z</time>
      </trkpt>
      <trkpt lat="47.36379" lon="-1.40554">
        <ele>118</ele>
        <time>2021-01-02T12:48:05.000Z</time>
      </trkpt>
      <trkpt lat="47.36392" lon="-1.40548">
        <ele>117</ele>
        <time>2021-01-02T12:48:07.000Z</time>
      </trkpt>
      <trkpt lat="47.36405" lon="-1.40545">
        <ele>117</ele>
        <time>2021-01-02T12:48:09.000Z</time>
      </trkpt>
      <trkpt lat="47.36419" lon="-1.40543">
        <ele>117</ele>
        <time>2021-01-02T12:48:11.000Z</time>
      </trkpt>
      <trkpt lat="47.36432" lon="-1.40543">
        <ele>118</ele>
        <time>2021-01-02T12:48:13.000Z</time>
      </trkpt>
      <trkpt lat="47.36444" lon="-1.4054">
        <ele>118</ele>
        <time>2021-01-02T12:48:15.000Z</time>
      </trkpt>
      <trkpt lat="47.36456" lon="-1.4054">
        <ele>119</ele>
        <time>2021-01-02T12:48:17.000Z</time>
      </trkpt>
      <trkpt lat="47.36469" lon="-1.40542">
        <ele>118</ele>
        <time>2021-01-02T12:48:19.000Z</time>
      </trkpt>
      <trkpt lat="47.36483" lon="-1.40543">
        <ele>118</ele>
        <time>2021-01-02T12:48:21.000Z</time>
      </trkpt>
      <trkpt lat="47.36495" lon="-1.40544">
        <ele>118</ele>
        <time>2021-01-02T12:48:23.000Z</time>
      </trkpt>
      <trkpt lat="47.36509" lon="-1.40545">
        <ele>117</ele>
        <time>2021-01-02T12:48:25.000Z</time>
      </trkpt>
      <trkpt lat="47.36522" lon="-1.40545">
        <ele>117</ele>
        <time>2021-01-02T12:48:27.000Z</time>
      </trkpt>
      <trkpt lat="47.36536" lon="-1.40545">
        <ele>116</ele>
        <time>2021-01-02T12:48:29.000Z</time>
      </trkpt>
      <trkpt lat="47.36549" lon="-1.40545">
        <ele>116</ele>
        <time>2021-01-02T12:48:31.000Z</time>
      </trkpt>
      <trkpt lat="47.36563" lon="-1.40542">
        <ele>115</ele>
        <time>2021-01-02T12:48:33.000Z</time>
      </trkpt>
      <trkpt lat="47.36577" lon="-1.40536">
        <ele>114</ele>
        <time>2021-01-02T12:48:35.000Z</time>
      </trkpt>
      <trkpt lat="47.3659" lon="-1.40532">
        <ele>113</ele>
        <time>2021-01-02T12:48:37.000Z</time>
      </trkpt>
      <trkpt lat="47.36605" lon="-1.40533">
        <ele>112</ele>
        <time>2021-01-02T12:48:39.000Z</time>
      </trkpt>
      <trkpt lat="47.36619" lon="-1.40539">
        <ele>112</ele>
        <time>2021-01-02T12:48:41.000Z</time>
      </trkpt>
      <trkpt lat="47.36633" lon="-1.40539">
        <ele>111</ele>
        <time>2021-01-02T12:48:43.000Z</time>
      </trkpt>
      <trkpt lat="47.36647" lon="-1.40532">
        <ele>110</ele>
        <time>2021-01-02T12:48:45.000Z</time>
      </trkpt>
      <trkpt lat="47.36662" lon="-1.40523">
        <ele>110</ele>
        <time>2021-01-02T12:48:47.000Z</time>
      </trkpt>
      <trkpt lat="47.36676" lon="-1.40516">
        <ele>108</ele>
        <time>2021-01-02T12:48:49.000Z</time>
      </trkpt>
      <trkpt lat="47.36691" lon="-1.40511">
        <ele>107</ele>
        <time>2021-01-02T12:48:51.000Z</time>
      </trkpt>
      <trkpt lat="47.36706" lon="-1.4051">
        <ele>107</ele>
        <time>2021-01-02T12:48:53.000Z</time>
      </trkpt>
      <trkpt lat="47.3672" lon="-1.40505">
        <ele>106</ele>
        <time>2021-01-02T12:48:55.000Z</time>
      </trkpt>
      <trkpt lat="47.36728" lon="-1.40488">
        <ele>106</ele>
        <time>2021-01-02T12:48:57.000Z</time>
      </trkpt>
      <trkpt lat="47.36731" lon="-1.40469">
        <ele>106</ele>
        <time>2021-01-02T12:48:59.000Z</time>
      </trkpt>
      <trkpt lat="47.36732" lon="-1.40448">
        <ele>106</ele>
        <time>2021-01-02T12:49:01.000Z</time>
      </trkpt>
      <trkpt lat="47.36733" lon="-1.40428">
        <ele>105</ele>
        <time>2021-01-02T12:49:03.000Z</time>
      </trkpt>
      <trkpt lat="47.36735" lon="-1.40407">
        <ele>105</ele>
        <time>2021-01-02T12:49:05.000Z</time>
      </trkpt>
      <trkpt lat="47.36738" lon="-1.40386">
        <ele>104</ele>
        <time>2021-01-02T12:49:07.000Z</time>
      </trkpt>
      <trkpt lat="47.36741" lon="-1.40365">
        <ele>103</ele>
        <time>2021-01-02T12:49:09.000Z</time>
      </trkpt>
      <trkpt lat="47.36745" lon="-1.40343">
        <ele>102</ele>
        <time>2021-01-02T12:49:11.000Z</time>
      </trkpt>
      <trkpt lat="47.36748" lon="-1.40322">
        <ele>101</ele>
        <time>2021-01-02T12:49:13.000Z</time>
      </trkpt>
      <trkpt lat="47.36751" lon="-1.40302">
        <ele>101</ele>
        <time>2021-01-02T12:49:15.000Z</time>
      </trkpt>
      <trkpt lat="47.36754" lon="-1.40281">
        <ele>100</ele>
        <time>2021-01-02T12:49:17.000Z</time>
      </trkpt>
      <trkpt lat="47.36757" lon="-1.4026">
        <ele>100</ele>
        <time>2021-01-02T12:49:19.000Z</time>
      </trkpt>
      <trkpt lat="47.3676" lon="-1.40238">
        <ele>99</ele>
        <time>2021-01-02T12:49:21.000Z</time>
      </trkpt>
      <trkpt lat="47.36762" lon="-1.40217">
        <ele>99</ele>
        <time>2021-01-02T12:49:23.000Z</time>
      </trkpt>
      <trkpt lat="47.36762" lon="-1.40195">
        <ele>99</ele>
        <time>2021-01-02T12:49:25.000Z</time>
      </trkpt>
      <trkpt lat="47.36764" lon="-1.40174">
        <ele>99</ele>
        <time>2021-01-02T12:49:27.000Z</time>
      </trkpt>
      <trkpt lat="47.36764" lon="-1.40153">
        <ele>99</ele>
        <time>2021-01-02T12:49:29.000Z</time>
      </trkpt>
      <trkpt lat="47.36763" lon="-1.40134">
        <ele>100</ele>
        <time>2021-01-02T12:49:31.000Z</time>
      </trkpt>
      <trkpt lat="47.36763" lon="-1.40113">
        <ele>100</ele>
        <time>2021-01-02T12:49:33.000Z</time>
      </trkpt>
      <trkpt lat="47.36763" lon="-1.40093">
        <ele>99</ele>
        <time>2021-01-02T12:49:35.000Z</time>
      </trkpt>
      <trkpt lat="47.36763" lon="-1.40075">
        <ele>99</ele>
        <time>2021-01-02T12:49:37.000Z</time>
      </trkpt>
      <trkpt lat="47.36764" lon="-1.4006">
        <ele>99</ele>
        <time>2021-01-02T12:49:39.000Z</time>
      </trkpt>
      <trkpt lat="47.36764" lon="-1.40045">
        <ele>100</ele>
        <time>2021-01-02T12:49:41.000Z</time>
      </trkpt>
      <trkpt lat="47.36764" lon="-1.4003">
        <ele>100</ele>
        <time>2021-01-02T12:49:43.000Z</time>
      </trkpt>
      <trkpt lat="47.36764" lon="-1.40016">
        <ele>100</ele>
        <time>2021-01-02T12:49:45.000Z</time>
      </trkpt>
      <trkpt lat="47.36764" lon="-1.40001">
        <ele>101</ele>
        <time>2021-01-02T12:49:47.000Z</time>
      </trkpt>
      <trkpt lat="47.36764" lon="-1.39985">
        <ele>102</ele>
        <time>2021-01-02T12:49:49.000Z</time>
      </trkpt>
      <trkpt lat="47.36763" lon="-1.39968">
        <ele>102</ele>
        <time>2021-01-02T12:49:51.000Z</time>
      </trkpt>
      <trkpt lat="47.36764" lon="-1.39952">
        <ele>102</ele>
        <time>2021-01-02T12:49:53.000Z</time>
      </trkpt>
      <trkpt lat="47.36764" lon="-1.39935">
        <ele>103</ele>
        <time>2021-01-02T12:49:55.000Z</time>
      </trkpt>
      <trkpt lat="47.36763" lon="-1.39919">
        <ele>103</ele>
        <time>2021-01-02T12:49:57.000Z</time>
      </trkpt>
      <trkpt lat="47.36764" lon="-1.39903">
        <ele>104</ele>
        <time>2021-01-02T12:49:59.000Z</time>
      </trkpt>
      <trkpt lat="47.36764" lon="-1.39886">
        <ele>105</ele>
        <time>2021-01-02T12:50:01.000Z</time>
      </trkpt>
      <trkpt lat="47.36765" lon="-1.39869">
        <ele>105</ele>
        <time>2021-01-02T12:50:03.000Z</time>
      </trkpt>
      <trkpt lat="47.36765" lon="-1.39852">
        <ele>106</ele>
        <time>2021-01-02T12:50:05.000Z</time>
      </trkpt>
      <trkpt lat="47.36765" lon="-1.39835">
        <ele>106</ele>
        <time>2021-01-02T12:50:07.000Z</time>
      </trkpt>
      <trkpt lat="47.36765" lon="-1.39819">
        <ele>106</ele>
        <time>2021-01-02T12:50:09.000Z</time>
      </trkpt>
      <trkpt lat="47.36765" lon="-1.39803">
        <ele>107</ele>
        <time>2021-01-02T12:50:11.000Z</time>
      </trkpt>
      <trkpt lat="47.36765" lon="-1.39787">
        <ele>107</ele>
        <time>2021-01-02T12:50:13.000Z</time>
      </trkpt>
      <trkpt lat="47.36765" lon="-1.39771">
        <ele>108</ele>
        <time>2021-01-02T12:50:15.000Z</time>
      </trkpt>
      <trkpt lat="47.36765" lon="-1.39754">
        <ele>108</ele>
        <time>2021-01-02T12:50:17.000Z</time>
      </trkpt>
      <trkpt lat="47.36765" lon="-1.39737">
        <ele>108</ele>
        <time>2021-01-02T12:50:19.000Z</time>
      </trkpt>
      <trkpt lat="47.36765" lon="-1.39721">
        <ele>108</ele>
        <time>2021-01-02T12:50:21.000Z</time>
      </trkpt>
      <trkpt lat="47.36765" lon="-1.39704">
        <ele>108</ele>
        <time>2021-01-02T12:50:23.000Z</time>
      </trkpt>
      <trkpt lat="47.36765" lon="-1.39688">
        <ele>109</ele>
        <time>2021-01-02T12:50:25.000Z</time>
      </trkpt>
      <trkpt lat="47.36765" lon="-1.39673">
        <ele>109</ele>
        <time>2021-01-02T12:50:27.000Z</time>
      </trkpt>
      <trkpt lat="47.36765" lon="-1.39656">
        <ele>109</ele>
        <time>2021-01-02T12:50:29.000Z</time>
      </trkpt>
      <trkpt lat="47.36765" lon="-1.39639">
        <ele>109</ele>
        <time>2021-01-02T12:50:31.000Z</time>
      </trkpt>
      <trkpt lat="47.36765" lon="-1.39623">
        <ele>109</ele>
        <time>2021-01-02T12:50:33.000Z</time>
      </trkpt>
      <trkpt lat="47.36765" lon="-1.39606">
        <ele>109</ele>
        <time>2021-01-02T12:50:35.000Z</time>
      </trkpt>
      <trkpt lat="47.36765" lon="-1.3959">
        <ele>110</ele>
        <time>2021-01-02T12:50:37.000Z</time>
      </trkpt>
      <trkpt lat="47.36765" lon="-1.39573">
        <ele>110</ele>
        <time>2021-01-02T12:50:39.000Z</time>
      </trkpt>
      <trkpt lat="47.36766" lon="-1.39555">
        <ele>110</ele>
        <time>2021-01-02T12:50:41.000Z</time>
      </trkpt>
      <trkpt lat="47.36765" lon="-1.39539">
        <ele>110</ele>
        <time>2021-01-02T12:50:43.000Z</time>
      </trkpt>
      <trkpt lat="47.36765" lon="-1.39523">
        <ele>110</ele>
        <time>2021-01-02T12:50:45.000Z</time>
      </trkpt>
      <trkpt lat="47.36766" lon="-1.39506">
        <ele>110</ele>
        <time>2021-01-02T12:50:47.000Z</time>
      </trkpt>
      <trkpt lat="47.36766" lon="-1.39489">
        <ele>110</ele>
        <time>2021-01-02T12:50:49.000Z</time>
      </trkpt>
      <trkpt lat="47.36766" lon="-1.39472">
        <ele>110</ele>
        <time>2021-01-02T12:50:51.000Z</time>
      </trkpt>
      <trkpt lat="47.36766" lon="-1.39456">
        <ele>110</ele>
        <time>2021-01-02T12:50:53.000Z</time>
      </trkpt>
      <trkpt lat="47.36766" lon="-1.39439">
        <ele>110</ele>
        <time>2021-01-02T12:50:55.000Z</time>
      </trkpt>
      <trkpt lat="47.36766" lon="-1.39422">
        <ele>110</ele>
        <time>2021-01-02T12:50:57.000Z</time>
      </trkpt>
      <trkpt lat="47.36766" lon="-1.39405">
        <ele>110</ele>
        <time>2021-01-02T12:50:59.000Z</time>
      </trkpt>
      <trkpt lat="47.36766" lon="-1.39388">
        <ele>110</ele>
        <time>2021-01-02T12:51:01.000Z</time>
      </trkpt>
      <trkpt lat="47.36766" lon="-1.39371">
        <ele>111</ele>
        <time>2021-01-02T12:51:03.000Z</time>
      </trkpt>
      <trkpt lat="47.36765" lon="-1.39354">
        <ele>111</ele>
        <time>2021-01-02T12:51:05.000Z</time>
      </trkpt>
      <trkpt lat="47.36764" lon="-1.39337">
        <ele>111</ele>
        <time>2021-01-02T12:51:07.000Z</time>
      </trkpt>
      <trkpt lat="47.36762" lon="-1.39319">
        <ele>112</ele>
        <time>2021-01-02T12:51:09.000Z</time>
      </trkpt>
      <trkpt lat="47.36759" lon="-1.39303">
        <ele>112</ele>
        <time>2021-01-02T12:51:11.000Z</time>
      </trkpt>
      <trkpt lat="47.36755" lon="-1.39287">
        <ele>112</ele>
        <time>2021-01-02T12:51:13.000Z</time>
      </trkpt>
      <trkpt lat="47.36751" lon="-1.39271">
        <ele>112</ele>
        <time>2021-01-02T12:51:15.000Z</time>
      </trkpt>
      <trkpt lat="47.36745" lon="-1.39257">
        <ele>112</ele>
        <time>2021-01-02T12:51:17.000Z</time>
      </trkpt>
      <trkpt lat="47.36739" lon="-1.39242">
        <ele>112</ele>
        <time>2021-01-02T12:51:19.000Z</time>
      </trkpt>
      <trkpt lat="47.36732" lon="-1.39228">
        <ele>112</ele>
        <time>2021-01-02T12:51:21.000Z</time>
      </trkpt>
      <trkpt lat="47.36725" lon="-1.39215">
        <ele>112</ele>
        <time>2021-01-02T12:51:23.000Z</time>
      </trkpt>
      <trkpt lat="47.36719" lon="-1.39201">
        <ele>113</ele>
        <time>2021-01-02T12:51:25.000Z</time>
      </trkpt>
      <trkpt lat="47.36712" lon="-1.39188">
        <ele>113</ele>
        <time>2021-01-02T12:51:27.000Z</time>
      </trkpt>
      <trkpt lat="47.36706" lon="-1.39175">
        <ele>113</ele>
        <time>2021-01-02T12:51:29.000Z</time>
      </trkpt>
      <trkpt lat="47.36699" lon="-1.39161">
        <ele>113</ele>
        <time>2021-01-02T12:51:31.000Z</time>
      </trkpt>
      <trkpt lat="47.36692" lon="-1.39147">
        <ele>113</ele>
        <time>2021-01-02T12:51:33.000Z</time>
      </trkpt>
      <trkpt lat="47.36685" lon="-1.39133">
        <ele>113</ele>
        <time>2021-01-02T12:51:35.000Z</time>
      </trkpt>
      <trkpt lat="47.36679" lon="-1.39119">
        <ele>113</ele>
        <time>2021-01-02T12:51:37.000Z</time>
      </trkpt>
      <trkpt lat="47.36672" lon="-1.39105">
        <ele>113</ele>
        <time>2021-01-02T12:51:39.000Z</time>
      </trkpt>
      <trkpt lat="47.36665" lon="-1.3909">
        <ele>113</ele>
        <time>2021-01-02T12:51:41.000Z</time>
      </trkpt>
      <trkpt lat="47.36659" lon="-1.39077">
        <ele>113</ele>
        <time>2021-01-02T12:51:43.000Z</time>
      </trkpt>
      <trkpt lat="47.36652" lon="-1.39063">
        <ele>113</ele>
        <time>2021-01-02T12:51:45.000Z</time>
      </trkpt>
      <trkpt lat="47.36646" lon="-1.39049">
        <ele>113</ele>
        <time>2021-01-02T12:51:47.000Z</time>
      </trkpt>
      <trkpt lat="47.36639" lon="-1.39034">
        <ele>113</ele>
        <time>2021-01-02T12:51:49.000Z</time>
      </trkpt>
      <trkpt lat="47.36632" lon="-1.3902">
        <ele>113</ele>
        <time>2021-01-02T12:51:51.000Z</time>
      </trkpt>
      <trkpt lat="47.36625" lon="-1.39006">
        <ele>113</ele>
        <time>2021-01-02T12:51:53.000Z</time>
      </trkpt>
      <trkpt lat="47.36618" lon="-1.38991">
        <ele>114</ele>
        <time>2021-01-02T12:51:55.000Z</time>
      </trkpt>
      <trkpt lat="47.36611" lon="-1.38977">
        <ele>114</ele>
        <time>2021-01-02T12:51:57.000Z</time>
      </trkpt>
      <trkpt lat="47.36604" lon="-1.38964">
        <ele>114</ele>
        <time>2021-01-02T12:51:59.000Z</time>
      </trkpt>
      <trkpt lat="47.36596" lon="-1.38949">
        <ele>115</ele>
        <time>2021-01-02T12:52:01.000Z</time>
      </trkpt>
      <trkpt lat="47.36589" lon="-1.38935">
        <ele>115</ele>
        <time>2021-01-02T12:52:03.000Z</time>
      </trkpt>
      <trkpt lat="47.36582" lon="-1.3892">
        <ele>115</ele>
        <time>2021-01-02T12:52:05.000Z</time>
      </trkpt>
      <trkpt lat="47.36575" lon="-1.38905">
        <ele>115</ele>
        <time>2021-01-02T12:52:07.000Z</time>
      </trkpt>
      <trkpt lat="47.36569" lon="-1.38891">
        <ele>115</ele>
        <time>2021-01-02T12:52:09.000Z</time>
      </trkpt>
      <trkpt lat="47.36562" lon="-1.38877">
        <ele>116</ele>
        <time>2021-01-02T12:52:11.000Z</time>
      </trkpt>
      <trkpt lat="47.36556" lon="-1.38862">
        <ele>116</ele>
        <time>2021-01-02T12:52:13.000Z</time>
      </trkpt>
      <trkpt lat="47.36549" lon="-1.38848">
        <ele>116</ele>
        <time>2021-01-02T12:52:15.000Z</time>
      </trkpt>
      <trkpt lat="47.36541" lon="-1.38834">
        <ele>116</ele>
        <time>2021-01-02T12:52:17.000Z</time>
      </trkpt>
      <trkpt lat="47.36534" lon="-1.38819">
        <ele>116</ele>
        <time>2021-01-02T12:52:19.000Z</time>
      </trkpt>
      <trkpt lat="47.36527" lon="-1.38804">
        <ele>116</ele>
        <time>2021-01-02T12:52:21.000Z</time>
      </trkpt>
      <trkpt lat="47.3652" lon="-1.38789">
        <ele>116</ele>
        <time>2021-01-02T12:52:23.000Z</time>
      </trkpt>
      <trkpt lat="47.36513" lon="-1.38774">
        <ele>116</ele>
        <time>2021-01-02T12:52:25.000Z</time>
      </trkpt>
      <trkpt lat="47.36505" lon="-1.38759">
        <ele>117</ele>
        <time>2021-01-02T12:52:27.000Z</time>
      </trkpt>
      <trkpt lat="47.36497" lon="-1.38743">
        <ele>117</ele>
        <time>2021-01-02T12:52:29.000Z</time>
      </trkpt>
      <trkpt lat="47.3649" lon="-1.38727">
        <ele>117</ele>
        <time>2021-01-02T12:52:31.000Z</time>
      </trkpt>
      <trkpt lat="47.36482" lon="-1.38711">
        <ele>117</ele>
        <time>2021-01-02T12:52:33.000Z</time>
      </trkpt>
      <trkpt lat="47.36475" lon="-1.38695">
        <ele>117</ele>
        <time>2021-01-02T12:52:35.000Z</time>
      </trkpt>
      <trkpt lat="47.36467" lon="-1.38677">
        <ele>117</ele>
        <time>2021-01-02T12:52:37.000Z</time>
      </trkpt>
      <trkpt lat="47.36459" lon="-1.38662">
        <ele>117</ele>
        <time>2021-01-02T12:52:39.000Z</time>
      </trkpt>
      <trkpt lat="47.36451" lon="-1.38645">
        <ele>117</ele>
        <time>2021-01-02T12:52:41.000Z</time>
      </trkpt>
      <trkpt lat="47.36444" lon="-1.38628">
        <ele>117</ele>
        <time>2021-01-02T12:52:43.000Z</time>
      </trkpt>
      <trkpt lat="47.36436" lon="-1.38611">
        <ele>118</ele>
        <time>2021-01-02T12:52:45.000Z</time>
      </trkpt>
      <trkpt lat="47.36428" lon="-1.38595">
        <ele>118</ele>
        <time>2021-01-02T12:52:47.000Z</time>
      </trkpt>
      <trkpt lat="47.3642" lon="-1.38578">
        <ele>118</ele>
        <time>2021-01-02T12:52:49.000Z</time>
      </trkpt>
      <trkpt lat="47.36412" lon="-1.38562">
        <ele>118</ele>
        <time>2021-01-02T12:52:51.000Z</time>
      </trkpt>
      <trkpt lat="47.36403" lon="-1.38548">
        <ele>118</ele>
        <time>2021-01-02T12:52:53.000Z</time>
      </trkpt>
      <trkpt lat="47.36394" lon="-1.38534">
        <ele>118</ele>
        <time>2021-01-02T12:52:55.000Z</time>
      </trkpt>
      <trkpt lat="47.36385" lon="-1.38519">
        <ele>118</ele>
        <time>2021-01-02T12:52:57.000Z</time>
      </trkpt>
      <trkpt lat="47.36376" lon="-1.38505">
        <ele>118</ele>
        <time>2021-01-02T12:52:59.000Z</time>
      </trkpt>
      <trkpt lat="47.36366" lon="-1.38491">
        <ele>118</ele>
        <time>2021-01-02T12:53:01.000Z</time>
      </trkpt>
      <trkpt lat="47.36357" lon="-1.38477">
        <ele>118</ele>
        <time>2021-01-02T12:53:03.000Z</time>
      </trkpt>
      <trkpt lat="47.36347" lon="-1.38463">
        <ele>118</ele>
        <time>2021-01-02T12:53:05.000Z</time>
      </trkpt>
      <trkpt lat="47.36338" lon="-1.38449">
        <ele>118</ele>
        <time>2021-01-02T12:53:07.000Z</time>
      </trkpt>
      <trkpt lat="47.36329" lon="-1.38435">
        <ele>118</ele>
        <time>2021-01-02T12:53:09.000Z</time>
      </trkpt>
      <trkpt lat="47.36319" lon="-1.38421">
        <ele>118</ele>
        <time>2021-01-02T12:53:11.000Z</time>
      </trkpt>
      <trkpt lat="47.36309" lon="-1.38407">
        <ele>117</ele>
        <time>2021-01-02T12:53:13.000Z</time>
      </trkpt>
      <trkpt lat="47.363" lon="-1.38392">
        <ele>117</ele>
        <time>2021-01-02T12:53:15.000Z</time>
      </trkpt>
      <trkpt lat="47.3629" lon="-1.38378">
        <ele>117</ele>
        <time>2021-01-02T12:53:17.000Z</time>
      </trkpt>
      <trkpt lat="47.36281" lon="-1.38364">
        <ele>117</ele>
        <time>2021-01-02T12:53:19.000Z</time>
      </trkpt>
      <trkpt lat="47.36272" lon="-1.3835">
        <ele>117</ele>
        <time>2021-01-02T12:53:21.000Z</time>
      </trkpt>
      <trkpt lat="47.36263" lon="-1.38336">
        <ele>117</ele>
        <time>2021-01-02T12:53:23.000Z</time>
      </trkpt>
      <trkpt lat="47.36253" lon="-1.38322">
        <ele>117</ele>
        <time>2021-01-02T12:53:25.000Z</time>
      </trkpt>
      <trkpt lat="47.36243" lon="-1.38307">
        <ele>117</ele>
        <time>2021-01-02T12:53:27.000Z</time>
      </trkpt>
      <trkpt lat="47.36234" lon="-1.38293">
        <ele>117</ele>
        <time>2021-01-02T12:53:29.000Z</time>
      </trkpt>
      <trkpt lat="47.36225" lon="-1.38279">
        <ele>117</ele>
        <time>2021-01-02T12:53:31.000Z</time>
      </trkpt>
      <trkpt lat="47.36215" lon="-1.38265">
        <ele>117</ele>
        <time>2021-01-02T12:53:33.000Z</time>
      </trkpt>
      <trkpt lat="47.36206" lon="-1.3825">
        <ele>117</ele>
        <time>2021-01-02T12:53:35.000Z</time>
      </trkpt>
      <trkpt lat="47.36196" lon="-1.38236">
        <ele>117</ele>
        <time>2021-01-02T12:53:37.000Z</time>
      </trkpt>
      <trkpt lat="47.36186" lon="-1.38222">
        <ele>117</ele>
        <time>2021-01-02T12:53:39.000Z</time>
      </trkpt>
      <trkpt lat="47.36177" lon="-1.38207">
        <ele>117</ele>
        <time>2021-01-02T12:53:41.000Z</time>
      </trkpt>
      <trkpt lat="47.36168" lon="-1.38194">
        <ele>117</ele>
        <time>2021-01-02T12:53:43.000Z</time>
      </trkpt>
      <trkpt lat="47.36159" lon="-1.3818">
        <ele>117</ele>
        <time>2021-01-02T12:53:45.000Z</time>
      </trkpt>
      <trkpt lat="47.3615" lon="-1.38167">
        <ele>117</ele>
        <time>2021-01-02T12:53:47.000Z</time>
      </trkpt>
      <trkpt lat="47.36141" lon="-1.38153">
        <ele>117</ele>
        <time>2021-01-02T12:53:49.000Z</time>
      </trkpt>
      <trkpt lat="47.36131" lon="-1.38139">
        <ele>118</ele>
        <time>2021-01-02T12:53:51.000Z</time>
      </trkpt>
      <trkpt lat="47.36122" lon="-1.38125">
        <ele>118</ele>
        <time>2021-01-02T12:53:53.000Z</time>
      </trkpt>
      <trkpt lat="47.36113" lon="-1.38113">
        <ele>118</ele>
        <time>2021-01-02T12:53:55.000Z</time>
      </trkpt>
      <trkpt lat="47.36104" lon="-1.381">
        <ele>119</ele>
        <time>2021-01-02T12:53:57.000Z</time>
      </trkpt>
      <trkpt lat="47.36096" lon="-1.38087">
        <ele>119</ele>
        <time>2021-01-02T12:53:59.000Z</time>
      </trkpt>
      <trkpt lat="47.36087" lon="-1.38074">
        <ele>119</ele>
        <time>2021-01-02T12:54:01.000Z</time>
      </trkpt>
      <trkpt lat="47.36078" lon="-1.3806">
        <ele>119</ele>
        <time>2021-01-02T12:54:03.000Z</time>
      </trkpt>
      <trkpt lat="47.36069" lon="-1.38048">
        <ele>120</ele>
        <time>2021-01-02T12:54:05.000Z</time>
      </trkpt>
      <trkpt lat="47.3606" lon="-1.38034">
        <ele>120</ele>
        <time>2021-01-02T12:54:07.000Z</time>
      </trkpt>
      <trkpt lat="47.36051" lon="-1.38021">
        <ele>120</ele>
        <time>2021-01-02T12:54:09.000Z</time>
      </trkpt>
      <trkpt lat="47.36042" lon="-1.38008">
        <ele>120</ele>
        <time>2021-01-02T12:54:11.000Z</time>
      </trkpt>
      <trkpt lat="47.36033" lon="-1.37996">
        <ele>120</ele>
        <time>2021-01-02T12:54:13.000Z</time>
      </trkpt>
      <trkpt lat="47.36025" lon="-1.37982">
        <ele>120</ele>
        <time>2021-01-02T12:54:15.000Z</time>
      </trkpt>
      <trkpt lat="47.36017" lon="-1.3797">
        <ele>121</ele>
        <time>2021-01-02T12:54:17.000Z</time>
      </trkpt>
      <trkpt lat="47.36009" lon="-1.37957">
        <ele>121</ele>
        <time>2021-01-02T12:54:19.000Z</time>
      </trkpt>
      <trkpt lat="47.36" lon="-1.37944">
        <ele>121</ele>
        <time>2021-01-02T12:54:21.000Z</time>
      </trkpt>
      <trkpt lat="47.35992" lon="-1.37931">
        <ele>121</ele>
        <time>2021-01-02T12:54:23.000Z</time>
      </trkpt>
      <trkpt lat="47.35984" lon="-1.37919">
        <ele>121</ele>
        <time>2021-01-02T12:54:25.000Z</time>
      </trkpt>
      <trkpt lat="47.35975" lon="-1.37906">
        <ele>122</ele>
        <time>2021-01-02T12:54:27.000Z</time>
      </trkpt>
      <trkpt lat="47.35966" lon="-1.37893">
        <ele>122</ele>
        <time>2021-01-02T12:54:29.000Z</time>
      </trkpt>
      <trkpt lat="47.35958" lon="-1.3788">
        <ele>122</ele>
        <time>2021-01-02T12:54:31.000Z</time>
      </trkpt>
      <trkpt lat="47.35949" lon="-1.37867">
        <ele>123</ele>
        <time>2021-01-02T12:54:33.000Z</time>
      </trkpt>
      <trkpt lat="47.3594" lon="-1.37855">
        <ele>123</ele>
        <time>2021-01-02T12:54:35.000Z</time>
      </trkpt>
      <trkpt lat="47.35932" lon="-1.37842">
        <ele>123</ele>
        <time>2021-01-02T12:54:37.000Z</time>
      </trkpt>
      <trkpt lat="47.35923" lon="-1.37828">
        <ele>123</ele>
        <time>2021-01-02T12:54:39.000Z</time>
      </trkpt>
      <trkpt lat="47.35915" lon="-1.37815">
        <ele>123</ele>
        <time>2021-01-02T12:54:41.000Z</time>
      </trkpt>
      <trkpt lat="47.35906" lon="-1.37802">
        <ele>124</ele>
        <time>2021-01-02T12:54:43.000Z</time>
      </trkpt>
      <trkpt lat="47.35897" lon="-1.37789">
        <ele>124</ele>
        <time>2021-01-02T12:54:45.000Z</time>
      </trkpt>
      <trkpt lat="47.35888" lon="-1.37776">
        <ele>124</ele>
        <time>2021-01-02T12:54:47.000Z</time>
      </trkpt>
      <trkpt lat="47.3588" lon="-1.37763">
        <ele>124</ele>
        <time>2021-01-02T12:54:49.000Z</time>
      </trkpt>
      <trkpt lat="47.35871" lon="-1.37749">
        <ele>124</ele>
        <time>2021-01-02T12:54:51.000Z</time>
      </trkpt>
      <trkpt lat="47.35863" lon="-1.37736">
        <ele>124</ele>
        <time>2021-01-02T12:54:53.000Z</time>
      </trkpt>
      <trkpt lat="47.35854" lon="-1.37723">
        <ele>125</ele>
        <time>2021-01-02T12:54:55.000Z</time>
      </trkpt>
      <trkpt lat="47.35845" lon="-1.37711">
        <ele>125</ele>
        <time>2021-01-02T12:54:57.000Z</time>
      </trkpt>
      <trkpt lat="47.35837" lon="-1.37698">
        <ele>125</ele>
        <time>2021-01-02T12:54:59.000Z</time>
      </trkpt>
      <trkpt lat="47.35828" lon="-1.37685">
        <ele>126</ele>
        <time>2021-01-02T12:55:01.000Z</time>
      </trkpt>
      <trkpt lat="47.3582" lon="-1.37673">
        <ele>126</ele>
        <time>2021-01-02T12:55:03.000Z</time>
      </trkpt>
      <trkpt lat="47.35811" lon="-1.3766">
        <ele>126</ele>
        <time>2021-01-02T12:55:05.000Z</time>
      </trkpt>
      <trkpt lat="47.35802" lon="-1.37647">
        <ele>126</ele>
        <time>2021-01-02T12:55:07.000Z</time>
      </trkpt>
      <trkpt lat="47.35794" lon="-1.37635">
        <ele>126</ele>
        <time>2021-01-02T12:55:09.000Z</time>
      </trkpt>
      <trkpt lat="47.35785" lon="-1.37622">
        <ele>127</ele>
        <time>2021-01-02T12:55:11.000Z</time>
      </trkpt>
      <trkpt lat="47.35776" lon="-1.37609">
        <ele>127</ele>
        <time>2021-01-02T12:55:13.000Z</time>
      </trkpt>
      <trkpt lat="47.35768" lon="-1.37595">
        <ele>127</ele>
        <time>2021-01-02T12:55:15.000Z</time>
      </trkpt>
      <trkpt lat="47.35759" lon="-1.37582">
        <ele>128</ele>
        <time>2021-01-02T12:55:17.000Z</time>
      </trkpt>
      <trkpt lat="47.35751" lon="-1.37569">
        <ele>127</ele>
        <time>2021-01-02T12:55:19.000Z</time>
      </trkpt>
      <trkpt lat="47.35742" lon="-1.37555">
        <ele>127</ele>
        <time>2021-01-02T12:55:21.000Z</time>
      </trkpt>
      <trkpt lat="47.35734" lon="-1.37542">
        <ele>128</ele>
        <time>2021-01-02T12:55:23.000Z</time>
      </trkpt>
      <trkpt lat="47.35725" lon="-1.37529">
        <ele>128</ele>
        <time>2021-01-02T12:55:25.000Z</time>
      </trkpt>
      <trkpt lat="47.35715" lon="-1.37516">
        <ele>128</ele>
        <time>2021-01-02T12:55:27.000Z</time>
      </trkpt>
      <trkpt lat="47.35707" lon="-1.37503">
        <ele>128</ele>
        <time>2021-01-02T12:55:29.000Z</time>
      </trkpt>
      <trkpt lat="47.35697" lon="-1.3749">
        <ele>128</ele>
        <time>2021-01-02T12:55:31.000Z</time>
      </trkpt>
      <trkpt lat="47.35689" lon="-1.37476">
        <ele>128</ele>
        <time>2021-01-02T12:55:33.000Z</time>
      </trkpt>
      <trkpt lat="47.3568" lon="-1.37462">
        <ele>128</ele>
        <time>2021-01-02T12:55:35.000Z</time>
      </trkpt>
      <trkpt lat="47.35671" lon="-1.37449">
        <ele>129</ele>
        <time>2021-01-02T12:55:37.000Z</time>
      </trkpt>
      <trkpt lat="47.35662" lon="-1.37435">
        <ele>129</ele>
        <time>2021-01-02T12:55:39.000Z</time>
      </trkpt>
      <trkpt lat="47.35653" lon="-1.37422">
        <ele>129</ele>
        <time>2021-01-02T12:55:41.000Z</time>
      </trkpt>
      <trkpt lat="47.35644" lon="-1.37409">
        <ele>129</ele>
        <time>2021-01-02T12:55:43.000Z</time>
      </trkpt>
      <trkpt lat="47.35636" lon="-1.37395">
        <ele>129</ele>
        <time>2021-01-02T12:55:45.000Z</time>
      </trkpt>
      <trkpt lat="47.35627" lon="-1.37381">
        <ele>129</ele>
        <time>2021-01-02T12:55:47.000Z</time>
      </trkpt>
      <trkpt lat="47.35617" lon="-1.37368">
        <ele>128</ele>
        <time>2021-01-02T12:55:49.000Z</time>
      </trkpt>
      <trkpt lat="47.35608" lon="-1.37354">
        <ele>128</ele>
        <time>2021-01-02T12:55:51.000Z</time>
      </trkpt>
      <trkpt lat="47.35599" lon="-1.3734">
        <ele>128</ele>
        <time>2021-01-02T12:55:53.000Z</time>
      </trkpt>
      <trkpt lat="47.3559" lon="-1.37326">
        <ele>128</ele>
        <time>2021-01-02T12:55:55.000Z</time>
      </trkpt>
      <trkpt lat="47.3558" lon="-1.37312">
        <ele>128</ele>
        <time>2021-01-02T12:55:57.000Z</time>
      </trkpt>
      <trkpt lat="47.3557" lon="-1.37298">
        <ele>128</ele>
        <time>2021-01-02T12:55:59.000Z</time>
      </trkpt>
      <trkpt lat="47.3556" lon="-1.37284">
        <ele>128</ele>
        <time>2021-01-02T12:56:01.000Z</time>
      </trkpt>
      <trkpt lat="47.35551" lon="-1.3727">
        <ele>129</ele>
        <time>2021-01-02T12:56:03.000Z</time>
      </trkpt>
      <trkpt lat="47.35541" lon="-1.37256">
        <ele>129</ele>
        <time>2021-01-02T12:56:05.000Z</time>
      </trkpt>
      <trkpt lat="47.35531" lon="-1.37243">
        <ele>129</ele>
        <time>2021-01-02T12:56:07.000Z</time>
      </trkpt>
      <trkpt lat="47.3552" lon="-1.37229">
        <ele>129</ele>
        <time>2021-01-02T12:56:09.000Z</time>
      </trkpt>
      <trkpt lat="47.3551" lon="-1.37215">
        <ele>130</ele>
        <time>2021-01-02T12:56:11.000Z</time>
      </trkpt>
      <trkpt lat="47.35501" lon="-1.37202">
        <ele>131</ele>
        <time>2021-01-02T12:56:13.000Z</time>
      </trkpt>
      <trkpt lat="47.35492" lon="-1.37188">
        <ele>131</ele>
        <time>2021-01-02T12:56:15.000Z</time>
      </trkpt>
      <trkpt lat="47.35484" lon="-1.37175">
        <ele>131</ele>
        <time>2021-01-02T12:56:17.000Z</time>
      </trkpt>
      <trkpt lat="47.35475" lon="-1.37163">
        <ele>131</ele>
        <time>2021-01-02T12:56:19.000Z</time>
      </trkpt>
      <trkpt lat="47.35466" lon="-1.37151">
        <ele>133</ele>
        <time>2021-01-02T12:56:21.000Z</time>
      </trkpt>
      <trkpt lat="47.35457" lon="-1.37138">
        <ele>132</ele>
        <time>2021-01-02T12:56:23.000Z</time>
      </trkpt>
      <trkpt lat="47.35448" lon="-1.37125">
        <ele>133</ele>
        <time>2021-01-02T12:56:25.000Z</time>
      </trkpt>
      <trkpt lat="47.35439" lon="-1.37112">
        <ele>134</ele>
        <time>2021-01-02T12:56:27.000Z</time>
      </trkpt>
      <trkpt lat="47.3543" lon="-1.37099">
        <ele>135</ele>
        <time>2021-01-02T12:56:29.000Z</time>
      </trkpt>
      <trkpt lat="47.3542" lon="-1.37086">
        <ele>135</ele>
        <time>2021-01-02T12:56:31.000Z</time>
      </trkpt>
      <trkpt lat="47.35412" lon="-1.37073">
        <ele>135</ele>
        <time>2021-01-02T12:56:33.000Z</time>
      </trkpt>
      <trkpt lat="47.35404" lon="-1.3706">
        <ele>135</ele>
        <time>2021-01-02T12:56:35.000Z</time>
      </trkpt>
      <trkpt lat="47.35396" lon="-1.37046">
        <ele>135</ele>
        <time>2021-01-02T12:56:37.000Z</time>
      </trkpt>
      <trkpt lat="47.35389" lon="-1.37031">
        <ele>134</ele>
        <time>2021-01-02T12:56:39.000Z</time>
      </trkpt>
      <trkpt lat="47.3538" lon="-1.37017">
        <ele>134</ele>
        <time>2021-01-02T12:56:41.000Z</time>
      </trkpt>
      <trkpt lat="47.35372" lon="-1.37004">
        <ele>133</ele>
        <time>2021-01-02T12:56:43.000Z</time>
      </trkpt>
      <trkpt lat="47.35363" lon="-1.36989">
        <ele>132</ele>
        <time>2021-01-02T12:56:45.000Z</time>
      </trkpt>
      <trkpt lat="47.35355" lon="-1.36975">
        <ele>132</ele>
        <time>2021-01-02T12:56:47.000Z</time>
      </trkpt>
      <trkpt lat="47.35347" lon="-1.36962">
        <ele>132</ele>
        <time>2021-01-02T12:56:49.000Z</time>
      </trkpt>
      <trkpt lat="47.35338" lon="-1.36948">
        <ele>132</ele>
        <time>2021-01-02T12:56:51.000Z</time>
      </trkpt>
      <trkpt lat="47.3533" lon="-1.36935">
        <ele>132</ele>
        <time>2021-01-02T12:56:53.000Z</time>
      </trkpt>
      <trkpt lat="47.35322" lon="-1.36922">
        <ele>131</ele>
        <time>2021-01-02T12:56:55.000Z</time>
      </trkpt>
      <trkpt lat="47.35314" lon="-1.36908">
        <ele>131</ele>
        <time>2021-01-02T12:56:57.000Z</time>
      </trkpt>
      <trkpt lat="47.35305" lon="-1.36894">
        <ele>131</ele>
        <time>2021-01-02T12:56:59.000Z</time>
      </trkpt>
      <trkpt lat="47.35292" lon="-1.36874">
        <ele>131</ele>
        <time>2021-01-02T12:57:02.000Z</time>
      </trkpt>
      <trkpt lat="47.35283" lon="-1.36862">
        <ele>130</ele>
        <time>2021-01-02T12:57:04.000Z</time>
      </trkpt>
      <trkpt lat="47.35274" lon="-1.36848">
        <ele>130</ele>
        <time>2021-01-02T12:57:06.000Z</time>
      </trkpt>
      <trkpt lat="47.35265" lon="-1.36835">
        <ele>130</ele>
        <time>2021-01-02T12:57:08.000Z</time>
      </trkpt>
      <trkpt lat="47.35256" lon="-1.36822">
        <ele>130</ele>
        <time>2021-01-02T12:57:10.000Z</time>
      </trkpt>
      <trkpt lat="47.35248" lon="-1.36807">
        <ele>130</ele>
        <time>2021-01-02T12:57:12.000Z</time>
      </trkpt>
      <trkpt lat="47.35239" lon="-1.36793">
        <ele>130</ele>
        <time>2021-01-02T12:57:14.000Z</time>
      </trkpt>
      <trkpt lat="47.3523" lon="-1.3678">
        <ele>129</ele>
        <time>2021-01-02T12:57:16.000Z</time>
      </trkpt>
      <trkpt lat="47.35217" lon="-1.3676">
        <ele>130</ele>
        <time>2021-01-02T12:57:19.000Z</time>
      </trkpt>
      <trkpt lat="47.35208" lon="-1.36746">
        <ele>130</ele>
        <time>2021-01-02T12:57:21.000Z</time>
      </trkpt>
      <trkpt lat="47.35198" lon="-1.36733">
        <ele>130</ele>
        <time>2021-01-02T12:57:23.000Z</time>
      </trkpt>
      <trkpt lat="47.35185" lon="-1.36712">
        <ele>130</ele>
        <time>2021-01-02T12:57:26.000Z</time>
      </trkpt>
      <trkpt lat="47.35175" lon="-1.36699">
        <ele>131</ele>
        <time>2021-01-02T12:57:28.000Z</time>
      </trkpt>
      <trkpt lat="47.35167" lon="-1.36686">
        <ele>132</ele>
        <time>2021-01-02T12:57:30.000Z</time>
      </trkpt>
      <trkpt lat="47.35158" lon="-1.36672">
        <ele>132</ele>
        <time>2021-01-02T12:57:32.000Z</time>
      </trkpt>
      <trkpt lat="47.35149" lon="-1.36658">
        <ele>131</ele>
        <time>2021-01-02T12:57:34.000Z</time>
      </trkpt>
      <trkpt lat="47.3514" lon="-1.36645">
        <ele>132</ele>
        <time>2021-01-02T12:57:36.000Z</time>
      </trkpt>
      <trkpt lat="47.35131" lon="-1.36631">
        <ele>132</ele>
        <time>2021-01-02T12:57:38.000Z</time>
      </trkpt>
      <trkpt lat="47.35123" lon="-1.36619">
        <ele>133</ele>
        <time>2021-01-02T12:57:40.000Z</time>
      </trkpt>
      <trkpt lat="47.35114" lon="-1.36607">
        <ele>134</ele>
        <time>2021-01-02T12:57:42.000Z</time>
      </trkpt>
      <trkpt lat="47.35105" lon="-1.36594">
        <ele>135</ele>
        <time>2021-01-02T12:57:44.000Z</time>
      </trkpt>
      <trkpt lat="47.35096" lon="-1.3658">
        <ele>135</ele>
        <time>2021-01-02T12:57:46.000Z</time>
      </trkpt>
      <trkpt lat="47.35087" lon="-1.36566">
        <ele>135</ele>
        <time>2021-01-02T12:57:48.000Z</time>
      </trkpt>
      <trkpt lat="47.35077" lon="-1.36552">
        <ele>134</ele>
        <time>2021-01-02T12:57:50.000Z</time>
      </trkpt>
      <trkpt lat="47.35068" lon="-1.36537">
        <ele>134</ele>
        <time>2021-01-02T12:57:52.000Z</time>
      </trkpt>
      <trkpt lat="47.35059" lon="-1.36524">
        <ele>134</ele>
        <time>2021-01-02T12:57:54.000Z</time>
      </trkpt>
      <trkpt lat="47.35051" lon="-1.36509">
        <ele>134</ele>
        <time>2021-01-02T12:57:56.000Z</time>
      </trkpt>
      <trkpt lat="47.35043" lon="-1.36496">
        <ele>133</ele>
        <time>2021-01-02T12:57:58.000Z</time>
      </trkpt>
      <trkpt lat="47.35034" lon="-1.36483">
        <ele>133</ele>
        <time>2021-01-02T12:58:00.000Z</time>
      </trkpt>
      <trkpt lat="47.35025" lon="-1.36469">
        <ele>133</ele>
        <time>2021-01-02T12:58:02.000Z</time>
      </trkpt>
      <trkpt lat="47.35016" lon="-1.36456">
        <ele>133</ele>
        <time>2021-01-02T12:58:04.000Z</time>
      </trkpt>
      <trkpt lat="47.35001" lon="-1.36436">
        <ele>133</ele>
        <time>2021-01-02T12:58:07.000Z</time>
      </trkpt>
      <trkpt lat="47.34991" lon="-1.36424">
        <ele>132</ele>
        <time>2021-01-02T12:58:09.000Z</time>
      </trkpt>
      <trkpt lat="47.34976" lon="-1.36405">
        <ele>132</ele>
        <time>2021-01-02T12:58:12.000Z</time>
      </trkpt>
      <trkpt lat="47.34966" lon="-1.36392">
        <ele>133</ele>
        <time>2021-01-02T12:58:14.000Z</time>
      </trkpt>
      <trkpt lat="47.34956" lon="-1.36379">
        <ele>132</ele>
        <time>2021-01-02T12:58:16.000Z</time>
      </trkpt>
      <trkpt lat="47.34946" lon="-1.36367">
        <ele>132</ele>
        <time>2021-01-02T12:58:18.000Z</time>
      </trkpt>
      <trkpt lat="47.34935" lon="-1.36354">
        <ele>132</ele>
        <time>2021-01-02T12:58:20.000Z</time>
      </trkpt>
      <trkpt lat="47.34925" lon="-1.36341">
        <ele>132</ele>
        <time>2021-01-02T12:58:22.000Z</time>
      </trkpt>
      <trkpt lat="47.34915" lon="-1.36329">
        <ele>132</ele>
        <time>2021-01-02T12:58:24.000Z</time>
      </trkpt>
      <trkpt lat="47.34905" lon="-1.36315">
        <ele>132</ele>
        <time>2021-01-02T12:58:26.000Z</time>
      </trkpt>
      <trkpt lat="47.34896" lon="-1.36301">
        <ele>131</ele>
        <time>2021-01-02T12:58:28.000Z</time>
      </trkpt>
      <trkpt lat="47.34883" lon="-1.3628">
        <ele>132</ele>
        <time>2021-01-02T12:58:31.000Z</time>
      </trkpt>
      <trkpt lat="47.34873" lon="-1.36265">
        <ele>132</ele>
        <time>2021-01-02T12:58:33.000Z</time>
      </trkpt>
      <trkpt lat="47.34865" lon="-1.36252">
        <ele>131</ele>
        <time>2021-01-02T12:58:35.000Z</time>
      </trkpt>
      <trkpt lat="47.34856" lon="-1.36238">
        <ele>131</ele>
        <time>2021-01-02T12:58:37.000Z</time>
      </trkpt>
      <trkpt lat="47.34847" lon="-1.36223">
        <ele>131</ele>
        <time>2021-01-02T12:58:39.000Z</time>
      </trkpt>
      <trkpt lat="47.34839" lon="-1.3621">
        <ele>131</ele>
        <time>2021-01-02T12:58:41.000Z</time>
      </trkpt>
      <trkpt lat="47.3483" lon="-1.36196">
        <ele>131</ele>
        <time>2021-01-02T12:58:43.000Z</time>
      </trkpt>
      <trkpt lat="47.34821" lon="-1.36183">
        <ele>131</ele>
        <time>2021-01-02T12:58:45.000Z</time>
      </trkpt>
      <trkpt lat="47.34812" lon="-1.36169">
        <ele>131</ele>
        <time>2021-01-02T12:58:47.000Z</time>
      </trkpt>
      <trkpt lat="47.34803" lon="-1.36155">
        <ele>132</ele>
        <time>2021-01-02T12:58:49.000Z</time>
      </trkpt>
      <trkpt lat="47.34793" lon="-1.36142">
        <ele>132</ele>
        <time>2021-01-02T12:58:51.000Z</time>
      </trkpt>
      <trkpt lat="47.34778" lon="-1.36123">
        <ele>132</ele>
        <time>2021-01-02T12:58:54.000Z</time>
      </trkpt>
      <trkpt lat="47.34768" lon="-1.36111">
        <ele>132</ele>
        <time>2021-01-02T12:58:56.000Z</time>
      </trkpt>
      <trkpt lat="47.34758" lon="-1.36099">
        <ele>132</ele>
        <time>2021-01-02T12:58:58.000Z</time>
      </trkpt>
      <trkpt lat="47.34748" lon="-1.36088">
        <ele>132</ele>
        <time>2021-01-02T12:59:00.000Z</time>
      </trkpt>
      <trkpt lat="47.34738" lon="-1.36076">
        <ele>132</ele>
        <time>2021-01-02T12:59:02.000Z</time>
      </trkpt>
      <trkpt lat="47.34727" lon="-1.36063">
        <ele>131</ele>
        <time>2021-01-02T12:59:04.000Z</time>
      </trkpt>
      <trkpt lat="47.34716" lon="-1.36051">
        <ele>131</ele>
        <time>2021-01-02T12:59:06.000Z</time>
      </trkpt>
      <trkpt lat="47.34706" lon="-1.36039">
        <ele>131</ele>
        <time>2021-01-02T12:59:08.000Z</time>
      </trkpt>
      <trkpt lat="47.34695" lon="-1.36026">
        <ele>130</ele>
        <time>2021-01-02T12:59:10.000Z</time>
      </trkpt>
      <trkpt lat="47.34684" lon="-1.36014">
        <ele>130</ele>
        <time>2021-01-02T12:59:12.000Z</time>
      </trkpt>
      <trkpt lat="47.34673" lon="-1.36002">
        <ele>130</ele>
        <time>2021-01-02T12:59:14.000Z</time>
      </trkpt>
      <trkpt lat="47.34661" lon="-1.35988">
        <ele>129</ele>
        <time>2021-01-02T12:59:16.000Z</time>
      </trkpt>
      <trkpt lat="47.34649" lon="-1.35976">
        <ele>129</ele>
        <time>2021-01-02T12:59:18.000Z</time>
      </trkpt>
      <trkpt lat="47.34637" lon="-1.35962">
        <ele>128</ele>
        <time>2021-01-02T12:59:20.000Z</time>
      </trkpt>
      <trkpt lat="47.34625" lon="-1.35949">
        <ele>128</ele>
        <time>2021-01-02T12:59:22.000Z</time>
      </trkpt>
      <trkpt lat="47.34612" lon="-1.35936">
        <ele>127</ele>
        <time>2021-01-02T12:59:24.000Z</time>
      </trkpt>
      <trkpt lat="47.34601" lon="-1.35922">
        <ele>127</ele>
        <time>2021-01-02T12:59:26.000Z</time>
      </trkpt>
      <trkpt lat="47.34591" lon="-1.35908">
        <ele>128</ele>
        <time>2021-01-02T12:59:28.000Z</time>
      </trkpt>
      <trkpt lat="47.3458" lon="-1.35895">
        <ele>128</ele>
        <time>2021-01-02T12:59:30.000Z</time>
      </trkpt>
      <trkpt lat="47.3457" lon="-1.35882">
        <ele>128</ele>
        <time>2021-01-02T12:59:32.000Z</time>
      </trkpt>
      <trkpt lat="47.34559" lon="-1.35869">
        <ele>128</ele>
        <time>2021-01-02T12:59:34.000Z</time>
      </trkpt>
      <trkpt lat="47.34549" lon="-1.35855">
        <ele>128</ele>
        <time>2021-01-02T12:59:36.000Z</time>
      </trkpt>
      <trkpt lat="47.34539" lon="-1.35838">
        <ele>129</ele>
        <time>2021-01-02T12:59:38.000Z</time>
      </trkpt>
      <trkpt lat="47.34529" lon="-1.35822">
        <ele>129</ele>
        <time>2021-01-02T12:59:40.000Z</time>
      </trkpt>
      <trkpt lat="47.34519" lon="-1.35805">
        <ele>129</ele>
        <time>2021-01-02T12:59:42.000Z</time>
      </trkpt>
      <trkpt lat="47.34511" lon="-1.35789">
        <ele>129</ele>
        <time>2021-01-02T12:59:44.000Z</time>
      </trkpt>
      <trkpt lat="47.34502" lon="-1.35773">
        <ele>130</ele>
        <time>2021-01-02T12:59:46.000Z</time>
      </trkpt>
      <trkpt lat="47.34494" lon="-1.35758">
        <ele>130</ele>
        <time>2021-01-02T12:59:48.000Z</time>
      </trkpt>
      <trkpt lat="47.34485" lon="-1.35743">
        <ele>130</ele>
        <time>2021-01-02T12:59:50.000Z</time>
      </trkpt>
      <trkpt lat="47.34477" lon="-1.35729">
        <ele>130</ele>
        <time>2021-01-02T12:59:52.000Z</time>
      </trkpt>
      <trkpt lat="47.34469" lon="-1.35714">
        <ele>130</ele>
        <time>2021-01-02T12:59:54.000Z</time>
      </trkpt>
      <trkpt lat="47.34461" lon="-1.35701">
        <ele>131</ele>
        <time>2021-01-02T12:59:56.000Z</time>
      </trkpt>
      <trkpt lat="47.34453" lon="-1.35688">
        <ele>132</ele>
        <time>2021-01-02T12:59:58.000Z</time>
      </trkpt>
      <trkpt lat="47.34444" lon="-1.35675">
        <ele>132</ele>
        <time>2021-01-02T13:00:00.000Z</time>
      </trkpt>
      <trkpt lat="47.34435" lon="-1.35663">
        <ele>133</ele>
        <time>2021-01-02T13:00:02.000Z</time>
      </trkpt>
      <trkpt lat="47.34425" lon="-1.35651">
        <ele>133</ele>
        <time>2021-01-02T13:00:04.000Z</time>
      </trkpt>
      <trkpt lat="47.34416" lon="-1.35636">
        <ele>133</ele>
        <time>2021-01-02T13:00:06.000Z</time>
      </trkpt>
      <trkpt lat="47.34407" lon="-1.35622">
        <ele>133</ele>
        <time>2021-01-02T13:00:08.000Z</time>
      </trkpt>
      <trkpt lat="47.34399" lon="-1.35606">
        <ele>133</ele>
        <time>2021-01-02T13:00:10.000Z</time>
      </trkpt>
      <trkpt lat="47.34391" lon="-1.35591">
        <ele>133</ele>
        <time>2021-01-02T13:00:12.000Z</time>
      </trkpt>
      <trkpt lat="47.34382" lon="-1.35577">
        <ele>133</ele>
        <time>2021-01-02T13:00:14.000Z</time>
      </trkpt>
      <trkpt lat="47.34374" lon="-1.35561">
        <ele>133</ele>
        <time>2021-01-02T13:00:16.000Z</time>
      </trkpt>
      <trkpt lat="47.34366" lon="-1.35547">
        <ele>133</ele>
        <time>2021-01-02T13:00:18.000Z</time>
      </trkpt>
      <trkpt lat="47.34358" lon="-1.35532">
        <ele>133</ele>
        <time>2021-01-02T13:00:20.000Z</time>
      </trkpt>
      <trkpt lat="47.3435" lon="-1.35517">
        <ele>133</ele>
        <time>2021-01-02T13:00:22.000Z</time>
      </trkpt>
      <trkpt lat="47.34341" lon="-1.35502">
        <ele>134</ele>
        <time>2021-01-02T13:00:24.000Z</time>
      </trkpt>
      <trkpt lat="47.34333" lon="-1.35487">
        <ele>134</ele>
        <time>2021-01-02T13:00:26.000Z</time>
      </trkpt>
      <trkpt lat="47.34325" lon="-1.35472">
        <ele>133</ele>
        <time>2021-01-02T13:00:28.000Z</time>
      </trkpt>
      <trkpt lat="47.34317" lon="-1.35457">
        <ele>133</ele>
        <time>2021-01-02T13:00:30.000Z</time>
      </trkpt>
      <trkpt lat="47.34308" lon="-1.35443">
        <ele>133</ele>
        <time>2021-01-02T13:00:32.000Z</time>
      </trkpt>
      <trkpt lat="47.343" lon="-1.35429">
        <ele>133</ele>
        <time>2021-01-02T13:00:34.000Z</time>
      </trkpt>
      <trkpt lat="47.34292" lon="-1.35414">
        <ele>133</ele>
        <time>2021-01-02T13:00:36.000Z</time>
      </trkpt>
      <trkpt lat="47.34284" lon="-1.35401">
        <ele>133</ele>
        <time>2021-01-02T13:00:38.000Z</time>
      </trkpt>
      <trkpt lat="47.34277" lon="-1.35386">
        <ele>133</ele>
        <time>2021-01-02T13:00:40.000Z</time>
      </trkpt>
      <trkpt lat="47.34268" lon="-1.35372">
        <ele>133</ele>
        <time>2021-01-02T13:00:42.000Z</time>
      </trkpt>
      <trkpt lat="47.34259" lon="-1.35358">
        <ele>133</ele>
        <time>2021-01-02T13:00:44.000Z</time>
      </trkpt>
      <trkpt lat="47.34251" lon="-1.35343">
        <ele>132</ele>
        <time>2021-01-02T13:00:46.000Z</time>
      </trkpt>
      <trkpt lat="47.34243" lon="-1.35329">
        <ele>132</ele>
        <time>2021-01-02T13:00:48.000Z</time>
      </trkpt>
      <trkpt lat="47.34234" lon="-1.35315">
        <ele>132</ele>
        <time>2021-01-02T13:00:50.000Z</time>
      </trkpt>
      <trkpt lat="47.34226" lon="-1.353">
        <ele>132</ele>
        <time>2021-01-02T13:00:52.000Z</time>
      </trkpt>
      <trkpt lat="47.34218" lon="-1.35285">
        <ele>132</ele>
        <time>2021-01-02T13:00:54.000Z</time>
      </trkpt>
      <trkpt lat="47.34209" lon="-1.35271">
        <ele>132</ele>
        <time>2021-01-02T13:00:56.000Z</time>
      </trkpt>
      <trkpt lat="47.34201" lon="-1.35257">
        <ele>132</ele>
        <time>2021-01-02T13:00:58.000Z</time>
      </trkpt>
      <trkpt lat="47.34193" lon="-1.35243">
        <ele>132</ele>
        <time>2021-01-02T13:01:00.000Z</time>
      </trkpt>
      <trkpt lat="47.34184" lon="-1.35229">
        <ele>132</ele>
        <time>2021-01-02T13:01:02.000Z</time>
      </trkpt>
      <trkpt lat="47.34175" lon="-1.35216">
        <ele>133</ele>
        <time>2021-01-02T13:01:04.000Z</time>
      </trkpt>
      <trkpt lat="47.34166" lon="-1.35201">
        <ele>132</ele>
        <time>2021-01-02T13:01:06.000Z</time>
      </trkpt>
      <trkpt lat="47.34158" lon="-1.35186">
        <ele>132</ele>
        <time>2021-01-02T13:01:08.000Z</time>
      </trkpt>
      <trkpt lat="47.34149" lon="-1.35171">
        <ele>132</ele>
        <time>2021-01-02T13:01:10.000Z</time>
      </trkpt>
      <trkpt lat="47.34139" lon="-1.35156">
        <ele>132</ele>
        <time>2021-01-02T13:01:12.000Z</time>
      </trkpt>
      <trkpt lat="47.3413" lon="-1.3514">
        <ele>132</ele>
        <time>2021-01-02T13:01:14.000Z</time>
      </trkpt>
      <trkpt lat="47.34122" lon="-1.35125">
        <ele>132</ele>
        <time>2021-01-02T13:01:16.000Z</time>
      </trkpt>
      <trkpt lat="47.34113" lon="-1.3511">
        <ele>132</ele>
        <time>2021-01-02T13:01:18.000Z</time>
      </trkpt>
      <trkpt lat="47.34104" lon="-1.35096">
        <ele>132</ele>
        <time>2021-01-02T13:01:20.000Z</time>
      </trkpt>
      <trkpt lat="47.34096" lon="-1.35082">
        <ele>132</ele>
        <time>2021-01-02T13:01:22.000Z</time>
      </trkpt>
      <trkpt lat="47.34087" lon="-1.35068">
        <ele>132</ele>
        <time>2021-01-02T13:01:24.000Z</time>
      </trkpt>
      <trkpt lat="47.34078" lon="-1.35055">
        <ele>133</ele>
        <time>2021-01-02T13:01:26.000Z</time>
      </trkpt>
      <trkpt lat="47.34069" lon="-1.3504">
        <ele>133</ele>
        <time>2021-01-02T13:01:28.000Z</time>
      </trkpt>
      <trkpt lat="47.34061" lon="-1.35026">
        <ele>134</ele>
        <time>2021-01-02T13:01:30.000Z</time>
      </trkpt>
      <trkpt lat="47.34052" lon="-1.35012">
        <ele>135</ele>
        <time>2021-01-02T13:01:32.000Z</time>
      </trkpt>
      <trkpt lat="47.34043" lon="-1.34998">
        <ele>134</ele>
        <time>2021-01-02T13:01:34.000Z</time>
      </trkpt>
      <trkpt lat="47.34035" lon="-1.34986">
        <ele>134</ele>
        <time>2021-01-02T13:01:36.000Z</time>
      </trkpt>
      <trkpt lat="47.34026" lon="-1.34974">
        <ele>133</ele>
        <time>2021-01-02T13:01:38.000Z</time>
      </trkpt>
      <trkpt lat="47.34016" lon="-1.34964">
        <ele>133</ele>
        <time>2021-01-02T13:01:40.000Z</time>
      </trkpt>
      <trkpt lat="47.34006" lon="-1.34959">
        <ele>134</ele>
        <time>2021-01-02T13:01:42.000Z</time>
      </trkpt>
      <trkpt lat="47.33995" lon="-1.3495">
        <ele>134</ele>
        <time>2021-01-02T13:01:44.000Z</time>
      </trkpt>
      <trkpt lat="47.33987" lon="-1.34936">
        <ele>134</ele>
        <time>2021-01-02T13:01:46.000Z</time>
      </trkpt>
      <trkpt lat="47.3398" lon="-1.34919">
        <ele>133</ele>
        <time>2021-01-02T13:01:48.000Z</time>
      </trkpt>
      <trkpt lat="47.33969" lon="-1.34907">
        <ele>132</ele>
        <time>2021-01-02T13:01:50.000Z</time>
      </trkpt>
      <trkpt lat="47.33958" lon="-1.34895">
        <ele>132</ele>
        <time>2021-01-02T13:01:52.000Z</time>
      </trkpt>
      <trkpt lat="47.33947" lon="-1.34884">
        <ele>131</ele>
        <time>2021-01-02T13:01:54.000Z</time>
      </trkpt>
      <trkpt lat="47.33936" lon="-1.34874">
        <ele>131</ele>
        <time>2021-01-02T13:01:56.000Z</time>
      </trkpt>
      <trkpt lat="47.33925" lon="-1.34863">
        <ele>131</ele>
        <time>2021-01-02T13:01:58.000Z</time>
      </trkpt>
      <trkpt lat="47.33914" lon="-1.34852">
        <ele>131</ele>
        <time>2021-01-02T13:02:00.000Z</time>
      </trkpt>
      <trkpt lat="47.33904" lon="-1.34841">
        <ele>131</ele>
        <time>2021-01-02T13:02:02.000Z</time>
      </trkpt>
      <trkpt lat="47.33893" lon="-1.34829">
        <ele>131</ele>
        <time>2021-01-02T13:02:04.000Z</time>
      </trkpt>
      <trkpt lat="47.33883" lon="-1.34816">
        <ele>130</ele>
        <time>2021-01-02T13:02:06.000Z</time>
      </trkpt>
      <trkpt lat="47.33873" lon="-1.34802">
        <ele>130</ele>
        <time>2021-01-02T13:02:08.000Z</time>
      </trkpt>
      <trkpt lat="47.33864" lon="-1.34789">
        <ele>130</ele>
        <time>2021-01-02T13:02:10.000Z</time>
      </trkpt>
      <trkpt lat="47.33854" lon="-1.34776">
        <ele>129</ele>
        <time>2021-01-02T13:02:12.000Z</time>
      </trkpt>
      <trkpt lat="47.33844" lon="-1.34763">
        <ele>130</ele>
        <time>2021-01-02T13:02:14.000Z</time>
      </trkpt>
      <trkpt lat="47.33834" lon="-1.34749">
        <ele>130</ele>
        <time>2021-01-02T13:02:16.000Z</time>
      </trkpt>
      <trkpt lat="47.33824" lon="-1.34736">
        <ele>130</ele>
        <time>2021-01-02T13:02:18.000Z</time>
      </trkpt>
      <trkpt lat="47.33814" lon="-1.34723">
        <ele>130</ele>
        <time>2021-01-02T13:02:20.000Z</time>
      </trkpt>
      <trkpt lat="47.33805" lon="-1.34709">
        <ele>129</ele>
        <time>2021-01-02T13:02:22.000Z</time>
      </trkpt>
      <trkpt lat="47.33795" lon="-1.34695">
        <ele>129</ele>
        <time>2021-01-02T13:02:24.000Z</time>
      </trkpt>
      <trkpt lat="47.33785" lon="-1.34682">
        <ele>129</ele>
        <time>2021-01-02T13:02:26.000Z</time>
      </trkpt>
      <trkpt lat="47.33775" lon="-1.34669">
        <ele>130</ele>
        <time>2021-01-02T13:02:28.000Z</time>
      </trkpt>
      <trkpt lat="47.33766" lon="-1.34657">
        <ele>130</ele>
        <time>2021-01-02T13:02:30.000Z</time>
      </trkpt>
      <trkpt lat="47.33756" lon="-1.34644">
        <ele>131</ele>
        <time>2021-01-02T13:02:32.000Z</time>
      </trkpt>
      <trkpt lat="47.33746" lon="-1.34631">
        <ele>131</ele>
        <time>2021-01-02T13:02:34.000Z</time>
      </trkpt>
      <trkpt lat="47.33736" lon="-1.34619">
        <ele>132</ele>
        <time>2021-01-02T13:02:36.000Z</time>
      </trkpt>
      <trkpt lat="47.33727" lon="-1.34606">
        <ele>132</ele>
        <time>2021-01-02T13:02:38.000Z</time>
      </trkpt>
      <trkpt lat="47.33717" lon="-1.34592">
        <ele>132</ele>
        <time>2021-01-02T13:02:40.000Z</time>
      </trkpt>
      <trkpt lat="47.33708" lon="-1.3458">
        <ele>132</ele>
        <time>2021-01-02T13:02:42.000Z</time>
      </trkpt>
      <trkpt lat="47.33698" lon="-1.34567">
        <ele>131</ele>
        <time>2021-01-02T13:02:44.000Z</time>
      </trkpt>
      <trkpt lat="47.33688" lon="-1.34554">
        <ele>131</ele>
        <time>2021-01-02T13:02:46.000Z</time>
      </trkpt>
      <trkpt lat="47.33679" lon="-1.3454">
        <ele>130</ele>
        <time>2021-01-02T13:02:48.000Z</time>
      </trkpt>
      <trkpt lat="47.33669" lon="-1.34526">
        <ele>131</ele>
        <time>2021-01-02T13:02:50.000Z</time>
      </trkpt>
      <trkpt lat="47.33659" lon="-1.34512">
        <ele>131</ele>
        <time>2021-01-02T13:02:52.000Z</time>
      </trkpt>
      <trkpt lat="47.3365" lon="-1.34498">
        <ele>130</ele>
        <time>2021-01-02T13:02:54.000Z</time>
      </trkpt>
      <trkpt lat="47.33641" lon="-1.34485">
        <ele>130</ele>
        <time>2021-01-02T13:02:56.000Z</time>
      </trkpt>
      <trkpt lat="47.3363" lon="-1.34474">
        <ele>130</ele>
        <time>2021-01-02T13:02:58.000Z</time>
      </trkpt>
      <trkpt lat="47.33619" lon="-1.34465">
        <ele>130</ele>
        <time>2021-01-02T13:03:00.000Z</time>
      </trkpt>
      <trkpt lat="47.33606" lon="-1.34458">
        <ele>130</ele>
        <time>2021-01-02T13:03:02.000Z</time>
      </trkpt>
      <trkpt lat="47.33594" lon="-1.34451">
        <ele>130</ele>
        <time>2021-01-02T13:03:04.000Z</time>
      </trkpt>
      <trkpt lat="47.33581" lon="-1.34445">
        <ele>129</ele>
        <time>2021-01-02T13:03:06.000Z</time>
      </trkpt>
      <trkpt lat="47.33568" lon="-1.34439">
        <ele>129</ele>
        <time>2021-01-02T13:03:08.000Z</time>
      </trkpt>
      <trkpt lat="47.33556" lon="-1.34432">
        <ele>129</ele>
        <time>2021-01-02T13:03:10.000Z</time>
      </trkpt>
      <trkpt lat="47.33543" lon="-1.34426">
        <ele>128</ele>
        <time>2021-01-02T13:03:12.000Z</time>
      </trkpt>
      <trkpt lat="47.3353" lon="-1.3442">
        <ele>128</ele>
        <time>2021-01-02T13:03:14.000Z</time>
      </trkpt>
      <trkpt lat="47.33517" lon="-1.34413">
        <ele>127</ele>
        <time>2021-01-02T13:03:16.000Z</time>
      </trkpt>
      <trkpt lat="47.33504" lon="-1.34406">
        <ele>127</ele>
        <time>2021-01-02T13:03:18.000Z</time>
      </trkpt>
      <trkpt lat="47.33491" lon="-1.34401">
        <ele>127</ele>
        <time>2021-01-02T13:03:20.000Z</time>
      </trkpt>
      <trkpt lat="47.33478" lon="-1.34394">
        <ele>127</ele>
        <time>2021-01-02T13:03:22.000Z</time>
      </trkpt>
      <trkpt lat="47.33465" lon="-1.34388">
        <ele>127</ele>
        <time>2021-01-02T13:03:24.000Z</time>
      </trkpt>
      <trkpt lat="47.33452" lon="-1.34382">
        <ele>127</ele>
        <time>2021-01-02T13:03:26.000Z</time>
      </trkpt>
      <trkpt lat="47.33438" lon="-1.34377">
        <ele>127</ele>
        <time>2021-01-02T13:03:28.000Z</time>
      </trkpt>
      <trkpt lat="47.33425" lon="-1.3437">
        <ele>127</ele>
        <time>2021-01-02T13:03:30.000Z</time>
      </trkpt>
      <trkpt lat="47.33411" lon="-1.34363">
        <ele>127</ele>
        <time>2021-01-02T13:03:32.000Z</time>
      </trkpt>
      <trkpt lat="47.33397" lon="-1.34356">
        <ele>126</ele>
        <time>2021-01-02T13:03:34.000Z</time>
      </trkpt>
      <trkpt lat="47.33383" lon="-1.34349">
        <ele>126</ele>
        <time>2021-01-02T13:03:36.000Z</time>
      </trkpt>
      <trkpt lat="47.3337" lon="-1.34341">
        <ele>125</ele>
        <time>2021-01-02T13:03:38.000Z</time>
      </trkpt>
      <trkpt lat="47.33357" lon="-1.34335">
        <ele>125</ele>
        <time>2021-01-02T13:03:40.000Z</time>
      </trkpt>
      <trkpt lat="47.33343" lon="-1.34327">
        <ele>125</ele>
        <time>2021-01-02T13:03:42.000Z</time>
      </trkpt>
      <trkpt lat="47.3333" lon="-1.34321">
        <ele>125</ele>
        <time>2021-01-02T13:03:44.000Z</time>
      </trkpt>
      <trkpt lat="47.33317" lon="-1.34316">
        <ele>125</ele>
        <time>2021-01-02T13:03:46.000Z</time>
      </trkpt>
      <trkpt lat="47.33304" lon="-1.34311">
        <ele>125</ele>
        <time>2021-01-02T13:03:48.000Z</time>
      </trkpt>
      <trkpt lat="47.33291" lon="-1.34309">
        <ele>125</ele>
        <time>2021-01-02T13:03:50.000Z</time>
      </trkpt>
      <trkpt lat="47.33277" lon="-1.34307">
        <ele>126</ele>
        <time>2021-01-02T13:03:52.000Z</time>
      </trkpt>
      <trkpt lat="47.33264" lon="-1.34304">
        <ele>126</ele>
        <time>2021-01-02T13:03:54.000Z</time>
      </trkpt>
      <trkpt lat="47.33251" lon="-1.34302">
        <ele>126</ele>
        <time>2021-01-02T13:03:56.000Z</time>
      </trkpt>
      <trkpt lat="47.33238" lon="-1.34301">
        <ele>126</ele>
        <time>2021-01-02T13:03:58.000Z</time>
      </trkpt>
      <trkpt lat="47.33225" lon="-1.34299">
        <ele>126</ele>
        <time>2021-01-02T13:04:00.000Z</time>
      </trkpt>
      <trkpt lat="47.33211" lon="-1.34297">
        <ele>125</ele>
        <time>2021-01-02T13:04:02.000Z</time>
      </trkpt>
      <trkpt lat="47.33198" lon="-1.34296">
        <ele>124</ele>
        <time>2021-01-02T13:04:04.000Z</time>
      </trkpt>
      <trkpt lat="47.33185" lon="-1.34294">
        <ele>124</ele>
        <time>2021-01-02T13:04:06.000Z</time>
      </trkpt>
      <trkpt lat="47.33173" lon="-1.34292">
        <ele>124</ele>
        <time>2021-01-02T13:04:08.000Z</time>
      </trkpt>
      <trkpt lat="47.33162" lon="-1.3429">
        <ele>124</ele>
        <time>2021-01-02T13:04:10.000Z</time>
      </trkpt>
      <trkpt lat="47.33151" lon="-1.34287">
        <ele>125</ele>
        <time>2021-01-02T13:05:09.000Z</time>
      </trkpt>
      <trkpt lat="47.33142" lon="-1.34277">
        <ele>125</ele>
        <time>2021-01-02T13:05:12.000Z</time>
      </trkpt>
      <trkpt lat="47.33131" lon="-1.34271">
        <ele>124</ele>
        <time>2021-01-02T13:05:14.000Z</time>
      </trkpt>
      <trkpt lat="47.33119" lon="-1.34263">
        <ele>123</ele>
        <time>2021-01-02T13:05:16.000Z</time>
      </trkpt>
      <trkpt lat="47.33107" lon="-1.34254">
        <ele>123</ele>
        <time>2021-01-02T13:05:18.000Z</time>
      </trkpt>
      <trkpt lat="47.33095" lon="-1.34246">
        <ele>122</ele>
        <time>2021-01-02T13:05:20.000Z</time>
      </trkpt>
      <trkpt lat="47.33083" lon="-1.34236">
        <ele>121</ele>
        <time>2021-01-02T13:05:22.000Z</time>
      </trkpt>
      <trkpt lat="47.33069" lon="-1.34227">
        <ele>120</ele>
        <time>2021-01-02T13:05:24.000Z</time>
      </trkpt>
      <trkpt lat="47.33055" lon="-1.34218">
        <ele>119</ele>
        <time>2021-01-02T13:05:26.000Z</time>
      </trkpt>
      <trkpt lat="47.3304" lon="-1.34208">
        <ele>119</ele>
        <time>2021-01-02T13:05:28.000Z</time>
      </trkpt>
      <trkpt lat="47.33026" lon="-1.34199">
        <ele>119</ele>
        <time>2021-01-02T13:05:30.000Z</time>
      </trkpt>
      <trkpt lat="47.33011" lon="-1.34189">
        <ele>118</ele>
        <time>2021-01-02T13:05:32.000Z</time>
      </trkpt>
      <trkpt lat="47.32997" lon="-1.3418">
        <ele>118</ele>
        <time>2021-01-02T13:05:34.000Z</time>
      </trkpt>
      <trkpt lat="47.32982" lon="-1.34168">
        <ele>117</ele>
        <time>2021-01-02T13:05:36.000Z</time>
      </trkpt>
      <trkpt lat="47.32967" lon="-1.34154">
        <ele>116</ele>
        <time>2021-01-02T13:05:38.000Z</time>
      </trkpt>
      <trkpt lat="47.32961" lon="-1.34145">
        <ele>116</ele>
        <time>2021-01-02T13:05:39.000Z</time>
      </trkpt>
      <trkpt lat="47.32954" lon="-1.34135">
        <ele>116</ele>
        <time>2021-01-02T13:05:40.000Z</time>
      </trkpt>
      <trkpt lat="47.32944" lon="-1.34114">
        <ele>115</ele>
        <time>2021-01-02T13:05:42.000Z</time>
      </trkpt>
      <trkpt lat="47.32936" lon="-1.34092">
        <ele>115</ele>
        <time>2021-01-02T13:05:44.000Z</time>
      </trkpt>
      <trkpt lat="47.32933" lon="-1.34067">
        <ele>115</ele>
        <time>2021-01-02T13:05:46.000Z</time>
      </trkpt>
      <trkpt lat="47.32934" lon="-1.34054">
        <ele>115</ele>
        <time>2021-01-02T13:05:47.000Z</time>
      </trkpt>
      <trkpt lat="47.32937" lon="-1.34039">
        <ele>114</ele>
        <time>2021-01-02T13:05:48.000Z</time>
      </trkpt>
      <trkpt lat="47.32939" lon="-1.34026">
        <ele>114</ele>
        <time>2021-01-02T13:05:49.000Z</time>
      </trkpt>
      <trkpt lat="47.32942" lon="-1.34012">
        <ele>113</ele>
        <time>2021-01-02T13:05:50.000Z</time>
      </trkpt>
      <trkpt lat="47.3295" lon="-1.33989">
        <ele>113</ele>
        <time>2021-01-02T13:05:52.000Z</time>
      </trkpt>
      <trkpt lat="47.32959" lon="-1.33965">
        <ele>113</ele>
        <time>2021-01-02T13:05:54.000Z</time>
      </trkpt>
      <trkpt lat="47.32963" lon="-1.33953">
        <ele>112</ele>
        <time>2021-01-02T13:05:55.000Z</time>
      </trkpt>
      <trkpt lat="47.32968" lon="-1.33941">
        <ele>112</ele>
        <time>2021-01-02T13:05:56.000Z</time>
      </trkpt>
      <trkpt lat="47.32973" lon="-1.33929">
        <ele>111</ele>
        <time>2021-01-02T13:05:57.000Z</time>
      </trkpt>
      <trkpt lat="47.32978" lon="-1.33917">
        <ele>110</ele>
        <time>2021-01-02T13:05:58.000Z</time>
      </trkpt>
      <trkpt lat="47.32982" lon="-1.33905">
        <ele>109</ele>
        <time>2021-01-02T13:05:59.000Z</time>
      </trkpt>
      <trkpt lat="47.32987" lon="-1.33893">
        <ele>109</ele>
        <time>2021-01-02T13:06:00.000Z</time>
      </trkpt>
      <trkpt lat="47.32991" lon="-1.33881">
        <ele>108</ele>
        <time>2021-01-02T13:06:01.000Z</time>
      </trkpt>
      <trkpt lat="47.32996" lon="-1.33868">
        <ele>107</ele>
        <time>2021-01-02T13:06:02.000Z</time>
      </trkpt>
      <trkpt lat="47.33" lon="-1.33856">
        <ele>106</ele>
        <time>2021-01-02T13:06:03.000Z</time>
      </trkpt>
      <trkpt lat="47.33004" lon="-1.33844">
        <ele>105</ele>
        <time>2021-01-02T13:06:04.000Z</time>
      </trkpt>
      <trkpt lat="47.33009" lon="-1.33832">
        <ele>104</ele>
        <time>2021-01-02T13:06:05.000Z</time>
      </trkpt>
      <trkpt lat="47.33013" lon="-1.3382">
        <ele>103</ele>
        <time>2021-01-02T13:06:06.000Z</time>
      </trkpt>
      <trkpt lat="47.33018" lon="-1.33807">
        <ele>103</ele>
        <time>2021-01-02T13:06:07.000Z</time>
      </trkpt>
      <trkpt lat="47.33023" lon="-1.33795">
        <ele>103</ele>
        <time>2021-01-02T13:06:08.000Z</time>
      </trkpt>
      <trkpt lat="47.33029" lon="-1.33784">
        <ele>103</ele>
        <time>2021-01-02T13:06:09.000Z</time>
      </trkpt>
      <trkpt lat="47.33035" lon="-1.33771">
        <ele>103</ele>
        <time>2021-01-02T13:06:10.000Z</time>
      </trkpt>
      <trkpt lat="47.33041" lon="-1.3376">
        <ele>102</ele>
        <time>2021-01-02T13:06:11.000Z</time>
      </trkpt>
      <trkpt lat="47.33047" lon="-1.33748">
        <ele>102</ele>
        <time>2021-01-02T13:06:12.000Z</time>
      </trkpt>
      <trkpt lat="47.33053" lon="-1.33737">
        <ele>101</ele>
        <time>2021-01-02T13:06:13.000Z</time>
      </trkpt>
      <trkpt lat="47.33059" lon="-1.33725">
        <ele>101</ele>
        <time>2021-01-02T13:06:14.000Z</time>
      </trkpt>
      <trkpt lat="47.33066" lon="-1.33713">
        <ele>100</ele>
        <time>2021-01-02T13:06:15.000Z</time>
      </trkpt>
      <trkpt lat="47.33072" lon="-1.33701">
        <ele>99</ele>
        <time>2021-01-02T13:06:16.000Z</time>
      </trkpt>
      <trkpt lat="47.33078" lon="-1.33689">
        <ele>99</ele>
        <time>2021-01-02T13:06:17.000Z</time>
      </trkpt>
      <trkpt lat="47.33083" lon="-1.33677">
        <ele>99</ele>
        <time>2021-01-02T13:06:18.000Z</time>
      </trkpt>
      <trkpt lat="47.33088" lon="-1.33663">
        <ele>98</ele>
        <time>2021-01-02T13:06:19.000Z</time>
      </trkpt>
      <trkpt lat="47.33093" lon="-1.33649">
        <ele>98</ele>
        <time>2021-01-02T13:06:20.000Z</time>
      </trkpt>
      <trkpt lat="47.33097" lon="-1.33636">
        <ele>98</ele>
        <time>2021-01-02T13:06:21.000Z</time>
      </trkpt>
      <trkpt lat="47.33101" lon="-1.33622">
        <ele>97</ele>
        <time>2021-01-02T13:06:22.000Z</time>
      </trkpt>
      <trkpt lat="47.33105" lon="-1.33608">
        <ele>96</ele>
        <time>2021-01-02T13:06:23.000Z</time>
      </trkpt>
      <trkpt lat="47.33108" lon="-1.33594">
        <ele>96</ele>
        <time>2021-01-02T13:06:24.000Z</time>
      </trkpt>
      <trkpt lat="47.33112" lon="-1.3358">
        <ele>95</ele>
        <time>2021-01-02T13:06:25.000Z</time>
      </trkpt>
      <trkpt lat="47.33115" lon="-1.33565">
        <ele>94</ele>
        <time>2021-01-02T13:06:26.000Z</time>
      </trkpt>
      <trkpt lat="47.33118" lon="-1.3355">
        <ele>93</ele>
        <time>2021-01-02T13:06:27.000Z</time>
      </trkpt>
      <trkpt lat="47.3312" lon="-1.33534">
        <ele>92</ele>
        <time>2021-01-02T13:06:28.000Z</time>
      </trkpt>
      <trkpt lat="47.3312" lon="-1.33519">
        <ele>92</ele>
        <time>2021-01-02T13:06:29.000Z</time>
      </trkpt>
      <trkpt lat="47.33117" lon="-1.33504">
        <ele>91</ele>
        <time>2021-01-02T13:06:30.000Z</time>
      </trkpt>
      <trkpt lat="47.33114" lon="-1.33489">
        <ele>90</ele>
        <time>2021-01-02T13:06:31.000Z</time>
      </trkpt>
      <trkpt lat="47.33109" lon="-1.33477">
        <ele>89</ele>
        <time>2021-01-02T13:06:32.000Z</time>
      </trkpt>
      <trkpt lat="47.33104" lon="-1.33465">
        <ele>90</ele>
        <time>2021-01-02T13:06:33.000Z</time>
      </trkpt>
      <trkpt lat="47.33097" lon="-1.33455">
        <ele>89</ele>
        <time>2021-01-02T13:06:34.000Z</time>
      </trkpt>
      <trkpt lat="47.33089" lon="-1.33446">
        <ele>90</ele>
        <time>2021-01-02T13:06:35.000Z</time>
      </trkpt>
      <trkpt lat="47.33081" lon="-1.33438">
        <ele>89</ele>
        <time>2021-01-02T13:06:36.000Z</time>
      </trkpt>
      <trkpt lat="47.33072" lon="-1.33429">
        <ele>89</ele>
        <time>2021-01-02T13:06:37.000Z</time>
      </trkpt>
      <trkpt lat="47.33064" lon="-1.3342">
        <ele>89</ele>
        <time>2021-01-02T13:06:38.000Z</time>
      </trkpt>
      <trkpt lat="47.33055" lon="-1.33411">
        <ele>89</ele>
        <time>2021-01-02T13:06:39.000Z</time>
      </trkpt>
      <trkpt lat="47.33047" lon="-1.33402">
        <ele>89</ele>
        <time>2021-01-02T13:06:40.000Z</time>
      </trkpt>
      <trkpt lat="47.33038" lon="-1.33393">
        <ele>89</ele>
        <time>2021-01-02T13:06:41.000Z</time>
      </trkpt>
      <trkpt lat="47.3303" lon="-1.33384">
        <ele>88</ele>
        <time>2021-01-02T13:06:42.000Z</time>
      </trkpt>
      <trkpt lat="47.33022" lon="-1.33375">
        <ele>88</ele>
        <time>2021-01-02T13:06:43.000Z</time>
      </trkpt>
      <trkpt lat="47.33013" lon="-1.33366">
        <ele>88</ele>
        <time>2021-01-02T13:06:44.000Z</time>
      </trkpt>
      <trkpt lat="47.33005" lon="-1.33356">
        <ele>87</ele>
        <time>2021-01-02T13:06:45.000Z</time>
      </trkpt>
      <trkpt lat="47.32996" lon="-1.33347">
        <ele>87</ele>
        <time>2021-01-02T13:06:46.000Z</time>
      </trkpt>
      <trkpt lat="47.32988" lon="-1.33337">
        <ele>87</ele>
        <time>2021-01-02T13:06:47.000Z</time>
      </trkpt>
      <trkpt lat="47.3298" lon="-1.33328">
        <ele>87</ele>
        <time>2021-01-02T13:06:48.000Z</time>
      </trkpt>
      <trkpt lat="47.32971" lon="-1.33318">
        <ele>87</ele>
        <time>2021-01-02T13:06:49.000Z</time>
      </trkpt>
      <trkpt lat="47.32963" lon="-1.33309">
        <ele>87</ele>
        <time>2021-01-02T13:06:50.000Z</time>
      </trkpt>
      <trkpt lat="47.32955" lon="-1.333">
        <ele>87</ele>
        <time>2021-01-02T13:06:51.000Z</time>
      </trkpt>
      <trkpt lat="47.32947" lon="-1.3329">
        <ele>87</ele>
        <time>2021-01-02T13:06:52.000Z</time>
      </trkpt>
      <trkpt lat="47.32939" lon="-1.33281">
        <ele>87</ele>
        <time>2021-01-02T13:06:53.000Z</time>
      </trkpt>
      <trkpt lat="47.32931" lon="-1.33272">
        <ele>87</ele>
        <time>2021-01-02T13:06:54.000Z</time>
      </trkpt>
      <trkpt lat="47.32923" lon="-1.33262">
        <ele>87</ele>
        <time>2021-01-02T13:06:55.000Z</time>
      </trkpt>
      <trkpt lat="47.32915" lon="-1.33252">
        <ele>86</ele>
        <time>2021-01-02T13:06:56.000Z</time>
      </trkpt>
      <trkpt lat="47.32906" lon="-1.33242">
        <ele>85</ele>
        <time>2021-01-02T13:06:57.000Z</time>
      </trkpt>
      <trkpt lat="47.32897" lon="-1.33233">
        <ele>84</ele>
        <time>2021-01-02T13:06:58.000Z</time>
      </trkpt>
      <trkpt lat="47.32888" lon="-1.33224">
        <ele>83</ele>
        <time>2021-01-02T13:06:59.000Z</time>
      </trkpt>
      <trkpt lat="47.32879" lon="-1.33215">
        <ele>83</ele>
        <time>2021-01-02T13:07:00.000Z</time>
      </trkpt>
      <trkpt lat="47.32871" lon="-1.33207">
        <ele>83</ele>
        <time>2021-01-02T13:07:01.000Z</time>
      </trkpt>
      <trkpt lat="47.32862" lon="-1.332">
        <ele>82</ele>
        <time>2021-01-02T13:07:02.000Z</time>
      </trkpt>
      <trkpt lat="47.32853" lon="-1.33192">
        <ele>81</ele>
        <time>2021-01-02T13:07:03.000Z</time>
      </trkpt>
      <trkpt lat="47.32843" lon="-1.33185">
        <ele>80</ele>
        <time>2021-01-02T13:07:04.000Z</time>
      </trkpt>
      <trkpt lat="47.32834" lon="-1.33177">
        <ele>80</ele>
        <time>2021-01-02T13:07:05.000Z</time>
      </trkpt>
      <trkpt lat="47.32825" lon="-1.33169">
        <ele>79</ele>
        <time>2021-01-02T13:07:06.000Z</time>
      </trkpt>
      <trkpt lat="47.32817" lon="-1.33162">
        <ele>79</ele>
        <time>2021-01-02T13:07:07.000Z</time>
      </trkpt>
      <trkpt lat="47.32808" lon="-1.33155">
        <ele>78</ele>
        <time>2021-01-02T13:07:08.000Z</time>
      </trkpt>
      <trkpt lat="47.328" lon="-1.33148">
        <ele>78</ele>
        <time>2021-01-02T13:07:09.000Z</time>
      </trkpt>
      <trkpt lat="47.32791" lon="-1.33142">
        <ele>77</ele>
        <time>2021-01-02T13:07:10.000Z</time>
      </trkpt>
      <trkpt lat="47.32782" lon="-1.33135">
        <ele>76</ele>
        <time>2021-01-02T13:07:11.000Z</time>
      </trkpt>
      <trkpt lat="47.32774" lon="-1.33128">
        <ele>75</ele>
        <time>2021-01-02T13:07:12.000Z</time>
      </trkpt>
      <trkpt lat="47.32765" lon="-1.3312">
        <ele>74</ele>
        <time>2021-01-02T13:07:13.000Z</time>
      </trkpt>
      <trkpt lat="47.32757" lon="-1.33112">
        <ele>73</ele>
        <time>2021-01-02T13:07:14.000Z</time>
      </trkpt>
      <trkpt lat="47.32748" lon="-1.33103">
        <ele>72</ele>
        <time>2021-01-02T13:07:15.000Z</time>
      </trkpt>
      <trkpt lat="47.3274" lon="-1.33093">
        <ele>71</ele>
        <time>2021-01-02T13:07:16.000Z</time>
      </trkpt>
      <trkpt lat="47.32732" lon="-1.33084">
        <ele>70</ele>
        <time>2021-01-02T13:07:17.000Z</time>
      </trkpt>
      <trkpt lat="47.32724" lon="-1.33075">
        <ele>70</ele>
        <time>2021-01-02T13:07:18.000Z</time>
      </trkpt>
      <trkpt lat="47.32716" lon="-1.33067">
        <ele>70</ele>
        <time>2021-01-02T13:07:19.000Z</time>
      </trkpt>
      <trkpt lat="47.32708" lon="-1.33059">
        <ele>70</ele>
        <time>2021-01-02T13:07:20.000Z</time>
      </trkpt>
      <trkpt lat="47.327" lon="-1.33051">
        <ele>69</ele>
        <time>2021-01-02T13:07:21.000Z</time>
      </trkpt>
      <trkpt lat="47.32692" lon="-1.33042">
        <ele>69</ele>
        <time>2021-01-02T13:07:22.000Z</time>
      </trkpt>
      <trkpt lat="47.32684" lon="-1.33035">
        <ele>69</ele>
        <time>2021-01-02T13:07:23.000Z</time>
      </trkpt>
      <trkpt lat="47.32675" lon="-1.33027">
        <ele>67</ele>
        <time>2021-01-02T13:07:24.000Z</time>
      </trkpt>
      <trkpt lat="47.32667" lon="-1.33019">
        <ele>66</ele>
        <time>2021-01-02T13:07:25.000Z</time>
      </trkpt>
      <trkpt lat="47.32659" lon="-1.33012">
        <ele>65</ele>
        <time>2021-01-02T13:07:26.000Z</time>
      </trkpt>
      <trkpt lat="47.32652" lon="-1.33003">
        <ele>64</ele>
        <time>2021-01-02T13:07:27.000Z</time>
      </trkpt>
      <trkpt lat="47.32639" lon="-1.32987">
        <ele>64</ele>
        <time>2021-01-02T13:07:29.000Z</time>
      </trkpt>
      <trkpt lat="47.3263" lon="-1.32974">
        <ele>61</ele>
        <time>2021-01-02T13:07:31.000Z</time>
      </trkpt>
      <trkpt lat="47.32623" lon="-1.32961">
        <ele>59</ele>
        <time>2021-01-02T13:07:33.000Z</time>
      </trkpt>
      <trkpt lat="47.32613" lon="-1.32953">
        <ele>60</ele>
        <time>2021-01-02T13:07:36.000Z</time>
      </trkpt>
      <trkpt lat="47.32605" lon="-1.32964">
        <ele>59</ele>
        <time>2021-01-02T13:07:39.000Z</time>
      </trkpt>
      <trkpt lat="47.32596" lon="-1.32978">
        <ele>60</ele>
        <time>2021-01-02T13:07:42.000Z</time>
      </trkpt>
      <trkpt lat="47.32585" lon="-1.32991">
        <ele>60</ele>
        <time>2021-01-02T13:07:45.000Z</time>
      </trkpt>
      <trkpt lat="47.32578" lon="-1.32999">
        <ele>61</ele>
        <time>2021-01-02T13:07:47.000Z</time>
      </trkpt>
      <trkpt lat="47.32568" lon="-1.33011">
        <ele>62</ele>
        <time>2021-01-02T13:07:50.000Z</time>
      </trkpt>
      <trkpt lat="47.32557" lon="-1.33023">
        <ele>63</ele>
        <time>2021-01-02T13:07:53.000Z</time>
      </trkpt>
      <trkpt lat="47.32548" lon="-1.3303">
        <ele>62</ele>
        <time>2021-01-02T13:07:55.000Z</time>
      </trkpt>
      <trkpt lat="47.32539" lon="-1.33038">
        <ele>62</ele>
        <time>2021-01-02T13:07:57.000Z</time>
      </trkpt>
      <trkpt lat="47.32529" lon="-1.33048">
        <ele>62</ele>
        <time>2021-01-02T13:07:59.000Z</time>
      </trkpt>
      <trkpt lat="47.32519" lon="-1.33058">
        <ele>63</ele>
        <time>2021-01-02T13:08:01.000Z</time>
      </trkpt>
      <trkpt lat="47.3251" lon="-1.33068">
        <ele>63</ele>
        <time>2021-01-02T13:08:03.000Z</time>
      </trkpt>
      <trkpt lat="47.32501" lon="-1.33078">
        <ele>63</ele>
        <time>2021-01-02T13:08:05.000Z</time>
      </trkpt>
      <trkpt lat="47.32491" lon="-1.33088">
        <ele>63</ele>
        <time>2021-01-02T13:08:07.000Z</time>
      </trkpt>
      <trkpt lat="47.32481" lon="-1.33098">
        <ele>62</ele>
        <time>2021-01-02T13:08:09.000Z</time>
      </trkpt>
      <trkpt lat="47.32471" lon="-1.33108">
        <ele>61</ele>
        <time>2021-01-02T13:08:11.000Z</time>
      </trkpt>
      <trkpt lat="47.32461" lon="-1.33118">
        <ele>61</ele>
        <time>2021-01-02T13:08:13.000Z</time>
      </trkpt>
      <trkpt lat="47.32454" lon="-1.33127">
        <ele>62</ele>
        <time>2021-01-02T13:08:15.000Z</time>
      </trkpt>
      <trkpt lat="47.32444" lon="-1.33138">
        <ele>62</ele>
        <time>2021-01-02T13:08:18.000Z</time>
      </trkpt>
      <trkpt lat="47.32431" lon="-1.33141">
        <ele>63</ele>
        <time>2021-01-02T13:08:21.000Z</time>
      </trkpt>
      <trkpt lat="47.3242" lon="-1.33145">
        <ele>62</ele>
        <time>2021-01-02T13:08:24.000Z</time>
      </trkpt>
      <trkpt lat="47.32413" lon="-1.33155">
        <ele>61</ele>
        <time>2021-01-02T13:08:26.000Z</time>
      </trkpt>
      <trkpt lat="47.32406" lon="-1.33167">
        <ele>61</ele>
        <time>2021-01-02T13:08:28.000Z</time>
      </trkpt>
      <trkpt lat="47.32399" lon="-1.33178">
        <ele>61</ele>
        <time>2021-01-02T13:08:30.000Z</time>
      </trkpt>
      <trkpt lat="47.32391" lon="-1.33189">
        <ele>60</ele>
        <time>2021-01-02T13:08:32.000Z</time>
      </trkpt>
      <trkpt lat="47.32382" lon="-1.332">
        <ele>61</ele>
        <time>2021-01-02T13:08:34.000Z</time>
      </trkpt>
      <trkpt lat="47.32374" lon="-1.33213">
        <ele>61</ele>
        <time>2021-01-02T13:08:36.000Z</time>
      </trkpt>
      <trkpt lat="47.32367" lon="-1.33227">
        <ele>60</ele>
        <time>2021-01-02T13:08:38.000Z</time>
      </trkpt>
      <trkpt lat="47.32361" lon="-1.3324">
        <ele>60</ele>
        <time>2021-01-02T13:08:40.000Z</time>
      </trkpt>
      <trkpt lat="47.32355" lon="-1.33254">
        <ele>60</ele>
        <time>2021-01-02T13:08:42.000Z</time>
      </trkpt>
      <trkpt lat="47.3235" lon="-1.33268">
        <ele>60</ele>
        <time>2021-01-02T13:08:44.000Z</time>
      </trkpt>
      <trkpt lat="47.32344" lon="-1.3328">
        <ele>60</ele>
        <time>2021-01-02T13:08:46.000Z</time>
      </trkpt>
      <trkpt lat="47.32338" lon="-1.33291">
        <ele>60</ele>
        <time>2021-01-02T13:08:48.000Z</time>
      </trkpt>
      <trkpt lat="47.32332" lon="-1.33308">
        <ele>59</ele>
        <time>2021-01-02T13:08:51.000Z</time>
      </trkpt>
      <trkpt lat="47.32327" lon="-1.33322">
        <ele>60</ele>
        <time>2021-01-02T13:08:53.000Z</time>
      </trkpt>
      <trkpt lat="47.32321" lon="-1.33337">
        <ele>60</ele>
        <time>2021-01-02T13:08:55.000Z</time>
      </trkpt>
      <trkpt lat="47.32314" lon="-1.33352">
        <ele>59</ele>
        <time>2021-01-02T13:08:57.000Z</time>
      </trkpt>
      <trkpt lat="47.32307" lon="-1.33368">
        <ele>59</ele>
        <time>2021-01-02T13:08:59.000Z</time>
      </trkpt>
      <trkpt lat="47.323" lon="-1.33383">
        <ele>60</ele>
        <time>2021-01-02T13:09:01.000Z</time>
      </trkpt>
      <trkpt lat="47.32293" lon="-1.33398">
        <ele>60</ele>
        <time>2021-01-02T13:09:03.000Z</time>
      </trkpt>
      <trkpt lat="47.32285" lon="-1.33414">
        <ele>61</ele>
        <time>2021-01-02T13:09:05.000Z</time>
      </trkpt>
      <trkpt lat="47.32278" lon="-1.33428">
        <ele>61</ele>
        <time>2021-01-02T13:09:07.000Z</time>
      </trkpt>
      <trkpt lat="47.3227" lon="-1.33443">
        <ele>61</ele>
        <time>2021-01-02T13:09:09.000Z</time>
      </trkpt>
      <trkpt lat="47.32263" lon="-1.33458">
        <ele>61</ele>
        <time>2021-01-02T13:09:11.000Z</time>
      </trkpt>
      <trkpt lat="47.32256" lon="-1.33473">
        <ele>61</ele>
        <time>2021-01-02T13:09:13.000Z</time>
      </trkpt>
      <trkpt lat="47.32249" lon="-1.33487">
        <ele>60</ele>
        <time>2021-01-02T13:09:15.000Z</time>
      </trkpt>
      <trkpt lat="47.32242" lon="-1.33502">
        <ele>60</ele>
        <time>2021-01-02T13:09:17.000Z</time>
      </trkpt>
      <trkpt lat="47.32236" lon="-1.33517">
        <ele>60</ele>
        <time>2021-01-02T13:09:19.000Z</time>
      </trkpt>
      <trkpt lat="47.3223" lon="-1.3353">
        <ele>59</ele>
        <time>2021-01-02T13:09:21.000Z</time>
      </trkpt>
      <trkpt lat="47.32224" lon="-1.33541">
        <ele>59</ele>
        <time>2021-01-02T13:09:23.000Z</time>
      </trkpt>
      <trkpt lat="47.32219" lon="-1.33555">
        <ele>59</ele>
        <time>2021-01-02T13:09:27.000Z</time>
      </trkpt>
      <trkpt lat="47.32214" lon="-1.33566">
        <ele>60</ele>
        <time>2021-01-02T13:09:32.000Z</time>
      </trkpt>
      <trkpt lat="47.32208" lon="-1.33578">
        <ele>60</ele>
        <time>2021-01-02T13:09:35.000Z</time>
      </trkpt>
      <trkpt lat="47.32202" lon="-1.33592">
        <ele>60</ele>
        <time>2021-01-02T13:09:38.000Z</time>
      </trkpt>
      <trkpt lat="47.32195" lon="-1.33607">
        <ele>60</ele>
        <time>2021-01-02T13:09:41.000Z</time>
      </trkpt>
      <trkpt lat="47.32189" lon="-1.33622">
        <ele>61</ele>
        <time>2021-01-02T13:09:44.000Z</time>
      </trkpt>
      <trkpt lat="47.32183" lon="-1.33635">
        <ele>61</ele>
        <time>2021-01-02T13:09:47.000Z</time>
      </trkpt>
      <trkpt lat="47.32179" lon="-1.3365">
        <ele>61</ele>
        <time>2021-01-02T13:09:54.000Z</time>
      </trkpt>
      <trkpt lat="47.32174" lon="-1.33662">
        <ele>61</ele>
        <time>2021-01-02T13:09:57.000Z</time>
      </trkpt>
      <trkpt lat="47.32169" lon="-1.33676">
        <ele>62</ele>
        <time>2021-01-02T13:10:00.000Z</time>
      </trkpt>
      <trkpt lat="47.32163" lon="-1.33692">
        <ele>61</ele>
        <time>2021-01-02T13:10:03.000Z</time>
      </trkpt>
      <trkpt lat="47.32156" lon="-1.33707">
        <ele>60</ele>
        <time>2021-01-02T13:10:06.000Z</time>
      </trkpt>
      <trkpt lat="47.3215" lon="-1.33724">
        <ele>60</ele>
        <time>2021-01-02T13:10:09.000Z</time>
      </trkpt>
      <trkpt lat="47.32143" lon="-1.3374">
        <ele>60</ele>
        <time>2021-01-02T13:10:12.000Z</time>
      </trkpt>
      <trkpt lat="47.32136" lon="-1.33757">
        <ele>60</ele>
        <time>2021-01-02T13:10:15.000Z</time>
      </trkpt>
      <trkpt lat="47.32129" lon="-1.33773">
        <ele>61</ele>
        <time>2021-01-02T13:10:18.000Z</time>
      </trkpt>
      <trkpt lat="47.32122" lon="-1.33789">
        <ele>61</ele>
        <time>2021-01-02T13:10:21.000Z</time>
      </trkpt>
      <trkpt lat="47.32117" lon="-1.33801">
        <ele>61</ele>
        <time>2021-01-02T13:10:23.000Z</time>
      </trkpt>
      <trkpt lat="47.3211" lon="-1.33818">
        <ele>61</ele>
        <time>2021-01-02T13:10:26.000Z</time>
      </trkpt>
      <trkpt lat="47.32102" lon="-1.33834">
        <ele>61</ele>
        <time>2021-01-02T13:10:29.000Z</time>
      </trkpt>
      <trkpt lat="47.32094" lon="-1.33849">
        <ele>60</ele>
        <time>2021-01-02T13:10:32.000Z</time>
      </trkpt>
      <trkpt lat="47.32089" lon="-1.3386">
        <ele>60</ele>
        <time>2021-01-02T13:10:35.000Z</time>
      </trkpt>
      <trkpt lat="47.32082" lon="-1.33873">
        <ele>60</ele>
        <time>2021-01-02T13:10:39.000Z</time>
      </trkpt>
      <trkpt lat="47.32076" lon="-1.33884">
        <ele>61</ele>
        <time>2021-01-02T13:10:42.000Z</time>
      </trkpt>
      <trkpt lat="47.3207" lon="-1.33897">
        <ele>61</ele>
        <time>2021-01-02T13:10:45.000Z</time>
      </trkpt>
      <trkpt lat="47.32062" lon="-1.33911">
        <ele>61</ele>
        <time>2021-01-02T13:10:48.000Z</time>
      </trkpt>
      <trkpt lat="47.32054" lon="-1.33925">
        <ele>61</ele>
        <time>2021-01-02T13:10:51.000Z</time>
      </trkpt>
      <trkpt lat="47.32045" lon="-1.33939">
        <ele>61</ele>
        <time>2021-01-02T13:10:54.000Z</time>
      </trkpt>
      <trkpt lat="47.32039" lon="-1.3395">
        <ele>61</ele>
        <time>2021-01-02T13:10:56.000Z</time>
      </trkpt>
      <trkpt lat="47.32034" lon="-1.3396">
        <ele>62</ele>
        <time>2021-01-02T13:10:58.000Z</time>
      </trkpt>
      <trkpt lat="47.32025" lon="-1.33975">
        <ele>63</ele>
        <time>2021-01-02T13:11:01.000Z</time>
      </trkpt>
      <trkpt lat="47.32018" lon="-1.33986">
        <ele>64</ele>
        <time>2021-01-02T13:11:03.000Z</time>
      </trkpt>
      <trkpt lat="47.32012" lon="-1.33999">
        <ele>64</ele>
        <time>2021-01-02T13:11:05.000Z</time>
      </trkpt>
      <trkpt lat="47.32003" lon="-1.34011">
        <ele>64</ele>
        <time>2021-01-02T13:11:07.000Z</time>
      </trkpt>
      <trkpt lat="47.31996" lon="-1.34024">
        <ele>65</ele>
        <time>2021-01-02T13:11:09.000Z</time>
      </trkpt>
      <trkpt lat="47.31987" lon="-1.34035">
        <ele>64</ele>
        <time>2021-01-02T13:11:11.000Z</time>
      </trkpt>
      <trkpt lat="47.3198" lon="-1.34047">
        <ele>64</ele>
        <time>2021-01-02T13:11:13.000Z</time>
      </trkpt>
      <trkpt lat="47.31972" lon="-1.34059">
        <ele>64</ele>
        <time>2021-01-02T13:11:15.000Z</time>
      </trkpt>
      <trkpt lat="47.31964" lon="-1.3407">
        <ele>64</ele>
        <time>2021-01-02T13:11:17.000Z</time>
      </trkpt>
      <trkpt lat="47.31958" lon="-1.34082">
        <ele>64</ele>
        <time>2021-01-02T13:11:19.000Z</time>
      </trkpt>
      <trkpt lat="47.3195" lon="-1.34093">
        <ele>64</ele>
        <time>2021-01-02T13:11:21.000Z</time>
      </trkpt>
      <trkpt lat="47.31943" lon="-1.34103">
        <ele>64</ele>
        <time>2021-01-02T13:11:23.000Z</time>
      </trkpt>
      <trkpt lat="47.31935" lon="-1.34116">
        <ele>64</ele>
        <time>2021-01-02T13:11:25.000Z</time>
      </trkpt>
      <trkpt lat="47.31928" lon="-1.34126">
        <ele>64</ele>
        <time>2021-01-02T13:11:27.000Z</time>
      </trkpt>
      <trkpt lat="47.31921" lon="-1.34137">
        <ele>65</ele>
        <time>2021-01-02T13:11:29.000Z</time>
      </trkpt>
      <trkpt lat="47.31913" lon="-1.34149">
        <ele>64</ele>
        <time>2021-01-02T13:11:31.000Z</time>
      </trkpt>
      <trkpt lat="47.31906" lon="-1.34161">
        <ele>64</ele>
        <time>2021-01-02T13:11:33.000Z</time>
      </trkpt>
      <trkpt lat="47.31898" lon="-1.34173">
        <ele>63</ele>
        <time>2021-01-02T13:11:35.000Z</time>
      </trkpt>
      <trkpt lat="47.31889" lon="-1.34185">
        <ele>62</ele>
        <time>2021-01-02T13:11:37.000Z</time>
      </trkpt>
      <trkpt lat="47.31881" lon="-1.34196">
        <ele>62</ele>
        <time>2021-01-02T13:11:39.000Z</time>
      </trkpt>
      <trkpt lat="47.31871" lon="-1.34208">
        <ele>61</ele>
        <time>2021-01-02T13:11:42.000Z</time>
      </trkpt>
      <trkpt lat="47.31865" lon="-1.34219">
        <ele>62</ele>
        <time>2021-01-02T13:11:45.000Z</time>
      </trkpt>
      <trkpt lat="47.31859" lon="-1.3423">
        <ele>62</ele>
        <time>2021-01-02T13:11:50.000Z</time>
      </trkpt>
      <trkpt lat="47.31851" lon="-1.34243">
        <ele>63</ele>
        <time>2021-01-02T13:11:54.000Z</time>
      </trkpt>
      <trkpt lat="47.31842" lon="-1.34256">
        <ele>62</ele>
        <time>2021-01-02T13:11:57.000Z</time>
      </trkpt>
      <trkpt lat="47.31833" lon="-1.3427">
        <ele>62</ele>
        <time>2021-01-02T13:12:00.000Z</time>
      </trkpt>
      <trkpt lat="47.31824" lon="-1.34283">
        <ele>62</ele>
        <time>2021-01-02T13:12:03.000Z</time>
      </trkpt>
      <trkpt lat="47.31816" lon="-1.34296">
        <ele>62</ele>
        <time>2021-01-02T13:12:06.000Z</time>
      </trkpt>
      <trkpt lat="47.3181" lon="-1.34306">
        <ele>62</ele>
        <time>2021-01-02T13:12:08.000Z</time>
      </trkpt>
      <trkpt lat="47.31803" lon="-1.34317">
        <ele>62</ele>
        <time>2021-01-02T13:12:10.000Z</time>
      </trkpt>
      <trkpt lat="47.31797" lon="-1.34327">
        <ele>63</ele>
        <time>2021-01-02T13:12:12.000Z</time>
      </trkpt>
      <trkpt lat="47.3179" lon="-1.34338">
        <ele>62</ele>
        <time>2021-01-02T13:12:14.000Z</time>
      </trkpt>
      <trkpt lat="47.31783" lon="-1.34349">
        <ele>62</ele>
        <time>2021-01-02T13:12:16.000Z</time>
      </trkpt>
      <trkpt lat="47.31776" lon="-1.34359">
        <ele>62</ele>
        <time>2021-01-02T13:12:18.000Z</time>
      </trkpt>
      <trkpt lat="47.3177" lon="-1.3437">
        <ele>62</ele>
        <time>2021-01-02T13:12:20.000Z</time>
      </trkpt>
      <trkpt lat="47.31763" lon="-1.34379">
        <ele>62</ele>
        <time>2021-01-02T13:12:22.000Z</time>
      </trkpt>
      <trkpt lat="47.31758" lon="-1.3439">
        <ele>61</ele>
        <time>2021-01-02T13:12:24.000Z</time>
      </trkpt>
      <trkpt lat="47.31749" lon="-1.34403">
        <ele>61</ele>
        <time>2021-01-02T13:12:27.000Z</time>
      </trkpt>
      <trkpt lat="47.31742" lon="-1.34416">
        <ele>61</ele>
        <time>2021-01-02T13:12:31.000Z</time>
      </trkpt>
      <trkpt lat="47.31735" lon="-1.34425">
        <ele>61</ele>
        <time>2021-01-02T13:12:34.000Z</time>
      </trkpt>
      <trkpt lat="47.31727" lon="-1.34437">
        <ele>61</ele>
        <time>2021-01-02T13:12:37.000Z</time>
      </trkpt>
      <trkpt lat="47.3172" lon="-1.3445">
        <ele>61</ele>
        <time>2021-01-02T13:12:40.000Z</time>
      </trkpt>
      <trkpt lat="47.31711" lon="-1.34463">
        <ele>61</ele>
        <time>2021-01-02T13:12:43.000Z</time>
      </trkpt>
      <trkpt lat="47.31702" lon="-1.34477">
        <ele>61</ele>
        <time>2021-01-02T13:12:46.000Z</time>
      </trkpt>
      <trkpt lat="47.31696" lon="-1.34487">
        <ele>61</ele>
        <time>2021-01-02T13:12:48.000Z</time>
      </trkpt>
      <trkpt lat="47.31689" lon="-1.34498">
        <ele>61</ele>
        <time>2021-01-02T13:12:50.000Z</time>
      </trkpt>
      <trkpt lat="47.31682" lon="-1.34509">
        <ele>61</ele>
        <time>2021-01-02T13:12:52.000Z</time>
      </trkpt>
      <trkpt lat="47.31675" lon="-1.3452">
        <ele>60</ele>
        <time>2021-01-02T13:12:54.000Z</time>
      </trkpt>
      <trkpt lat="47.31668" lon="-1.3453">
        <ele>60</ele>
        <time>2021-01-02T13:12:56.000Z</time>
      </trkpt>
      <trkpt lat="47.31661" lon="-1.34541">
        <ele>60</ele>
        <time>2021-01-02T13:12:58.000Z</time>
      </trkpt>
      <trkpt lat="47.31653" lon="-1.34552">
        <ele>60</ele>
        <time>2021-01-02T13:13:00.000Z</time>
      </trkpt>
      <trkpt lat="47.31647" lon="-1.34565">
        <ele>59</ele>
        <time>2021-01-02T13:13:02.000Z</time>
      </trkpt>
      <trkpt lat="47.31641" lon="-1.34577">
        <ele>60</ele>
        <time>2021-01-02T13:13:04.000Z</time>
      </trkpt>
      <trkpt lat="47.31634" lon="-1.34588">
        <ele>59</ele>
        <time>2021-01-02T13:13:06.000Z</time>
      </trkpt>
      <trkpt lat="47.31627" lon="-1.34597">
        <ele>59</ele>
        <time>2021-01-02T13:13:08.000Z</time>
      </trkpt>
      <trkpt lat="47.31621" lon="-1.34607">
        <ele>59</ele>
        <time>2021-01-02T13:13:10.000Z</time>
      </trkpt>
      <trkpt lat="47.31614" lon="-1.34617">
        <ele>59</ele>
        <time>2021-01-02T13:13:12.000Z</time>
      </trkpt>
      <trkpt lat="47.31608" lon="-1.34628">
        <ele>60</ele>
        <time>2021-01-02T13:13:14.000Z</time>
      </trkpt>
      <trkpt lat="47.31601" lon="-1.34638">
        <ele>60</ele>
        <time>2021-01-02T13:13:16.000Z</time>
      </trkpt>
      <trkpt lat="47.31595" lon="-1.34648">
        <ele>60</ele>
        <time>2021-01-02T13:13:18.000Z</time>
      </trkpt>
      <trkpt lat="47.31588" lon="-1.34659">
        <ele>60</ele>
        <time>2021-01-02T13:13:20.000Z</time>
      </trkpt>
      <trkpt lat="47.3158" lon="-1.34673">
        <ele>60</ele>
        <time>2021-01-02T13:13:23.000Z</time>
      </trkpt>
      <trkpt lat="47.31571" lon="-1.34687">
        <ele>61</ele>
        <time>2021-01-02T13:13:26.000Z</time>
      </trkpt>
      <trkpt lat="47.31564" lon="-1.34698">
        <ele>61</ele>
        <time>2021-01-02T13:13:28.000Z</time>
      </trkpt>
      <trkpt lat="47.31558" lon="-1.34709">
        <ele>61</ele>
        <time>2021-01-02T13:13:30.000Z</time>
      </trkpt>
      <trkpt lat="47.31552" lon="-1.3472">
        <ele>61</ele>
        <time>2021-01-02T13:13:32.000Z</time>
      </trkpt>
      <trkpt lat="47.31545" lon="-1.3473">
        <ele>62</ele>
        <time>2021-01-02T13:13:34.000Z</time>
      </trkpt>
      <trkpt lat="47.31538" lon="-1.34741">
        <ele>62</ele>
        <time>2021-01-02T13:13:36.000Z</time>
      </trkpt>
      <trkpt lat="47.31531" lon="-1.34752">
        <ele>62</ele>
        <time>2021-01-02T13:13:38.000Z</time>
      </trkpt>
      <trkpt lat="47.31524" lon="-1.34762">
        <ele>62</ele>
        <time>2021-01-02T13:13:40.000Z</time>
      </trkpt>
      <trkpt lat="47.31517" lon="-1.34772">
        <ele>62</ele>
        <time>2021-01-02T13:13:42.000Z</time>
      </trkpt>
      <trkpt lat="47.3151" lon="-1.34784">
        <ele>62</ele>
        <time>2021-01-02T13:13:44.000Z</time>
      </trkpt>
      <trkpt lat="47.31503" lon="-1.34794">
        <ele>62</ele>
        <time>2021-01-02T13:13:46.000Z</time>
      </trkpt>
      <trkpt lat="47.31496" lon="-1.34805">
        <ele>62</ele>
        <time>2021-01-02T13:13:48.000Z</time>
      </trkpt>
      <trkpt lat="47.31489" lon="-1.34815">
        <ele>62</ele>
        <time>2021-01-02T13:13:50.000Z</time>
      </trkpt>
      <trkpt lat="47.31482" lon="-1.34826">
        <ele>61</ele>
        <time>2021-01-02T13:13:52.000Z</time>
      </trkpt>
      <trkpt lat="47.31476" lon="-1.34838">
        <ele>60</ele>
        <time>2021-01-02T13:13:54.000Z</time>
      </trkpt>
      <trkpt lat="47.31469" lon="-1.34848">
        <ele>60</ele>
        <time>2021-01-02T13:13:56.000Z</time>
      </trkpt>
      <trkpt lat="47.31462" lon="-1.34859">
        <ele>60</ele>
        <time>2021-01-02T13:13:58.000Z</time>
      </trkpt>
      <trkpt lat="47.31455" lon="-1.34871">
        <ele>60</ele>
        <time>2021-01-02T13:14:00.000Z</time>
      </trkpt>
      <trkpt lat="47.31448" lon="-1.34882">
        <ele>60</ele>
        <time>2021-01-02T13:14:02.000Z</time>
      </trkpt>
      <trkpt lat="47.3144" lon="-1.34894">
        <ele>60</ele>
        <time>2021-01-02T13:14:04.000Z</time>
      </trkpt>
      <trkpt lat="47.31433" lon="-1.34905">
        <ele>60</ele>
        <time>2021-01-02T13:14:06.000Z</time>
      </trkpt>
      <trkpt lat="47.31426" lon="-1.34916">
        <ele>59</ele>
        <time>2021-01-02T13:14:08.000Z</time>
      </trkpt>
      <trkpt lat="47.31419" lon="-1.34928">
        <ele>59</ele>
        <time>2021-01-02T13:14:10.000Z</time>
      </trkpt>
      <trkpt lat="47.31412" lon="-1.34939">
        <ele>58</ele>
        <time>2021-01-02T13:14:12.000Z</time>
      </trkpt>
      <trkpt lat="47.31405" lon="-1.3495">
        <ele>58</ele>
        <time>2021-01-02T13:14:14.000Z</time>
      </trkpt>
      <trkpt lat="47.31398" lon="-1.34961">
        <ele>58</ele>
        <time>2021-01-02T13:14:16.000Z</time>
      </trkpt>
      <trkpt lat="47.31391" lon="-1.34972">
        <ele>58</ele>
        <time>2021-01-02T13:14:18.000Z</time>
      </trkpt>
      <trkpt lat="47.31384" lon="-1.34983">
        <ele>58</ele>
        <time>2021-01-02T13:14:20.000Z</time>
      </trkpt>
      <trkpt lat="47.31378" lon="-1.34996">
        <ele>58</ele>
        <time>2021-01-02T13:14:22.000Z</time>
      </trkpt>
      <trkpt lat="47.31372" lon="-1.35007">
        <ele>58</ele>
        <time>2021-01-02T13:14:24.000Z</time>
      </trkpt>
      <trkpt lat="47.31365" lon="-1.35018">
        <ele>58</ele>
        <time>2021-01-02T13:14:26.000Z</time>
      </trkpt>
      <trkpt lat="47.31359" lon="-1.35028">
        <ele>58</ele>
        <time>2021-01-02T13:14:28.000Z</time>
      </trkpt>
      <trkpt lat="47.31352" lon="-1.35039">
        <ele>58</ele>
        <time>2021-01-02T13:14:30.000Z</time>
      </trkpt>
      <trkpt lat="47.31345" lon="-1.35049">
        <ele>59</ele>
        <time>2021-01-02T13:14:32.000Z</time>
      </trkpt>
      <trkpt lat="47.31338" lon="-1.3506">
        <ele>59</ele>
        <time>2021-01-02T13:14:34.000Z</time>
      </trkpt>
      <trkpt lat="47.31332" lon="-1.3507">
        <ele>59</ele>
        <time>2021-01-02T13:14:36.000Z</time>
      </trkpt>
      <trkpt lat="47.31323" lon="-1.35082">
        <ele>59</ele>
        <time>2021-01-02T13:14:39.000Z</time>
      </trkpt>
      <trkpt lat="47.31313" lon="-1.35084">
        <ele>58</ele>
        <time>2021-01-02T13:14:41.000Z</time>
      </trkpt>
      <trkpt lat="47.31304" lon="-1.35092">
        <ele>58</ele>
        <time>2021-01-02T13:14:43.000Z</time>
      </trkpt>
      <trkpt lat="47.31297" lon="-1.35102">
        <ele>58</ele>
        <time>2021-01-02T13:14:45.000Z</time>
      </trkpt>
      <trkpt lat="47.31292" lon="-1.35113">
        <ele>58</ele>
        <time>2021-01-02T13:14:47.000Z</time>
      </trkpt>
      <trkpt lat="47.31286" lon="-1.35129">
        <ele>58</ele>
        <time>2021-01-02T13:14:50.000Z</time>
      </trkpt>
      <trkpt lat="47.31281" lon="-1.35141">
        <ele>59</ele>
        <time>2021-01-02T13:14:52.000Z</time>
      </trkpt>
      <trkpt lat="47.31274" lon="-1.35155">
        <ele>58</ele>
        <time>2021-01-02T13:14:54.000Z</time>
      </trkpt>
      <trkpt lat="47.31267" lon="-1.35167">
        <ele>59</ele>
        <time>2021-01-02T13:14:56.000Z</time>
      </trkpt>
      <trkpt lat="47.3126" lon="-1.35179">
        <ele>59</ele>
        <time>2021-01-02T13:14:58.000Z</time>
      </trkpt>
      <trkpt lat="47.31252" lon="-1.35193">
        <ele>59</ele>
        <time>2021-01-02T13:15:00.000Z</time>
      </trkpt>
      <trkpt lat="47.31243" lon="-1.35205">
        <ele>59</ele>
        <time>2021-01-02T13:15:02.000Z</time>
      </trkpt>
      <trkpt lat="47.31235" lon="-1.35217">
        <ele>58</ele>
        <time>2021-01-02T13:15:04.000Z</time>
      </trkpt>
      <trkpt lat="47.31228" lon="-1.35229">
        <ele>59</ele>
        <time>2021-01-02T13:15:06.000Z</time>
      </trkpt>
      <trkpt lat="47.3122" lon="-1.35241">
        <ele>59</ele>
        <time>2021-01-02T13:15:08.000Z</time>
      </trkpt>
      <trkpt lat="47.31212" lon="-1.35254">
        <ele>59</ele>
        <time>2021-01-02T13:15:10.000Z</time>
      </trkpt>
      <trkpt lat="47.31205" lon="-1.35268">
        <ele>59</ele>
        <time>2021-01-02T13:15:12.000Z</time>
      </trkpt>
      <trkpt lat="47.31196" lon="-1.35281">
        <ele>60</ele>
        <time>2021-01-02T13:15:14.000Z</time>
      </trkpt>
      <trkpt lat="47.31187" lon="-1.35294">
        <ele>60</ele>
        <time>2021-01-02T13:15:16.000Z</time>
      </trkpt>
      <trkpt lat="47.31178" lon="-1.35308">
        <ele>60</ele>
        <time>2021-01-02T13:15:18.000Z</time>
      </trkpt>
      <trkpt lat="47.31169" lon="-1.35322">
        <ele>61</ele>
        <time>2021-01-02T13:15:20.000Z</time>
      </trkpt>
      <trkpt lat="47.31161" lon="-1.35335">
        <ele>61</ele>
        <time>2021-01-02T13:15:22.000Z</time>
      </trkpt>
      <trkpt lat="47.31152" lon="-1.35349">
        <ele>61</ele>
        <time>2021-01-02T13:15:24.000Z</time>
      </trkpt>
      <trkpt lat="47.31144" lon="-1.35363">
        <ele>60</ele>
        <time>2021-01-02T13:15:26.000Z</time>
      </trkpt>
      <trkpt lat="47.31135" lon="-1.35377">
        <ele>60</ele>
        <time>2021-01-02T13:15:28.000Z</time>
      </trkpt>
      <trkpt lat="47.31126" lon="-1.3539">
        <ele>60</ele>
        <time>2021-01-02T13:15:30.000Z</time>
      </trkpt>
      <trkpt lat="47.31117" lon="-1.35403">
        <ele>60</ele>
        <time>2021-01-02T13:15:32.000Z</time>
      </trkpt>
      <trkpt lat="47.31108" lon="-1.35416">
        <ele>61</ele>
        <time>2021-01-02T13:15:34.000Z</time>
      </trkpt>
      <trkpt lat="47.31099" lon="-1.35429">
        <ele>61</ele>
        <time>2021-01-02T13:15:36.000Z</time>
      </trkpt>
      <trkpt lat="47.31089" lon="-1.35442">
        <ele>61</ele>
        <time>2021-01-02T13:15:38.000Z</time>
      </trkpt>
      <trkpt lat="47.31079" lon="-1.35455">
        <ele>61</ele>
        <time>2021-01-02T13:15:40.000Z</time>
      </trkpt>
      <trkpt lat="47.31069" lon="-1.35468">
        <ele>61</ele>
        <time>2021-01-02T13:15:42.000Z</time>
      </trkpt>
      <trkpt lat="47.31059" lon="-1.3548">
        <ele>60</ele>
        <time>2021-01-02T13:15:44.000Z</time>
      </trkpt>
      <trkpt lat="47.31049" lon="-1.35493">
        <ele>61</ele>
        <time>2021-01-02T13:15:46.000Z</time>
      </trkpt>
      <trkpt lat="47.31039" lon="-1.35505">
        <ele>61</ele>
        <time>2021-01-02T13:15:48.000Z</time>
      </trkpt>
      <trkpt lat="47.31029" lon="-1.35516">
        <ele>61</ele>
        <time>2021-01-02T13:15:50.000Z</time>
      </trkpt>
      <trkpt lat="47.31019" lon="-1.35528">
        <ele>61</ele>
        <time>2021-01-02T13:15:52.000Z</time>
      </trkpt>
      <trkpt lat="47.31009" lon="-1.35539">
        <ele>61</ele>
        <time>2021-01-02T13:15:54.000Z</time>
      </trkpt>
      <trkpt lat="47.30999" lon="-1.35551">
        <ele>61</ele>
        <time>2021-01-02T13:15:56.000Z</time>
      </trkpt>
      <trkpt lat="47.30989" lon="-1.35563">
        <ele>61</ele>
        <time>2021-01-02T13:15:58.000Z</time>
      </trkpt>
      <trkpt lat="47.30979" lon="-1.35575">
        <ele>61</ele>
        <time>2021-01-02T13:16:00.000Z</time>
      </trkpt>
      <trkpt lat="47.30968" lon="-1.35587">
        <ele>61</ele>
        <time>2021-01-02T13:16:02.000Z</time>
      </trkpt>
      <trkpt lat="47.30958" lon="-1.35599">
        <ele>61</ele>
        <time>2021-01-02T13:16:04.000Z</time>
      </trkpt>
      <trkpt lat="47.30948" lon="-1.35611">
        <ele>61</ele>
        <time>2021-01-02T13:16:06.000Z</time>
      </trkpt>
      <trkpt lat="47.30938" lon="-1.35622">
        <ele>61</ele>
        <time>2021-01-02T13:16:08.000Z</time>
      </trkpt>
      <trkpt lat="47.30928" lon="-1.35633">
        <ele>62</ele>
        <time>2021-01-02T13:16:10.000Z</time>
      </trkpt>
      <trkpt lat="47.30918" lon="-1.35644">
        <ele>62</ele>
        <time>2021-01-02T13:16:12.000Z</time>
      </trkpt>
      <trkpt lat="47.30908" lon="-1.35657">
        <ele>62</ele>
        <time>2021-01-02T13:16:14.000Z</time>
      </trkpt>
      <trkpt lat="47.30898" lon="-1.35669">
        <ele>62</ele>
        <time>2021-01-02T13:16:16.000Z</time>
      </trkpt>
      <trkpt lat="47.30888" lon="-1.35681">
        <ele>62</ele>
        <time>2021-01-02T13:16:18.000Z</time>
      </trkpt>
      <trkpt lat="47.30878" lon="-1.35693">
        <ele>62</ele>
        <time>2021-01-02T13:16:20.000Z</time>
      </trkpt>
      <trkpt lat="47.30869" lon="-1.35705">
        <ele>62</ele>
        <time>2021-01-02T13:16:22.000Z</time>
      </trkpt>
      <trkpt lat="47.30858" lon="-1.35716">
        <ele>62</ele>
        <time>2021-01-02T13:16:24.000Z</time>
      </trkpt>
      <trkpt lat="47.30848" lon="-1.35728">
        <ele>61</ele>
        <time>2021-01-02T13:16:26.000Z</time>
      </trkpt>
      <trkpt lat="47.30837" lon="-1.3574">
        <ele>62</ele>
        <time>2021-01-02T13:16:28.000Z</time>
      </trkpt>
      <trkpt lat="47.30827" lon="-1.35752">
        <ele>61</ele>
        <time>2021-01-02T13:16:30.000Z</time>
      </trkpt>
      <trkpt lat="47.30817" lon="-1.35763">
        <ele>61</ele>
        <time>2021-01-02T13:16:32.000Z</time>
      </trkpt>
      <trkpt lat="47.30807" lon="-1.35775">
        <ele>61</ele>
        <time>2021-01-02T13:16:34.000Z</time>
      </trkpt>
      <trkpt lat="47.30797" lon="-1.35787">
        <ele>60</ele>
        <time>2021-01-02T13:16:36.000Z</time>
      </trkpt>
      <trkpt lat="47.30787" lon="-1.35798">
        <ele>60</ele>
        <time>2021-01-02T13:16:38.000Z</time>
      </trkpt>
      <trkpt lat="47.30777" lon="-1.3581">
        <ele>60</ele>
        <time>2021-01-02T13:16:40.000Z</time>
      </trkpt>
      <trkpt lat="47.30767" lon="-1.35821">
        <ele>60</ele>
        <time>2021-01-02T13:16:42.000Z</time>
      </trkpt>
      <trkpt lat="47.30757" lon="-1.35833">
        <ele>60</ele>
        <time>2021-01-02T13:16:44.000Z</time>
      </trkpt>
      <trkpt lat="47.30747" lon="-1.35845">
        <ele>59</ele>
        <time>2021-01-02T13:16:46.000Z</time>
      </trkpt>
      <trkpt lat="47.30737" lon="-1.35856">
        <ele>60</ele>
        <time>2021-01-02T13:16:48.000Z</time>
      </trkpt>
      <trkpt lat="47.30727" lon="-1.35867">
        <ele>60</ele>
        <time>2021-01-02T13:16:50.000Z</time>
      </trkpt>
      <trkpt lat="47.30717" lon="-1.35879">
        <ele>60</ele>
        <time>2021-01-02T13:16:52.000Z</time>
      </trkpt>
      <trkpt lat="47.30707" lon="-1.3589">
        <ele>60</ele>
        <time>2021-01-02T13:16:54.000Z</time>
      </trkpt>
      <trkpt lat="47.30697" lon="-1.35902">
        <ele>60</ele>
        <time>2021-01-02T13:16:56.000Z</time>
      </trkpt>
      <trkpt lat="47.30686" lon="-1.35914">
        <ele>60</ele>
        <time>2021-01-02T13:16:58.000Z</time>
      </trkpt>
      <trkpt lat="47.30677" lon="-1.35925">
        <ele>59</ele>
        <time>2021-01-02T13:17:00.000Z</time>
      </trkpt>
      <trkpt lat="47.30667" lon="-1.35937">
        <ele>59</ele>
        <time>2021-01-02T13:17:02.000Z</time>
      </trkpt>
      <trkpt lat="47.30657" lon="-1.35948">
        <ele>59</ele>
        <time>2021-01-02T13:17:04.000Z</time>
      </trkpt>
      <trkpt lat="47.30647" lon="-1.3596">
        <ele>59</ele>
        <time>2021-01-02T13:17:06.000Z</time>
      </trkpt>
      <trkpt lat="47.30637" lon="-1.35971">
        <ele>59</ele>
        <time>2021-01-02T13:17:08.000Z</time>
      </trkpt>
      <trkpt lat="47.30627" lon="-1.35982">
        <ele>59</ele>
        <time>2021-01-02T13:17:10.000Z</time>
      </trkpt>
      <trkpt lat="47.30617" lon="-1.35991">
        <ele>58</ele>
        <time>2021-01-02T13:17:12.000Z</time>
      </trkpt>
      <trkpt lat="47.30608" lon="-1.36002">
        <ele>57</ele>
        <time>2021-01-02T13:17:14.000Z</time>
      </trkpt>
      <trkpt lat="47.30599" lon="-1.36011">
        <ele>57</ele>
        <time>2021-01-02T13:17:16.000Z</time>
      </trkpt>
      <trkpt lat="47.30591" lon="-1.36021">
        <ele>56</ele>
        <time>2021-01-02T13:17:18.000Z</time>
      </trkpt>
      <trkpt lat="47.30586" lon="-1.36035">
        <ele>56</ele>
        <time>2021-01-02T13:17:20.000Z</time>
      </trkpt>
      <trkpt lat="47.30579" lon="-1.36048">
        <ele>56</ele>
        <time>2021-01-02T13:17:22.000Z</time>
      </trkpt>
      <trkpt lat="47.3057" lon="-1.3606">
        <ele>56</ele>
        <time>2021-01-02T13:17:24.000Z</time>
      </trkpt>
      <trkpt lat="47.30561" lon="-1.36072">
        <ele>56</ele>
        <time>2021-01-02T13:17:26.000Z</time>
      </trkpt>
      <trkpt lat="47.30552" lon="-1.36084">
        <ele>56</ele>
        <time>2021-01-02T13:17:28.000Z</time>
      </trkpt>
      <trkpt lat="47.30546" lon="-1.36094">
        <ele>56</ele>
        <time>2021-01-02T13:17:31.000Z</time>
      </trkpt>
      <trkpt lat="47.30539" lon="-1.36104">
        <ele>56</ele>
        <time>2021-01-02T13:17:35.000Z</time>
      </trkpt>
      <trkpt lat="47.30531" lon="-1.36116">
        <ele>56</ele>
        <time>2021-01-02T13:17:39.000Z</time>
      </trkpt>
      <trkpt lat="47.30525" lon="-1.36128">
        <ele>57</ele>
        <time>2021-01-02T13:17:42.000Z</time>
      </trkpt>
      <trkpt lat="47.30518" lon="-1.3614">
        <ele>57</ele>
        <time>2021-01-02T13:17:45.000Z</time>
      </trkpt>
      <trkpt lat="47.3051" lon="-1.36155">
        <ele>56</ele>
        <time>2021-01-02T13:17:48.000Z</time>
      </trkpt>
      <trkpt lat="47.30504" lon="-1.36165">
        <ele>56</ele>
        <time>2021-01-02T13:17:50.000Z</time>
      </trkpt>
      <trkpt lat="47.30497" lon="-1.36176">
        <ele>56</ele>
        <time>2021-01-02T13:17:52.000Z</time>
      </trkpt>
      <trkpt lat="47.30491" lon="-1.36188">
        <ele>56</ele>
        <time>2021-01-02T13:17:54.000Z</time>
      </trkpt>
      <trkpt lat="47.30484" lon="-1.36201">
        <ele>56</ele>
        <time>2021-01-02T13:17:56.000Z</time>
      </trkpt>
      <trkpt lat="47.30477" lon="-1.36213">
        <ele>56</ele>
        <time>2021-01-02T13:17:58.000Z</time>
      </trkpt>
      <trkpt lat="47.30471" lon="-1.36225">
        <ele>56</ele>
        <time>2021-01-02T13:18:00.000Z</time>
      </trkpt>
      <trkpt lat="47.30465" lon="-1.36237">
        <ele>56</ele>
        <time>2021-01-02T13:18:02.000Z</time>
      </trkpt>
      <trkpt lat="47.30459" lon="-1.36251">
        <ele>57</ele>
        <time>2021-01-02T13:18:05.000Z</time>
      </trkpt>
      <trkpt lat="47.30454" lon="-1.36262">
        <ele>57</ele>
        <time>2021-01-02T13:18:08.000Z</time>
      </trkpt>
      <trkpt lat="47.30448" lon="-1.36275">
        <ele>57</ele>
        <time>2021-01-02T13:18:12.000Z</time>
      </trkpt>
      <trkpt lat="47.30442" lon="-1.36286">
        <ele>57</ele>
        <time>2021-01-02T13:18:15.000Z</time>
      </trkpt>
      <trkpt lat="47.30436" lon="-1.36298">
        <ele>57</ele>
        <time>2021-01-02T13:18:18.000Z</time>
      </trkpt>
      <trkpt lat="47.30431" lon="-1.36311">
        <ele>57</ele>
        <time>2021-01-02T13:18:21.000Z</time>
      </trkpt>
      <trkpt lat="47.30426" lon="-1.36322">
        <ele>58</ele>
        <time>2021-01-02T13:18:24.000Z</time>
      </trkpt>
      <trkpt lat="47.30421" lon="-1.36334">
        <ele>58</ele>
        <time>2021-01-02T13:18:27.000Z</time>
      </trkpt>
      <trkpt lat="47.30414" lon="-1.36346">
        <ele>58</ele>
        <time>2021-01-02T13:18:31.000Z</time>
      </trkpt>
      <trkpt lat="47.30408" lon="-1.36359">
        <ele>58</ele>
        <time>2021-01-02T13:18:35.000Z</time>
      </trkpt>
      <trkpt lat="47.30402" lon="-1.36371">
        <ele>59</ele>
        <time>2021-01-02T13:18:39.000Z</time>
      </trkpt>
      <trkpt lat="47.30395" lon="-1.36385">
        <ele>59</ele>
        <time>2021-01-02T13:18:43.000Z</time>
      </trkpt>
      <trkpt lat="47.3039" lon="-1.36396">
        <ele>58</ele>
        <time>2021-01-02T13:18:46.000Z</time>
      </trkpt>
      <trkpt lat="47.30384" lon="-1.36407">
        <ele>58</ele>
        <time>2021-01-02T13:18:49.000Z</time>
      </trkpt>
      <trkpt lat="47.30379" lon="-1.36418">
        <ele>58</ele>
        <time>2021-01-02T13:18:52.000Z</time>
      </trkpt>
      <trkpt lat="47.30374" lon="-1.36429">
        <ele>58</ele>
        <time>2021-01-02T13:18:55.000Z</time>
      </trkpt>
      <trkpt lat="47.30367" lon="-1.36443">
        <ele>59</ele>
        <time>2021-01-02T13:18:59.000Z</time>
      </trkpt>
      <trkpt lat="47.3036" lon="-1.36457">
        <ele>58</ele>
        <time>2021-01-02T13:19:03.000Z</time>
      </trkpt>
      <trkpt lat="47.30355" lon="-1.36468">
        <ele>58</ele>
        <time>2021-01-02T13:19:06.000Z</time>
      </trkpt>
      <trkpt lat="47.30348" lon="-1.36482">
        <ele>57</ele>
        <time>2021-01-02T13:19:10.000Z</time>
      </trkpt>
      <trkpt lat="47.30343" lon="-1.36493">
        <ele>58</ele>
        <time>2021-01-02T13:19:13.000Z</time>
      </trkpt>
      <trkpt lat="47.30336" lon="-1.36507">
        <ele>58</ele>
        <time>2021-01-02T13:19:17.000Z</time>
      </trkpt>
      <trkpt lat="47.30329" lon="-1.36521">
        <ele>59</ele>
        <time>2021-01-02T13:19:21.000Z</time>
      </trkpt>
      <trkpt lat="47.30321" lon="-1.36534">
        <ele>58</ele>
        <time>2021-01-02T13:19:25.000Z</time>
      </trkpt>
      <trkpt lat="47.30316" lon="-1.36545">
        <ele>57</ele>
        <time>2021-01-02T13:19:28.000Z</time>
      </trkpt>
      <trkpt lat="47.30309" lon="-1.36559">
        <ele>57</ele>
        <time>2021-01-02T13:19:32.000Z</time>
      </trkpt>
      <trkpt lat="47.30302" lon="-1.36574">
        <ele>57</ele>
        <time>2021-01-02T13:19:36.000Z</time>
      </trkpt>
      <trkpt lat="47.30297" lon="-1.36584">
        <ele>57</ele>
        <time>2021-01-02T13:19:39.000Z</time>
      </trkpt>
      <trkpt lat="47.30291" lon="-1.36596">
        <ele>57</ele>
        <time>2021-01-02T13:19:42.000Z</time>
      </trkpt>
      <trkpt lat="47.30286" lon="-1.36608">
        <ele>57</ele>
        <time>2021-01-02T13:19:45.000Z</time>
      </trkpt>
      <trkpt lat="47.30279" lon="-1.36621">
        <ele>57</ele>
        <time>2021-01-02T13:19:48.000Z</time>
      </trkpt>
      <trkpt lat="47.30272" lon="-1.36636">
        <ele>56</ele>
        <time>2021-01-02T13:19:51.000Z</time>
      </trkpt>
      <trkpt lat="47.30265" lon="-1.36651">
        <ele>56</ele>
        <time>2021-01-02T13:19:54.000Z</time>
      </trkpt>
      <trkpt lat="47.3026" lon="-1.36662">
        <ele>57</ele>
        <time>2021-01-02T13:19:56.000Z</time>
      </trkpt>
      <trkpt lat="47.30254" lon="-1.36673">
        <ele>56</ele>
        <time>2021-01-02T13:19:58.000Z</time>
      </trkpt>
      <trkpt lat="47.30248" lon="-1.36685">
        <ele>56</ele>
        <time>2021-01-02T13:20:00.000Z</time>
      </trkpt>
      <trkpt lat="47.3024" lon="-1.36699">
        <ele>56</ele>
        <time>2021-01-02T13:20:02.000Z</time>
      </trkpt>
      <trkpt lat="47.30233" lon="-1.36712">
        <ele>56</ele>
        <time>2021-01-02T13:20:04.000Z</time>
      </trkpt>
      <trkpt lat="47.30226" lon="-1.36728">
        <ele>56</ele>
        <time>2021-01-02T13:20:06.000Z</time>
      </trkpt>
      <trkpt lat="47.30218" lon="-1.36743">
        <ele>56</ele>
        <time>2021-01-02T13:20:08.000Z</time>
      </trkpt>
      <trkpt lat="47.30211" lon="-1.36758">
        <ele>56</ele>
        <time>2021-01-02T13:20:10.000Z</time>
      </trkpt>
      <trkpt lat="47.30204" lon="-1.36773">
        <ele>56</ele>
        <time>2021-01-02T13:20:12.000Z</time>
      </trkpt>
      <trkpt lat="47.30198" lon="-1.36787">
        <ele>56</ele>
        <time>2021-01-02T13:20:14.000Z</time>
      </trkpt>
      <trkpt lat="47.30191" lon="-1.36802">
        <ele>56</ele>
        <time>2021-01-02T13:20:16.000Z</time>
      </trkpt>
      <trkpt lat="47.30184" lon="-1.36816">
        <ele>56</ele>
        <time>2021-01-02T13:20:18.000Z</time>
      </trkpt>
      <trkpt lat="47.30177" lon="-1.3683">
        <ele>56</ele>
        <time>2021-01-02T13:20:20.000Z</time>
      </trkpt>
      <trkpt lat="47.30171" lon="-1.36845">
        <ele>56</ele>
        <time>2021-01-02T13:20:22.000Z</time>
      </trkpt>
      <trkpt lat="47.30164" lon="-1.3686">
        <ele>55</ele>
        <time>2021-01-02T13:20:24.000Z</time>
      </trkpt>
      <trkpt lat="47.30157" lon="-1.36874">
        <ele>55</ele>
        <time>2021-01-02T13:20:26.000Z</time>
      </trkpt>
      <trkpt lat="47.3015" lon="-1.36889">
        <ele>55</ele>
        <time>2021-01-02T13:20:28.000Z</time>
      </trkpt>
      <trkpt lat="47.30143" lon="-1.36903">
        <ele>56</ele>
        <time>2021-01-02T13:20:30.000Z</time>
      </trkpt>
      <trkpt lat="47.30136" lon="-1.36918">
        <ele>55</ele>
        <time>2021-01-02T13:20:32.000Z</time>
      </trkpt>
      <trkpt lat="47.30129" lon="-1.3693">
        <ele>56</ele>
        <time>2021-01-02T13:20:34.000Z</time>
      </trkpt>
      <trkpt lat="47.30122" lon="-1.36943">
        <ele>56</ele>
        <time>2021-01-02T13:20:36.000Z</time>
      </trkpt>
      <trkpt lat="47.30116" lon="-1.36958">
        <ele>56</ele>
        <time>2021-01-02T13:20:38.000Z</time>
      </trkpt>
      <trkpt lat="47.30111" lon="-1.36971">
        <ele>57</ele>
        <time>2021-01-02T13:20:40.000Z</time>
      </trkpt>
      <trkpt lat="47.30106" lon="-1.36985">
        <ele>58</ele>
        <time>2021-01-02T13:20:42.000Z</time>
      </trkpt>
      <trkpt lat="47.301" lon="-1.36998">
        <ele>58</ele>
        <time>2021-01-02T13:20:44.000Z</time>
      </trkpt>
      <trkpt lat="47.30093" lon="-1.37011">
        <ele>58</ele>
        <time>2021-01-02T13:20:46.000Z</time>
      </trkpt>
      <trkpt lat="47.30086" lon="-1.37024">
        <ele>58</ele>
        <time>2021-01-02T13:20:48.000Z</time>
      </trkpt>
      <trkpt lat="47.30079" lon="-1.37037">
        <ele>58</ele>
        <time>2021-01-02T13:20:50.000Z</time>
      </trkpt>
      <trkpt lat="47.30073" lon="-1.37051">
        <ele>58</ele>
        <time>2021-01-02T13:20:52.000Z</time>
      </trkpt>
      <trkpt lat="47.30065" lon="-1.37064">
        <ele>58</ele>
        <time>2021-01-02T13:20:54.000Z</time>
      </trkpt>
      <trkpt lat="47.30058" lon="-1.37078">
        <ele>58</ele>
        <time>2021-01-02T13:20:56.000Z</time>
      </trkpt>
      <trkpt lat="47.30051" lon="-1.37092">
        <ele>58</ele>
        <time>2021-01-02T13:20:58.000Z</time>
      </trkpt>
      <trkpt lat="47.30043" lon="-1.37105">
        <ele>57</ele>
        <time>2021-01-02T13:21:00.000Z</time>
      </trkpt>
      <trkpt lat="47.30036" lon="-1.37117">
        <ele>58</ele>
        <time>2021-01-02T13:21:02.000Z</time>
      </trkpt>
      <trkpt lat="47.30028" lon="-1.37129">
        <ele>58</ele>
        <time>2021-01-02T13:21:04.000Z</time>
      </trkpt>
      <trkpt lat="47.3002" lon="-1.37141">
        <ele>58</ele>
        <time>2021-01-02T13:21:06.000Z</time>
      </trkpt>
      <trkpt lat="47.30012" lon="-1.37153">
        <ele>58</ele>
        <time>2021-01-02T13:21:08.000Z</time>
      </trkpt>
      <trkpt lat="47.30004" lon="-1.37165">
        <ele>59</ele>
        <time>2021-01-02T13:21:10.000Z</time>
      </trkpt>
      <trkpt lat="47.29996" lon="-1.37177">
        <ele>59</ele>
        <time>2021-01-02T13:21:12.000Z</time>
      </trkpt>
      <trkpt lat="47.29988" lon="-1.3719">
        <ele>59</ele>
        <time>2021-01-02T13:21:14.000Z</time>
      </trkpt>
      <trkpt lat="47.2998" lon="-1.37201">
        <ele>58</ele>
        <time>2021-01-02T13:21:16.000Z</time>
      </trkpt>
      <trkpt lat="47.29972" lon="-1.37214">
        <ele>59</ele>
        <time>2021-01-02T13:21:18.000Z</time>
      </trkpt>
      <trkpt lat="47.29964" lon="-1.37226">
        <ele>59</ele>
        <time>2021-01-02T13:21:20.000Z</time>
      </trkpt>
      <trkpt lat="47.29956" lon="-1.37237">
        <ele>59</ele>
        <time>2021-01-02T13:21:22.000Z</time>
      </trkpt>
      <trkpt lat="47.29948" lon="-1.37249">
        <ele>59</ele>
        <time>2021-01-02T13:21:24.000Z</time>
      </trkpt>
      <trkpt lat="47.2994" lon="-1.37262">
        <ele>59</ele>
        <time>2021-01-02T13:21:26.000Z</time>
      </trkpt>
      <trkpt lat="47.29932" lon="-1.37275">
        <ele>58</ele>
        <time>2021-01-02T13:21:28.000Z</time>
      </trkpt>
      <trkpt lat="47.29924" lon="-1.37288">
        <ele>58</ele>
        <time>2021-01-02T13:21:30.000Z</time>
      </trkpt>
      <trkpt lat="47.29916" lon="-1.373">
        <ele>58</ele>
        <time>2021-01-02T13:21:32.000Z</time>
      </trkpt>
      <trkpt lat="47.29909" lon="-1.37312">
        <ele>58</ele>
        <time>2021-01-02T13:21:34.000Z</time>
      </trkpt>
      <trkpt lat="47.29902" lon="-1.37323">
        <ele>57</ele>
        <time>2021-01-02T13:21:36.000Z</time>
      </trkpt>
      <trkpt lat="47.29895" lon="-1.37334">
        <ele>57</ele>
        <time>2021-01-02T13:21:38.000Z</time>
      </trkpt>
      <trkpt lat="47.29888" lon="-1.37344">
        <ele>57</ele>
        <time>2021-01-02T13:21:40.000Z</time>
      </trkpt>
      <trkpt lat="47.2988" lon="-1.37358">
        <ele>56</ele>
        <time>2021-01-02T13:21:43.000Z</time>
      </trkpt>
      <trkpt lat="47.29873" lon="-1.37369">
        <ele>56</ele>
        <time>2021-01-02T13:21:47.000Z</time>
      </trkpt>
      <trkpt lat="47.29866" lon="-1.3738">
        <ele>57</ele>
        <time>2021-01-02T13:21:54.000Z</time>
      </trkpt>
      <trkpt lat="47.29857" lon="-1.37392">
        <ele>58</ele>
        <time>2021-01-02T13:21:59.000Z</time>
      </trkpt>
      <trkpt lat="47.29849" lon="-1.37404">
        <ele>58</ele>
        <time>2021-01-02T13:22:02.000Z</time>
      </trkpt>
      <trkpt lat="47.29841" lon="-1.37416">
        <ele>58</ele>
        <time>2021-01-02T13:22:04.000Z</time>
      </trkpt>
      <trkpt lat="47.29831" lon="-1.37431">
        <ele>58</ele>
        <time>2021-01-02T13:22:06.000Z</time>
      </trkpt>
      <trkpt lat="47.29822" lon="-1.37446">
        <ele>59</ele>
        <time>2021-01-02T13:22:08.000Z</time>
      </trkpt>
      <trkpt lat="47.29813" lon="-1.37462">
        <ele>59</ele>
        <time>2021-01-02T13:22:10.000Z</time>
      </trkpt>
      <trkpt lat="47.29803" lon="-1.37477">
        <ele>59</ele>
        <time>2021-01-02T13:22:12.000Z</time>
      </trkpt>
      <trkpt lat="47.29795" lon="-1.37492">
        <ele>58</ele>
        <time>2021-01-02T13:22:14.000Z</time>
      </trkpt>
      <trkpt lat="47.29786" lon="-1.37507">
        <ele>59</ele>
        <time>2021-01-02T13:22:16.000Z</time>
      </trkpt>
      <trkpt lat="47.29778" lon="-1.37522">
        <ele>59</ele>
        <time>2021-01-02T13:22:18.000Z</time>
      </trkpt>
      <trkpt lat="47.2977" lon="-1.37536">
        <ele>58</ele>
        <time>2021-01-02T13:22:20.000Z</time>
      </trkpt>
      <trkpt lat="47.29763" lon="-1.37549">
        <ele>58</ele>
        <time>2021-01-02T13:22:22.000Z</time>
      </trkpt>
      <trkpt lat="47.29756" lon="-1.37563">
        <ele>58</ele>
        <time>2021-01-02T13:22:25.000Z</time>
      </trkpt>
      <trkpt lat="47.2975" lon="-1.37574">
        <ele>58</ele>
        <time>2021-01-02T13:22:27.000Z</time>
      </trkpt>
      <trkpt lat="47.29743" lon="-1.37587">
        <ele>58</ele>
        <time>2021-01-02T13:22:29.000Z</time>
      </trkpt>
      <trkpt lat="47.29735" lon="-1.37601">
        <ele>58</ele>
        <time>2021-01-02T13:22:31.000Z</time>
      </trkpt>
      <trkpt lat="47.29728" lon="-1.37615">
        <ele>58</ele>
        <time>2021-01-02T13:22:33.000Z</time>
      </trkpt>
      <trkpt lat="47.29721" lon="-1.37629">
        <ele>58</ele>
        <time>2021-01-02T13:22:35.000Z</time>
      </trkpt>
      <trkpt lat="47.29715" lon="-1.37643">
        <ele>58</ele>
        <time>2021-01-02T13:22:37.000Z</time>
      </trkpt>
      <trkpt lat="47.29708" lon="-1.37658">
        <ele>57</ele>
        <time>2021-01-02T13:22:39.000Z</time>
      </trkpt>
      <trkpt lat="47.29701" lon="-1.37672">
        <ele>57</ele>
        <time>2021-01-02T13:22:41.000Z</time>
      </trkpt>
      <trkpt lat="47.29694" lon="-1.37686">
        <ele>57</ele>
        <time>2021-01-02T13:22:43.000Z</time>
      </trkpt>
      <trkpt lat="47.29687" lon="-1.377">
        <ele>56</ele>
        <time>2021-01-02T13:22:45.000Z</time>
      </trkpt>
      <trkpt lat="47.2968" lon="-1.37713">
        <ele>56</ele>
        <time>2021-01-02T13:22:47.000Z</time>
      </trkpt>
      <trkpt lat="47.29673" lon="-1.37726">
        <ele>56</ele>
        <time>2021-01-02T13:22:49.000Z</time>
      </trkpt>
      <trkpt lat="47.29666" lon="-1.37739">
        <ele>56</ele>
        <time>2021-01-02T13:22:51.000Z</time>
      </trkpt>
      <trkpt lat="47.29659" lon="-1.37753">
        <ele>56</ele>
        <time>2021-01-02T13:22:53.000Z</time>
      </trkpt>
      <trkpt lat="47.29652" lon="-1.37767">
        <ele>56</ele>
        <time>2021-01-02T13:22:55.000Z</time>
      </trkpt>
      <trkpt lat="47.29646" lon="-1.3778">
        <ele>56</ele>
        <time>2021-01-02T13:22:57.000Z</time>
      </trkpt>
      <trkpt lat="47.29639" lon="-1.37793">
        <ele>56</ele>
        <time>2021-01-02T13:22:59.000Z</time>
      </trkpt>
      <trkpt lat="47.29632" lon="-1.37805">
        <ele>55</ele>
        <time>2021-01-02T13:23:01.000Z</time>
      </trkpt>
      <trkpt lat="47.29626" lon="-1.37818">
        <ele>56</ele>
        <time>2021-01-02T13:23:03.000Z</time>
      </trkpt>
      <trkpt lat="47.29619" lon="-1.37831">
        <ele>56</ele>
        <time>2021-01-02T13:23:05.000Z</time>
      </trkpt>
      <trkpt lat="47.29612" lon="-1.37844">
        <ele>55</ele>
        <time>2021-01-02T13:23:07.000Z</time>
      </trkpt>
      <trkpt lat="47.29606" lon="-1.37857">
        <ele>56</ele>
        <time>2021-01-02T13:23:09.000Z</time>
      </trkpt>
      <trkpt lat="47.29599" lon="-1.37871">
        <ele>56</ele>
        <time>2021-01-02T13:23:11.000Z</time>
      </trkpt>
      <trkpt lat="47.29593" lon="-1.37884">
        <ele>56</ele>
        <time>2021-01-02T13:23:13.000Z</time>
      </trkpt>
      <trkpt lat="47.29587" lon="-1.37897">
        <ele>57</ele>
        <time>2021-01-02T13:23:15.000Z</time>
      </trkpt>
      <trkpt lat="47.2958" lon="-1.37909">
        <ele>57</ele>
        <time>2021-01-02T13:23:17.000Z</time>
      </trkpt>
      <trkpt lat="47.29575" lon="-1.37922">
        <ele>57</ele>
        <time>2021-01-02T13:23:19.000Z</time>
      </trkpt>
      <trkpt lat="47.29569" lon="-1.37935">
        <ele>58</ele>
        <time>2021-01-02T13:23:21.000Z</time>
      </trkpt>
      <trkpt lat="47.29564" lon="-1.37949">
        <ele>58</ele>
        <time>2021-01-02T13:23:23.000Z</time>
      </trkpt>
      <trkpt lat="47.29559" lon="-1.37963">
        <ele>58</ele>
        <time>2021-01-02T13:23:25.000Z</time>
      </trkpt>
      <trkpt lat="47.29554" lon="-1.37976">
        <ele>58</ele>
        <time>2021-01-02T13:23:27.000Z</time>
      </trkpt>
      <trkpt lat="47.29548" lon="-1.37993">
        <ele>59</ele>
        <time>2021-01-02T13:23:30.000Z</time>
      </trkpt>
      <trkpt lat="47.29542" lon="-1.38003">
        <ele>58</ele>
        <time>2021-01-02T13:23:33.000Z</time>
      </trkpt>
      <trkpt lat="47.29536" lon="-1.38014">
        <ele>59</ele>
        <time>2021-01-02T13:26:58.000Z</time>
      </trkpt>
      <trkpt lat="47.29532" lon="-1.38032">
        <ele>60</ele>
        <time>2021-01-02T13:27:02.000Z</time>
      </trkpt>
      <trkpt lat="47.29527" lon="-1.38047">
        <ele>61</ele>
        <time>2021-01-02T13:27:04.000Z</time>
      </trkpt>
      <trkpt lat="47.29521" lon="-1.38063">
        <ele>60</ele>
        <time>2021-01-02T13:27:06.000Z</time>
      </trkpt>
      <trkpt lat="47.29516" lon="-1.38079">
        <ele>60</ele>
        <time>2021-01-02T13:27:08.000Z</time>
      </trkpt>
      <trkpt lat="47.29511" lon="-1.38097">
        <ele>60</ele>
        <time>2021-01-02T13:27:10.000Z</time>
      </trkpt>
      <trkpt lat="47.29506" lon="-1.38114">
        <ele>60</ele>
        <time>2021-01-02T13:27:12.000Z</time>
      </trkpt>
      <trkpt lat="47.29502" lon="-1.38131">
        <ele>60</ele>
        <time>2021-01-02T13:27:14.000Z</time>
      </trkpt>
      <trkpt lat="47.29497" lon="-1.38148">
        <ele>60</ele>
        <time>2021-01-02T13:27:16.000Z</time>
      </trkpt>
      <trkpt lat="47.29493" lon="-1.38165">
        <ele>60</ele>
        <time>2021-01-02T13:27:18.000Z</time>
      </trkpt>
      <trkpt lat="47.29489" lon="-1.38182">
        <ele>60</ele>
        <time>2021-01-02T13:27:20.000Z</time>
      </trkpt>
      <trkpt lat="47.29485" lon="-1.38198">
        <ele>60</ele>
        <time>2021-01-02T13:27:22.000Z</time>
      </trkpt>
      <trkpt lat="47.2948" lon="-1.38215">
        <ele>60</ele>
        <time>2021-01-02T13:27:24.000Z</time>
      </trkpt>
      <trkpt lat="47.29475" lon="-1.38232">
        <ele>60</ele>
        <time>2021-01-02T13:27:26.000Z</time>
      </trkpt>
      <trkpt lat="47.2947" lon="-1.38248">
        <ele>60</ele>
        <time>2021-01-02T13:27:28.000Z</time>
      </trkpt>
      <trkpt lat="47.29466" lon="-1.38264">
        <ele>60</ele>
        <time>2021-01-02T13:27:30.000Z</time>
      </trkpt>
      <trkpt lat="47.29462" lon="-1.3828">
        <ele>59</ele>
        <time>2021-01-02T13:27:32.000Z</time>
      </trkpt>
      <trkpt lat="47.29458" lon="-1.38296">
        <ele>59</ele>
        <time>2021-01-02T13:27:34.000Z</time>
      </trkpt>
      <trkpt lat="47.29454" lon="-1.38309">
        <ele>60</ele>
        <time>2021-01-02T13:27:36.000Z</time>
      </trkpt>
      <trkpt lat="47.29449" lon="-1.38321">
        <ele>61</ele>
        <time>2021-01-02T13:27:38.000Z</time>
      </trkpt>
      <trkpt lat="47.29439" lon="-1.38329">
        <ele>61</ele>
        <time>2021-01-02T13:27:41.000Z</time>
      </trkpt>
      <trkpt lat="47.29428" lon="-1.38325">
        <ele>61</ele>
        <time>2021-01-02T13:27:44.000Z</time>
      </trkpt>
      <trkpt lat="47.29423" lon="-1.38314">
        <ele>60</ele>
        <time>2021-01-02T13:27:46.000Z</time>
      </trkpt>
      <trkpt lat="47.29415" lon="-1.38304">
        <ele>60</ele>
        <time>2021-01-02T13:27:48.000Z</time>
      </trkpt>
      <trkpt lat="47.29407" lon="-1.38294">
        <ele>60</ele>
        <time>2021-01-02T13:27:50.000Z</time>
      </trkpt>
      <trkpt lat="47.29398" lon="-1.38284">
        <ele>61</ele>
        <time>2021-01-02T13:27:52.000Z</time>
      </trkpt>
      <trkpt lat="47.2939" lon="-1.38274">
        <ele>60</ele>
        <time>2021-01-02T13:27:54.000Z</time>
      </trkpt>
      <trkpt lat="47.29381" lon="-1.38263">
        <ele>60</ele>
        <time>2021-01-02T13:27:56.000Z</time>
      </trkpt>
      <trkpt lat="47.29372" lon="-1.38251">
        <ele>59</ele>
        <time>2021-01-02T13:27:58.000Z</time>
      </trkpt>
      <trkpt lat="47.29364" lon="-1.38241">
        <ele>59</ele>
        <time>2021-01-02T13:28:00.000Z</time>
      </trkpt>
      <trkpt lat="47.29355" lon="-1.3823">
        <ele>59</ele>
        <time>2021-01-02T13:28:02.000Z</time>
      </trkpt>
      <trkpt lat="47.29347" lon="-1.3822">
        <ele>58</ele>
        <time>2021-01-02T13:28:04.000Z</time>
      </trkpt>
      <trkpt lat="47.29338" lon="-1.38208">
        <ele>58</ele>
        <time>2021-01-02T13:28:06.000Z</time>
      </trkpt>
      <trkpt lat="47.29329" lon="-1.38198">
        <ele>58</ele>
        <time>2021-01-02T13:28:08.000Z</time>
      </trkpt>
      <trkpt lat="47.2932" lon="-1.38186">
        <ele>59</ele>
        <time>2021-01-02T13:28:10.000Z</time>
      </trkpt>
      <trkpt lat="47.29311" lon="-1.38175">
        <ele>60</ele>
        <time>2021-01-02T13:28:12.000Z</time>
      </trkpt>
      <trkpt lat="47.29301" lon="-1.38163">
        <ele>59</ele>
        <time>2021-01-02T13:28:14.000Z</time>
      </trkpt>
      <trkpt lat="47.29292" lon="-1.38153">
        <ele>60</ele>
        <time>2021-01-02T13:28:16.000Z</time>
      </trkpt>
      <trkpt lat="47.29283" lon="-1.3814">
        <ele>61</ele>
        <time>2021-01-02T13:28:18.000Z</time>
      </trkpt>
      <trkpt lat="47.29273" lon="-1.38128">
        <ele>62</ele>
        <time>2021-01-02T13:28:20.000Z</time>
      </trkpt>
      <trkpt lat="47.29263" lon="-1.38117">
        <ele>63</ele>
        <time>2021-01-02T13:28:22.000Z</time>
      </trkpt>
      <trkpt lat="47.29254" lon="-1.38106">
        <ele>62</ele>
        <time>2021-01-02T13:28:24.000Z</time>
      </trkpt>
      <trkpt lat="47.29245" lon="-1.38095">
        <ele>61</ele>
        <time>2021-01-02T13:28:26.000Z</time>
      </trkpt>
      <trkpt lat="47.29235" lon="-1.38083">
        <ele>61</ele>
        <time>2021-01-02T13:28:28.000Z</time>
      </trkpt>
      <trkpt lat="47.29226" lon="-1.38071">
        <ele>60</ele>
        <time>2021-01-02T13:28:30.000Z</time>
      </trkpt>
      <trkpt lat="47.29216" lon="-1.38058">
        <ele>61</ele>
        <time>2021-01-02T13:28:32.000Z</time>
      </trkpt>
      <trkpt lat="47.29206" lon="-1.38045">
        <ele>61</ele>
        <time>2021-01-02T13:28:34.000Z</time>
      </trkpt>
      <trkpt lat="47.29195" lon="-1.38033">
        <ele>61</ele>
        <time>2021-01-02T13:28:36.000Z</time>
      </trkpt>
      <trkpt lat="47.29185" lon="-1.3802">
        <ele>61</ele>
        <time>2021-01-02T13:28:38.000Z</time>
      </trkpt>
      <trkpt lat="47.29174" lon="-1.38007">
        <ele>61</ele>
        <time>2021-01-02T13:28:40.000Z</time>
      </trkpt>
      <trkpt lat="47.29162" lon="-1.37994">
        <ele>60</ele>
        <time>2021-01-02T13:28:42.000Z</time>
      </trkpt>
      <trkpt lat="47.29151" lon="-1.37981">
        <ele>61</ele>
        <time>2021-01-02T13:28:44.000Z</time>
      </trkpt>
      <trkpt lat="47.2914" lon="-1.37967">
        <ele>61</ele>
        <time>2021-01-02T13:28:46.000Z</time>
      </trkpt>
      <trkpt lat="47.2913" lon="-1.37955">
        <ele>60</ele>
        <time>2021-01-02T13:28:48.000Z</time>
      </trkpt>
      <trkpt lat="47.29118" lon="-1.37942">
        <ele>60</ele>
        <time>2021-01-02T13:28:50.000Z</time>
      </trkpt>
      <trkpt lat="47.29108" lon="-1.37928">
        <ele>61</ele>
        <time>2021-01-02T13:28:52.000Z</time>
      </trkpt>
      <trkpt lat="47.29097" lon="-1.37915">
        <ele>61</ele>
        <time>2021-01-02T13:28:54.000Z</time>
      </trkpt>
      <trkpt lat="47.29087" lon="-1.37903">
        <ele>61</ele>
        <time>2021-01-02T13:28:56.000Z</time>
      </trkpt>
      <trkpt lat="47.29077" lon="-1.3789">
        <ele>61</ele>
        <time>2021-01-02T13:28:58.000Z</time>
      </trkpt>
      <trkpt lat="47.29067" lon="-1.37875">
        <ele>60</ele>
        <time>2021-01-02T13:29:00.000Z</time>
      </trkpt>
      <trkpt lat="47.29056" lon="-1.3786">
        <ele>59</ele>
        <time>2021-01-02T13:29:02.000Z</time>
      </trkpt>
      <trkpt lat="47.29044" lon="-1.37845">
        <ele>58</ele>
        <time>2021-01-02T13:29:04.000Z</time>
      </trkpt>
      <trkpt lat="47.29033" lon="-1.37831">
        <ele>58</ele>
        <time>2021-01-02T13:29:06.000Z</time>
      </trkpt>
      <trkpt lat="47.29021" lon="-1.37817">
        <ele>58</ele>
        <time>2021-01-02T13:29:08.000Z</time>
      </trkpt>
      <trkpt lat="47.29009" lon="-1.37803">
        <ele>58</ele>
        <time>2021-01-02T13:29:10.000Z</time>
      </trkpt>
      <trkpt lat="47.28998" lon="-1.37788">
        <ele>57</ele>
        <time>2021-01-02T13:29:12.000Z</time>
      </trkpt>
      <trkpt lat="47.28986" lon="-1.37774">
        <ele>58</ele>
        <time>2021-01-02T13:29:14.000Z</time>
      </trkpt>
      <trkpt lat="47.28975" lon="-1.37761">
        <ele>57</ele>
        <time>2021-01-02T13:29:16.000Z</time>
      </trkpt>
      <trkpt lat="47.28964" lon="-1.37746">
        <ele>57</ele>
        <time>2021-01-02T13:29:18.000Z</time>
      </trkpt>
      <trkpt lat="47.28952" lon="-1.37733">
        <ele>57</ele>
        <time>2021-01-02T13:29:20.000Z</time>
      </trkpt>
      <trkpt lat="47.28941" lon="-1.37719">
        <ele>57</ele>
        <time>2021-01-02T13:29:22.000Z</time>
      </trkpt>
      <trkpt lat="47.2893" lon="-1.37705">
        <ele>57</ele>
        <time>2021-01-02T13:29:24.000Z</time>
      </trkpt>
      <trkpt lat="47.28919" lon="-1.37692">
        <ele>58</ele>
        <time>2021-01-02T13:29:26.000Z</time>
      </trkpt>
      <trkpt lat="47.2891" lon="-1.37681">
        <ele>59</ele>
        <time>2021-01-02T13:29:28.000Z</time>
      </trkpt>
      <trkpt lat="47.28899" lon="-1.37672">
        <ele>59</ele>
        <time>2021-01-02T13:29:30.000Z</time>
      </trkpt>
      <trkpt lat="47.28889" lon="-1.37661">
        <ele>60</ele>
        <time>2021-01-02T13:29:32.000Z</time>
      </trkpt>
      <trkpt lat="47.2888" lon="-1.3765">
        <ele>59</ele>
        <time>2021-01-02T13:29:34.000Z</time>
      </trkpt>
      <trkpt lat="47.28871" lon="-1.37639">
        <ele>59</ele>
        <time>2021-01-02T13:29:36.000Z</time>
      </trkpt>
      <trkpt lat="47.28862" lon="-1.37628">
        <ele>59</ele>
        <time>2021-01-02T13:29:38.000Z</time>
      </trkpt>
      <trkpt lat="47.28855" lon="-1.37618">
        <ele>60</ele>
        <time>2021-01-02T13:29:40.000Z</time>
      </trkpt>
      <trkpt lat="47.28846" lon="-1.37605">
        <ele>59</ele>
        <time>2021-01-02T13:29:43.000Z</time>
      </trkpt>
      <trkpt lat="47.28839" lon="-1.37596">
        <ele>60</ele>
        <time>2021-01-02T13:29:46.000Z</time>
      </trkpt>
      <trkpt lat="47.2883" lon="-1.37588">
        <ele>59</ele>
        <time>2021-01-02T13:29:49.000Z</time>
      </trkpt>
      <trkpt lat="47.28823" lon="-1.37575">
        <ele>59</ele>
        <time>2021-01-02T13:29:51.000Z</time>
      </trkpt>
      <trkpt lat="47.28817" lon="-1.37556">
        <ele>60</ele>
        <time>2021-01-02T13:29:53.000Z</time>
      </trkpt>
      <trkpt lat="47.28808" lon="-1.37539">
        <ele>59</ele>
        <time>2021-01-02T13:29:55.000Z</time>
      </trkpt>
      <trkpt lat="47.28798" lon="-1.37521">
        <ele>59</ele>
        <time>2021-01-02T13:29:57.000Z</time>
      </trkpt>
      <trkpt lat="47.28789" lon="-1.37502">
        <ele>59</ele>
        <time>2021-01-02T13:29:59.000Z</time>
      </trkpt>
      <trkpt lat="47.2878" lon="-1.37482">
        <ele>58</ele>
        <time>2021-01-02T13:30:01.000Z</time>
      </trkpt>
      <trkpt lat="47.2877" lon="-1.37462">
        <ele>58</ele>
        <time>2021-01-02T13:30:03.000Z</time>
      </trkpt>
      <trkpt lat="47.2876" lon="-1.37443">
        <ele>57</ele>
        <time>2021-01-02T13:30:05.000Z</time>
      </trkpt>
      <trkpt lat="47.28751" lon="-1.37423">
        <ele>57</ele>
        <time>2021-01-02T13:30:07.000Z</time>
      </trkpt>
      <trkpt lat="47.28741" lon="-1.37404">
        <ele>57</ele>
        <time>2021-01-02T13:30:09.000Z</time>
      </trkpt>
      <trkpt lat="47.28732" lon="-1.37385">
        <ele>57</ele>
        <time>2021-01-02T13:30:11.000Z</time>
      </trkpt>
      <trkpt lat="47.28722" lon="-1.37366">
        <ele>57</ele>
        <time>2021-01-02T13:30:13.000Z</time>
      </trkpt>
      <trkpt lat="47.28713" lon="-1.37347">
        <ele>57</ele>
        <time>2021-01-02T13:30:15.000Z</time>
      </trkpt>
      <trkpt lat="47.28704" lon="-1.37328">
        <ele>56</ele>
        <time>2021-01-02T13:30:17.000Z</time>
      </trkpt>
      <trkpt lat="47.28694" lon="-1.37309">
        <ele>55</ele>
        <time>2021-01-02T13:30:19.000Z</time>
      </trkpt>
      <trkpt lat="47.28685" lon="-1.3729">
        <ele>55</ele>
        <time>2021-01-02T13:30:21.000Z</time>
      </trkpt>
      <trkpt lat="47.28676" lon="-1.37271">
        <ele>55</ele>
        <time>2021-01-02T13:30:23.000Z</time>
      </trkpt>
      <trkpt lat="47.28667" lon="-1.37253">
        <ele>55</ele>
        <time>2021-01-02T13:30:25.000Z</time>
      </trkpt>
      <trkpt lat="47.28658" lon="-1.37235">
        <ele>55</ele>
        <time>2021-01-02T13:30:27.000Z</time>
      </trkpt>
      <trkpt lat="47.28649" lon="-1.37216">
        <ele>55</ele>
        <time>2021-01-02T13:30:29.000Z</time>
      </trkpt>
      <trkpt lat="47.2864" lon="-1.37197">
        <ele>55</ele>
        <time>2021-01-02T13:30:31.000Z</time>
      </trkpt>
      <trkpt lat="47.2863" lon="-1.37179">
        <ele>55</ele>
        <time>2021-01-02T13:30:33.000Z</time>
      </trkpt>
      <trkpt lat="47.28621" lon="-1.3716">
        <ele>55</ele>
        <time>2021-01-02T13:30:35.000Z</time>
      </trkpt>
      <trkpt lat="47.28612" lon="-1.37142">
        <ele>55</ele>
        <time>2021-01-02T13:30:37.000Z</time>
      </trkpt>
      <trkpt lat="47.28603" lon="-1.37123">
        <ele>54</ele>
        <time>2021-01-02T13:30:39.000Z</time>
      </trkpt>
      <trkpt lat="47.28594" lon="-1.37104">
        <ele>54</ele>
        <time>2021-01-02T13:30:41.000Z</time>
      </trkpt>
      <trkpt lat="47.28585" lon="-1.37085">
        <ele>54</ele>
        <time>2021-01-02T13:30:43.000Z</time>
      </trkpt>
      <trkpt lat="47.28575" lon="-1.37067">
        <ele>53</ele>
        <time>2021-01-02T13:30:45.000Z</time>
      </trkpt>
      <trkpt lat="47.28566" lon="-1.37049">
        <ele>54</ele>
        <time>2021-01-02T13:30:47.000Z</time>
      </trkpt>
      <trkpt lat="47.28557" lon="-1.3703">
        <ele>54</ele>
        <time>2021-01-02T13:30:49.000Z</time>
      </trkpt>
      <trkpt lat="47.28548" lon="-1.3701">
        <ele>54</ele>
        <time>2021-01-02T13:30:51.000Z</time>
      </trkpt>
      <trkpt lat="47.2854" lon="-1.3699">
        <ele>54</ele>
        <time>2021-01-02T13:30:53.000Z</time>
      </trkpt>
      <trkpt lat="47.28532" lon="-1.36971">
        <ele>54</ele>
        <time>2021-01-02T13:30:55.000Z</time>
      </trkpt>
      <trkpt lat="47.28525" lon="-1.36951">
        <ele>55</ele>
        <time>2021-01-02T13:30:57.000Z</time>
      </trkpt>
      <trkpt lat="47.28518" lon="-1.36931">
        <ele>55</ele>
        <time>2021-01-02T13:30:59.000Z</time>
      </trkpt>
      <trkpt lat="47.28513" lon="-1.36909">
        <ele>55</ele>
        <time>2021-01-02T13:31:01.000Z</time>
      </trkpt>
      <trkpt lat="47.28507" lon="-1.36888">
        <ele>55</ele>
        <time>2021-01-02T13:31:03.000Z</time>
      </trkpt>
      <trkpt lat="47.28502" lon="-1.36866">
        <ele>55</ele>
        <time>2021-01-02T13:31:05.000Z</time>
      </trkpt>
      <trkpt lat="47.28497" lon="-1.36844">
        <ele>55</ele>
        <time>2021-01-02T13:31:07.000Z</time>
      </trkpt>
      <trkpt lat="47.28493" lon="-1.36822">
        <ele>55</ele>
        <time>2021-01-02T13:31:09.000Z</time>
      </trkpt>
      <trkpt lat="47.2849" lon="-1.36801">
        <ele>55</ele>
        <time>2021-01-02T13:31:11.000Z</time>
      </trkpt>
      <trkpt lat="47.28486" lon="-1.36779">
        <ele>54</ele>
        <time>2021-01-02T13:31:13.000Z</time>
      </trkpt>
      <trkpt lat="47.28482" lon="-1.36757">
        <ele>54</ele>
        <time>2021-01-02T13:31:15.000Z</time>
      </trkpt>
      <trkpt lat="47.28479" lon="-1.36736">
        <ele>55</ele>
        <time>2021-01-02T13:31:17.000Z</time>
      </trkpt>
      <trkpt lat="47.28474" lon="-1.36714">
        <ele>55</ele>
        <time>2021-01-02T13:31:19.000Z</time>
      </trkpt>
      <trkpt lat="47.28469" lon="-1.36693">
        <ele>55</ele>
        <time>2021-01-02T13:31:21.000Z</time>
      </trkpt>
      <trkpt lat="47.28462" lon="-1.36673">
        <ele>55</ele>
        <time>2021-01-02T13:31:23.000Z</time>
      </trkpt>
      <trkpt lat="47.28454" lon="-1.36654">
        <ele>54</ele>
        <time>2021-01-02T13:31:25.000Z</time>
      </trkpt>
      <trkpt lat="47.28444" lon="-1.36635">
        <ele>54</ele>
        <time>2021-01-02T13:31:27.000Z</time>
      </trkpt>
      <trkpt lat="47.28434" lon="-1.36617">
        <ele>54</ele>
        <time>2021-01-02T13:31:29.000Z</time>
      </trkpt>
      <trkpt lat="47.28424" lon="-1.366">
        <ele>54</ele>
        <time>2021-01-02T13:31:31.000Z</time>
      </trkpt>
      <trkpt lat="47.28414" lon="-1.36581">
        <ele>54</ele>
        <time>2021-01-02T13:31:33.000Z</time>
      </trkpt>
      <trkpt lat="47.28404" lon="-1.36563">
        <ele>54</ele>
        <time>2021-01-02T13:31:35.000Z</time>
      </trkpt>
      <trkpt lat="47.28395" lon="-1.36545">
        <ele>54</ele>
        <time>2021-01-02T13:31:37.000Z</time>
      </trkpt>
      <trkpt lat="47.28385" lon="-1.36526">
        <ele>53</ele>
        <time>2021-01-02T13:31:39.000Z</time>
      </trkpt>
      <trkpt lat="47.28375" lon="-1.36507">
        <ele>53</ele>
        <time>2021-01-02T13:31:41.000Z</time>
      </trkpt>
      <trkpt lat="47.28365" lon="-1.36489">
        <ele>54</ele>
        <time>2021-01-02T13:31:43.000Z</time>
      </trkpt>
      <trkpt lat="47.28355" lon="-1.36471">
        <ele>53</ele>
        <time>2021-01-02T13:31:45.000Z</time>
      </trkpt>
      <trkpt lat="47.28346" lon="-1.36453">
        <ele>54</ele>
        <time>2021-01-02T13:31:47.000Z</time>
      </trkpt>
      <trkpt lat="47.28336" lon="-1.36435">
        <ele>53</ele>
        <time>2021-01-02T13:31:49.000Z</time>
      </trkpt>
      <trkpt lat="47.28326" lon="-1.36417">
        <ele>54</ele>
        <time>2021-01-02T13:31:51.000Z</time>
      </trkpt>
      <trkpt lat="47.28316" lon="-1.36399">
        <ele>54</ele>
        <time>2021-01-02T13:31:53.000Z</time>
      </trkpt>
      <trkpt lat="47.28307" lon="-1.36381">
        <ele>54</ele>
        <time>2021-01-02T13:31:55.000Z</time>
      </trkpt>
      <trkpt lat="47.28297" lon="-1.36362">
        <ele>53</ele>
        <time>2021-01-02T13:31:57.000Z</time>
      </trkpt>
      <trkpt lat="47.28288" lon="-1.36344">
        <ele>54</ele>
        <time>2021-01-02T13:31:59.000Z</time>
      </trkpt>
      <trkpt lat="47.2828" lon="-1.36325">
        <ele>54</ele>
        <time>2021-01-02T13:32:01.000Z</time>
      </trkpt>
      <trkpt lat="47.28272" lon="-1.36305">
        <ele>53</ele>
        <time>2021-01-02T13:32:03.000Z</time>
      </trkpt>
      <trkpt lat="47.28265" lon="-1.36285">
        <ele>54</ele>
        <time>2021-01-02T13:32:05.000Z</time>
      </trkpt>
      <trkpt lat="47.28258" lon="-1.36264">
        <ele>54</ele>
        <time>2021-01-02T13:32:07.000Z</time>
      </trkpt>
      <trkpt lat="47.28252" lon="-1.36244">
        <ele>54</ele>
        <time>2021-01-02T13:32:09.000Z</time>
      </trkpt>
      <trkpt lat="47.28246" lon="-1.36221">
        <ele>54</ele>
        <time>2021-01-02T13:32:11.000Z</time>
      </trkpt>
      <trkpt lat="47.28241" lon="-1.362">
        <ele>54</ele>
        <time>2021-01-02T13:32:13.000Z</time>
      </trkpt>
      <trkpt lat="47.28235" lon="-1.36179">
        <ele>54</ele>
        <time>2021-01-02T13:32:15.000Z</time>
      </trkpt>
      <trkpt lat="47.28229" lon="-1.36157">
        <ele>55</ele>
        <time>2021-01-02T13:32:17.000Z</time>
      </trkpt>
      <trkpt lat="47.28224" lon="-1.36135">
        <ele>54</ele>
        <time>2021-01-02T13:32:19.000Z</time>
      </trkpt>
      <trkpt lat="47.28219" lon="-1.36113">
        <ele>54</ele>
        <time>2021-01-02T13:32:21.000Z</time>
      </trkpt>
      <trkpt lat="47.28213" lon="-1.36092">
        <ele>54</ele>
        <time>2021-01-02T13:32:23.000Z</time>
      </trkpt>
      <trkpt lat="47.28207" lon="-1.3607">
        <ele>54</ele>
        <time>2021-01-02T13:32:25.000Z</time>
      </trkpt>
      <trkpt lat="47.28201" lon="-1.3605">
        <ele>54</ele>
        <time>2021-01-02T13:32:27.000Z</time>
      </trkpt>
      <trkpt lat="47.28193" lon="-1.36029">
        <ele>54</ele>
        <time>2021-01-02T13:32:29.000Z</time>
      </trkpt>
      <trkpt lat="47.28185" lon="-1.36009">
        <ele>54</ele>
        <time>2021-01-02T13:32:31.000Z</time>
      </trkpt>
      <trkpt lat="47.28177" lon="-1.3599">
        <ele>54</ele>
        <time>2021-01-02T13:32:33.000Z</time>
      </trkpt>
      <trkpt lat="47.28167" lon="-1.35971">
        <ele>54</ele>
        <time>2021-01-02T13:32:35.000Z</time>
      </trkpt>
      <trkpt lat="47.28157" lon="-1.35954">
        <ele>54</ele>
        <time>2021-01-02T13:32:37.000Z</time>
      </trkpt>
      <trkpt lat="47.28146" lon="-1.35937">
        <ele>54</ele>
        <time>2021-01-02T13:32:39.000Z</time>
      </trkpt>
      <trkpt lat="47.28135" lon="-1.35921">
        <ele>54</ele>
        <time>2021-01-02T13:32:41.000Z</time>
      </trkpt>
      <trkpt lat="47.28125" lon="-1.35905">
        <ele>54</ele>
        <time>2021-01-02T13:32:43.000Z</time>
      </trkpt>
      <trkpt lat="47.28114" lon="-1.35889">
        <ele>54</ele>
        <time>2021-01-02T13:32:45.000Z</time>
      </trkpt>
      <trkpt lat="47.28104" lon="-1.35872">
        <ele>54</ele>
        <time>2021-01-02T13:32:47.000Z</time>
      </trkpt>
      <trkpt lat="47.28093" lon="-1.35856">
        <ele>54</ele>
        <time>2021-01-02T13:32:49.000Z</time>
      </trkpt>
      <trkpt lat="47.28084" lon="-1.35838">
        <ele>54</ele>
        <time>2021-01-02T13:32:51.000Z</time>
      </trkpt>
      <trkpt lat="47.28075" lon="-1.3582">
        <ele>55</ele>
        <time>2021-01-02T13:32:53.000Z</time>
      </trkpt>
      <trkpt lat="47.28068" lon="-1.35799">
        <ele>54</ele>
        <time>2021-01-02T13:32:55.000Z</time>
      </trkpt>
      <trkpt lat="47.28061" lon="-1.35778">
        <ele>54</ele>
        <time>2021-01-02T13:32:57.000Z</time>
      </trkpt>
      <trkpt lat="47.28057" lon="-1.35756">
        <ele>55</ele>
        <time>2021-01-02T13:32:59.000Z</time>
      </trkpt>
      <trkpt lat="47.28054" lon="-1.35733">
        <ele>55</ele>
        <time>2021-01-02T13:33:01.000Z</time>
      </trkpt>
      <trkpt lat="47.28051" lon="-1.3571">
        <ele>55</ele>
        <time>2021-01-02T13:33:03.000Z</time>
      </trkpt>
      <trkpt lat="47.28048" lon="-1.35687">
        <ele>54</ele>
        <time>2021-01-02T13:33:05.000Z</time>
      </trkpt>
      <trkpt lat="47.28044" lon="-1.35665">
        <ele>54</ele>
        <time>2021-01-02T13:33:07.000Z</time>
      </trkpt>
      <trkpt lat="47.2804" lon="-1.35642">
        <ele>55</ele>
        <time>2021-01-02T13:33:09.000Z</time>
      </trkpt>
      <trkpt lat="47.28034" lon="-1.35621">
        <ele>54</ele>
        <time>2021-01-02T13:33:11.000Z</time>
      </trkpt>
      <trkpt lat="47.28029" lon="-1.35599">
        <ele>54</ele>
        <time>2021-01-02T13:33:13.000Z</time>
      </trkpt>
      <trkpt lat="47.28023" lon="-1.35578">
        <ele>54</ele>
        <time>2021-01-02T13:33:15.000Z</time>
      </trkpt>
      <trkpt lat="47.28017" lon="-1.35557">
        <ele>54</ele>
        <time>2021-01-02T13:33:17.000Z</time>
      </trkpt>
      <trkpt lat="47.28011" lon="-1.35537">
        <ele>54</ele>
        <time>2021-01-02T13:33:19.000Z</time>
      </trkpt>
      <trkpt lat="47.28005" lon="-1.35517">
        <ele>54</ele>
        <time>2021-01-02T13:33:21.000Z</time>
      </trkpt>
      <trkpt lat="47.27999" lon="-1.35499">
        <ele>54</ele>
        <time>2021-01-02T13:33:23.000Z</time>
      </trkpt>
      <trkpt lat="47.27988" lon="-1.3549">
        <ele>54</ele>
        <time>2021-01-02T13:33:25.000Z</time>
      </trkpt>
      <trkpt lat="47.27976" lon="-1.35495">
        <ele>54</ele>
        <time>2021-01-02T13:33:27.000Z</time>
      </trkpt>
      <trkpt lat="47.27964" lon="-1.35504">
        <ele>54</ele>
        <time>2021-01-02T13:33:29.000Z</time>
      </trkpt>
      <trkpt lat="47.27951" lon="-1.35512">
        <ele>55</ele>
        <time>2021-01-02T13:33:31.000Z</time>
      </trkpt>
      <trkpt lat="47.27937" lon="-1.35521">
        <ele>54</ele>
        <time>2021-01-02T13:33:33.000Z</time>
      </trkpt>
      <trkpt lat="47.27924" lon="-1.3553">
        <ele>54</ele>
        <time>2021-01-02T13:33:35.000Z</time>
      </trkpt>
      <trkpt lat="47.2791" lon="-1.35539">
        <ele>54</ele>
        <time>2021-01-02T13:33:37.000Z</time>
      </trkpt>
      <trkpt lat="47.27897" lon="-1.35547">
        <ele>54</ele>
        <time>2021-01-02T13:33:39.000Z</time>
      </trkpt>
      <trkpt lat="47.27883" lon="-1.35556">
        <ele>54</ele>
        <time>2021-01-02T13:33:41.000Z</time>
      </trkpt>
      <trkpt lat="47.27869" lon="-1.35565">
        <ele>54</ele>
        <time>2021-01-02T13:33:43.000Z</time>
      </trkpt>
      <trkpt lat="47.27855" lon="-1.35573">
        <ele>54</ele>
        <time>2021-01-02T13:33:45.000Z</time>
      </trkpt>
      <trkpt lat="47.27842" lon="-1.35582">
        <ele>54</ele>
        <time>2021-01-02T13:33:47.000Z</time>
      </trkpt>
      <trkpt lat="47.27828" lon="-1.3559">
        <ele>54</ele>
        <time>2021-01-02T13:33:49.000Z</time>
      </trkpt>
      <trkpt lat="47.27815" lon="-1.35599">
        <ele>53</ele>
        <time>2021-01-02T13:33:51.000Z</time>
      </trkpt>
      <trkpt lat="47.27801" lon="-1.35607">
        <ele>53</ele>
        <time>2021-01-02T13:33:53.000Z</time>
      </trkpt>
      <trkpt lat="47.27788" lon="-1.35616">
        <ele>53</ele>
        <time>2021-01-02T13:33:55.000Z</time>
      </trkpt>
      <trkpt lat="47.27775" lon="-1.35624">
        <ele>54</ele>
        <time>2021-01-02T13:33:57.000Z</time>
      </trkpt>
      <trkpt lat="47.27762" lon="-1.35633">
        <ele>54</ele>
        <time>2021-01-02T13:33:59.000Z</time>
      </trkpt>
      <trkpt lat="47.27749" lon="-1.35642">
        <ele>54</ele>
        <time>2021-01-02T13:34:01.000Z</time>
      </trkpt>
      <trkpt lat="47.27735" lon="-1.35651">
        <ele>54</ele>
        <time>2021-01-02T13:34:03.000Z</time>
      </trkpt>
      <trkpt lat="47.27722" lon="-1.3566">
        <ele>54</ele>
        <time>2021-01-02T13:34:05.000Z</time>
      </trkpt>
      <trkpt lat="47.27709" lon="-1.35668">
        <ele>54</ele>
        <time>2021-01-02T13:34:07.000Z</time>
      </trkpt>
      <trkpt lat="47.27695" lon="-1.35677">
        <ele>54</ele>
        <time>2021-01-02T13:34:09.000Z</time>
      </trkpt>
      <trkpt lat="47.27683" lon="-1.35685">
        <ele>54</ele>
        <time>2021-01-02T13:34:11.000Z</time>
      </trkpt>
      <trkpt lat="47.27669" lon="-1.35694">
        <ele>54</ele>
        <time>2021-01-02T13:34:13.000Z</time>
      </trkpt>
      <trkpt lat="47.27656" lon="-1.35703">
        <ele>55</ele>
        <time>2021-01-02T13:34:15.000Z</time>
      </trkpt>
      <trkpt lat="47.27643" lon="-1.35711">
        <ele>55</ele>
        <time>2021-01-02T13:34:17.000Z</time>
      </trkpt>
      <trkpt lat="47.2763" lon="-1.35721">
        <ele>55</ele>
        <time>2021-01-02T13:34:19.000Z</time>
      </trkpt>
      <trkpt lat="47.27616" lon="-1.3573">
        <ele>54</ele>
        <time>2021-01-02T13:34:21.000Z</time>
      </trkpt>
      <trkpt lat="47.27603" lon="-1.35738">
        <ele>55</ele>
        <time>2021-01-02T13:34:23.000Z</time>
      </trkpt>
      <trkpt lat="47.27589" lon="-1.35747">
        <ele>55</ele>
        <time>2021-01-02T13:34:25.000Z</time>
      </trkpt>
      <trkpt lat="47.27576" lon="-1.35755">
        <ele>55</ele>
        <time>2021-01-02T13:34:27.000Z</time>
      </trkpt>
      <trkpt lat="47.27563" lon="-1.35763">
        <ele>55</ele>
        <time>2021-01-02T13:34:29.000Z</time>
      </trkpt>
      <trkpt lat="47.2755" lon="-1.35772">
        <ele>55</ele>
        <time>2021-01-02T13:34:31.000Z</time>
      </trkpt>
      <trkpt lat="47.27537" lon="-1.3578">
        <ele>55</ele>
        <time>2021-01-02T13:34:33.000Z</time>
      </trkpt>
      <trkpt lat="47.27523" lon="-1.35788">
        <ele>55</ele>
        <time>2021-01-02T13:34:35.000Z</time>
      </trkpt>
      <trkpt lat="47.2751" lon="-1.35797">
        <ele>54</ele>
        <time>2021-01-02T13:34:37.000Z</time>
      </trkpt>
      <trkpt lat="47.27496" lon="-1.35806">
        <ele>54</ele>
        <time>2021-01-02T13:34:39.000Z</time>
      </trkpt>
      <trkpt lat="47.27483" lon="-1.35814">
        <ele>54</ele>
        <time>2021-01-02T13:34:41.000Z</time>
      </trkpt>
      <trkpt lat="47.2747" lon="-1.35823">
        <ele>54</ele>
        <time>2021-01-02T13:34:43.000Z</time>
      </trkpt>
      <trkpt lat="47.27457" lon="-1.35831">
        <ele>54</ele>
        <time>2021-01-02T13:34:45.000Z</time>
      </trkpt>
      <trkpt lat="47.27443" lon="-1.3584">
        <ele>54</ele>
        <time>2021-01-02T13:34:47.000Z</time>
      </trkpt>
      <trkpt lat="47.2743" lon="-1.35849">
        <ele>54</ele>
        <time>2021-01-02T13:34:49.000Z</time>
      </trkpt>
      <trkpt lat="47.27417" lon="-1.35858">
        <ele>54</ele>
        <time>2021-01-02T13:34:51.000Z</time>
      </trkpt>
      <trkpt lat="47.27404" lon="-1.35867">
        <ele>54</ele>
        <time>2021-01-02T13:34:53.000Z</time>
      </trkpt>
      <trkpt lat="47.2739" lon="-1.35875">
        <ele>54</ele>
        <time>2021-01-02T13:34:55.000Z</time>
      </trkpt>
      <trkpt lat="47.27377" lon="-1.35884">
        <ele>54</ele>
        <time>2021-01-02T13:34:57.000Z</time>
      </trkpt>
      <trkpt lat="47.27364" lon="-1.35892">
        <ele>54</ele>
        <time>2021-01-02T13:34:59.000Z</time>
      </trkpt>
      <trkpt lat="47.2735" lon="-1.359">
        <ele>54</ele>
        <time>2021-01-02T13:35:01.000Z</time>
      </trkpt>
      <trkpt lat="47.27336" lon="-1.35909">
        <ele>53</ele>
        <time>2021-01-02T13:35:03.000Z</time>
      </trkpt>
      <trkpt lat="47.27322" lon="-1.35917">
        <ele>53</ele>
        <time>2021-01-02T13:35:05.000Z</time>
      </trkpt>
      <trkpt lat="47.27308" lon="-1.35926">
        <ele>53</ele>
        <time>2021-01-02T13:35:07.000Z</time>
      </trkpt>
      <trkpt lat="47.27295" lon="-1.35935">
        <ele>53</ele>
        <time>2021-01-02T13:35:09.000Z</time>
      </trkpt>
      <trkpt lat="47.27282" lon="-1.35942">
        <ele>53</ele>
        <time>2021-01-02T13:35:11.000Z</time>
      </trkpt>
      <trkpt lat="47.27268" lon="-1.35951">
        <ele>53</ele>
        <time>2021-01-02T13:35:13.000Z</time>
      </trkpt>
      <trkpt lat="47.27255" lon="-1.3596">
        <ele>53</ele>
        <time>2021-01-02T13:35:15.000Z</time>
      </trkpt>
      <trkpt lat="47.27241" lon="-1.35969">
        <ele>53</ele>
        <time>2021-01-02T13:35:17.000Z</time>
      </trkpt>
      <trkpt lat="47.27228" lon="-1.35978">
        <ele>53</ele>
        <time>2021-01-02T13:35:19.000Z</time>
      </trkpt>
      <trkpt lat="47.27215" lon="-1.35986">
        <ele>53</ele>
        <time>2021-01-02T13:35:21.000Z</time>
      </trkpt>
      <trkpt lat="47.27202" lon="-1.35995">
        <ele>52</ele>
        <time>2021-01-02T13:35:23.000Z</time>
      </trkpt>
      <trkpt lat="47.27189" lon="-1.36003">
        <ele>52</ele>
        <time>2021-01-02T13:35:25.000Z</time>
      </trkpt>
      <trkpt lat="47.27176" lon="-1.36012">
        <ele>52</ele>
        <time>2021-01-02T13:35:27.000Z</time>
      </trkpt>
      <trkpt lat="47.27163" lon="-1.3602">
        <ele>52</ele>
        <time>2021-01-02T13:35:29.000Z</time>
      </trkpt>
      <trkpt lat="47.2715" lon="-1.36029">
        <ele>52</ele>
        <time>2021-01-02T13:35:31.000Z</time>
      </trkpt>
      <trkpt lat="47.27137" lon="-1.36037">
        <ele>52</ele>
        <time>2021-01-02T13:35:33.000Z</time>
      </trkpt>
      <trkpt lat="47.27124" lon="-1.36045">
        <ele>52</ele>
        <time>2021-01-02T13:35:35.000Z</time>
      </trkpt>
      <trkpt lat="47.27111" lon="-1.36054">
        <ele>52</ele>
        <time>2021-01-02T13:35:37.000Z</time>
      </trkpt>
      <trkpt lat="47.27098" lon="-1.36062">
        <ele>52</ele>
        <time>2021-01-02T13:35:39.000Z</time>
      </trkpt>
      <trkpt lat="47.27085" lon="-1.3607">
        <ele>52</ele>
        <time>2021-01-02T13:35:41.000Z</time>
      </trkpt>
      <trkpt lat="47.27072" lon="-1.36079">
        <ele>52</ele>
        <time>2021-01-02T13:35:43.000Z</time>
      </trkpt>
      <trkpt lat="47.27059" lon="-1.36088">
        <ele>52</ele>
        <time>2021-01-02T13:35:45.000Z</time>
      </trkpt>
      <trkpt lat="47.27046" lon="-1.36096">
        <ele>52</ele>
        <time>2021-01-02T13:35:47.000Z</time>
      </trkpt>
      <trkpt lat="47.27033" lon="-1.36103">
        <ele>52</ele>
        <time>2021-01-02T13:35:49.000Z</time>
      </trkpt>
      <trkpt lat="47.27021" lon="-1.36111">
        <ele>52</ele>
        <time>2021-01-02T13:35:51.000Z</time>
      </trkpt>
      <trkpt lat="47.27008" lon="-1.36119">
        <ele>52</ele>
        <time>2021-01-02T13:35:53.000Z</time>
      </trkpt>
      <trkpt lat="47.26997" lon="-1.36127">
        <ele>52</ele>
        <time>2021-01-02T13:35:55.000Z</time>
      </trkpt>
      <trkpt lat="47.26986" lon="-1.36135">
        <ele>52</ele>
        <time>2021-01-02T13:35:57.000Z</time>
      </trkpt>
      <trkpt lat="47.26977" lon="-1.36142">
        <ele>52</ele>
        <time>2021-01-02T13:35:59.000Z</time>
      </trkpt>
      <trkpt lat="47.26968" lon="-1.36151">
        <ele>52</ele>
        <time>2021-01-02T13:36:02.000Z</time>
      </trkpt>
      <trkpt lat="47.26959" lon="-1.36153">
        <ele>53</ele>
        <time>2021-01-02T13:36:05.000Z</time>
      </trkpt>
      <trkpt lat="47.26952" lon="-1.36144">
        <ele>53</ele>
        <time>2021-01-02T13:36:07.000Z</time>
      </trkpt>
      <trkpt lat="47.26945" lon="-1.36132">
        <ele>54</ele>
        <time>2021-01-02T13:36:09.000Z</time>
      </trkpt>
      <trkpt lat="47.26938" lon="-1.36119">
        <ele>54</ele>
        <time>2021-01-02T13:36:11.000Z</time>
      </trkpt>
      <trkpt lat="47.2693" lon="-1.36103">
        <ele>53</ele>
        <time>2021-01-02T13:36:13.000Z</time>
      </trkpt>
      <trkpt lat="47.26923" lon="-1.36088">
        <ele>54</ele>
        <time>2021-01-02T13:36:15.000Z</time>
      </trkpt>
      <trkpt lat="47.26915" lon="-1.36072">
        <ele>54</ele>
        <time>2021-01-02T13:36:17.000Z</time>
      </trkpt>
      <trkpt lat="47.26909" lon="-1.36057">
        <ele>54</ele>
        <time>2021-01-02T13:36:19.000Z</time>
      </trkpt>
      <trkpt lat="47.26904" lon="-1.36039">
        <ele>54</ele>
        <time>2021-01-02T13:36:21.000Z</time>
      </trkpt>
      <trkpt lat="47.26899" lon="-1.36022">
        <ele>54</ele>
        <time>2021-01-02T13:36:23.000Z</time>
      </trkpt>
      <trkpt lat="47.26895" lon="-1.36005">
        <ele>55</ele>
        <time>2021-01-02T13:36:25.000Z</time>
      </trkpt>
      <trkpt lat="47.26891" lon="-1.35987">
        <ele>55</ele>
        <time>2021-01-02T13:36:27.000Z</time>
      </trkpt>
      <trkpt lat="47.26888" lon="-1.35969">
        <ele>55</ele>
        <time>2021-01-02T13:36:29.000Z</time>
      </trkpt>
      <trkpt lat="47.26883" lon="-1.35942">
        <ele>55</ele>
        <time>2021-01-02T13:36:32.000Z</time>
      </trkpt>
      <trkpt lat="47.26879" lon="-1.35916">
        <ele>55</ele>
        <time>2021-01-02T13:36:35.000Z</time>
      </trkpt>
      <trkpt lat="47.26877" lon="-1.35899">
        <ele>56</ele>
        <time>2021-01-02T13:36:37.000Z</time>
      </trkpt>
      <trkpt lat="47.26874" lon="-1.35882">
        <ele>56</ele>
        <time>2021-01-02T13:36:39.000Z</time>
      </trkpt>
      <trkpt lat="47.2687" lon="-1.35858">
        <ele>57</ele>
        <time>2021-01-02T13:36:42.000Z</time>
      </trkpt>
      <trkpt lat="47.26867" lon="-1.35842">
        <ele>58</ele>
        <time>2021-01-02T13:36:44.000Z</time>
      </trkpt>
      <trkpt lat="47.26865" lon="-1.35826">
        <ele>58</ele>
        <time>2021-01-02T13:36:46.000Z</time>
      </trkpt>
      <trkpt lat="47.26862" lon="-1.35809">
        <ele>58</ele>
        <time>2021-01-02T13:36:48.000Z</time>
      </trkpt>
      <trkpt lat="47.2686" lon="-1.35792">
        <ele>59</ele>
        <time>2021-01-02T13:36:50.000Z</time>
      </trkpt>
      <trkpt lat="47.26855" lon="-1.35769">
        <ele>59</ele>
        <time>2021-01-02T13:36:53.000Z</time>
      </trkpt>
      <trkpt lat="47.26852" lon="-1.35753">
        <ele>60</ele>
        <time>2021-01-02T13:36:55.000Z</time>
      </trkpt>
      <trkpt lat="47.26849" lon="-1.35737">
        <ele>60</ele>
        <time>2021-01-02T13:36:57.000Z</time>
      </trkpt>
      <trkpt lat="47.26847" lon="-1.35722">
        <ele>62</ele>
        <time>2021-01-02T13:36:59.000Z</time>
      </trkpt>
      <trkpt lat="47.26842" lon="-1.357">
        <ele>63</ele>
        <time>2021-01-02T13:37:02.000Z</time>
      </trkpt>
      <trkpt lat="47.26837" lon="-1.35676">
        <ele>63</ele>
        <time>2021-01-02T13:37:05.000Z</time>
      </trkpt>
      <trkpt lat="47.26833" lon="-1.35662">
        <ele>64</ele>
        <time>2021-01-02T13:37:07.000Z</time>
      </trkpt>
      <trkpt lat="47.26827" lon="-1.35647">
        <ele>64</ele>
        <time>2021-01-02T13:37:09.000Z</time>
      </trkpt>
      <trkpt lat="47.2682" lon="-1.35625">
        <ele>65</ele>
        <time>2021-01-02T13:37:12.000Z</time>
      </trkpt>
      <trkpt lat="47.26814" lon="-1.35612">
        <ele>65</ele>
        <time>2021-01-02T13:37:14.000Z</time>
      </trkpt>
      <trkpt lat="47.2681" lon="-1.35598">
        <ele>65</ele>
        <time>2021-01-02T13:37:16.000Z</time>
      </trkpt>
      <trkpt lat="47.26806" lon="-1.35585">
        <ele>66</ele>
        <time>2021-01-02T13:37:18.000Z</time>
      </trkpt>
      <trkpt lat="47.26804" lon="-1.35571">
        <ele>66</ele>
        <time>2021-01-02T13:37:20.000Z</time>
      </trkpt>
      <trkpt lat="47.26803" lon="-1.35552">
        <ele>66</ele>
        <time>2021-01-02T13:37:23.000Z</time>
      </trkpt>
      <trkpt lat="47.26791" lon="-1.35546">
        <ele>67</ele>
        <time>2021-01-02T13:37:26.000Z</time>
      </trkpt>
      <trkpt lat="47.26781" lon="-1.35551">
        <ele>67</ele>
        <time>2021-01-02T13:37:28.000Z</time>
      </trkpt>
      <trkpt lat="47.26772" lon="-1.35556">
        <ele>68</ele>
        <time>2021-01-02T13:37:30.000Z</time>
      </trkpt>
      <trkpt lat="47.26761" lon="-1.3556">
        <ele>69</ele>
        <time>2021-01-02T13:37:32.000Z</time>
      </trkpt>
      <trkpt lat="47.2675" lon="-1.35564">
        <ele>69</ele>
        <time>2021-01-02T13:37:34.000Z</time>
      </trkpt>
      <trkpt lat="47.26734" lon="-1.35569">
        <ele>69</ele>
        <time>2021-01-02T13:37:37.000Z</time>
      </trkpt>
      <trkpt lat="47.26723" lon="-1.35573">
        <ele>69</ele>
        <time>2021-01-02T13:37:39.000Z</time>
      </trkpt>
      <trkpt lat="47.26712" lon="-1.35576">
        <ele>69</ele>
        <time>2021-01-02T13:37:41.000Z</time>
      </trkpt>
      <trkpt lat="47.26701" lon="-1.3558">
        <ele>69</ele>
        <time>2021-01-02T13:37:43.000Z</time>
      </trkpt>
      <trkpt lat="47.26689" lon="-1.35583">
        <ele>68</ele>
        <time>2021-01-02T13:37:45.000Z</time>
      </trkpt>
      <trkpt lat="47.26671" lon="-1.35587">
        <ele>68</ele>
        <time>2021-01-02T13:37:48.000Z</time>
      </trkpt>
      <trkpt lat="47.26657" lon="-1.35588">
        <ele>68</ele>
        <time>2021-01-02T13:37:50.000Z</time>
      </trkpt>
      <trkpt lat="47.26644" lon="-1.3559">
        <ele>68</ele>
        <time>2021-01-02T13:37:52.000Z</time>
      </trkpt>
      <trkpt lat="47.26631" lon="-1.35591">
        <ele>68</ele>
        <time>2021-01-02T13:37:54.000Z</time>
      </trkpt>
      <trkpt lat="47.26618" lon="-1.35593">
        <ele>67</ele>
        <time>2021-01-02T13:37:56.000Z</time>
      </trkpt>
      <trkpt lat="47.26606" lon="-1.35597">
        <ele>67</ele>
        <time>2021-01-02T13:37:58.000Z</time>
      </trkpt>
      <trkpt lat="47.26593" lon="-1.35602">
        <ele>67</ele>
        <time>2021-01-02T13:38:00.000Z</time>
      </trkpt>
      <trkpt lat="47.26581" lon="-1.35608">
        <ele>67</ele>
        <time>2021-01-02T13:38:02.000Z</time>
      </trkpt>
      <trkpt lat="47.26562" lon="-1.35618">
        <ele>67</ele>
        <time>2021-01-02T13:38:05.000Z</time>
      </trkpt>
      <trkpt lat="47.2655" lon="-1.35624">
        <ele>67</ele>
        <time>2021-01-02T13:38:07.000Z</time>
      </trkpt>
      <trkpt lat="47.26538" lon="-1.35629">
        <ele>67</ele>
        <time>2021-01-02T13:38:09.000Z</time>
      </trkpt>
      <trkpt lat="47.26526" lon="-1.35634">
        <ele>67</ele>
        <time>2021-01-02T13:38:11.000Z</time>
      </trkpt>
      <trkpt lat="47.26514" lon="-1.35638">
        <ele>67</ele>
        <time>2021-01-02T13:38:13.000Z</time>
      </trkpt>
      <trkpt lat="47.26501" lon="-1.35641">
        <ele>67</ele>
        <time>2021-01-02T13:38:15.000Z</time>
      </trkpt>
      <trkpt lat="47.26488" lon="-1.35644">
        <ele>68</ele>
        <time>2021-01-02T13:38:17.000Z</time>
      </trkpt>
      <trkpt lat="47.26475" lon="-1.35646">
        <ele>68</ele>
        <time>2021-01-02T13:38:19.000Z</time>
      </trkpt>
      <trkpt lat="47.26462" lon="-1.35648">
        <ele>68</ele>
        <time>2021-01-02T13:38:21.000Z</time>
      </trkpt>
      <trkpt lat="47.26448" lon="-1.35651">
        <ele>68</ele>
        <time>2021-01-02T13:38:23.000Z</time>
      </trkpt>
      <trkpt lat="47.26436" lon="-1.35654">
        <ele>68</ele>
        <time>2021-01-02T13:38:25.000Z</time>
      </trkpt>
      <trkpt lat="47.26422" lon="-1.35656">
        <ele>68</ele>
        <time>2021-01-02T13:38:27.000Z</time>
      </trkpt>
      <trkpt lat="47.26409" lon="-1.35659">
        <ele>68</ele>
        <time>2021-01-02T13:38:29.000Z</time>
      </trkpt>
      <trkpt lat="47.26395" lon="-1.35661">
        <ele>68</ele>
        <time>2021-01-02T13:38:31.000Z</time>
      </trkpt>
      <trkpt lat="47.26375" lon="-1.35664">
        <ele>68</ele>
        <time>2021-01-02T13:38:34.000Z</time>
      </trkpt>
      <trkpt lat="47.26362" lon="-1.35667">
        <ele>68</ele>
        <time>2021-01-02T13:38:36.000Z</time>
      </trkpt>
      <trkpt lat="47.26349" lon="-1.35669">
        <ele>68</ele>
        <time>2021-01-02T13:38:38.000Z</time>
      </trkpt>
      <trkpt lat="47.26336" lon="-1.35672">
        <ele>68</ele>
        <time>2021-01-02T13:38:40.000Z</time>
      </trkpt>
      <trkpt lat="47.26322" lon="-1.35674">
        <ele>68</ele>
        <time>2021-01-02T13:38:42.000Z</time>
      </trkpt>
      <trkpt lat="47.26309" lon="-1.35678">
        <ele>68</ele>
        <time>2021-01-02T13:38:44.000Z</time>
      </trkpt>
      <trkpt lat="47.26295" lon="-1.35683">
        <ele>68</ele>
        <time>2021-01-02T13:38:46.000Z</time>
      </trkpt>
      <trkpt lat="47.26282" lon="-1.35689">
        <ele>68</ele>
        <time>2021-01-02T13:38:48.000Z</time>
      </trkpt>
      <trkpt lat="47.2627" lon="-1.35696">
        <ele>68</ele>
        <time>2021-01-02T13:38:50.000Z</time>
      </trkpt>
      <trkpt lat="47.26258" lon="-1.35706">
        <ele>67</ele>
        <time>2021-01-02T13:38:52.000Z</time>
      </trkpt>
      <trkpt lat="47.26246" lon="-1.35717">
        <ele>68</ele>
        <time>2021-01-02T13:38:54.000Z</time>
      </trkpt>
      <trkpt lat="47.26236" lon="-1.35729">
        <ele>68</ele>
        <time>2021-01-02T13:38:56.000Z</time>
      </trkpt>
      <trkpt lat="47.26225" lon="-1.35741">
        <ele>68</ele>
        <time>2021-01-02T13:38:58.000Z</time>
      </trkpt>
      <trkpt lat="47.26214" lon="-1.35754">
        <ele>67</ele>
        <time>2021-01-02T13:39:00.000Z</time>
      </trkpt>
      <trkpt lat="47.26203" lon="-1.35766">
        <ele>67</ele>
        <time>2021-01-02T13:39:02.000Z</time>
      </trkpt>
      <trkpt lat="47.26192" lon="-1.35779">
        <ele>67</ele>
        <time>2021-01-02T13:39:04.000Z</time>
      </trkpt>
      <trkpt lat="47.26181" lon="-1.35792">
        <ele>67</ele>
        <time>2021-01-02T13:39:06.000Z</time>
      </trkpt>
      <trkpt lat="47.2617" lon="-1.35804">
        <ele>66</ele>
        <time>2021-01-02T13:39:08.000Z</time>
      </trkpt>
      <trkpt lat="47.26159" lon="-1.35817">
        <ele>66</ele>
        <time>2021-01-02T13:39:10.000Z</time>
      </trkpt>
      <trkpt lat="47.26148" lon="-1.3583">
        <ele>66</ele>
        <time>2021-01-02T13:39:12.000Z</time>
      </trkpt>
      <trkpt lat="47.26137" lon="-1.35842">
        <ele>66</ele>
        <time>2021-01-02T13:39:14.000Z</time>
      </trkpt>
      <trkpt lat="47.26127" lon="-1.35855">
        <ele>65</ele>
        <time>2021-01-02T13:39:16.000Z</time>
      </trkpt>
      <trkpt lat="47.26115" lon="-1.35868">
        <ele>65</ele>
        <time>2021-01-02T13:39:18.000Z</time>
      </trkpt>
      <trkpt lat="47.26104" lon="-1.35881">
        <ele>64</ele>
        <time>2021-01-02T13:39:20.000Z</time>
      </trkpt>
      <trkpt lat="47.26093" lon="-1.35895">
        <ele>63</ele>
        <time>2021-01-02T13:39:22.000Z</time>
      </trkpt>
      <trkpt lat="47.2608" lon="-1.35908">
        <ele>62</ele>
        <time>2021-01-02T13:39:24.000Z</time>
      </trkpt>
      <trkpt lat="47.26068" lon="-1.35924">
        <ele>61</ele>
        <time>2021-01-02T13:39:26.000Z</time>
      </trkpt>
      <trkpt lat="47.26057" lon="-1.35941">
        <ele>61</ele>
        <time>2021-01-02T13:39:28.000Z</time>
      </trkpt>
      <trkpt lat="47.26048" lon="-1.35958">
        <ele>61</ele>
        <time>2021-01-02T13:39:30.000Z</time>
      </trkpt>
      <trkpt lat="47.26041" lon="-1.35975">
        <ele>61</ele>
        <time>2021-01-02T13:39:32.000Z</time>
      </trkpt>
      <trkpt lat="47.26036" lon="-1.35991">
        <ele>61</ele>
        <time>2021-01-02T13:39:34.000Z</time>
      </trkpt>
      <trkpt lat="47.26027" lon="-1.36003">
        <ele>62</ele>
        <time>2021-01-02T13:39:36.000Z</time>
      </trkpt>
      <trkpt lat="47.26015" lon="-1.35998">
        <ele>62</ele>
        <time>2021-01-02T13:39:38.000Z</time>
      </trkpt>
      <trkpt lat="47.26005" lon="-1.35986">
        <ele>63</ele>
        <time>2021-01-02T13:39:40.000Z</time>
      </trkpt>
      <trkpt lat="47.25995" lon="-1.35974">
        <ele>63</ele>
        <time>2021-01-02T13:39:42.000Z</time>
      </trkpt>
      <trkpt lat="47.25985" lon="-1.35963">
        <ele>63</ele>
        <time>2021-01-02T13:39:44.000Z</time>
      </trkpt>
      <trkpt lat="47.25974" lon="-1.35951">
        <ele>63</ele>
        <time>2021-01-02T13:39:46.000Z</time>
      </trkpt>
      <trkpt lat="47.25964" lon="-1.3594">
        <ele>63</ele>
        <time>2021-01-02T13:39:48.000Z</time>
      </trkpt>
      <trkpt lat="47.25953" lon="-1.35928">
        <ele>64</ele>
        <time>2021-01-02T13:39:50.000Z</time>
      </trkpt>
      <trkpt lat="47.25943" lon="-1.35918">
        <ele>64</ele>
        <time>2021-01-02T13:39:52.000Z</time>
      </trkpt>
      <trkpt lat="47.25933" lon="-1.35907">
        <ele>64</ele>
        <time>2021-01-02T13:39:54.000Z</time>
      </trkpt>
      <trkpt lat="47.25923" lon="-1.35896">
        <ele>64</ele>
        <time>2021-01-02T13:39:56.000Z</time>
      </trkpt>
      <trkpt lat="47.25913" lon="-1.35886">
        <ele>64</ele>
        <time>2021-01-02T13:39:58.000Z</time>
      </trkpt>
      <trkpt lat="47.25902" lon="-1.35876">
        <ele>64</ele>
        <time>2021-01-02T13:40:00.000Z</time>
      </trkpt>
      <trkpt lat="47.25892" lon="-1.35865">
        <ele>64</ele>
        <time>2021-01-02T13:40:02.000Z</time>
      </trkpt>
      <trkpt lat="47.25881" lon="-1.35855">
        <ele>64</ele>
        <time>2021-01-02T13:40:04.000Z</time>
      </trkpt>
      <trkpt lat="47.2587" lon="-1.35845">
        <ele>65</ele>
        <time>2021-01-02T13:40:06.000Z</time>
      </trkpt>
      <trkpt lat="47.25859" lon="-1.35835">
        <ele>65</ele>
        <time>2021-01-02T13:40:08.000Z</time>
      </trkpt>
      <trkpt lat="47.25847" lon="-1.35827">
        <ele>65</ele>
        <time>2021-01-02T13:40:10.000Z</time>
      </trkpt>
      <trkpt lat="47.25835" lon="-1.35818">
        <ele>65</ele>
        <time>2021-01-02T13:40:12.000Z</time>
      </trkpt>
      <trkpt lat="47.25823" lon="-1.35808">
        <ele>65</ele>
        <time>2021-01-02T13:40:14.000Z</time>
      </trkpt>
      <trkpt lat="47.25812" lon="-1.35798">
        <ele>66</ele>
        <time>2021-01-02T13:40:16.000Z</time>
      </trkpt>
      <trkpt lat="47.258" lon="-1.35788">
        <ele>66</ele>
        <time>2021-01-02T13:40:18.000Z</time>
      </trkpt>
      <trkpt lat="47.2579" lon="-1.35777">
        <ele>66</ele>
        <time>2021-01-02T13:40:20.000Z</time>
      </trkpt>
      <trkpt lat="47.2578" lon="-1.35764">
        <ele>66</ele>
        <time>2021-01-02T13:40:22.000Z</time>
      </trkpt>
      <trkpt lat="47.2577" lon="-1.35752">
        <ele>66</ele>
        <time>2021-01-02T13:40:24.000Z</time>
      </trkpt>
      <trkpt lat="47.25762" lon="-1.35739">
        <ele>67</ele>
        <time>2021-01-02T13:40:26.000Z</time>
      </trkpt>
      <trkpt lat="47.25753" lon="-1.35725">
        <ele>67</ele>
        <time>2021-01-02T13:40:28.000Z</time>
      </trkpt>
      <trkpt lat="47.25744" lon="-1.35713">
        <ele>67</ele>
        <time>2021-01-02T13:40:30.000Z</time>
      </trkpt>
      <trkpt lat="47.25735" lon="-1.35701">
        <ele>68</ele>
        <time>2021-01-02T13:40:32.000Z</time>
      </trkpt>
      <trkpt lat="47.25727" lon="-1.35689">
        <ele>69</ele>
        <time>2021-01-02T13:40:34.000Z</time>
      </trkpt>
      <trkpt lat="47.25719" lon="-1.35677">
        <ele>69</ele>
        <time>2021-01-02T13:40:36.000Z</time>
      </trkpt>
      <trkpt lat="47.25711" lon="-1.35667">
        <ele>69</ele>
        <time>2021-01-02T13:40:38.000Z</time>
      </trkpt>
      <trkpt lat="47.25703" lon="-1.35656">
        <ele>70</ele>
        <time>2021-01-02T13:40:40.000Z</time>
      </trkpt>
      <trkpt lat="47.25695" lon="-1.35645">
        <ele>70</ele>
        <time>2021-01-02T13:40:42.000Z</time>
      </trkpt>
      <trkpt lat="47.25688" lon="-1.35634">
        <ele>71</ele>
        <time>2021-01-02T13:40:44.000Z</time>
      </trkpt>
      <trkpt lat="47.2568" lon="-1.35623">
        <ele>72</ele>
        <time>2021-01-02T13:40:46.000Z</time>
      </trkpt>
      <trkpt lat="47.25673" lon="-1.35614">
        <ele>72</ele>
        <time>2021-01-02T13:40:48.000Z</time>
      </trkpt>
      <trkpt lat="47.25666" lon="-1.35603">
        <ele>73</ele>
        <time>2021-01-02T13:40:50.000Z</time>
      </trkpt>
      <trkpt lat="47.25659" lon="-1.35593">
        <ele>73</ele>
        <time>2021-01-02T13:40:52.000Z</time>
      </trkpt>
      <trkpt lat="47.25652" lon="-1.35583">
        <ele>74</ele>
        <time>2021-01-02T13:40:54.000Z</time>
      </trkpt>
      <trkpt lat="47.25644" lon="-1.35573">
        <ele>75</ele>
        <time>2021-01-02T13:40:56.000Z</time>
      </trkpt>
      <trkpt lat="47.25637" lon="-1.35563">
        <ele>76</ele>
        <time>2021-01-02T13:40:58.000Z</time>
      </trkpt>
      <trkpt lat="47.2563" lon="-1.35552">
        <ele>76</ele>
        <time>2021-01-02T13:41:00.000Z</time>
      </trkpt>
      <trkpt lat="47.25623" lon="-1.35541">
        <ele>77</ele>
        <time>2021-01-02T13:41:02.000Z</time>
      </trkpt>
      <trkpt lat="47.25615" lon="-1.35531">
        <ele>77</ele>
        <time>2021-01-02T13:41:04.000Z</time>
      </trkpt>
      <trkpt lat="47.25607" lon="-1.35522">
        <ele>78</ele>
        <time>2021-01-02T13:41:06.000Z</time>
      </trkpt>
      <trkpt lat="47.25599" lon="-1.35513">
        <ele>79</ele>
        <time>2021-01-02T13:41:08.000Z</time>
      </trkpt>
      <trkpt lat="47.2559" lon="-1.35506">
        <ele>79</ele>
        <time>2021-01-02T13:41:10.000Z</time>
      </trkpt>
      <trkpt lat="47.2558" lon="-1.35499">
        <ele>79</ele>
        <time>2021-01-02T13:41:12.000Z</time>
      </trkpt>
      <trkpt lat="47.2557" lon="-1.35494">
        <ele>80</ele>
        <time>2021-01-02T13:41:14.000Z</time>
      </trkpt>
      <trkpt lat="47.2556" lon="-1.35491">
        <ele>80</ele>
        <time>2021-01-02T13:41:16.000Z</time>
      </trkpt>
      <trkpt lat="47.25549" lon="-1.3549">
        <ele>80</ele>
        <time>2021-01-02T13:41:18.000Z</time>
      </trkpt>
      <trkpt lat="47.25539" lon="-1.3549">
        <ele>81</ele>
        <time>2021-01-02T13:41:20.000Z</time>
      </trkpt>
      <trkpt lat="47.25528" lon="-1.35493">
        <ele>81</ele>
        <time>2021-01-02T13:41:22.000Z</time>
      </trkpt>
      <trkpt lat="47.25518" lon="-1.35498">
        <ele>81</ele>
        <time>2021-01-02T13:41:24.000Z</time>
      </trkpt>
      <trkpt lat="47.25507" lon="-1.35505">
        <ele>81</ele>
        <time>2021-01-02T13:41:26.000Z</time>
      </trkpt>
      <trkpt lat="47.25497" lon="-1.35512">
        <ele>81</ele>
        <time>2021-01-02T13:41:28.000Z</time>
      </trkpt>
      <trkpt lat="47.25487" lon="-1.35518">
        <ele>81</ele>
        <time>2021-01-02T13:41:30.000Z</time>
      </trkpt>
      <trkpt lat="47.25476" lon="-1.35524">
        <ele>81</ele>
        <time>2021-01-02T13:41:32.000Z</time>
      </trkpt>
      <trkpt lat="47.25464" lon="-1.35528">
        <ele>81</ele>
        <time>2021-01-02T13:41:34.000Z</time>
      </trkpt>
      <trkpt lat="47.25453" lon="-1.35531">
        <ele>82</ele>
        <time>2021-01-02T13:41:36.000Z</time>
      </trkpt>
      <trkpt lat="47.25442" lon="-1.35531">
        <ele>82</ele>
        <time>2021-01-02T13:41:38.000Z</time>
      </trkpt>
      <trkpt lat="47.25431" lon="-1.35531">
        <ele>83</ele>
        <time>2021-01-02T13:41:40.000Z</time>
      </trkpt>
      <trkpt lat="47.2542" lon="-1.35529">
        <ele>83</ele>
        <time>2021-01-02T13:41:42.000Z</time>
      </trkpt>
      <trkpt lat="47.2541" lon="-1.35524">
        <ele>84</ele>
        <time>2021-01-02T13:41:44.000Z</time>
      </trkpt>
      <trkpt lat="47.25401" lon="-1.35519">
        <ele>83</ele>
        <time>2021-01-02T13:41:46.000Z</time>
      </trkpt>
      <trkpt lat="47.25392" lon="-1.35511">
        <ele>84</ele>
        <time>2021-01-02T13:41:48.000Z</time>
      </trkpt>
      <trkpt lat="47.25383" lon="-1.35502">
        <ele>84</ele>
        <time>2021-01-02T13:41:50.000Z</time>
      </trkpt>
      <trkpt lat="47.25374" lon="-1.35492">
        <ele>84</ele>
        <time>2021-01-02T13:41:52.000Z</time>
      </trkpt>
      <trkpt lat="47.25366" lon="-1.3548">
        <ele>84</ele>
        <time>2021-01-02T13:41:54.000Z</time>
      </trkpt>
      <trkpt lat="47.25358" lon="-1.35467">
        <ele>84</ele>
        <time>2021-01-02T13:41:56.000Z</time>
      </trkpt>
      <trkpt lat="47.25351" lon="-1.35454">
        <ele>84</ele>
        <time>2021-01-02T13:41:58.000Z</time>
      </trkpt>
      <trkpt lat="47.25344" lon="-1.35439">
        <ele>84</ele>
        <time>2021-01-02T13:42:00.000Z</time>
      </trkpt>
      <trkpt lat="47.25337" lon="-1.35424">
        <ele>84</ele>
        <time>2021-01-02T13:42:02.000Z</time>
      </trkpt>
      <trkpt lat="47.25331" lon="-1.3541">
        <ele>84</ele>
        <time>2021-01-02T13:42:04.000Z</time>
      </trkpt>
      <trkpt lat="47.25324" lon="-1.35397">
        <ele>83</ele>
        <time>2021-01-02T13:42:06.000Z</time>
      </trkpt>
      <trkpt lat="47.25317" lon="-1.35383">
        <ele>84</ele>
        <time>2021-01-02T13:42:08.000Z</time>
      </trkpt>
      <trkpt lat="47.25311" lon="-1.35369">
        <ele>84</ele>
        <time>2021-01-02T13:42:10.000Z</time>
      </trkpt>
      <trkpt lat="47.25305" lon="-1.35357">
        <ele>84</ele>
        <time>2021-01-02T13:42:12.000Z</time>
      </trkpt>
      <trkpt lat="47.25298" lon="-1.35344">
        <ele>84</ele>
        <time>2021-01-02T13:42:14.000Z</time>
      </trkpt>
      <trkpt lat="47.25292" lon="-1.35332">
        <ele>85</ele>
        <time>2021-01-02T13:42:16.000Z</time>
      </trkpt>
      <trkpt lat="47.25285" lon="-1.3532">
        <ele>85</ele>
        <time>2021-01-02T13:42:18.000Z</time>
      </trkpt>
      <trkpt lat="47.25278" lon="-1.35308">
        <ele>86</ele>
        <time>2021-01-02T13:42:20.000Z</time>
      </trkpt>
      <trkpt lat="47.25271" lon="-1.35297">
        <ele>87</ele>
        <time>2021-01-02T13:42:22.000Z</time>
      </trkpt>
      <trkpt lat="47.25264" lon="-1.35287">
        <ele>88</ele>
        <time>2021-01-02T13:42:24.000Z</time>
      </trkpt>
      <trkpt lat="47.25257" lon="-1.35278">
        <ele>88</ele>
        <time>2021-01-02T13:42:26.000Z</time>
      </trkpt>
      <trkpt lat="47.2525" lon="-1.3527">
        <ele>89</ele>
        <time>2021-01-02T13:42:28.000Z</time>
      </trkpt>
      <trkpt lat="47.25239" lon="-1.35258">
        <ele>89</ele>
        <time>2021-01-02T13:42:31.000Z</time>
      </trkpt>
      <trkpt lat="47.25229" lon="-1.35247">
        <ele>90</ele>
        <time>2021-01-02T13:42:34.000Z</time>
      </trkpt>
      <trkpt lat="47.25218" lon="-1.35236">
        <ele>91</ele>
        <time>2021-01-02T13:42:37.000Z</time>
      </trkpt>
      <trkpt lat="47.2521" lon="-1.35228">
        <ele>92</ele>
        <time>2021-01-02T13:42:39.000Z</time>
      </trkpt>
      <trkpt lat="47.25199" lon="-1.35216">
        <ele>93</ele>
        <time>2021-01-02T13:42:42.000Z</time>
      </trkpt>
      <trkpt lat="47.25188" lon="-1.35205">
        <ele>93</ele>
        <time>2021-01-02T13:42:45.000Z</time>
      </trkpt>
      <trkpt lat="47.25178" lon="-1.35193">
        <ele>94</ele>
        <time>2021-01-02T13:42:48.000Z</time>
      </trkpt>
      <trkpt lat="47.25167" lon="-1.35182">
        <ele>95</ele>
        <time>2021-01-02T13:42:51.000Z</time>
      </trkpt>
      <trkpt lat="47.25157" lon="-1.35171">
        <ele>95</ele>
        <time>2021-01-02T13:42:54.000Z</time>
      </trkpt>
      <trkpt lat="47.25146" lon="-1.3516">
        <ele>96</ele>
        <time>2021-01-02T13:42:57.000Z</time>
      </trkpt>
      <trkpt lat="47.25136" lon="-1.35148">
        <ele>96</ele>
        <time>2021-01-02T13:43:00.000Z</time>
      </trkpt>
      <trkpt lat="47.25125" lon="-1.35137">
        <ele>97</ele>
        <time>2021-01-02T13:43:03.000Z</time>
      </trkpt>
      <trkpt lat="47.25113" lon="-1.35128">
        <ele>98</ele>
        <time>2021-01-02T13:43:06.000Z</time>
      </trkpt>
      <trkpt lat="47.25101" lon="-1.35121">
        <ele>99</ele>
        <time>2021-01-02T13:43:09.000Z</time>
      </trkpt>
      <trkpt lat="47.25093" lon="-1.35118">
        <ele>100</ele>
        <time>2021-01-02T13:43:11.000Z</time>
      </trkpt>
      <trkpt lat="47.25079" lon="-1.35115">
        <ele>101</ele>
        <time>2021-01-02T13:43:14.000Z</time>
      </trkpt>
      <trkpt lat="47.2507" lon="-1.35115">
        <ele>101</ele>
        <time>2021-01-02T13:43:16.000Z</time>
      </trkpt>
      <trkpt lat="47.25057" lon="-1.35114">
        <ele>102</ele>
        <time>2021-01-02T13:43:19.000Z</time>
      </trkpt>
      <trkpt lat="47.25048" lon="-1.35115">
        <ele>102</ele>
        <time>2021-01-02T13:43:21.000Z</time>
      </trkpt>
      <trkpt lat="47.25038" lon="-1.35115">
        <ele>102</ele>
        <time>2021-01-02T13:43:23.000Z</time>
      </trkpt>
      <trkpt lat="47.25029" lon="-1.35116">
        <ele>102</ele>
        <time>2021-01-02T13:43:25.000Z</time>
      </trkpt>
      <trkpt lat="47.25019" lon="-1.35116">
        <ele>103</ele>
        <time>2021-01-02T13:43:27.000Z</time>
      </trkpt>
      <trkpt lat="47.2501" lon="-1.35116">
        <ele>103</ele>
        <time>2021-01-02T13:43:29.000Z</time>
      </trkpt>
      <trkpt lat="47.25" lon="-1.35117">
        <ele>104</ele>
        <time>2021-01-02T13:43:31.000Z</time>
      </trkpt>
      <trkpt lat="47.24991" lon="-1.35117">
        <ele>104</ele>
        <time>2021-01-02T13:43:33.000Z</time>
      </trkpt>
      <trkpt lat="47.24981" lon="-1.35118">
        <ele>104</ele>
        <time>2021-01-02T13:43:35.000Z</time>
      </trkpt>
      <trkpt lat="47.24972" lon="-1.35118">
        <ele>104</ele>
        <time>2021-01-02T13:43:37.000Z</time>
      </trkpt>
      <trkpt lat="47.24962" lon="-1.35118">
        <ele>104</ele>
        <time>2021-01-02T13:43:39.000Z</time>
      </trkpt>
      <trkpt lat="47.24952" lon="-1.35119">
        <ele>105</ele>
        <time>2021-01-02T13:43:41.000Z</time>
      </trkpt>
      <trkpt lat="47.24942" lon="-1.35119">
        <ele>105</ele>
        <time>2021-01-02T13:43:43.000Z</time>
      </trkpt>
      <trkpt lat="47.24932" lon="-1.35119">
        <ele>105</ele>
        <time>2021-01-02T13:43:45.000Z</time>
      </trkpt>
      <trkpt lat="47.24923" lon="-1.3512">
        <ele>105</ele>
        <time>2021-01-02T13:43:47.000Z</time>
      </trkpt>
      <trkpt lat="47.24913" lon="-1.35121">
        <ele>105</ele>
        <time>2021-01-02T13:43:49.000Z</time>
      </trkpt>
      <trkpt lat="47.24903" lon="-1.35122">
        <ele>105</ele>
        <time>2021-01-02T13:43:51.000Z</time>
      </trkpt>
      <trkpt lat="47.24892" lon="-1.35124">
        <ele>105</ele>
        <time>2021-01-02T13:43:53.000Z</time>
      </trkpt>
      <trkpt lat="47.24882" lon="-1.35125">
        <ele>106</ele>
        <time>2021-01-02T13:43:55.000Z</time>
      </trkpt>
      <trkpt lat="47.24872" lon="-1.35125">
        <ele>106</ele>
        <time>2021-01-02T13:43:57.000Z</time>
      </trkpt>
      <trkpt lat="47.24861" lon="-1.35123">
        <ele>106</ele>
        <time>2021-01-02T13:43:59.000Z</time>
      </trkpt>
      <trkpt lat="47.24851" lon="-1.3512">
        <ele>106</ele>
        <time>2021-01-02T13:44:01.000Z</time>
      </trkpt>
      <trkpt lat="47.24841" lon="-1.35115">
        <ele>106</ele>
        <time>2021-01-02T13:44:03.000Z</time>
      </trkpt>
      <trkpt lat="47.24831" lon="-1.35109">
        <ele>106</ele>
        <time>2021-01-02T13:44:05.000Z</time>
      </trkpt>
      <trkpt lat="47.24821" lon="-1.35104">
        <ele>106</ele>
        <time>2021-01-02T13:44:07.000Z</time>
      </trkpt>
      <trkpt lat="47.24812" lon="-1.35098">
        <ele>106</ele>
        <time>2021-01-02T13:44:09.000Z</time>
      </trkpt>
      <trkpt lat="47.24803" lon="-1.35093">
        <ele>106</ele>
        <time>2021-01-02T13:44:11.000Z</time>
      </trkpt>
      <trkpt lat="47.24793" lon="-1.35088">
        <ele>106</ele>
        <time>2021-01-02T13:44:13.000Z</time>
      </trkpt>
      <trkpt lat="47.24784" lon="-1.35085">
        <ele>105</ele>
        <time>2021-01-02T13:44:15.000Z</time>
      </trkpt>
      <trkpt lat="47.24772" lon="-1.35082">
        <ele>104</ele>
        <time>2021-01-02T13:44:17.000Z</time>
      </trkpt>
      <trkpt lat="47.2476" lon="-1.35081">
        <ele>104</ele>
        <time>2021-01-02T13:44:19.000Z</time>
      </trkpt>
      <trkpt lat="47.24746" lon="-1.35081">
        <ele>103</ele>
        <time>2021-01-02T13:44:21.000Z</time>
      </trkpt>
      <trkpt lat="47.24731" lon="-1.35084">
        <ele>102</ele>
        <time>2021-01-02T13:44:23.000Z</time>
      </trkpt>
      <trkpt lat="47.24716" lon="-1.35089">
        <ele>101</ele>
        <time>2021-01-02T13:44:25.000Z</time>
      </trkpt>
      <trkpt lat="47.24701" lon="-1.35094">
        <ele>100</ele>
        <time>2021-01-02T13:44:27.000Z</time>
      </trkpt>
      <trkpt lat="47.24685" lon="-1.35099">
        <ele>99</ele>
        <time>2021-01-02T13:44:29.000Z</time>
      </trkpt>
      <trkpt lat="47.2467" lon="-1.35103">
        <ele>98</ele>
        <time>2021-01-02T13:44:31.000Z</time>
      </trkpt>
      <trkpt lat="47.24658" lon="-1.35104">
        <ele>98</ele>
        <time>2021-01-02T13:44:33.000Z</time>
      </trkpt>
      <trkpt lat="47.24648" lon="-1.35106">
        <ele>98</ele>
        <time>2021-01-02T13:44:40.000Z</time>
      </trkpt>
      <trkpt lat="47.24638" lon="-1.35108">
        <ele>98</ele>
        <time>2021-01-02T13:44:42.000Z</time>
      </trkpt>
      <trkpt lat="47.24626" lon="-1.35105">
        <ele>98</ele>
        <time>2021-01-02T13:44:44.000Z</time>
      </trkpt>
      <trkpt lat="47.24613" lon="-1.35098">
        <ele>98</ele>
        <time>2021-01-02T13:44:46.000Z</time>
      </trkpt>
      <trkpt lat="47.246" lon="-1.35091">
        <ele>97</ele>
        <time>2021-01-02T13:44:48.000Z</time>
      </trkpt>
      <trkpt lat="47.24587" lon="-1.35086">
        <ele>98</ele>
        <time>2021-01-02T13:44:50.000Z</time>
      </trkpt>
      <trkpt lat="47.24574" lon="-1.35084">
        <ele>98</ele>
        <time>2021-01-02T13:44:52.000Z</time>
      </trkpt>
      <trkpt lat="47.24562" lon="-1.35081">
        <ele>98</ele>
        <time>2021-01-02T13:44:54.000Z</time>
      </trkpt>
      <trkpt lat="47.2455" lon="-1.3508">
        <ele>99</ele>
        <time>2021-01-02T13:44:56.000Z</time>
      </trkpt>
      <trkpt lat="47.24539" lon="-1.35077">
        <ele>100</ele>
        <time>2021-01-02T13:44:58.000Z</time>
      </trkpt>
      <trkpt lat="47.24526" lon="-1.35076">
        <ele>100</ele>
        <time>2021-01-02T13:45:00.000Z</time>
      </trkpt>
      <trkpt lat="47.24514" lon="-1.35074">
        <ele>102</ele>
        <time>2021-01-02T13:45:02.000Z</time>
      </trkpt>
      <trkpt lat="47.24503" lon="-1.35072">
        <ele>102</ele>
        <time>2021-01-02T13:45:04.000Z</time>
      </trkpt>
      <trkpt lat="47.24492" lon="-1.3507">
        <ele>103</ele>
        <time>2021-01-02T13:45:06.000Z</time>
      </trkpt>
      <trkpt lat="47.24481" lon="-1.35068">
        <ele>103</ele>
        <time>2021-01-02T13:45:08.000Z</time>
      </trkpt>
      <trkpt lat="47.24469" lon="-1.35064">
        <ele>104</ele>
        <time>2021-01-02T13:45:10.000Z</time>
      </trkpt>
      <trkpt lat="47.24458" lon="-1.35061">
        <ele>103</ele>
        <time>2021-01-02T13:45:12.000Z</time>
      </trkpt>
      <trkpt lat="47.24447" lon="-1.3506">
        <ele>103</ele>
        <time>2021-01-02T13:45:14.000Z</time>
      </trkpt>
      <trkpt lat="47.24435" lon="-1.35059">
        <ele>103</ele>
        <time>2021-01-02T13:45:16.000Z</time>
      </trkpt>
      <trkpt lat="47.24423" lon="-1.35056">
        <ele>104</ele>
        <time>2021-01-02T13:45:18.000Z</time>
      </trkpt>
      <trkpt lat="47.24411" lon="-1.35052">
        <ele>104</ele>
        <time>2021-01-02T13:45:20.000Z</time>
      </trkpt>
      <trkpt lat="47.24397" lon="-1.35047">
        <ele>103</ele>
        <time>2021-01-02T13:45:22.000Z</time>
      </trkpt>
      <trkpt lat="47.24384" lon="-1.35044">
        <ele>103</ele>
        <time>2021-01-02T13:45:24.000Z</time>
      </trkpt>
      <trkpt lat="47.24371" lon="-1.3504">
        <ele>103</ele>
        <time>2021-01-02T13:45:26.000Z</time>
      </trkpt>
      <trkpt lat="47.24358" lon="-1.35036">
        <ele>103</ele>
        <time>2021-01-02T13:45:28.000Z</time>
      </trkpt>
      <trkpt lat="47.24344" lon="-1.35032">
        <ele>103</ele>
        <time>2021-01-02T13:45:30.000Z</time>
      </trkpt>
      <trkpt lat="47.24331" lon="-1.35027">
        <ele>103</ele>
        <time>2021-01-02T13:45:32.000Z</time>
      </trkpt>
      <trkpt lat="47.24318" lon="-1.35023">
        <ele>102</ele>
        <time>2021-01-02T13:45:34.000Z</time>
      </trkpt>
      <trkpt lat="47.24306" lon="-1.3502">
        <ele>102</ele>
        <time>2021-01-02T13:45:36.000Z</time>
      </trkpt>
      <trkpt lat="47.24293" lon="-1.35015">
        <ele>102</ele>
        <time>2021-01-02T13:45:38.000Z</time>
      </trkpt>
      <trkpt lat="47.2428" lon="-1.3501">
        <ele>102</ele>
        <time>2021-01-02T13:45:40.000Z</time>
      </trkpt>
      <trkpt lat="47.24267" lon="-1.35006">
        <ele>102</ele>
        <time>2021-01-02T13:45:42.000Z</time>
      </trkpt>
      <trkpt lat="47.24254" lon="-1.35001">
        <ele>102</ele>
        <time>2021-01-02T13:45:44.000Z</time>
      </trkpt>
      <trkpt lat="47.2424" lon="-1.34997">
        <ele>102</ele>
        <time>2021-01-02T13:45:46.000Z</time>
      </trkpt>
      <trkpt lat="47.24226" lon="-1.34995">
        <ele>101</ele>
        <time>2021-01-02T13:45:48.000Z</time>
      </trkpt>
      <trkpt lat="47.24212" lon="-1.34989">
        <ele>101</ele>
        <time>2021-01-02T13:45:50.000Z</time>
      </trkpt>
      <trkpt lat="47.24198" lon="-1.34985">
        <ele>100</ele>
        <time>2021-01-02T13:45:52.000Z</time>
      </trkpt>
      <trkpt lat="47.24183" lon="-1.34981">
        <ele>100</ele>
        <time>2021-01-02T13:45:54.000Z</time>
      </trkpt>
      <trkpt lat="47.24169" lon="-1.34976">
        <ele>100</ele>
        <time>2021-01-02T13:45:56.000Z</time>
      </trkpt>
      <trkpt lat="47.24154" lon="-1.34972">
        <ele>99</ele>
        <time>2021-01-02T13:45:58.000Z</time>
      </trkpt>
      <trkpt lat="47.2414" lon="-1.34967">
        <ele>99</ele>
        <time>2021-01-02T13:46:00.000Z</time>
      </trkpt>
      <trkpt lat="47.24125" lon="-1.34962">
        <ele>99</ele>
        <time>2021-01-02T13:46:02.000Z</time>
      </trkpt>
      <trkpt lat="47.24111" lon="-1.34957">
        <ele>99</ele>
        <time>2021-01-02T13:46:04.000Z</time>
      </trkpt>
      <trkpt lat="47.24097" lon="-1.34952">
        <ele>98</ele>
        <time>2021-01-02T13:46:06.000Z</time>
      </trkpt>
      <trkpt lat="47.24084" lon="-1.34949">
        <ele>98</ele>
        <time>2021-01-02T13:46:08.000Z</time>
      </trkpt>
      <trkpt lat="47.24069" lon="-1.34946">
        <ele>98</ele>
        <time>2021-01-02T13:46:10.000Z</time>
      </trkpt>
      <trkpt lat="47.24056" lon="-1.34941">
        <ele>98</ele>
        <time>2021-01-02T13:46:12.000Z</time>
      </trkpt>
      <trkpt lat="47.24043" lon="-1.34936">
        <ele>97</ele>
        <time>2021-01-02T13:46:14.000Z</time>
      </trkpt>
      <trkpt lat="47.24031" lon="-1.34931">
        <ele>97</ele>
        <time>2021-01-02T13:46:16.000Z</time>
      </trkpt>
      <trkpt lat="47.24017" lon="-1.34928">
        <ele>97</ele>
        <time>2021-01-02T13:46:18.000Z</time>
      </trkpt>
      <trkpt lat="47.24004" lon="-1.34926">
        <ele>97</ele>
        <time>2021-01-02T13:46:20.000Z</time>
      </trkpt>
      <trkpt lat="47.23991" lon="-1.34922">
        <ele>97</ele>
        <time>2021-01-02T13:46:22.000Z</time>
      </trkpt>
      <trkpt lat="47.23978" lon="-1.34916">
        <ele>97</ele>
        <time>2021-01-02T13:46:24.000Z</time>
      </trkpt>
      <trkpt lat="47.23965" lon="-1.34909">
        <ele>98</ele>
        <time>2021-01-02T13:46:26.000Z</time>
      </trkpt>
      <trkpt lat="47.23953" lon="-1.34901">
        <ele>98</ele>
        <time>2021-01-02T13:46:28.000Z</time>
      </trkpt>
      <trkpt lat="47.2394" lon="-1.34893">
        <ele>98</ele>
        <time>2021-01-02T13:46:30.000Z</time>
      </trkpt>
      <trkpt lat="47.23928" lon="-1.34886">
        <ele>99</ele>
        <time>2021-01-02T13:46:32.000Z</time>
      </trkpt>
      <trkpt lat="47.23915" lon="-1.34876">
        <ele>99</ele>
        <time>2021-01-02T13:46:34.000Z</time>
      </trkpt>
      <trkpt lat="47.23904" lon="-1.34867">
        <ele>99</ele>
        <time>2021-01-02T13:46:36.000Z</time>
      </trkpt>
      <trkpt lat="47.23893" lon="-1.34858">
        <ele>99</ele>
        <time>2021-01-02T13:46:38.000Z</time>
      </trkpt>
      <trkpt lat="47.23883" lon="-1.34852">
        <ele>100</ele>
        <time>2021-01-02T13:46:40.000Z</time>
      </trkpt>
      <trkpt lat="47.23875" lon="-1.34867">
        <ele>100</ele>
        <time>2021-01-02T13:46:43.000Z</time>
      </trkpt>
      <trkpt lat="47.23871" lon="-1.34883">
        <ele>100</ele>
        <time>2021-01-02T13:46:45.000Z</time>
      </trkpt>
      <trkpt lat="47.23868" lon="-1.34897">
        <ele>101</ele>
        <time>2021-01-02T13:46:47.000Z</time>
      </trkpt>
      <trkpt lat="47.23864" lon="-1.34912">
        <ele>101</ele>
        <time>2021-01-02T13:46:49.000Z</time>
      </trkpt>
      <trkpt lat="47.23859" lon="-1.34926">
        <ele>102</ele>
        <time>2021-01-02T13:46:51.000Z</time>
      </trkpt>
      <trkpt lat="47.23851" lon="-1.34936">
        <ele>103</ele>
        <time>2021-01-02T13:46:53.000Z</time>
      </trkpt>
      <trkpt lat="47.2384" lon="-1.34943">
        <ele>102</ele>
        <time>2021-01-02T13:46:55.000Z</time>
      </trkpt>
      <trkpt lat="47.23829" lon="-1.34947">
        <ele>102</ele>
        <time>2021-01-02T13:46:57.000Z</time>
      </trkpt>
      <trkpt lat="47.23818" lon="-1.3495">
        <ele>102</ele>
        <time>2021-01-02T13:46:59.000Z</time>
      </trkpt>
      <trkpt lat="47.23807" lon="-1.34954">
        <ele>102</ele>
        <time>2021-01-02T13:47:01.000Z</time>
      </trkpt>
      <trkpt lat="47.23797" lon="-1.34961">
        <ele>102</ele>
        <time>2021-01-02T13:47:03.000Z</time>
      </trkpt>
      <trkpt lat="47.23788" lon="-1.34967">
        <ele>101</ele>
        <time>2021-01-02T13:47:05.000Z</time>
      </trkpt>
      <trkpt lat="47.23776" lon="-1.34977">
        <ele>100</ele>
        <time>2021-01-02T13:47:07.000Z</time>
      </trkpt>
      <trkpt lat="47.23763" lon="-1.34988">
        <ele>100</ele>
        <time>2021-01-02T13:47:09.000Z</time>
      </trkpt>
      <trkpt lat="47.23749" lon="-1.34995">
        <ele>99</ele>
        <time>2021-01-02T13:47:11.000Z</time>
      </trkpt>
      <trkpt lat="47.23735" lon="-1.35004">
        <ele>98</ele>
        <time>2021-01-02T13:47:13.000Z</time>
      </trkpt>
      <trkpt lat="47.23723" lon="-1.35017">
        <ele>98</ele>
        <time>2021-01-02T13:47:15.000Z</time>
      </trkpt>
      <trkpt lat="47.23712" lon="-1.35027">
        <ele>98</ele>
        <time>2021-01-02T13:47:17.000Z</time>
      </trkpt>
      <trkpt lat="47.23699" lon="-1.35035">
        <ele>98</ele>
        <time>2021-01-02T13:47:19.000Z</time>
      </trkpt>
      <trkpt lat="47.23688" lon="-1.35044">
        <ele>98</ele>
        <time>2021-01-02T13:47:21.000Z</time>
      </trkpt>
      <trkpt lat="47.23677" lon="-1.35051">
        <ele>98</ele>
        <time>2021-01-02T13:47:23.000Z</time>
      </trkpt>
      <trkpt lat="47.23667" lon="-1.3506">
        <ele>98</ele>
        <time>2021-01-02T13:47:25.000Z</time>
      </trkpt>
      <trkpt lat="47.23657" lon="-1.35069">
        <ele>98</ele>
        <time>2021-01-02T13:47:27.000Z</time>
      </trkpt>
      <trkpt lat="47.23651" lon="-1.35082">
        <ele>98</ele>
        <time>2021-01-02T13:47:29.000Z</time>
      </trkpt>
      <trkpt lat="47.23651" lon="-1.35099">
        <ele>98</ele>
        <time>2021-01-02T13:47:31.000Z</time>
      </trkpt>
      <trkpt lat="47.23651" lon="-1.35114">
        <ele>99</ele>
        <time>2021-01-02T13:47:33.000Z</time>
      </trkpt>
      <trkpt lat="47.23649" lon="-1.35132">
        <ele>98</ele>
        <time>2021-01-02T13:47:35.000Z</time>
      </trkpt>
      <trkpt lat="47.23646" lon="-1.3515">
        <ele>97</ele>
        <time>2021-01-02T13:47:37.000Z</time>
      </trkpt>
      <trkpt lat="47.23644" lon="-1.35167">
        <ele>96</ele>
        <time>2021-01-02T13:47:39.000Z</time>
      </trkpt>
      <trkpt lat="47.23635" lon="-1.35179">
        <ele>96</ele>
        <time>2021-01-02T13:47:41.000Z</time>
      </trkpt>
      <trkpt lat="47.23623" lon="-1.35174">
        <ele>96</ele>
        <time>2021-01-02T13:47:43.000Z</time>
      </trkpt>
      <trkpt lat="47.23612" lon="-1.35164">
        <ele>95</ele>
        <time>2021-01-02T13:47:45.000Z</time>
      </trkpt>
      <trkpt lat="47.23601" lon="-1.35152">
        <ele>94</ele>
        <time>2021-01-02T13:47:47.000Z</time>
      </trkpt>
      <trkpt lat="47.23591" lon="-1.35142">
        <ele>94</ele>
        <time>2021-01-02T13:47:49.000Z</time>
      </trkpt>
      <trkpt lat="47.2358" lon="-1.3513">
        <ele>93</ele>
        <time>2021-01-02T13:47:51.000Z</time>
      </trkpt>
      <trkpt lat="47.2357" lon="-1.35118">
        <ele>93</ele>
        <time>2021-01-02T13:47:53.000Z</time>
      </trkpt>
      <trkpt lat="47.23559" lon="-1.35107">
        <ele>92</ele>
        <time>2021-01-02T13:47:55.000Z</time>
      </trkpt>
      <trkpt lat="47.23549" lon="-1.35094">
        <ele>92</ele>
        <time>2021-01-02T13:47:57.000Z</time>
      </trkpt>
      <trkpt lat="47.23539" lon="-1.35081">
        <ele>92</ele>
        <time>2021-01-02T13:47:59.000Z</time>
      </trkpt>
      <trkpt lat="47.2353" lon="-1.35065">
        <ele>91</ele>
        <time>2021-01-02T13:48:01.000Z</time>
      </trkpt>
      <trkpt lat="47.23524" lon="-1.35049">
        <ele>91</ele>
        <time>2021-01-02T13:48:03.000Z</time>
      </trkpt>
      <trkpt lat="47.23518" lon="-1.35031">
        <ele>91</ele>
        <time>2021-01-02T13:48:05.000Z</time>
      </trkpt>
      <trkpt lat="47.23511" lon="-1.35018">
        <ele>90</ele>
        <time>2021-01-02T13:48:07.000Z</time>
      </trkpt>
      <trkpt lat="47.23499" lon="-1.35013">
        <ele>89</ele>
        <time>2021-01-02T13:48:09.000Z</time>
      </trkpt>
      <trkpt lat="47.23486" lon="-1.3502">
        <ele>89</ele>
        <time>2021-01-02T13:48:11.000Z</time>
      </trkpt>
      <trkpt lat="47.23474" lon="-1.35031">
        <ele>88</ele>
        <time>2021-01-02T13:48:13.000Z</time>
      </trkpt>
      <trkpt lat="47.23461" lon="-1.35044">
        <ele>87</ele>
        <time>2021-01-02T13:48:15.000Z</time>
      </trkpt>
      <trkpt lat="47.23448" lon="-1.35058">
        <ele>87</ele>
        <time>2021-01-02T13:48:17.000Z</time>
      </trkpt>
      <trkpt lat="47.23434" lon="-1.35073">
        <ele>87</ele>
        <time>2021-01-02T13:48:19.000Z</time>
      </trkpt>
      <trkpt lat="47.23419" lon="-1.35087">
        <ele>85</ele>
        <time>2021-01-02T13:48:21.000Z</time>
      </trkpt>
      <trkpt lat="47.23405" lon="-1.35103">
        <ele>84</ele>
        <time>2021-01-02T13:48:23.000Z</time>
      </trkpt>
      <trkpt lat="47.23391" lon="-1.3512">
        <ele>83</ele>
        <time>2021-01-02T13:48:25.000Z</time>
      </trkpt>
      <trkpt lat="47.23385" lon="-1.3513">
        <ele>83</ele>
        <time>2021-01-02T13:48:26.000Z</time>
      </trkpt>
      <trkpt lat="47.23379" lon="-1.35141">
        <ele>82</ele>
        <time>2021-01-02T13:48:27.000Z</time>
      </trkpt>
      <trkpt lat="47.23373" lon="-1.35152">
        <ele>81</ele>
        <time>2021-01-02T13:48:28.000Z</time>
      </trkpt>
      <trkpt lat="47.23367" lon="-1.35163">
        <ele>80</ele>
        <time>2021-01-02T13:48:29.000Z</time>
      </trkpt>
      <trkpt lat="47.23361" lon="-1.35174">
        <ele>79</ele>
        <time>2021-01-02T13:48:30.000Z</time>
      </trkpt>
      <trkpt lat="47.23356" lon="-1.35186">
        <ele>79</ele>
        <time>2021-01-02T13:48:31.000Z</time>
      </trkpt>
      <trkpt lat="47.23351" lon="-1.35198">
        <ele>78</ele>
        <time>2021-01-02T13:48:32.000Z</time>
      </trkpt>
      <trkpt lat="47.23346" lon="-1.3521">
        <ele>78</ele>
        <time>2021-01-02T13:48:33.000Z</time>
      </trkpt>
      <trkpt lat="47.2334" lon="-1.35223">
        <ele>77</ele>
        <time>2021-01-02T13:48:34.000Z</time>
      </trkpt>
      <trkpt lat="47.23335" lon="-1.35235">
        <ele>76</ele>
        <time>2021-01-02T13:48:35.000Z</time>
      </trkpt>
      <trkpt lat="47.2333" lon="-1.35247">
        <ele>76</ele>
        <time>2021-01-02T13:48:36.000Z</time>
      </trkpt>
      <trkpt lat="47.23325" lon="-1.35259">
        <ele>75</ele>
        <time>2021-01-02T13:48:37.000Z</time>
      </trkpt>
      <trkpt lat="47.2332" lon="-1.3527">
        <ele>74</ele>
        <time>2021-01-02T13:48:38.000Z</time>
      </trkpt>
      <trkpt lat="47.23314" lon="-1.35281">
        <ele>73</ele>
        <time>2021-01-02T13:48:39.000Z</time>
      </trkpt>
      <trkpt lat="47.23308" lon="-1.35293">
        <ele>73</ele>
        <time>2021-01-02T13:48:40.000Z</time>
      </trkpt>
      <trkpt lat="47.23302" lon="-1.35303">
        <ele>72</ele>
        <time>2021-01-02T13:48:41.000Z</time>
      </trkpt>
      <trkpt lat="47.23295" lon="-1.35314">
        <ele>71</ele>
        <time>2021-01-02T13:48:42.000Z</time>
      </trkpt>
      <trkpt lat="47.23289" lon="-1.35324">
        <ele>71</ele>
        <time>2021-01-02T13:48:43.000Z</time>
      </trkpt>
      <trkpt lat="47.23282" lon="-1.35334">
        <ele>70</ele>
        <time>2021-01-02T13:48:44.000Z</time>
      </trkpt>
      <trkpt lat="47.23274" lon="-1.35344">
        <ele>69</ele>
        <time>2021-01-02T13:48:45.000Z</time>
      </trkpt>
      <trkpt lat="47.23267" lon="-1.35353">
        <ele>69</ele>
        <time>2021-01-02T13:48:46.000Z</time>
      </trkpt>
      <trkpt lat="47.23259" lon="-1.3536">
        <ele>68</ele>
        <time>2021-01-02T13:48:47.000Z</time>
      </trkpt>
      <trkpt lat="47.2325" lon="-1.35368">
        <ele>68</ele>
        <time>2021-01-02T13:48:48.000Z</time>
      </trkpt>
      <trkpt lat="47.23242" lon="-1.35376">
        <ele>68</ele>
        <time>2021-01-02T13:48:49.000Z</time>
      </trkpt>
      <trkpt lat="47.23234" lon="-1.35383">
        <ele>68</ele>
        <time>2021-01-02T13:48:50.000Z</time>
      </trkpt>
      <trkpt lat="47.23219" lon="-1.35397">
        <ele>68</ele>
        <time>2021-01-02T13:48:52.000Z</time>
      </trkpt>
      <trkpt lat="47.23206" lon="-1.35413">
        <ele>67</ele>
        <time>2021-01-02T13:48:54.000Z</time>
      </trkpt>
      <trkpt lat="47.232" lon="-1.35435">
        <ele>67</ele>
        <time>2021-01-02T13:48:56.000Z</time>
      </trkpt>
      <trkpt lat="47.23196" lon="-1.35459">
        <ele>66</ele>
        <time>2021-01-02T13:48:58.000Z</time>
      </trkpt>
      <trkpt lat="47.23192" lon="-1.35483">
        <ele>66</ele>
        <time>2021-01-02T13:49:00.000Z</time>
      </trkpt>
      <trkpt lat="47.23188" lon="-1.35495">
        <ele>67</ele>
        <time>2021-01-02T13:49:01.000Z</time>
      </trkpt>
      <trkpt lat="47.23181" lon="-1.35519">
        <ele>66</ele>
        <time>2021-01-02T13:49:03.000Z</time>
      </trkpt>
      <trkpt lat="47.23171" lon="-1.35538">
        <ele>66</ele>
        <time>2021-01-02T13:49:05.000Z</time>
      </trkpt>
      <trkpt lat="47.23159" lon="-1.35555">
        <ele>66</ele>
        <time>2021-01-02T13:49:07.000Z</time>
      </trkpt>
      <trkpt lat="47.23146" lon="-1.35569">
        <ele>66</ele>
        <time>2021-01-02T13:49:09.000Z</time>
      </trkpt>
      <trkpt lat="47.23133" lon="-1.35581">
        <ele>66</ele>
        <time>2021-01-02T13:49:11.000Z</time>
      </trkpt>
      <trkpt lat="47.23119" lon="-1.3559">
        <ele>67</ele>
        <time>2021-01-02T13:49:13.000Z</time>
      </trkpt>
      <trkpt lat="47.23104" lon="-1.35599">
        <ele>67</ele>
        <time>2021-01-02T13:49:15.000Z</time>
      </trkpt>
      <trkpt lat="47.2309" lon="-1.35608">
        <ele>66</ele>
        <time>2021-01-02T13:49:17.000Z</time>
      </trkpt>
      <trkpt lat="47.23076" lon="-1.35617">
        <ele>66</ele>
        <time>2021-01-02T13:49:19.000Z</time>
      </trkpt>
      <trkpt lat="47.23062" lon="-1.35626">
        <ele>66</ele>
        <time>2021-01-02T13:49:21.000Z</time>
      </trkpt>
      <trkpt lat="47.23048" lon="-1.35636">
        <ele>66</ele>
        <time>2021-01-02T13:49:23.000Z</time>
      </trkpt>
      <trkpt lat="47.23034" lon="-1.35645">
        <ele>66</ele>
        <time>2021-01-02T13:49:25.000Z</time>
      </trkpt>
      <trkpt lat="47.23021" lon="-1.35654">
        <ele>66</ele>
        <time>2021-01-02T13:49:27.000Z</time>
      </trkpt>
      <trkpt lat="47.23008" lon="-1.35664">
        <ele>65</ele>
        <time>2021-01-02T13:49:29.000Z</time>
      </trkpt>
      <trkpt lat="47.22996" lon="-1.35676">
        <ele>66</ele>
        <time>2021-01-02T13:49:31.000Z</time>
      </trkpt>
      <trkpt lat="47.22985" lon="-1.3569">
        <ele>66</ele>
        <time>2021-01-02T13:49:33.000Z</time>
      </trkpt>
      <trkpt lat="47.22974" lon="-1.35704">
        <ele>66</ele>
        <time>2021-01-02T13:49:35.000Z</time>
      </trkpt>
      <trkpt lat="47.22963" lon="-1.35721">
        <ele>66</ele>
        <time>2021-01-02T13:49:37.000Z</time>
      </trkpt>
      <trkpt lat="47.22955" lon="-1.35739">
        <ele>65</ele>
        <time>2021-01-02T13:49:39.000Z</time>
      </trkpt>
      <trkpt lat="47.22946" lon="-1.35757">
        <ele>65</ele>
        <time>2021-01-02T13:49:41.000Z</time>
      </trkpt>
      <trkpt lat="47.22939" lon="-1.35777">
        <ele>64</ele>
        <time>2021-01-02T13:49:43.000Z</time>
      </trkpt>
      <trkpt lat="47.22932" lon="-1.35796">
        <ele>63</ele>
        <time>2021-01-02T13:49:45.000Z</time>
      </trkpt>
      <trkpt lat="47.22925" lon="-1.35816">
        <ele>62</ele>
        <time>2021-01-02T13:49:47.000Z</time>
      </trkpt>
      <trkpt lat="47.22917" lon="-1.35836">
        <ele>62</ele>
        <time>2021-01-02T13:49:49.000Z</time>
      </trkpt>
      <trkpt lat="47.2291" lon="-1.35856">
        <ele>61</ele>
        <time>2021-01-02T13:49:51.000Z</time>
      </trkpt>
      <trkpt lat="47.22902" lon="-1.35877">
        <ele>61</ele>
        <time>2021-01-02T13:49:53.000Z</time>
      </trkpt>
      <trkpt lat="47.22895" lon="-1.35897">
        <ele>61</ele>
        <time>2021-01-02T13:49:55.000Z</time>
      </trkpt>
      <trkpt lat="47.22887" lon="-1.35918">
        <ele>60</ele>
        <time>2021-01-02T13:49:57.000Z</time>
      </trkpt>
      <trkpt lat="47.22879" lon="-1.35939">
        <ele>61</ele>
        <time>2021-01-02T13:49:59.000Z</time>
      </trkpt>
      <trkpt lat="47.22872" lon="-1.3596">
        <ele>61</ele>
        <time>2021-01-02T13:50:01.000Z</time>
      </trkpt>
      <trkpt lat="47.22864" lon="-1.35981">
        <ele>60</ele>
        <time>2021-01-02T13:50:03.000Z</time>
      </trkpt>
      <trkpt lat="47.22856" lon="-1.36002">
        <ele>60</ele>
        <time>2021-01-02T13:50:05.000Z</time>
      </trkpt>
      <trkpt lat="47.22849" lon="-1.36021">
        <ele>59</ele>
        <time>2021-01-02T13:50:07.000Z</time>
      </trkpt>
      <trkpt lat="47.22842" lon="-1.36039">
        <ele>59</ele>
        <time>2021-01-02T13:50:09.000Z</time>
      </trkpt>
      <trkpt lat="47.22834" lon="-1.36057">
        <ele>59</ele>
        <time>2021-01-02T13:50:11.000Z</time>
      </trkpt>
      <trkpt lat="47.22825" lon="-1.36074">
        <ele>59</ele>
        <time>2021-01-02T13:50:13.000Z</time>
      </trkpt>
      <trkpt lat="47.22816" lon="-1.36089">
        <ele>59</ele>
        <time>2021-01-02T13:50:15.000Z</time>
      </trkpt>
      <trkpt lat="47.22807" lon="-1.36101">
        <ele>60</ele>
        <time>2021-01-02T13:50:17.000Z</time>
      </trkpt>
      <trkpt lat="47.22797" lon="-1.36112">
        <ele>60</ele>
        <time>2021-01-02T13:50:19.000Z</time>
      </trkpt>
      <trkpt lat="47.22786" lon="-1.36123">
        <ele>61</ele>
        <time>2021-01-02T13:50:21.000Z</time>
      </trkpt>
      <trkpt lat="47.22775" lon="-1.36133">
        <ele>62</ele>
        <time>2021-01-02T13:50:23.000Z</time>
      </trkpt>
      <trkpt lat="47.22763" lon="-1.36142">
        <ele>62</ele>
        <time>2021-01-02T13:50:25.000Z</time>
      </trkpt>
      <trkpt lat="47.22752" lon="-1.36151">
        <ele>63</ele>
        <time>2021-01-02T13:50:27.000Z</time>
      </trkpt>
      <trkpt lat="47.2274" lon="-1.3616">
        <ele>63</ele>
        <time>2021-01-02T13:50:29.000Z</time>
      </trkpt>
      <trkpt lat="47.22729" lon="-1.36169">
        <ele>63</ele>
        <time>2021-01-02T13:50:31.000Z</time>
      </trkpt>
      <trkpt lat="47.22717" lon="-1.36178">
        <ele>63</ele>
        <time>2021-01-02T13:50:33.000Z</time>
      </trkpt>
      <trkpt lat="47.22705" lon="-1.36187">
        <ele>63</ele>
        <time>2021-01-02T13:50:35.000Z</time>
      </trkpt>
      <trkpt lat="47.22694" lon="-1.36196">
        <ele>64</ele>
        <time>2021-01-02T13:50:37.000Z</time>
      </trkpt>
      <trkpt lat="47.22683" lon="-1.36205">
        <ele>64</ele>
        <time>2021-01-02T13:50:39.000Z</time>
      </trkpt>
      <trkpt lat="47.22672" lon="-1.36213">
        <ele>64</ele>
        <time>2021-01-02T13:50:41.000Z</time>
      </trkpt>
      <trkpt lat="47.22661" lon="-1.36222">
        <ele>64</ele>
        <time>2021-01-02T13:50:43.000Z</time>
      </trkpt>
      <trkpt lat="47.2265" lon="-1.3623">
        <ele>65</ele>
        <time>2021-01-02T13:50:45.000Z</time>
      </trkpt>
      <trkpt lat="47.2264" lon="-1.36239">
        <ele>65</ele>
        <time>2021-01-02T13:50:47.000Z</time>
      </trkpt>
      <trkpt lat="47.22629" lon="-1.36247">
        <ele>65</ele>
        <time>2021-01-02T13:50:49.000Z</time>
      </trkpt>
      <trkpt lat="47.22618" lon="-1.36256">
        <ele>66</ele>
        <time>2021-01-02T13:50:51.000Z</time>
      </trkpt>
      <trkpt lat="47.22607" lon="-1.36264">
        <ele>66</ele>
        <time>2021-01-02T13:50:53.000Z</time>
      </trkpt>
      <trkpt lat="47.22597" lon="-1.36272">
        <ele>66</ele>
        <time>2021-01-02T13:50:55.000Z</time>
      </trkpt>
      <trkpt lat="47.22586" lon="-1.36281">
        <ele>66</ele>
        <time>2021-01-02T13:50:57.000Z</time>
      </trkpt>
      <trkpt lat="47.22575" lon="-1.36289">
        <ele>66</ele>
        <time>2021-01-02T13:50:59.000Z</time>
      </trkpt>
      <trkpt lat="47.22564" lon="-1.36299">
        <ele>67</ele>
        <time>2021-01-02T13:51:01.000Z</time>
      </trkpt>
      <trkpt lat="47.22553" lon="-1.36307">
        <ele>67</ele>
        <time>2021-01-02T13:51:03.000Z</time>
      </trkpt>
      <trkpt lat="47.22542" lon="-1.36315">
        <ele>67</ele>
        <time>2021-01-02T13:51:05.000Z</time>
      </trkpt>
      <trkpt lat="47.22531" lon="-1.36324">
        <ele>68</ele>
        <time>2021-01-02T13:51:07.000Z</time>
      </trkpt>
      <trkpt lat="47.22521" lon="-1.36332">
        <ele>68</ele>
        <time>2021-01-02T13:51:09.000Z</time>
      </trkpt>
      <trkpt lat="47.2251" lon="-1.36341">
        <ele>68</ele>
        <time>2021-01-02T13:51:11.000Z</time>
      </trkpt>
      <trkpt lat="47.225" lon="-1.3635">
        <ele>68</ele>
        <time>2021-01-02T13:51:13.000Z</time>
      </trkpt>
      <trkpt lat="47.2249" lon="-1.3636">
        <ele>69</ele>
        <time>2021-01-02T13:51:15.000Z</time>
      </trkpt>
      <trkpt lat="47.2248" lon="-1.3637">
        <ele>68</ele>
        <time>2021-01-02T13:51:17.000Z</time>
      </trkpt>
      <trkpt lat="47.2247" lon="-1.36381">
        <ele>68</ele>
        <time>2021-01-02T13:51:19.000Z</time>
      </trkpt>
      <trkpt lat="47.2246" lon="-1.36391">
        <ele>69</ele>
        <time>2021-01-02T13:51:21.000Z</time>
      </trkpt>
      <trkpt lat="47.2245" lon="-1.36402">
        <ele>69</ele>
        <time>2021-01-02T13:51:23.000Z</time>
      </trkpt>
      <trkpt lat="47.2244" lon="-1.36412">
        <ele>70</ele>
        <time>2021-01-02T13:51:25.000Z</time>
      </trkpt>
      <trkpt lat="47.2243" lon="-1.36423">
        <ele>70</ele>
        <time>2021-01-02T13:51:27.000Z</time>
      </trkpt>
      <trkpt lat="47.22421" lon="-1.36432">
        <ele>69</ele>
        <time>2021-01-02T13:51:29.000Z</time>
      </trkpt>
      <trkpt lat="47.22411" lon="-1.36444">
        <ele>69</ele>
        <time>2021-01-02T13:51:31.000Z</time>
      </trkpt>
      <trkpt lat="47.22401" lon="-1.36453">
        <ele>69</ele>
        <time>2021-01-02T13:51:33.000Z</time>
      </trkpt>
      <trkpt lat="47.22392" lon="-1.36464">
        <ele>69</ele>
        <time>2021-01-02T13:51:35.000Z</time>
      </trkpt>
      <trkpt lat="47.22382" lon="-1.36474">
        <ele>69</ele>
        <time>2021-01-02T13:51:37.000Z</time>
      </trkpt>
      <trkpt lat="47.22372" lon="-1.36484">
        <ele>69</ele>
        <time>2021-01-02T13:51:39.000Z</time>
      </trkpt>
      <trkpt lat="47.22362" lon="-1.36495">
        <ele>69</ele>
        <time>2021-01-02T13:51:41.000Z</time>
      </trkpt>
      <trkpt lat="47.22352" lon="-1.36506">
        <ele>69</ele>
        <time>2021-01-02T13:51:43.000Z</time>
      </trkpt>
      <trkpt lat="47.22342" lon="-1.36516">
        <ele>69</ele>
        <time>2021-01-02T13:51:45.000Z</time>
      </trkpt>
      <trkpt lat="47.22332" lon="-1.36527">
        <ele>69</ele>
        <time>2021-01-02T13:51:47.000Z</time>
      </trkpt>
      <trkpt lat="47.22322" lon="-1.3654">
        <ele>69</ele>
        <time>2021-01-02T13:51:49.000Z</time>
      </trkpt>
      <trkpt lat="47.22312" lon="-1.36555">
        <ele>68</ele>
        <time>2021-01-02T13:51:51.000Z</time>
      </trkpt>
      <trkpt lat="47.22304" lon="-1.3657">
        <ele>69</ele>
        <time>2021-01-02T13:51:53.000Z</time>
      </trkpt>
      <trkpt lat="47.22295" lon="-1.36586">
        <ele>69</ele>
        <time>2021-01-02T13:51:55.000Z</time>
      </trkpt>
      <trkpt lat="47.22288" lon="-1.36602">
        <ele>69</ele>
        <time>2021-01-02T13:51:57.000Z</time>
      </trkpt>
      <trkpt lat="47.22282" lon="-1.36619">
        <ele>69</ele>
        <time>2021-01-02T13:51:59.000Z</time>
      </trkpt>
      <trkpt lat="47.22277" lon="-1.36636">
        <ele>69</ele>
        <time>2021-01-02T13:52:01.000Z</time>
      </trkpt>
      <trkpt lat="47.22271" lon="-1.36652">
        <ele>70</ele>
        <time>2021-01-02T13:52:03.000Z</time>
      </trkpt>
      <trkpt lat="47.22265" lon="-1.36669">
        <ele>69</ele>
        <time>2021-01-02T13:52:05.000Z</time>
      </trkpt>
      <trkpt lat="47.2226" lon="-1.36688">
        <ele>69</ele>
        <time>2021-01-02T13:52:07.000Z</time>
      </trkpt>
      <trkpt lat="47.22254" lon="-1.36706">
        <ele>69</ele>
        <time>2021-01-02T13:52:09.000Z</time>
      </trkpt>
      <trkpt lat="47.22248" lon="-1.36723">
        <ele>69</ele>
        <time>2021-01-02T13:52:11.000Z</time>
      </trkpt>
      <trkpt lat="47.22243" lon="-1.36741">
        <ele>69</ele>
        <time>2021-01-02T13:52:13.000Z</time>
      </trkpt>
      <trkpt lat="47.22237" lon="-1.36758">
        <ele>69</ele>
        <time>2021-01-02T13:52:15.000Z</time>
      </trkpt>
      <trkpt lat="47.22231" lon="-1.36776">
        <ele>69</ele>
        <time>2021-01-02T13:52:17.000Z</time>
      </trkpt>
      <trkpt lat="47.22226" lon="-1.36792">
        <ele>68</ele>
        <time>2021-01-02T13:52:19.000Z</time>
      </trkpt>
      <trkpt lat="47.2222" lon="-1.36809">
        <ele>68</ele>
        <time>2021-01-02T13:52:21.000Z</time>
      </trkpt>
      <trkpt lat="47.22214" lon="-1.36825">
        <ele>68</ele>
        <time>2021-01-02T13:52:23.000Z</time>
      </trkpt>
      <trkpt lat="47.22207" lon="-1.36841">
        <ele>68</ele>
        <time>2021-01-02T13:52:25.000Z</time>
      </trkpt>
      <trkpt lat="47.222" lon="-1.36856">
        <ele>68</ele>
        <time>2021-01-02T13:52:27.000Z</time>
      </trkpt>
      <trkpt lat="47.22192" lon="-1.36871">
        <ele>68</ele>
        <time>2021-01-02T13:52:29.000Z</time>
      </trkpt>
      <trkpt lat="47.22183" lon="-1.36886">
        <ele>67</ele>
        <time>2021-01-02T13:52:31.000Z</time>
      </trkpt>
      <trkpt lat="47.22174" lon="-1.36901">
        <ele>66</ele>
        <time>2021-01-02T13:52:33.000Z</time>
      </trkpt>
      <trkpt lat="47.22165" lon="-1.36918">
        <ele>66</ele>
        <time>2021-01-02T13:52:35.000Z</time>
      </trkpt>
      <trkpt lat="47.22155" lon="-1.36936">
        <ele>65</ele>
        <time>2021-01-02T13:52:37.000Z</time>
      </trkpt>
      <trkpt lat="47.22144" lon="-1.36954">
        <ele>65</ele>
        <time>2021-01-02T13:52:39.000Z</time>
      </trkpt>
      <trkpt lat="47.22134" lon="-1.36973">
        <ele>64</ele>
        <time>2021-01-02T13:52:41.000Z</time>
      </trkpt>
      <trkpt lat="47.22125" lon="-1.36993">
        <ele>64</ele>
        <time>2021-01-02T13:52:43.000Z</time>
      </trkpt>
      <trkpt lat="47.22116" lon="-1.37014">
        <ele>63</ele>
        <time>2021-01-02T13:52:45.000Z</time>
      </trkpt>
      <trkpt lat="47.22108" lon="-1.37035">
        <ele>62</ele>
        <time>2021-01-02T13:52:47.000Z</time>
      </trkpt>
      <trkpt lat="47.221" lon="-1.37055">
        <ele>62</ele>
        <time>2021-01-02T13:52:49.000Z</time>
      </trkpt>
      <trkpt lat="47.22092" lon="-1.37075">
        <ele>61</ele>
        <time>2021-01-02T13:52:51.000Z</time>
      </trkpt>
      <trkpt lat="47.22084" lon="-1.37096">
        <ele>61</ele>
        <time>2021-01-02T13:52:53.000Z</time>
      </trkpt>
      <trkpt lat="47.22075" lon="-1.37117">
        <ele>61</ele>
        <time>2021-01-02T13:52:55.000Z</time>
      </trkpt>
      <trkpt lat="47.22067" lon="-1.37137">
        <ele>61</ele>
        <time>2021-01-02T13:52:57.000Z</time>
      </trkpt>
      <trkpt lat="47.22059" lon="-1.37158">
        <ele>60</ele>
        <time>2021-01-02T13:52:59.000Z</time>
      </trkpt>
      <trkpt lat="47.22051" lon="-1.37178">
        <ele>60</ele>
        <time>2021-01-02T13:53:01.000Z</time>
      </trkpt>
      <trkpt lat="47.22043" lon="-1.37199">
        <ele>59</ele>
        <time>2021-01-02T13:53:03.000Z</time>
      </trkpt>
      <trkpt lat="47.22034" lon="-1.37219">
        <ele>59</ele>
        <time>2021-01-02T13:53:05.000Z</time>
      </trkpt>
      <trkpt lat="47.22026" lon="-1.3724">
        <ele>59</ele>
        <time>2021-01-02T13:53:07.000Z</time>
      </trkpt>
      <trkpt lat="47.22018" lon="-1.37261">
        <ele>58</ele>
        <time>2021-01-02T13:53:09.000Z</time>
      </trkpt>
      <trkpt lat="47.22009" lon="-1.37283">
        <ele>58</ele>
        <time>2021-01-02T13:53:11.000Z</time>
      </trkpt>
      <trkpt lat="47.22001" lon="-1.37304">
        <ele>57</ele>
        <time>2021-01-02T13:53:13.000Z</time>
      </trkpt>
      <trkpt lat="47.21993" lon="-1.37324">
        <ele>56</ele>
        <time>2021-01-02T13:53:15.000Z</time>
      </trkpt>
      <trkpt lat="47.21987" lon="-1.37347">
        <ele>56</ele>
        <time>2021-01-02T13:53:17.000Z</time>
      </trkpt>
      <trkpt lat="47.21981" lon="-1.3737">
        <ele>55</ele>
        <time>2021-01-02T13:53:19.000Z</time>
      </trkpt>
      <trkpt lat="47.21976" lon="-1.37392">
        <ele>55</ele>
        <time>2021-01-02T13:53:21.000Z</time>
      </trkpt>
      <trkpt lat="47.2197" lon="-1.37415">
        <ele>55</ele>
        <time>2021-01-02T13:53:23.000Z</time>
      </trkpt>
      <trkpt lat="47.21965" lon="-1.37437">
        <ele>55</ele>
        <time>2021-01-02T13:53:25.000Z</time>
      </trkpt>
      <trkpt lat="47.21957" lon="-1.37458">
        <ele>55</ele>
        <time>2021-01-02T13:53:27.000Z</time>
      </trkpt>
      <trkpt lat="47.2195" lon="-1.37478">
        <ele>54</ele>
        <time>2021-01-02T13:53:29.000Z</time>
      </trkpt>
      <trkpt lat="47.21943" lon="-1.37498">
        <ele>55</ele>
        <time>2021-01-02T13:53:31.000Z</time>
      </trkpt>
      <trkpt lat="47.21935" lon="-1.37517">
        <ele>54</ele>
        <time>2021-01-02T13:53:33.000Z</time>
      </trkpt>
      <trkpt lat="47.21926" lon="-1.37536">
        <ele>54</ele>
        <time>2021-01-02T13:53:35.000Z</time>
      </trkpt>
      <trkpt lat="47.21918" lon="-1.37554">
        <ele>54</ele>
        <time>2021-01-02T13:53:37.000Z</time>
      </trkpt>
      <trkpt lat="47.21909" lon="-1.37573">
        <ele>54</ele>
        <time>2021-01-02T13:53:39.000Z</time>
      </trkpt>
      <trkpt lat="47.21901" lon="-1.37591">
        <ele>54</ele>
        <time>2021-01-02T13:53:41.000Z</time>
      </trkpt>
      <trkpt lat="47.21893" lon="-1.3761">
        <ele>54</ele>
        <time>2021-01-02T13:53:43.000Z</time>
      </trkpt>
      <trkpt lat="47.21884" lon="-1.37628">
        <ele>54</ele>
        <time>2021-01-02T13:53:45.000Z</time>
      </trkpt>
      <trkpt lat="47.21876" lon="-1.37645">
        <ele>54</ele>
        <time>2021-01-02T13:53:47.000Z</time>
      </trkpt>
      <trkpt lat="47.21868" lon="-1.37662">
        <ele>54</ele>
        <time>2021-01-02T13:53:49.000Z</time>
      </trkpt>
      <trkpt lat="47.21861" lon="-1.3768">
        <ele>54</ele>
        <time>2021-01-02T13:53:51.000Z</time>
      </trkpt>
      <trkpt lat="47.21853" lon="-1.37697">
        <ele>54</ele>
        <time>2021-01-02T13:53:53.000Z</time>
      </trkpt>
      <trkpt lat="47.21845" lon="-1.37716">
        <ele>54</ele>
        <time>2021-01-02T13:53:55.000Z</time>
      </trkpt>
      <trkpt lat="47.21836" lon="-1.37733">
        <ele>54</ele>
        <time>2021-01-02T13:53:57.000Z</time>
      </trkpt>
      <trkpt lat="47.21826" lon="-1.37749">
        <ele>54</ele>
        <time>2021-01-02T13:53:59.000Z</time>
      </trkpt>
      <trkpt lat="47.21815" lon="-1.37762">
        <ele>54</ele>
        <time>2021-01-02T13:54:01.000Z</time>
      </trkpt>
      <trkpt lat="47.21802" lon="-1.37772">
        <ele>54</ele>
        <time>2021-01-02T13:54:03.000Z</time>
      </trkpt>
      <trkpt lat="47.21789" lon="-1.37781">
        <ele>55</ele>
        <time>2021-01-02T13:54:05.000Z</time>
      </trkpt>
      <trkpt lat="47.21775" lon="-1.37787">
        <ele>55</ele>
        <time>2021-01-02T13:54:07.000Z</time>
      </trkpt>
      <trkpt lat="47.21761" lon="-1.37794">
        <ele>55</ele>
        <time>2021-01-02T13:54:09.000Z</time>
      </trkpt>
      <trkpt lat="47.21747" lon="-1.378">
        <ele>55</ele>
        <time>2021-01-02T13:54:11.000Z</time>
      </trkpt>
      <trkpt lat="47.21733" lon="-1.37806">
        <ele>55</ele>
        <time>2021-01-02T13:54:13.000Z</time>
      </trkpt>
      <trkpt lat="47.21719" lon="-1.37813">
        <ele>55</ele>
        <time>2021-01-02T13:54:15.000Z</time>
      </trkpt>
      <trkpt lat="47.21705" lon="-1.37819">
        <ele>55</ele>
        <time>2021-01-02T13:54:17.000Z</time>
      </trkpt>
      <trkpt lat="47.21692" lon="-1.37826">
        <ele>55</ele>
        <time>2021-01-02T13:54:19.000Z</time>
      </trkpt>
      <trkpt lat="47.21677" lon="-1.37832">
        <ele>55</ele>
        <time>2021-01-02T13:54:21.000Z</time>
      </trkpt>
      <trkpt lat="47.21663" lon="-1.37839">
        <ele>55</ele>
        <time>2021-01-02T13:54:23.000Z</time>
      </trkpt>
      <trkpt lat="47.21648" lon="-1.37845">
        <ele>55</ele>
        <time>2021-01-02T13:54:25.000Z</time>
      </trkpt>
      <trkpt lat="47.21635" lon="-1.37853">
        <ele>55</ele>
        <time>2021-01-02T13:54:27.000Z</time>
      </trkpt>
      <trkpt lat="47.21621" lon="-1.37863">
        <ele>55</ele>
        <time>2021-01-02T13:54:29.000Z</time>
      </trkpt>
      <trkpt lat="47.21608" lon="-1.37874">
        <ele>54</ele>
        <time>2021-01-02T13:54:31.000Z</time>
      </trkpt>
      <trkpt lat="47.21596" lon="-1.37886">
        <ele>54</ele>
        <time>2021-01-02T13:54:33.000Z</time>
      </trkpt>
      <trkpt lat="47.21584" lon="-1.37898">
        <ele>55</ele>
        <time>2021-01-02T13:54:35.000Z</time>
      </trkpt>
      <trkpt lat="47.21573" lon="-1.37911">
        <ele>54</ele>
        <time>2021-01-02T13:54:37.000Z</time>
      </trkpt>
      <trkpt lat="47.21561" lon="-1.37923">
        <ele>54</ele>
        <time>2021-01-02T13:54:39.000Z</time>
      </trkpt>
      <trkpt lat="47.2155" lon="-1.37936">
        <ele>54</ele>
        <time>2021-01-02T13:54:41.000Z</time>
      </trkpt>
      <trkpt lat="47.21538" lon="-1.37949">
        <ele>55</ele>
        <time>2021-01-02T13:54:43.000Z</time>
      </trkpt>
      <trkpt lat="47.21526" lon="-1.37961">
        <ele>55</ele>
        <time>2021-01-02T13:54:45.000Z</time>
      </trkpt>
      <trkpt lat="47.21515" lon="-1.37974">
        <ele>55</ele>
        <time>2021-01-02T13:54:47.000Z</time>
      </trkpt>
      <trkpt lat="47.21503" lon="-1.37986">
        <ele>55</ele>
        <time>2021-01-02T13:54:49.000Z</time>
      </trkpt>
      <trkpt lat="47.21492" lon="-1.37999">
        <ele>55</ele>
        <time>2021-01-02T13:54:51.000Z</time>
      </trkpt>
      <trkpt lat="47.2148" lon="-1.38012">
        <ele>55</ele>
        <time>2021-01-02T13:54:53.000Z</time>
      </trkpt>
      <trkpt lat="47.21468" lon="-1.38024">
        <ele>55</ele>
        <time>2021-01-02T13:54:55.000Z</time>
      </trkpt>
      <trkpt lat="47.21457" lon="-1.38037">
        <ele>55</ele>
        <time>2021-01-02T13:54:57.000Z</time>
      </trkpt>
      <trkpt lat="47.21445" lon="-1.38049">
        <ele>55</ele>
        <time>2021-01-02T13:54:59.000Z</time>
      </trkpt>
      <trkpt lat="47.21434" lon="-1.3806">
        <ele>55</ele>
        <time>2021-01-02T13:55:01.000Z</time>
      </trkpt>
      <trkpt lat="47.21423" lon="-1.38072">
        <ele>55</ele>
        <time>2021-01-02T13:55:03.000Z</time>
      </trkpt>
      <trkpt lat="47.21412" lon="-1.38084">
        <ele>55</ele>
        <time>2021-01-02T13:55:05.000Z</time>
      </trkpt>
      <trkpt lat="47.21401" lon="-1.38095">
        <ele>55</ele>
        <time>2021-01-02T13:55:07.000Z</time>
      </trkpt>
      <trkpt lat="47.21389" lon="-1.38107">
        <ele>55</ele>
        <time>2021-01-02T13:55:09.000Z</time>
      </trkpt>
      <trkpt lat="47.21377" lon="-1.38117">
        <ele>55</ele>
        <time>2021-01-02T13:55:11.000Z</time>
      </trkpt>
      <trkpt lat="47.21364" lon="-1.38127">
        <ele>54</ele>
        <time>2021-01-02T13:55:13.000Z</time>
      </trkpt>
      <trkpt lat="47.21351" lon="-1.38136">
        <ele>54</ele>
        <time>2021-01-02T13:55:15.000Z</time>
      </trkpt>
      <trkpt lat="47.21338" lon="-1.38145">
        <ele>54</ele>
        <time>2021-01-02T13:55:17.000Z</time>
      </trkpt>
      <trkpt lat="47.21325" lon="-1.38153">
        <ele>54</ele>
        <time>2021-01-02T13:55:19.000Z</time>
      </trkpt>
      <trkpt lat="47.21312" lon="-1.38162">
        <ele>54</ele>
        <time>2021-01-02T13:55:21.000Z</time>
      </trkpt>
      <trkpt lat="47.213" lon="-1.3817">
        <ele>54</ele>
        <time>2021-01-02T13:55:23.000Z</time>
      </trkpt>
      <trkpt lat="47.21287" lon="-1.38179">
        <ele>54</ele>
        <time>2021-01-02T13:55:25.000Z</time>
      </trkpt>
      <trkpt lat="47.21275" lon="-1.38187">
        <ele>55</ele>
        <time>2021-01-02T13:55:27.000Z</time>
      </trkpt>
      <trkpt lat="47.21262" lon="-1.38196">
        <ele>55</ele>
        <time>2021-01-02T13:55:29.000Z</time>
      </trkpt>
      <trkpt lat="47.2125" lon="-1.38205">
        <ele>55</ele>
        <time>2021-01-02T13:55:31.000Z</time>
      </trkpt>
      <trkpt lat="47.21237" lon="-1.38214">
        <ele>55</ele>
        <time>2021-01-02T13:55:33.000Z</time>
      </trkpt>
      <trkpt lat="47.21224" lon="-1.38223">
        <ele>55</ele>
        <time>2021-01-02T13:55:35.000Z</time>
      </trkpt>
      <trkpt lat="47.21211" lon="-1.3823">
        <ele>55</ele>
        <time>2021-01-02T13:55:37.000Z</time>
      </trkpt>
      <trkpt lat="47.21198" lon="-1.38239">
        <ele>55</ele>
        <time>2021-01-02T13:55:39.000Z</time>
      </trkpt>
      <trkpt lat="47.21185" lon="-1.38247">
        <ele>55</ele>
        <time>2021-01-02T13:55:41.000Z</time>
      </trkpt>
      <trkpt lat="47.21172" lon="-1.38256">
        <ele>55</ele>
        <time>2021-01-02T13:55:43.000Z</time>
      </trkpt>
      <trkpt lat="47.21159" lon="-1.38263">
        <ele>56</ele>
        <time>2021-01-02T13:55:45.000Z</time>
      </trkpt>
      <trkpt lat="47.21145" lon="-1.38271">
        <ele>56</ele>
        <time>2021-01-02T13:55:47.000Z</time>
      </trkpt>
      <trkpt lat="47.21132" lon="-1.38277">
        <ele>56</ele>
        <time>2021-01-02T13:55:49.000Z</time>
      </trkpt>
      <trkpt lat="47.21119" lon="-1.38283">
        <ele>56</ele>
        <time>2021-01-02T13:55:51.000Z</time>
      </trkpt>
      <trkpt lat="47.21105" lon="-1.38289">
        <ele>55</ele>
        <time>2021-01-02T13:55:53.000Z</time>
      </trkpt>
      <trkpt lat="47.21091" lon="-1.38294">
        <ele>55</ele>
        <time>2021-01-02T13:55:55.000Z</time>
      </trkpt>
      <trkpt lat="47.21077" lon="-1.383">
        <ele>55</ele>
        <time>2021-01-02T13:55:57.000Z</time>
      </trkpt>
      <trkpt lat="47.21063" lon="-1.38305">
        <ele>55</ele>
        <time>2021-01-02T13:55:59.000Z</time>
      </trkpt>
      <trkpt lat="47.2105" lon="-1.3831">
        <ele>54</ele>
        <time>2021-01-02T13:56:01.000Z</time>
      </trkpt>
      <trkpt lat="47.21036" lon="-1.38316">
        <ele>54</ele>
        <time>2021-01-02T13:56:03.000Z</time>
      </trkpt>
      <trkpt lat="47.21022" lon="-1.3832">
        <ele>54</ele>
        <time>2021-01-02T13:56:05.000Z</time>
      </trkpt>
      <trkpt lat="47.21009" lon="-1.38325">
        <ele>54</ele>
        <time>2021-01-02T13:56:07.000Z</time>
      </trkpt>
      <trkpt lat="47.20995" lon="-1.3833">
        <ele>54</ele>
        <time>2021-01-02T13:56:09.000Z</time>
      </trkpt>
      <trkpt lat="47.20981" lon="-1.38335">
        <ele>54</ele>
        <time>2021-01-02T13:56:11.000Z</time>
      </trkpt>
      <trkpt lat="47.20968" lon="-1.38341">
        <ele>55</ele>
        <time>2021-01-02T13:56:13.000Z</time>
      </trkpt>
      <trkpt lat="47.20954" lon="-1.38346">
        <ele>55</ele>
        <time>2021-01-02T13:56:15.000Z</time>
      </trkpt>
      <trkpt lat="47.2094" lon="-1.38351">
        <ele>54</ele>
        <time>2021-01-02T13:56:17.000Z</time>
      </trkpt>
      <trkpt lat="47.20927" lon="-1.38356">
        <ele>54</ele>
        <time>2021-01-02T13:56:19.000Z</time>
      </trkpt>
      <trkpt lat="47.20913" lon="-1.38361">
        <ele>54</ele>
        <time>2021-01-02T13:56:21.000Z</time>
      </trkpt>
      <trkpt lat="47.209" lon="-1.38366">
        <ele>54</ele>
        <time>2021-01-02T13:56:23.000Z</time>
      </trkpt>
      <trkpt lat="47.20886" lon="-1.38371">
        <ele>54</ele>
        <time>2021-01-02T13:56:25.000Z</time>
      </trkpt>
      <trkpt lat="47.20873" lon="-1.38376">
        <ele>54</ele>
        <time>2021-01-02T13:56:27.000Z</time>
      </trkpt>
      <trkpt lat="47.20859" lon="-1.38381">
        <ele>54</ele>
        <time>2021-01-02T13:56:29.000Z</time>
      </trkpt>
      <trkpt lat="47.20845" lon="-1.38386">
        <ele>54</ele>
        <time>2021-01-02T13:56:31.000Z</time>
      </trkpt>
      <trkpt lat="47.20832" lon="-1.3839">
        <ele>54</ele>
        <time>2021-01-02T13:56:33.000Z</time>
      </trkpt>
      <trkpt lat="47.20819" lon="-1.38396">
        <ele>54</ele>
        <time>2021-01-02T13:56:35.000Z</time>
      </trkpt>
      <trkpt lat="47.20806" lon="-1.38401">
        <ele>54</ele>
        <time>2021-01-02T13:56:37.000Z</time>
      </trkpt>
      <trkpt lat="47.20792" lon="-1.38405">
        <ele>54</ele>
        <time>2021-01-02T13:56:39.000Z</time>
      </trkpt>
      <trkpt lat="47.20778" lon="-1.3841">
        <ele>54</ele>
        <time>2021-01-02T13:56:41.000Z</time>
      </trkpt>
      <trkpt lat="47.20765" lon="-1.38416">
        <ele>54</ele>
        <time>2021-01-02T13:56:43.000Z</time>
      </trkpt>
      <trkpt lat="47.20752" lon="-1.38421">
        <ele>54</ele>
        <time>2021-01-02T13:56:45.000Z</time>
      </trkpt>
      <trkpt lat="47.20738" lon="-1.38426">
        <ele>54</ele>
        <time>2021-01-02T13:56:47.000Z</time>
      </trkpt>
      <trkpt lat="47.20724" lon="-1.38432">
        <ele>54</ele>
        <time>2021-01-02T13:56:49.000Z</time>
      </trkpt>
      <trkpt lat="47.20711" lon="-1.38437">
        <ele>54</ele>
        <time>2021-01-02T13:56:51.000Z</time>
      </trkpt>
      <trkpt lat="47.20698" lon="-1.38443">
        <ele>53</ele>
        <time>2021-01-02T13:56:53.000Z</time>
      </trkpt>
      <trkpt lat="47.20684" lon="-1.38449">
        <ele>54</ele>
        <time>2021-01-02T13:56:55.000Z</time>
      </trkpt>
      <trkpt lat="47.20671" lon="-1.38455">
        <ele>54</ele>
        <time>2021-01-02T13:56:57.000Z</time>
      </trkpt>
      <trkpt lat="47.20659" lon="-1.38461">
        <ele>54</ele>
        <time>2021-01-02T13:56:59.000Z</time>
      </trkpt>
      <trkpt lat="47.20645" lon="-1.38467">
        <ele>54</ele>
        <time>2021-01-02T13:57:01.000Z</time>
      </trkpt>
      <trkpt lat="47.20632" lon="-1.38474">
        <ele>53</ele>
        <time>2021-01-02T13:57:03.000Z</time>
      </trkpt>
      <trkpt lat="47.20618" lon="-1.38479">
        <ele>54</ele>
        <time>2021-01-02T13:57:05.000Z</time>
      </trkpt>
      <trkpt lat="47.20605" lon="-1.38486">
        <ele>53</ele>
        <time>2021-01-02T13:57:07.000Z</time>
      </trkpt>
      <trkpt lat="47.20592" lon="-1.38491">
        <ele>53</ele>
        <time>2021-01-02T13:57:09.000Z</time>
      </trkpt>
      <trkpt lat="47.20578" lon="-1.38495">
        <ele>53</ele>
        <time>2021-01-02T13:57:11.000Z</time>
      </trkpt>
      <trkpt lat="47.20563" lon="-1.38497">
        <ele>53</ele>
        <time>2021-01-02T13:57:13.000Z</time>
      </trkpt>
      <trkpt lat="47.2055" lon="-1.38498">
        <ele>54</ele>
        <time>2021-01-02T13:57:15.000Z</time>
      </trkpt>
      <trkpt lat="47.20535" lon="-1.38497">
        <ele>54</ele>
        <time>2021-01-02T13:57:17.000Z</time>
      </trkpt>
      <trkpt lat="47.20521" lon="-1.38494">
        <ele>53</ele>
        <time>2021-01-02T13:57:19.000Z</time>
      </trkpt>
      <trkpt lat="47.20508" lon="-1.38489">
        <ele>53</ele>
        <time>2021-01-02T13:57:21.000Z</time>
      </trkpt>
      <trkpt lat="47.20495" lon="-1.38485">
        <ele>53</ele>
        <time>2021-01-02T13:57:23.000Z</time>
      </trkpt>
      <trkpt lat="47.20481" lon="-1.38481">
        <ele>53</ele>
        <time>2021-01-02T13:57:25.000Z</time>
      </trkpt>
      <trkpt lat="47.20468" lon="-1.38478">
        <ele>54</ele>
        <time>2021-01-02T13:57:27.000Z</time>
      </trkpt>
      <trkpt lat="47.20457" lon="-1.38475">
        <ele>54</ele>
        <time>2021-01-02T13:57:29.000Z</time>
      </trkpt>
      <trkpt lat="47.20446" lon="-1.38474">
        <ele>55</ele>
        <time>2021-01-02T13:57:31.000Z</time>
      </trkpt>
      <trkpt lat="47.20436" lon="-1.38476">
        <ele>55</ele>
        <time>2021-01-02T13:57:33.000Z</time>
      </trkpt>
      <trkpt lat="47.20427" lon="-1.38484">
        <ele>55</ele>
        <time>2021-01-02T13:57:35.000Z</time>
      </trkpt>
      <trkpt lat="47.20418" lon="-1.38493">
        <ele>55</ele>
        <time>2021-01-02T13:57:37.000Z</time>
      </trkpt>
      <trkpt lat="47.20408" lon="-1.38502">
        <ele>55</ele>
        <time>2021-01-02T13:57:39.000Z</time>
      </trkpt>
      <trkpt lat="47.20397" lon="-1.38512">
        <ele>55</ele>
        <time>2021-01-02T13:57:41.000Z</time>
      </trkpt>
      <trkpt lat="47.20385" lon="-1.38523">
        <ele>55</ele>
        <time>2021-01-02T13:57:43.000Z</time>
      </trkpt>
      <trkpt lat="47.20374" lon="-1.38535">
        <ele>55</ele>
        <time>2021-01-02T13:57:45.000Z</time>
      </trkpt>
      <trkpt lat="47.20362" lon="-1.38547">
        <ele>55</ele>
        <time>2021-01-02T13:57:47.000Z</time>
      </trkpt>
      <trkpt lat="47.20349" lon="-1.38557">
        <ele>54</ele>
        <time>2021-01-02T13:57:49.000Z</time>
      </trkpt>
      <trkpt lat="47.20336" lon="-1.38565">
        <ele>54</ele>
        <time>2021-01-02T13:57:51.000Z</time>
      </trkpt>
      <trkpt lat="47.20324" lon="-1.38572">
        <ele>54</ele>
        <time>2021-01-02T13:57:53.000Z</time>
      </trkpt>
      <trkpt lat="47.20311" lon="-1.38578">
        <ele>55</ele>
        <time>2021-01-02T13:57:55.000Z</time>
      </trkpt>
      <trkpt lat="47.20298" lon="-1.38583">
        <ele>55</ele>
        <time>2021-01-02T13:57:57.000Z</time>
      </trkpt>
      <trkpt lat="47.20286" lon="-1.3859">
        <ele>55</ele>
        <time>2021-01-02T13:57:59.000Z</time>
      </trkpt>
      <trkpt lat="47.20273" lon="-1.38597">
        <ele>56</ele>
        <time>2021-01-02T13:58:01.000Z</time>
      </trkpt>
      <trkpt lat="47.20261" lon="-1.38604">
        <ele>56</ele>
        <time>2021-01-02T13:58:03.000Z</time>
      </trkpt>
      <trkpt lat="47.20248" lon="-1.38612">
        <ele>55</ele>
        <time>2021-01-02T13:58:05.000Z</time>
      </trkpt>
      <trkpt lat="47.20237" lon="-1.38621">
        <ele>55</ele>
        <time>2021-01-02T13:58:07.000Z</time>
      </trkpt>
      <trkpt lat="47.20226" lon="-1.3863">
        <ele>56</ele>
        <time>2021-01-02T13:58:09.000Z</time>
      </trkpt>
      <trkpt lat="47.20214" lon="-1.3864">
        <ele>56</ele>
        <time>2021-01-02T13:58:11.000Z</time>
      </trkpt>
      <trkpt lat="47.20203" lon="-1.3865">
        <ele>56</ele>
        <time>2021-01-02T13:58:13.000Z</time>
      </trkpt>
      <trkpt lat="47.20192" lon="-1.3866">
        <ele>56</ele>
        <time>2021-01-02T13:58:15.000Z</time>
      </trkpt>
      <trkpt lat="47.20181" lon="-1.3867">
        <ele>57</ele>
        <time>2021-01-02T13:58:17.000Z</time>
      </trkpt>
      <trkpt lat="47.2017" lon="-1.3868">
        <ele>57</ele>
        <time>2021-01-02T13:58:19.000Z</time>
      </trkpt>
      <trkpt lat="47.2016" lon="-1.3869">
        <ele>57</ele>
        <time>2021-01-02T13:58:21.000Z</time>
      </trkpt>
      <trkpt lat="47.20149" lon="-1.38699">
        <ele>57</ele>
        <time>2021-01-02T13:58:23.000Z</time>
      </trkpt>
      <trkpt lat="47.20138" lon="-1.3871">
        <ele>58</ele>
        <time>2021-01-02T13:58:25.000Z</time>
      </trkpt>
      <trkpt lat="47.20127" lon="-1.3872">
        <ele>58</ele>
        <time>2021-01-02T13:58:27.000Z</time>
      </trkpt>
      <trkpt lat="47.20116" lon="-1.38729">
        <ele>58</ele>
        <time>2021-01-02T13:58:29.000Z</time>
      </trkpt>
      <trkpt lat="47.20105" lon="-1.38739">
        <ele>58</ele>
        <time>2021-01-02T13:58:31.000Z</time>
      </trkpt>
      <trkpt lat="47.20093" lon="-1.38747">
        <ele>59</ele>
        <time>2021-01-02T13:58:33.000Z</time>
      </trkpt>
      <trkpt lat="47.20082" lon="-1.38755">
        <ele>59</ele>
        <time>2021-01-02T13:58:35.000Z</time>
      </trkpt>
      <trkpt lat="47.2007" lon="-1.38762">
        <ele>59</ele>
        <time>2021-01-02T13:58:37.000Z</time>
      </trkpt>
      <trkpt lat="47.20059" lon="-1.38768">
        <ele>59</ele>
        <time>2021-01-02T13:58:39.000Z</time>
      </trkpt>
      <trkpt lat="47.20047" lon="-1.38774">
        <ele>60</ele>
        <time>2021-01-02T13:58:41.000Z</time>
      </trkpt>
      <trkpt lat="47.20035" lon="-1.38783">
        <ele>60</ele>
        <time>2021-01-02T13:58:43.000Z</time>
      </trkpt>
      <trkpt lat="47.20023" lon="-1.38791">
        <ele>61</ele>
        <time>2021-01-02T13:58:45.000Z</time>
      </trkpt>
      <trkpt lat="47.20012" lon="-1.38801">
        <ele>61</ele>
        <time>2021-01-02T13:58:47.000Z</time>
      </trkpt>
      <trkpt lat="47.20002" lon="-1.38813">
        <ele>60</ele>
        <time>2021-01-02T13:58:49.000Z</time>
      </trkpt>
      <trkpt lat="47.19992" lon="-1.38825">
        <ele>60</ele>
        <time>2021-01-02T13:58:51.000Z</time>
      </trkpt>
      <trkpt lat="47.19983" lon="-1.38838">
        <ele>59</ele>
        <time>2021-01-02T13:58:53.000Z</time>
      </trkpt>
      <trkpt lat="47.19974" lon="-1.38851">
        <ele>59</ele>
        <time>2021-01-02T13:58:55.000Z</time>
      </trkpt>
      <trkpt lat="47.19965" lon="-1.38864">
        <ele>59</ele>
        <time>2021-01-02T13:58:57.000Z</time>
      </trkpt>
      <trkpt lat="47.19958" lon="-1.38877">
        <ele>59</ele>
        <time>2021-01-02T13:58:59.000Z</time>
      </trkpt>
      <trkpt lat="47.1995" lon="-1.3889">
        <ele>59</ele>
        <time>2021-01-02T13:59:01.000Z</time>
      </trkpt>
      <trkpt lat="47.19941" lon="-1.38904">
        <ele>59</ele>
        <time>2021-01-02T13:59:03.000Z</time>
      </trkpt>
      <trkpt lat="47.19934" lon="-1.38917">
        <ele>60</ele>
        <time>2021-01-02T13:59:05.000Z</time>
      </trkpt>
      <trkpt lat="47.19925" lon="-1.3893">
        <ele>60</ele>
        <time>2021-01-02T13:59:07.000Z</time>
      </trkpt>
      <trkpt lat="47.19918" lon="-1.38943">
        <ele>60</ele>
        <time>2021-01-02T13:59:09.000Z</time>
      </trkpt>
      <trkpt lat="47.19909" lon="-1.38957">
        <ele>61</ele>
        <time>2021-01-02T13:59:11.000Z</time>
      </trkpt>
      <trkpt lat="47.19901" lon="-1.3897">
        <ele>61</ele>
        <time>2021-01-02T13:59:13.000Z</time>
      </trkpt>
      <trkpt lat="47.19892" lon="-1.38983">
        <ele>61</ele>
        <time>2021-01-02T13:59:15.000Z</time>
      </trkpt>
      <trkpt lat="47.19883" lon="-1.38996">
        <ele>61</ele>
        <time>2021-01-02T13:59:17.000Z</time>
      </trkpt>
      <trkpt lat="47.19874" lon="-1.39009">
        <ele>62</ele>
        <time>2021-01-02T13:59:19.000Z</time>
      </trkpt>
      <trkpt lat="47.19865" lon="-1.39023">
        <ele>62</ele>
        <time>2021-01-02T13:59:21.000Z</time>
      </trkpt>
      <trkpt lat="47.19857" lon="-1.39036">
        <ele>62</ele>
        <time>2021-01-02T13:59:23.000Z</time>
      </trkpt>
      <trkpt lat="47.19848" lon="-1.39048">
        <ele>62</ele>
        <time>2021-01-02T13:59:25.000Z</time>
      </trkpt>
      <trkpt lat="47.19839" lon="-1.39062">
        <ele>62</ele>
        <time>2021-01-02T13:59:27.000Z</time>
      </trkpt>
      <trkpt lat="47.19831" lon="-1.39076">
        <ele>63</ele>
        <time>2021-01-02T13:59:29.000Z</time>
      </trkpt>
      <trkpt lat="47.19823" lon="-1.3909">
        <ele>63</ele>
        <time>2021-01-02T13:59:31.000Z</time>
      </trkpt>
      <trkpt lat="47.19816" lon="-1.39104">
        <ele>63</ele>
        <time>2021-01-02T13:59:33.000Z</time>
      </trkpt>
      <trkpt lat="47.19809" lon="-1.39119">
        <ele>64</ele>
        <time>2021-01-02T13:59:35.000Z</time>
      </trkpt>
      <trkpt lat="47.19802" lon="-1.39133">
        <ele>64</ele>
        <time>2021-01-02T13:59:37.000Z</time>
      </trkpt>
      <trkpt lat="47.19794" lon="-1.39148">
        <ele>64</ele>
        <time>2021-01-02T13:59:39.000Z</time>
      </trkpt>
      <trkpt lat="47.19787" lon="-1.39161">
        <ele>64</ele>
        <time>2021-01-02T13:59:41.000Z</time>
      </trkpt>
      <trkpt lat="47.19779" lon="-1.39175">
        <ele>63</ele>
        <time>2021-01-02T13:59:43.000Z</time>
      </trkpt>
      <trkpt lat="47.19772" lon="-1.39189">
        <ele>63</ele>
        <time>2021-01-02T13:59:45.000Z</time>
      </trkpt>
      <trkpt lat="47.19765" lon="-1.39203">
        <ele>62</ele>
        <time>2021-01-02T13:59:47.000Z</time>
      </trkpt>
      <trkpt lat="47.19758" lon="-1.39217">
        <ele>63</ele>
        <time>2021-01-02T13:59:49.000Z</time>
      </trkpt>
      <trkpt lat="47.1975" lon="-1.39232">
        <ele>63</ele>
        <time>2021-01-02T13:59:51.000Z</time>
      </trkpt>
      <trkpt lat="47.19742" lon="-1.39245">
        <ele>63</ele>
        <time>2021-01-02T13:59:53.000Z</time>
      </trkpt>
      <trkpt lat="47.19734" lon="-1.39258">
        <ele>63</ele>
        <time>2021-01-02T13:59:55.000Z</time>
      </trkpt>
      <trkpt lat="47.19726" lon="-1.3927">
        <ele>63</ele>
        <time>2021-01-02T13:59:57.000Z</time>
      </trkpt>
      <trkpt lat="47.19717" lon="-1.39282">
        <ele>63</ele>
        <time>2021-01-02T13:59:59.000Z</time>
      </trkpt>
      <trkpt lat="47.19708" lon="-1.39293">
        <ele>63</ele>
        <time>2021-01-02T14:00:01.000Z</time>
      </trkpt>
      <trkpt lat="47.19699" lon="-1.39304">
        <ele>64</ele>
        <time>2021-01-02T14:00:03.000Z</time>
      </trkpt>
      <trkpt lat="47.1969" lon="-1.39314">
        <ele>64</ele>
        <time>2021-01-02T14:00:05.000Z</time>
      </trkpt>
      <trkpt lat="47.19681" lon="-1.39325">
        <ele>64</ele>
        <time>2021-01-02T14:00:07.000Z</time>
      </trkpt>
      <trkpt lat="47.19671" lon="-1.39334">
        <ele>64</ele>
        <time>2021-01-02T14:00:09.000Z</time>
      </trkpt>
      <trkpt lat="47.19661" lon="-1.39344">
        <ele>64</ele>
        <time>2021-01-02T14:00:11.000Z</time>
      </trkpt>
      <trkpt lat="47.19651" lon="-1.39354">
        <ele>65</ele>
        <time>2021-01-02T14:00:13.000Z</time>
      </trkpt>
      <trkpt lat="47.19641" lon="-1.39364">
        <ele>64</ele>
        <time>2021-01-02T14:00:15.000Z</time>
      </trkpt>
      <trkpt lat="47.19632" lon="-1.39374">
        <ele>65</ele>
        <time>2021-01-02T14:00:17.000Z</time>
      </trkpt>
      <trkpt lat="47.19622" lon="-1.39384">
        <ele>65</ele>
        <time>2021-01-02T14:00:19.000Z</time>
      </trkpt>
      <trkpt lat="47.19612" lon="-1.39393">
        <ele>65</ele>
        <time>2021-01-02T14:00:21.000Z</time>
      </trkpt>
      <trkpt lat="47.19602" lon="-1.39402">
        <ele>66</ele>
        <time>2021-01-02T14:00:23.000Z</time>
      </trkpt>
      <trkpt lat="47.19591" lon="-1.3941">
        <ele>66</ele>
        <time>2021-01-02T14:00:25.000Z</time>
      </trkpt>
      <trkpt lat="47.19581" lon="-1.39418">
        <ele>66</ele>
        <time>2021-01-02T14:00:27.000Z</time>
      </trkpt>
      <trkpt lat="47.1957" lon="-1.39425">
        <ele>66</ele>
        <time>2021-01-02T14:00:29.000Z</time>
      </trkpt>
      <trkpt lat="47.19559" lon="-1.39432">
        <ele>66</ele>
        <time>2021-01-02T14:00:31.000Z</time>
      </trkpt>
      <trkpt lat="47.19548" lon="-1.39437">
        <ele>67</ele>
        <time>2021-01-02T14:00:33.000Z</time>
      </trkpt>
      <trkpt lat="47.19537" lon="-1.39443">
        <ele>67</ele>
        <time>2021-01-02T14:00:35.000Z</time>
      </trkpt>
      <trkpt lat="47.19526" lon="-1.39449">
        <ele>67</ele>
        <time>2021-01-02T14:00:37.000Z</time>
      </trkpt>
      <trkpt lat="47.19514" lon="-1.39456">
        <ele>67</ele>
        <time>2021-01-02T14:00:39.000Z</time>
      </trkpt>
      <trkpt lat="47.19504" lon="-1.39464">
        <ele>68</ele>
        <time>2021-01-02T14:00:41.000Z</time>
      </trkpt>
      <trkpt lat="47.19494" lon="-1.39473">
        <ele>68</ele>
        <time>2021-01-02T14:00:43.000Z</time>
      </trkpt>
      <trkpt lat="47.19484" lon="-1.39483">
        <ele>68</ele>
        <time>2021-01-02T14:00:45.000Z</time>
      </trkpt>
      <trkpt lat="47.19474" lon="-1.39493">
        <ele>68</ele>
        <time>2021-01-02T14:00:47.000Z</time>
      </trkpt>
      <trkpt lat="47.19464" lon="-1.39504">
        <ele>68</ele>
        <time>2021-01-02T14:00:49.000Z</time>
      </trkpt>
      <trkpt lat="47.19454" lon="-1.39515">
        <ele>68</ele>
        <time>2021-01-02T14:00:51.000Z</time>
      </trkpt>
      <trkpt lat="47.19443" lon="-1.39526">
        <ele>69</ele>
        <time>2021-01-02T14:00:53.000Z</time>
      </trkpt>
      <trkpt lat="47.19433" lon="-1.39537">
        <ele>70</ele>
        <time>2021-01-02T14:00:55.000Z</time>
      </trkpt>
      <trkpt lat="47.19422" lon="-1.39548">
        <ele>70</ele>
        <time>2021-01-02T14:00:57.000Z</time>
      </trkpt>
      <trkpt lat="47.19413" lon="-1.39558">
        <ele>70</ele>
        <time>2021-01-02T14:00:59.000Z</time>
      </trkpt>
      <trkpt lat="47.19404" lon="-1.39568">
        <ele>71</ele>
        <time>2021-01-02T14:01:01.000Z</time>
      </trkpt>
      <trkpt lat="47.19395" lon="-1.39579">
        <ele>72</ele>
        <time>2021-01-02T14:01:03.000Z</time>
      </trkpt>
      <trkpt lat="47.19386" lon="-1.3959">
        <ele>72</ele>
        <time>2021-01-02T14:01:05.000Z</time>
      </trkpt>
      <trkpt lat="47.19377" lon="-1.396">
        <ele>73</ele>
        <time>2021-01-02T14:01:07.000Z</time>
      </trkpt>
      <trkpt lat="47.19368" lon="-1.39612">
        <ele>73</ele>
        <time>2021-01-02T14:01:09.000Z</time>
      </trkpt>
      <trkpt lat="47.19359" lon="-1.39623">
        <ele>73</ele>
        <time>2021-01-02T14:01:11.000Z</time>
      </trkpt>
      <trkpt lat="47.19349" lon="-1.39635">
        <ele>72</ele>
        <time>2021-01-02T14:01:13.000Z</time>
      </trkpt>
      <trkpt lat="47.19339" lon="-1.39646">
        <ele>73</ele>
        <time>2021-01-02T14:01:15.000Z</time>
      </trkpt>
      <trkpt lat="47.19329" lon="-1.39657">
        <ele>73</ele>
        <time>2021-01-02T14:01:17.000Z</time>
      </trkpt>
      <trkpt lat="47.1932" lon="-1.39668">
        <ele>72</ele>
        <time>2021-01-02T14:01:19.000Z</time>
      </trkpt>
      <trkpt lat="47.19311" lon="-1.39679">
        <ele>72</ele>
        <time>2021-01-02T14:01:21.000Z</time>
      </trkpt>
      <trkpt lat="47.19301" lon="-1.39689">
        <ele>72</ele>
        <time>2021-01-02T14:01:23.000Z</time>
      </trkpt>
      <trkpt lat="47.19291" lon="-1.397">
        <ele>72</ele>
        <time>2021-01-02T14:01:25.000Z</time>
      </trkpt>
      <trkpt lat="47.19281" lon="-1.39711">
        <ele>72</ele>
        <time>2021-01-02T14:01:27.000Z</time>
      </trkpt>
      <trkpt lat="47.19271" lon="-1.39722">
        <ele>72</ele>
        <time>2021-01-02T14:01:29.000Z</time>
      </trkpt>
      <trkpt lat="47.19262" lon="-1.39732">
        <ele>71</ele>
        <time>2021-01-02T14:01:31.000Z</time>
      </trkpt>
      <trkpt lat="47.19253" lon="-1.39744">
        <ele>71</ele>
        <time>2021-01-02T14:01:33.000Z</time>
      </trkpt>
      <trkpt lat="47.19244" lon="-1.39756">
        <ele>72</ele>
        <time>2021-01-02T14:01:35.000Z</time>
      </trkpt>
      <trkpt lat="47.19236" lon="-1.3977">
        <ele>72</ele>
        <time>2021-01-02T14:01:37.000Z</time>
      </trkpt>
      <trkpt lat="47.19229" lon="-1.39785">
        <ele>72</ele>
        <time>2021-01-02T14:01:39.000Z</time>
      </trkpt>
      <trkpt lat="47.19222" lon="-1.39799">
        <ele>72</ele>
        <time>2021-01-02T14:01:41.000Z</time>
      </trkpt>
      <trkpt lat="47.19216" lon="-1.39814">
        <ele>72</ele>
        <time>2021-01-02T14:01:43.000Z</time>
      </trkpt>
      <trkpt lat="47.19209" lon="-1.39829">
        <ele>72</ele>
        <time>2021-01-02T14:01:45.000Z</time>
      </trkpt>
      <trkpt lat="47.19203" lon="-1.39843">
        <ele>72</ele>
        <time>2021-01-02T14:01:47.000Z</time>
      </trkpt>
      <trkpt lat="47.19196" lon="-1.39858">
        <ele>72</ele>
        <time>2021-01-02T14:01:49.000Z</time>
      </trkpt>
      <trkpt lat="47.19188" lon="-1.39872">
        <ele>72</ele>
        <time>2021-01-02T14:01:51.000Z</time>
      </trkpt>
      <trkpt lat="47.19181" lon="-1.39886">
        <ele>73</ele>
        <time>2021-01-02T14:01:53.000Z</time>
      </trkpt>
      <trkpt lat="47.19172" lon="-1.39899">
        <ele>73</ele>
        <time>2021-01-02T14:01:55.000Z</time>
      </trkpt>
      <trkpt lat="47.19164" lon="-1.3991">
        <ele>73</ele>
        <time>2021-01-02T14:01:57.000Z</time>
      </trkpt>
      <trkpt lat="47.19155" lon="-1.39923">
        <ele>73</ele>
        <time>2021-01-02T14:01:59.000Z</time>
      </trkpt>
      <trkpt lat="47.19147" lon="-1.39935">
        <ele>74</ele>
        <time>2021-01-02T14:02:01.000Z</time>
      </trkpt>
      <trkpt lat="47.19138" lon="-1.39947">
        <ele>74</ele>
        <time>2021-01-02T14:02:03.000Z</time>
      </trkpt>
      <trkpt lat="47.1913" lon="-1.39959">
        <ele>74</ele>
        <time>2021-01-02T14:02:05.000Z</time>
      </trkpt>
      <trkpt lat="47.19122" lon="-1.39971">
        <ele>74</ele>
        <time>2021-01-02T14:02:07.000Z</time>
      </trkpt>
      <trkpt lat="47.19114" lon="-1.39982">
        <ele>74</ele>
        <time>2021-01-02T14:02:09.000Z</time>
      </trkpt>
      <trkpt lat="47.19107" lon="-1.39996">
        <ele>74</ele>
        <time>2021-01-02T14:02:11.000Z</time>
      </trkpt>
      <trkpt lat="47.191" lon="-1.40012">
        <ele>74</ele>
        <time>2021-01-02T14:02:13.000Z</time>
      </trkpt>
      <trkpt lat="47.19096" lon="-1.40028">
        <ele>74</ele>
        <time>2021-01-02T14:02:15.000Z</time>
      </trkpt>
      <trkpt lat="47.19092" lon="-1.40044">
        <ele>73</ele>
        <time>2021-01-02T14:02:17.000Z</time>
      </trkpt>
      <trkpt lat="47.19089" lon="-1.4006">
        <ele>73</ele>
        <time>2021-01-02T14:02:19.000Z</time>
      </trkpt>
      <trkpt lat="47.19085" lon="-1.40075">
        <ele>74</ele>
        <time>2021-01-02T14:02:21.000Z</time>
      </trkpt>
      <trkpt lat="47.19081" lon="-1.40088">
        <ele>74</ele>
        <time>2021-01-02T14:02:23.000Z</time>
      </trkpt>
      <trkpt lat="47.19077" lon="-1.401">
        <ele>74</ele>
        <time>2021-01-02T14:02:29.000Z</time>
      </trkpt>
      <trkpt lat="47.1907" lon="-1.40113">
        <ele>74</ele>
        <time>2021-01-02T14:02:32.000Z</time>
      </trkpt>
      <trkpt lat="47.19063" lon="-1.40124">
        <ele>74</ele>
        <time>2021-01-02T14:02:34.000Z</time>
      </trkpt>
      <trkpt lat="47.19056" lon="-1.40137">
        <ele>73</ele>
        <time>2021-01-02T14:02:36.000Z</time>
      </trkpt>
      <trkpt lat="47.19047" lon="-1.40152">
        <ele>74</ele>
        <time>2021-01-02T14:02:38.000Z</time>
      </trkpt>
      <trkpt lat="47.19039" lon="-1.40166">
        <ele>74</ele>
        <time>2021-01-02T14:02:40.000Z</time>
      </trkpt>
      <trkpt lat="47.1903" lon="-1.40181">
        <ele>73</ele>
        <time>2021-01-02T14:02:42.000Z</time>
      </trkpt>
      <trkpt lat="47.19021" lon="-1.40196">
        <ele>73</ele>
        <time>2021-01-02T14:02:44.000Z</time>
      </trkpt>
      <trkpt lat="47.19011" lon="-1.40209">
        <ele>73</ele>
        <time>2021-01-02T14:02:46.000Z</time>
      </trkpt>
      <trkpt lat="47.18999" lon="-1.40219">
        <ele>73</ele>
        <time>2021-01-02T14:02:48.000Z</time>
      </trkpt>
      <trkpt lat="47.18986" lon="-1.40226">
        <ele>74</ele>
        <time>2021-01-02T14:02:50.000Z</time>
      </trkpt>
      <trkpt lat="47.18973" lon="-1.40228">
        <ele>73</ele>
        <time>2021-01-02T14:02:52.000Z</time>
      </trkpt>
      <trkpt lat="47.18959" lon="-1.40227">
        <ele>73</ele>
        <time>2021-01-02T14:02:54.000Z</time>
      </trkpt>
      <trkpt lat="47.18946" lon="-1.40226">
        <ele>73</ele>
        <time>2021-01-02T14:02:56.000Z</time>
      </trkpt>
      <trkpt lat="47.18933" lon="-1.40224">
        <ele>73</ele>
        <time>2021-01-02T14:02:58.000Z</time>
      </trkpt>
      <trkpt lat="47.1892" lon="-1.40223">
        <ele>72</ele>
        <time>2021-01-02T14:03:00.000Z</time>
      </trkpt>
      <trkpt lat="47.18906" lon="-1.4022">
        <ele>72</ele>
        <time>2021-01-02T14:03:02.000Z</time>
      </trkpt>
      <trkpt lat="47.18892" lon="-1.40219">
        <ele>72</ele>
        <time>2021-01-02T14:03:04.000Z</time>
      </trkpt>
      <trkpt lat="47.18879" lon="-1.40217">
        <ele>72</ele>
        <time>2021-01-02T14:03:06.000Z</time>
      </trkpt>
      <trkpt lat="47.18866" lon="-1.40215">
        <ele>72</ele>
        <time>2021-01-02T14:03:08.000Z</time>
      </trkpt>
      <trkpt lat="47.18852" lon="-1.40214">
        <ele>72</ele>
        <time>2021-01-02T14:03:10.000Z</time>
      </trkpt>
      <trkpt lat="47.18838" lon="-1.40212">
        <ele>72</ele>
        <time>2021-01-02T14:03:12.000Z</time>
      </trkpt>
      <trkpt lat="47.18824" lon="-1.4021">
        <ele>72</ele>
        <time>2021-01-02T14:03:14.000Z</time>
      </trkpt>
      <trkpt lat="47.1881" lon="-1.40208">
        <ele>72</ele>
        <time>2021-01-02T14:03:16.000Z</time>
      </trkpt>
      <trkpt lat="47.18797" lon="-1.40207">
        <ele>72</ele>
        <time>2021-01-02T14:03:18.000Z</time>
      </trkpt>
      <trkpt lat="47.18783" lon="-1.40205">
        <ele>72</ele>
        <time>2021-01-02T14:03:20.000Z</time>
      </trkpt>
      <trkpt lat="47.18769" lon="-1.40207">
        <ele>72</ele>
        <time>2021-01-02T14:03:22.000Z</time>
      </trkpt>
      <trkpt lat="47.18755" lon="-1.40211">
        <ele>72</ele>
        <time>2021-01-02T14:03:24.000Z</time>
      </trkpt>
      <trkpt lat="47.18743" lon="-1.40218">
        <ele>72</ele>
        <time>2021-01-02T14:03:26.000Z</time>
      </trkpt>
      <trkpt lat="47.18732" lon="-1.40228">
        <ele>72</ele>
        <time>2021-01-02T14:03:28.000Z</time>
      </trkpt>
      <trkpt lat="47.18721" lon="-1.4024">
        <ele>72</ele>
        <time>2021-01-02T14:03:30.000Z</time>
      </trkpt>
      <trkpt lat="47.18712" lon="-1.40253">
        <ele>72</ele>
        <time>2021-01-02T14:03:32.000Z</time>
      </trkpt>
      <trkpt lat="47.18702" lon="-1.40265">
        <ele>73</ele>
        <time>2021-01-02T14:03:34.000Z</time>
      </trkpt>
      <trkpt lat="47.18691" lon="-1.40278">
        <ele>73</ele>
        <time>2021-01-02T14:03:36.000Z</time>
      </trkpt>
      <trkpt lat="47.18681" lon="-1.40291">
        <ele>73</ele>
        <time>2021-01-02T14:03:38.000Z</time>
      </trkpt>
      <trkpt lat="47.18671" lon="-1.40303">
        <ele>73</ele>
        <time>2021-01-02T14:03:40.000Z</time>
      </trkpt>
      <trkpt lat="47.18661" lon="-1.40314">
        <ele>73</ele>
        <time>2021-01-02T14:03:42.000Z</time>
      </trkpt>
      <trkpt lat="47.18651" lon="-1.40327">
        <ele>72</ele>
        <time>2021-01-02T14:03:44.000Z</time>
      </trkpt>
      <trkpt lat="47.18641" lon="-1.40339">
        <ele>72</ele>
        <time>2021-01-02T14:03:46.000Z</time>
      </trkpt>
      <trkpt lat="47.18631" lon="-1.40351">
        <ele>73</ele>
        <time>2021-01-02T14:03:48.000Z</time>
      </trkpt>
      <trkpt lat="47.1862" lon="-1.40363">
        <ele>72</ele>
        <time>2021-01-02T14:03:50.000Z</time>
      </trkpt>
      <trkpt lat="47.18611" lon="-1.40375">
        <ele>73</ele>
        <time>2021-01-02T14:03:52.000Z</time>
      </trkpt>
      <trkpt lat="47.18601" lon="-1.40387">
        <ele>72</ele>
        <time>2021-01-02T14:03:54.000Z</time>
      </trkpt>
      <trkpt lat="47.1859" lon="-1.40399">
        <ele>73</ele>
        <time>2021-01-02T14:03:56.000Z</time>
      </trkpt>
      <trkpt lat="47.1858" lon="-1.40411">
        <ele>73</ele>
        <time>2021-01-02T14:03:58.000Z</time>
      </trkpt>
      <trkpt lat="47.1857" lon="-1.40423">
        <ele>73</ele>
        <time>2021-01-02T14:04:00.000Z</time>
      </trkpt>
      <trkpt lat="47.1856" lon="-1.40435">
        <ele>72</ele>
        <time>2021-01-02T14:04:02.000Z</time>
      </trkpt>
      <trkpt lat="47.1855" lon="-1.40448">
        <ele>73</ele>
        <time>2021-01-02T14:04:04.000Z</time>
      </trkpt>
      <trkpt lat="47.1854" lon="-1.40459">
        <ele>73</ele>
        <time>2021-01-02T14:04:06.000Z</time>
      </trkpt>
      <trkpt lat="47.18529" lon="-1.40471">
        <ele>73</ele>
        <time>2021-01-02T14:04:08.000Z</time>
      </trkpt>
      <trkpt lat="47.18517" lon="-1.40481">
        <ele>73</ele>
        <time>2021-01-02T14:04:10.000Z</time>
      </trkpt>
      <trkpt lat="47.18506" lon="-1.4049">
        <ele>73</ele>
        <time>2021-01-02T14:04:12.000Z</time>
      </trkpt>
      <trkpt lat="47.18495" lon="-1.405">
        <ele>73</ele>
        <time>2021-01-02T14:04:14.000Z</time>
      </trkpt>
      <trkpt lat="47.18484" lon="-1.40508">
        <ele>73</ele>
        <time>2021-01-02T14:04:16.000Z</time>
      </trkpt>
      <trkpt lat="47.18472" lon="-1.40517">
        <ele>73</ele>
        <time>2021-01-02T14:04:18.000Z</time>
      </trkpt>
      <trkpt lat="47.18461" lon="-1.40526">
        <ele>73</ele>
        <time>2021-01-02T14:04:20.000Z</time>
      </trkpt>
      <trkpt lat="47.18449" lon="-1.40535">
        <ele>73</ele>
        <time>2021-01-02T14:04:22.000Z</time>
      </trkpt>
      <trkpt lat="47.18438" lon="-1.40544">
        <ele>73</ele>
        <time>2021-01-02T14:04:24.000Z</time>
      </trkpt>
      <trkpt lat="47.18427" lon="-1.40553">
        <ele>74</ele>
        <time>2021-01-02T14:04:26.000Z</time>
      </trkpt>
      <trkpt lat="47.18417" lon="-1.40563">
        <ele>74</ele>
        <time>2021-01-02T14:04:28.000Z</time>
      </trkpt>
      <trkpt lat="47.18406" lon="-1.40571">
        <ele>75</ele>
        <time>2021-01-02T14:04:30.000Z</time>
      </trkpt>
      <trkpt lat="47.18395" lon="-1.40579">
        <ele>75</ele>
        <time>2021-01-02T14:04:32.000Z</time>
      </trkpt>
      <trkpt lat="47.18384" lon="-1.40588">
        <ele>75</ele>
        <time>2021-01-02T14:04:34.000Z</time>
      </trkpt>
      <trkpt lat="47.18373" lon="-1.40597">
        <ele>75</ele>
        <time>2021-01-02T14:04:36.000Z</time>
      </trkpt>
      <trkpt lat="47.18362" lon="-1.40605">
        <ele>75</ele>
        <time>2021-01-02T14:04:38.000Z</time>
      </trkpt>
      <trkpt lat="47.18351" lon="-1.40612">
        <ele>75</ele>
        <time>2021-01-02T14:04:40.000Z</time>
      </trkpt>
      <trkpt lat="47.1834" lon="-1.40618">
        <ele>75</ele>
        <time>2021-01-02T14:04:42.000Z</time>
      </trkpt>
      <trkpt lat="47.18328" lon="-1.40621">
        <ele>75</ele>
        <time>2021-01-02T14:04:44.000Z</time>
      </trkpt>
      <trkpt lat="47.18315" lon="-1.4062">
        <ele>76</ele>
        <time>2021-01-02T14:04:46.000Z</time>
      </trkpt>
      <trkpt lat="47.18303" lon="-1.40616">
        <ele>75</ele>
        <time>2021-01-02T14:04:48.000Z</time>
      </trkpt>
      <trkpt lat="47.18291" lon="-1.40608">
        <ele>75</ele>
        <time>2021-01-02T14:04:50.000Z</time>
      </trkpt>
      <trkpt lat="47.1828" lon="-1.40599">
        <ele>75</ele>
        <time>2021-01-02T14:04:52.000Z</time>
      </trkpt>
      <trkpt lat="47.18268" lon="-1.4059">
        <ele>75</ele>
        <time>2021-01-02T14:04:54.000Z</time>
      </trkpt>
      <trkpt lat="47.18257" lon="-1.40581">
        <ele>76</ele>
        <time>2021-01-02T14:04:56.000Z</time>
      </trkpt>
      <trkpt lat="47.18246" lon="-1.40572">
        <ele>76</ele>
        <time>2021-01-02T14:04:58.000Z</time>
      </trkpt>
      <trkpt lat="47.18236" lon="-1.40563">
        <ele>76</ele>
        <time>2021-01-02T14:05:00.000Z</time>
      </trkpt>
      <trkpt lat="47.18225" lon="-1.40554">
        <ele>76</ele>
        <time>2021-01-02T14:05:02.000Z</time>
      </trkpt>
      <trkpt lat="47.18214" lon="-1.40545">
        <ele>76</ele>
        <time>2021-01-02T14:05:04.000Z</time>
      </trkpt>
      <trkpt lat="47.18204" lon="-1.40536">
        <ele>76</ele>
        <time>2021-01-02T14:05:06.000Z</time>
      </trkpt>
      <trkpt lat="47.18193" lon="-1.40527">
        <ele>77</ele>
        <time>2021-01-02T14:05:08.000Z</time>
      </trkpt>
      <trkpt lat="47.18182" lon="-1.40519">
        <ele>76</ele>
        <time>2021-01-02T14:05:10.000Z</time>
      </trkpt>
      <trkpt lat="47.18171" lon="-1.40513">
        <ele>77</ele>
        <time>2021-01-02T14:05:12.000Z</time>
      </trkpt>
      <trkpt lat="47.1816" lon="-1.40511">
        <ele>77</ele>
        <time>2021-01-02T14:05:14.000Z</time>
      </trkpt>
      <trkpt lat="47.18149" lon="-1.40514">
        <ele>77</ele>
        <time>2021-01-02T14:05:16.000Z</time>
      </trkpt>
      <trkpt lat="47.18138" lon="-1.4052">
        <ele>76</ele>
        <time>2021-01-02T14:05:18.000Z</time>
      </trkpt>
      <trkpt lat="47.18127" lon="-1.40529">
        <ele>76</ele>
        <time>2021-01-02T14:05:20.000Z</time>
      </trkpt>
      <trkpt lat="47.18115" lon="-1.40537">
        <ele>76</ele>
        <time>2021-01-02T14:05:22.000Z</time>
      </trkpt>
      <trkpt lat="47.18104" lon="-1.40546">
        <ele>76</ele>
        <time>2021-01-02T14:05:24.000Z</time>
      </trkpt>
      <trkpt lat="47.18093" lon="-1.40554">
        <ele>77</ele>
        <time>2021-01-02T14:05:26.000Z</time>
      </trkpt>
      <trkpt lat="47.18082" lon="-1.40563">
        <ele>77</ele>
        <time>2021-01-02T14:05:28.000Z</time>
      </trkpt>
      <trkpt lat="47.18072" lon="-1.4057">
        <ele>77</ele>
        <time>2021-01-02T14:05:30.000Z</time>
      </trkpt>
      <trkpt lat="47.18062" lon="-1.40579">
        <ele>77</ele>
        <time>2021-01-02T14:05:32.000Z</time>
      </trkpt>
      <trkpt lat="47.18052" lon="-1.40589">
        <ele>78</ele>
        <time>2021-01-02T14:05:34.000Z</time>
      </trkpt>
      <trkpt lat="47.18043" lon="-1.40598">
        <ele>78</ele>
        <time>2021-01-02T14:05:36.000Z</time>
      </trkpt>
      <trkpt lat="47.18033" lon="-1.40608">
        <ele>78</ele>
        <time>2021-01-02T14:05:38.000Z</time>
      </trkpt>
      <trkpt lat="47.18023" lon="-1.40618">
        <ele>78</ele>
        <time>2021-01-02T14:05:40.000Z</time>
      </trkpt>
      <trkpt lat="47.18015" lon="-1.40631">
        <ele>79</ele>
        <time>2021-01-02T14:05:42.000Z</time>
      </trkpt>
      <trkpt lat="47.18015" lon="-1.40647">
        <ele>79</ele>
        <time>2021-01-02T14:05:44.000Z</time>
      </trkpt>
      <trkpt lat="47.1802" lon="-1.40662">
        <ele>80</ele>
        <time>2021-01-02T14:05:46.000Z</time>
      </trkpt>
      <trkpt lat="47.18025" lon="-1.40676">
        <ele>80</ele>
        <time>2021-01-02T14:05:48.000Z</time>
      </trkpt>
      <trkpt lat="47.1803" lon="-1.4069">
        <ele>81</ele>
        <time>2021-01-02T14:05:50.000Z</time>
      </trkpt>
      <trkpt lat="47.18034" lon="-1.40706">
        <ele>81</ele>
        <time>2021-01-02T14:05:52.000Z</time>
      </trkpt>
      <trkpt lat="47.18038" lon="-1.40722">
        <ele>81</ele>
        <time>2021-01-02T14:05:54.000Z</time>
      </trkpt>
      <trkpt lat="47.18043" lon="-1.40737">
        <ele>82</ele>
        <time>2021-01-02T14:05:56.000Z</time>
      </trkpt>
      <trkpt lat="47.18047" lon="-1.40753">
        <ele>81</ele>
        <time>2021-01-02T14:05:58.000Z</time>
      </trkpt>
      <trkpt lat="47.18052" lon="-1.40769">
        <ele>82</ele>
        <time>2021-01-02T14:06:00.000Z</time>
      </trkpt>
      <trkpt lat="47.18057" lon="-1.40785">
        <ele>82</ele>
        <time>2021-01-02T14:06:02.000Z</time>
      </trkpt>
      <trkpt lat="47.18062" lon="-1.40801">
        <ele>82</ele>
        <time>2021-01-02T14:06:04.000Z</time>
      </trkpt>
      <trkpt lat="47.18066" lon="-1.40817">
        <ele>82</ele>
        <time>2021-01-02T14:06:06.000Z</time>
      </trkpt>
      <trkpt lat="47.18071" lon="-1.40833">
        <ele>82</ele>
        <time>2021-01-02T14:06:08.000Z</time>
      </trkpt>
      <trkpt lat="47.18076" lon="-1.4085">
        <ele>82</ele>
        <time>2021-01-02T14:06:10.000Z</time>
      </trkpt>
      <trkpt lat="47.18081" lon="-1.40866">
        <ele>82</ele>
        <time>2021-01-02T14:06:12.000Z</time>
      </trkpt>
      <trkpt lat="47.18086" lon="-1.40882">
        <ele>82</ele>
        <time>2021-01-02T14:06:14.000Z</time>
      </trkpt>
      <trkpt lat="47.18091" lon="-1.40899">
        <ele>81</ele>
        <time>2021-01-02T14:06:16.000Z</time>
      </trkpt>
      <trkpt lat="47.18096" lon="-1.40916">
        <ele>81</ele>
        <time>2021-01-02T14:06:18.000Z</time>
      </trkpt>
      <trkpt lat="47.181" lon="-1.40934">
        <ele>81</ele>
        <time>2021-01-02T14:06:20.000Z</time>
      </trkpt>
      <trkpt lat="47.18104" lon="-1.40951">
        <ele>81</ele>
        <time>2021-01-02T14:06:22.000Z</time>
      </trkpt>
      <trkpt lat="47.18107" lon="-1.40968">
        <ele>81</ele>
        <time>2021-01-02T14:06:24.000Z</time>
      </trkpt>
      <trkpt lat="47.18111" lon="-1.40986">
        <ele>80</ele>
        <time>2021-01-02T14:06:26.000Z</time>
      </trkpt>
      <trkpt lat="47.18114" lon="-1.41003">
        <ele>80</ele>
        <time>2021-01-02T14:06:28.000Z</time>
      </trkpt>
      <trkpt lat="47.18117" lon="-1.41021">
        <ele>80</ele>
        <time>2021-01-02T14:06:30.000Z</time>
      </trkpt>
      <trkpt lat="47.18121" lon="-1.41038">
        <ele>81</ele>
        <time>2021-01-02T14:06:32.000Z</time>
      </trkpt>
      <trkpt lat="47.18121" lon="-1.41055">
        <ele>81</ele>
        <time>2021-01-02T14:06:34.000Z</time>
      </trkpt>
      <trkpt lat="47.18113" lon="-1.41069">
        <ele>80</ele>
        <time>2021-01-02T14:06:36.000Z</time>
      </trkpt>
      <trkpt lat="47.18103" lon="-1.41078">
        <ele>80</ele>
        <time>2021-01-02T14:06:38.000Z</time>
      </trkpt>
      <trkpt lat="47.18099" lon="-1.41096">
        <ele>80</ele>
        <time>2021-01-02T14:06:40.000Z</time>
      </trkpt>
      <trkpt lat="47.18101" lon="-1.41114">
        <ele>80</ele>
        <time>2021-01-02T14:06:42.000Z</time>
      </trkpt>
      <trkpt lat="47.18104" lon="-1.41132">
        <ele>80</ele>
        <time>2021-01-02T14:06:44.000Z</time>
      </trkpt>
      <trkpt lat="47.18107" lon="-1.4115">
        <ele>79</ele>
        <time>2021-01-02T14:06:46.000Z</time>
      </trkpt>
      <trkpt lat="47.1811" lon="-1.41168">
        <ele>79</ele>
        <time>2021-01-02T14:06:48.000Z</time>
      </trkpt>
      <trkpt lat="47.18114" lon="-1.41185">
        <ele>79</ele>
        <time>2021-01-02T14:06:50.000Z</time>
      </trkpt>
      <trkpt lat="47.18119" lon="-1.41202">
        <ele>79</ele>
        <time>2021-01-02T14:06:52.000Z</time>
      </trkpt>
      <trkpt lat="47.18125" lon="-1.41218">
        <ele>79</ele>
        <time>2021-01-02T14:06:54.000Z</time>
      </trkpt>
      <trkpt lat="47.18131" lon="-1.41234">
        <ele>79</ele>
        <time>2021-01-02T14:06:56.000Z</time>
      </trkpt>
      <trkpt lat="47.18138" lon="-1.41249">
        <ele>79</ele>
        <time>2021-01-02T14:06:58.000Z</time>
      </trkpt>
      <trkpt lat="47.18148" lon="-1.41261">
        <ele>79</ele>
        <time>2021-01-02T14:07:00.000Z</time>
      </trkpt>
      <trkpt lat="47.1816" lon="-1.41268">
        <ele>79</ele>
        <time>2021-01-02T14:07:02.000Z</time>
      </trkpt>
      <trkpt lat="47.18173" lon="-1.41273">
        <ele>79</ele>
        <time>2021-01-02T14:07:04.000Z</time>
      </trkpt>
      <trkpt lat="47.18186" lon="-1.41275">
        <ele>80</ele>
        <time>2021-01-02T14:07:06.000Z</time>
      </trkpt>
      <trkpt lat="47.18198" lon="-1.41277">
        <ele>80</ele>
        <time>2021-01-02T14:07:08.000Z</time>
      </trkpt>
      <trkpt lat="47.18211" lon="-1.41281">
        <ele>79</ele>
        <time>2021-01-02T14:07:10.000Z</time>
      </trkpt>
      <trkpt lat="47.18224" lon="-1.41285">
        <ele>79</ele>
        <time>2021-01-02T14:07:12.000Z</time>
      </trkpt>
      <trkpt lat="47.18237" lon="-1.41289">
        <ele>79</ele>
        <time>2021-01-02T14:07:14.000Z</time>
      </trkpt>
      <trkpt lat="47.18251" lon="-1.41293">
        <ele>78</ele>
        <time>2021-01-02T14:07:16.000Z</time>
      </trkpt>
      <trkpt lat="47.18265" lon="-1.41296">
        <ele>79</ele>
        <time>2021-01-02T14:07:18.000Z</time>
      </trkpt>
      <trkpt lat="47.18278" lon="-1.41299">
        <ele>78</ele>
        <time>2021-01-02T14:07:20.000Z</time>
      </trkpt>
      <trkpt lat="47.18291" lon="-1.41302">
        <ele>78</ele>
        <time>2021-01-02T14:07:22.000Z</time>
      </trkpt>
      <trkpt lat="47.18305" lon="-1.41306">
        <ele>78</ele>
        <time>2021-01-02T14:07:24.000Z</time>
      </trkpt>
      <trkpt lat="47.18318" lon="-1.4131">
        <ele>77</ele>
        <time>2021-01-02T14:07:26.000Z</time>
      </trkpt>
      <trkpt lat="47.18332" lon="-1.41315">
        <ele>77</ele>
        <time>2021-01-02T14:07:28.000Z</time>
      </trkpt>
      <trkpt lat="47.18344" lon="-1.41324">
        <ele>77</ele>
        <time>2021-01-02T14:07:30.000Z</time>
      </trkpt>
      <trkpt lat="47.18355" lon="-1.41334">
        <ele>77</ele>
        <time>2021-01-02T14:07:32.000Z</time>
      </trkpt>
      <trkpt lat="47.18367" lon="-1.41347">
        <ele>77</ele>
        <time>2021-01-02T14:07:34.000Z</time>
      </trkpt>
      <trkpt lat="47.18378" lon="-1.41358">
        <ele>77</ele>
        <time>2021-01-02T14:07:36.000Z</time>
      </trkpt>
      <trkpt lat="47.1839" lon="-1.41369">
        <ele>77</ele>
        <time>2021-01-02T14:07:38.000Z</time>
      </trkpt>
      <trkpt lat="47.18402" lon="-1.41379">
        <ele>77</ele>
        <time>2021-01-02T14:07:40.000Z</time>
      </trkpt>
      <trkpt lat="47.18415" lon="-1.41387">
        <ele>77</ele>
        <time>2021-01-02T14:07:42.000Z</time>
      </trkpt>
      <trkpt lat="47.18428" lon="-1.41391">
        <ele>77</ele>
        <time>2021-01-02T14:07:44.000Z</time>
      </trkpt>
      <trkpt lat="47.18441" lon="-1.41393">
        <ele>77</ele>
        <time>2021-01-02T14:07:46.000Z</time>
      </trkpt>
      <trkpt lat="47.18455" lon="-1.41395">
        <ele>77</ele>
        <time>2021-01-02T14:07:48.000Z</time>
      </trkpt>
      <trkpt lat="47.18469" lon="-1.41398">
        <ele>78</ele>
        <time>2021-01-02T14:07:50.000Z</time>
      </trkpt>
      <trkpt lat="47.18483" lon="-1.41401">
        <ele>77</ele>
        <time>2021-01-02T14:07:52.000Z</time>
      </trkpt>
      <trkpt lat="47.18496" lon="-1.41404">
        <ele>77</ele>
        <time>2021-01-02T14:07:54.000Z</time>
      </trkpt>
      <trkpt lat="47.18508" lon="-1.41408">
        <ele>77</ele>
        <time>2021-01-02T14:07:56.000Z</time>
      </trkpt>
      <trkpt lat="47.18521" lon="-1.41411">
        <ele>77</ele>
        <time>2021-01-02T14:07:58.000Z</time>
      </trkpt>
      <trkpt lat="47.18534" lon="-1.41414">
        <ele>77</ele>
        <time>2021-01-02T14:08:00.000Z</time>
      </trkpt>
      <trkpt lat="47.18546" lon="-1.41416">
        <ele>77</ele>
        <time>2021-01-02T14:08:02.000Z</time>
      </trkpt>
      <trkpt lat="47.18558" lon="-1.41419">
        <ele>77</ele>
        <time>2021-01-02T14:08:04.000Z</time>
      </trkpt>
      <trkpt lat="47.18569" lon="-1.41421">
        <ele>77</ele>
        <time>2021-01-02T14:08:06.000Z</time>
      </trkpt>
      <trkpt lat="47.1858" lon="-1.41424">
        <ele>77</ele>
        <time>2021-01-02T14:08:08.000Z</time>
      </trkpt>
      <trkpt lat="47.1859" lon="-1.41428">
        <ele>78</ele>
        <time>2021-01-02T14:08:10.000Z</time>
      </trkpt>
      <trkpt lat="47.186" lon="-1.41433">
        <ele>78</ele>
        <time>2021-01-02T14:08:12.000Z</time>
      </trkpt>
      <trkpt lat="47.1861" lon="-1.41441">
        <ele>78</ele>
        <time>2021-01-02T14:08:14.000Z</time>
      </trkpt>
      <trkpt lat="47.18619" lon="-1.4145">
        <ele>79</ele>
        <time>2021-01-02T14:08:16.000Z</time>
      </trkpt>
      <trkpt lat="47.18626" lon="-1.41464">
        <ele>79</ele>
        <time>2021-01-02T14:08:18.000Z</time>
      </trkpt>
      <trkpt lat="47.18631" lon="-1.41478">
        <ele>79</ele>
        <time>2021-01-02T14:08:20.000Z</time>
      </trkpt>
      <trkpt lat="47.18635" lon="-1.41493">
        <ele>80</ele>
        <time>2021-01-02T14:08:22.000Z</time>
      </trkpt>
      <trkpt lat="47.18639" lon="-1.41508">
        <ele>80</ele>
        <time>2021-01-02T14:08:24.000Z</time>
      </trkpt>
      <trkpt lat="47.18641" lon="-1.41525">
        <ele>80</ele>
        <time>2021-01-02T14:08:26.000Z</time>
      </trkpt>
      <trkpt lat="47.18641" lon="-1.41541">
        <ele>81</ele>
        <time>2021-01-02T14:08:28.000Z</time>
      </trkpt>
      <trkpt lat="47.18639" lon="-1.41557">
        <ele>81</ele>
        <time>2021-01-02T14:08:30.000Z</time>
      </trkpt>
      <trkpt lat="47.18637" lon="-1.41574">
        <ele>82</ele>
        <time>2021-01-02T14:08:32.000Z</time>
      </trkpt>
      <trkpt lat="47.18634" lon="-1.4159">
        <ele>81</ele>
        <time>2021-01-02T14:08:34.000Z</time>
      </trkpt>
      <trkpt lat="47.18632" lon="-1.41606">
        <ele>81</ele>
        <time>2021-01-02T14:08:36.000Z</time>
      </trkpt>
      <trkpt lat="47.18632" lon="-1.41621">
        <ele>81</ele>
        <time>2021-01-02T14:08:38.000Z</time>
      </trkpt>
      <trkpt lat="47.18637" lon="-1.41636">
        <ele>81</ele>
        <time>2021-01-02T14:08:40.000Z</time>
      </trkpt>
      <trkpt lat="47.18644" lon="-1.41648">
        <ele>81</ele>
        <time>2021-01-02T14:08:42.000Z</time>
      </trkpt>
      <trkpt lat="47.18652" lon="-1.41657">
        <ele>80</ele>
        <time>2021-01-02T14:08:44.000Z</time>
      </trkpt>
      <trkpt lat="47.18662" lon="-1.41664">
        <ele>80</ele>
        <time>2021-01-02T14:08:46.000Z</time>
      </trkpt>
      <trkpt lat="47.18672" lon="-1.41671">
        <ele>80</ele>
        <time>2021-01-02T14:08:48.000Z</time>
      </trkpt>
      <trkpt lat="47.18681" lon="-1.41678">
        <ele>81</ele>
        <time>2021-01-02T14:08:50.000Z</time>
      </trkpt>
      <trkpt lat="47.18691" lon="-1.41685">
        <ele>81</ele>
        <time>2021-01-02T14:08:52.000Z</time>
      </trkpt>
      <trkpt lat="47.18701" lon="-1.41691">
        <ele>81</ele>
        <time>2021-01-02T14:08:54.000Z</time>
      </trkpt>
      <trkpt lat="47.1871" lon="-1.41697">
        <ele>81</ele>
        <time>2021-01-02T14:08:56.000Z</time>
      </trkpt>
      <trkpt lat="47.1872" lon="-1.41703">
        <ele>81</ele>
        <time>2021-01-02T14:08:58.000Z</time>
      </trkpt>
      <trkpt lat="47.1873" lon="-1.41711">
        <ele>81</ele>
        <time>2021-01-02T14:09:00.000Z</time>
      </trkpt>
      <trkpt lat="47.1874" lon="-1.41716">
        <ele>81</ele>
        <time>2021-01-02T14:09:02.000Z</time>
      </trkpt>
      <trkpt lat="47.18751" lon="-1.41721">
        <ele>81</ele>
        <time>2021-01-02T14:09:04.000Z</time>
      </trkpt>
      <trkpt lat="47.18761" lon="-1.41725">
        <ele>81</ele>
        <time>2021-01-02T14:09:06.000Z</time>
      </trkpt>
      <trkpt lat="47.18772" lon="-1.41729">
        <ele>80</ele>
        <time>2021-01-02T14:09:08.000Z</time>
      </trkpt>
      <trkpt lat="47.18783" lon="-1.41733">
        <ele>80</ele>
        <time>2021-01-02T14:09:10.000Z</time>
      </trkpt>
      <trkpt lat="47.18795" lon="-1.41736">
        <ele>80</ele>
        <time>2021-01-02T14:09:12.000Z</time>
      </trkpt>
      <trkpt lat="47.18807" lon="-1.41739">
        <ele>80</ele>
        <time>2021-01-02T14:09:14.000Z</time>
      </trkpt>
      <trkpt lat="47.18819" lon="-1.41742">
        <ele>79</ele>
        <time>2021-01-02T14:09:16.000Z</time>
      </trkpt>
      <trkpt lat="47.18832" lon="-1.41744">
        <ele>79</ele>
        <time>2021-01-02T14:09:18.000Z</time>
      </trkpt>
      <trkpt lat="47.18844" lon="-1.41746">
        <ele>79</ele>
        <time>2021-01-02T14:09:20.000Z</time>
      </trkpt>
      <trkpt lat="47.18858" lon="-1.41749">
        <ele>79</ele>
        <time>2021-01-02T14:09:22.000Z</time>
      </trkpt>
      <trkpt lat="47.1887" lon="-1.41752">
        <ele>79</ele>
        <time>2021-01-02T14:09:24.000Z</time>
      </trkpt>
      <trkpt lat="47.18883" lon="-1.41758">
        <ele>79</ele>
        <time>2021-01-02T14:09:26.000Z</time>
      </trkpt>
      <trkpt lat="47.18896" lon="-1.41765">
        <ele>79</ele>
        <time>2021-01-02T14:09:28.000Z</time>
      </trkpt>
      <trkpt lat="47.18907" lon="-1.41772">
        <ele>79</ele>
        <time>2021-01-02T14:09:30.000Z</time>
      </trkpt>
      <trkpt lat="47.18919" lon="-1.41779">
        <ele>79</ele>
        <time>2021-01-02T14:09:32.000Z</time>
      </trkpt>
      <trkpt lat="47.18933" lon="-1.41787">
        <ele>79</ele>
        <time>2021-01-02T14:09:34.000Z</time>
      </trkpt>
      <trkpt lat="47.18946" lon="-1.41794">
        <ele>79</ele>
        <time>2021-01-02T14:09:36.000Z</time>
      </trkpt>
      <trkpt lat="47.18958" lon="-1.41801">
        <ele>79</ele>
        <time>2021-01-02T14:09:38.000Z</time>
      </trkpt>
      <trkpt lat="47.18971" lon="-1.41809">
        <ele>79</ele>
        <time>2021-01-02T14:09:40.000Z</time>
      </trkpt>
      <trkpt lat="47.18984" lon="-1.4182">
        <ele>78</ele>
        <time>2021-01-02T14:09:42.000Z</time>
      </trkpt>
      <trkpt lat="47.18995" lon="-1.41831">
        <ele>78</ele>
        <time>2021-01-02T14:09:44.000Z</time>
      </trkpt>
      <trkpt lat="47.19006" lon="-1.41842">
        <ele>77</ele>
        <time>2021-01-02T14:09:46.000Z</time>
      </trkpt>
      <trkpt lat="47.19018" lon="-1.41853">
        <ele>77</ele>
        <time>2021-01-02T14:09:48.000Z</time>
      </trkpt>
      <trkpt lat="47.19029" lon="-1.41863">
        <ele>77</ele>
        <time>2021-01-02T14:09:50.000Z</time>
      </trkpt>
      <trkpt lat="47.1904" lon="-1.41873">
        <ele>76</ele>
        <time>2021-01-02T14:09:52.000Z</time>
      </trkpt>
      <trkpt lat="47.19052" lon="-1.41883">
        <ele>76</ele>
        <time>2021-01-02T14:09:54.000Z</time>
      </trkpt>
      <trkpt lat="47.19063" lon="-1.41894">
        <ele>76</ele>
        <time>2021-01-02T14:09:56.000Z</time>
      </trkpt>
      <trkpt lat="47.19074" lon="-1.41904">
        <ele>76</ele>
        <time>2021-01-02T14:09:58.000Z</time>
      </trkpt>
      <trkpt lat="47.19085" lon="-1.41915">
        <ele>76</ele>
        <time>2021-01-02T14:10:00.000Z</time>
      </trkpt>
      <trkpt lat="47.19095" lon="-1.41927">
        <ele>76</ele>
        <time>2021-01-02T14:10:02.000Z</time>
      </trkpt>
      <trkpt lat="47.19104" lon="-1.41941">
        <ele>77</ele>
        <time>2021-01-02T14:10:04.000Z</time>
      </trkpt>
      <trkpt lat="47.19113" lon="-1.41957">
        <ele>76</ele>
        <time>2021-01-02T14:10:06.000Z</time>
      </trkpt>
      <trkpt lat="47.1912" lon="-1.41973">
        <ele>76</ele>
        <time>2021-01-02T14:10:08.000Z</time>
      </trkpt>
      <trkpt lat="47.19125" lon="-1.41989">
        <ele>76</ele>
        <time>2021-01-02T14:10:10.000Z</time>
      </trkpt>
      <trkpt lat="47.19131" lon="-1.42007">
        <ele>75</ele>
        <time>2021-01-02T14:10:12.000Z</time>
      </trkpt>
      <trkpt lat="47.19137" lon="-1.42024">
        <ele>75</ele>
        <time>2021-01-02T14:10:14.000Z</time>
      </trkpt>
      <trkpt lat="47.19145" lon="-1.42039">
        <ele>75</ele>
        <time>2021-01-02T14:10:16.000Z</time>
      </trkpt>
      <trkpt lat="47.19153" lon="-1.42054">
        <ele>75</ele>
        <time>2021-01-02T14:10:18.000Z</time>
      </trkpt>
      <trkpt lat="47.19162" lon="-1.42067">
        <ele>75</ele>
        <time>2021-01-02T14:10:20.000Z</time>
      </trkpt>
      <trkpt lat="47.19172" lon="-1.42077">
        <ele>75</ele>
        <time>2021-01-02T14:10:22.000Z</time>
      </trkpt>
      <trkpt lat="47.19183" lon="-1.42087">
        <ele>75</ele>
        <time>2021-01-02T14:10:24.000Z</time>
      </trkpt>
      <trkpt lat="47.19193" lon="-1.42097">
        <ele>75</ele>
        <time>2021-01-02T14:10:26.000Z</time>
      </trkpt>
      <trkpt lat="47.19205" lon="-1.42106">
        <ele>75</ele>
        <time>2021-01-02T14:10:28.000Z</time>
      </trkpt>
      <trkpt lat="47.19216" lon="-1.42114">
        <ele>76</ele>
        <time>2021-01-02T14:10:30.000Z</time>
      </trkpt>
      <trkpt lat="47.19228" lon="-1.42122">
        <ele>76</ele>
        <time>2021-01-02T14:10:32.000Z</time>
      </trkpt>
      <trkpt lat="47.19239" lon="-1.42132">
        <ele>76</ele>
        <time>2021-01-02T14:10:34.000Z</time>
      </trkpt>
      <trkpt lat="47.19249" lon="-1.42141">
        <ele>77</ele>
        <time>2021-01-02T14:10:36.000Z</time>
      </trkpt>
      <trkpt lat="47.1926" lon="-1.42151">
        <ele>77</ele>
        <time>2021-01-02T14:10:38.000Z</time>
      </trkpt>
      <trkpt lat="47.1927" lon="-1.4216">
        <ele>77</ele>
        <time>2021-01-02T14:10:40.000Z</time>
      </trkpt>
      <trkpt lat="47.1928" lon="-1.4217">
        <ele>77</ele>
        <time>2021-01-02T14:10:42.000Z</time>
      </trkpt>
      <trkpt lat="47.1929" lon="-1.4218">
        <ele>78</ele>
        <time>2021-01-02T14:10:44.000Z</time>
      </trkpt>
      <trkpt lat="47.193" lon="-1.42189">
        <ele>78</ele>
        <time>2021-01-02T14:10:46.000Z</time>
      </trkpt>
      <trkpt lat="47.19309" lon="-1.422">
        <ele>78</ele>
        <time>2021-01-02T14:10:48.000Z</time>
      </trkpt>
      <trkpt lat="47.19319" lon="-1.4221">
        <ele>78</ele>
        <time>2021-01-02T14:10:50.000Z</time>
      </trkpt>
      <trkpt lat="47.19328" lon="-1.42221">
        <ele>78</ele>
        <time>2021-01-02T14:10:52.000Z</time>
      </trkpt>
      <trkpt lat="47.19337" lon="-1.42232">
        <ele>77</ele>
        <time>2021-01-02T14:10:54.000Z</time>
      </trkpt>
      <trkpt lat="47.19346" lon="-1.42242">
        <ele>77</ele>
        <time>2021-01-02T14:10:56.000Z</time>
      </trkpt>
      <trkpt lat="47.19355" lon="-1.4225">
        <ele>78</ele>
        <time>2021-01-02T14:10:58.000Z</time>
      </trkpt>
      <trkpt lat="47.19363" lon="-1.42259">
        <ele>78</ele>
        <time>2021-01-02T14:11:00.000Z</time>
      </trkpt>
      <trkpt lat="47.19373" lon="-1.42269">
        <ele>78</ele>
        <time>2021-01-02T14:11:02.000Z</time>
      </trkpt>
      <trkpt lat="47.19381" lon="-1.42279">
        <ele>79</ele>
        <time>2021-01-02T14:11:04.000Z</time>
      </trkpt>
      <trkpt lat="47.19391" lon="-1.42288">
        <ele>79</ele>
        <time>2021-01-02T14:11:06.000Z</time>
      </trkpt>
      <trkpt lat="47.194" lon="-1.42298">
        <ele>78</ele>
        <time>2021-01-02T14:11:08.000Z</time>
      </trkpt>
      <trkpt lat="47.1941" lon="-1.42306">
        <ele>78</ele>
        <time>2021-01-02T14:11:10.000Z</time>
      </trkpt>
      <trkpt lat="47.1942" lon="-1.42315">
        <ele>78</ele>
        <time>2021-01-02T14:11:12.000Z</time>
      </trkpt>
      <trkpt lat="47.1943" lon="-1.42324">
        <ele>78</ele>
        <time>2021-01-02T14:11:14.000Z</time>
      </trkpt>
      <trkpt lat="47.19439" lon="-1.42332">
        <ele>78</ele>
        <time>2021-01-02T14:11:16.000Z</time>
      </trkpt>
      <trkpt lat="47.19448" lon="-1.4234">
        <ele>78</ele>
        <time>2021-01-02T14:11:18.000Z</time>
      </trkpt>
      <trkpt lat="47.19457" lon="-1.42348">
        <ele>78</ele>
        <time>2021-01-02T14:11:20.000Z</time>
      </trkpt>
      <trkpt lat="47.19466" lon="-1.42356">
        <ele>78</ele>
        <time>2021-01-02T14:11:22.000Z</time>
      </trkpt>
      <trkpt lat="47.19476" lon="-1.42364">
        <ele>78</ele>
        <time>2021-01-02T14:11:24.000Z</time>
      </trkpt>
      <trkpt lat="47.19485" lon="-1.42371">
        <ele>78</ele>
        <time>2021-01-02T14:11:26.000Z</time>
      </trkpt>
      <trkpt lat="47.19494" lon="-1.4238">
        <ele>78</ele>
        <time>2021-01-02T14:11:28.000Z</time>
      </trkpt>
      <trkpt lat="47.19503" lon="-1.42389">
        <ele>79</ele>
        <time>2021-01-02T14:11:30.000Z</time>
      </trkpt>
      <trkpt lat="47.19512" lon="-1.42397">
        <ele>79</ele>
        <time>2021-01-02T14:11:32.000Z</time>
      </trkpt>
      <trkpt lat="47.19521" lon="-1.42406">
        <ele>78</ele>
        <time>2021-01-02T14:11:34.000Z</time>
      </trkpt>
      <trkpt lat="47.1953" lon="-1.42415">
        <ele>79</ele>
        <time>2021-01-02T14:11:36.000Z</time>
      </trkpt>
      <trkpt lat="47.19538" lon="-1.42425">
        <ele>78</ele>
        <time>2021-01-02T14:11:38.000Z</time>
      </trkpt>
      <trkpt lat="47.19547" lon="-1.42434">
        <ele>79</ele>
        <time>2021-01-02T14:11:40.000Z</time>
      </trkpt>
      <trkpt lat="47.19555" lon="-1.42444">
        <ele>79</ele>
        <time>2021-01-02T14:11:42.000Z</time>
      </trkpt>
      <trkpt lat="47.19563" lon="-1.42454">
        <ele>79</ele>
        <time>2021-01-02T14:11:44.000Z</time>
      </trkpt>
      <trkpt lat="47.19571" lon="-1.42465">
        <ele>79</ele>
        <time>2021-01-02T14:11:46.000Z</time>
      </trkpt>
      <trkpt lat="47.19579" lon="-1.42476">
        <ele>79</ele>
        <time>2021-01-02T14:11:48.000Z</time>
      </trkpt>
      <trkpt lat="47.19587" lon="-1.42486">
        <ele>79</ele>
        <time>2021-01-02T14:11:50.000Z</time>
      </trkpt>
      <trkpt lat="47.19596" lon="-1.42496">
        <ele>80</ele>
        <time>2021-01-02T14:11:52.000Z</time>
      </trkpt>
      <trkpt lat="47.19604" lon="-1.42506">
        <ele>80</ele>
        <time>2021-01-02T14:11:54.000Z</time>
      </trkpt>
      <trkpt lat="47.19612" lon="-1.42515">
        <ele>81</ele>
        <time>2021-01-02T14:11:56.000Z</time>
      </trkpt>
      <trkpt lat="47.19619" lon="-1.42525">
        <ele>81</ele>
        <time>2021-01-02T14:11:58.000Z</time>
      </trkpt>
      <trkpt lat="47.19626" lon="-1.42535">
        <ele>81</ele>
        <time>2021-01-02T14:12:00.000Z</time>
      </trkpt>
      <trkpt lat="47.19635" lon="-1.42543">
        <ele>81</ele>
        <time>2021-01-02T14:12:02.000Z</time>
      </trkpt>
      <trkpt lat="47.19643" lon="-1.42554">
        <ele>80</ele>
        <time>2021-01-02T14:12:04.000Z</time>
      </trkpt>
      <trkpt lat="47.19651" lon="-1.42564">
        <ele>80</ele>
        <time>2021-01-02T14:12:06.000Z</time>
      </trkpt>
      <trkpt lat="47.19661" lon="-1.42575">
        <ele>80</ele>
        <time>2021-01-02T14:12:08.000Z</time>
      </trkpt>
      <trkpt lat="47.19669" lon="-1.42585">
        <ele>80</ele>
        <time>2021-01-02T14:12:10.000Z</time>
      </trkpt>
      <trkpt lat="47.19679" lon="-1.42597">
        <ele>80</ele>
        <time>2021-01-02T14:12:12.000Z</time>
      </trkpt>
      <trkpt lat="47.19687" lon="-1.42608">
        <ele>80</ele>
        <time>2021-01-02T14:12:14.000Z</time>
      </trkpt>
      <trkpt lat="47.19697" lon="-1.42619">
        <ele>80</ele>
        <time>2021-01-02T14:12:16.000Z</time>
      </trkpt>
      <trkpt lat="47.19707" lon="-1.4263">
        <ele>80</ele>
        <time>2021-01-02T14:12:18.000Z</time>
      </trkpt>
      <trkpt lat="47.19718" lon="-1.42639">
        <ele>80</ele>
        <time>2021-01-02T14:12:20.000Z</time>
      </trkpt>
      <trkpt lat="47.1973" lon="-1.42646">
        <ele>80</ele>
        <time>2021-01-02T14:12:22.000Z</time>
      </trkpt>
      <trkpt lat="47.19742" lon="-1.42653">
        <ele>80</ele>
        <time>2021-01-02T14:12:24.000Z</time>
      </trkpt>
      <trkpt lat="47.19754" lon="-1.42656">
        <ele>81</ele>
        <time>2021-01-02T14:12:26.000Z</time>
      </trkpt>
      <trkpt lat="47.19765" lon="-1.42661">
        <ele>80</ele>
        <time>2021-01-02T14:12:28.000Z</time>
      </trkpt>
      <trkpt lat="47.19776" lon="-1.42665">
        <ele>80</ele>
        <time>2021-01-02T14:12:30.000Z</time>
      </trkpt>
      <trkpt lat="47.19789" lon="-1.42671">
        <ele>80</ele>
        <time>2021-01-02T14:12:32.000Z</time>
      </trkpt>
      <trkpt lat="47.198" lon="-1.42678">
        <ele>80</ele>
        <time>2021-01-02T14:12:34.000Z</time>
      </trkpt>
      <trkpt lat="47.1981" lon="-1.42686">
        <ele>80</ele>
        <time>2021-01-02T14:12:36.000Z</time>
      </trkpt>
      <trkpt lat="47.1982" lon="-1.42693">
        <ele>80</ele>
        <time>2021-01-02T14:12:38.000Z</time>
      </trkpt>
      <trkpt lat="47.19829" lon="-1.42699">
        <ele>80</ele>
        <time>2021-01-02T14:12:40.000Z</time>
      </trkpt>
      <trkpt lat="47.1984" lon="-1.42701">
        <ele>80</ele>
        <time>2021-01-02T14:12:43.000Z</time>
      </trkpt>
      <trkpt lat="47.19848" lon="-1.4271">
        <ele>80</ele>
        <time>2021-01-02T14:12:46.000Z</time>
      </trkpt>
      <trkpt lat="47.1985" lon="-1.42725">
        <ele>79</ele>
        <time>2021-01-02T14:12:48.000Z</time>
      </trkpt>
      <trkpt lat="47.19852" lon="-1.4274">
        <ele>78</ele>
        <time>2021-01-02T14:12:50.000Z</time>
      </trkpt>
      <trkpt lat="47.19854" lon="-1.42756">
        <ele>78</ele>
        <time>2021-01-02T14:12:52.000Z</time>
      </trkpt>
      <trkpt lat="47.19857" lon="-1.42775">
        <ele>77</ele>
        <time>2021-01-02T14:12:54.000Z</time>
      </trkpt>
      <trkpt lat="47.19861" lon="-1.42792">
        <ele>76</ele>
        <time>2021-01-02T14:12:56.000Z</time>
      </trkpt>
      <trkpt lat="47.19867" lon="-1.42808">
        <ele>76</ele>
        <time>2021-01-02T14:12:58.000Z</time>
      </trkpt>
      <trkpt lat="47.19873" lon="-1.42824">
        <ele>75</ele>
        <time>2021-01-02T14:13:00.000Z</time>
      </trkpt>
      <trkpt lat="47.19879" lon="-1.42841">
        <ele>75</ele>
        <time>2021-01-02T14:13:02.000Z</time>
      </trkpt>
      <trkpt lat="47.19884" lon="-1.42858">
        <ele>74</ele>
        <time>2021-01-02T14:13:04.000Z</time>
      </trkpt>
      <trkpt lat="47.19887" lon="-1.42877">
        <ele>73</ele>
        <time>2021-01-02T14:13:06.000Z</time>
      </trkpt>
      <trkpt lat="47.19891" lon="-1.42896">
        <ele>72</ele>
        <time>2021-01-02T14:13:08.000Z</time>
      </trkpt>
      <trkpt lat="47.19895" lon="-1.42915">
        <ele>70</ele>
        <time>2021-01-02T14:13:10.000Z</time>
      </trkpt>
      <trkpt lat="47.19902" lon="-1.42926">
        <ele>72</ele>
        <time>2021-01-02T14:13:12.000Z</time>
      </trkpt>
      <trkpt lat="47.19914" lon="-1.42927">
        <ele>73</ele>
        <time>2021-01-02T14:13:14.000Z</time>
      </trkpt>
      <trkpt lat="47.19922" lon="-1.42942">
        <ele>73</ele>
        <time>2021-01-02T14:13:16.000Z</time>
      </trkpt>
      <trkpt lat="47.19925" lon="-1.42959">
        <ele>72</ele>
        <time>2021-01-02T14:13:18.000Z</time>
      </trkpt>
      <trkpt lat="47.19926" lon="-1.42978">
        <ele>71</ele>
        <time>2021-01-02T14:13:20.000Z</time>
      </trkpt>
      <trkpt lat="47.19923" lon="-1.42998">
        <ele>70</ele>
        <time>2021-01-02T14:13:22.000Z</time>
      </trkpt>
      <trkpt lat="47.19915" lon="-1.43015">
        <ele>69</ele>
        <time>2021-01-02T14:13:24.000Z</time>
      </trkpt>
      <trkpt lat="47.19904" lon="-1.43022">
        <ele>69</ele>
        <time>2021-01-02T14:13:26.000Z</time>
      </trkpt>
      <trkpt lat="47.19892" lon="-1.43024">
        <ele>68</ele>
        <time>2021-01-02T14:13:28.000Z</time>
      </trkpt>
      <trkpt lat="47.19886" lon="-1.43036">
        <ele>67</ele>
        <time>2021-01-02T14:13:30.000Z</time>
      </trkpt>
      <trkpt lat="47.19886" lon="-1.43055">
        <ele>67</ele>
        <time>2021-01-02T14:13:32.000Z</time>
      </trkpt>
      <trkpt lat="47.19888" lon="-1.43075">
        <ele>68</ele>
        <time>2021-01-02T14:13:34.000Z</time>
      </trkpt>
      <trkpt lat="47.1989" lon="-1.43095">
        <ele>68</ele>
        <time>2021-01-02T14:13:36.000Z</time>
      </trkpt>
      <trkpt lat="47.19893" lon="-1.43114">
        <ele>68</ele>
        <time>2021-01-02T14:13:38.000Z</time>
      </trkpt>
      <trkpt lat="47.19896" lon="-1.43133">
        <ele>69</ele>
        <time>2021-01-02T14:13:40.000Z</time>
      </trkpt>
      <trkpt lat="47.19898" lon="-1.43152">
        <ele>69</ele>
        <time>2021-01-02T14:13:42.000Z</time>
      </trkpt>
      <trkpt lat="47.19901" lon="-1.43171">
        <ele>69</ele>
        <time>2021-01-02T14:13:44.000Z</time>
      </trkpt>
      <trkpt lat="47.19903" lon="-1.4319">
        <ele>69</ele>
        <time>2021-01-02T14:13:46.000Z</time>
      </trkpt>
      <trkpt lat="47.19905" lon="-1.43209">
        <ele>69</ele>
        <time>2021-01-02T14:13:48.000Z</time>
      </trkpt>
      <trkpt lat="47.19907" lon="-1.43228">
        <ele>69</ele>
        <time>2021-01-02T14:13:50.000Z</time>
      </trkpt>
      <trkpt lat="47.19908" lon="-1.43246">
        <ele>69</ele>
        <time>2021-01-02T14:13:52.000Z</time>
      </trkpt>
      <trkpt lat="47.19911" lon="-1.43265">
        <ele>69</ele>
        <time>2021-01-02T14:13:54.000Z</time>
      </trkpt>
      <trkpt lat="47.19913" lon="-1.43284">
        <ele>69</ele>
        <time>2021-01-02T14:13:56.000Z</time>
      </trkpt>
      <trkpt lat="47.19916" lon="-1.433">
        <ele>69</ele>
        <time>2021-01-02T14:13:58.000Z</time>
      </trkpt>
      <trkpt lat="47.19917" lon="-1.43316">
        <ele>70</ele>
        <time>2021-01-02T14:14:00.000Z</time>
      </trkpt>
      <trkpt lat="47.19908" lon="-1.4333">
        <ele>69</ele>
        <time>2021-01-02T14:14:02.000Z</time>
      </trkpt>
      <trkpt lat="47.19901" lon="-1.43345">
        <ele>69</ele>
        <time>2021-01-02T14:14:04.000Z</time>
      </trkpt>
      <trkpt lat="47.19897" lon="-1.43364">
        <ele>69</ele>
        <time>2021-01-02T14:14:06.000Z</time>
      </trkpt>
      <trkpt lat="47.19892" lon="-1.43381">
        <ele>69</ele>
        <time>2021-01-02T14:14:08.000Z</time>
      </trkpt>
      <trkpt lat="47.19889" lon="-1.43399">
        <ele>69</ele>
        <time>2021-01-02T14:14:10.000Z</time>
      </trkpt>
      <trkpt lat="47.19885" lon="-1.43416">
        <ele>69</ele>
        <time>2021-01-02T14:14:12.000Z</time>
      </trkpt>
      <trkpt lat="47.19881" lon="-1.43433">
        <ele>70</ele>
        <time>2021-01-02T14:14:14.000Z</time>
      </trkpt>
      <trkpt lat="47.19877" lon="-1.4345">
        <ele>70</ele>
        <time>2021-01-02T14:14:16.000Z</time>
      </trkpt>
      <trkpt lat="47.19873" lon="-1.43467">
        <ele>70</ele>
        <time>2021-01-02T14:14:18.000Z</time>
      </trkpt>
      <trkpt lat="47.19871" lon="-1.43483">
        <ele>71</ele>
        <time>2021-01-02T14:14:20.000Z</time>
      </trkpt>
      <trkpt lat="47.19867" lon="-1.43499">
        <ele>71</ele>
        <time>2021-01-02T14:14:22.000Z</time>
      </trkpt>
      <trkpt lat="47.19865" lon="-1.43517">
        <ele>72</ele>
        <time>2021-01-02T14:14:24.000Z</time>
      </trkpt>
      <trkpt lat="47.19864" lon="-1.43535">
        <ele>72</ele>
        <time>2021-01-02T14:14:26.000Z</time>
      </trkpt>
      <trkpt lat="47.19863" lon="-1.4355">
        <ele>72</ele>
        <time>2021-01-02T14:14:28.000Z</time>
      </trkpt>
      <trkpt lat="47.19863" lon="-1.43566">
        <ele>72</ele>
        <time>2021-01-02T14:14:30.000Z</time>
      </trkpt>
      <trkpt lat="47.19863" lon="-1.43581">
        <ele>73</ele>
        <time>2021-01-02T14:14:32.000Z</time>
      </trkpt>
      <trkpt lat="47.19864" lon="-1.43598">
        <ele>73</ele>
        <time>2021-01-02T14:14:34.000Z</time>
      </trkpt>
      <trkpt lat="47.19865" lon="-1.43614">
        <ele>73</ele>
        <time>2021-01-02T14:14:36.000Z</time>
      </trkpt>
      <trkpt lat="47.19867" lon="-1.4363">
        <ele>74</ele>
        <time>2021-01-02T14:14:38.000Z</time>
      </trkpt>
      <trkpt lat="47.19869" lon="-1.43645">
        <ele>74</ele>
        <time>2021-01-02T14:14:40.000Z</time>
      </trkpt>
      <trkpt lat="47.19871" lon="-1.43661">
        <ele>75</ele>
        <time>2021-01-02T14:14:42.000Z</time>
      </trkpt>
      <trkpt lat="47.19874" lon="-1.43676">
        <ele>75</ele>
        <time>2021-01-02T14:14:44.000Z</time>
      </trkpt>
      <trkpt lat="47.19878" lon="-1.43691">
        <ele>76</ele>
        <time>2021-01-02T14:14:46.000Z</time>
      </trkpt>
      <trkpt lat="47.19881" lon="-1.43705">
        <ele>76</ele>
        <time>2021-01-02T14:14:48.000Z</time>
      </trkpt>
      <trkpt lat="47.19885" lon="-1.43719">
        <ele>76</ele>
        <time>2021-01-02T14:14:50.000Z</time>
      </trkpt>
      <trkpt lat="47.19889" lon="-1.43732">
        <ele>76</ele>
        <time>2021-01-02T14:14:52.000Z</time>
      </trkpt>
      <trkpt lat="47.19896" lon="-1.43754">
        <ele>77</ele>
        <time>2021-01-02T14:14:55.000Z</time>
      </trkpt>
      <trkpt lat="47.199" lon="-1.43768">
        <ele>76</ele>
        <time>2021-01-02T14:14:57.000Z</time>
      </trkpt>
      <trkpt lat="47.19908" lon="-1.43788">
        <ele>76</ele>
        <time>2021-01-02T14:15:00.000Z</time>
      </trkpt>
      <trkpt lat="47.19914" lon="-1.43801">
        <ele>75</ele>
        <time>2021-01-02T14:15:02.000Z</time>
      </trkpt>
      <trkpt lat="47.19922" lon="-1.43813">
        <ele>75</ele>
        <time>2021-01-02T14:15:04.000Z</time>
      </trkpt>
      <trkpt lat="47.19928" lon="-1.43829">
        <ele>74</ele>
        <time>2021-01-02T14:15:06.000Z</time>
      </trkpt>
      <trkpt lat="47.19931" lon="-1.43847">
        <ele>74</ele>
        <time>2021-01-02T14:15:08.000Z</time>
      </trkpt>
      <trkpt lat="47.19936" lon="-1.43865">
        <ele>74</ele>
        <time>2021-01-02T14:15:10.000Z</time>
      </trkpt>
      <trkpt lat="47.19943" lon="-1.43882">
        <ele>74</ele>
        <time>2021-01-02T14:15:12.000Z</time>
      </trkpt>
      <trkpt lat="47.1995" lon="-1.439">
        <ele>74</ele>
        <time>2021-01-02T14:15:14.000Z</time>
      </trkpt>
      <trkpt lat="47.19957" lon="-1.43917">
        <ele>74</ele>
        <time>2021-01-02T14:15:16.000Z</time>
      </trkpt>
      <trkpt lat="47.19963" lon="-1.43935">
        <ele>74</ele>
        <time>2021-01-02T14:15:18.000Z</time>
      </trkpt>
      <trkpt lat="47.19969" lon="-1.43954">
        <ele>73</ele>
        <time>2021-01-02T14:15:20.000Z</time>
      </trkpt>
      <trkpt lat="47.19974" lon="-1.43973">
        <ele>73</ele>
        <time>2021-01-02T14:15:22.000Z</time>
      </trkpt>
      <trkpt lat="47.19979" lon="-1.43992">
        <ele>73</ele>
        <time>2021-01-02T14:15:24.000Z</time>
      </trkpt>
      <trkpt lat="47.19983" lon="-1.44012">
        <ele>72</ele>
        <time>2021-01-02T14:15:26.000Z</time>
      </trkpt>
      <trkpt lat="47.19986" lon="-1.44033">
        <ele>72</ele>
        <time>2021-01-02T14:15:28.000Z</time>
      </trkpt>
      <trkpt lat="47.19989" lon="-1.44052">
        <ele>71</ele>
        <time>2021-01-02T14:15:30.000Z</time>
      </trkpt>
      <trkpt lat="47.19993" lon="-1.44082">
        <ele>71</ele>
        <time>2021-01-02T14:15:33.000Z</time>
      </trkpt>
      <trkpt lat="47.19995" lon="-1.44102">
        <ele>72</ele>
        <time>2021-01-02T14:15:35.000Z</time>
      </trkpt>
      <trkpt lat="47.19999" lon="-1.44121">
        <ele>72</ele>
        <time>2021-01-02T14:15:37.000Z</time>
      </trkpt>
      <trkpt lat="47.20001" lon="-1.44141">
        <ele>71</ele>
        <time>2021-01-02T14:15:39.000Z</time>
      </trkpt>
      <trkpt lat="47.20003" lon="-1.4416">
        <ele>71</ele>
        <time>2021-01-02T14:15:41.000Z</time>
      </trkpt>
      <trkpt lat="47.20007" lon="-1.44179">
        <ele>71</ele>
        <time>2021-01-02T14:15:43.000Z</time>
      </trkpt>
      <trkpt lat="47.2001" lon="-1.44198">
        <ele>71</ele>
        <time>2021-01-02T14:15:45.000Z</time>
      </trkpt>
      <trkpt lat="47.20014" lon="-1.44216">
        <ele>71</ele>
        <time>2021-01-02T14:15:47.000Z</time>
      </trkpt>
      <trkpt lat="47.20019" lon="-1.44234">
        <ele>71</ele>
        <time>2021-01-02T14:15:49.000Z</time>
      </trkpt>
      <trkpt lat="47.20024" lon="-1.44251">
        <ele>72</ele>
        <time>2021-01-02T14:15:51.000Z</time>
      </trkpt>
      <trkpt lat="47.20028" lon="-1.44268">
        <ele>72</ele>
        <time>2021-01-02T14:15:53.000Z</time>
      </trkpt>
      <trkpt lat="47.20035" lon="-1.44295">
        <ele>72</ele>
        <time>2021-01-02T14:15:56.000Z</time>
      </trkpt>
      <trkpt lat="47.20039" lon="-1.44312">
        <ele>72</ele>
        <time>2021-01-02T14:15:58.000Z</time>
      </trkpt>
      <trkpt lat="47.20043" lon="-1.44338">
        <ele>72</ele>
        <time>2021-01-02T14:16:01.000Z</time>
      </trkpt>
      <trkpt lat="47.20045" lon="-1.44355">
        <ele>72</ele>
        <time>2021-01-02T14:16:03.000Z</time>
      </trkpt>
      <trkpt lat="47.20047" lon="-1.44372">
        <ele>72</ele>
        <time>2021-01-02T14:16:05.000Z</time>
      </trkpt>
      <trkpt lat="47.20049" lon="-1.4439">
        <ele>71</ele>
        <time>2021-01-02T14:16:07.000Z</time>
      </trkpt>
      <trkpt lat="47.20052" lon="-1.44408">
        <ele>72</ele>
        <time>2021-01-02T14:16:09.000Z</time>
      </trkpt>
      <trkpt lat="47.20055" lon="-1.44433">
        <ele>72</ele>
        <time>2021-01-02T14:16:12.000Z</time>
      </trkpt>
      <trkpt lat="47.20059" lon="-1.44452">
        <ele>71</ele>
        <time>2021-01-02T14:16:14.000Z</time>
      </trkpt>
      <trkpt lat="47.20065" lon="-1.4447">
        <ele>71</ele>
        <time>2021-01-02T14:16:16.000Z</time>
      </trkpt>
      <trkpt lat="47.20078" lon="-1.44497">
        <ele>70</ele>
        <time>2021-01-02T14:16:19.000Z</time>
      </trkpt>
      <trkpt lat="47.20088" lon="-1.44513">
        <ele>69</ele>
        <time>2021-01-02T14:16:21.000Z</time>
      </trkpt>
      <trkpt lat="47.20098" lon="-1.4453">
        <ele>68</ele>
        <time>2021-01-02T14:16:23.000Z</time>
      </trkpt>
      <trkpt lat="47.20114" lon="-1.44556">
        <ele>66</ele>
        <time>2021-01-02T14:16:26.000Z</time>
      </trkpt>
      <trkpt lat="47.20124" lon="-1.44574">
        <ele>65</ele>
        <time>2021-01-02T14:16:28.000Z</time>
      </trkpt>
      <trkpt lat="47.20133" lon="-1.44593">
        <ele>65</ele>
        <time>2021-01-02T14:16:30.000Z</time>
      </trkpt>
      <trkpt lat="47.20145" lon="-1.44622">
        <ele>64</ele>
        <time>2021-01-02T14:16:33.000Z</time>
      </trkpt>
      <trkpt lat="47.20155" lon="-1.44652">
        <ele>63</ele>
        <time>2021-01-02T14:16:36.000Z</time>
      </trkpt>
      <trkpt lat="47.20167" lon="-1.44682">
        <ele>62</ele>
        <time>2021-01-02T14:16:39.000Z</time>
      </trkpt>
      <trkpt lat="47.20183" lon="-1.44705">
        <ele>62</ele>
        <time>2021-01-02T14:16:42.000Z</time>
      </trkpt>
      <trkpt lat="47.20187" lon="-1.44727">
        <ele>62</ele>
        <time>2021-01-02T14:16:44.000Z</time>
      </trkpt>
      <trkpt lat="47.20177" lon="-1.44754">
        <ele>62</ele>
        <time>2021-01-02T14:16:47.000Z</time>
      </trkpt>
      <trkpt lat="47.20166" lon="-1.44762">
        <ele>62</ele>
        <time>2021-01-02T14:16:49.000Z</time>
      </trkpt>
      <trkpt lat="47.20152" lon="-1.44765">
        <ele>62</ele>
        <time>2021-01-02T14:16:51.000Z</time>
      </trkpt>
      <trkpt lat="47.20141" lon="-1.44774">
        <ele>62</ele>
        <time>2021-01-02T14:16:53.000Z</time>
      </trkpt>
      <trkpt lat="47.20132" lon="-1.44785">
        <ele>63</ele>
        <time>2021-01-02T14:16:55.000Z</time>
      </trkpt>
      <trkpt lat="47.20125" lon="-1.44797">
        <ele>63</ele>
        <time>2021-01-02T14:16:57.000Z</time>
      </trkpt>
      <trkpt lat="47.20117" lon="-1.44809">
        <ele>64</ele>
        <time>2021-01-02T14:16:59.000Z</time>
      </trkpt>
      <trkpt lat="47.20108" lon="-1.44822">
        <ele>64</ele>
        <time>2021-01-02T14:17:01.000Z</time>
      </trkpt>
      <trkpt lat="47.20099" lon="-1.44835">
        <ele>64</ele>
        <time>2021-01-02T14:17:03.000Z</time>
      </trkpt>
      <trkpt lat="47.2009" lon="-1.44848">
        <ele>64</ele>
        <time>2021-01-02T14:17:05.000Z</time>
      </trkpt>
      <trkpt lat="47.20081" lon="-1.44861">
        <ele>64</ele>
        <time>2021-01-02T14:17:07.000Z</time>
      </trkpt>
      <trkpt lat="47.20073" lon="-1.44874">
        <ele>65</ele>
        <time>2021-01-02T14:17:09.000Z</time>
      </trkpt>
      <trkpt lat="47.20065" lon="-1.44887">
        <ele>66</ele>
        <time>2021-01-02T14:17:11.000Z</time>
      </trkpt>
      <trkpt lat="47.20057" lon="-1.449">
        <ele>67</ele>
        <time>2021-01-02T14:17:13.000Z</time>
      </trkpt>
      <trkpt lat="47.20049" lon="-1.44913">
        <ele>68</ele>
        <time>2021-01-02T14:17:15.000Z</time>
      </trkpt>
      <trkpt lat="47.20042" lon="-1.44927">
        <ele>68</ele>
        <time>2021-01-02T14:17:17.000Z</time>
      </trkpt>
      <trkpt lat="47.20034" lon="-1.4494">
        <ele>69</ele>
        <time>2021-01-02T14:17:19.000Z</time>
      </trkpt>
      <trkpt lat="47.20027" lon="-1.44954">
        <ele>69</ele>
        <time>2021-01-02T14:17:21.000Z</time>
      </trkpt>
      <trkpt lat="47.20021" lon="-1.44968">
        <ele>69</ele>
        <time>2021-01-02T14:17:23.000Z</time>
      </trkpt>
      <trkpt lat="47.20018" lon="-1.44981">
        <ele>69</ele>
        <time>2021-01-02T14:17:25.000Z</time>
      </trkpt>
      <trkpt lat="47.20016" lon="-1.45002">
        <ele>70</ele>
        <time>2021-01-02T14:17:29.000Z</time>
      </trkpt>
      <trkpt lat="47.20018" lon="-1.45018">
        <ele>70</ele>
        <time>2021-01-02T14:17:32.000Z</time>
      </trkpt>
      <trkpt lat="47.20009" lon="-1.45032">
        <ele>71</ele>
        <time>2021-01-02T14:17:35.000Z</time>
      </trkpt>
      <trkpt lat="47.2" lon="-1.4504">
        <ele>71</ele>
        <time>2021-01-02T14:17:37.000Z</time>
      </trkpt>
      <trkpt lat="47.19991" lon="-1.45048">
        <ele>71</ele>
        <time>2021-01-02T14:17:39.000Z</time>
      </trkpt>
      <trkpt lat="47.19981" lon="-1.45056">
        <ele>71</ele>
        <time>2021-01-02T14:17:41.000Z</time>
      </trkpt>
      <trkpt lat="47.19973" lon="-1.45065">
        <ele>71</ele>
        <time>2021-01-02T14:17:43.000Z</time>
      </trkpt>
      <trkpt lat="47.19965" lon="-1.45075">
        <ele>72</ele>
        <time>2021-01-02T14:17:45.000Z</time>
      </trkpt>
      <trkpt lat="47.19958" lon="-1.45086">
        <ele>72</ele>
        <time>2021-01-02T14:17:47.000Z</time>
      </trkpt>
      <trkpt lat="47.19951" lon="-1.45099">
        <ele>72</ele>
        <time>2021-01-02T14:17:49.000Z</time>
      </trkpt>
      <trkpt lat="47.19945" lon="-1.45111">
        <ele>73</ele>
        <time>2021-01-02T14:17:51.000Z</time>
      </trkpt>
      <trkpt lat="47.19938" lon="-1.45125">
        <ele>74</ele>
        <time>2021-01-02T14:17:53.000Z</time>
      </trkpt>
      <trkpt lat="47.19933" lon="-1.45137">
        <ele>74</ele>
        <time>2021-01-02T14:17:55.000Z</time>
      </trkpt>
      <trkpt lat="47.19926" lon="-1.45152">
        <ele>75</ele>
        <time>2021-01-02T14:17:57.000Z</time>
      </trkpt>
      <trkpt lat="47.1992" lon="-1.45165">
        <ele>75</ele>
        <time>2021-01-02T14:17:59.000Z</time>
      </trkpt>
      <trkpt lat="47.19913" lon="-1.45178">
        <ele>75</ele>
        <time>2021-01-02T14:18:01.000Z</time>
      </trkpt>
      <trkpt lat="47.19907" lon="-1.45191">
        <ele>74</ele>
        <time>2021-01-02T14:18:03.000Z</time>
      </trkpt>
      <trkpt lat="47.199" lon="-1.45203">
        <ele>74</ele>
        <time>2021-01-02T14:18:05.000Z</time>
      </trkpt>
      <trkpt lat="47.19893" lon="-1.45216">
        <ele>74</ele>
        <time>2021-01-02T14:18:07.000Z</time>
      </trkpt>
      <trkpt lat="47.19888" lon="-1.45229">
        <ele>74</ele>
        <time>2021-01-02T14:18:09.000Z</time>
      </trkpt>
      <trkpt lat="47.19882" lon="-1.45242">
        <ele>74</ele>
        <time>2021-01-02T14:18:11.000Z</time>
      </trkpt>
      <trkpt lat="47.19876" lon="-1.45255">
        <ele>74</ele>
        <time>2021-01-02T14:18:13.000Z</time>
      </trkpt>
      <trkpt lat="47.19869" lon="-1.45268">
        <ele>74</ele>
        <time>2021-01-02T14:18:15.000Z</time>
      </trkpt>
      <trkpt lat="47.19863" lon="-1.4528">
        <ele>74</ele>
        <time>2021-01-02T14:18:17.000Z</time>
      </trkpt>
      <trkpt lat="47.19858" lon="-1.45294">
        <ele>75</ele>
        <time>2021-01-02T14:18:19.000Z</time>
      </trkpt>
      <trkpt lat="47.19852" lon="-1.45308">
        <ele>75</ele>
        <time>2021-01-02T14:18:21.000Z</time>
      </trkpt>
      <trkpt lat="47.19847" lon="-1.4532">
        <ele>76</ele>
        <time>2021-01-02T14:18:23.000Z</time>
      </trkpt>
      <trkpt lat="47.19843" lon="-1.45333">
        <ele>76</ele>
        <time>2021-01-02T14:18:25.000Z</time>
      </trkpt>
      <trkpt lat="47.19837" lon="-1.45344">
        <ele>76</ele>
        <time>2021-01-02T14:18:27.000Z</time>
      </trkpt>
      <trkpt lat="47.19832" lon="-1.45357">
        <ele>76</ele>
        <time>2021-01-02T14:18:29.000Z</time>
      </trkpt>
      <trkpt lat="47.19831" lon="-1.45376">
        <ele>76</ele>
        <time>2021-01-02T14:18:32.000Z</time>
      </trkpt>
      <trkpt lat="47.19829" lon="-1.45395">
        <ele>77</ele>
        <time>2021-01-02T14:18:35.000Z</time>
      </trkpt>
      <trkpt lat="47.19821" lon="-1.45404">
        <ele>77</ele>
        <time>2021-01-02T14:18:37.000Z</time>
      </trkpt>
      <trkpt lat="47.19811" lon="-1.45411">
        <ele>76</ele>
        <time>2021-01-02T14:18:39.000Z</time>
      </trkpt>
      <trkpt lat="47.19801" lon="-1.45416">
        <ele>76</ele>
        <time>2021-01-02T14:18:41.000Z</time>
      </trkpt>
      <trkpt lat="47.19792" lon="-1.45425">
        <ele>75</ele>
        <time>2021-01-02T14:18:43.000Z</time>
      </trkpt>
      <trkpt lat="47.19784" lon="-1.45438">
        <ele>75</ele>
        <time>2021-01-02T14:18:45.000Z</time>
      </trkpt>
      <trkpt lat="47.19776" lon="-1.45453">
        <ele>75</ele>
        <time>2021-01-02T14:18:47.000Z</time>
      </trkpt>
      <trkpt lat="47.19769" lon="-1.45466">
        <ele>75</ele>
        <time>2021-01-02T14:18:49.000Z</time>
      </trkpt>
      <trkpt lat="47.19761" lon="-1.45481">
        <ele>75</ele>
        <time>2021-01-02T14:18:51.000Z</time>
      </trkpt>
      <trkpt lat="47.19754" lon="-1.45496">
        <ele>75</ele>
        <time>2021-01-02T14:18:53.000Z</time>
      </trkpt>
      <trkpt lat="47.19746" lon="-1.45511">
        <ele>75</ele>
        <time>2021-01-02T14:18:55.000Z</time>
      </trkpt>
      <trkpt lat="47.19739" lon="-1.45527">
        <ele>75</ele>
        <time>2021-01-02T14:18:57.000Z</time>
      </trkpt>
      <trkpt lat="47.19731" lon="-1.45543">
        <ele>74</ele>
        <time>2021-01-02T14:18:59.000Z</time>
      </trkpt>
      <trkpt lat="47.19723" lon="-1.45559">
        <ele>74</ele>
        <time>2021-01-02T14:19:01.000Z</time>
      </trkpt>
      <trkpt lat="47.19716" lon="-1.45575">
        <ele>74</ele>
        <time>2021-01-02T14:19:03.000Z</time>
      </trkpt>
      <trkpt lat="47.19708" lon="-1.45592">
        <ele>74</ele>
        <time>2021-01-02T14:19:05.000Z</time>
      </trkpt>
      <trkpt lat="47.19699" lon="-1.45608">
        <ele>73</ele>
        <time>2021-01-02T14:19:07.000Z</time>
      </trkpt>
      <trkpt lat="47.19691" lon="-1.45626">
        <ele>72</ele>
        <time>2021-01-02T14:19:09.000Z</time>
      </trkpt>
      <trkpt lat="47.19683" lon="-1.45644">
        <ele>72</ele>
        <time>2021-01-02T14:19:11.000Z</time>
      </trkpt>
      <trkpt lat="47.19674" lon="-1.45662">
        <ele>71</ele>
        <time>2021-01-02T14:19:13.000Z</time>
      </trkpt>
      <trkpt lat="47.19665" lon="-1.45681">
        <ele>71</ele>
        <time>2021-01-02T14:19:15.000Z</time>
      </trkpt>
      <trkpt lat="47.19656" lon="-1.457">
        <ele>70</ele>
        <time>2021-01-02T14:19:17.000Z</time>
      </trkpt>
      <trkpt lat="47.19648" lon="-1.45718">
        <ele>70</ele>
        <time>2021-01-02T14:19:19.000Z</time>
      </trkpt>
      <trkpt lat="47.19639" lon="-1.45736">
        <ele>70</ele>
        <time>2021-01-02T14:19:21.000Z</time>
      </trkpt>
      <trkpt lat="47.19632" lon="-1.45755">
        <ele>70</ele>
        <time>2021-01-02T14:19:23.000Z</time>
      </trkpt>
      <trkpt lat="47.19626" lon="-1.45775">
        <ele>71</ele>
        <time>2021-01-02T14:19:25.000Z</time>
      </trkpt>
      <trkpt lat="47.19617" lon="-1.4579">
        <ele>69</ele>
        <time>2021-01-02T14:19:27.000Z</time>
      </trkpt>
      <trkpt lat="47.19607" lon="-1.45805">
        <ele>69</ele>
        <time>2021-01-02T14:19:29.000Z</time>
      </trkpt>
      <trkpt lat="47.19598" lon="-1.45823">
        <ele>68</ele>
        <time>2021-01-02T14:19:31.000Z</time>
      </trkpt>
      <trkpt lat="47.1959" lon="-1.45841">
        <ele>69</ele>
        <time>2021-01-02T14:19:33.000Z</time>
      </trkpt>
      <trkpt lat="47.19581" lon="-1.45859">
        <ele>70</ele>
        <time>2021-01-02T14:19:35.000Z</time>
      </trkpt>
      <trkpt lat="47.19572" lon="-1.45876">
        <ele>70</ele>
        <time>2021-01-02T14:19:37.000Z</time>
      </trkpt>
      <trkpt lat="47.19564" lon="-1.45893">
        <ele>70</ele>
        <time>2021-01-02T14:19:39.000Z</time>
      </trkpt>
      <trkpt lat="47.19557" lon="-1.45911">
        <ele>70</ele>
        <time>2021-01-02T14:19:41.000Z</time>
      </trkpt>
      <trkpt lat="47.19548" lon="-1.45928">
        <ele>71</ele>
        <time>2021-01-02T14:19:43.000Z</time>
      </trkpt>
      <trkpt lat="47.1954" lon="-1.45945">
        <ele>71</ele>
        <time>2021-01-02T14:19:45.000Z</time>
      </trkpt>
      <trkpt lat="47.19532" lon="-1.45961">
        <ele>71</ele>
        <time>2021-01-02T14:19:47.000Z</time>
      </trkpt>
      <trkpt lat="47.19525" lon="-1.45978">
        <ele>72</ele>
        <time>2021-01-02T14:19:49.000Z</time>
      </trkpt>
      <trkpt lat="47.19517" lon="-1.45994">
        <ele>73</ele>
        <time>2021-01-02T14:19:51.000Z</time>
      </trkpt>
      <trkpt lat="47.19509" lon="-1.4601">
        <ele>73</ele>
        <time>2021-01-02T14:19:53.000Z</time>
      </trkpt>
      <trkpt lat="47.19501" lon="-1.46026">
        <ele>74</ele>
        <time>2021-01-02T14:19:55.000Z</time>
      </trkpt>
      <trkpt lat="47.19493" lon="-1.46043">
        <ele>75</ele>
        <time>2021-01-02T14:19:57.000Z</time>
      </trkpt>
      <trkpt lat="47.19486" lon="-1.46059">
        <ele>75</ele>
        <time>2021-01-02T14:19:59.000Z</time>
      </trkpt>
      <trkpt lat="47.19478" lon="-1.46075">
        <ele>75</ele>
        <time>2021-01-02T14:20:01.000Z</time>
      </trkpt>
      <trkpt lat="47.1947" lon="-1.46092">
        <ele>75</ele>
        <time>2021-01-02T14:20:03.000Z</time>
      </trkpt>
      <trkpt lat="47.19462" lon="-1.46108">
        <ele>76</ele>
        <time>2021-01-02T14:20:05.000Z</time>
      </trkpt>
      <trkpt lat="47.19454" lon="-1.46125">
        <ele>76</ele>
        <time>2021-01-02T14:20:07.000Z</time>
      </trkpt>
      <trkpt lat="47.19446" lon="-1.46141">
        <ele>76</ele>
        <time>2021-01-02T14:20:09.000Z</time>
      </trkpt>
      <trkpt lat="47.19438" lon="-1.46158">
        <ele>77</ele>
        <time>2021-01-02T14:20:11.000Z</time>
      </trkpt>
      <trkpt lat="47.19431" lon="-1.46174">
        <ele>77</ele>
        <time>2021-01-02T14:20:13.000Z</time>
      </trkpt>
      <trkpt lat="47.19424" lon="-1.46191">
        <ele>77</ele>
        <time>2021-01-02T14:20:15.000Z</time>
      </trkpt>
      <trkpt lat="47.19417" lon="-1.46206">
        <ele>78</ele>
        <time>2021-01-02T14:20:17.000Z</time>
      </trkpt>
      <trkpt lat="47.19409" lon="-1.46222">
        <ele>78</ele>
        <time>2021-01-02T14:20:19.000Z</time>
      </trkpt>
      <trkpt lat="47.19402" lon="-1.46238">
        <ele>78</ele>
        <time>2021-01-02T14:20:21.000Z</time>
      </trkpt>
      <trkpt lat="47.19395" lon="-1.46254">
        <ele>78</ele>
        <time>2021-01-02T14:20:23.000Z</time>
      </trkpt>
      <trkpt lat="47.19389" lon="-1.46269">
        <ele>79</ele>
        <time>2021-01-02T14:20:25.000Z</time>
      </trkpt>
      <trkpt lat="47.19383" lon="-1.46284">
        <ele>79</ele>
        <time>2021-01-02T14:20:27.000Z</time>
      </trkpt>
      <trkpt lat="47.1938" lon="-1.46298">
        <ele>80</ele>
        <time>2021-01-02T14:20:29.000Z</time>
      </trkpt>
      <trkpt lat="47.19375" lon="-1.46314">
        <ele>79</ele>
        <time>2021-01-02T14:20:31.000Z</time>
      </trkpt>
      <trkpt lat="47.19365" lon="-1.46326">
        <ele>79</ele>
        <time>2021-01-02T14:20:33.000Z</time>
      </trkpt>
      <trkpt lat="47.19354" lon="-1.46334">
        <ele>79</ele>
        <time>2021-01-02T14:20:35.000Z</time>
      </trkpt>
      <trkpt lat="47.19348" lon="-1.46351">
        <ele>79</ele>
        <time>2021-01-02T14:20:37.000Z</time>
      </trkpt>
      <trkpt lat="47.19341" lon="-1.46367">
        <ele>79</ele>
        <time>2021-01-02T14:20:39.000Z</time>
      </trkpt>
      <trkpt lat="47.19334" lon="-1.46383">
        <ele>80</ele>
        <time>2021-01-02T14:20:41.000Z</time>
      </trkpt>
      <trkpt lat="47.19326" lon="-1.46398">
        <ele>81</ele>
        <time>2021-01-02T14:20:43.000Z</time>
      </trkpt>
      <trkpt lat="47.19318" lon="-1.46413">
        <ele>80</ele>
        <time>2021-01-02T14:20:45.000Z</time>
      </trkpt>
      <trkpt lat="47.1931" lon="-1.4643">
        <ele>80</ele>
        <time>2021-01-02T14:20:47.000Z</time>
      </trkpt>
      <trkpt lat="47.19302" lon="-1.46445">
        <ele>80</ele>
        <time>2021-01-02T14:20:49.000Z</time>
      </trkpt>
      <trkpt lat="47.19295" lon="-1.4646">
        <ele>80</ele>
        <time>2021-01-02T14:20:51.000Z</time>
      </trkpt>
      <trkpt lat="47.19288" lon="-1.46476">
        <ele>80</ele>
        <time>2021-01-02T14:20:53.000Z</time>
      </trkpt>
      <trkpt lat="47.19281" lon="-1.46492">
        <ele>80</ele>
        <time>2021-01-02T14:20:55.000Z</time>
      </trkpt>
      <trkpt lat="47.19274" lon="-1.46507">
        <ele>80</ele>
        <time>2021-01-02T14:20:57.000Z</time>
      </trkpt>
      <trkpt lat="47.19266" lon="-1.46523">
        <ele>80</ele>
        <time>2021-01-02T14:20:59.000Z</time>
      </trkpt>
      <trkpt lat="47.19259" lon="-1.46537">
        <ele>80</ele>
        <time>2021-01-02T14:21:01.000Z</time>
      </trkpt>
      <trkpt lat="47.19251" lon="-1.46552">
        <ele>80</ele>
        <time>2021-01-02T14:21:03.000Z</time>
      </trkpt>
      <trkpt lat="47.19244" lon="-1.46568">
        <ele>80</ele>
        <time>2021-01-02T14:21:05.000Z</time>
      </trkpt>
      <trkpt lat="47.19237" lon="-1.46583">
        <ele>80</ele>
        <time>2021-01-02T14:21:07.000Z</time>
      </trkpt>
      <trkpt lat="47.19229" lon="-1.46598">
        <ele>79</ele>
        <time>2021-01-02T14:21:09.000Z</time>
      </trkpt>
      <trkpt lat="47.19222" lon="-1.46613">
        <ele>79</ele>
        <time>2021-01-02T14:21:11.000Z</time>
      </trkpt>
      <trkpt lat="47.19215" lon="-1.46628">
        <ele>79</ele>
        <time>2021-01-02T14:21:13.000Z</time>
      </trkpt>
      <trkpt lat="47.19208" lon="-1.46643">
        <ele>79</ele>
        <time>2021-01-02T14:21:15.000Z</time>
      </trkpt>
      <trkpt lat="47.19201" lon="-1.46659">
        <ele>79</ele>
        <time>2021-01-02T14:21:17.000Z</time>
      </trkpt>
      <trkpt lat="47.19194" lon="-1.46674">
        <ele>79</ele>
        <time>2021-01-02T14:21:19.000Z</time>
      </trkpt>
      <trkpt lat="47.19187" lon="-1.46689">
        <ele>79</ele>
        <time>2021-01-02T14:21:21.000Z</time>
      </trkpt>
      <trkpt lat="47.19179" lon="-1.46704">
        <ele>79</ele>
        <time>2021-01-02T14:21:23.000Z</time>
      </trkpt>
      <trkpt lat="47.19172" lon="-1.4672">
        <ele>79</ele>
        <time>2021-01-02T14:21:25.000Z</time>
      </trkpt>
      <trkpt lat="47.19165" lon="-1.46735">
        <ele>79</ele>
        <time>2021-01-02T14:21:27.000Z</time>
      </trkpt>
      <trkpt lat="47.19158" lon="-1.4675">
        <ele>79</ele>
        <time>2021-01-02T14:21:29.000Z</time>
      </trkpt>
      <trkpt lat="47.1915" lon="-1.46766">
        <ele>79</ele>
        <time>2021-01-02T14:21:31.000Z</time>
      </trkpt>
      <trkpt lat="47.19143" lon="-1.46781">
        <ele>79</ele>
        <time>2021-01-02T14:21:33.000Z</time>
      </trkpt>
      <trkpt lat="47.19136" lon="-1.46797">
        <ele>79</ele>
        <time>2021-01-02T14:21:35.000Z</time>
      </trkpt>
      <trkpt lat="47.19129" lon="-1.46812">
        <ele>78</ele>
        <time>2021-01-02T14:21:37.000Z</time>
      </trkpt>
      <trkpt lat="47.19121" lon="-1.46828">
        <ele>78</ele>
        <time>2021-01-02T14:21:39.000Z</time>
      </trkpt>
      <trkpt lat="47.19113" lon="-1.46844">
        <ele>78</ele>
        <time>2021-01-02T14:21:41.000Z</time>
      </trkpt>
      <trkpt lat="47.19106" lon="-1.4686">
        <ele>78</ele>
        <time>2021-01-02T14:21:43.000Z</time>
      </trkpt>
      <trkpt lat="47.19098" lon="-1.46876">
        <ele>77</ele>
        <time>2021-01-02T14:21:45.000Z</time>
      </trkpt>
      <trkpt lat="47.1909" lon="-1.46892">
        <ele>78</ele>
        <time>2021-01-02T14:21:47.000Z</time>
      </trkpt>
      <trkpt lat="47.19082" lon="-1.46909">
        <ele>78</ele>
        <time>2021-01-02T14:21:49.000Z</time>
      </trkpt>
      <trkpt lat="47.19074" lon="-1.46926">
        <ele>78</ele>
        <time>2021-01-02T14:21:51.000Z</time>
      </trkpt>
      <trkpt lat="47.19066" lon="-1.46942">
        <ele>78</ele>
        <time>2021-01-02T14:21:53.000Z</time>
      </trkpt>
      <trkpt lat="47.19059" lon="-1.46958">
        <ele>78</ele>
        <time>2021-01-02T14:21:55.000Z</time>
      </trkpt>
      <trkpt lat="47.19052" lon="-1.46974">
        <ele>78</ele>
        <time>2021-01-02T14:21:57.000Z</time>
      </trkpt>
      <trkpt lat="47.19044" lon="-1.46989">
        <ele>78</ele>
        <time>2021-01-02T14:21:59.000Z</time>
      </trkpt>
      <trkpt lat="47.19036" lon="-1.47005">
        <ele>78</ele>
        <time>2021-01-02T14:22:01.000Z</time>
      </trkpt>
      <trkpt lat="47.19028" lon="-1.47021">
        <ele>77</ele>
        <time>2021-01-02T14:22:03.000Z</time>
      </trkpt>
      <trkpt lat="47.19021" lon="-1.47037">
        <ele>77</ele>
        <time>2021-01-02T14:22:05.000Z</time>
      </trkpt>
      <trkpt lat="47.19014" lon="-1.47052">
        <ele>78</ele>
        <time>2021-01-02T14:22:07.000Z</time>
      </trkpt>
      <trkpt lat="47.19007" lon="-1.47067">
        <ele>78</ele>
        <time>2021-01-02T14:22:09.000Z</time>
      </trkpt>
      <trkpt lat="47.19" lon="-1.47082">
        <ele>78</ele>
        <time>2021-01-02T14:22:11.000Z</time>
      </trkpt>
      <trkpt lat="47.18994" lon="-1.47097">
        <ele>79</ele>
        <time>2021-01-02T14:22:13.000Z</time>
      </trkpt>
      <trkpt lat="47.18987" lon="-1.47112">
        <ele>78</ele>
        <time>2021-01-02T14:22:15.000Z</time>
      </trkpt>
      <trkpt lat="47.1898" lon="-1.47127">
        <ele>79</ele>
        <time>2021-01-02T14:22:17.000Z</time>
      </trkpt>
      <trkpt lat="47.18973" lon="-1.47142">
        <ele>79</ele>
        <time>2021-01-02T14:22:19.000Z</time>
      </trkpt>
      <trkpt lat="47.18966" lon="-1.47158">
        <ele>79</ele>
        <time>2021-01-02T14:22:21.000Z</time>
      </trkpt>
      <trkpt lat="47.1896" lon="-1.47173">
        <ele>79</ele>
        <time>2021-01-02T14:22:23.000Z</time>
      </trkpt>
      <trkpt lat="47.18958" lon="-1.47191">
        <ele>79</ele>
        <time>2021-01-02T14:22:25.000Z</time>
      </trkpt>
      <trkpt lat="47.18955" lon="-1.4721">
        <ele>79</ele>
        <time>2021-01-02T14:22:27.000Z</time>
      </trkpt>
      <trkpt lat="47.18945" lon="-1.47224">
        <ele>79</ele>
        <time>2021-01-02T14:22:29.000Z</time>
      </trkpt>
      <trkpt lat="47.18934" lon="-1.47237">
        <ele>79</ele>
        <time>2021-01-02T14:22:31.000Z</time>
      </trkpt>
      <trkpt lat="47.18924" lon="-1.4725">
        <ele>79</ele>
        <time>2021-01-02T14:22:33.000Z</time>
      </trkpt>
      <trkpt lat="47.18914" lon="-1.47264">
        <ele>79</ele>
        <time>2021-01-02T14:22:35.000Z</time>
      </trkpt>
      <trkpt lat="47.18905" lon="-1.4728">
        <ele>78</ele>
        <time>2021-01-02T14:22:37.000Z</time>
      </trkpt>
      <trkpt lat="47.18896" lon="-1.47296">
        <ele>78</ele>
        <time>2021-01-02T14:22:39.000Z</time>
      </trkpt>
      <trkpt lat="47.18888" lon="-1.47313">
        <ele>78</ele>
        <time>2021-01-02T14:22:41.000Z</time>
      </trkpt>
      <trkpt lat="47.1888" lon="-1.4733">
        <ele>78</ele>
        <time>2021-01-02T14:22:43.000Z</time>
      </trkpt>
      <trkpt lat="47.18873" lon="-1.47346">
        <ele>78</ele>
        <time>2021-01-02T14:22:45.000Z</time>
      </trkpt>
      <trkpt lat="47.18865" lon="-1.47363">
        <ele>78</ele>
        <time>2021-01-02T14:22:47.000Z</time>
      </trkpt>
      <trkpt lat="47.18857" lon="-1.4738">
        <ele>77</ele>
        <time>2021-01-02T14:22:49.000Z</time>
      </trkpt>
      <trkpt lat="47.18849" lon="-1.47397">
        <ele>77</ele>
        <time>2021-01-02T14:22:51.000Z</time>
      </trkpt>
      <trkpt lat="47.1884" lon="-1.47413">
        <ele>77</ele>
        <time>2021-01-02T14:22:53.000Z</time>
      </trkpt>
      <trkpt lat="47.18832" lon="-1.47429">
        <ele>77</ele>
        <time>2021-01-02T14:22:55.000Z</time>
      </trkpt>
      <trkpt lat="47.18825" lon="-1.47445">
        <ele>77</ele>
        <time>2021-01-02T14:22:57.000Z</time>
      </trkpt>
      <trkpt lat="47.18818" lon="-1.47461">
        <ele>78</ele>
        <time>2021-01-02T14:22:59.000Z</time>
      </trkpt>
      <trkpt lat="47.1881" lon="-1.47477">
        <ele>77</ele>
        <time>2021-01-02T14:23:01.000Z</time>
      </trkpt>
      <trkpt lat="47.18803" lon="-1.47493">
        <ele>77</ele>
        <time>2021-01-02T14:23:03.000Z</time>
      </trkpt>
      <trkpt lat="47.18795" lon="-1.47509">
        <ele>76</ele>
        <time>2021-01-02T14:23:05.000Z</time>
      </trkpt>
      <trkpt lat="47.18788" lon="-1.47525">
        <ele>76</ele>
        <time>2021-01-02T14:23:07.000Z</time>
      </trkpt>
      <trkpt lat="47.1878" lon="-1.47541">
        <ele>75</ele>
        <time>2021-01-02T14:23:09.000Z</time>
      </trkpt>
      <trkpt lat="47.18773" lon="-1.47556">
        <ele>76</ele>
        <time>2021-01-02T14:23:11.000Z</time>
      </trkpt>
      <trkpt lat="47.18765" lon="-1.47571">
        <ele>76</ele>
        <time>2021-01-02T14:23:13.000Z</time>
      </trkpt>
      <trkpt lat="47.18758" lon="-1.47586">
        <ele>76</ele>
        <time>2021-01-02T14:23:15.000Z</time>
      </trkpt>
      <trkpt lat="47.1875" lon="-1.47601">
        <ele>76</ele>
        <time>2021-01-02T14:23:17.000Z</time>
      </trkpt>
      <trkpt lat="47.18743" lon="-1.47616">
        <ele>76</ele>
        <time>2021-01-02T14:23:19.000Z</time>
      </trkpt>
      <trkpt lat="47.18737" lon="-1.4763">
        <ele>76</ele>
        <time>2021-01-02T14:23:21.000Z</time>
      </trkpt>
      <trkpt lat="47.18731" lon="-1.47644">
        <ele>77</ele>
        <time>2021-01-02T14:23:23.000Z</time>
      </trkpt>
      <trkpt lat="47.18725" lon="-1.47657">
        <ele>77</ele>
        <time>2021-01-02T14:23:26.000Z</time>
      </trkpt>
      <trkpt lat="47.18719" lon="-1.47668">
        <ele>76</ele>
        <time>2021-01-02T14:23:31.000Z</time>
      </trkpt>
      <trkpt lat="47.18712" lon="-1.47681">
        <ele>76</ele>
        <time>2021-01-02T14:24:28.000Z</time>
      </trkpt>
      <trkpt lat="47.18705" lon="-1.47691">
        <ele>76</ele>
        <time>2021-01-02T14:24:30.000Z</time>
      </trkpt>
      <trkpt lat="47.18695" lon="-1.47696">
        <ele>76</ele>
        <time>2021-01-02T14:24:32.000Z</time>
      </trkpt>
      <trkpt lat="47.18683" lon="-1.47694">
        <ele>75</ele>
        <time>2021-01-02T14:24:34.000Z</time>
      </trkpt>
      <trkpt lat="47.18669" lon="-1.47691">
        <ele>74</ele>
        <time>2021-01-02T14:24:36.000Z</time>
      </trkpt>
      <trkpt lat="47.18656" lon="-1.47687">
        <ele>74</ele>
        <time>2021-01-02T14:24:38.000Z</time>
      </trkpt>
      <trkpt lat="47.18641" lon="-1.47684">
        <ele>73</ele>
        <time>2021-01-02T14:24:40.000Z</time>
      </trkpt>
      <trkpt lat="47.18625" lon="-1.4768">
        <ele>74</ele>
        <time>2021-01-02T14:24:42.000Z</time>
      </trkpt>
      <trkpt lat="47.1861" lon="-1.47675">
        <ele>74</ele>
        <time>2021-01-02T14:24:44.000Z</time>
      </trkpt>
      <trkpt lat="47.18595" lon="-1.47674">
        <ele>74</ele>
        <time>2021-01-02T14:24:46.000Z</time>
      </trkpt>
      <trkpt lat="47.18581" lon="-1.47671">
        <ele>74</ele>
        <time>2021-01-02T14:24:48.000Z</time>
      </trkpt>
      <trkpt lat="47.18567" lon="-1.47666">
        <ele>73</ele>
        <time>2021-01-02T14:24:50.000Z</time>
      </trkpt>
      <trkpt lat="47.18554" lon="-1.47662">
        <ele>73</ele>
        <time>2021-01-02T14:24:52.000Z</time>
      </trkpt>
      <trkpt lat="47.1854" lon="-1.47657">
        <ele>73</ele>
        <time>2021-01-02T14:24:54.000Z</time>
      </trkpt>
      <trkpt lat="47.18526" lon="-1.47653">
        <ele>72</ele>
        <time>2021-01-02T14:24:56.000Z</time>
      </trkpt>
      <trkpt lat="47.18512" lon="-1.4765">
        <ele>71</ele>
        <time>2021-01-02T14:24:58.000Z</time>
      </trkpt>
      <trkpt lat="47.18498" lon="-1.47647">
        <ele>70</ele>
        <time>2021-01-02T14:25:00.000Z</time>
      </trkpt>
      <trkpt lat="47.18483" lon="-1.47644">
        <ele>70</ele>
        <time>2021-01-02T14:25:02.000Z</time>
      </trkpt>
      <trkpt lat="47.18468" lon="-1.4764">
        <ele>69</ele>
        <time>2021-01-02T14:25:04.000Z</time>
      </trkpt>
      <trkpt lat="47.18453" lon="-1.47636">
        <ele>68</ele>
        <time>2021-01-02T14:25:06.000Z</time>
      </trkpt>
      <trkpt lat="47.18439" lon="-1.47634">
        <ele>68</ele>
        <time>2021-01-02T14:25:08.000Z</time>
      </trkpt>
      <trkpt lat="47.18427" lon="-1.47632">
        <ele>67</ele>
        <time>2021-01-02T14:25:10.000Z</time>
      </trkpt>
      <trkpt lat="47.18418" lon="-1.47644">
        <ele>67</ele>
        <time>2021-01-02T14:25:12.000Z</time>
      </trkpt>
      <trkpt lat="47.18418" lon="-1.47664">
        <ele>67</ele>
        <time>2021-01-02T14:25:14.000Z</time>
      </trkpt>
      <trkpt lat="47.1842" lon="-1.47683">
        <ele>67</ele>
        <time>2021-01-02T14:25:16.000Z</time>
      </trkpt>
      <trkpt lat="47.18421" lon="-1.47702">
        <ele>67</ele>
        <time>2021-01-02T14:25:18.000Z</time>
      </trkpt>
      <trkpt lat="47.18422" lon="-1.47721">
        <ele>67</ele>
        <time>2021-01-02T14:25:20.000Z</time>
      </trkpt>
      <trkpt lat="47.18422" lon="-1.47739">
        <ele>68</ele>
        <time>2021-01-02T14:25:22.000Z</time>
      </trkpt>
      <trkpt lat="47.18421" lon="-1.47756">
        <ele>68</ele>
        <time>2021-01-02T14:25:24.000Z</time>
      </trkpt>
      <trkpt lat="47.18421" lon="-1.47773">
        <ele>69</ele>
        <time>2021-01-02T14:25:26.000Z</time>
      </trkpt>
      <trkpt lat="47.18421" lon="-1.4779">
        <ele>70</ele>
        <time>2021-01-02T14:25:28.000Z</time>
      </trkpt>
      <trkpt lat="47.18421" lon="-1.47807">
        <ele>71</ele>
        <time>2021-01-02T14:25:30.000Z</time>
      </trkpt>
      <trkpt lat="47.18421" lon="-1.47823">
        <ele>71</ele>
        <time>2021-01-02T14:25:32.000Z</time>
      </trkpt>
      <trkpt lat="47.18421" lon="-1.4784">
        <ele>72</ele>
        <time>2021-01-02T14:25:34.000Z</time>
      </trkpt>
      <trkpt lat="47.18421" lon="-1.47857">
        <ele>72</ele>
        <time>2021-01-02T14:25:36.000Z</time>
      </trkpt>
      <trkpt lat="47.18422" lon="-1.47874">
        <ele>73</ele>
        <time>2021-01-02T14:25:38.000Z</time>
      </trkpt>
      <trkpt lat="47.18421" lon="-1.4789">
        <ele>73</ele>
        <time>2021-01-02T14:25:40.000Z</time>
      </trkpt>
      <trkpt lat="47.18421" lon="-1.47907">
        <ele>73</ele>
        <time>2021-01-02T14:25:42.000Z</time>
      </trkpt>
      <trkpt lat="47.18421" lon="-1.47924">
        <ele>73</ele>
        <time>2021-01-02T14:25:44.000Z</time>
      </trkpt>
      <trkpt lat="47.18421" lon="-1.47941">
        <ele>73</ele>
        <time>2021-01-02T14:25:46.000Z</time>
      </trkpt>
      <trkpt lat="47.18421" lon="-1.47957">
        <ele>73</ele>
        <time>2021-01-02T14:25:48.000Z</time>
      </trkpt>
      <trkpt lat="47.18422" lon="-1.47974">
        <ele>74</ele>
        <time>2021-01-02T14:25:50.000Z</time>
      </trkpt>
      <trkpt lat="47.18422" lon="-1.47991">
        <ele>74</ele>
        <time>2021-01-02T14:25:52.000Z</time>
      </trkpt>
      <trkpt lat="47.18423" lon="-1.48008">
        <ele>74</ele>
        <time>2021-01-02T14:25:54.000Z</time>
      </trkpt>
      <trkpt lat="47.18424" lon="-1.48025">
        <ele>74</ele>
        <time>2021-01-02T14:25:56.000Z</time>
      </trkpt>
      <trkpt lat="47.18423" lon="-1.48042">
        <ele>74</ele>
        <time>2021-01-02T14:25:58.000Z</time>
      </trkpt>
      <trkpt lat="47.18424" lon="-1.48058">
        <ele>74</ele>
        <time>2021-01-02T14:26:00.000Z</time>
      </trkpt>
      <trkpt lat="47.18424" lon="-1.48074">
        <ele>74</ele>
        <time>2021-01-02T14:26:02.000Z</time>
      </trkpt>
      <trkpt lat="47.18424" lon="-1.48091">
        <ele>74</ele>
        <time>2021-01-02T14:26:04.000Z</time>
      </trkpt>
      <trkpt lat="47.18425" lon="-1.48107">
        <ele>74</ele>
        <time>2021-01-02T14:26:06.000Z</time>
      </trkpt>
      <trkpt lat="47.18425" lon="-1.48123">
        <ele>74</ele>
        <time>2021-01-02T14:26:08.000Z</time>
      </trkpt>
      <trkpt lat="47.18425" lon="-1.4814">
        <ele>75</ele>
        <time>2021-01-02T14:26:10.000Z</time>
      </trkpt>
      <trkpt lat="47.18425" lon="-1.48156">
        <ele>75</ele>
        <time>2021-01-02T14:26:12.000Z</time>
      </trkpt>
      <trkpt lat="47.18424" lon="-1.48172">
        <ele>75</ele>
        <time>2021-01-02T14:26:14.000Z</time>
      </trkpt>
      <trkpt lat="47.18423" lon="-1.48189">
        <ele>75</ele>
        <time>2021-01-02T14:26:16.000Z</time>
      </trkpt>
      <trkpt lat="47.18423" lon="-1.48205">
        <ele>75</ele>
        <time>2021-01-02T14:26:18.000Z</time>
      </trkpt>
      <trkpt lat="47.18423" lon="-1.48221">
        <ele>75</ele>
        <time>2021-01-02T14:26:20.000Z</time>
      </trkpt>
      <trkpt lat="47.18423" lon="-1.48238">
        <ele>76</ele>
        <time>2021-01-02T14:26:22.000Z</time>
      </trkpt>
      <trkpt lat="47.18424" lon="-1.48254">
        <ele>76</ele>
        <time>2021-01-02T14:26:24.000Z</time>
      </trkpt>
      <trkpt lat="47.18424" lon="-1.4827">
        <ele>76</ele>
        <time>2021-01-02T14:26:26.000Z</time>
      </trkpt>
      <trkpt lat="47.18425" lon="-1.48286">
        <ele>77</ele>
        <time>2021-01-02T14:26:28.000Z</time>
      </trkpt>
      <trkpt lat="47.18425" lon="-1.48302">
        <ele>77</ele>
        <time>2021-01-02T14:26:30.000Z</time>
      </trkpt>
      <trkpt lat="47.18426" lon="-1.48318">
        <ele>77</ele>
        <time>2021-01-02T14:26:32.000Z</time>
      </trkpt>
      <trkpt lat="47.18426" lon="-1.48334">
        <ele>77</ele>
        <time>2021-01-02T14:26:34.000Z</time>
      </trkpt>
      <trkpt lat="47.18427" lon="-1.4835">
        <ele>77</ele>
        <time>2021-01-02T14:26:36.000Z</time>
      </trkpt>
      <trkpt lat="47.18428" lon="-1.48366">
        <ele>78</ele>
        <time>2021-01-02T14:26:38.000Z</time>
      </trkpt>
      <trkpt lat="47.18428" lon="-1.48382">
        <ele>78</ele>
        <time>2021-01-02T14:26:40.000Z</time>
      </trkpt>
      <trkpt lat="47.18428" lon="-1.48399">
        <ele>78</ele>
        <time>2021-01-02T14:26:42.000Z</time>
      </trkpt>
      <trkpt lat="47.18428" lon="-1.48416">
        <ele>78</ele>
        <time>2021-01-02T14:26:44.000Z</time>
      </trkpt>
      <trkpt lat="47.18429" lon="-1.48433">
        <ele>78</ele>
        <time>2021-01-02T14:26:46.000Z</time>
      </trkpt>
      <trkpt lat="47.18429" lon="-1.48449">
        <ele>78</ele>
        <time>2021-01-02T14:26:48.000Z</time>
      </trkpt>
      <trkpt lat="47.18429" lon="-1.48465">
        <ele>78</ele>
        <time>2021-01-02T14:26:50.000Z</time>
      </trkpt>
      <trkpt lat="47.18429" lon="-1.48482">
        <ele>78</ele>
        <time>2021-01-02T14:26:52.000Z</time>
      </trkpt>
      <trkpt lat="47.18429" lon="-1.48499">
        <ele>78</ele>
        <time>2021-01-02T14:26:54.000Z</time>
      </trkpt>
      <trkpt lat="47.1843" lon="-1.48515">
        <ele>78</ele>
        <time>2021-01-02T14:26:56.000Z</time>
      </trkpt>
      <trkpt lat="47.18431" lon="-1.48532">
        <ele>78</ele>
        <time>2021-01-02T14:26:58.000Z</time>
      </trkpt>
      <trkpt lat="47.18433" lon="-1.48548">
        <ele>78</ele>
        <time>2021-01-02T14:27:00.000Z</time>
      </trkpt>
      <trkpt lat="47.18436" lon="-1.48564">
        <ele>77</ele>
        <time>2021-01-02T14:27:02.000Z</time>
      </trkpt>
      <trkpt lat="47.18439" lon="-1.4858">
        <ele>77</ele>
        <time>2021-01-02T14:27:04.000Z</time>
      </trkpt>
      <trkpt lat="47.18443" lon="-1.48595">
        <ele>77</ele>
        <time>2021-01-02T14:27:06.000Z</time>
      </trkpt>
      <trkpt lat="47.18447" lon="-1.48612">
        <ele>77</ele>
        <time>2021-01-02T14:27:08.000Z</time>
      </trkpt>
      <trkpt lat="47.18452" lon="-1.48627">
        <ele>76</ele>
        <time>2021-01-02T14:27:10.000Z</time>
      </trkpt>
      <trkpt lat="47.18457" lon="-1.48643">
        <ele>76</ele>
        <time>2021-01-02T14:27:12.000Z</time>
      </trkpt>
      <trkpt lat="47.18462" lon="-1.48658">
        <ele>76</ele>
        <time>2021-01-02T14:27:14.000Z</time>
      </trkpt>
      <trkpt lat="47.18467" lon="-1.48674">
        <ele>76</ele>
        <time>2021-01-02T14:27:16.000Z</time>
      </trkpt>
      <trkpt lat="47.18471" lon="-1.4869">
        <ele>76</ele>
        <time>2021-01-02T14:27:18.000Z</time>
      </trkpt>
      <trkpt lat="47.18474" lon="-1.48708">
        <ele>76</ele>
        <time>2021-01-02T14:27:20.000Z</time>
      </trkpt>
      <trkpt lat="47.18478" lon="-1.48724">
        <ele>76</ele>
        <time>2021-01-02T14:27:22.000Z</time>
      </trkpt>
      <trkpt lat="47.1848" lon="-1.48737">
        <ele>77</ele>
        <time>2021-01-02T14:27:24.000Z</time>
      </trkpt>
      <trkpt lat="47.18489" lon="-1.48732">
        <ele>75</ele>
        <time>2021-01-02T14:27:30.000Z</time>
      </trkpt>
      <trkpt lat="47.18498" lon="-1.48726">
        <ele>76</ele>
        <time>2021-01-02T14:27:35.000Z</time>
      </trkpt>
      <trkpt lat="47.18489" lon="-1.48734">
        <ele>76</ele>
        <time>2021-01-02T14:29:46.000Z</time>
      </trkpt>
      <trkpt lat="47.18484" lon="-1.48749">
        <ele>75</ele>
        <time>2021-01-02T14:29:49.000Z</time>
      </trkpt>
      <trkpt lat="47.18483" lon="-1.48764">
        <ele>75</ele>
        <time>2021-01-02T14:29:51.000Z</time>
      </trkpt>
      <trkpt lat="47.18485" lon="-1.48779">
        <ele>75</ele>
        <time>2021-01-02T14:29:53.000Z</time>
      </trkpt>
      <trkpt lat="47.18487" lon="-1.48795">
        <ele>75</ele>
        <time>2021-01-02T14:29:55.000Z</time>
      </trkpt>
      <trkpt lat="47.18489" lon="-1.48812">
        <ele>75</ele>
        <time>2021-01-02T14:29:57.000Z</time>
      </trkpt>
      <trkpt lat="47.18491" lon="-1.48829">
        <ele>75</ele>
        <time>2021-01-02T14:29:59.000Z</time>
      </trkpt>
      <trkpt lat="47.18494" lon="-1.48848">
        <ele>76</ele>
        <time>2021-01-02T14:30:01.000Z</time>
      </trkpt>
      <trkpt lat="47.18496" lon="-1.48866">
        <ele>77</ele>
        <time>2021-01-02T14:30:03.000Z</time>
      </trkpt>
      <trkpt lat="47.18499" lon="-1.48885">
        <ele>77</ele>
        <time>2021-01-02T14:30:05.000Z</time>
      </trkpt>
      <trkpt lat="47.18502" lon="-1.48903">
        <ele>77</ele>
        <time>2021-01-02T14:30:07.000Z</time>
      </trkpt>
      <trkpt lat="47.18505" lon="-1.48921">
        <ele>77</ele>
        <time>2021-01-02T14:30:09.000Z</time>
      </trkpt>
      <trkpt lat="47.18511" lon="-1.48939">
        <ele>77</ele>
        <time>2021-01-02T14:30:11.000Z</time>
      </trkpt>
      <trkpt lat="47.18517" lon="-1.48957">
        <ele>79</ele>
        <time>2021-01-02T14:30:13.000Z</time>
      </trkpt>
      <trkpt lat="47.1852" lon="-1.48974">
        <ele>80</ele>
        <time>2021-01-02T14:30:15.000Z</time>
      </trkpt>
      <trkpt lat="47.18523" lon="-1.48994">
        <ele>80</ele>
        <time>2021-01-02T14:30:17.000Z</time>
      </trkpt>
      <trkpt lat="47.18526" lon="-1.49012">
        <ele>79</ele>
        <time>2021-01-02T14:30:19.000Z</time>
      </trkpt>
      <trkpt lat="47.18529" lon="-1.49032">
        <ele>79</ele>
        <time>2021-01-02T14:30:21.000Z</time>
      </trkpt>
      <trkpt lat="47.18532" lon="-1.49051">
        <ele>79</ele>
        <time>2021-01-02T14:30:23.000Z</time>
      </trkpt>
      <trkpt lat="47.18535" lon="-1.4907">
        <ele>79</ele>
        <time>2021-01-02T14:30:25.000Z</time>
      </trkpt>
      <trkpt lat="47.18537" lon="-1.49089">
        <ele>78</ele>
        <time>2021-01-02T14:30:27.000Z</time>
      </trkpt>
      <trkpt lat="47.18541" lon="-1.49108">
        <ele>78</ele>
        <time>2021-01-02T14:30:29.000Z</time>
      </trkpt>
      <trkpt lat="47.18544" lon="-1.49128">
        <ele>78</ele>
        <time>2021-01-02T14:30:31.000Z</time>
      </trkpt>
      <trkpt lat="47.18547" lon="-1.49147">
        <ele>78</ele>
        <time>2021-01-02T14:30:33.000Z</time>
      </trkpt>
      <trkpt lat="47.18551" lon="-1.49165">
        <ele>77</ele>
        <time>2021-01-02T14:30:35.000Z</time>
      </trkpt>
      <trkpt lat="47.18555" lon="-1.49183">
        <ele>77</ele>
        <time>2021-01-02T14:30:37.000Z</time>
      </trkpt>
      <trkpt lat="47.18559" lon="-1.49201">
        <ele>77</ele>
        <time>2021-01-02T14:30:39.000Z</time>
      </trkpt>
      <trkpt lat="47.18563" lon="-1.4922">
        <ele>77</ele>
        <time>2021-01-02T14:30:41.000Z</time>
      </trkpt>
      <trkpt lat="47.18568" lon="-1.49238">
        <ele>77</ele>
        <time>2021-01-02T14:30:43.000Z</time>
      </trkpt>
      <trkpt lat="47.18573" lon="-1.49256">
        <ele>77</ele>
        <time>2021-01-02T14:30:45.000Z</time>
      </trkpt>
      <trkpt lat="47.18578" lon="-1.49273">
        <ele>77</ele>
        <time>2021-01-02T14:30:47.000Z</time>
      </trkpt>
      <trkpt lat="47.18582" lon="-1.4929">
        <ele>77</ele>
        <time>2021-01-02T14:30:49.000Z</time>
      </trkpt>
      <trkpt lat="47.18588" lon="-1.49306">
        <ele>76</ele>
        <time>2021-01-02T14:30:51.000Z</time>
      </trkpt>
      <trkpt lat="47.18593" lon="-1.49323">
        <ele>77</ele>
        <time>2021-01-02T14:30:53.000Z</time>
      </trkpt>
      <trkpt lat="47.18599" lon="-1.49338">
        <ele>76</ele>
        <time>2021-01-02T14:30:55.000Z</time>
      </trkpt>
      <trkpt lat="47.18604" lon="-1.49356">
        <ele>76</ele>
        <time>2021-01-02T14:30:57.000Z</time>
      </trkpt>
      <trkpt lat="47.18607" lon="-1.49378">
        <ele>76</ele>
        <time>2021-01-02T14:30:59.000Z</time>
      </trkpt>
      <trkpt lat="47.18613" lon="-1.49397">
        <ele>76</ele>
        <time>2021-01-02T14:31:01.000Z</time>
      </trkpt>
      <trkpt lat="47.18619" lon="-1.49415">
        <ele>76</ele>
        <time>2021-01-02T14:31:03.000Z</time>
      </trkpt>
      <trkpt lat="47.18624" lon="-1.49433">
        <ele>76</ele>
        <time>2021-01-02T14:31:05.000Z</time>
      </trkpt>
      <trkpt lat="47.1863" lon="-1.49452">
        <ele>76</ele>
        <time>2021-01-02T14:31:07.000Z</time>
      </trkpt>
      <trkpt lat="47.18635" lon="-1.4947">
        <ele>75</ele>
        <time>2021-01-02T14:31:09.000Z</time>
      </trkpt>
      <trkpt lat="47.18639" lon="-1.49489">
        <ele>75</ele>
        <time>2021-01-02T14:31:11.000Z</time>
      </trkpt>
      <trkpt lat="47.18643" lon="-1.49508">
        <ele>75</ele>
        <time>2021-01-02T14:31:13.000Z</time>
      </trkpt>
      <trkpt lat="47.18643" lon="-1.49527">
        <ele>76</ele>
        <time>2021-01-02T14:31:15.000Z</time>
      </trkpt>
      <trkpt lat="47.18637" lon="-1.49545">
        <ele>76</ele>
        <time>2021-01-02T14:31:17.000Z</time>
      </trkpt>
      <trkpt lat="47.18629" lon="-1.49559">
        <ele>75</ele>
        <time>2021-01-02T14:31:19.000Z</time>
      </trkpt>
      <trkpt lat="47.18619" lon="-1.4957">
        <ele>75</ele>
        <time>2021-01-02T14:31:21.000Z</time>
      </trkpt>
      <trkpt lat="47.18609" lon="-1.49581">
        <ele>76</ele>
        <time>2021-01-02T14:31:23.000Z</time>
      </trkpt>
      <trkpt lat="47.18597" lon="-1.49592">
        <ele>76</ele>
        <time>2021-01-02T14:31:25.000Z</time>
      </trkpt>
      <trkpt lat="47.18584" lon="-1.49599">
        <ele>77</ele>
        <time>2021-01-02T14:31:27.000Z</time>
      </trkpt>
      <trkpt lat="47.1857" lon="-1.49606">
        <ele>76</ele>
        <time>2021-01-02T14:31:29.000Z</time>
      </trkpt>
      <trkpt lat="47.18556" lon="-1.49611">
        <ele>76</ele>
        <time>2021-01-02T14:31:31.000Z</time>
      </trkpt>
      <trkpt lat="47.18543" lon="-1.49616">
        <ele>75</ele>
        <time>2021-01-02T14:31:33.000Z</time>
      </trkpt>
      <trkpt lat="47.18529" lon="-1.49621">
        <ele>75</ele>
        <time>2021-01-02T14:31:35.000Z</time>
      </trkpt>
      <trkpt lat="47.18516" lon="-1.49626">
        <ele>75</ele>
        <time>2021-01-02T14:31:37.000Z</time>
      </trkpt>
      <trkpt lat="47.18503" lon="-1.49631">
        <ele>75</ele>
        <time>2021-01-02T14:31:39.000Z</time>
      </trkpt>
      <trkpt lat="47.1849" lon="-1.49636">
        <ele>75</ele>
        <time>2021-01-02T14:31:41.000Z</time>
      </trkpt>
      <trkpt lat="47.18477" lon="-1.49641">
        <ele>75</ele>
        <time>2021-01-02T14:31:43.000Z</time>
      </trkpt>
      <trkpt lat="47.18463" lon="-1.49647">
        <ele>75</ele>
        <time>2021-01-02T14:31:45.000Z</time>
      </trkpt>
      <trkpt lat="47.1845" lon="-1.49652">
        <ele>75</ele>
        <time>2021-01-02T14:31:47.000Z</time>
      </trkpt>
      <trkpt lat="47.18436" lon="-1.49657">
        <ele>74</ele>
        <time>2021-01-02T14:31:49.000Z</time>
      </trkpt>
      <trkpt lat="47.18423" lon="-1.49662">
        <ele>74</ele>
        <time>2021-01-02T14:31:51.000Z</time>
      </trkpt>
      <trkpt lat="47.1841" lon="-1.49666">
        <ele>74</ele>
        <time>2021-01-02T14:31:53.000Z</time>
      </trkpt>
      <trkpt lat="47.18397" lon="-1.49669">
        <ele>74</ele>
        <time>2021-01-02T14:31:55.000Z</time>
      </trkpt>
      <trkpt lat="47.18384" lon="-1.49671">
        <ele>74</ele>
        <time>2021-01-02T14:31:57.000Z</time>
      </trkpt>
      <trkpt lat="47.18371" lon="-1.49675">
        <ele>74</ele>
        <time>2021-01-02T14:31:59.000Z</time>
      </trkpt>
      <trkpt lat="47.18358" lon="-1.49677">
        <ele>74</ele>
        <time>2021-01-02T14:32:01.000Z</time>
      </trkpt>
      <trkpt lat="47.18345" lon="-1.49682">
        <ele>75</ele>
        <time>2021-01-02T14:32:03.000Z</time>
      </trkpt>
      <trkpt lat="47.18332" lon="-1.49688">
        <ele>75</ele>
        <time>2021-01-02T14:32:05.000Z</time>
      </trkpt>
      <trkpt lat="47.18319" lon="-1.49695">
        <ele>75</ele>
        <time>2021-01-02T14:32:07.000Z</time>
      </trkpt>
      <trkpt lat="47.18307" lon="-1.49701">
        <ele>75</ele>
        <time>2021-01-02T14:32:09.000Z</time>
      </trkpt>
      <trkpt lat="47.18294" lon="-1.49708">
        <ele>74</ele>
        <time>2021-01-02T14:32:11.000Z</time>
      </trkpt>
      <trkpt lat="47.18281" lon="-1.49715">
        <ele>74</ele>
        <time>2021-01-02T14:32:13.000Z</time>
      </trkpt>
      <trkpt lat="47.18269" lon="-1.49722">
        <ele>74</ele>
        <time>2021-01-02T14:32:15.000Z</time>
      </trkpt>
      <trkpt lat="47.18257" lon="-1.49728">
        <ele>74</ele>
        <time>2021-01-02T14:32:17.000Z</time>
      </trkpt>
      <trkpt lat="47.18245" lon="-1.49735">
        <ele>74</ele>
        <time>2021-01-02T14:32:19.000Z</time>
      </trkpt>
      <trkpt lat="47.18233" lon="-1.49742">
        <ele>74</ele>
        <time>2021-01-02T14:32:21.000Z</time>
      </trkpt>
      <trkpt lat="47.1822" lon="-1.49749">
        <ele>74</ele>
        <time>2021-01-02T14:32:23.000Z</time>
      </trkpt>
      <trkpt lat="47.18207" lon="-1.49755">
        <ele>74</ele>
        <time>2021-01-02T14:32:25.000Z</time>
      </trkpt>
      <trkpt lat="47.18195" lon="-1.49762">
        <ele>75</ele>
        <time>2021-01-02T14:32:27.000Z</time>
      </trkpt>
      <trkpt lat="47.18182" lon="-1.49769">
        <ele>75</ele>
        <time>2021-01-02T14:32:29.000Z</time>
      </trkpt>
      <trkpt lat="47.1817" lon="-1.49775">
        <ele>75</ele>
        <time>2021-01-02T14:32:31.000Z</time>
      </trkpt>
      <trkpt lat="47.18157" lon="-1.49782">
        <ele>74</ele>
        <time>2021-01-02T14:32:33.000Z</time>
      </trkpt>
      <trkpt lat="47.18145" lon="-1.49789">
        <ele>74</ele>
        <time>2021-01-02T14:32:35.000Z</time>
      </trkpt>
      <trkpt lat="47.18132" lon="-1.49796">
        <ele>74</ele>
        <time>2021-01-02T14:32:37.000Z</time>
      </trkpt>
      <trkpt lat="47.1812" lon="-1.49802">
        <ele>75</ele>
        <time>2021-01-02T14:32:39.000Z</time>
      </trkpt>
      <trkpt lat="47.18107" lon="-1.49807">
        <ele>74</ele>
        <time>2021-01-02T14:32:41.000Z</time>
      </trkpt>
      <trkpt lat="47.18095" lon="-1.49814">
        <ele>74</ele>
        <time>2021-01-02T14:32:43.000Z</time>
      </trkpt>
      <trkpt lat="47.18083" lon="-1.49822">
        <ele>74</ele>
        <time>2021-01-02T14:32:45.000Z</time>
      </trkpt>
      <trkpt lat="47.18072" lon="-1.49828">
        <ele>74</ele>
        <time>2021-01-02T14:32:47.000Z</time>
      </trkpt>
      <trkpt lat="47.1806" lon="-1.49835">
        <ele>75</ele>
        <time>2021-01-02T14:32:49.000Z</time>
      </trkpt>
      <trkpt lat="47.18048" lon="-1.49841">
        <ele>76</ele>
        <time>2021-01-02T14:32:51.000Z</time>
      </trkpt>
      <trkpt lat="47.18038" lon="-1.49847">
        <ele>76</ele>
        <time>2021-01-02T14:32:53.000Z</time>
      </trkpt>
      <trkpt lat="47.18028" lon="-1.49854">
        <ele>75</ele>
        <time>2021-01-02T14:32:55.000Z</time>
      </trkpt>
      <trkpt lat="47.1802" lon="-1.49864">
        <ele>75</ele>
        <time>2021-01-02T14:32:58.000Z</time>
      </trkpt>
      <trkpt lat="47.18012" lon="-1.49877">
        <ele>75</ele>
        <time>2021-01-02T14:33:01.000Z</time>
      </trkpt>
      <trkpt lat="47.18002" lon="-1.49886">
        <ele>75</ele>
        <time>2021-01-02T14:33:03.000Z</time>
      </trkpt>
      <trkpt lat="47.1799" lon="-1.49891">
        <ele>75</ele>
        <time>2021-01-02T14:33:05.000Z</time>
      </trkpt>
      <trkpt lat="47.1798" lon="-1.499">
        <ele>75</ele>
        <time>2021-01-02T14:33:07.000Z</time>
      </trkpt>
      <trkpt lat="47.17971" lon="-1.49912">
        <ele>75</ele>
        <time>2021-01-02T14:33:09.000Z</time>
      </trkpt>
      <trkpt lat="47.17964" lon="-1.49923">
        <ele>75</ele>
        <time>2021-01-02T14:33:11.000Z</time>
      </trkpt>
      <trkpt lat="47.17959" lon="-1.49937">
        <ele>76</ele>
        <time>2021-01-02T14:33:13.000Z</time>
      </trkpt>
      <trkpt lat="47.17956" lon="-1.49954">
        <ele>76</ele>
        <time>2021-01-02T14:33:15.000Z</time>
      </trkpt>
      <trkpt lat="47.17957" lon="-1.49971">
        <ele>76</ele>
        <time>2021-01-02T14:33:17.000Z</time>
      </trkpt>
      <trkpt lat="47.17958" lon="-1.49989">
        <ele>77</ele>
        <time>2021-01-02T14:33:19.000Z</time>
      </trkpt>
      <trkpt lat="47.17958" lon="-1.50008">
        <ele>77</ele>
        <time>2021-01-02T14:33:21.000Z</time>
      </trkpt>
      <trkpt lat="47.17957" lon="-1.50027">
        <ele>76</ele>
        <time>2021-01-02T14:33:23.000Z</time>
      </trkpt>
      <trkpt lat="47.17955" lon="-1.50044">
        <ele>76</ele>
        <time>2021-01-02T14:33:25.000Z</time>
      </trkpt>
      <trkpt lat="47.17955" lon="-1.50059">
        <ele>76</ele>
        <time>2021-01-02T14:33:27.000Z</time>
      </trkpt>
      <trkpt lat="47.17952" lon="-1.50074">
        <ele>75</ele>
        <time>2021-01-02T14:33:29.000Z</time>
      </trkpt>
      <trkpt lat="47.17944" lon="-1.50088">
        <ele>76</ele>
        <time>2021-01-02T14:33:31.000Z</time>
      </trkpt>
      <trkpt lat="47.17938" lon="-1.50104">
        <ele>76</ele>
        <time>2021-01-02T14:33:33.000Z</time>
      </trkpt>
      <trkpt lat="47.1793" lon="-1.50121">
        <ele>76</ele>
        <time>2021-01-02T14:33:35.000Z</time>
      </trkpt>
      <trkpt lat="47.17921" lon="-1.50136">
        <ele>76</ele>
        <time>2021-01-02T14:33:37.000Z</time>
      </trkpt>
      <trkpt lat="47.17911" lon="-1.50151">
        <ele>76</ele>
        <time>2021-01-02T14:33:39.000Z</time>
      </trkpt>
      <trkpt lat="47.17899" lon="-1.50164">
        <ele>76</ele>
        <time>2021-01-02T14:33:41.000Z</time>
      </trkpt>
      <trkpt lat="47.17888" lon="-1.50176">
        <ele>76</ele>
        <time>2021-01-02T14:33:43.000Z</time>
      </trkpt>
      <trkpt lat="47.17878" lon="-1.5019">
        <ele>77</ele>
        <time>2021-01-02T14:33:45.000Z</time>
      </trkpt>
      <trkpt lat="47.17868" lon="-1.50204">
        <ele>78</ele>
        <time>2021-01-02T14:33:47.000Z</time>
      </trkpt>
      <trkpt lat="47.17859" lon="-1.50217">
        <ele>79</ele>
        <time>2021-01-02T14:33:49.000Z</time>
      </trkpt>
      <trkpt lat="47.17847" lon="-1.50226">
        <ele>78</ele>
        <time>2021-01-02T14:33:51.000Z</time>
      </trkpt>
      <trkpt lat="47.17834" lon="-1.50236">
        <ele>77</ele>
        <time>2021-01-02T14:33:53.000Z</time>
      </trkpt>
      <trkpt lat="47.17821" lon="-1.50245">
        <ele>77</ele>
        <time>2021-01-02T14:33:55.000Z</time>
      </trkpt>
      <trkpt lat="47.1781" lon="-1.50258">
        <ele>76</ele>
        <time>2021-01-02T14:33:57.000Z</time>
      </trkpt>
      <trkpt lat="47.17799" lon="-1.5027">
        <ele>76</ele>
        <time>2021-01-02T14:33:59.000Z</time>
      </trkpt>
      <trkpt lat="47.17788" lon="-1.50282">
        <ele>76</ele>
        <time>2021-01-02T14:34:01.000Z</time>
      </trkpt>
      <trkpt lat="47.17779" lon="-1.50295">
        <ele>75</ele>
        <time>2021-01-02T14:34:03.000Z</time>
      </trkpt>
      <trkpt lat="47.1777" lon="-1.50308">
        <ele>75</ele>
        <time>2021-01-02T14:34:05.000Z</time>
      </trkpt>
      <trkpt lat="47.17761" lon="-1.5032">
        <ele>75</ele>
        <time>2021-01-02T14:34:07.000Z</time>
      </trkpt>
      <trkpt lat="47.17753" lon="-1.50332">
        <ele>75</ele>
        <time>2021-01-02T14:34:09.000Z</time>
      </trkpt>
      <trkpt lat="47.1775" lon="-1.50348">
        <ele>74</ele>
        <time>2021-01-02T14:34:11.000Z</time>
      </trkpt>
      <trkpt lat="47.17755" lon="-1.50363">
        <ele>74</ele>
        <time>2021-01-02T14:34:13.000Z</time>
      </trkpt>
      <trkpt lat="47.17763" lon="-1.50377">
        <ele>74</ele>
        <time>2021-01-02T14:34:15.000Z</time>
      </trkpt>
      <trkpt lat="47.17773" lon="-1.50391">
        <ele>74</ele>
        <time>2021-01-02T14:34:17.000Z</time>
      </trkpt>
      <trkpt lat="47.17782" lon="-1.50405">
        <ele>74</ele>
        <time>2021-01-02T14:34:19.000Z</time>
      </trkpt>
      <trkpt lat="47.17791" lon="-1.5042">
        <ele>74</ele>
        <time>2021-01-02T14:34:21.000Z</time>
      </trkpt>
      <trkpt lat="47.178" lon="-1.50436">
        <ele>74</ele>
        <time>2021-01-02T14:34:23.000Z</time>
      </trkpt>
      <trkpt lat="47.17809" lon="-1.50452">
        <ele>73</ele>
        <time>2021-01-02T14:34:25.000Z</time>
      </trkpt>
      <trkpt lat="47.17817" lon="-1.50468">
        <ele>73</ele>
        <time>2021-01-02T14:34:27.000Z</time>
      </trkpt>
      <trkpt lat="47.17826" lon="-1.50483">
        <ele>72</ele>
        <time>2021-01-02T14:34:29.000Z</time>
      </trkpt>
      <trkpt lat="47.17835" lon="-1.50499">
        <ele>72</ele>
        <time>2021-01-02T14:34:31.000Z</time>
      </trkpt>
      <trkpt lat="47.17843" lon="-1.50514">
        <ele>72</ele>
        <time>2021-01-02T14:34:33.000Z</time>
      </trkpt>
      <trkpt lat="47.17852" lon="-1.50529">
        <ele>71</ele>
        <time>2021-01-02T14:34:35.000Z</time>
      </trkpt>
      <trkpt lat="47.17861" lon="-1.50544">
        <ele>71</ele>
        <time>2021-01-02T14:34:37.000Z</time>
      </trkpt>
      <trkpt lat="47.17869" lon="-1.50559">
        <ele>70</ele>
        <time>2021-01-02T14:34:39.000Z</time>
      </trkpt>
      <trkpt lat="47.17878" lon="-1.50575">
        <ele>70</ele>
        <time>2021-01-02T14:34:41.000Z</time>
      </trkpt>
      <trkpt lat="47.17886" lon="-1.5059">
        <ele>70</ele>
        <time>2021-01-02T14:34:43.000Z</time>
      </trkpt>
      <trkpt lat="47.17895" lon="-1.50606">
        <ele>70</ele>
        <time>2021-01-02T14:34:45.000Z</time>
      </trkpt>
      <trkpt lat="47.17903" lon="-1.50621">
        <ele>70</ele>
        <time>2021-01-02T14:34:47.000Z</time>
      </trkpt>
      <trkpt lat="47.17912" lon="-1.50637">
        <ele>70</ele>
        <time>2021-01-02T14:34:49.000Z</time>
      </trkpt>
      <trkpt lat="47.17921" lon="-1.50652">
        <ele>70</ele>
        <time>2021-01-02T14:34:51.000Z</time>
      </trkpt>
      <trkpt lat="47.1793" lon="-1.50667">
        <ele>70</ele>
        <time>2021-01-02T14:34:53.000Z</time>
      </trkpt>
      <trkpt lat="47.1794" lon="-1.50682">
        <ele>70</ele>
        <time>2021-01-02T14:34:55.000Z</time>
      </trkpt>
      <trkpt lat="47.17948" lon="-1.50698">
        <ele>70</ele>
        <time>2021-01-02T14:34:57.000Z</time>
      </trkpt>
      <trkpt lat="47.17956" lon="-1.50716">
        <ele>70</ele>
        <time>2021-01-02T14:34:59.000Z</time>
      </trkpt>
      <trkpt lat="47.17963" lon="-1.50733">
        <ele>71</ele>
        <time>2021-01-02T14:35:01.000Z</time>
      </trkpt>
      <trkpt lat="47.17971" lon="-1.50748">
        <ele>71</ele>
        <time>2021-01-02T14:35:03.000Z</time>
      </trkpt>
      <trkpt lat="47.1798" lon="-1.50762">
        <ele>70</ele>
        <time>2021-01-02T14:35:05.000Z</time>
      </trkpt>
      <trkpt lat="47.17988" lon="-1.50777">
        <ele>70</ele>
        <time>2021-01-02T14:35:07.000Z</time>
      </trkpt>
      <trkpt lat="47.17995" lon="-1.50794">
        <ele>69</ele>
        <time>2021-01-02T14:35:09.000Z</time>
      </trkpt>
      <trkpt lat="47.18" lon="-1.50811">
        <ele>69</ele>
        <time>2021-01-02T14:35:11.000Z</time>
      </trkpt>
      <trkpt lat="47.18004" lon="-1.5083">
        <ele>69</ele>
        <time>2021-01-02T14:35:13.000Z</time>
      </trkpt>
      <trkpt lat="47.18007" lon="-1.5085">
        <ele>69</ele>
        <time>2021-01-02T14:35:15.000Z</time>
      </trkpt>
      <trkpt lat="47.18011" lon="-1.50872">
        <ele>68</ele>
        <time>2021-01-02T14:35:17.000Z</time>
      </trkpt>
      <trkpt lat="47.18014" lon="-1.50894">
        <ele>67</ele>
        <time>2021-01-02T14:35:19.000Z</time>
      </trkpt>
      <trkpt lat="47.18017" lon="-1.50917">
        <ele>65</ele>
        <time>2021-01-02T14:35:21.000Z</time>
      </trkpt>
      <trkpt lat="47.18025" lon="-1.50937">
        <ele>64</ele>
        <time>2021-01-02T14:35:23.000Z</time>
      </trkpt>
      <trkpt lat="47.18035" lon="-1.50956">
        <ele>63</ele>
        <time>2021-01-02T14:35:25.000Z</time>
      </trkpt>
      <trkpt lat="47.18044" lon="-1.50975">
        <ele>63</ele>
        <time>2021-01-02T14:35:27.000Z</time>
      </trkpt>
      <trkpt lat="47.18052" lon="-1.50996">
        <ele>61</ele>
        <time>2021-01-02T14:35:29.000Z</time>
      </trkpt>
      <trkpt lat="47.18059" lon="-1.51017">
        <ele>59</ele>
        <time>2021-01-02T14:35:31.000Z</time>
      </trkpt>
      <trkpt lat="47.18066" lon="-1.51039">
        <ele>58</ele>
        <time>2021-01-02T14:35:33.000Z</time>
      </trkpt>
      <trkpt lat="47.18073" lon="-1.51061">
        <ele>57</ele>
        <time>2021-01-02T14:35:35.000Z</time>
      </trkpt>
      <trkpt lat="47.18081" lon="-1.51084">
        <ele>57</ele>
        <time>2021-01-02T14:35:37.000Z</time>
      </trkpt>
      <trkpt lat="47.18088" lon="-1.51107">
        <ele>57</ele>
        <time>2021-01-02T14:35:39.000Z</time>
      </trkpt>
      <trkpt lat="47.18094" lon="-1.51127">
        <ele>57</ele>
        <time>2021-01-02T14:35:41.000Z</time>
      </trkpt>
      <trkpt lat="47.181" lon="-1.51146">
        <ele>58</ele>
        <time>2021-01-02T14:35:43.000Z</time>
      </trkpt>
      <trkpt lat="47.18108" lon="-1.51163">
        <ele>58</ele>
        <time>2021-01-02T14:35:45.000Z</time>
      </trkpt>
      <trkpt lat="47.18113" lon="-1.51181">
        <ele>59</ele>
        <time>2021-01-02T14:35:47.000Z</time>
      </trkpt>
      <trkpt lat="47.18119" lon="-1.51198">
        <ele>59</ele>
        <time>2021-01-02T14:35:49.000Z</time>
      </trkpt>
      <trkpt lat="47.18124" lon="-1.51216">
        <ele>59</ele>
        <time>2021-01-02T14:35:51.000Z</time>
      </trkpt>
      <trkpt lat="47.1813" lon="-1.51233">
        <ele>59</ele>
        <time>2021-01-02T14:35:53.000Z</time>
      </trkpt>
      <trkpt lat="47.18137" lon="-1.51251">
        <ele>60</ele>
        <time>2021-01-02T14:35:55.000Z</time>
      </trkpt>
      <trkpt lat="47.18144" lon="-1.51268">
        <ele>60</ele>
        <time>2021-01-02T14:35:57.000Z</time>
      </trkpt>
      <trkpt lat="47.18151" lon="-1.51285">
        <ele>60</ele>
        <time>2021-01-02T14:35:59.000Z</time>
      </trkpt>
      <trkpt lat="47.18157" lon="-1.51301">
        <ele>61</ele>
        <time>2021-01-02T14:36:01.000Z</time>
      </trkpt>
      <trkpt lat="47.18164" lon="-1.51316">
        <ele>61</ele>
        <time>2021-01-02T14:36:03.000Z</time>
      </trkpt>
      <trkpt lat="47.1817" lon="-1.51331">
        <ele>61</ele>
        <time>2021-01-02T14:36:05.000Z</time>
      </trkpt>
      <trkpt lat="47.18178" lon="-1.51347">
        <ele>60</ele>
        <time>2021-01-02T14:36:07.000Z</time>
      </trkpt>
      <trkpt lat="47.18185" lon="-1.51363">
        <ele>60</ele>
        <time>2021-01-02T14:36:09.000Z</time>
      </trkpt>
      <trkpt lat="47.18192" lon="-1.51378">
        <ele>60</ele>
        <time>2021-01-02T14:36:11.000Z</time>
      </trkpt>
      <trkpt lat="47.18199" lon="-1.51394">
        <ele>60</ele>
        <time>2021-01-02T14:36:13.000Z</time>
      </trkpt>
      <trkpt lat="47.18206" lon="-1.51409">
        <ele>60</ele>
        <time>2021-01-02T14:36:15.000Z</time>
      </trkpt>
      <trkpt lat="47.18213" lon="-1.51425">
        <ele>60</ele>
        <time>2021-01-02T14:36:17.000Z</time>
      </trkpt>
      <trkpt lat="47.1822" lon="-1.5144">
        <ele>60</ele>
        <time>2021-01-02T14:36:19.000Z</time>
      </trkpt>
      <trkpt lat="47.18226" lon="-1.51457">
        <ele>61</ele>
        <time>2021-01-02T14:36:21.000Z</time>
      </trkpt>
      <trkpt lat="47.18232" lon="-1.51473">
        <ele>61</ele>
        <time>2021-01-02T14:36:23.000Z</time>
      </trkpt>
      <trkpt lat="47.18238" lon="-1.51488">
        <ele>61</ele>
        <time>2021-01-02T14:36:25.000Z</time>
      </trkpt>
      <trkpt lat="47.18244" lon="-1.51504">
        <ele>61</ele>
        <time>2021-01-02T14:36:27.000Z</time>
      </trkpt>
      <trkpt lat="47.18251" lon="-1.51519">
        <ele>61</ele>
        <time>2021-01-02T14:36:29.000Z</time>
      </trkpt>
      <trkpt lat="47.18258" lon="-1.51535">
        <ele>61</ele>
        <time>2021-01-02T14:36:31.000Z</time>
      </trkpt>
      <trkpt lat="47.18265" lon="-1.51551">
        <ele>61</ele>
        <time>2021-01-02T14:36:33.000Z</time>
      </trkpt>
      <trkpt lat="47.18272" lon="-1.51568">
        <ele>60</ele>
        <time>2021-01-02T14:36:35.000Z</time>
      </trkpt>
      <trkpt lat="47.18278" lon="-1.51583">
        <ele>60</ele>
        <time>2021-01-02T14:36:37.000Z</time>
      </trkpt>
      <trkpt lat="47.18284" lon="-1.51599">
        <ele>60</ele>
        <time>2021-01-02T14:36:39.000Z</time>
      </trkpt>
      <trkpt lat="47.1829" lon="-1.51617">
        <ele>60</ele>
        <time>2021-01-02T14:36:41.000Z</time>
      </trkpt>
      <trkpt lat="47.18296" lon="-1.51634">
        <ele>60</ele>
        <time>2021-01-02T14:36:43.000Z</time>
      </trkpt>
      <trkpt lat="47.18301" lon="-1.51651">
        <ele>60</ele>
        <time>2021-01-02T14:36:45.000Z</time>
      </trkpt>
      <trkpt lat="47.18308" lon="-1.51669">
        <ele>60</ele>
        <time>2021-01-02T14:36:47.000Z</time>
      </trkpt>
      <trkpt lat="47.18314" lon="-1.51686">
        <ele>59</ele>
        <time>2021-01-02T14:36:49.000Z</time>
      </trkpt>
      <trkpt lat="47.18319" lon="-1.51705">
        <ele>59</ele>
        <time>2021-01-02T14:36:51.000Z</time>
      </trkpt>
      <trkpt lat="47.18324" lon="-1.51724">
        <ele>59</ele>
        <time>2021-01-02T14:36:53.000Z</time>
      </trkpt>
      <trkpt lat="47.18327" lon="-1.51743">
        <ele>60</ele>
        <time>2021-01-02T14:36:55.000Z</time>
      </trkpt>
      <trkpt lat="47.1833" lon="-1.51762">
        <ele>60</ele>
        <time>2021-01-02T14:36:57.000Z</time>
      </trkpt>
      <trkpt lat="47.18333" lon="-1.51779">
        <ele>60</ele>
        <time>2021-01-02T14:36:59.000Z</time>
      </trkpt>
      <trkpt lat="47.18337" lon="-1.51796">
        <ele>60</ele>
        <time>2021-01-02T14:37:01.000Z</time>
      </trkpt>
      <trkpt lat="47.18341" lon="-1.51815">
        <ele>60</ele>
        <time>2021-01-02T14:37:03.000Z</time>
      </trkpt>
      <trkpt lat="47.18343" lon="-1.51833">
        <ele>61</ele>
        <time>2021-01-02T14:37:05.000Z</time>
      </trkpt>
      <trkpt lat="47.18347" lon="-1.51852">
        <ele>60</ele>
        <time>2021-01-02T14:37:07.000Z</time>
      </trkpt>
      <trkpt lat="47.1835" lon="-1.51869">
        <ele>61</ele>
        <time>2021-01-02T14:37:09.000Z</time>
      </trkpt>
      <trkpt lat="47.18352" lon="-1.51887">
        <ele>61</ele>
        <time>2021-01-02T14:37:11.000Z</time>
      </trkpt>
      <trkpt lat="47.18355" lon="-1.51904">
        <ele>62</ele>
        <time>2021-01-02T14:37:13.000Z</time>
      </trkpt>
      <trkpt lat="47.18358" lon="-1.51921">
        <ele>62</ele>
        <time>2021-01-02T14:37:15.000Z</time>
      </trkpt>
      <trkpt lat="47.18361" lon="-1.51938">
        <ele>63</ele>
        <time>2021-01-02T14:37:17.000Z</time>
      </trkpt>
      <trkpt lat="47.18365" lon="-1.51956">
        <ele>63</ele>
        <time>2021-01-02T14:37:19.000Z</time>
      </trkpt>
      <trkpt lat="47.18367" lon="-1.51974">
        <ele>63</ele>
        <time>2021-01-02T14:37:21.000Z</time>
      </trkpt>
      <trkpt lat="47.1837" lon="-1.51992">
        <ele>63</ele>
        <time>2021-01-02T14:37:23.000Z</time>
      </trkpt>
      <trkpt lat="47.18373" lon="-1.5201">
        <ele>63</ele>
        <time>2021-01-02T14:37:25.000Z</time>
      </trkpt>
      <trkpt lat="47.18376" lon="-1.52028">
        <ele>62</ele>
        <time>2021-01-02T14:37:27.000Z</time>
      </trkpt>
      <trkpt lat="47.18379" lon="-1.52046">
        <ele>63</ele>
        <time>2021-01-02T14:37:29.000Z</time>
      </trkpt>
      <trkpt lat="47.18382" lon="-1.52064">
        <ele>63</ele>
        <time>2021-01-02T14:37:31.000Z</time>
      </trkpt>
      <trkpt lat="47.18384" lon="-1.52082">
        <ele>63</ele>
        <time>2021-01-02T14:37:33.000Z</time>
      </trkpt>
      <trkpt lat="47.18388" lon="-1.52099">
        <ele>63</ele>
        <time>2021-01-02T14:37:35.000Z</time>
      </trkpt>
      <trkpt lat="47.18391" lon="-1.52117">
        <ele>63</ele>
        <time>2021-01-02T14:37:37.000Z</time>
      </trkpt>
      <trkpt lat="47.18394" lon="-1.52135">
        <ele>63</ele>
        <time>2021-01-02T14:37:39.000Z</time>
      </trkpt>
      <trkpt lat="47.18396" lon="-1.52153">
        <ele>63</ele>
        <time>2021-01-02T14:37:41.000Z</time>
      </trkpt>
      <trkpt lat="47.18399" lon="-1.5217">
        <ele>64</ele>
        <time>2021-01-02T14:37:43.000Z</time>
      </trkpt>
      <trkpt lat="47.18403" lon="-1.52188">
        <ele>63</ele>
        <time>2021-01-02T14:37:45.000Z</time>
      </trkpt>
      <trkpt lat="47.18407" lon="-1.52205">
        <ele>63</ele>
        <time>2021-01-02T14:37:47.000Z</time>
      </trkpt>
      <trkpt lat="47.1841" lon="-1.52222">
        <ele>63</ele>
        <time>2021-01-02T14:37:49.000Z</time>
      </trkpt>
      <trkpt lat="47.18413" lon="-1.52239">
        <ele>63</ele>
        <time>2021-01-02T14:37:51.000Z</time>
      </trkpt>
      <trkpt lat="47.18417" lon="-1.52257">
        <ele>62</ele>
        <time>2021-01-02T14:37:53.000Z</time>
      </trkpt>
      <trkpt lat="47.18421" lon="-1.52273">
        <ele>62</ele>
        <time>2021-01-02T14:37:55.000Z</time>
      </trkpt>
      <trkpt lat="47.18425" lon="-1.5229">
        <ele>63</ele>
        <time>2021-01-02T14:37:57.000Z</time>
      </trkpt>
      <trkpt lat="47.18428" lon="-1.52307">
        <ele>62</ele>
        <time>2021-01-02T14:37:59.000Z</time>
      </trkpt>
      <trkpt lat="47.18431" lon="-1.52325">
        <ele>62</ele>
        <time>2021-01-02T14:38:01.000Z</time>
      </trkpt>
      <trkpt lat="47.18434" lon="-1.52343">
        <ele>62</ele>
        <time>2021-01-02T14:38:03.000Z</time>
      </trkpt>
      <trkpt lat="47.18438" lon="-1.52361">
        <ele>62</ele>
        <time>2021-01-02T14:38:05.000Z</time>
      </trkpt>
      <trkpt lat="47.18442" lon="-1.52378">
        <ele>62</ele>
        <time>2021-01-02T14:38:07.000Z</time>
      </trkpt>
      <trkpt lat="47.18445" lon="-1.52395">
        <ele>62</ele>
        <time>2021-01-02T14:38:09.000Z</time>
      </trkpt>
      <trkpt lat="47.18448" lon="-1.52411">
        <ele>62</ele>
        <time>2021-01-02T14:38:11.000Z</time>
      </trkpt>
      <trkpt lat="47.1845" lon="-1.52427">
        <ele>62</ele>
        <time>2021-01-02T14:38:13.000Z</time>
      </trkpt>
      <trkpt lat="47.18455" lon="-1.52443">
        <ele>62</ele>
        <time>2021-01-02T14:38:15.000Z</time>
      </trkpt>
      <trkpt lat="47.18459" lon="-1.52458">
        <ele>62</ele>
        <time>2021-01-02T14:38:17.000Z</time>
      </trkpt>
      <trkpt lat="47.18454" lon="-1.52472">
        <ele>62</ele>
        <time>2021-01-02T14:38:19.000Z</time>
      </trkpt>
      <trkpt lat="47.18444" lon="-1.52483">
        <ele>61</ele>
        <time>2021-01-02T14:38:21.000Z</time>
      </trkpt>
      <trkpt lat="47.18432" lon="-1.52493">
        <ele>61</ele>
        <time>2021-01-02T14:38:23.000Z</time>
      </trkpt>
      <trkpt lat="47.18418" lon="-1.52496">
        <ele>60</ele>
        <time>2021-01-02T14:38:25.000Z</time>
      </trkpt>
      <trkpt lat="47.18404" lon="-1.52498">
        <ele>59</ele>
        <time>2021-01-02T14:38:27.000Z</time>
      </trkpt>
      <trkpt lat="47.18391" lon="-1.52501">
        <ele>59</ele>
        <time>2021-01-02T14:38:29.000Z</time>
      </trkpt>
      <trkpt lat="47.18378" lon="-1.52504">
        <ele>60</ele>
        <time>2021-01-02T14:38:31.000Z</time>
      </trkpt>
      <trkpt lat="47.18363" lon="-1.52506">
        <ele>61</ele>
        <time>2021-01-02T14:38:33.000Z</time>
      </trkpt>
      <trkpt lat="47.1835" lon="-1.52507">
        <ele>61</ele>
        <time>2021-01-02T14:38:35.000Z</time>
      </trkpt>
      <trkpt lat="47.18336" lon="-1.52508">
        <ele>61</ele>
        <time>2021-01-02T14:38:37.000Z</time>
      </trkpt>
      <trkpt lat="47.18322" lon="-1.5251">
        <ele>61</ele>
        <time>2021-01-02T14:38:39.000Z</time>
      </trkpt>
      <trkpt lat="47.18308" lon="-1.52513">
        <ele>61</ele>
        <time>2021-01-02T14:38:41.000Z</time>
      </trkpt>
      <trkpt lat="47.18294" lon="-1.52514">
        <ele>60</ele>
        <time>2021-01-02T14:38:43.000Z</time>
      </trkpt>
      <trkpt lat="47.18281" lon="-1.52517">
        <ele>60</ele>
        <time>2021-01-02T14:38:45.000Z</time>
      </trkpt>
      <trkpt lat="47.18267" lon="-1.52519">
        <ele>60</ele>
        <time>2021-01-02T14:38:47.000Z</time>
      </trkpt>
      <trkpt lat="47.18254" lon="-1.5252">
        <ele>59</ele>
        <time>2021-01-02T14:38:49.000Z</time>
      </trkpt>
      <trkpt lat="47.1824" lon="-1.52523">
        <ele>59</ele>
        <time>2021-01-02T14:38:51.000Z</time>
      </trkpt>
      <trkpt lat="47.18226" lon="-1.52525">
        <ele>59</ele>
        <time>2021-01-02T14:38:53.000Z</time>
      </trkpt>
      <trkpt lat="47.18212" lon="-1.52527">
        <ele>59</ele>
        <time>2021-01-02T14:38:55.000Z</time>
      </trkpt>
      <trkpt lat="47.18199" lon="-1.52529">
        <ele>59</ele>
        <time>2021-01-02T14:38:57.000Z</time>
      </trkpt>
      <trkpt lat="47.18185" lon="-1.52533">
        <ele>59</ele>
        <time>2021-01-02T14:38:59.000Z</time>
      </trkpt>
      <trkpt lat="47.18171" lon="-1.52535">
        <ele>59</ele>
        <time>2021-01-02T14:39:01.000Z</time>
      </trkpt>
      <trkpt lat="47.18157" lon="-1.52537">
        <ele>59</ele>
        <time>2021-01-02T14:39:03.000Z</time>
      </trkpt>
      <trkpt lat="47.18144" lon="-1.5254">
        <ele>59</ele>
        <time>2021-01-02T14:39:05.000Z</time>
      </trkpt>
      <trkpt lat="47.1813" lon="-1.52542">
        <ele>60</ele>
        <time>2021-01-02T14:39:07.000Z</time>
      </trkpt>
      <trkpt lat="47.18117" lon="-1.52545">
        <ele>60</ele>
        <time>2021-01-02T14:39:09.000Z</time>
      </trkpt>
      <trkpt lat="47.18103" lon="-1.52548">
        <ele>60</ele>
        <time>2021-01-02T14:39:11.000Z</time>
      </trkpt>
      <trkpt lat="47.1809" lon="-1.52552">
        <ele>60</ele>
        <time>2021-01-02T14:39:13.000Z</time>
      </trkpt>
      <trkpt lat="47.18076" lon="-1.52557">
        <ele>59</ele>
        <time>2021-01-02T14:39:15.000Z</time>
      </trkpt>
      <trkpt lat="47.18063" lon="-1.52563">
        <ele>59</ele>
        <time>2021-01-02T14:39:17.000Z</time>
      </trkpt>
      <trkpt lat="47.18051" lon="-1.52571">
        <ele>59</ele>
        <time>2021-01-02T14:39:19.000Z</time>
      </trkpt>
      <trkpt lat="47.18038" lon="-1.5258">
        <ele>59</ele>
        <time>2021-01-02T14:39:21.000Z</time>
      </trkpt>
      <trkpt lat="47.18027" lon="-1.52591">
        <ele>59</ele>
        <time>2021-01-02T14:39:23.000Z</time>
      </trkpt>
      <trkpt lat="47.18016" lon="-1.52602">
        <ele>60</ele>
        <time>2021-01-02T14:39:25.000Z</time>
      </trkpt>
      <trkpt lat="47.18005" lon="-1.52616">
        <ele>60</ele>
        <time>2021-01-02T14:39:27.000Z</time>
      </trkpt>
      <trkpt lat="47.17996" lon="-1.5263">
        <ele>59</ele>
        <time>2021-01-02T14:39:29.000Z</time>
      </trkpt>
      <trkpt lat="47.17987" lon="-1.52646">
        <ele>59</ele>
        <time>2021-01-02T14:39:31.000Z</time>
      </trkpt>
      <trkpt lat="47.17979" lon="-1.52661">
        <ele>59</ele>
        <time>2021-01-02T14:39:33.000Z</time>
      </trkpt>
      <trkpt lat="47.17971" lon="-1.52676">
        <ele>59</ele>
        <time>2021-01-02T14:39:35.000Z</time>
      </trkpt>
      <trkpt lat="47.17964" lon="-1.52692">
        <ele>59</ele>
        <time>2021-01-02T14:39:37.000Z</time>
      </trkpt>
      <trkpt lat="47.17956" lon="-1.52708">
        <ele>59</ele>
        <time>2021-01-02T14:39:39.000Z</time>
      </trkpt>
      <trkpt lat="47.17949" lon="-1.52724">
        <ele>59</ele>
        <time>2021-01-02T14:39:41.000Z</time>
      </trkpt>
      <trkpt lat="47.17942" lon="-1.5274">
        <ele>59</ele>
        <time>2021-01-02T14:39:43.000Z</time>
      </trkpt>
      <trkpt lat="47.17934" lon="-1.52756">
        <ele>58</ele>
        <time>2021-01-02T14:39:45.000Z</time>
      </trkpt>
      <trkpt lat="47.17927" lon="-1.52772">
        <ele>58</ele>
        <time>2021-01-02T14:39:47.000Z</time>
      </trkpt>
      <trkpt lat="47.17919" lon="-1.52789">
        <ele>58</ele>
        <time>2021-01-02T14:39:49.000Z</time>
      </trkpt>
      <trkpt lat="47.17912" lon="-1.52805">
        <ele>57</ele>
        <time>2021-01-02T14:39:51.000Z</time>
      </trkpt>
      <trkpt lat="47.17905" lon="-1.52821">
        <ele>58</ele>
        <time>2021-01-02T14:39:53.000Z</time>
      </trkpt>
      <trkpt lat="47.17898" lon="-1.52837">
        <ele>58</ele>
        <time>2021-01-02T14:39:55.000Z</time>
      </trkpt>
      <trkpt lat="47.17891" lon="-1.52851">
        <ele>59</ele>
        <time>2021-01-02T14:39:57.000Z</time>
      </trkpt>
      <trkpt lat="47.17883" lon="-1.52865">
        <ele>59</ele>
        <time>2021-01-02T14:39:59.000Z</time>
      </trkpt>
      <trkpt lat="47.17876" lon="-1.52877">
        <ele>59</ele>
        <time>2021-01-02T14:40:01.000Z</time>
      </trkpt>
      <trkpt lat="47.17868" lon="-1.52888">
        <ele>59</ele>
        <time>2021-01-02T14:40:03.000Z</time>
      </trkpt>
      <trkpt lat="47.17859" lon="-1.52899">
        <ele>60</ele>
        <time>2021-01-02T14:40:05.000Z</time>
      </trkpt>
      <trkpt lat="47.1785" lon="-1.52909">
        <ele>61</ele>
        <time>2021-01-02T14:40:07.000Z</time>
      </trkpt>
      <trkpt lat="47.17841" lon="-1.52918">
        <ele>62</ele>
        <time>2021-01-02T14:40:09.000Z</time>
      </trkpt>
      <trkpt lat="47.17832" lon="-1.52926">
        <ele>63</ele>
        <time>2021-01-02T14:40:11.000Z</time>
      </trkpt>
      <trkpt lat="47.17824" lon="-1.52933">
        <ele>64</ele>
        <time>2021-01-02T14:40:13.000Z</time>
      </trkpt>
      <trkpt lat="47.17815" lon="-1.5294">
        <ele>64</ele>
        <time>2021-01-02T14:40:15.000Z</time>
      </trkpt>
      <trkpt lat="47.17807" lon="-1.52949">
        <ele>64</ele>
        <time>2021-01-02T14:40:17.000Z</time>
      </trkpt>
      <trkpt lat="47.17804" lon="-1.52964">
        <ele>65</ele>
        <time>2021-01-02T14:40:19.000Z</time>
      </trkpt>
      <trkpt lat="47.17809" lon="-1.52976">
        <ele>65</ele>
        <time>2021-01-02T14:40:21.000Z</time>
      </trkpt>
      <trkpt lat="47.17817" lon="-1.52989">
        <ele>65</ele>
        <time>2021-01-02T14:40:23.000Z</time>
      </trkpt>
      <trkpt lat="47.17824" lon="-1.53003">
        <ele>65</ele>
        <time>2021-01-02T14:40:25.000Z</time>
      </trkpt>
      <trkpt lat="47.17831" lon="-1.53015">
        <ele>65</ele>
        <time>2021-01-02T14:40:27.000Z</time>
      </trkpt>
      <trkpt lat="47.17839" lon="-1.53027">
        <ele>65</ele>
        <time>2021-01-02T14:40:29.000Z</time>
      </trkpt>
      <trkpt lat="47.17846" lon="-1.53039">
        <ele>66</ele>
        <time>2021-01-02T14:40:31.000Z</time>
      </trkpt>
      <trkpt lat="47.17852" lon="-1.53052">
        <ele>66</ele>
        <time>2021-01-02T14:40:33.000Z</time>
      </trkpt>
      <trkpt lat="47.17859" lon="-1.53063">
        <ele>66</ele>
        <time>2021-01-02T14:40:35.000Z</time>
      </trkpt>
      <trkpt lat="47.17866" lon="-1.53073">
        <ele>67</ele>
        <time>2021-01-02T14:40:37.000Z</time>
      </trkpt>
      <trkpt lat="47.17874" lon="-1.5308">
        <ele>67</ele>
        <time>2021-01-02T14:40:39.000Z</time>
      </trkpt>
      <trkpt lat="47.17882" lon="-1.53087">
        <ele>68</ele>
        <time>2021-01-02T14:40:41.000Z</time>
      </trkpt>
      <trkpt lat="47.17888" lon="-1.53101">
        <ele>68</ele>
        <time>2021-01-02T14:40:43.000Z</time>
      </trkpt>
      <trkpt lat="47.17892" lon="-1.53115">
        <ele>69</ele>
        <time>2021-01-02T14:40:45.000Z</time>
      </trkpt>
      <trkpt lat="47.17899" lon="-1.53129">
        <ele>69</ele>
        <time>2021-01-02T14:40:47.000Z</time>
      </trkpt>
      <trkpt lat="47.17905" lon="-1.53141">
        <ele>70</ele>
        <time>2021-01-02T14:40:49.000Z</time>
      </trkpt>
      <trkpt lat="47.17911" lon="-1.53153">
        <ele>70</ele>
        <time>2021-01-02T14:40:51.000Z</time>
      </trkpt>
      <trkpt lat="47.17918" lon="-1.53164">
        <ele>69</ele>
        <time>2021-01-02T14:40:53.000Z</time>
      </trkpt>
      <trkpt lat="47.17926" lon="-1.53175">
        <ele>69</ele>
        <time>2021-01-02T14:40:55.000Z</time>
      </trkpt>
      <trkpt lat="47.17934" lon="-1.53186">
        <ele>69</ele>
        <time>2021-01-02T14:40:57.000Z</time>
      </trkpt>
      <trkpt lat="47.17942" lon="-1.53197">
        <ele>69</ele>
        <time>2021-01-02T14:40:59.000Z</time>
      </trkpt>
      <trkpt lat="47.1795" lon="-1.53208">
        <ele>69</ele>
        <time>2021-01-02T14:41:01.000Z</time>
      </trkpt>
      <trkpt lat="47.17958" lon="-1.53219">
        <ele>69</ele>
        <time>2021-01-02T14:41:03.000Z</time>
      </trkpt>
      <trkpt lat="47.17966" lon="-1.5323">
        <ele>69</ele>
        <time>2021-01-02T14:41:05.000Z</time>
      </trkpt>
      <trkpt lat="47.17973" lon="-1.5324">
        <ele>69</ele>
        <time>2021-01-02T14:41:07.000Z</time>
      </trkpt>
      <trkpt lat="47.17981" lon="-1.53252">
        <ele>69</ele>
        <time>2021-01-02T14:41:09.000Z</time>
      </trkpt>
      <trkpt lat="47.17987" lon="-1.53265">
        <ele>69</ele>
        <time>2021-01-02T14:41:11.000Z</time>
      </trkpt>
      <trkpt lat="47.17993" lon="-1.53279">
        <ele>69</ele>
        <time>2021-01-02T14:41:13.000Z</time>
      </trkpt>
      <trkpt lat="47.17998" lon="-1.53293">
        <ele>69</ele>
        <time>2021-01-02T14:41:15.000Z</time>
      </trkpt>
      <trkpt lat="47.18002" lon="-1.5331">
        <ele>68</ele>
        <time>2021-01-02T14:41:17.000Z</time>
      </trkpt>
      <trkpt lat="47.18003" lon="-1.53327">
        <ele>68</ele>
        <time>2021-01-02T14:41:19.000Z</time>
      </trkpt>
      <trkpt lat="47.18004" lon="-1.53343">
        <ele>68</ele>
        <time>2021-01-02T14:41:21.000Z</time>
      </trkpt>
      <trkpt lat="47.18004" lon="-1.53357">
        <ele>68</ele>
        <time>2021-01-02T14:41:23.000Z</time>
      </trkpt>
      <trkpt lat="47.18004" lon="-1.53371">
        <ele>68</ele>
        <time>2021-01-02T14:41:25.000Z</time>
      </trkpt>
      <trkpt lat="47.18003" lon="-1.5339">
        <ele>68</ele>
        <time>2021-01-02T14:41:28.000Z</time>
      </trkpt>
      <trkpt lat="47.18003" lon="-1.53404">
        <ele>68</ele>
        <time>2021-01-02T14:41:30.000Z</time>
      </trkpt>
      <trkpt lat="47.18001" lon="-1.53418">
        <ele>68</ele>
        <time>2021-01-02T14:41:32.000Z</time>
      </trkpt>
      <trkpt lat="47.17999" lon="-1.53432">
        <ele>68</ele>
        <time>2021-01-02T14:41:34.000Z</time>
      </trkpt>
      <trkpt lat="47.17998" lon="-1.53448">
        <ele>68</ele>
        <time>2021-01-02T14:41:36.000Z</time>
      </trkpt>
      <trkpt lat="47.17995" lon="-1.53464">
        <ele>68</ele>
        <time>2021-01-02T14:41:38.000Z</time>
      </trkpt>
      <trkpt lat="47.17994" lon="-1.5348">
        <ele>68</ele>
        <time>2021-01-02T14:41:40.000Z</time>
      </trkpt>
      <trkpt lat="47.17995" lon="-1.53494">
        <ele>68</ele>
        <time>2021-01-02T14:41:42.000Z</time>
      </trkpt>
      <trkpt lat="47.17996" lon="-1.53509">
        <ele>68</ele>
        <time>2021-01-02T14:41:44.000Z</time>
      </trkpt>
      <trkpt lat="47.18" lon="-1.53525">
        <ele>68</ele>
        <time>2021-01-02T14:41:46.000Z</time>
      </trkpt>
      <trkpt lat="47.18004" lon="-1.53543">
        <ele>68</ele>
        <time>2021-01-02T14:41:48.000Z</time>
      </trkpt>
      <trkpt lat="47.18009" lon="-1.53561">
        <ele>69</ele>
        <time>2021-01-02T14:41:50.000Z</time>
      </trkpt>
      <trkpt lat="47.18013" lon="-1.53578">
        <ele>69</ele>
        <time>2021-01-02T14:41:52.000Z</time>
      </trkpt>
      <trkpt lat="47.18017" lon="-1.53595">
        <ele>69</ele>
        <time>2021-01-02T14:41:54.000Z</time>
      </trkpt>
      <trkpt lat="47.18023" lon="-1.53612">
        <ele>69</ele>
        <time>2021-01-02T14:41:56.000Z</time>
      </trkpt>
      <trkpt lat="47.18028" lon="-1.53626">
        <ele>69</ele>
        <time>2021-01-02T14:41:58.000Z</time>
      </trkpt>
      <trkpt lat="47.18036" lon="-1.53638">
        <ele>69</ele>
        <time>2021-01-02T14:42:00.000Z</time>
      </trkpt>
      <trkpt lat="47.18045" lon="-1.53651">
        <ele>69</ele>
        <time>2021-01-02T14:42:02.000Z</time>
      </trkpt>
      <trkpt lat="47.18056" lon="-1.53662">
        <ele>70</ele>
        <time>2021-01-02T14:42:04.000Z</time>
      </trkpt>
      <trkpt lat="47.18065" lon="-1.53671">
        <ele>70</ele>
        <time>2021-01-02T14:42:06.000Z</time>
      </trkpt>
      <trkpt lat="47.18077" lon="-1.5368">
        <ele>69</ele>
        <time>2021-01-02T14:42:08.000Z</time>
      </trkpt>
      <trkpt lat="47.18087" lon="-1.5369">
        <ele>69</ele>
        <time>2021-01-02T14:42:10.000Z</time>
      </trkpt>
      <trkpt lat="47.18098" lon="-1.537">
        <ele>69</ele>
        <time>2021-01-02T14:42:12.000Z</time>
      </trkpt>
      <trkpt lat="47.18109" lon="-1.5371">
        <ele>68</ele>
        <time>2021-01-02T14:42:14.000Z</time>
      </trkpt>
      <trkpt lat="47.1812" lon="-1.5372">
        <ele>69</ele>
        <time>2021-01-02T14:42:16.000Z</time>
      </trkpt>
      <trkpt lat="47.18131" lon="-1.5373">
        <ele>69</ele>
        <time>2021-01-02T14:42:18.000Z</time>
      </trkpt>
      <trkpt lat="47.18142" lon="-1.53741">
        <ele>68</ele>
        <time>2021-01-02T14:42:20.000Z</time>
      </trkpt>
      <trkpt lat="47.18153" lon="-1.53752">
        <ele>68</ele>
        <time>2021-01-02T14:42:22.000Z</time>
      </trkpt>
      <trkpt lat="47.18164" lon="-1.53763">
        <ele>68</ele>
        <time>2021-01-02T14:42:24.000Z</time>
      </trkpt>
      <trkpt lat="47.18175" lon="-1.53774">
        <ele>68</ele>
        <time>2021-01-02T14:42:26.000Z</time>
      </trkpt>
      <trkpt lat="47.18186" lon="-1.53784">
        <ele>68</ele>
        <time>2021-01-02T14:42:28.000Z</time>
      </trkpt>
      <trkpt lat="47.18197" lon="-1.53794">
        <ele>68</ele>
        <time>2021-01-02T14:42:30.000Z</time>
      </trkpt>
      <trkpt lat="47.18209" lon="-1.53804">
        <ele>68</ele>
        <time>2021-01-02T14:42:32.000Z</time>
      </trkpt>
      <trkpt lat="47.18219" lon="-1.53814">
        <ele>68</ele>
        <time>2021-01-02T14:42:34.000Z</time>
      </trkpt>
      <trkpt lat="47.1823" lon="-1.53825">
        <ele>69</ele>
        <time>2021-01-02T14:42:36.000Z</time>
      </trkpt>
      <trkpt lat="47.1824" lon="-1.53837">
        <ele>69</ele>
        <time>2021-01-02T14:42:38.000Z</time>
      </trkpt>
      <trkpt lat="47.18251" lon="-1.53848">
        <ele>69</ele>
        <time>2021-01-02T14:42:40.000Z</time>
      </trkpt>
      <trkpt lat="47.18262" lon="-1.53859">
        <ele>70</ele>
        <time>2021-01-02T14:42:42.000Z</time>
      </trkpt>
      <trkpt lat="47.18273" lon="-1.53869">
        <ele>70</ele>
        <time>2021-01-02T14:42:44.000Z</time>
      </trkpt>
      <trkpt lat="47.18283" lon="-1.5388">
        <ele>70</ele>
        <time>2021-01-02T14:42:46.000Z</time>
      </trkpt>
      <trkpt lat="47.18294" lon="-1.5389">
        <ele>70</ele>
        <time>2021-01-02T14:42:48.000Z</time>
      </trkpt>
      <trkpt lat="47.18305" lon="-1.53901">
        <ele>70</ele>
        <time>2021-01-02T14:42:50.000Z</time>
      </trkpt>
      <trkpt lat="47.18316" lon="-1.53911">
        <ele>71</ele>
        <time>2021-01-02T14:42:52.000Z</time>
      </trkpt>
      <trkpt lat="47.18327" lon="-1.53919">
        <ele>71</ele>
        <time>2021-01-02T14:42:54.000Z</time>
      </trkpt>
      <trkpt lat="47.18337" lon="-1.53927">
        <ele>71</ele>
        <time>2021-01-02T14:42:56.000Z</time>
      </trkpt>
      <trkpt lat="47.18348" lon="-1.53934">
        <ele>71</ele>
        <time>2021-01-02T14:42:58.000Z</time>
      </trkpt>
      <trkpt lat="47.18357" lon="-1.53947">
        <ele>72</ele>
        <time>2021-01-02T14:43:00.000Z</time>
      </trkpt>
      <trkpt lat="47.18368" lon="-1.53957">
        <ele>71</ele>
        <time>2021-01-02T14:43:02.000Z</time>
      </trkpt>
      <trkpt lat="47.18378" lon="-1.53967">
        <ele>72</ele>
        <time>2021-01-02T14:43:04.000Z</time>
      </trkpt>
      <trkpt lat="47.18388" lon="-1.53977">
        <ele>72</ele>
        <time>2021-01-02T14:43:06.000Z</time>
      </trkpt>
      <trkpt lat="47.18399" lon="-1.53986">
        <ele>72</ele>
        <time>2021-01-02T14:43:08.000Z</time>
      </trkpt>
      <trkpt lat="47.18409" lon="-1.53996">
        <ele>71</ele>
        <time>2021-01-02T14:43:10.000Z</time>
      </trkpt>
      <trkpt lat="47.18419" lon="-1.54006">
        <ele>72</ele>
        <time>2021-01-02T14:43:12.000Z</time>
      </trkpt>
      <trkpt lat="47.1843" lon="-1.54015">
        <ele>72</ele>
        <time>2021-01-02T14:43:14.000Z</time>
      </trkpt>
      <trkpt lat="47.1844" lon="-1.54024">
        <ele>72</ele>
        <time>2021-01-02T14:43:16.000Z</time>
      </trkpt>
      <trkpt lat="47.1845" lon="-1.54035">
        <ele>71</ele>
        <time>2021-01-02T14:43:18.000Z</time>
      </trkpt>
      <trkpt lat="47.1846" lon="-1.54045">
        <ele>71</ele>
        <time>2021-01-02T14:43:20.000Z</time>
      </trkpt>
      <trkpt lat="47.18471" lon="-1.54054">
        <ele>71</ele>
        <time>2021-01-02T14:43:22.000Z</time>
      </trkpt>
      <trkpt lat="47.1848" lon="-1.54064">
        <ele>71</ele>
        <time>2021-01-02T14:43:24.000Z</time>
      </trkpt>
      <trkpt lat="47.1849" lon="-1.54074">
        <ele>71</ele>
        <time>2021-01-02T14:43:26.000Z</time>
      </trkpt>
      <trkpt lat="47.185" lon="-1.54083">
        <ele>71</ele>
        <time>2021-01-02T14:43:28.000Z</time>
      </trkpt>
      <trkpt lat="47.1851" lon="-1.54093">
        <ele>71</ele>
        <time>2021-01-02T14:43:30.000Z</time>
      </trkpt>
      <trkpt lat="47.18521" lon="-1.54102">
        <ele>70</ele>
        <time>2021-01-02T14:43:32.000Z</time>
      </trkpt>
      <trkpt lat="47.18531" lon="-1.54113">
        <ele>70</ele>
        <time>2021-01-02T14:43:34.000Z</time>
      </trkpt>
      <trkpt lat="47.18541" lon="-1.54123">
        <ele>70</ele>
        <time>2021-01-02T14:43:36.000Z</time>
      </trkpt>
      <trkpt lat="47.1855" lon="-1.54131">
        <ele>70</ele>
        <time>2021-01-02T14:43:38.000Z</time>
      </trkpt>
      <trkpt lat="47.18561" lon="-1.5414">
        <ele>70</ele>
        <time>2021-01-02T14:43:40.000Z</time>
      </trkpt>
      <trkpt lat="47.18571" lon="-1.5415">
        <ele>70</ele>
        <time>2021-01-02T14:43:42.000Z</time>
      </trkpt>
      <trkpt lat="47.18582" lon="-1.54161">
        <ele>70</ele>
        <time>2021-01-02T14:43:44.000Z</time>
      </trkpt>
      <trkpt lat="47.18594" lon="-1.54172">
        <ele>70</ele>
        <time>2021-01-02T14:43:46.000Z</time>
      </trkpt>
      <trkpt lat="47.18605" lon="-1.54183">
        <ele>69</ele>
        <time>2021-01-02T14:43:48.000Z</time>
      </trkpt>
      <trkpt lat="47.18616" lon="-1.54195">
        <ele>69</ele>
        <time>2021-01-02T14:43:50.000Z</time>
      </trkpt>
      <trkpt lat="47.18628" lon="-1.54206">
        <ele>69</ele>
        <time>2021-01-02T14:43:52.000Z</time>
      </trkpt>
      <trkpt lat="47.18639" lon="-1.5422">
        <ele>69</ele>
        <time>2021-01-02T14:43:54.000Z</time>
      </trkpt>
      <trkpt lat="47.1865" lon="-1.54232">
        <ele>68</ele>
        <time>2021-01-02T14:43:56.000Z</time>
      </trkpt>
      <trkpt lat="47.18661" lon="-1.54246">
        <ele>68</ele>
        <time>2021-01-02T14:43:58.000Z</time>
      </trkpt>
      <trkpt lat="47.18672" lon="-1.5426">
        <ele>68</ele>
        <time>2021-01-02T14:44:00.000Z</time>
      </trkpt>
      <trkpt lat="47.18683" lon="-1.54274">
        <ele>68</ele>
        <time>2021-01-02T14:44:02.000Z</time>
      </trkpt>
      <trkpt lat="47.18693" lon="-1.54288">
        <ele>67</ele>
        <time>2021-01-02T14:44:04.000Z</time>
      </trkpt>
      <trkpt lat="47.18704" lon="-1.54302">
        <ele>66</ele>
        <time>2021-01-02T14:44:06.000Z</time>
      </trkpt>
      <trkpt lat="47.18715" lon="-1.54318">
        <ele>66</ele>
        <time>2021-01-02T14:44:08.000Z</time>
      </trkpt>
      <trkpt lat="47.18726" lon="-1.54333">
        <ele>66</ele>
        <time>2021-01-02T14:44:10.000Z</time>
      </trkpt>
      <trkpt lat="47.18738" lon="-1.54347">
        <ele>65</ele>
        <time>2021-01-02T14:44:12.000Z</time>
      </trkpt>
      <trkpt lat="47.18749" lon="-1.54362">
        <ele>65</ele>
        <time>2021-01-02T14:44:14.000Z</time>
      </trkpt>
      <trkpt lat="47.18761" lon="-1.54377">
        <ele>64</ele>
        <time>2021-01-02T14:44:16.000Z</time>
      </trkpt>
      <trkpt lat="47.18772" lon="-1.54392">
        <ele>63</ele>
        <time>2021-01-02T14:44:18.000Z</time>
      </trkpt>
      <trkpt lat="47.18783" lon="-1.54407">
        <ele>63</ele>
        <time>2021-01-02T14:44:20.000Z</time>
      </trkpt>
      <trkpt lat="47.18793" lon="-1.54422">
        <ele>62</ele>
        <time>2021-01-02T14:44:22.000Z</time>
      </trkpt>
      <trkpt lat="47.18804" lon="-1.54437">
        <ele>61</ele>
        <time>2021-01-02T14:44:24.000Z</time>
      </trkpt>
      <trkpt lat="47.18815" lon="-1.54452">
        <ele>61</ele>
        <time>2021-01-02T14:44:26.000Z</time>
      </trkpt>
      <trkpt lat="47.18827" lon="-1.54466">
        <ele>60</ele>
        <time>2021-01-02T14:44:28.000Z</time>
      </trkpt>
      <trkpt lat="47.18838" lon="-1.54481">
        <ele>60</ele>
        <time>2021-01-02T14:44:30.000Z</time>
      </trkpt>
      <trkpt lat="47.18848" lon="-1.54496">
        <ele>60</ele>
        <time>2021-01-02T14:44:32.000Z</time>
      </trkpt>
      <trkpt lat="47.18858" lon="-1.54511">
        <ele>60</ele>
        <time>2021-01-02T14:44:34.000Z</time>
      </trkpt>
      <trkpt lat="47.18867" lon="-1.54526">
        <ele>59</ele>
        <time>2021-01-02T14:44:36.000Z</time>
      </trkpt>
      <trkpt lat="47.18873" lon="-1.54539">
        <ele>59</ele>
        <time>2021-01-02T14:44:38.000Z</time>
      </trkpt>
      <trkpt lat="47.18872" lon="-1.54558">
        <ele>59</ele>
        <time>2021-01-02T14:44:40.000Z</time>
      </trkpt>
      <trkpt lat="47.18865" lon="-1.54577">
        <ele>58</ele>
        <time>2021-01-02T14:44:42.000Z</time>
      </trkpt>
      <trkpt lat="47.18857" lon="-1.54594">
        <ele>59</ele>
        <time>2021-01-02T14:44:44.000Z</time>
      </trkpt>
      <trkpt lat="47.18849" lon="-1.54611">
        <ele>60</ele>
        <time>2021-01-02T14:44:46.000Z</time>
      </trkpt>
      <trkpt lat="47.18841" lon="-1.54627">
        <ele>61</ele>
        <time>2021-01-02T14:44:48.000Z</time>
      </trkpt>
      <trkpt lat="47.18834" lon="-1.54644">
        <ele>61</ele>
        <time>2021-01-02T14:44:50.000Z</time>
      </trkpt>
      <trkpt lat="47.18827" lon="-1.54661">
        <ele>61</ele>
        <time>2021-01-02T14:44:52.000Z</time>
      </trkpt>
      <trkpt lat="47.18823" lon="-1.54676">
        <ele>61</ele>
        <time>2021-01-02T14:44:54.000Z</time>
      </trkpt>
      <trkpt lat="47.18819" lon="-1.54689">
        <ele>60</ele>
        <time>2021-01-02T14:44:56.000Z</time>
      </trkpt>
      <trkpt lat="47.18817" lon="-1.54703">
        <ele>60</ele>
        <time>2021-01-02T14:44:58.000Z</time>
      </trkpt>
      <trkpt lat="47.18812" lon="-1.54722">
        <ele>60</ele>
        <time>2021-01-02T14:45:00.000Z</time>
      </trkpt>
      <trkpt lat="47.18808" lon="-1.54742">
        <ele>60</ele>
        <time>2021-01-02T14:45:02.000Z</time>
      </trkpt>
      <trkpt lat="47.18808" lon="-1.54764">
        <ele>61</ele>
        <time>2021-01-02T14:45:04.000Z</time>
      </trkpt>
      <trkpt lat="47.18808" lon="-1.54784">
        <ele>61</ele>
        <time>2021-01-02T14:45:06.000Z</time>
      </trkpt>
      <trkpt lat="47.18808" lon="-1.54804">
        <ele>61</ele>
        <time>2021-01-02T14:45:08.000Z</time>
      </trkpt>
      <trkpt lat="47.18809" lon="-1.54824">
        <ele>61</ele>
        <time>2021-01-02T14:45:10.000Z</time>
      </trkpt>
      <trkpt lat="47.18811" lon="-1.54845">
        <ele>61</ele>
        <time>2021-01-02T14:45:12.000Z</time>
      </trkpt>
      <trkpt lat="47.18813" lon="-1.54865">
        <ele>62</ele>
        <time>2021-01-02T14:45:14.000Z</time>
      </trkpt>
      <trkpt lat="47.18815" lon="-1.54885">
        <ele>62</ele>
        <time>2021-01-02T14:45:16.000Z</time>
      </trkpt>
      <trkpt lat="47.18818" lon="-1.54904">
        <ele>62</ele>
        <time>2021-01-02T14:45:18.000Z</time>
      </trkpt>
      <trkpt lat="47.1882" lon="-1.54923">
        <ele>63</ele>
        <time>2021-01-02T14:45:20.000Z</time>
      </trkpt>
      <trkpt lat="47.18824" lon="-1.54941">
        <ele>64</ele>
        <time>2021-01-02T14:45:22.000Z</time>
      </trkpt>
      <trkpt lat="47.18829" lon="-1.54958">
        <ele>63</ele>
        <time>2021-01-02T14:45:24.000Z</time>
      </trkpt>
      <trkpt lat="47.18833" lon="-1.54975">
        <ele>63</ele>
        <time>2021-01-02T14:45:26.000Z</time>
      </trkpt>
      <trkpt lat="47.18838" lon="-1.54992">
        <ele>63</ele>
        <time>2021-01-02T14:45:28.000Z</time>
      </trkpt>
      <trkpt lat="47.18843" lon="-1.5501">
        <ele>63</ele>
        <time>2021-01-02T14:45:30.000Z</time>
      </trkpt>
      <trkpt lat="47.18848" lon="-1.55028">
        <ele>63</ele>
        <time>2021-01-02T14:45:32.000Z</time>
      </trkpt>
      <trkpt lat="47.18853" lon="-1.55044">
        <ele>63</ele>
        <time>2021-01-02T14:45:34.000Z</time>
      </trkpt>
      <trkpt lat="47.18858" lon="-1.55061">
        <ele>63</ele>
        <time>2021-01-02T14:45:36.000Z</time>
      </trkpt>
      <trkpt lat="47.18862" lon="-1.55075">
        <ele>63</ele>
        <time>2021-01-02T14:45:38.000Z</time>
      </trkpt>
      <trkpt lat="47.18866" lon="-1.55088">
        <ele>63</ele>
        <time>2021-01-02T14:45:40.000Z</time>
      </trkpt>
      <trkpt lat="47.18872" lon="-1.55099">
        <ele>63</ele>
        <time>2021-01-02T14:45:42.000Z</time>
      </trkpt>
      <trkpt lat="47.18878" lon="-1.55112">
        <ele>63</ele>
        <time>2021-01-02T14:45:44.000Z</time>
      </trkpt>
      <trkpt lat="47.18883" lon="-1.55127">
        <ele>63</ele>
        <time>2021-01-02T14:45:46.000Z</time>
      </trkpt>
      <trkpt lat="47.18891" lon="-1.5514">
        <ele>62</ele>
        <time>2021-01-02T14:45:48.000Z</time>
      </trkpt>
      <trkpt lat="47.18899" lon="-1.55154">
        <ele>62</ele>
        <time>2021-01-02T14:45:50.000Z</time>
      </trkpt>
      <trkpt lat="47.18907" lon="-1.55168">
        <ele>62</ele>
        <time>2021-01-02T14:45:52.000Z</time>
      </trkpt>
      <trkpt lat="47.18916" lon="-1.55183">
        <ele>61</ele>
        <time>2021-01-02T14:45:54.000Z</time>
      </trkpt>
      <trkpt lat="47.18923" lon="-1.55197">
        <ele>61</ele>
        <time>2021-01-02T14:45:56.000Z</time>
      </trkpt>
      <trkpt lat="47.18928" lon="-1.55213">
        <ele>60</ele>
        <time>2021-01-02T14:45:58.000Z</time>
      </trkpt>
      <trkpt lat="47.18923" lon="-1.55229">
        <ele>59</ele>
        <time>2021-01-02T14:46:00.000Z</time>
      </trkpt>
      <trkpt lat="47.18916" lon="-1.55245">
        <ele>60</ele>
        <time>2021-01-02T14:46:02.000Z</time>
      </trkpt>
      <trkpt lat="47.18917" lon="-1.55266">
        <ele>60</ele>
        <time>2021-01-02T14:46:04.000Z</time>
      </trkpt>
      <trkpt lat="47.18917" lon="-1.55287">
        <ele>60</ele>
        <time>2021-01-02T14:46:06.000Z</time>
      </trkpt>
      <trkpt lat="47.18918" lon="-1.55307">
        <ele>59</ele>
        <time>2021-01-02T14:46:08.000Z</time>
      </trkpt>
      <trkpt lat="47.18918" lon="-1.55329">
        <ele>59</ele>
        <time>2021-01-02T14:46:10.000Z</time>
      </trkpt>
      <trkpt lat="47.18918" lon="-1.5535">
        <ele>59</ele>
        <time>2021-01-02T14:46:12.000Z</time>
      </trkpt>
      <trkpt lat="47.18917" lon="-1.55371">
        <ele>59</ele>
        <time>2021-01-02T14:46:14.000Z</time>
      </trkpt>
      <trkpt lat="47.18918" lon="-1.55391">
        <ele>59</ele>
        <time>2021-01-02T14:46:16.000Z</time>
      </trkpt>
      <trkpt lat="47.18919" lon="-1.55411">
        <ele>59</ele>
        <time>2021-01-02T14:46:18.000Z</time>
      </trkpt>
      <trkpt lat="47.18919" lon="-1.55431">
        <ele>58</ele>
        <time>2021-01-02T14:46:20.000Z</time>
      </trkpt>
      <trkpt lat="47.1892" lon="-1.5545">
        <ele>59</ele>
        <time>2021-01-02T14:46:22.000Z</time>
      </trkpt>
      <trkpt lat="47.1892" lon="-1.55469">
        <ele>59</ele>
        <time>2021-01-02T14:46:24.000Z</time>
      </trkpt>
      <trkpt lat="47.1892" lon="-1.55486">
        <ele>59</ele>
        <time>2021-01-02T14:46:26.000Z</time>
      </trkpt>
      <trkpt lat="47.18921" lon="-1.55504">
        <ele>59</ele>
        <time>2021-01-02T14:46:28.000Z</time>
      </trkpt>
      <trkpt lat="47.18922" lon="-1.55522">
        <ele>59</ele>
        <time>2021-01-02T14:46:30.000Z</time>
      </trkpt>
      <trkpt lat="47.18922" lon="-1.55539">
        <ele>59</ele>
        <time>2021-01-02T14:46:32.000Z</time>
      </trkpt>
      <trkpt lat="47.18923" lon="-1.55556">
        <ele>59</ele>
        <time>2021-01-02T14:46:34.000Z</time>
      </trkpt>
      <trkpt lat="47.18923" lon="-1.55574">
        <ele>59</ele>
        <time>2021-01-02T14:46:36.000Z</time>
      </trkpt>
      <trkpt lat="47.18923" lon="-1.55591">
        <ele>59</ele>
        <time>2021-01-02T14:46:38.000Z</time>
      </trkpt>
      <trkpt lat="47.18923" lon="-1.55608">
        <ele>60</ele>
        <time>2021-01-02T14:46:40.000Z</time>
      </trkpt>
      <trkpt lat="47.18923" lon="-1.55626">
        <ele>60</ele>
        <time>2021-01-02T14:46:42.000Z</time>
      </trkpt>
      <trkpt lat="47.18922" lon="-1.55643">
        <ele>61</ele>
        <time>2021-01-02T14:46:44.000Z</time>
      </trkpt>
      <trkpt lat="47.18921" lon="-1.5566">
        <ele>60</ele>
        <time>2021-01-02T14:46:46.000Z</time>
      </trkpt>
      <trkpt lat="47.18921" lon="-1.55677">
        <ele>61</ele>
        <time>2021-01-02T14:46:48.000Z</time>
      </trkpt>
      <trkpt lat="47.1892" lon="-1.55693">
        <ele>61</ele>
        <time>2021-01-02T14:46:50.000Z</time>
      </trkpt>
      <trkpt lat="47.1892" lon="-1.5571">
        <ele>61</ele>
        <time>2021-01-02T14:46:52.000Z</time>
      </trkpt>
      <trkpt lat="47.18919" lon="-1.55727">
        <ele>62</ele>
        <time>2021-01-02T14:46:54.000Z</time>
      </trkpt>
      <trkpt lat="47.18918" lon="-1.55744">
        <ele>62</ele>
        <time>2021-01-02T14:46:56.000Z</time>
      </trkpt>
      <trkpt lat="47.18917" lon="-1.5576">
        <ele>62</ele>
        <time>2021-01-02T14:46:58.000Z</time>
      </trkpt>
      <trkpt lat="47.18917" lon="-1.55778">
        <ele>62</ele>
        <time>2021-01-02T14:47:00.000Z</time>
      </trkpt>
      <trkpt lat="47.18917" lon="-1.55794">
        <ele>62</ele>
        <time>2021-01-02T14:47:02.000Z</time>
      </trkpt>
      <trkpt lat="47.18916" lon="-1.55812">
        <ele>62</ele>
        <time>2021-01-02T14:47:04.000Z</time>
      </trkpt>
      <trkpt lat="47.18915" lon="-1.55829">
        <ele>62</ele>
        <time>2021-01-02T14:47:06.000Z</time>
      </trkpt>
      <trkpt lat="47.18913" lon="-1.55845">
        <ele>62</ele>
        <time>2021-01-02T14:47:08.000Z</time>
      </trkpt>
      <trkpt lat="47.18912" lon="-1.55862">
        <ele>62</ele>
        <time>2021-01-02T14:47:10.000Z</time>
      </trkpt>
      <trkpt lat="47.1891" lon="-1.55879">
        <ele>62</ele>
        <time>2021-01-02T14:47:12.000Z</time>
      </trkpt>
      <trkpt lat="47.18909" lon="-1.55896">
        <ele>62</ele>
        <time>2021-01-02T14:47:14.000Z</time>
      </trkpt>
      <trkpt lat="47.18907" lon="-1.55912">
        <ele>62</ele>
        <time>2021-01-02T14:47:16.000Z</time>
      </trkpt>
      <trkpt lat="47.18906" lon="-1.55929">
        <ele>62</ele>
        <time>2021-01-02T14:47:18.000Z</time>
      </trkpt>
      <trkpt lat="47.18906" lon="-1.55946">
        <ele>62</ele>
        <time>2021-01-02T14:47:20.000Z</time>
      </trkpt>
      <trkpt lat="47.18905" lon="-1.55963">
        <ele>62</ele>
        <time>2021-01-02T14:47:22.000Z</time>
      </trkpt>
      <trkpt lat="47.18906" lon="-1.55979">
        <ele>63</ele>
        <time>2021-01-02T14:47:24.000Z</time>
      </trkpt>
      <trkpt lat="47.18905" lon="-1.55996">
        <ele>63</ele>
        <time>2021-01-02T14:47:26.000Z</time>
      </trkpt>
      <trkpt lat="47.18904" lon="-1.56014">
        <ele>62</ele>
        <time>2021-01-02T14:47:28.000Z</time>
      </trkpt>
      <trkpt lat="47.18901" lon="-1.56029">
        <ele>63</ele>
        <time>2021-01-02T14:47:30.000Z</time>
      </trkpt>
      <trkpt lat="47.18899" lon="-1.56046">
        <ele>63</ele>
        <time>2021-01-02T14:47:32.000Z</time>
      </trkpt>
      <trkpt lat="47.18896" lon="-1.56063">
        <ele>63</ele>
        <time>2021-01-02T14:47:34.000Z</time>
      </trkpt>
      <trkpt lat="47.18894" lon="-1.5608">
        <ele>63</ele>
        <time>2021-01-02T14:47:36.000Z</time>
      </trkpt>
      <trkpt lat="47.18892" lon="-1.56097">
        <ele>64</ele>
        <time>2021-01-02T14:47:38.000Z</time>
      </trkpt>
      <trkpt lat="47.18889" lon="-1.56113">
        <ele>64</ele>
        <time>2021-01-02T14:47:40.000Z</time>
      </trkpt>
      <trkpt lat="47.18885" lon="-1.56128">
        <ele>64</ele>
        <time>2021-01-02T14:47:42.000Z</time>
      </trkpt>
      <trkpt lat="47.18883" lon="-1.56145">
        <ele>64</ele>
        <time>2021-01-02T14:47:44.000Z</time>
      </trkpt>
      <trkpt lat="47.18882" lon="-1.56161">
        <ele>64</ele>
        <time>2021-01-02T14:47:46.000Z</time>
      </trkpt>
      <trkpt lat="47.18881" lon="-1.56177">
        <ele>64</ele>
        <time>2021-01-02T14:47:48.000Z</time>
      </trkpt>
      <trkpt lat="47.18877" lon="-1.56191">
        <ele>63</ele>
        <time>2021-01-02T14:47:50.000Z</time>
      </trkpt>
      <trkpt lat="47.18872" lon="-1.56207">
        <ele>64</ele>
        <time>2021-01-02T14:47:52.000Z</time>
      </trkpt>
      <trkpt lat="47.18867" lon="-1.56223">
        <ele>64</ele>
        <time>2021-01-02T14:47:54.000Z</time>
      </trkpt>
      <trkpt lat="47.18862" lon="-1.56239">
        <ele>64</ele>
        <time>2021-01-02T14:47:56.000Z</time>
      </trkpt>
      <trkpt lat="47.18857" lon="-1.56255">
        <ele>64</ele>
        <time>2021-01-02T14:47:58.000Z</time>
      </trkpt>
      <trkpt lat="47.18851" lon="-1.56269">
        <ele>64</ele>
        <time>2021-01-02T14:48:00.000Z</time>
      </trkpt>
      <trkpt lat="47.18845" lon="-1.56284">
        <ele>64</ele>
        <time>2021-01-02T14:48:02.000Z</time>
      </trkpt>
      <trkpt lat="47.1884" lon="-1.56299">
        <ele>64</ele>
        <time>2021-01-02T14:48:04.000Z</time>
      </trkpt>
      <trkpt lat="47.18834" lon="-1.56312">
        <ele>64</ele>
        <time>2021-01-02T14:48:06.000Z</time>
      </trkpt>
      <trkpt lat="47.18828" lon="-1.56325">
        <ele>64</ele>
        <time>2021-01-02T14:48:08.000Z</time>
      </trkpt>
      <trkpt lat="47.18821" lon="-1.56339">
        <ele>64</ele>
        <time>2021-01-02T14:48:10.000Z</time>
      </trkpt>
      <trkpt lat="47.18812" lon="-1.56349">
        <ele>65</ele>
        <time>2021-01-02T14:48:12.000Z</time>
      </trkpt>
      <trkpt lat="47.18801" lon="-1.56352">
        <ele>65</ele>
        <time>2021-01-02T14:48:14.000Z</time>
      </trkpt>
      <trkpt lat="47.18789" lon="-1.56349">
        <ele>65</ele>
        <time>2021-01-02T14:48:16.000Z</time>
      </trkpt>
      <trkpt lat="47.18777" lon="-1.56348">
        <ele>66</ele>
        <time>2021-01-02T14:48:18.000Z</time>
      </trkpt>
      <trkpt lat="47.18765" lon="-1.56348">
        <ele>66</ele>
        <time>2021-01-02T14:48:20.000Z</time>
      </trkpt>
      <trkpt lat="47.18754" lon="-1.56348">
        <ele>65</ele>
        <time>2021-01-02T14:48:22.000Z</time>
      </trkpt>
      <trkpt lat="47.18743" lon="-1.56348">
        <ele>65</ele>
        <time>2021-01-02T14:48:24.000Z</time>
      </trkpt>
      <trkpt lat="47.18731" lon="-1.56347">
        <ele>65</ele>
        <time>2021-01-02T14:48:26.000Z</time>
      </trkpt>
      <trkpt lat="47.18721" lon="-1.56347">
        <ele>65</ele>
        <time>2021-01-02T14:48:28.000Z</time>
      </trkpt>
      <trkpt lat="47.18709" lon="-1.56348">
        <ele>65</ele>
        <time>2021-01-02T14:48:30.000Z</time>
      </trkpt>
      <trkpt lat="47.18698" lon="-1.5635">
        <ele>65</ele>
        <time>2021-01-02T14:48:32.000Z</time>
      </trkpt>
      <trkpt lat="47.18688" lon="-1.5635">
        <ele>65</ele>
        <time>2021-01-02T14:48:34.000Z</time>
      </trkpt>
      <trkpt lat="47.18677" lon="-1.56347">
        <ele>65</ele>
        <time>2021-01-02T14:48:36.000Z</time>
      </trkpt>
      <trkpt lat="47.18666" lon="-1.56343">
        <ele>65</ele>
        <time>2021-01-02T14:48:38.000Z</time>
      </trkpt>
      <trkpt lat="47.18656" lon="-1.56338">
        <ele>66</ele>
        <time>2021-01-02T14:48:40.000Z</time>
      </trkpt>
      <trkpt lat="47.18645" lon="-1.56333">
        <ele>66</ele>
        <time>2021-01-02T14:48:42.000Z</time>
      </trkpt>
      <trkpt lat="47.18635" lon="-1.56328">
        <ele>66</ele>
        <time>2021-01-02T14:48:44.000Z</time>
      </trkpt>
      <trkpt lat="47.18625" lon="-1.56323">
        <ele>66</ele>
        <time>2021-01-02T14:48:46.000Z</time>
      </trkpt>
      <trkpt lat="47.18615" lon="-1.56318">
        <ele>67</ele>
        <time>2021-01-02T14:48:48.000Z</time>
      </trkpt>
      <trkpt lat="47.18605" lon="-1.56311">
        <ele>67</ele>
        <time>2021-01-02T14:48:50.000Z</time>
      </trkpt>
      <trkpt lat="47.18597" lon="-1.56301">
        <ele>68</ele>
        <time>2021-01-02T14:48:52.000Z</time>
      </trkpt>
      <trkpt lat="47.1859" lon="-1.56291">
        <ele>68</ele>
        <time>2021-01-02T14:48:54.000Z</time>
      </trkpt>
      <trkpt lat="47.18583" lon="-1.56283">
        <ele>67</ele>
        <time>2021-01-02T14:48:56.000Z</time>
      </trkpt>
      <trkpt lat="47.18573" lon="-1.56288">
        <ele>67</ele>
        <time>2021-01-02T14:48:59.000Z</time>
      </trkpt>
      <trkpt lat="47.18568" lon="-1.56303">
        <ele>67</ele>
        <time>2021-01-02T14:49:01.000Z</time>
      </trkpt>
      <trkpt lat="47.18564" lon="-1.56317">
        <ele>68</ele>
        <time>2021-01-02T14:49:03.000Z</time>
      </trkpt>
      <trkpt lat="47.18559" lon="-1.56332">
        <ele>68</ele>
        <time>2021-01-02T14:49:05.000Z</time>
      </trkpt>
      <trkpt lat="47.18556" lon="-1.56346">
        <ele>68</ele>
        <time>2021-01-02T14:49:07.000Z</time>
      </trkpt>
      <trkpt lat="47.18552" lon="-1.56359">
        <ele>69</ele>
        <time>2021-01-02T14:49:09.000Z</time>
      </trkpt>
      <trkpt lat="47.18549" lon="-1.56372">
        <ele>69</ele>
        <time>2021-01-02T14:49:11.000Z</time>
      </trkpt>
      <trkpt lat="47.18541" lon="-1.56382">
        <ele>69</ele>
        <time>2021-01-02T14:49:13.000Z</time>
      </trkpt>
      <trkpt lat="47.18529" lon="-1.56382">
        <ele>69</ele>
        <time>2021-01-02T14:49:15.000Z</time>
      </trkpt>
      <trkpt lat="47.18517" lon="-1.56376">
        <ele>69</ele>
        <time>2021-01-02T14:49:17.000Z</time>
      </trkpt>
      <trkpt lat="47.18505" lon="-1.56369">
        <ele>69</ele>
        <time>2021-01-02T14:49:19.000Z</time>
      </trkpt>
      <trkpt lat="47.18494" lon="-1.56364">
        <ele>69</ele>
        <time>2021-01-02T14:49:21.000Z</time>
      </trkpt>
      <trkpt lat="47.18483" lon="-1.56359">
        <ele>69</ele>
        <time>2021-01-02T14:49:23.000Z</time>
      </trkpt>
      <trkpt lat="47.18472" lon="-1.56354">
        <ele>69</ele>
        <time>2021-01-02T14:49:25.000Z</time>
      </trkpt>
      <trkpt lat="47.18461" lon="-1.5635">
        <ele>69</ele>
        <time>2021-01-02T14:49:27.000Z</time>
      </trkpt>
      <trkpt lat="47.1845" lon="-1.56346">
        <ele>68</ele>
        <time>2021-01-02T14:49:29.000Z</time>
      </trkpt>
      <trkpt lat="47.18439" lon="-1.56347">
        <ele>68</ele>
        <time>2021-01-02T14:49:31.000Z</time>
      </trkpt>
      <trkpt lat="47.18431" lon="-1.56357">
        <ele>68</ele>
        <time>2021-01-02T14:49:33.000Z</time>
      </trkpt>
      <trkpt lat="47.18428" lon="-1.56373">
        <ele>68</ele>
        <time>2021-01-02T14:49:35.000Z</time>
      </trkpt>
      <trkpt lat="47.18425" lon="-1.56389">
        <ele>69</ele>
        <time>2021-01-02T14:49:37.000Z</time>
      </trkpt>
      <trkpt lat="47.18422" lon="-1.56407">
        <ele>69</ele>
        <time>2021-01-02T14:49:39.000Z</time>
      </trkpt>
      <trkpt lat="47.18419" lon="-1.56426">
        <ele>70</ele>
        <time>2021-01-02T14:49:41.000Z</time>
      </trkpt>
      <trkpt lat="47.18416" lon="-1.56444">
        <ele>70</ele>
        <time>2021-01-02T14:49:43.000Z</time>
      </trkpt>
      <trkpt lat="47.18413" lon="-1.56462">
        <ele>70</ele>
        <time>2021-01-02T14:49:45.000Z</time>
      </trkpt>
      <trkpt lat="47.1841" lon="-1.56481">
        <ele>70</ele>
        <time>2021-01-02T14:49:47.000Z</time>
      </trkpt>
      <trkpt lat="47.18406" lon="-1.56499">
        <ele>70</ele>
        <time>2021-01-02T14:49:49.000Z</time>
      </trkpt>
      <trkpt lat="47.18403" lon="-1.56517">
        <ele>70</ele>
        <time>2021-01-02T14:49:51.000Z</time>
      </trkpt>
      <trkpt lat="47.184" lon="-1.56537">
        <ele>70</ele>
        <time>2021-01-02T14:49:53.000Z</time>
      </trkpt>
      <trkpt lat="47.18397" lon="-1.56557">
        <ele>70</ele>
        <time>2021-01-02T14:49:55.000Z</time>
      </trkpt>
      <trkpt lat="47.18394" lon="-1.56577">
        <ele>69</ele>
        <time>2021-01-02T14:49:57.000Z</time>
      </trkpt>
      <trkpt lat="47.18391" lon="-1.56596">
        <ele>69</ele>
        <time>2021-01-02T14:49:59.000Z</time>
      </trkpt>
      <trkpt lat="47.18388" lon="-1.56615">
        <ele>69</ele>
        <time>2021-01-02T14:50:01.000Z</time>
      </trkpt>
      <trkpt lat="47.18385" lon="-1.56634">
        <ele>69</ele>
        <time>2021-01-02T14:50:03.000Z</time>
      </trkpt>
      <trkpt lat="47.18382" lon="-1.56654">
        <ele>69</ele>
        <time>2021-01-02T14:50:05.000Z</time>
      </trkpt>
      <trkpt lat="47.18379" lon="-1.56672">
        <ele>70</ele>
        <time>2021-01-02T14:50:07.000Z</time>
      </trkpt>
      <trkpt lat="47.18375" lon="-1.56691">
        <ele>70</ele>
        <time>2021-01-02T14:50:09.000Z</time>
      </trkpt>
      <trkpt lat="47.18372" lon="-1.5671">
        <ele>70</ele>
        <time>2021-01-02T14:50:11.000Z</time>
      </trkpt>
      <trkpt lat="47.18369" lon="-1.56729">
        <ele>70</ele>
        <time>2021-01-02T14:50:13.000Z</time>
      </trkpt>
      <trkpt lat="47.18367" lon="-1.56748">
        <ele>70</ele>
        <time>2021-01-02T14:50:15.000Z</time>
      </trkpt>
      <trkpt lat="47.18364" lon="-1.56765">
        <ele>70</ele>
        <time>2021-01-02T14:50:17.000Z</time>
      </trkpt>
      <trkpt lat="47.18362" lon="-1.56783">
        <ele>70</ele>
        <time>2021-01-02T14:50:19.000Z</time>
      </trkpt>
      <trkpt lat="47.18359" lon="-1.56802">
        <ele>69</ele>
        <time>2021-01-02T14:50:21.000Z</time>
      </trkpt>
      <trkpt lat="47.18355" lon="-1.56821">
        <ele>70</ele>
        <time>2021-01-02T14:50:23.000Z</time>
      </trkpt>
      <trkpt lat="47.18352" lon="-1.5684">
        <ele>70</ele>
        <time>2021-01-02T14:50:25.000Z</time>
      </trkpt>
      <trkpt lat="47.18349" lon="-1.56858">
        <ele>70</ele>
        <time>2021-01-02T14:50:27.000Z</time>
      </trkpt>
      <trkpt lat="47.18347" lon="-1.56877">
        <ele>70</ele>
        <time>2021-01-02T14:50:29.000Z</time>
      </trkpt>
      <trkpt lat="47.18345" lon="-1.56895">
        <ele>70</ele>
        <time>2021-01-02T14:50:31.000Z</time>
      </trkpt>
      <trkpt lat="47.18342" lon="-1.56913">
        <ele>71</ele>
        <time>2021-01-02T14:50:33.000Z</time>
      </trkpt>
      <trkpt lat="47.18341" lon="-1.5693">
        <ele>71</ele>
        <time>2021-01-02T14:50:35.000Z</time>
      </trkpt>
      <trkpt lat="47.18341" lon="-1.56948">
        <ele>71</ele>
        <time>2021-01-02T14:50:37.000Z</time>
      </trkpt>
      <trkpt lat="47.18344" lon="-1.56964">
        <ele>71</ele>
        <time>2021-01-02T14:50:39.000Z</time>
      </trkpt>
      <trkpt lat="47.18344" lon="-1.56982">
        <ele>71</ele>
        <time>2021-01-02T14:50:41.000Z</time>
      </trkpt>
      <trkpt lat="47.18341" lon="-1.57">
        <ele>72</ele>
        <time>2021-01-02T14:50:43.000Z</time>
      </trkpt>
      <trkpt lat="47.18338" lon="-1.57017">
        <ele>72</ele>
        <time>2021-01-02T14:50:45.000Z</time>
      </trkpt>
      <trkpt lat="47.18335" lon="-1.57035">
        <ele>72</ele>
        <time>2021-01-02T14:50:47.000Z</time>
      </trkpt>
      <trkpt lat="47.18332" lon="-1.57052">
        <ele>71</ele>
        <time>2021-01-02T14:50:49.000Z</time>
      </trkpt>
      <trkpt lat="47.18329" lon="-1.57069">
        <ele>71</ele>
        <time>2021-01-02T14:50:51.000Z</time>
      </trkpt>
      <trkpt lat="47.18327" lon="-1.57086">
        <ele>71</ele>
        <time>2021-01-02T14:50:53.000Z</time>
      </trkpt>
      <trkpt lat="47.18324" lon="-1.57103">
        <ele>71</ele>
        <time>2021-01-02T14:50:55.000Z</time>
      </trkpt>
      <trkpt lat="47.18322" lon="-1.5712">
        <ele>70</ele>
        <time>2021-01-02T14:50:57.000Z</time>
      </trkpt>
      <trkpt lat="47.18319" lon="-1.57136">
        <ele>70</ele>
        <time>2021-01-02T14:50:59.000Z</time>
      </trkpt>
      <trkpt lat="47.18316" lon="-1.57152">
        <ele>70</ele>
        <time>2021-01-02T14:51:01.000Z</time>
      </trkpt>
      <trkpt lat="47.18313" lon="-1.57167">
        <ele>71</ele>
        <time>2021-01-02T14:51:03.000Z</time>
      </trkpt>
      <trkpt lat="47.18309" lon="-1.57182">
        <ele>71</ele>
        <time>2021-01-02T14:51:05.000Z</time>
      </trkpt>
      <trkpt lat="47.18307" lon="-1.57195">
        <ele>71</ele>
        <time>2021-01-02T14:51:07.000Z</time>
      </trkpt>
      <trkpt lat="47.18303" lon="-1.57208">
        <ele>70</ele>
        <time>2021-01-02T14:51:09.000Z</time>
      </trkpt>
      <trkpt lat="47.18295" lon="-1.57216">
        <ele>71</ele>
        <time>2021-01-02T14:51:11.000Z</time>
      </trkpt>
      <trkpt lat="47.18284" lon="-1.57216">
        <ele>71</ele>
        <time>2021-01-02T14:51:13.000Z</time>
      </trkpt>
      <trkpt lat="47.18271" lon="-1.57213">
        <ele>70</ele>
        <time>2021-01-02T14:51:15.000Z</time>
      </trkpt>
      <trkpt lat="47.1826" lon="-1.57211">
        <ele>72</ele>
        <time>2021-01-02T14:51:17.000Z</time>
      </trkpt>
      <trkpt lat="47.18248" lon="-1.57208">
        <ele>72</ele>
        <time>2021-01-02T14:51:19.000Z</time>
      </trkpt>
      <trkpt lat="47.18236" lon="-1.57204">
        <ele>72</ele>
        <time>2021-01-02T14:51:21.000Z</time>
      </trkpt>
      <trkpt lat="47.18225" lon="-1.57201">
        <ele>72</ele>
        <time>2021-01-02T14:51:23.000Z</time>
      </trkpt>
      <trkpt lat="47.18215" lon="-1.572">
        <ele>72</ele>
        <time>2021-01-02T14:51:25.000Z</time>
      </trkpt>
      <trkpt lat="47.18211" lon="-1.57212">
        <ele>72</ele>
        <time>2021-01-02T14:51:29.000Z</time>
      </trkpt>
      <trkpt lat="47.18209" lon="-1.57231">
        <ele>72</ele>
        <time>2021-01-02T14:51:32.000Z</time>
      </trkpt>
      <trkpt lat="47.18207" lon="-1.57247">
        <ele>72</ele>
        <time>2021-01-02T14:51:34.000Z</time>
      </trkpt>
      <trkpt lat="47.18206" lon="-1.57264">
        <ele>72</ele>
        <time>2021-01-02T14:51:36.000Z</time>
      </trkpt>
      <trkpt lat="47.18205" lon="-1.57281">
        <ele>72</ele>
        <time>2021-01-02T14:51:38.000Z</time>
      </trkpt>
      <trkpt lat="47.18204" lon="-1.57298">
        <ele>72</ele>
        <time>2021-01-02T14:51:40.000Z</time>
      </trkpt>
      <trkpt lat="47.18204" lon="-1.57315">
        <ele>71</ele>
        <time>2021-01-02T14:51:42.000Z</time>
      </trkpt>
      <trkpt lat="47.18204" lon="-1.57333">
        <ele>71</ele>
        <time>2021-01-02T14:51:44.000Z</time>
      </trkpt>
      <trkpt lat="47.18204" lon="-1.57351">
        <ele>71</ele>
        <time>2021-01-02T14:51:46.000Z</time>
      </trkpt>
      <trkpt lat="47.18204" lon="-1.57371">
        <ele>70</ele>
        <time>2021-01-02T14:51:48.000Z</time>
      </trkpt>
      <trkpt lat="47.18204" lon="-1.57389">
        <ele>69</ele>
        <time>2021-01-02T14:51:50.000Z</time>
      </trkpt>
      <trkpt lat="47.18205" lon="-1.57407">
        <ele>69</ele>
        <time>2021-01-02T14:51:52.000Z</time>
      </trkpt>
      <trkpt lat="47.18206" lon="-1.57427">
        <ele>68</ele>
        <time>2021-01-02T14:51:54.000Z</time>
      </trkpt>
      <trkpt lat="47.18206" lon="-1.57445">
        <ele>68</ele>
        <time>2021-01-02T14:51:56.000Z</time>
      </trkpt>
      <trkpt lat="47.18207" lon="-1.57463">
        <ele>68</ele>
        <time>2021-01-02T14:51:58.000Z</time>
      </trkpt>
      <trkpt lat="47.18207" lon="-1.57481">
        <ele>68</ele>
        <time>2021-01-02T14:52:00.000Z</time>
      </trkpt>
      <trkpt lat="47.18207" lon="-1.57496">
        <ele>68</ele>
        <time>2021-01-02T14:52:02.000Z</time>
      </trkpt>
      <trkpt lat="47.18204" lon="-1.57515">
        <ele>68</ele>
        <time>2021-01-02T14:52:05.000Z</time>
      </trkpt>
      <trkpt lat="47.18201" lon="-1.57528">
        <ele>68</ele>
        <time>2021-01-02T14:52:08.000Z</time>
      </trkpt>
      <trkpt lat="47.182" lon="-1.57549">
        <ele>69</ele>
        <time>2021-01-02T14:52:13.000Z</time>
      </trkpt>
      <trkpt lat="47.18198" lon="-1.57564">
        <ele>70</ele>
        <time>2021-01-02T14:52:15.000Z</time>
      </trkpt>
      <trkpt lat="47.18196" lon="-1.57578">
        <ele>70</ele>
        <time>2021-01-02T14:52:17.000Z</time>
      </trkpt>
      <trkpt lat="47.18199" lon="-1.57593">
        <ele>70</ele>
        <time>2021-01-02T14:52:20.000Z</time>
      </trkpt>
      <trkpt lat="47.18201" lon="-1.57606">
        <ele>71</ele>
        <time>2021-01-02T14:52:23.000Z</time>
      </trkpt>
      <trkpt lat="47.18197" lon="-1.57623">
        <ele>70</ele>
        <time>2021-01-02T14:52:26.000Z</time>
      </trkpt>
      <trkpt lat="47.18196" lon="-1.57639">
        <ele>70</ele>
        <time>2021-01-02T14:52:28.000Z</time>
      </trkpt>
      <trkpt lat="47.18195" lon="-1.57655">
        <ele>70</ele>
        <time>2021-01-02T14:52:30.000Z</time>
      </trkpt>
      <trkpt lat="47.18194" lon="-1.57671">
        <ele>71</ele>
        <time>2021-01-02T14:52:32.000Z</time>
      </trkpt>
      <trkpt lat="47.18193" lon="-1.57688">
        <ele>71</ele>
        <time>2021-01-02T14:52:34.000Z</time>
      </trkpt>
      <trkpt lat="47.18193" lon="-1.57705">
        <ele>71</ele>
        <time>2021-01-02T14:52:36.000Z</time>
      </trkpt>
      <trkpt lat="47.1819" lon="-1.57721">
        <ele>71</ele>
        <time>2021-01-02T14:52:38.000Z</time>
      </trkpt>
      <trkpt lat="47.18187" lon="-1.57737">
        <ele>71</ele>
        <time>2021-01-02T14:52:40.000Z</time>
      </trkpt>
      <trkpt lat="47.18184" lon="-1.57752">
        <ele>71</ele>
        <time>2021-01-02T14:52:42.000Z</time>
      </trkpt>
      <trkpt lat="47.1818" lon="-1.57767">
        <ele>71</ele>
        <time>2021-01-02T14:52:44.000Z</time>
      </trkpt>
      <trkpt lat="47.18175" lon="-1.57782">
        <ele>71</ele>
        <time>2021-01-02T14:52:46.000Z</time>
      </trkpt>
      <trkpt lat="47.18172" lon="-1.57798">
        <ele>71</ele>
        <time>2021-01-02T14:52:48.000Z</time>
      </trkpt>
      <trkpt lat="47.18169" lon="-1.57813">
        <ele>71</ele>
        <time>2021-01-02T14:52:50.000Z</time>
      </trkpt>
      <trkpt lat="47.18165" lon="-1.57829">
        <ele>71</ele>
        <time>2021-01-02T14:52:52.000Z</time>
      </trkpt>
      <trkpt lat="47.18163" lon="-1.57845">
        <ele>71</ele>
        <time>2021-01-02T14:52:54.000Z</time>
      </trkpt>
      <trkpt lat="47.1816" lon="-1.5786">
        <ele>71</ele>
        <time>2021-01-02T14:52:56.000Z</time>
      </trkpt>
      <trkpt lat="47.18158" lon="-1.57874">
        <ele>71</ele>
        <time>2021-01-02T14:52:58.000Z</time>
      </trkpt>
      <trkpt lat="47.18153" lon="-1.57886">
        <ele>72</ele>
        <time>2021-01-02T14:53:00.000Z</time>
      </trkpt>
      <trkpt lat="47.18154" lon="-1.57903">
        <ele>71</ele>
        <time>2021-01-02T14:53:03.000Z</time>
      </trkpt>
      <trkpt lat="47.18154" lon="-1.57918">
        <ele>72</ele>
        <time>2021-01-02T14:53:05.000Z</time>
      </trkpt>
      <trkpt lat="47.18155" lon="-1.57933">
        <ele>72</ele>
        <time>2021-01-02T14:53:07.000Z</time>
      </trkpt>
      <trkpt lat="47.18154" lon="-1.57947">
        <ele>72</ele>
        <time>2021-01-02T14:53:09.000Z</time>
      </trkpt>
      <trkpt lat="47.18145" lon="-1.57958">
        <ele>72</ele>
        <time>2021-01-02T14:53:11.000Z</time>
      </trkpt>
      <trkpt lat="47.18138" lon="-1.57969">
        <ele>72</ele>
        <time>2021-01-02T14:53:13.000Z</time>
      </trkpt>
      <trkpt lat="47.18134" lon="-1.57984">
        <ele>72</ele>
        <time>2021-01-02T14:53:15.000Z</time>
      </trkpt>
      <trkpt lat="47.18129" lon="-1.57999">
        <ele>72</ele>
        <time>2021-01-02T14:53:17.000Z</time>
      </trkpt>
      <trkpt lat="47.18128" lon="-1.58015">
        <ele>72</ele>
        <time>2021-01-02T14:53:19.000Z</time>
      </trkpt>
      <trkpt lat="47.18128" lon="-1.58034">
        <ele>73</ele>
        <time>2021-01-02T14:53:21.000Z</time>
      </trkpt>
      <trkpt lat="47.18124" lon="-1.58052">
        <ele>73</ele>
        <time>2021-01-02T14:53:23.000Z</time>
      </trkpt>
      <trkpt lat="47.1812" lon="-1.58071">
        <ele>72</ele>
        <time>2021-01-02T14:53:25.000Z</time>
      </trkpt>
      <trkpt lat="47.18116" lon="-1.58089">
        <ele>72</ele>
        <time>2021-01-02T14:53:27.000Z</time>
      </trkpt>
      <trkpt lat="47.18112" lon="-1.58109">
        <ele>71</ele>
        <time>2021-01-02T14:53:29.000Z</time>
      </trkpt>
      <trkpt lat="47.18109" lon="-1.58129">
        <ele>70</ele>
        <time>2021-01-02T14:53:31.000Z</time>
      </trkpt>
      <trkpt lat="47.18106" lon="-1.58148">
        <ele>70</ele>
        <time>2021-01-02T14:53:33.000Z</time>
      </trkpt>
      <trkpt lat="47.18102" lon="-1.58167">
        <ele>70</ele>
        <time>2021-01-02T14:53:35.000Z</time>
      </trkpt>
      <trkpt lat="47.18099" lon="-1.58186">
        <ele>70</ele>
        <time>2021-01-02T14:53:37.000Z</time>
      </trkpt>
      <trkpt lat="47.18095" lon="-1.58205">
        <ele>70</ele>
        <time>2021-01-02T14:53:39.000Z</time>
      </trkpt>
      <trkpt lat="47.18092" lon="-1.58223">
        <ele>70</ele>
        <time>2021-01-02T14:53:41.000Z</time>
      </trkpt>
      <trkpt lat="47.18089" lon="-1.58242">
        <ele>70</ele>
        <time>2021-01-02T14:53:43.000Z</time>
      </trkpt>
      <trkpt lat="47.18087" lon="-1.5826">
        <ele>69</ele>
        <time>2021-01-02T14:53:45.000Z</time>
      </trkpt>
      <trkpt lat="47.18087" lon="-1.58278">
        <ele>70</ele>
        <time>2021-01-02T14:53:47.000Z</time>
      </trkpt>
      <trkpt lat="47.18086" lon="-1.58296">
        <ele>70</ele>
        <time>2021-01-02T14:53:49.000Z</time>
      </trkpt>
      <trkpt lat="47.18086" lon="-1.58315">
        <ele>70</ele>
        <time>2021-01-02T14:53:51.000Z</time>
      </trkpt>
      <trkpt lat="47.18088" lon="-1.58333">
        <ele>70</ele>
        <time>2021-01-02T14:53:53.000Z</time>
      </trkpt>
      <trkpt lat="47.18091" lon="-1.58351">
        <ele>70</ele>
        <time>2021-01-02T14:53:55.000Z</time>
      </trkpt>
      <trkpt lat="47.18096" lon="-1.58367">
        <ele>69</ele>
        <time>2021-01-02T14:53:57.000Z</time>
      </trkpt>
      <trkpt lat="47.181" lon="-1.58383">
        <ele>69</ele>
        <time>2021-01-02T14:53:59.000Z</time>
      </trkpt>
      <trkpt lat="47.18106" lon="-1.58397">
        <ele>69</ele>
        <time>2021-01-02T14:54:01.000Z</time>
      </trkpt>
      <trkpt lat="47.18111" lon="-1.58408">
        <ele>69</ele>
        <time>2021-01-02T14:54:03.000Z</time>
      </trkpt>
      <trkpt lat="47.18117" lon="-1.58424">
        <ele>69</ele>
        <time>2021-01-02T14:54:06.000Z</time>
      </trkpt>
      <trkpt lat="47.18123" lon="-1.5844">
        <ele>69</ele>
        <time>2021-01-02T14:54:09.000Z</time>
      </trkpt>
      <trkpt lat="47.18118" lon="-1.58454">
        <ele>69</ele>
        <time>2021-01-02T14:54:11.000Z</time>
      </trkpt>
      <trkpt lat="47.18114" lon="-1.58472">
        <ele>69</ele>
        <time>2021-01-02T14:54:13.000Z</time>
      </trkpt>
      <trkpt lat="47.18113" lon="-1.58491">
        <ele>68</ele>
        <time>2021-01-02T14:54:15.000Z</time>
      </trkpt>
      <trkpt lat="47.18111" lon="-1.5851">
        <ele>68</ele>
        <time>2021-01-02T14:54:17.000Z</time>
      </trkpt>
      <trkpt lat="47.1811" lon="-1.58529">
        <ele>68</ele>
        <time>2021-01-02T14:54:19.000Z</time>
      </trkpt>
      <trkpt lat="47.1811" lon="-1.58548">
        <ele>68</ele>
        <time>2021-01-02T14:54:21.000Z</time>
      </trkpt>
      <trkpt lat="47.18109" lon="-1.58567">
        <ele>69</ele>
        <time>2021-01-02T14:54:23.000Z</time>
      </trkpt>
      <trkpt lat="47.18104" lon="-1.58587">
        <ele>68</ele>
        <time>2021-01-02T14:54:25.000Z</time>
      </trkpt>
      <trkpt lat="47.181" lon="-1.58605">
        <ele>68</ele>
        <time>2021-01-02T14:54:27.000Z</time>
      </trkpt>
      <trkpt lat="47.18094" lon="-1.58623">
        <ele>68</ele>
        <time>2021-01-02T14:54:29.000Z</time>
      </trkpt>
      <trkpt lat="47.18088" lon="-1.5864">
        <ele>69</ele>
        <time>2021-01-02T14:54:31.000Z</time>
      </trkpt>
      <trkpt lat="47.18082" lon="-1.58658">
        <ele>69</ele>
        <time>2021-01-02T14:54:33.000Z</time>
      </trkpt>
      <trkpt lat="47.18076" lon="-1.58675">
        <ele>70</ele>
        <time>2021-01-02T14:54:35.000Z</time>
      </trkpt>
      <trkpt lat="47.1807" lon="-1.58692">
        <ele>70</ele>
        <time>2021-01-02T14:54:37.000Z</time>
      </trkpt>
      <trkpt lat="47.18063" lon="-1.5871">
        <ele>70</ele>
        <time>2021-01-02T14:54:39.000Z</time>
      </trkpt>
      <trkpt lat="47.18055" lon="-1.58727">
        <ele>70</ele>
        <time>2021-01-02T14:54:41.000Z</time>
      </trkpt>
      <trkpt lat="47.18047" lon="-1.58744">
        <ele>70</ele>
        <time>2021-01-02T14:54:43.000Z</time>
      </trkpt>
      <trkpt lat="47.18038" lon="-1.58762">
        <ele>70</ele>
        <time>2021-01-02T14:54:45.000Z</time>
      </trkpt>
      <trkpt lat="47.1803" lon="-1.58779">
        <ele>70</ele>
        <time>2021-01-02T14:54:47.000Z</time>
      </trkpt>
      <trkpt lat="47.18022" lon="-1.58796">
        <ele>70</ele>
        <time>2021-01-02T14:54:49.000Z</time>
      </trkpt>
      <trkpt lat="47.18014" lon="-1.58813">
        <ele>70</ele>
        <time>2021-01-02T14:54:51.000Z</time>
      </trkpt>
      <trkpt lat="47.18006" lon="-1.58829">
        <ele>71</ele>
        <time>2021-01-02T14:54:53.000Z</time>
      </trkpt>
      <trkpt lat="47.17999" lon="-1.58845">
        <ele>71</ele>
        <time>2021-01-02T14:54:55.000Z</time>
      </trkpt>
      <trkpt lat="47.17992" lon="-1.58861">
        <ele>71</ele>
        <time>2021-01-02T14:54:57.000Z</time>
      </trkpt>
      <trkpt lat="47.17989" lon="-1.58879">
        <ele>71</ele>
        <time>2021-01-02T14:54:59.000Z</time>
      </trkpt>
      <trkpt lat="47.17999" lon="-1.58892">
        <ele>71</ele>
        <time>2021-01-02T14:55:01.000Z</time>
      </trkpt>
      <trkpt lat="47.18011" lon="-1.58901">
        <ele>71</ele>
        <time>2021-01-02T14:55:03.000Z</time>
      </trkpt>
      <trkpt lat="47.18023" lon="-1.58911">
        <ele>71</ele>
        <time>2021-01-02T14:55:05.000Z</time>
      </trkpt>
      <trkpt lat="47.18034" lon="-1.58921">
        <ele>71</ele>
        <time>2021-01-02T14:55:07.000Z</time>
      </trkpt>
      <trkpt lat="47.18049" lon="-1.58938">
        <ele>71</ele>
        <time>2021-01-02T14:55:10.000Z</time>
      </trkpt>
      <trkpt lat="47.18058" lon="-1.5895">
        <ele>72</ele>
        <time>2021-01-02T14:55:12.000Z</time>
      </trkpt>
      <trkpt lat="47.18062" lon="-1.58968">
        <ele>72</ele>
        <time>2021-01-02T14:55:14.000Z</time>
      </trkpt>
      <trkpt lat="47.18062" lon="-1.58986">
        <ele>71</ele>
        <time>2021-01-02T14:55:16.000Z</time>
      </trkpt>
      <trkpt lat="47.18064" lon="-1.59004">
        <ele>71</ele>
        <time>2021-01-02T14:55:18.000Z</time>
      </trkpt>
      <trkpt lat="47.18067" lon="-1.59024">
        <ele>71</ele>
        <time>2021-01-02T14:55:20.000Z</time>
      </trkpt>
      <trkpt lat="47.1807" lon="-1.59042">
        <ele>70</ele>
        <time>2021-01-02T14:55:22.000Z</time>
      </trkpt>
      <trkpt lat="47.18074" lon="-1.5906">
        <ele>70</ele>
        <time>2021-01-02T14:55:24.000Z</time>
      </trkpt>
      <trkpt lat="47.18077" lon="-1.59078">
        <ele>70</ele>
        <time>2021-01-02T14:55:26.000Z</time>
      </trkpt>
      <trkpt lat="47.1808" lon="-1.59095">
        <ele>70</ele>
        <time>2021-01-02T14:55:28.000Z</time>
      </trkpt>
      <trkpt lat="47.18082" lon="-1.59112">
        <ele>70</ele>
        <time>2021-01-02T14:55:30.000Z</time>
      </trkpt>
      <trkpt lat="47.18086" lon="-1.59136">
        <ele>70</ele>
        <time>2021-01-02T14:55:33.000Z</time>
      </trkpt>
      <trkpt lat="47.18088" lon="-1.59152">
        <ele>70</ele>
        <time>2021-01-02T14:55:35.000Z</time>
      </trkpt>
      <trkpt lat="47.1809" lon="-1.59167">
        <ele>70</ele>
        <time>2021-01-02T14:55:37.000Z</time>
      </trkpt>
      <trkpt lat="47.18094" lon="-1.59181">
        <ele>70</ele>
        <time>2021-01-02T14:55:39.000Z</time>
      </trkpt>
      <trkpt lat="47.18093" lon="-1.59196">
        <ele>70</ele>
        <time>2021-01-02T14:55:41.000Z</time>
      </trkpt>
      <trkpt lat="47.18085" lon="-1.59209">
        <ele>70</ele>
        <time>2021-01-02T14:55:43.000Z</time>
      </trkpt>
      <trkpt lat="47.18079" lon="-1.59223">
        <ele>70</ele>
        <time>2021-01-02T14:55:45.000Z</time>
      </trkpt>
      <trkpt lat="47.18075" lon="-1.59239">
        <ele>69</ele>
        <time>2021-01-02T14:55:47.000Z</time>
      </trkpt>
      <trkpt lat="47.18072" lon="-1.59256">
        <ele>69</ele>
        <time>2021-01-02T14:55:49.000Z</time>
      </trkpt>
      <trkpt lat="47.18068" lon="-1.59273">
        <ele>70</ele>
        <time>2021-01-02T14:55:51.000Z</time>
      </trkpt>
      <trkpt lat="47.18065" lon="-1.5929">
        <ele>70</ele>
        <time>2021-01-02T14:55:53.000Z</time>
      </trkpt>
      <trkpt lat="47.18062" lon="-1.59306">
        <ele>70</ele>
        <time>2021-01-02T14:55:55.000Z</time>
      </trkpt>
      <trkpt lat="47.18058" lon="-1.5933">
        <ele>70</ele>
        <time>2021-01-02T14:55:58.000Z</time>
      </trkpt>
      <trkpt lat="47.18055" lon="-1.59347">
        <ele>70</ele>
        <time>2021-01-02T14:56:00.000Z</time>
      </trkpt>
      <trkpt lat="47.18052" lon="-1.59371">
        <ele>69</ele>
        <time>2021-01-02T14:56:03.000Z</time>
      </trkpt>
      <trkpt lat="47.18052" lon="-1.59385">
        <ele>69</ele>
        <time>2021-01-02T14:56:05.000Z</time>
      </trkpt>
      <trkpt lat="47.1806" lon="-1.59401">
        <ele>70</ele>
        <time>2021-01-02T14:56:08.000Z</time>
      </trkpt>
      <trkpt lat="47.18064" lon="-1.59414">
        <ele>70</ele>
        <time>2021-01-02T14:56:10.000Z</time>
      </trkpt>
      <trkpt lat="47.18059" lon="-1.5943">
        <ele>70</ele>
        <time>2021-01-02T14:56:12.000Z</time>
      </trkpt>
      <trkpt lat="47.18049" lon="-1.59441">
        <ele>71</ele>
        <time>2021-01-02T14:56:14.000Z</time>
      </trkpt>
      <trkpt lat="47.18042" lon="-1.59456">
        <ele>71</ele>
        <time>2021-01-02T14:56:16.000Z</time>
      </trkpt>
      <trkpt lat="47.18034" lon="-1.59481">
        <ele>70</ele>
        <time>2021-01-02T14:56:19.000Z</time>
      </trkpt>
      <trkpt lat="47.1803" lon="-1.59499">
        <ele>69</ele>
        <time>2021-01-02T14:56:21.000Z</time>
      </trkpt>
      <trkpt lat="47.18023" lon="-1.59525">
        <ele>69</ele>
        <time>2021-01-02T14:56:24.000Z</time>
      </trkpt>
      <trkpt lat="47.18019" lon="-1.59543">
        <ele>69</ele>
        <time>2021-01-02T14:56:26.000Z</time>
      </trkpt>
      <trkpt lat="47.18014" lon="-1.59561">
        <ele>69</ele>
        <time>2021-01-02T14:56:28.000Z</time>
      </trkpt>
      <trkpt lat="47.18009" lon="-1.59579">
        <ele>68</ele>
        <time>2021-01-02T14:56:30.000Z</time>
      </trkpt>
      <trkpt lat="47.18005" lon="-1.59596">
        <ele>68</ele>
        <time>2021-01-02T14:56:32.000Z</time>
      </trkpt>
      <trkpt lat="47.18" lon="-1.59613">
        <ele>68</ele>
        <time>2021-01-02T14:56:34.000Z</time>
      </trkpt>
      <trkpt lat="47.17995" lon="-1.59631">
        <ele>67</ele>
        <time>2021-01-02T14:56:36.000Z</time>
      </trkpt>
      <trkpt lat="47.1799" lon="-1.59649">
        <ele>67</ele>
        <time>2021-01-02T14:56:38.000Z</time>
      </trkpt>
      <trkpt lat="47.17985" lon="-1.59667">
        <ele>67</ele>
        <time>2021-01-02T14:56:40.000Z</time>
      </trkpt>
      <trkpt lat="47.17981" lon="-1.59686">
        <ele>67</ele>
        <time>2021-01-02T14:56:42.000Z</time>
      </trkpt>
      <trkpt lat="47.17977" lon="-1.59705">
        <ele>66</ele>
        <time>2021-01-02T14:56:44.000Z</time>
      </trkpt>
      <trkpt lat="47.1797" lon="-1.59724">
        <ele>66</ele>
        <time>2021-01-02T14:56:46.000Z</time>
      </trkpt>
      <trkpt lat="47.17965" lon="-1.59744">
        <ele>65</ele>
        <time>2021-01-02T14:56:48.000Z</time>
      </trkpt>
      <trkpt lat="47.17959" lon="-1.59763">
        <ele>64</ele>
        <time>2021-01-02T14:56:50.000Z</time>
      </trkpt>
      <trkpt lat="47.17955" lon="-1.59783">
        <ele>63</ele>
        <time>2021-01-02T14:56:52.000Z</time>
      </trkpt>
      <trkpt lat="47.1795" lon="-1.59805">
        <ele>62</ele>
        <time>2021-01-02T14:56:54.000Z</time>
      </trkpt>
      <trkpt lat="47.17946" lon="-1.59829">
        <ele>61</ele>
        <time>2021-01-02T14:56:56.000Z</time>
      </trkpt>
      <trkpt lat="47.17943" lon="-1.59852">
        <ele>60</ele>
        <time>2021-01-02T14:56:58.000Z</time>
      </trkpt>
      <trkpt lat="47.17938" lon="-1.59877">
        <ele>59</ele>
        <time>2021-01-02T14:57:00.000Z</time>
      </trkpt>
      <trkpt lat="47.17934" lon="-1.59889">
        <ele>58</ele>
        <time>2021-01-02T14:57:01.000Z</time>
      </trkpt>
      <trkpt lat="47.17929" lon="-1.59913">
        <ele>57</ele>
        <time>2021-01-02T14:57:03.000Z</time>
      </trkpt>
      <trkpt lat="47.17922" lon="-1.59937">
        <ele>56</ele>
        <time>2021-01-02T14:57:05.000Z</time>
      </trkpt>
      <trkpt lat="47.17906" lon="-1.59944">
        <ele>56</ele>
        <time>2021-01-02T14:57:07.000Z</time>
      </trkpt>
      <trkpt lat="47.17889" lon="-1.59948">
        <ele>57</ele>
        <time>2021-01-02T14:57:09.000Z</time>
      </trkpt>
      <trkpt lat="47.17877" lon="-1.59961">
        <ele>57</ele>
        <time>2021-01-02T14:57:11.000Z</time>
      </trkpt>
      <trkpt lat="47.17868" lon="-1.59978">
        <ele>57</ele>
        <time>2021-01-02T14:57:13.000Z</time>
      </trkpt>
      <trkpt lat="47.17859" lon="-1.59994">
        <ele>57</ele>
        <time>2021-01-02T14:57:15.000Z</time>
      </trkpt>
      <trkpt lat="47.17851" lon="-1.60009">
        <ele>57</ele>
        <time>2021-01-02T14:57:17.000Z</time>
      </trkpt>
      <trkpt lat="47.17843" lon="-1.60023">
        <ele>57</ele>
        <time>2021-01-02T14:57:19.000Z</time>
      </trkpt>
      <trkpt lat="47.17834" lon="-1.60037">
        <ele>57</ele>
        <time>2021-01-02T14:57:21.000Z</time>
      </trkpt>
      <trkpt lat="47.17825" lon="-1.60052">
        <ele>58</ele>
        <time>2021-01-02T14:57:23.000Z</time>
      </trkpt>
      <trkpt lat="47.17817" lon="-1.60066">
        <ele>59</ele>
        <time>2021-01-02T14:57:25.000Z</time>
      </trkpt>
      <trkpt lat="47.1781" lon="-1.6008">
        <ele>59</ele>
        <time>2021-01-02T14:57:27.000Z</time>
      </trkpt>
      <trkpt lat="47.17803" lon="-1.60093">
        <ele>60</ele>
        <time>2021-01-02T14:57:29.000Z</time>
      </trkpt>
      <trkpt lat="47.17795" lon="-1.60105">
        <ele>60</ele>
        <time>2021-01-02T14:57:31.000Z</time>
      </trkpt>
      <trkpt lat="47.17789" lon="-1.60118">
        <ele>61</ele>
        <time>2021-01-02T14:57:33.000Z</time>
      </trkpt>
      <trkpt lat="47.17782" lon="-1.6013">
        <ele>62</ele>
        <time>2021-01-02T14:57:35.000Z</time>
      </trkpt>
      <trkpt lat="47.17774" lon="-1.60142">
        <ele>62</ele>
        <time>2021-01-02T14:57:37.000Z</time>
      </trkpt>
      <trkpt lat="47.17767" lon="-1.60155">
        <ele>62</ele>
        <time>2021-01-02T14:57:39.000Z</time>
      </trkpt>
      <trkpt lat="47.17761" lon="-1.60168">
        <ele>63</ele>
        <time>2021-01-02T14:57:41.000Z</time>
      </trkpt>
      <trkpt lat="47.17755" lon="-1.60182">
        <ele>63</ele>
        <time>2021-01-02T14:57:43.000Z</time>
      </trkpt>
      <trkpt lat="47.17751" lon="-1.60197">
        <ele>64</ele>
        <time>2021-01-02T14:57:45.000Z</time>
      </trkpt>
      <trkpt lat="47.17747" lon="-1.60212">
        <ele>64</ele>
        <time>2021-01-02T14:57:47.000Z</time>
      </trkpt>
      <trkpt lat="47.17744" lon="-1.60228">
        <ele>65</ele>
        <time>2021-01-02T14:57:49.000Z</time>
      </trkpt>
      <trkpt lat="47.1774" lon="-1.60244">
        <ele>65</ele>
        <time>2021-01-02T14:57:51.000Z</time>
      </trkpt>
      <trkpt lat="47.17736" lon="-1.60259">
        <ele>65</ele>
        <time>2021-01-02T14:57:53.000Z</time>
      </trkpt>
      <trkpt lat="47.17729" lon="-1.60273">
        <ele>65</ele>
        <time>2021-01-02T14:57:55.000Z</time>
      </trkpt>
      <trkpt lat="47.17721" lon="-1.60285">
        <ele>65</ele>
        <time>2021-01-02T14:57:57.000Z</time>
      </trkpt>
      <trkpt lat="47.17714" lon="-1.60296">
        <ele>66</ele>
        <time>2021-01-02T14:57:59.000Z</time>
      </trkpt>
      <trkpt lat="47.17706" lon="-1.60307">
        <ele>65</ele>
        <time>2021-01-02T14:58:01.000Z</time>
      </trkpt>
      <trkpt lat="47.17699" lon="-1.60318">
        <ele>66</ele>
        <time>2021-01-02T14:58:03.000Z</time>
      </trkpt>
      <trkpt lat="47.17691" lon="-1.60327">
        <ele>66</ele>
        <time>2021-01-02T14:58:05.000Z</time>
      </trkpt>
      <trkpt lat="47.17684" lon="-1.60337">
        <ele>65</ele>
        <time>2021-01-02T14:58:07.000Z</time>
      </trkpt>
      <trkpt lat="47.17676" lon="-1.60348">
        <ele>65</ele>
        <time>2021-01-02T14:58:09.000Z</time>
      </trkpt>
      <trkpt lat="47.17668" lon="-1.60359">
        <ele>65</ele>
        <time>2021-01-02T14:58:11.000Z</time>
      </trkpt>
      <trkpt lat="47.1766" lon="-1.60371">
        <ele>65</ele>
        <time>2021-01-02T14:58:13.000Z</time>
      </trkpt>
      <trkpt lat="47.17648" lon="-1.60389">
        <ele>65</ele>
        <time>2021-01-02T14:58:16.000Z</time>
      </trkpt>
      <trkpt lat="47.1764" lon="-1.60402">
        <ele>64</ele>
        <time>2021-01-02T14:58:18.000Z</time>
      </trkpt>
      <trkpt lat="47.17631" lon="-1.60416">
        <ele>64</ele>
        <time>2021-01-02T14:58:20.000Z</time>
      </trkpt>
      <trkpt lat="47.17623" lon="-1.6043">
        <ele>64</ele>
        <time>2021-01-02T14:58:22.000Z</time>
      </trkpt>
      <trkpt lat="47.17614" lon="-1.60444">
        <ele>63</ele>
        <time>2021-01-02T14:58:24.000Z</time>
      </trkpt>
      <trkpt lat="47.17605" lon="-1.60459">
        <ele>63</ele>
        <time>2021-01-02T14:58:26.000Z</time>
      </trkpt>
      <trkpt lat="47.17595" lon="-1.60473">
        <ele>63</ele>
        <time>2021-01-02T14:58:28.000Z</time>
      </trkpt>
      <trkpt lat="47.17587" lon="-1.60488">
        <ele>63</ele>
        <time>2021-01-02T14:58:30.000Z</time>
      </trkpt>
      <trkpt lat="47.17579" lon="-1.60502">
        <ele>63</ele>
        <time>2021-01-02T14:58:32.000Z</time>
      </trkpt>
      <trkpt lat="47.1757" lon="-1.60516">
        <ele>63</ele>
        <time>2021-01-02T14:58:34.000Z</time>
      </trkpt>
      <trkpt lat="47.17561" lon="-1.6053">
        <ele>63</ele>
        <time>2021-01-02T14:58:36.000Z</time>
      </trkpt>
      <trkpt lat="47.17553" lon="-1.60544">
        <ele>62</ele>
        <time>2021-01-02T14:58:38.000Z</time>
      </trkpt>
      <trkpt lat="47.17544" lon="-1.60558">
        <ele>62</ele>
        <time>2021-01-02T14:58:40.000Z</time>
      </trkpt>
      <trkpt lat="47.17535" lon="-1.60571">
        <ele>62</ele>
        <time>2021-01-02T14:58:42.000Z</time>
      </trkpt>
      <trkpt lat="47.17526" lon="-1.60586">
        <ele>62</ele>
        <time>2021-01-02T14:58:44.000Z</time>
      </trkpt>
      <trkpt lat="47.17518" lon="-1.606">
        <ele>62</ele>
        <time>2021-01-02T14:58:46.000Z</time>
      </trkpt>
      <trkpt lat="47.17509" lon="-1.60614">
        <ele>61</ele>
        <time>2021-01-02T14:58:48.000Z</time>
      </trkpt>
      <trkpt lat="47.175" lon="-1.60629">
        <ele>61</ele>
        <time>2021-01-02T14:58:50.000Z</time>
      </trkpt>
      <trkpt lat="47.17492" lon="-1.60643">
        <ele>61</ele>
        <time>2021-01-02T14:58:52.000Z</time>
      </trkpt>
      <trkpt lat="47.17484" lon="-1.60656">
        <ele>61</ele>
        <time>2021-01-02T14:58:54.000Z</time>
      </trkpt>
      <trkpt lat="47.17475" lon="-1.60671">
        <ele>61</ele>
        <time>2021-01-02T14:58:56.000Z</time>
      </trkpt>
      <trkpt lat="47.17466" lon="-1.60684">
        <ele>61</ele>
        <time>2021-01-02T14:58:58.000Z</time>
      </trkpt>
      <trkpt lat="47.17458" lon="-1.60698">
        <ele>60</ele>
        <time>2021-01-02T14:59:00.000Z</time>
      </trkpt>
      <trkpt lat="47.17449" lon="-1.60713">
        <ele>60</ele>
        <time>2021-01-02T14:59:02.000Z</time>
      </trkpt>
      <trkpt lat="47.1744" lon="-1.60727">
        <ele>60</ele>
        <time>2021-01-02T14:59:04.000Z</time>
      </trkpt>
      <trkpt lat="47.17432" lon="-1.60743">
        <ele>59</ele>
        <time>2021-01-02T14:59:06.000Z</time>
      </trkpt>
      <trkpt lat="47.17424" lon="-1.60759">
        <ele>59</ele>
        <time>2021-01-02T14:59:08.000Z</time>
      </trkpt>
      <trkpt lat="47.17417" lon="-1.60778">
        <ele>58</ele>
        <time>2021-01-02T14:59:10.000Z</time>
      </trkpt>
      <trkpt lat="47.17411" lon="-1.60797">
        <ele>57</ele>
        <time>2021-01-02T14:59:12.000Z</time>
      </trkpt>
      <trkpt lat="47.17404" lon="-1.60816">
        <ele>57</ele>
        <time>2021-01-02T14:59:14.000Z</time>
      </trkpt>
      <trkpt lat="47.174" lon="-1.60838">
        <ele>56</ele>
        <time>2021-01-02T14:59:16.000Z</time>
      </trkpt>
      <trkpt lat="47.17397" lon="-1.60859">
        <ele>56</ele>
        <time>2021-01-02T14:59:18.000Z</time>
      </trkpt>
      <trkpt lat="47.17396" lon="-1.60881">
        <ele>56</ele>
        <time>2021-01-02T14:59:20.000Z</time>
      </trkpt>
      <trkpt lat="47.17395" lon="-1.60903">
        <ele>56</ele>
        <time>2021-01-02T14:59:22.000Z</time>
      </trkpt>
      <trkpt lat="47.17396" lon="-1.60924">
        <ele>55</ele>
        <time>2021-01-02T14:59:24.000Z</time>
      </trkpt>
      <trkpt lat="47.17399" lon="-1.60946">
        <ele>55</ele>
        <time>2021-01-02T14:59:26.000Z</time>
      </trkpt>
      <trkpt lat="47.17404" lon="-1.60965">
        <ele>55</ele>
        <time>2021-01-02T14:59:28.000Z</time>
      </trkpt>
      <trkpt lat="47.1741" lon="-1.60982">
        <ele>55</ele>
        <time>2021-01-02T14:59:30.000Z</time>
      </trkpt>
      <trkpt lat="47.17417" lon="-1.61">
        <ele>55</ele>
        <time>2021-01-02T14:59:32.000Z</time>
      </trkpt>
      <trkpt lat="47.17421" lon="-1.61021">
        <ele>55</ele>
        <time>2021-01-02T14:59:34.000Z</time>
      </trkpt>
      <trkpt lat="47.17422" lon="-1.61041">
        <ele>55</ele>
        <time>2021-01-02T14:59:36.000Z</time>
      </trkpt>
      <trkpt lat="47.17425" lon="-1.61059">
        <ele>54</ele>
        <time>2021-01-02T14:59:38.000Z</time>
      </trkpt>
      <trkpt lat="47.17432" lon="-1.61075">
        <ele>55</ele>
        <time>2021-01-02T14:59:40.000Z</time>
      </trkpt>
      <trkpt lat="47.17439" lon="-1.61091">
        <ele>55</ele>
        <time>2021-01-02T14:59:42.000Z</time>
      </trkpt>
      <trkpt lat="47.17446" lon="-1.61107">
        <ele>56</ele>
        <time>2021-01-02T14:59:44.000Z</time>
      </trkpt>
      <trkpt lat="47.17453" lon="-1.61124">
        <ele>57</ele>
        <time>2021-01-02T14:59:46.000Z</time>
      </trkpt>
      <trkpt lat="47.1746" lon="-1.6114">
        <ele>58</ele>
        <time>2021-01-02T14:59:48.000Z</time>
      </trkpt>
      <trkpt lat="47.17466" lon="-1.61157">
        <ele>58</ele>
        <time>2021-01-02T14:59:50.000Z</time>
      </trkpt>
      <trkpt lat="47.17473" lon="-1.61175">
        <ele>59</ele>
        <time>2021-01-02T14:59:52.000Z</time>
      </trkpt>
      <trkpt lat="47.17481" lon="-1.61192">
        <ele>58</ele>
        <time>2021-01-02T14:59:54.000Z</time>
      </trkpt>
      <trkpt lat="47.17488" lon="-1.61208">
        <ele>58</ele>
        <time>2021-01-02T14:59:56.000Z</time>
      </trkpt>
      <trkpt lat="47.17495" lon="-1.61224">
        <ele>58</ele>
        <time>2021-01-02T14:59:58.000Z</time>
      </trkpt>
      <trkpt lat="47.17502" lon="-1.6124">
        <ele>59</ele>
        <time>2021-01-02T15:00:00.000Z</time>
      </trkpt>
      <trkpt lat="47.1751" lon="-1.61255">
        <ele>59</ele>
        <time>2021-01-02T15:00:02.000Z</time>
      </trkpt>
      <trkpt lat="47.17518" lon="-1.61269">
        <ele>59</ele>
        <time>2021-01-02T15:00:04.000Z</time>
      </trkpt>
      <trkpt lat="47.17528" lon="-1.61281">
        <ele>59</ele>
        <time>2021-01-02T15:00:06.000Z</time>
      </trkpt>
      <trkpt lat="47.1754" lon="-1.61289">
        <ele>59</ele>
        <time>2021-01-02T15:00:08.000Z</time>
      </trkpt>
      <trkpt lat="47.17551" lon="-1.61297">
        <ele>59</ele>
        <time>2021-01-02T15:00:10.000Z</time>
      </trkpt>
      <trkpt lat="47.1756" lon="-1.61311">
        <ele>59</ele>
        <time>2021-01-02T15:00:12.000Z</time>
      </trkpt>
      <trkpt lat="47.17562" lon="-1.61331">
        <ele>58</ele>
        <time>2021-01-02T15:00:14.000Z</time>
      </trkpt>
      <trkpt lat="47.17554" lon="-1.61348">
        <ele>59</ele>
        <time>2021-01-02T15:00:16.000Z</time>
      </trkpt>
      <trkpt lat="47.17542" lon="-1.61361">
        <ele>58</ele>
        <time>2021-01-02T15:00:18.000Z</time>
      </trkpt>
      <trkpt lat="47.17531" lon="-1.61374">
        <ele>58</ele>
        <time>2021-01-02T15:00:20.000Z</time>
      </trkpt>
      <trkpt lat="47.17524" lon="-1.61392">
        <ele>58</ele>
        <time>2021-01-02T15:00:22.000Z</time>
      </trkpt>
      <trkpt lat="47.17519" lon="-1.6141">
        <ele>58</ele>
        <time>2021-01-02T15:00:24.000Z</time>
      </trkpt>
      <trkpt lat="47.17516" lon="-1.61426">
        <ele>59</ele>
        <time>2021-01-02T15:00:26.000Z</time>
      </trkpt>
      <trkpt lat="47.17513" lon="-1.61441">
        <ele>60</ele>
        <time>2021-01-02T15:00:28.000Z</time>
      </trkpt>
      <trkpt lat="47.17508" lon="-1.61455">
        <ele>61</ele>
        <time>2021-01-02T15:00:30.000Z</time>
      </trkpt>
      <trkpt lat="47.175" lon="-1.61464">
        <ele>62</ele>
        <time>2021-01-02T15:00:32.000Z</time>
      </trkpt>
      <trkpt lat="47.1749" lon="-1.61468">
        <ele>62</ele>
        <time>2021-01-02T15:00:34.000Z</time>
      </trkpt>
      <trkpt lat="47.1748" lon="-1.61472">
        <ele>62</ele>
        <time>2021-01-02T15:00:36.000Z</time>
      </trkpt>
      <trkpt lat="47.17469" lon="-1.61477">
        <ele>63</ele>
        <time>2021-01-02T15:00:38.000Z</time>
      </trkpt>
      <trkpt lat="47.17459" lon="-1.61482">
        <ele>63</ele>
        <time>2021-01-02T15:00:40.000Z</time>
      </trkpt>
      <trkpt lat="47.17448" lon="-1.61487">
        <ele>64</ele>
        <time>2021-01-02T15:00:42.000Z</time>
      </trkpt>
      <trkpt lat="47.17437" lon="-1.61493">
        <ele>64</ele>
        <time>2021-01-02T15:00:44.000Z</time>
      </trkpt>
      <trkpt lat="47.17427" lon="-1.61498">
        <ele>64</ele>
        <time>2021-01-02T15:00:46.000Z</time>
      </trkpt>
      <trkpt lat="47.17418" lon="-1.61506">
        <ele>64</ele>
        <time>2021-01-02T15:00:48.000Z</time>
      </trkpt>
      <trkpt lat="47.17409" lon="-1.61512">
        <ele>65</ele>
        <time>2021-01-02T15:00:50.000Z</time>
      </trkpt>
      <trkpt lat="47.174" lon="-1.6152">
        <ele>65</ele>
        <time>2021-01-02T15:00:52.000Z</time>
      </trkpt>
      <trkpt lat="47.1739" lon="-1.61528">
        <ele>65</ele>
        <time>2021-01-02T15:00:54.000Z</time>
      </trkpt>
      <trkpt lat="47.17382" lon="-1.61536">
        <ele>66</ele>
        <time>2021-01-02T15:00:56.000Z</time>
      </trkpt>
      <trkpt lat="47.17372" lon="-1.6155">
        <ele>68</ele>
        <time>2021-01-02T15:00:59.000Z</time>
      </trkpt>
      <trkpt lat="47.17362" lon="-1.61558">
        <ele>69</ele>
        <time>2021-01-02T15:01:01.000Z</time>
      </trkpt>
      <trkpt lat="47.17355" lon="-1.61568">
        <ele>70</ele>
        <time>2021-01-02T15:01:03.000Z</time>
      </trkpt>
      <trkpt lat="47.17346" lon="-1.61577">
        <ele>70</ele>
        <time>2021-01-02T15:01:05.000Z</time>
      </trkpt>
      <trkpt lat="47.17338" lon="-1.61587">
        <ele>70</ele>
        <time>2021-01-02T15:01:07.000Z</time>
      </trkpt>
      <trkpt lat="47.1733" lon="-1.61596">
        <ele>69</ele>
        <time>2021-01-02T15:01:09.000Z</time>
      </trkpt>
      <trkpt lat="47.17321" lon="-1.61606">
        <ele>70</ele>
        <time>2021-01-02T15:01:11.000Z</time>
      </trkpt>
      <trkpt lat="47.17314" lon="-1.61618">
        <ele>70</ele>
        <time>2021-01-02T15:01:13.000Z</time>
      </trkpt>
      <trkpt lat="47.17306" lon="-1.6163">
        <ele>70</ele>
        <time>2021-01-02T15:01:15.000Z</time>
      </trkpt>
      <trkpt lat="47.17297" lon="-1.61642">
        <ele>70</ele>
        <time>2021-01-02T15:01:17.000Z</time>
      </trkpt>
      <trkpt lat="47.1729" lon="-1.61654">
        <ele>70</ele>
        <time>2021-01-02T15:01:19.000Z</time>
      </trkpt>
      <trkpt lat="47.17283" lon="-1.61667">
        <ele>70</ele>
        <time>2021-01-02T15:01:21.000Z</time>
      </trkpt>
      <trkpt lat="47.17276" lon="-1.61681">
        <ele>70</ele>
        <time>2021-01-02T15:01:23.000Z</time>
      </trkpt>
      <trkpt lat="47.17269" lon="-1.61694">
        <ele>69</ele>
        <time>2021-01-02T15:01:25.000Z</time>
      </trkpt>
      <trkpt lat="47.17263" lon="-1.61707">
        <ele>69</ele>
        <time>2021-01-02T15:01:27.000Z</time>
      </trkpt>
      <trkpt lat="47.17256" lon="-1.61721">
        <ele>69</ele>
        <time>2021-01-02T15:01:29.000Z</time>
      </trkpt>
      <trkpt lat="47.1725" lon="-1.61735">
        <ele>69</ele>
        <time>2021-01-02T15:01:31.000Z</time>
      </trkpt>
      <trkpt lat="47.17246" lon="-1.6175">
        <ele>68</ele>
        <time>2021-01-02T15:01:33.000Z</time>
      </trkpt>
      <trkpt lat="47.17243" lon="-1.61767">
        <ele>68</ele>
        <time>2021-01-02T15:01:35.000Z</time>
      </trkpt>
      <trkpt lat="47.17237" lon="-1.61782">
        <ele>67</ele>
        <time>2021-01-02T15:01:37.000Z</time>
      </trkpt>
      <trkpt lat="47.17227" lon="-1.61791">
        <ele>67</ele>
        <time>2021-01-02T15:01:39.000Z</time>
      </trkpt>
      <trkpt lat="47.17217" lon="-1.618">
        <ele>67</ele>
        <time>2021-01-02T15:01:41.000Z</time>
      </trkpt>
      <trkpt lat="47.17206" lon="-1.61809">
        <ele>67</ele>
        <time>2021-01-02T15:01:43.000Z</time>
      </trkpt>
      <trkpt lat="47.17196" lon="-1.61818">
        <ele>67</ele>
        <time>2021-01-02T15:01:45.000Z</time>
      </trkpt>
      <trkpt lat="47.17185" lon="-1.61828">
        <ele>67</ele>
        <time>2021-01-02T15:01:47.000Z</time>
      </trkpt>
      <trkpt lat="47.17175" lon="-1.61838">
        <ele>67</ele>
        <time>2021-01-02T15:01:49.000Z</time>
      </trkpt>
      <trkpt lat="47.17165" lon="-1.61848">
        <ele>67</ele>
        <time>2021-01-02T15:01:51.000Z</time>
      </trkpt>
      <trkpt lat="47.17155" lon="-1.61857">
        <ele>67</ele>
        <time>2021-01-02T15:01:53.000Z</time>
      </trkpt>
      <trkpt lat="47.17144" lon="-1.61867">
        <ele>67</ele>
        <time>2021-01-02T15:01:55.000Z</time>
      </trkpt>
      <trkpt lat="47.17134" lon="-1.61877">
        <ele>66</ele>
        <time>2021-01-02T15:01:57.000Z</time>
      </trkpt>
      <trkpt lat="47.17124" lon="-1.61886">
        <ele>66</ele>
        <time>2021-01-02T15:01:59.000Z</time>
      </trkpt>
      <trkpt lat="47.17113" lon="-1.61897">
        <ele>66</ele>
        <time>2021-01-02T15:02:01.000Z</time>
      </trkpt>
      <trkpt lat="47.17102" lon="-1.61907">
        <ele>66</ele>
        <time>2021-01-02T15:02:03.000Z</time>
      </trkpt>
      <trkpt lat="47.17092" lon="-1.61918">
        <ele>66</ele>
        <time>2021-01-02T15:02:05.000Z</time>
      </trkpt>
      <trkpt lat="47.17082" lon="-1.61928">
        <ele>66</ele>
        <time>2021-01-02T15:02:07.000Z</time>
      </trkpt>
      <trkpt lat="47.17073" lon="-1.61937">
        <ele>65</ele>
        <time>2021-01-02T15:02:09.000Z</time>
      </trkpt>
      <trkpt lat="47.17063" lon="-1.61947">
        <ele>65</ele>
        <time>2021-01-02T15:02:11.000Z</time>
      </trkpt>
      <trkpt lat="47.17054" lon="-1.61961">
        <ele>65</ele>
        <time>2021-01-02T15:02:13.000Z</time>
      </trkpt>
      <trkpt lat="47.17044" lon="-1.61974">
        <ele>65</ele>
        <time>2021-01-02T15:02:15.000Z</time>
      </trkpt>
      <trkpt lat="47.17035" lon="-1.61988">
        <ele>65</ele>
        <time>2021-01-02T15:02:17.000Z</time>
      </trkpt>
      <trkpt lat="47.17026" lon="-1.62001">
        <ele>65</ele>
        <time>2021-01-02T15:02:19.000Z</time>
      </trkpt>
      <trkpt lat="47.17017" lon="-1.62014">
        <ele>65</ele>
        <time>2021-01-02T15:02:21.000Z</time>
      </trkpt>
      <trkpt lat="47.17008" lon="-1.62028">
        <ele>65</ele>
        <time>2021-01-02T15:02:23.000Z</time>
      </trkpt>
      <trkpt lat="47.16999" lon="-1.62043">
        <ele>65</ele>
        <time>2021-01-02T15:02:25.000Z</time>
      </trkpt>
      <trkpt lat="47.16991" lon="-1.62057">
        <ele>65</ele>
        <time>2021-01-02T15:02:27.000Z</time>
      </trkpt>
      <trkpt lat="47.16983" lon="-1.62072">
        <ele>65</ele>
        <time>2021-01-02T15:02:29.000Z</time>
      </trkpt>
      <trkpt lat="47.16974" lon="-1.62086">
        <ele>65</ele>
        <time>2021-01-02T15:02:31.000Z</time>
      </trkpt>
      <trkpt lat="47.16966" lon="-1.62101">
        <ele>65</ele>
        <time>2021-01-02T15:02:33.000Z</time>
      </trkpt>
      <trkpt lat="47.16958" lon="-1.62116">
        <ele>65</ele>
        <time>2021-01-02T15:02:35.000Z</time>
      </trkpt>
      <trkpt lat="47.1695" lon="-1.62131">
        <ele>66</ele>
        <time>2021-01-02T15:02:37.000Z</time>
      </trkpt>
      <trkpt lat="47.16942" lon="-1.62146">
        <ele>66</ele>
        <time>2021-01-02T15:02:39.000Z</time>
      </trkpt>
      <trkpt lat="47.16934" lon="-1.62161">
        <ele>66</ele>
        <time>2021-01-02T15:02:41.000Z</time>
      </trkpt>
      <trkpt lat="47.16928" lon="-1.62177">
        <ele>66</ele>
        <time>2021-01-02T15:02:43.000Z</time>
      </trkpt>
      <trkpt lat="47.1692" lon="-1.62193">
        <ele>66</ele>
        <time>2021-01-02T15:02:45.000Z</time>
      </trkpt>
      <trkpt lat="47.16912" lon="-1.62207">
        <ele>66</ele>
        <time>2021-01-02T15:02:47.000Z</time>
      </trkpt>
      <trkpt lat="47.16903" lon="-1.62221">
        <ele>66</ele>
        <time>2021-01-02T15:02:49.000Z</time>
      </trkpt>
      <trkpt lat="47.16892" lon="-1.62233">
        <ele>66</ele>
        <time>2021-01-02T15:02:51.000Z</time>
      </trkpt>
      <trkpt lat="47.16882" lon="-1.62246">
        <ele>66</ele>
        <time>2021-01-02T15:02:53.000Z</time>
      </trkpt>
      <trkpt lat="47.16873" lon="-1.62258">
        <ele>66</ele>
        <time>2021-01-02T15:02:55.000Z</time>
      </trkpt>
      <trkpt lat="47.16863" lon="-1.62269">
        <ele>66</ele>
        <time>2021-01-02T15:02:57.000Z</time>
      </trkpt>
      <trkpt lat="47.16853" lon="-1.62281">
        <ele>66</ele>
        <time>2021-01-02T15:02:59.000Z</time>
      </trkpt>
      <trkpt lat="47.16843" lon="-1.62293">
        <ele>66</ele>
        <time>2021-01-02T15:03:01.000Z</time>
      </trkpt>
      <trkpt lat="47.16834" lon="-1.62304">
        <ele>66</ele>
        <time>2021-01-02T15:03:03.000Z</time>
      </trkpt>
      <trkpt lat="47.16823" lon="-1.62315">
        <ele>66</ele>
        <time>2021-01-02T15:03:05.000Z</time>
      </trkpt>
      <trkpt lat="47.16812" lon="-1.62322">
        <ele>66</ele>
        <time>2021-01-02T15:03:07.000Z</time>
      </trkpt>
      <trkpt lat="47.168" lon="-1.6233">
        <ele>66</ele>
        <time>2021-01-02T15:03:09.000Z</time>
      </trkpt>
      <trkpt lat="47.16788" lon="-1.62337">
        <ele>65</ele>
        <time>2021-01-02T15:03:11.000Z</time>
      </trkpt>
      <trkpt lat="47.16777" lon="-1.62343">
        <ele>65</ele>
        <time>2021-01-02T15:03:13.000Z</time>
      </trkpt>
      <trkpt lat="47.16765" lon="-1.6235">
        <ele>64</ele>
        <time>2021-01-02T15:03:15.000Z</time>
      </trkpt>
      <trkpt lat="47.16754" lon="-1.62359">
        <ele>64</ele>
        <time>2021-01-02T15:03:17.000Z</time>
      </trkpt>
      <trkpt lat="47.16743" lon="-1.62369">
        <ele>65</ele>
        <time>2021-01-02T15:03:19.000Z</time>
      </trkpt>
      <trkpt lat="47.16735" lon="-1.62383">
        <ele>64</ele>
        <time>2021-01-02T15:03:21.000Z</time>
      </trkpt>
      <trkpt lat="47.16731" lon="-1.62399">
        <ele>64</ele>
        <time>2021-01-02T15:03:23.000Z</time>
      </trkpt>
      <trkpt lat="47.16728" lon="-1.62416">
        <ele>64</ele>
        <time>2021-01-02T15:03:25.000Z</time>
      </trkpt>
      <trkpt lat="47.16726" lon="-1.62432">
        <ele>65</ele>
        <time>2021-01-02T15:03:27.000Z</time>
      </trkpt>
      <trkpt lat="47.16722" lon="-1.62449">
        <ele>65</ele>
        <time>2021-01-02T15:03:29.000Z</time>
      </trkpt>
      <trkpt lat="47.16718" lon="-1.62466">
        <ele>65</ele>
        <time>2021-01-02T15:03:31.000Z</time>
      </trkpt>
      <trkpt lat="47.16714" lon="-1.62483">
        <ele>65</ele>
        <time>2021-01-02T15:03:33.000Z</time>
      </trkpt>
      <trkpt lat="47.16719" lon="-1.62496">
        <ele>64</ele>
        <time>2021-01-02T15:03:35.000Z</time>
      </trkpt>
      <trkpt lat="47.16732" lon="-1.62501">
        <ele>65</ele>
        <time>2021-01-02T15:03:37.000Z</time>
      </trkpt>
      <trkpt lat="47.16744" lon="-1.62505">
        <ele>66</ele>
        <time>2021-01-02T15:03:39.000Z</time>
      </trkpt>
      <trkpt lat="47.16756" lon="-1.62512">
        <ele>66</ele>
        <time>2021-01-02T15:03:41.000Z</time>
      </trkpt>
      <trkpt lat="47.16769" lon="-1.62519">
        <ele>66</ele>
        <time>2021-01-02T15:03:43.000Z</time>
      </trkpt>
      <trkpt lat="47.16781" lon="-1.62527">
        <ele>67</ele>
        <time>2021-01-02T15:03:45.000Z</time>
      </trkpt>
      <trkpt lat="47.16792" lon="-1.62535">
        <ele>67</ele>
        <time>2021-01-02T15:03:47.000Z</time>
      </trkpt>
      <trkpt lat="47.16803" lon="-1.62542">
        <ele>67</ele>
        <time>2021-01-02T15:03:49.000Z</time>
      </trkpt>
      <trkpt lat="47.16814" lon="-1.6255">
        <ele>67</ele>
        <time>2021-01-02T15:03:51.000Z</time>
      </trkpt>
      <trkpt lat="47.16823" lon="-1.6256">
        <ele>68</ele>
        <time>2021-01-02T15:03:53.000Z</time>
      </trkpt>
      <trkpt lat="47.1683" lon="-1.62574">
        <ele>68</ele>
        <time>2021-01-02T15:03:55.000Z</time>
      </trkpt>
      <trkpt lat="47.16827" lon="-1.62593">
        <ele>68</ele>
        <time>2021-01-02T15:03:57.000Z</time>
      </trkpt>
      <trkpt lat="47.16819" lon="-1.62606">
        <ele>67</ele>
        <time>2021-01-02T15:03:59.000Z</time>
      </trkpt>
      <trkpt lat="47.16811" lon="-1.6262">
        <ele>67</ele>
        <time>2021-01-02T15:04:01.000Z</time>
      </trkpt>
      <trkpt lat="47.16803" lon="-1.62633">
        <ele>68</ele>
        <time>2021-01-02T15:04:03.000Z</time>
      </trkpt>
      <trkpt lat="47.16796" lon="-1.62644">
        <ele>68</ele>
        <time>2021-01-02T15:04:05.000Z</time>
      </trkpt>
      <trkpt lat="47.16791" lon="-1.62655">
        <ele>68</ele>
        <time>2021-01-02T15:04:07.000Z</time>
      </trkpt>
      <trkpt lat="47.16782" lon="-1.62663">
        <ele>68</ele>
        <time>2021-01-02T15:04:10.000Z</time>
      </trkpt>
      <trkpt lat="47.16775" lon="-1.62654">
        <ele>68</ele>
        <time>2021-01-02T15:04:13.000Z</time>
      </trkpt>
    </trkseg>
  </trk>
</gpx>